<?xml version="1.0" encoding="UTF-8" standalone="no" ?>
<gpx xmlns="http://www.topografix.com/GPX/1/1" xmlns:xsi="http://www.w3.org/2001/XMLSchema-instance" xsi:schemaLocation="http://www.topografix.com/GPX/1/1 http://www.topografix.com/GPX/1/1/gpx.xsd" version="1.1" creator="VisuGPX - https://www.visugpx.com">
  <metadata>
    <name>Rando Mange Talus 2025</name>
  </metadata>
  <trk>
    <name><![CDATA[Rando Mange Talus 2025_1]]></name>
    <trkseg>
      <trkpt lat="45.12841" lon="0.63896">
        <ele>157.2</ele>
        <time>2025-05-25T06:53:59Z</time>
      </trkpt>
      <trkpt lat="45.12841" lon="0.63896">
        <ele>157.2</ele>
        <time>2025-05-25T06:54:00Z</time>
      </trkpt>
      <trkpt lat="45.12834" lon="0.63912">
        <ele>158</ele>
        <time>2025-05-25T06:54:21Z</time>
      </trkpt>
      <trkpt lat="45.12834" lon="0.63914">
        <ele>158.2</ele>
        <time>2025-05-25T06:54:22Z</time>
      </trkpt>
      <trkpt lat="45.12835" lon="0.63916">
        <ele>158.4</ele>
        <time>2025-05-25T06:54:23Z</time>
      </trkpt>
      <trkpt lat="45.12835" lon="0.63918">
        <ele>158.6</ele>
        <time>2025-05-25T06:54:24Z</time>
      </trkpt>
      <trkpt lat="45.12836" lon="0.63921">
        <ele>158.8</ele>
        <time>2025-05-25T06:54:25Z</time>
      </trkpt>
      <trkpt lat="45.12837" lon="0.63923">
        <ele>159</ele>
        <time>2025-05-25T06:54:26Z</time>
      </trkpt>
      <trkpt lat="45.12838" lon="0.63924">
        <ele>159.2</ele>
        <time>2025-05-25T06:54:27Z</time>
      </trkpt>
      <trkpt lat="45.12839" lon="0.63926">
        <ele>159.6</ele>
        <time>2025-05-25T06:54:28Z</time>
      </trkpt>
      <trkpt lat="45.1284" lon="0.63928">
        <ele>159.8</ele>
        <time>2025-05-25T06:54:29Z</time>
      </trkpt>
      <trkpt lat="45.12841" lon="0.63931">
        <ele>160</ele>
        <time>2025-05-25T06:54:30Z</time>
      </trkpt>
      <trkpt lat="45.12842" lon="0.63934">
        <ele>160.2</ele>
        <time>2025-05-25T06:54:31Z</time>
      </trkpt>
      <trkpt lat="45.12842" lon="0.63937">
        <ele>160.6</ele>
        <time>2025-05-25T06:54:32Z</time>
      </trkpt>
      <trkpt lat="45.12841" lon="0.6394">
        <ele>160.8</ele>
        <time>2025-05-25T06:54:33Z</time>
      </trkpt>
      <trkpt lat="45.12841" lon="0.63943">
        <ele>161</ele>
        <time>2025-05-25T06:54:34Z</time>
      </trkpt>
      <trkpt lat="45.1284" lon="0.63946">
        <ele>161.2</ele>
        <time>2025-05-25T06:54:35Z</time>
      </trkpt>
      <trkpt lat="45.12839" lon="0.63949">
        <ele>161.4</ele>
        <time>2025-05-25T06:54:36Z</time>
      </trkpt>
      <trkpt lat="45.1284" lon="0.63952">
        <ele>161.6</ele>
        <time>2025-05-25T06:54:37Z</time>
      </trkpt>
      <trkpt lat="45.1284" lon="0.63956">
        <ele>161.6</ele>
        <time>2025-05-25T06:54:38Z</time>
      </trkpt>
      <trkpt lat="45.12841" lon="0.6396">
        <ele>161.8</ele>
        <time>2025-05-25T06:54:39Z</time>
      </trkpt>
      <trkpt lat="45.12842" lon="0.63963">
        <ele>161.8</ele>
        <time>2025-05-25T06:54:40Z</time>
      </trkpt>
      <trkpt lat="45.12843" lon="0.63967">
        <ele>162</ele>
        <time>2025-05-25T06:54:41Z</time>
      </trkpt>
      <trkpt lat="45.12845" lon="0.63971">
        <ele>161.8</ele>
        <time>2025-05-25T06:54:42Z</time>
      </trkpt>
      <trkpt lat="45.12845" lon="0.63976">
        <ele>161.8</ele>
        <time>2025-05-25T06:54:43Z</time>
      </trkpt>
      <trkpt lat="45.12844" lon="0.63981">
        <ele>161.6</ele>
        <time>2025-05-25T06:54:44Z</time>
      </trkpt>
      <trkpt lat="45.12843" lon="0.63986">
        <ele>161.4</ele>
        <time>2025-05-25T06:54:45Z</time>
      </trkpt>
      <trkpt lat="45.12842" lon="0.6399">
        <ele>161.2</ele>
        <time>2025-05-25T06:54:46Z</time>
      </trkpt>
      <trkpt lat="45.12841" lon="0.63993">
        <ele>161</ele>
        <time>2025-05-25T06:54:47Z</time>
      </trkpt>
      <trkpt lat="45.12839" lon="0.63997">
        <ele>161</ele>
        <time>2025-05-25T06:54:48Z</time>
      </trkpt>
      <trkpt lat="45.12837" lon="0.64001">
        <ele>160.8</ele>
        <time>2025-05-25T06:54:49Z</time>
      </trkpt>
      <trkpt lat="45.12835" lon="0.64003">
        <ele>160.8</ele>
        <time>2025-05-25T06:54:50Z</time>
      </trkpt>
      <trkpt lat="45.12834" lon="0.64006">
        <ele>160.6</ele>
        <time>2025-05-25T06:54:51Z</time>
      </trkpt>
      <trkpt lat="45.12832" lon="0.64008">
        <ele>160.6</ele>
        <time>2025-05-25T06:54:52Z</time>
      </trkpt>
      <trkpt lat="45.1283" lon="0.64011">
        <ele>160.6</ele>
        <time>2025-05-25T06:54:53Z</time>
      </trkpt>
      <trkpt lat="45.12827" lon="0.64013">
        <ele>160.6</ele>
        <time>2025-05-25T06:54:54Z</time>
      </trkpt>
      <trkpt lat="45.12824" lon="0.64015">
        <ele>160.6</ele>
        <time>2025-05-25T06:54:55Z</time>
      </trkpt>
      <trkpt lat="45.12821" lon="0.64018">
        <ele>160.6</ele>
        <time>2025-05-25T06:54:56Z</time>
      </trkpt>
      <trkpt lat="45.12819" lon="0.6402">
        <ele>160.6</ele>
        <time>2025-05-25T06:54:57Z</time>
      </trkpt>
      <trkpt lat="45.12817" lon="0.64023">
        <ele>160.6</ele>
        <time>2025-05-25T06:54:58Z</time>
      </trkpt>
      <trkpt lat="45.12815" lon="0.64025">
        <ele>160.8</ele>
        <time>2025-05-25T06:54:59Z</time>
      </trkpt>
      <trkpt lat="45.12813" lon="0.64027">
        <ele>160.8</ele>
        <time>2025-05-25T06:55:00Z</time>
      </trkpt>
      <trkpt lat="45.12811" lon="0.64029">
        <ele>160.8</ele>
        <time>2025-05-25T06:55:01Z</time>
      </trkpt>
      <trkpt lat="45.12809" lon="0.64031">
        <ele>161</ele>
        <time>2025-05-25T06:55:02Z</time>
      </trkpt>
      <trkpt lat="45.12807" lon="0.64033">
        <ele>161</ele>
        <time>2025-05-25T06:55:03Z</time>
      </trkpt>
      <trkpt lat="45.12804" lon="0.64036">
        <ele>161</ele>
        <time>2025-05-25T06:55:04Z</time>
      </trkpt>
      <trkpt lat="45.12801" lon="0.6404">
        <ele>161</ele>
        <time>2025-05-25T06:55:05Z</time>
      </trkpt>
      <trkpt lat="45.12798" lon="0.64043">
        <ele>160.8</ele>
        <time>2025-05-25T06:55:06Z</time>
      </trkpt>
      <trkpt lat="45.12795" lon="0.64047">
        <ele>160.8</ele>
        <time>2025-05-25T06:55:07Z</time>
      </trkpt>
      <trkpt lat="45.12792" lon="0.64051">
        <ele>160.6</ele>
        <time>2025-05-25T06:55:08Z</time>
      </trkpt>
      <trkpt lat="45.12789" lon="0.64054">
        <ele>160.4</ele>
        <time>2025-05-25T06:55:09Z</time>
      </trkpt>
      <trkpt lat="45.12786" lon="0.64059">
        <ele>160.2</ele>
        <time>2025-05-25T06:55:10Z</time>
      </trkpt>
      <trkpt lat="45.12782" lon="0.64063">
        <ele>160.2</ele>
        <time>2025-05-25T06:55:11Z</time>
      </trkpt>
      <trkpt lat="45.12779" lon="0.64067">
        <ele>160</ele>
        <time>2025-05-25T06:55:12Z</time>
      </trkpt>
      <trkpt lat="45.12776" lon="0.64071">
        <ele>159.8</ele>
        <time>2025-05-25T06:55:13Z</time>
      </trkpt>
      <trkpt lat="45.12774" lon="0.64076">
        <ele>159.6</ele>
        <time>2025-05-25T06:55:14Z</time>
      </trkpt>
      <trkpt lat="45.1277" lon="0.64081">
        <ele>159.4</ele>
        <time>2025-05-25T06:55:15Z</time>
      </trkpt>
      <trkpt lat="45.12767" lon="0.64086">
        <ele>159</ele>
        <time>2025-05-25T06:55:16Z</time>
      </trkpt>
      <trkpt lat="45.12763" lon="0.64091">
        <ele>158.8</ele>
        <time>2025-05-25T06:55:17Z</time>
      </trkpt>
      <trkpt lat="45.12759" lon="0.64097">
        <ele>158.6</ele>
        <time>2025-05-25T06:55:18Z</time>
      </trkpt>
      <trkpt lat="45.12755" lon="0.64102">
        <ele>158.2</ele>
        <time>2025-05-25T06:55:19Z</time>
      </trkpt>
      <trkpt lat="45.12752" lon="0.64108">
        <ele>158</ele>
        <time>2025-05-25T06:55:20Z</time>
      </trkpt>
      <trkpt lat="45.12748" lon="0.64114">
        <ele>157.8</ele>
        <time>2025-05-25T06:55:21Z</time>
      </trkpt>
      <trkpt lat="45.12743" lon="0.6412">
        <ele>157.6</ele>
        <time>2025-05-25T06:55:22Z</time>
      </trkpt>
      <trkpt lat="45.12739" lon="0.64126">
        <ele>157.4</ele>
        <time>2025-05-25T06:55:23Z</time>
      </trkpt>
      <trkpt lat="45.12734" lon="0.64134">
        <ele>157</ele>
        <time>2025-05-25T06:55:24Z</time>
      </trkpt>
      <trkpt lat="45.1273" lon="0.6414">
        <ele>156.8</ele>
        <time>2025-05-25T06:55:25Z</time>
      </trkpt>
      <trkpt lat="45.12726" lon="0.64147">
        <ele>156.4</ele>
        <time>2025-05-25T06:55:26Z</time>
      </trkpt>
      <trkpt lat="45.12722" lon="0.64153">
        <ele>156</ele>
        <time>2025-05-25T06:55:27Z</time>
      </trkpt>
      <trkpt lat="45.12717" lon="0.64158">
        <ele>155.8</ele>
        <time>2025-05-25T06:55:28Z</time>
      </trkpt>
      <trkpt lat="45.12713" lon="0.64164">
        <ele>155.6</ele>
        <time>2025-05-25T06:55:29Z</time>
      </trkpt>
      <trkpt lat="45.12711" lon="0.6417">
        <ele>155.6</ele>
        <time>2025-05-25T06:55:30Z</time>
      </trkpt>
      <trkpt lat="45.12708" lon="0.64175">
        <ele>155.6</ele>
        <time>2025-05-25T06:55:31Z</time>
      </trkpt>
      <trkpt lat="45.12706" lon="0.6418">
        <ele>155.6</ele>
        <time>2025-05-25T06:55:32Z</time>
      </trkpt>
      <trkpt lat="45.12703" lon="0.64186">
        <ele>155.6</ele>
        <time>2025-05-25T06:55:33Z</time>
      </trkpt>
      <trkpt lat="45.12701" lon="0.64192">
        <ele>155.8</ele>
        <time>2025-05-25T06:55:34Z</time>
      </trkpt>
      <trkpt lat="45.12699" lon="0.64199">
        <ele>156</ele>
        <time>2025-05-25T06:55:35Z</time>
      </trkpt>
      <trkpt lat="45.12697" lon="0.64205">
        <ele>156</ele>
        <time>2025-05-25T06:55:36Z</time>
      </trkpt>
      <trkpt lat="45.12696" lon="0.64211">
        <ele>156.2</ele>
        <time>2025-05-25T06:55:37Z</time>
      </trkpt>
      <trkpt lat="45.12695" lon="0.64215">
        <ele>156.4</ele>
        <time>2025-05-25T06:55:38Z</time>
      </trkpt>
      <trkpt lat="45.12695" lon="0.64219">
        <ele>156.6</ele>
        <time>2025-05-25T06:55:39Z</time>
      </trkpt>
      <trkpt lat="45.12694" lon="0.64223">
        <ele>156.8</ele>
        <time>2025-05-25T06:55:40Z</time>
      </trkpt>
      <trkpt lat="45.12694" lon="0.64228">
        <ele>157.2</ele>
        <time>2025-05-25T06:55:41Z</time>
      </trkpt>
      <trkpt lat="45.12693" lon="0.64232">
        <ele>157.6</ele>
        <time>2025-05-25T06:55:42Z</time>
      </trkpt>
      <trkpt lat="45.12692" lon="0.64236">
        <ele>157.8</ele>
        <time>2025-05-25T06:55:43Z</time>
      </trkpt>
      <trkpt lat="45.12691" lon="0.64241">
        <ele>158</ele>
        <time>2025-05-25T06:55:44Z</time>
      </trkpt>
      <trkpt lat="45.1269" lon="0.64246">
        <ele>158.4</ele>
        <time>2025-05-25T06:55:45Z</time>
      </trkpt>
      <trkpt lat="45.1269" lon="0.6425">
        <ele>158.6</ele>
        <time>2025-05-25T06:55:46Z</time>
      </trkpt>
      <trkpt lat="45.12689" lon="0.64254">
        <ele>158.8</ele>
        <time>2025-05-25T06:55:47Z</time>
      </trkpt>
      <trkpt lat="45.12689" lon="0.64258">
        <ele>159</ele>
        <time>2025-05-25T06:55:48Z</time>
      </trkpt>
      <trkpt lat="45.12689" lon="0.64263">
        <ele>159.2</ele>
        <time>2025-05-25T06:55:49Z</time>
      </trkpt>
      <trkpt lat="45.12689" lon="0.64266">
        <ele>159.6</ele>
        <time>2025-05-25T06:55:50Z</time>
      </trkpt>
      <trkpt lat="45.12689" lon="0.6427">
        <ele>160.2</ele>
        <time>2025-05-25T06:55:51Z</time>
      </trkpt>
      <trkpt lat="45.12689" lon="0.64274">
        <ele>160.4</ele>
        <time>2025-05-25T06:55:52Z</time>
      </trkpt>
      <trkpt lat="45.12688" lon="0.64278">
        <ele>160.8</ele>
        <time>2025-05-25T06:55:53Z</time>
      </trkpt>
      <trkpt lat="45.12687" lon="0.64281">
        <ele>161.2</ele>
        <time>2025-05-25T06:55:54Z</time>
      </trkpt>
      <trkpt lat="45.12685" lon="0.64284">
        <ele>161.4</ele>
        <time>2025-05-25T06:55:55Z</time>
      </trkpt>
      <trkpt lat="45.12684" lon="0.64286">
        <ele>161.8</ele>
        <time>2025-05-25T06:55:56Z</time>
      </trkpt>
      <trkpt lat="45.12682" lon="0.64287">
        <ele>162</ele>
        <time>2025-05-25T06:55:57Z</time>
      </trkpt>
      <trkpt lat="45.1268" lon="0.64289">
        <ele>162.2</ele>
        <time>2025-05-25T06:55:58Z</time>
      </trkpt>
      <trkpt lat="45.12678" lon="0.64291">
        <ele>162.6</ele>
        <time>2025-05-25T06:55:59Z</time>
      </trkpt>
      <trkpt lat="45.12677" lon="0.64293">
        <ele>162.8</ele>
        <time>2025-05-25T06:56:00Z</time>
      </trkpt>
      <trkpt lat="45.12676" lon="0.64295">
        <ele>163</ele>
        <time>2025-05-25T06:56:01Z</time>
      </trkpt>
      <trkpt lat="45.12674" lon="0.64297">
        <ele>163.4</ele>
        <time>2025-05-25T06:56:02Z</time>
      </trkpt>
      <trkpt lat="45.12673" lon="0.64298">
        <ele>163.8</ele>
        <time>2025-05-25T06:56:03Z</time>
      </trkpt>
      <trkpt lat="45.12671" lon="0.64299">
        <ele>164</ele>
        <time>2025-05-25T06:56:04Z</time>
      </trkpt>
      <trkpt lat="45.1267" lon="0.643">
        <ele>164.4</ele>
        <time>2025-05-25T06:56:05Z</time>
      </trkpt>
      <trkpt lat="45.12669" lon="0.64302">
        <ele>164.6</ele>
        <time>2025-05-25T06:56:06Z</time>
      </trkpt>
      <trkpt lat="45.12668" lon="0.64304">
        <ele>165</ele>
        <time>2025-05-25T06:56:07Z</time>
      </trkpt>
      <trkpt lat="45.12667" lon="0.64304">
        <ele>165.2</ele>
        <time>2025-05-25T06:56:08Z</time>
      </trkpt>
      <trkpt lat="45.12666" lon="0.64305">
        <ele>165.6</ele>
        <time>2025-05-25T06:56:09Z</time>
      </trkpt>
      <trkpt lat="45.12666" lon="0.64307">
        <ele>165.8</ele>
        <time>2025-05-25T06:56:10Z</time>
      </trkpt>
      <trkpt lat="45.12665" lon="0.64308">
        <ele>166.2</ele>
        <time>2025-05-25T06:56:11Z</time>
      </trkpt>
      <trkpt lat="45.12664" lon="0.6431">
        <ele>166.4</ele>
        <time>2025-05-25T06:56:12Z</time>
      </trkpt>
      <trkpt lat="45.12663" lon="0.64311">
        <ele>166.8</ele>
        <time>2025-05-25T06:56:13Z</time>
      </trkpt>
      <trkpt lat="45.12662" lon="0.64313">
        <ele>167</ele>
        <time>2025-05-25T06:56:14Z</time>
      </trkpt>
      <trkpt lat="45.12661" lon="0.64314">
        <ele>167.2</ele>
        <time>2025-05-25T06:56:15Z</time>
      </trkpt>
      <trkpt lat="45.1266" lon="0.64315">
        <ele>167.6</ele>
        <time>2025-05-25T06:56:16Z</time>
      </trkpt>
      <trkpt lat="45.1266" lon="0.64317">
        <ele>168</ele>
        <time>2025-05-25T06:56:17Z</time>
      </trkpt>
      <trkpt lat="45.1266" lon="0.64318">
        <ele>168.2</ele>
        <time>2025-05-25T06:56:18Z</time>
      </trkpt>
      <trkpt lat="45.12659" lon="0.64321">
        <ele>168.6</ele>
        <time>2025-05-25T06:56:19Z</time>
      </trkpt>
      <trkpt lat="45.12659" lon="0.64323">
        <ele>168.8</ele>
        <time>2025-05-25T06:56:20Z</time>
      </trkpt>
      <trkpt lat="45.12659" lon="0.64325">
        <ele>169.2</ele>
        <time>2025-05-25T06:56:21Z</time>
      </trkpt>
      <trkpt lat="45.12658" lon="0.64327">
        <ele>169.4</ele>
        <time>2025-05-25T06:56:22Z</time>
      </trkpt>
      <trkpt lat="45.12658" lon="0.64329">
        <ele>169.8</ele>
        <time>2025-05-25T06:56:23Z</time>
      </trkpt>
      <trkpt lat="45.12657" lon="0.6433">
        <ele>170.2</ele>
        <time>2025-05-25T06:56:24Z</time>
      </trkpt>
      <trkpt lat="45.12656" lon="0.64332">
        <ele>170.4</ele>
        <time>2025-05-25T06:56:25Z</time>
      </trkpt>
      <trkpt lat="45.12656" lon="0.64334">
        <ele>170.8</ele>
        <time>2025-05-25T06:56:26Z</time>
      </trkpt>
      <trkpt lat="45.12655" lon="0.64336">
        <ele>171.2</ele>
        <time>2025-05-25T06:56:27Z</time>
      </trkpt>
      <trkpt lat="45.12655" lon="0.64337">
        <ele>171.4</ele>
        <time>2025-05-25T06:56:28Z</time>
      </trkpt>
      <trkpt lat="45.12654" lon="0.64339">
        <ele>171.8</ele>
        <time>2025-05-25T06:56:29Z</time>
      </trkpt>
      <trkpt lat="45.12654" lon="0.6434">
        <ele>172.2</ele>
        <time>2025-05-25T06:56:30Z</time>
      </trkpt>
      <trkpt lat="45.12654" lon="0.64342">
        <ele>172.4</ele>
        <time>2025-05-25T06:56:31Z</time>
      </trkpt>
      <trkpt lat="45.12654" lon="0.64343">
        <ele>172.8</ele>
        <time>2025-05-25T06:56:32Z</time>
      </trkpt>
      <trkpt lat="45.12653" lon="0.64344">
        <ele>173</ele>
        <time>2025-05-25T06:56:33Z</time>
      </trkpt>
      <trkpt lat="45.12653" lon="0.64346">
        <ele>173.4</ele>
        <time>2025-05-25T06:56:34Z</time>
      </trkpt>
      <trkpt lat="45.12653" lon="0.64347">
        <ele>173.6</ele>
        <time>2025-05-25T06:56:35Z</time>
      </trkpt>
      <trkpt lat="45.12653" lon="0.64348">
        <ele>174</ele>
        <time>2025-05-25T06:56:36Z</time>
      </trkpt>
      <trkpt lat="45.12652" lon="0.64349">
        <ele>174.2</ele>
        <time>2025-05-25T06:56:37Z</time>
      </trkpt>
      <trkpt lat="45.12652" lon="0.6435">
        <ele>174.4</ele>
        <time>2025-05-25T06:56:38Z</time>
      </trkpt>
      <trkpt lat="45.12651" lon="0.64352">
        <ele>174.8</ele>
        <time>2025-05-25T06:56:39Z</time>
      </trkpt>
      <trkpt lat="45.12651" lon="0.64354">
        <ele>175</ele>
        <time>2025-05-25T06:56:40Z</time>
      </trkpt>
      <trkpt lat="45.12651" lon="0.64355">
        <ele>175.4</ele>
        <time>2025-05-25T06:56:41Z</time>
      </trkpt>
      <trkpt lat="45.1265" lon="0.64356">
        <ele>175.6</ele>
        <time>2025-05-25T06:56:42Z</time>
      </trkpt>
      <trkpt lat="45.1265" lon="0.64358">
        <ele>175.8</ele>
        <time>2025-05-25T06:56:43Z</time>
      </trkpt>
      <trkpt lat="45.12649" lon="0.6436">
        <ele>176.2</ele>
        <time>2025-05-25T06:56:44Z</time>
      </trkpt>
      <trkpt lat="45.12649" lon="0.64362">
        <ele>176.4</ele>
        <time>2025-05-25T06:56:45Z</time>
      </trkpt>
      <trkpt lat="45.12648" lon="0.64363">
        <ele>176.8</ele>
        <time>2025-05-25T06:56:46Z</time>
      </trkpt>
      <trkpt lat="45.12648" lon="0.64365">
        <ele>177.2</ele>
        <time>2025-05-25T06:56:47Z</time>
      </trkpt>
      <trkpt lat="45.12648" lon="0.64366">
        <ele>177.4</ele>
        <time>2025-05-25T06:56:48Z</time>
      </trkpt>
      <trkpt lat="45.12647" lon="0.64368">
        <ele>177.8</ele>
        <time>2025-05-25T06:56:49Z</time>
      </trkpt>
      <trkpt lat="45.12647" lon="0.64369">
        <ele>178.2</ele>
        <time>2025-05-25T06:56:50Z</time>
      </trkpt>
      <trkpt lat="45.12647" lon="0.64371">
        <ele>178.4</ele>
        <time>2025-05-25T06:56:51Z</time>
      </trkpt>
      <trkpt lat="45.12646" lon="0.64372">
        <ele>178.8</ele>
        <time>2025-05-25T06:56:52Z</time>
      </trkpt>
      <trkpt lat="45.12646" lon="0.64374">
        <ele>179</ele>
        <time>2025-05-25T06:56:53Z</time>
      </trkpt>
      <trkpt lat="45.12646" lon="0.64375">
        <ele>179.4</ele>
        <time>2025-05-25T06:56:54Z</time>
      </trkpt>
      <trkpt lat="45.12645" lon="0.64377">
        <ele>179.6</ele>
        <time>2025-05-25T06:56:55Z</time>
      </trkpt>
      <trkpt lat="45.12645" lon="0.64379">
        <ele>179.8</ele>
        <time>2025-05-25T06:56:56Z</time>
      </trkpt>
      <trkpt lat="45.12644" lon="0.64381">
        <ele>180.2</ele>
        <time>2025-05-25T06:56:57Z</time>
      </trkpt>
      <trkpt lat="45.12644" lon="0.64383">
        <ele>180.4</ele>
        <time>2025-05-25T06:56:58Z</time>
      </trkpt>
      <trkpt lat="45.12644" lon="0.64384">
        <ele>180.8</ele>
        <time>2025-05-25T06:56:59Z</time>
      </trkpt>
      <trkpt lat="45.12644" lon="0.64386">
        <ele>181</ele>
        <time>2025-05-25T06:57:00Z</time>
      </trkpt>
      <trkpt lat="45.12644" lon="0.64387">
        <ele>181.2</ele>
        <time>2025-05-25T06:57:01Z</time>
      </trkpt>
      <trkpt lat="45.12643" lon="0.64389">
        <ele>181.4</ele>
        <time>2025-05-25T06:57:02Z</time>
      </trkpt>
      <trkpt lat="45.12643" lon="0.6439">
        <ele>181.8</ele>
        <time>2025-05-25T06:57:03Z</time>
      </trkpt>
      <trkpt lat="45.12642" lon="0.64392">
        <ele>182.2</ele>
        <time>2025-05-25T06:57:04Z</time>
      </trkpt>
      <trkpt lat="45.12642" lon="0.64393">
        <ele>182.4</ele>
        <time>2025-05-25T06:57:05Z</time>
      </trkpt>
      <trkpt lat="45.12641" lon="0.64395">
        <ele>182.6</ele>
        <time>2025-05-25T06:57:06Z</time>
      </trkpt>
      <trkpt lat="45.12641" lon="0.64397">
        <ele>183</ele>
        <time>2025-05-25T06:57:07Z</time>
      </trkpt>
      <trkpt lat="45.12641" lon="0.64398">
        <ele>183.2</ele>
        <time>2025-05-25T06:57:08Z</time>
      </trkpt>
      <trkpt lat="45.12641" lon="0.644">
        <ele>183.6</ele>
        <time>2025-05-25T06:57:09Z</time>
      </trkpt>
      <trkpt lat="45.12641" lon="0.64402">
        <ele>183.8</ele>
        <time>2025-05-25T06:57:10Z</time>
      </trkpt>
      <trkpt lat="45.12641" lon="0.64404">
        <ele>184.2</ele>
        <time>2025-05-25T06:57:11Z</time>
      </trkpt>
      <trkpt lat="45.1264" lon="0.64406">
        <ele>184.4</ele>
        <time>2025-05-25T06:57:12Z</time>
      </trkpt>
      <trkpt lat="45.1264" lon="0.64408">
        <ele>184.6</ele>
        <time>2025-05-25T06:57:13Z</time>
      </trkpt>
      <trkpt lat="45.1264" lon="0.64411">
        <ele>185</ele>
        <time>2025-05-25T06:57:14Z</time>
      </trkpt>
      <trkpt lat="45.12639" lon="0.64412">
        <ele>185.2</ele>
        <time>2025-05-25T06:57:15Z</time>
      </trkpt>
      <trkpt lat="45.12637" lon="0.64412">
        <ele>185.2</ele>
        <time>2025-05-25T06:57:16Z</time>
      </trkpt>
      <trkpt lat="45.12635" lon="0.64412">
        <ele>185.4</ele>
        <time>2025-05-25T06:57:17Z</time>
      </trkpt>
      <trkpt lat="45.12634" lon="0.64413">
        <ele>185.4</ele>
        <time>2025-05-25T06:57:18Z</time>
      </trkpt>
      <trkpt lat="45.12632" lon="0.64413">
        <ele>185.4</ele>
        <time>2025-05-25T06:57:19Z</time>
      </trkpt>
      <trkpt lat="45.1263" lon="0.64413">
        <ele>185.6</ele>
        <time>2025-05-25T06:57:20Z</time>
      </trkpt>
      <trkpt lat="45.12629" lon="0.64413">
        <ele>185.6</ele>
        <time>2025-05-25T06:57:21Z</time>
      </trkpt>
      <trkpt lat="45.12627" lon="0.64412">
        <ele>185.6</ele>
        <time>2025-05-25T06:57:22Z</time>
      </trkpt>
      <trkpt lat="45.12625" lon="0.64411">
        <ele>185.8</ele>
        <time>2025-05-25T06:57:23Z</time>
      </trkpt>
      <trkpt lat="45.12623" lon="0.6441">
        <ele>185.8</ele>
        <time>2025-05-25T06:57:24Z</time>
      </trkpt>
      <trkpt lat="45.12621" lon="0.6441">
        <ele>185.8</ele>
        <time>2025-05-25T06:57:25Z</time>
      </trkpt>
      <trkpt lat="45.12619" lon="0.6441">
        <ele>185.8</ele>
        <time>2025-05-25T06:57:26Z</time>
      </trkpt>
      <trkpt lat="45.12617" lon="0.64409">
        <ele>185.8</ele>
        <time>2025-05-25T06:57:27Z</time>
      </trkpt>
      <trkpt lat="45.12615" lon="0.64409">
        <ele>185.8</ele>
        <time>2025-05-25T06:57:28Z</time>
      </trkpt>
      <trkpt lat="45.12613" lon="0.64409">
        <ele>185.8</ele>
        <time>2025-05-25T06:57:29Z</time>
      </trkpt>
      <trkpt lat="45.12611" lon="0.64409">
        <ele>185.8</ele>
        <time>2025-05-25T06:57:30Z</time>
      </trkpt>
      <trkpt lat="45.12609" lon="0.64409">
        <ele>185.8</ele>
        <time>2025-05-25T06:57:31Z</time>
      </trkpt>
      <trkpt lat="45.12607" lon="0.64409">
        <ele>185.8</ele>
        <time>2025-05-25T06:57:32Z</time>
      </trkpt>
      <trkpt lat="45.12604" lon="0.64409">
        <ele>186</ele>
        <time>2025-05-25T06:57:33Z</time>
      </trkpt>
      <trkpt lat="45.12602" lon="0.64408">
        <ele>186</ele>
        <time>2025-05-25T06:57:34Z</time>
      </trkpt>
      <trkpt lat="45.126" lon="0.64408">
        <ele>186</ele>
        <time>2025-05-25T06:57:35Z</time>
      </trkpt>
      <trkpt lat="45.12597" lon="0.64408">
        <ele>186.2</ele>
        <time>2025-05-25T06:57:36Z</time>
      </trkpt>
      <trkpt lat="45.12595" lon="0.64408">
        <ele>186.4</ele>
        <time>2025-05-25T06:57:37Z</time>
      </trkpt>
      <trkpt lat="45.12593" lon="0.64408">
        <ele>186.4</ele>
        <time>2025-05-25T06:57:38Z</time>
      </trkpt>
      <trkpt lat="45.12591" lon="0.64408">
        <ele>186.6</ele>
        <time>2025-05-25T06:57:39Z</time>
      </trkpt>
      <trkpt lat="45.12588" lon="0.64408">
        <ele>186.6</ele>
        <time>2025-05-25T06:57:40Z</time>
      </trkpt>
      <trkpt lat="45.12586" lon="0.64408">
        <ele>186.6</ele>
        <time>2025-05-25T06:57:41Z</time>
      </trkpt>
      <trkpt lat="45.12584" lon="0.64408">
        <ele>186.8</ele>
        <time>2025-05-25T06:57:42Z</time>
      </trkpt>
      <trkpt lat="45.12582" lon="0.64407">
        <ele>186.8</ele>
        <time>2025-05-25T06:57:43Z</time>
      </trkpt>
      <trkpt lat="45.1258" lon="0.64407">
        <ele>187</ele>
        <time>2025-05-25T06:57:44Z</time>
      </trkpt>
      <trkpt lat="45.12577" lon="0.64407">
        <ele>187</ele>
        <time>2025-05-25T06:57:45Z</time>
      </trkpt>
      <trkpt lat="45.12575" lon="0.64407">
        <ele>187</ele>
        <time>2025-05-25T06:57:46Z</time>
      </trkpt>
      <trkpt lat="45.12573" lon="0.64406">
        <ele>187.2</ele>
        <time>2025-05-25T06:57:47Z</time>
      </trkpt>
      <trkpt lat="45.12571" lon="0.64406">
        <ele>187.2</ele>
        <time>2025-05-25T06:57:48Z</time>
      </trkpt>
      <trkpt lat="45.12568" lon="0.64406">
        <ele>187.2</ele>
        <time>2025-05-25T06:57:49Z</time>
      </trkpt>
      <trkpt lat="45.12566" lon="0.64406">
        <ele>187.2</ele>
        <time>2025-05-25T06:57:50Z</time>
      </trkpt>
      <trkpt lat="45.12564" lon="0.64406">
        <ele>187.4</ele>
        <time>2025-05-25T06:57:51Z</time>
      </trkpt>
      <trkpt lat="45.12562" lon="0.64406">
        <ele>187.4</ele>
        <time>2025-05-25T06:57:52Z</time>
      </trkpt>
      <trkpt lat="45.12559" lon="0.64405">
        <ele>187.4</ele>
        <time>2025-05-25T06:57:53Z</time>
      </trkpt>
      <trkpt lat="45.12557" lon="0.64405">
        <ele>187.6</ele>
        <time>2025-05-25T06:57:54Z</time>
      </trkpt>
      <trkpt lat="45.12555" lon="0.64405">
        <ele>187.6</ele>
        <time>2025-05-25T06:57:55Z</time>
      </trkpt>
      <trkpt lat="45.12552" lon="0.64405">
        <ele>187.6</ele>
        <time>2025-05-25T06:57:56Z</time>
      </trkpt>
      <trkpt lat="45.1255" lon="0.64406">
        <ele>187.6</ele>
        <time>2025-05-25T06:57:57Z</time>
      </trkpt>
      <trkpt lat="45.12548" lon="0.64407">
        <ele>187.8</ele>
        <time>2025-05-25T06:57:58Z</time>
      </trkpt>
      <trkpt lat="45.12547" lon="0.64408">
        <ele>187.8</ele>
        <time>2025-05-25T06:57:59Z</time>
      </trkpt>
      <trkpt lat="45.12545" lon="0.6441">
        <ele>188</ele>
        <time>2025-05-25T06:58:00Z</time>
      </trkpt>
      <trkpt lat="45.12543" lon="0.64411">
        <ele>188</ele>
        <time>2025-05-25T06:58:01Z</time>
      </trkpt>
      <trkpt lat="45.1254" lon="0.64411">
        <ele>188.2</ele>
        <time>2025-05-25T06:58:02Z</time>
      </trkpt>
      <trkpt lat="45.12537" lon="0.6441">
        <ele>188.2</ele>
        <time>2025-05-25T06:58:03Z</time>
      </trkpt>
      <trkpt lat="45.12535" lon="0.6441">
        <ele>188.2</ele>
        <time>2025-05-25T06:58:04Z</time>
      </trkpt>
      <trkpt lat="45.12532" lon="0.64411">
        <ele>188</ele>
        <time>2025-05-25T06:58:05Z</time>
      </trkpt>
      <trkpt lat="45.12529" lon="0.64412">
        <ele>188.2</ele>
        <time>2025-05-25T06:58:06Z</time>
      </trkpt>
      <trkpt lat="45.12526" lon="0.64413">
        <ele>188.2</ele>
        <time>2025-05-25T06:58:07Z</time>
      </trkpt>
      <trkpt lat="45.12524" lon="0.64413">
        <ele>188.4</ele>
        <time>2025-05-25T06:58:08Z</time>
      </trkpt>
      <trkpt lat="45.12521" lon="0.64414">
        <ele>188.6</ele>
        <time>2025-05-25T06:58:09Z</time>
      </trkpt>
      <trkpt lat="45.12519" lon="0.64415">
        <ele>188.8</ele>
        <time>2025-05-25T06:58:10Z</time>
      </trkpt>
      <trkpt lat="45.12516" lon="0.64416">
        <ele>189</ele>
        <time>2025-05-25T06:58:11Z</time>
      </trkpt>
      <trkpt lat="45.12514" lon="0.64416">
        <ele>189.2</ele>
        <time>2025-05-25T06:58:12Z</time>
      </trkpt>
      <trkpt lat="45.12511" lon="0.64417">
        <ele>189.2</ele>
        <time>2025-05-25T06:58:13Z</time>
      </trkpt>
      <trkpt lat="45.12508" lon="0.64418">
        <ele>189.6</ele>
        <time>2025-05-25T06:58:14Z</time>
      </trkpt>
      <trkpt lat="45.12505" lon="0.64419">
        <ele>189.6</ele>
        <time>2025-05-25T06:58:15Z</time>
      </trkpt>
      <trkpt lat="45.12503" lon="0.64419">
        <ele>189.8</ele>
        <time>2025-05-25T06:58:16Z</time>
      </trkpt>
      <trkpt lat="45.125" lon="0.6442">
        <ele>189.8</ele>
        <time>2025-05-25T06:58:17Z</time>
      </trkpt>
      <trkpt lat="45.12498" lon="0.6442">
        <ele>189.8</ele>
        <time>2025-05-25T06:58:18Z</time>
      </trkpt>
      <trkpt lat="45.12495" lon="0.64421">
        <ele>190</ele>
        <time>2025-05-25T06:58:19Z</time>
      </trkpt>
      <trkpt lat="45.12492" lon="0.64422">
        <ele>190</ele>
        <time>2025-05-25T06:58:20Z</time>
      </trkpt>
      <trkpt lat="45.12489" lon="0.64422">
        <ele>190</ele>
        <time>2025-05-25T06:58:21Z</time>
      </trkpt>
      <trkpt lat="45.12486" lon="0.64423">
        <ele>190.2</ele>
        <time>2025-05-25T06:58:22Z</time>
      </trkpt>
      <trkpt lat="45.12483" lon="0.64423">
        <ele>190.2</ele>
        <time>2025-05-25T06:58:23Z</time>
      </trkpt>
      <trkpt lat="45.1248" lon="0.64424">
        <ele>190.4</ele>
        <time>2025-05-25T06:58:24Z</time>
      </trkpt>
      <trkpt lat="45.12477" lon="0.64424">
        <ele>190.6</ele>
        <time>2025-05-25T06:58:25Z</time>
      </trkpt>
      <trkpt lat="45.12474" lon="0.64424">
        <ele>190.6</ele>
        <time>2025-05-25T06:58:26Z</time>
      </trkpt>
      <trkpt lat="45.12471" lon="0.64424">
        <ele>190.8</ele>
        <time>2025-05-25T06:58:27Z</time>
      </trkpt>
      <trkpt lat="45.12468" lon="0.64424">
        <ele>190.8</ele>
        <time>2025-05-25T06:58:28Z</time>
      </trkpt>
      <trkpt lat="45.12465" lon="0.64423">
        <ele>191</ele>
        <time>2025-05-25T06:58:29Z</time>
      </trkpt>
      <trkpt lat="45.12463" lon="0.64422">
        <ele>191.2</ele>
        <time>2025-05-25T06:58:30Z</time>
      </trkpt>
      <trkpt lat="45.1246" lon="0.64421">
        <ele>191.2</ele>
        <time>2025-05-25T06:58:31Z</time>
      </trkpt>
      <trkpt lat="45.12457" lon="0.6442">
        <ele>191.4</ele>
        <time>2025-05-25T06:58:32Z</time>
      </trkpt>
      <trkpt lat="45.12455" lon="0.6442">
        <ele>191.4</ele>
        <time>2025-05-25T06:58:33Z</time>
      </trkpt>
      <trkpt lat="45.12453" lon="0.64419">
        <ele>191.6</ele>
        <time>2025-05-25T06:58:34Z</time>
      </trkpt>
      <trkpt lat="45.12451" lon="0.64418">
        <ele>191.8</ele>
        <time>2025-05-25T06:58:35Z</time>
      </trkpt>
      <trkpt lat="45.12449" lon="0.64418">
        <ele>192</ele>
        <time>2025-05-25T06:58:36Z</time>
      </trkpt>
      <trkpt lat="45.12447" lon="0.64416">
        <ele>192</ele>
        <time>2025-05-25T06:58:37Z</time>
      </trkpt>
      <trkpt lat="45.12443" lon="0.64415">
        <ele>192</ele>
        <time>2025-05-25T06:58:38Z</time>
      </trkpt>
      <trkpt lat="45.12439" lon="0.64414">
        <ele>191.8</ele>
        <time>2025-05-25T06:58:39Z</time>
      </trkpt>
      <trkpt lat="45.12435" lon="0.64414">
        <ele>191.6</ele>
        <time>2025-05-25T06:58:40Z</time>
      </trkpt>
      <trkpt lat="45.12431" lon="0.64414">
        <ele>191.4</ele>
        <time>2025-05-25T06:58:41Z</time>
      </trkpt>
      <trkpt lat="45.12427" lon="0.64413">
        <ele>191</ele>
        <time>2025-05-25T06:58:42Z</time>
      </trkpt>
      <trkpt lat="45.12423" lon="0.64413">
        <ele>190.8</ele>
        <time>2025-05-25T06:58:43Z</time>
      </trkpt>
      <trkpt lat="45.1242" lon="0.64413">
        <ele>190.8</ele>
        <time>2025-05-25T06:58:44Z</time>
      </trkpt>
      <trkpt lat="45.12416" lon="0.64413">
        <ele>190.8</ele>
        <time>2025-05-25T06:58:45Z</time>
      </trkpt>
      <trkpt lat="45.12412" lon="0.64412">
        <ele>190.8</ele>
        <time>2025-05-25T06:58:46Z</time>
      </trkpt>
      <trkpt lat="45.12409" lon="0.64412">
        <ele>190.8</ele>
        <time>2025-05-25T06:58:47Z</time>
      </trkpt>
      <trkpt lat="45.12406" lon="0.64411">
        <ele>190.8</ele>
        <time>2025-05-25T06:58:48Z</time>
      </trkpt>
      <trkpt lat="45.12402" lon="0.64411">
        <ele>191</ele>
        <time>2025-05-25T06:58:49Z</time>
      </trkpt>
      <trkpt lat="45.12399" lon="0.64411">
        <ele>191</ele>
        <time>2025-05-25T06:58:50Z</time>
      </trkpt>
      <trkpt lat="45.12395" lon="0.64411">
        <ele>191.2</ele>
        <time>2025-05-25T06:58:51Z</time>
      </trkpt>
      <trkpt lat="45.12391" lon="0.64411">
        <ele>191.2</ele>
        <time>2025-05-25T06:58:52Z</time>
      </trkpt>
      <trkpt lat="45.12387" lon="0.64411">
        <ele>191.4</ele>
        <time>2025-05-25T06:58:53Z</time>
      </trkpt>
      <trkpt lat="45.12383" lon="0.64411">
        <ele>191.4</ele>
        <time>2025-05-25T06:58:54Z</time>
      </trkpt>
      <trkpt lat="45.12379" lon="0.64412">
        <ele>191.6</ele>
        <time>2025-05-25T06:58:55Z</time>
      </trkpt>
      <trkpt lat="45.12375" lon="0.64412">
        <ele>191.8</ele>
        <time>2025-05-25T06:58:56Z</time>
      </trkpt>
      <trkpt lat="45.12371" lon="0.64413">
        <ele>192</ele>
        <time>2025-05-25T06:58:57Z</time>
      </trkpt>
      <trkpt lat="45.12368" lon="0.64413">
        <ele>192.2</ele>
        <time>2025-05-25T06:58:58Z</time>
      </trkpt>
      <trkpt lat="45.12365" lon="0.64413">
        <ele>192.6</ele>
        <time>2025-05-25T06:58:59Z</time>
      </trkpt>
      <trkpt lat="45.12362" lon="0.64413">
        <ele>192.8</ele>
        <time>2025-05-25T06:59:00Z</time>
      </trkpt>
      <trkpt lat="45.12359" lon="0.64413">
        <ele>193.2</ele>
        <time>2025-05-25T06:59:01Z</time>
      </trkpt>
      <trkpt lat="45.12356" lon="0.64413">
        <ele>193.4</ele>
        <time>2025-05-25T06:59:02Z</time>
      </trkpt>
      <trkpt lat="45.12353" lon="0.64413">
        <ele>193.8</ele>
        <time>2025-05-25T06:59:03Z</time>
      </trkpt>
      <trkpt lat="45.1235" lon="0.64413">
        <ele>194</ele>
        <time>2025-05-25T06:59:04Z</time>
      </trkpt>
      <trkpt lat="45.12348" lon="0.64414">
        <ele>194.4</ele>
        <time>2025-05-25T06:59:05Z</time>
      </trkpt>
      <trkpt lat="45.12345" lon="0.64413">
        <ele>194.6</ele>
        <time>2025-05-25T06:59:06Z</time>
      </trkpt>
      <trkpt lat="45.12343" lon="0.64413">
        <ele>195</ele>
        <time>2025-05-25T06:59:07Z</time>
      </trkpt>
      <trkpt lat="45.1234" lon="0.64413">
        <ele>195.2</ele>
        <time>2025-05-25T06:59:08Z</time>
      </trkpt>
      <trkpt lat="45.12337" lon="0.64412">
        <ele>195.4</ele>
        <time>2025-05-25T06:59:09Z</time>
      </trkpt>
      <trkpt lat="45.12334" lon="0.64412">
        <ele>195.8</ele>
        <time>2025-05-25T06:59:10Z</time>
      </trkpt>
      <trkpt lat="45.12332" lon="0.64411">
        <ele>196</ele>
        <time>2025-05-25T06:59:11Z</time>
      </trkpt>
      <trkpt lat="45.12329" lon="0.6441">
        <ele>196.4</ele>
        <time>2025-05-25T06:59:12Z</time>
      </trkpt>
      <trkpt lat="45.12327" lon="0.64408">
        <ele>196.6</ele>
        <time>2025-05-25T06:59:13Z</time>
      </trkpt>
      <trkpt lat="45.12324" lon="0.64406">
        <ele>196.8</ele>
        <time>2025-05-25T06:59:14Z</time>
      </trkpt>
      <trkpt lat="45.12321" lon="0.64405">
        <ele>196.8</ele>
        <time>2025-05-25T06:59:15Z</time>
      </trkpt>
      <trkpt lat="45.12318" lon="0.64403">
        <ele>196.8</ele>
        <time>2025-05-25T06:59:16Z</time>
      </trkpt>
      <trkpt lat="45.12314" lon="0.64401">
        <ele>197</ele>
        <time>2025-05-25T06:59:17Z</time>
      </trkpt>
      <trkpt lat="45.12311" lon="0.64399">
        <ele>197</ele>
        <time>2025-05-25T06:59:18Z</time>
      </trkpt>
      <trkpt lat="45.12309" lon="0.64397">
        <ele>197</ele>
        <time>2025-05-25T06:59:19Z</time>
      </trkpt>
      <trkpt lat="45.12305" lon="0.64395">
        <ele>197</ele>
        <time>2025-05-25T06:59:20Z</time>
      </trkpt>
      <trkpt lat="45.12302" lon="0.64393">
        <ele>197.2</ele>
        <time>2025-05-25T06:59:21Z</time>
      </trkpt>
      <trkpt lat="45.123" lon="0.64392">
        <ele>197.2</ele>
        <time>2025-05-25T06:59:22Z</time>
      </trkpt>
      <trkpt lat="45.12297" lon="0.64391">
        <ele>197.4</ele>
        <time>2025-05-25T06:59:23Z</time>
      </trkpt>
      <trkpt lat="45.12294" lon="0.6439">
        <ele>197.4</ele>
        <time>2025-05-25T06:59:24Z</time>
      </trkpt>
      <trkpt lat="45.12291" lon="0.64388">
        <ele>197.6</ele>
        <time>2025-05-25T06:59:25Z</time>
      </trkpt>
      <trkpt lat="45.12289" lon="0.64387">
        <ele>197.8</ele>
        <time>2025-05-25T06:59:26Z</time>
      </trkpt>
      <trkpt lat="45.12286" lon="0.64386">
        <ele>198</ele>
        <time>2025-05-25T06:59:27Z</time>
      </trkpt>
      <trkpt lat="45.12284" lon="0.64384">
        <ele>198.2</ele>
        <time>2025-05-25T06:59:28Z</time>
      </trkpt>
      <trkpt lat="45.12281" lon="0.64382">
        <ele>198.4</ele>
        <time>2025-05-25T06:59:29Z</time>
      </trkpt>
      <trkpt lat="45.12278" lon="0.6438">
        <ele>198.6</ele>
        <time>2025-05-25T06:59:30Z</time>
      </trkpt>
      <trkpt lat="45.12276" lon="0.64378">
        <ele>198.8</ele>
        <time>2025-05-25T06:59:31Z</time>
      </trkpt>
      <trkpt lat="45.12273" lon="0.64375">
        <ele>198.8</ele>
        <time>2025-05-25T06:59:32Z</time>
      </trkpt>
      <trkpt lat="45.1227" lon="0.64373">
        <ele>199</ele>
        <time>2025-05-25T06:59:33Z</time>
      </trkpt>
      <trkpt lat="45.12268" lon="0.64371">
        <ele>199</ele>
        <time>2025-05-25T06:59:34Z</time>
      </trkpt>
      <trkpt lat="45.12265" lon="0.64368">
        <ele>199</ele>
        <time>2025-05-25T06:59:35Z</time>
      </trkpt>
      <trkpt lat="45.12262" lon="0.64365">
        <ele>199</ele>
        <time>2025-05-25T06:59:36Z</time>
      </trkpt>
      <trkpt lat="45.12259" lon="0.64363">
        <ele>199.2</ele>
        <time>2025-05-25T06:59:37Z</time>
      </trkpt>
      <trkpt lat="45.12256" lon="0.64361">
        <ele>199.2</ele>
        <time>2025-05-25T06:59:38Z</time>
      </trkpt>
      <trkpt lat="45.12253" lon="0.64358">
        <ele>199.4</ele>
        <time>2025-05-25T06:59:39Z</time>
      </trkpt>
      <trkpt lat="45.1225" lon="0.64356">
        <ele>199.6</ele>
        <time>2025-05-25T06:59:40Z</time>
      </trkpt>
      <trkpt lat="45.12247" lon="0.64353">
        <ele>199.8</ele>
        <time>2025-05-25T06:59:41Z</time>
      </trkpt>
      <trkpt lat="45.12244" lon="0.64351">
        <ele>199.8</ele>
        <time>2025-05-25T06:59:42Z</time>
      </trkpt>
      <trkpt lat="45.12242" lon="0.64349">
        <ele>200</ele>
        <time>2025-05-25T06:59:43Z</time>
      </trkpt>
      <trkpt lat="45.1224" lon="0.64346">
        <ele>200.4</ele>
        <time>2025-05-25T06:59:44Z</time>
      </trkpt>
      <trkpt lat="45.12237" lon="0.64343">
        <ele>200.6</ele>
        <time>2025-05-25T06:59:45Z</time>
      </trkpt>
      <trkpt lat="45.12235" lon="0.64341">
        <ele>200.8</ele>
        <time>2025-05-25T06:59:46Z</time>
      </trkpt>
      <trkpt lat="45.12232" lon="0.64337">
        <ele>200.8</ele>
        <time>2025-05-25T06:59:47Z</time>
      </trkpt>
      <trkpt lat="45.1223" lon="0.64334">
        <ele>201</ele>
        <time>2025-05-25T06:59:48Z</time>
      </trkpt>
      <trkpt lat="45.12226" lon="0.64333">
        <ele>201.2</ele>
        <time>2025-05-25T06:59:49Z</time>
      </trkpt>
      <trkpt lat="45.12222" lon="0.64333">
        <ele>201.2</ele>
        <time>2025-05-25T06:59:50Z</time>
      </trkpt>
      <trkpt lat="45.12218" lon="0.64333">
        <ele>201.2</ele>
        <time>2025-05-25T06:59:51Z</time>
      </trkpt>
      <trkpt lat="45.12215" lon="0.64333">
        <ele>201.2</ele>
        <time>2025-05-25T06:59:52Z</time>
      </trkpt>
      <trkpt lat="45.12213" lon="0.64334">
        <ele>201.4</ele>
        <time>2025-05-25T06:59:53Z</time>
      </trkpt>
      <trkpt lat="45.12211" lon="0.64335">
        <ele>201.6</ele>
        <time>2025-05-25T06:59:54Z</time>
      </trkpt>
      <trkpt lat="45.12209" lon="0.64336">
        <ele>202.2</ele>
        <time>2025-05-25T06:59:55Z</time>
      </trkpt>
      <trkpt lat="45.12208" lon="0.64338">
        <ele>202.8</ele>
        <time>2025-05-25T06:59:56Z</time>
      </trkpt>
      <trkpt lat="45.12207" lon="0.6434">
        <ele>203.2</ele>
        <time>2025-05-25T06:59:57Z</time>
      </trkpt>
      <trkpt lat="45.12205" lon="0.64341">
        <ele>203.6</ele>
        <time>2025-05-25T06:59:58Z</time>
      </trkpt>
      <trkpt lat="45.12204" lon="0.64343">
        <ele>204</ele>
        <time>2025-05-25T06:59:59Z</time>
      </trkpt>
      <trkpt lat="45.12203" lon="0.64345">
        <ele>204.4</ele>
        <time>2025-05-25T07:00:00Z</time>
      </trkpt>
      <trkpt lat="45.12201" lon="0.64347">
        <ele>204.8</ele>
        <time>2025-05-25T07:00:01Z</time>
      </trkpt>
      <trkpt lat="45.12199" lon="0.64348">
        <ele>205</ele>
        <time>2025-05-25T07:00:02Z</time>
      </trkpt>
      <trkpt lat="45.12198" lon="0.64349">
        <ele>205.2</ele>
        <time>2025-05-25T07:00:03Z</time>
      </trkpt>
      <trkpt lat="45.12196" lon="0.64351">
        <ele>205.4</ele>
        <time>2025-05-25T07:00:04Z</time>
      </trkpt>
      <trkpt lat="45.12195" lon="0.64353">
        <ele>205.8</ele>
        <time>2025-05-25T07:00:05Z</time>
      </trkpt>
      <trkpt lat="45.12194" lon="0.64355">
        <ele>206</ele>
        <time>2025-05-25T07:00:06Z</time>
      </trkpt>
      <trkpt lat="45.12193" lon="0.64357">
        <ele>206.2</ele>
        <time>2025-05-25T07:00:07Z</time>
      </trkpt>
      <trkpt lat="45.12192" lon="0.64359">
        <ele>206.4</ele>
        <time>2025-05-25T07:00:08Z</time>
      </trkpt>
      <trkpt lat="45.12191" lon="0.64361">
        <ele>206.4</ele>
        <time>2025-05-25T07:00:09Z</time>
      </trkpt>
      <trkpt lat="45.12189" lon="0.64362">
        <ele>206.6</ele>
        <time>2025-05-25T07:00:10Z</time>
      </trkpt>
      <trkpt lat="45.12187" lon="0.64364">
        <ele>206.8</ele>
        <time>2025-05-25T07:00:11Z</time>
      </trkpt>
      <trkpt lat="45.12186" lon="0.64366">
        <ele>207</ele>
        <time>2025-05-25T07:00:12Z</time>
      </trkpt>
      <trkpt lat="45.12184" lon="0.64367">
        <ele>207.2</ele>
        <time>2025-05-25T07:00:13Z</time>
      </trkpt>
      <trkpt lat="45.12182" lon="0.64369">
        <ele>207.2</ele>
        <time>2025-05-25T07:00:14Z</time>
      </trkpt>
      <trkpt lat="45.1218" lon="0.64371">
        <ele>207.4</ele>
        <time>2025-05-25T07:00:15Z</time>
      </trkpt>
      <trkpt lat="45.12178" lon="0.64373">
        <ele>207.4</ele>
        <time>2025-05-25T07:00:16Z</time>
      </trkpt>
      <trkpt lat="45.12177" lon="0.64376">
        <ele>207.6</ele>
        <time>2025-05-25T07:00:17Z</time>
      </trkpt>
      <trkpt lat="45.12175" lon="0.64378">
        <ele>207.6</ele>
        <time>2025-05-25T07:00:18Z</time>
      </trkpt>
      <trkpt lat="45.12174" lon="0.6438">
        <ele>207.8</ele>
        <time>2025-05-25T07:00:19Z</time>
      </trkpt>
      <trkpt lat="45.12172" lon="0.64382">
        <ele>207.8</ele>
        <time>2025-05-25T07:00:20Z</time>
      </trkpt>
      <trkpt lat="45.12169" lon="0.64384">
        <ele>208</ele>
        <time>2025-05-25T07:00:21Z</time>
      </trkpt>
      <trkpt lat="45.12167" lon="0.64386">
        <ele>208</ele>
        <time>2025-05-25T07:00:22Z</time>
      </trkpt>
      <trkpt lat="45.12164" lon="0.64388">
        <ele>208</ele>
        <time>2025-05-25T07:00:23Z</time>
      </trkpt>
      <trkpt lat="45.12161" lon="0.6439">
        <ele>208.2</ele>
        <time>2025-05-25T07:00:24Z</time>
      </trkpt>
      <trkpt lat="45.1216" lon="0.64393">
        <ele>208.4</ele>
        <time>2025-05-25T07:00:25Z</time>
      </trkpt>
      <trkpt lat="45.1216" lon="0.64396">
        <ele>208.4</ele>
        <time>2025-05-25T07:00:26Z</time>
      </trkpt>
      <trkpt lat="45.1216" lon="0.64399">
        <ele>208.6</ele>
        <time>2025-05-25T07:00:27Z</time>
      </trkpt>
      <trkpt lat="45.12159" lon="0.64403">
        <ele>208.6</ele>
        <time>2025-05-25T07:00:28Z</time>
      </trkpt>
      <trkpt lat="45.12158" lon="0.64407">
        <ele>208.8</ele>
        <time>2025-05-25T07:00:29Z</time>
      </trkpt>
      <trkpt lat="45.12156" lon="0.6441">
        <ele>208.8</ele>
        <time>2025-05-25T07:00:30Z</time>
      </trkpt>
      <trkpt lat="45.12155" lon="0.64414">
        <ele>208.8</ele>
        <time>2025-05-25T07:00:31Z</time>
      </trkpt>
      <trkpt lat="45.12154" lon="0.64418">
        <ele>208.6</ele>
        <time>2025-05-25T07:00:32Z</time>
      </trkpt>
      <trkpt lat="45.12153" lon="0.64423">
        <ele>208.6</ele>
        <time>2025-05-25T07:00:33Z</time>
      </trkpt>
      <trkpt lat="45.12151" lon="0.64428">
        <ele>208.6</ele>
        <time>2025-05-25T07:00:34Z</time>
      </trkpt>
      <trkpt lat="45.12148" lon="0.64432">
        <ele>208.4</ele>
        <time>2025-05-25T07:00:35Z</time>
      </trkpt>
      <trkpt lat="45.12143" lon="0.64434">
        <ele>208.2</ele>
        <time>2025-05-25T07:00:36Z</time>
      </trkpt>
      <trkpt lat="45.12139" lon="0.64436">
        <ele>208</ele>
        <time>2025-05-25T07:00:37Z</time>
      </trkpt>
      <trkpt lat="45.12134" lon="0.64438">
        <ele>207.6</ele>
        <time>2025-05-25T07:00:38Z</time>
      </trkpt>
      <trkpt lat="45.12129" lon="0.6444">
        <ele>207.4</ele>
        <time>2025-05-25T07:00:39Z</time>
      </trkpt>
      <trkpt lat="45.12124" lon="0.64442">
        <ele>207</ele>
        <time>2025-05-25T07:00:40Z</time>
      </trkpt>
      <trkpt lat="45.12119" lon="0.64445">
        <ele>207</ele>
        <time>2025-05-25T07:00:41Z</time>
      </trkpt>
      <trkpt lat="45.12114" lon="0.64448">
        <ele>206.8</ele>
        <time>2025-05-25T07:00:42Z</time>
      </trkpt>
      <trkpt lat="45.12109" lon="0.64451">
        <ele>206.4</ele>
        <time>2025-05-25T07:00:43Z</time>
      </trkpt>
      <trkpt lat="45.12104" lon="0.64453">
        <ele>206.2</ele>
        <time>2025-05-25T07:00:44Z</time>
      </trkpt>
      <trkpt lat="45.12099" lon="0.64455">
        <ele>205.8</ele>
        <time>2025-05-25T07:00:45Z</time>
      </trkpt>
      <trkpt lat="45.12094" lon="0.64457">
        <ele>205.6</ele>
        <time>2025-05-25T07:00:46Z</time>
      </trkpt>
      <trkpt lat="45.1209" lon="0.6446">
        <ele>205.2</ele>
        <time>2025-05-25T07:00:47Z</time>
      </trkpt>
      <trkpt lat="45.12085" lon="0.64462">
        <ele>205</ele>
        <time>2025-05-25T07:00:48Z</time>
      </trkpt>
      <trkpt lat="45.1208" lon="0.64464">
        <ele>204.8</ele>
        <time>2025-05-25T07:00:49Z</time>
      </trkpt>
      <trkpt lat="45.12076" lon="0.64467">
        <ele>204.6</ele>
        <time>2025-05-25T07:00:50Z</time>
      </trkpt>
      <trkpt lat="45.12071" lon="0.64471">
        <ele>204.2</ele>
        <time>2025-05-25T07:00:51Z</time>
      </trkpt>
      <trkpt lat="45.12066" lon="0.64475">
        <ele>204.2</ele>
        <time>2025-05-25T07:00:52Z</time>
      </trkpt>
      <trkpt lat="45.12061" lon="0.64479">
        <ele>203.8</ele>
        <time>2025-05-25T07:00:53Z</time>
      </trkpt>
      <trkpt lat="45.12056" lon="0.64484">
        <ele>203.6</ele>
        <time>2025-05-25T07:00:54Z</time>
      </trkpt>
      <trkpt lat="45.12052" lon="0.64488">
        <ele>203.4</ele>
        <time>2025-05-25T07:00:55Z</time>
      </trkpt>
      <trkpt lat="45.12048" lon="0.64492">
        <ele>203.4</ele>
        <time>2025-05-25T07:00:56Z</time>
      </trkpt>
      <trkpt lat="45.12044" lon="0.64493">
        <ele>203.2</ele>
        <time>2025-05-25T07:00:57Z</time>
      </trkpt>
      <trkpt lat="45.12039" lon="0.64494">
        <ele>203.4</ele>
        <time>2025-05-25T07:00:58Z</time>
      </trkpt>
      <trkpt lat="45.12035" lon="0.64494">
        <ele>203.4</ele>
        <time>2025-05-25T07:00:59Z</time>
      </trkpt>
      <trkpt lat="45.12031" lon="0.64493">
        <ele>203.4</ele>
        <time>2025-05-25T07:01:00Z</time>
      </trkpt>
      <trkpt lat="45.12026" lon="0.64492">
        <ele>203.6</ele>
        <time>2025-05-25T07:01:01Z</time>
      </trkpt>
      <trkpt lat="45.12022" lon="0.64492">
        <ele>203.8</ele>
        <time>2025-05-25T07:01:02Z</time>
      </trkpt>
      <trkpt lat="45.12017" lon="0.64492">
        <ele>203.8</ele>
        <time>2025-05-25T07:01:03Z</time>
      </trkpt>
      <trkpt lat="45.12013" lon="0.64491">
        <ele>204</ele>
        <time>2025-05-25T07:01:04Z</time>
      </trkpt>
      <trkpt lat="45.12009" lon="0.6449">
        <ele>204.2</ele>
        <time>2025-05-25T07:01:05Z</time>
      </trkpt>
      <trkpt lat="45.12005" lon="0.6449">
        <ele>204.4</ele>
        <time>2025-05-25T07:01:06Z</time>
      </trkpt>
      <trkpt lat="45.12002" lon="0.64489">
        <ele>204.6</ele>
        <time>2025-05-25T07:01:07Z</time>
      </trkpt>
      <trkpt lat="45.11999" lon="0.64489">
        <ele>205</ele>
        <time>2025-05-25T07:01:08Z</time>
      </trkpt>
      <trkpt lat="45.11995" lon="0.64489">
        <ele>205.2</ele>
        <time>2025-05-25T07:01:09Z</time>
      </trkpt>
      <trkpt lat="45.11992" lon="0.64489">
        <ele>205.4</ele>
        <time>2025-05-25T07:01:10Z</time>
      </trkpt>
      <trkpt lat="45.11988" lon="0.64489">
        <ele>205.6</ele>
        <time>2025-05-25T07:01:11Z</time>
      </trkpt>
      <trkpt lat="45.11985" lon="0.64489">
        <ele>205.8</ele>
        <time>2025-05-25T07:01:12Z</time>
      </trkpt>
      <trkpt lat="45.11982" lon="0.64489">
        <ele>206</ele>
        <time>2025-05-25T07:01:13Z</time>
      </trkpt>
      <trkpt lat="45.11978" lon="0.64489">
        <ele>206.2</ele>
        <time>2025-05-25T07:01:14Z</time>
      </trkpt>
      <trkpt lat="45.11975" lon="0.6449">
        <ele>206.4</ele>
        <time>2025-05-25T07:01:15Z</time>
      </trkpt>
      <trkpt lat="45.11971" lon="0.64491">
        <ele>206.6</ele>
        <time>2025-05-25T07:01:16Z</time>
      </trkpt>
      <trkpt lat="45.11968" lon="0.64493">
        <ele>206.8</ele>
        <time>2025-05-25T07:01:17Z</time>
      </trkpt>
      <trkpt lat="45.11965" lon="0.64494">
        <ele>207</ele>
        <time>2025-05-25T07:01:18Z</time>
      </trkpt>
      <trkpt lat="45.11961" lon="0.64496">
        <ele>207</ele>
        <time>2025-05-25T07:01:19Z</time>
      </trkpt>
      <trkpt lat="45.11958" lon="0.64497">
        <ele>207.2</ele>
        <time>2025-05-25T07:01:20Z</time>
      </trkpt>
      <trkpt lat="45.11954" lon="0.64498">
        <ele>207.4</ele>
        <time>2025-05-25T07:01:21Z</time>
      </trkpt>
      <trkpt lat="45.1195" lon="0.64498">
        <ele>207.6</ele>
        <time>2025-05-25T07:01:22Z</time>
      </trkpt>
      <trkpt lat="45.11946" lon="0.64499">
        <ele>207.6</ele>
        <time>2025-05-25T07:01:23Z</time>
      </trkpt>
      <trkpt lat="45.11943" lon="0.64498">
        <ele>208</ele>
        <time>2025-05-25T07:01:24Z</time>
      </trkpt>
      <trkpt lat="45.1194" lon="0.64497">
        <ele>208.2</ele>
        <time>2025-05-25T07:01:25Z</time>
      </trkpt>
      <trkpt lat="45.11937" lon="0.64496">
        <ele>208.6</ele>
        <time>2025-05-25T07:01:26Z</time>
      </trkpt>
      <trkpt lat="45.11934" lon="0.64495">
        <ele>209</ele>
        <time>2025-05-25T07:01:27Z</time>
      </trkpt>
      <trkpt lat="45.11931" lon="0.64493">
        <ele>209.4</ele>
        <time>2025-05-25T07:01:28Z</time>
      </trkpt>
      <trkpt lat="45.11929" lon="0.64492">
        <ele>209.6</ele>
        <time>2025-05-25T07:01:29Z</time>
      </trkpt>
      <trkpt lat="45.11926" lon="0.6449">
        <ele>210</ele>
        <time>2025-05-25T07:01:30Z</time>
      </trkpt>
      <trkpt lat="45.11923" lon="0.64489">
        <ele>210.4</ele>
        <time>2025-05-25T07:01:31Z</time>
      </trkpt>
      <trkpt lat="45.11921" lon="0.64487">
        <ele>210.6</ele>
        <time>2025-05-25T07:01:32Z</time>
      </trkpt>
      <trkpt lat="45.11918" lon="0.64485">
        <ele>210.8</ele>
        <time>2025-05-25T07:01:33Z</time>
      </trkpt>
      <trkpt lat="45.11915" lon="0.64484">
        <ele>211</ele>
        <time>2025-05-25T07:01:34Z</time>
      </trkpt>
      <trkpt lat="45.11912" lon="0.64483">
        <ele>211.2</ele>
        <time>2025-05-25T07:01:35Z</time>
      </trkpt>
      <trkpt lat="45.11909" lon="0.64481">
        <ele>211.2</ele>
        <time>2025-05-25T07:01:36Z</time>
      </trkpt>
      <trkpt lat="45.11906" lon="0.6448">
        <ele>211.4</ele>
        <time>2025-05-25T07:01:37Z</time>
      </trkpt>
      <trkpt lat="45.11903" lon="0.64479">
        <ele>211.6</ele>
        <time>2025-05-25T07:01:38Z</time>
      </trkpt>
      <trkpt lat="45.119" lon="0.64477">
        <ele>211.8</ele>
        <time>2025-05-25T07:01:39Z</time>
      </trkpt>
      <trkpt lat="45.11897" lon="0.64475">
        <ele>211.8</ele>
        <time>2025-05-25T07:01:40Z</time>
      </trkpt>
      <trkpt lat="45.11894" lon="0.64474">
        <ele>212.2</ele>
        <time>2025-05-25T07:01:41Z</time>
      </trkpt>
      <trkpt lat="45.11891" lon="0.64472">
        <ele>212.2</ele>
        <time>2025-05-25T07:01:42Z</time>
      </trkpt>
      <trkpt lat="45.11888" lon="0.64471">
        <ele>212.4</ele>
        <time>2025-05-25T07:01:43Z</time>
      </trkpt>
      <trkpt lat="45.11885" lon="0.6447">
        <ele>212.6</ele>
        <time>2025-05-25T07:01:44Z</time>
      </trkpt>
      <trkpt lat="45.11881" lon="0.64469">
        <ele>212.6</ele>
        <time>2025-05-25T07:01:45Z</time>
      </trkpt>
      <trkpt lat="45.11877" lon="0.64468">
        <ele>212.6</ele>
        <time>2025-05-25T07:01:46Z</time>
      </trkpt>
      <trkpt lat="45.11874" lon="0.64466">
        <ele>212.6</ele>
        <time>2025-05-25T07:01:47Z</time>
      </trkpt>
      <trkpt lat="45.1187" lon="0.64465">
        <ele>212.4</ele>
        <time>2025-05-25T07:01:48Z</time>
      </trkpt>
      <trkpt lat="45.11866" lon="0.64463">
        <ele>212.4</ele>
        <time>2025-05-25T07:01:49Z</time>
      </trkpt>
      <trkpt lat="45.11861" lon="0.64461">
        <ele>212.4</ele>
        <time>2025-05-25T07:01:50Z</time>
      </trkpt>
      <trkpt lat="45.11857" lon="0.64459">
        <ele>212.4</ele>
        <time>2025-05-25T07:01:51Z</time>
      </trkpt>
      <trkpt lat="45.11853" lon="0.64457">
        <ele>212.4</ele>
        <time>2025-05-25T07:01:52Z</time>
      </trkpt>
      <trkpt lat="45.11849" lon="0.64455">
        <ele>212.2</ele>
        <time>2025-05-25T07:01:53Z</time>
      </trkpt>
      <trkpt lat="45.11844" lon="0.64452">
        <ele>212.2</ele>
        <time>2025-05-25T07:01:54Z</time>
      </trkpt>
      <trkpt lat="45.1184" lon="0.6445">
        <ele>212.2</ele>
        <time>2025-05-25T07:01:55Z</time>
      </trkpt>
      <trkpt lat="45.11835" lon="0.64448">
        <ele>212.2</ele>
        <time>2025-05-25T07:01:56Z</time>
      </trkpt>
      <trkpt lat="45.11831" lon="0.64445">
        <ele>212.2</ele>
        <time>2025-05-25T07:01:57Z</time>
      </trkpt>
      <trkpt lat="45.11826" lon="0.64443">
        <ele>212.2</ele>
        <time>2025-05-25T07:01:58Z</time>
      </trkpt>
      <trkpt lat="45.11822" lon="0.64441">
        <ele>212.2</ele>
        <time>2025-05-25T07:01:59Z</time>
      </trkpt>
      <trkpt lat="45.11818" lon="0.64438">
        <ele>212.2</ele>
        <time>2025-05-25T07:02:00Z</time>
      </trkpt>
      <trkpt lat="45.11814" lon="0.64436">
        <ele>212.2</ele>
        <time>2025-05-25T07:02:01Z</time>
      </trkpt>
      <trkpt lat="45.1181" lon="0.64433">
        <ele>212.2</ele>
        <time>2025-05-25T07:02:02Z</time>
      </trkpt>
      <trkpt lat="45.11807" lon="0.64431">
        <ele>212.2</ele>
        <time>2025-05-25T07:02:03Z</time>
      </trkpt>
      <trkpt lat="45.11803" lon="0.64428">
        <ele>212.4</ele>
        <time>2025-05-25T07:02:04Z</time>
      </trkpt>
      <trkpt lat="45.11799" lon="0.64426">
        <ele>212.6</ele>
        <time>2025-05-25T07:02:05Z</time>
      </trkpt>
      <trkpt lat="45.11795" lon="0.64424">
        <ele>212.6</ele>
        <time>2025-05-25T07:02:06Z</time>
      </trkpt>
      <trkpt lat="45.11791" lon="0.64421">
        <ele>212.8</ele>
        <time>2025-05-25T07:02:07Z</time>
      </trkpt>
      <trkpt lat="45.11787" lon="0.64418">
        <ele>213</ele>
        <time>2025-05-25T07:02:08Z</time>
      </trkpt>
      <trkpt lat="45.11783" lon="0.64415">
        <ele>213.2</ele>
        <time>2025-05-25T07:02:09Z</time>
      </trkpt>
      <trkpt lat="45.1178" lon="0.64411">
        <ele>213.4</ele>
        <time>2025-05-25T07:02:10Z</time>
      </trkpt>
      <trkpt lat="45.11776" lon="0.64407">
        <ele>213.6</ele>
        <time>2025-05-25T07:02:11Z</time>
      </trkpt>
      <trkpt lat="45.11773" lon="0.64404">
        <ele>213.6</ele>
        <time>2025-05-25T07:02:12Z</time>
      </trkpt>
      <trkpt lat="45.1177" lon="0.644">
        <ele>213.8</ele>
        <time>2025-05-25T07:02:13Z</time>
      </trkpt>
      <trkpt lat="45.11766" lon="0.64398">
        <ele>213.8</ele>
        <time>2025-05-25T07:02:14Z</time>
      </trkpt>
      <trkpt lat="45.11761" lon="0.64397">
        <ele>213.8</ele>
        <time>2025-05-25T07:02:15Z</time>
      </trkpt>
      <trkpt lat="45.11757" lon="0.64398">
        <ele>213.8</ele>
        <time>2025-05-25T07:02:16Z</time>
      </trkpt>
      <trkpt lat="45.11752" lon="0.644">
        <ele>213.6</ele>
        <time>2025-05-25T07:02:17Z</time>
      </trkpt>
      <trkpt lat="45.11747" lon="0.64402">
        <ele>213.6</ele>
        <time>2025-05-25T07:02:18Z</time>
      </trkpt>
      <trkpt lat="45.11742" lon="0.64403">
        <ele>213.4</ele>
        <time>2025-05-25T07:02:19Z</time>
      </trkpt>
      <trkpt lat="45.11737" lon="0.64405">
        <ele>213.2</ele>
        <time>2025-05-25T07:02:20Z</time>
      </trkpt>
      <trkpt lat="45.11732" lon="0.64406">
        <ele>213.2</ele>
        <time>2025-05-25T07:02:21Z</time>
      </trkpt>
      <trkpt lat="45.11727" lon="0.64407">
        <ele>213</ele>
        <time>2025-05-25T07:02:22Z</time>
      </trkpt>
      <trkpt lat="45.11722" lon="0.64408">
        <ele>213</ele>
        <time>2025-05-25T07:02:23Z</time>
      </trkpt>
      <trkpt lat="45.11717" lon="0.6441">
        <ele>212.8</ele>
        <time>2025-05-25T07:02:24Z</time>
      </trkpt>
      <trkpt lat="45.11713" lon="0.64411">
        <ele>212.8</ele>
        <time>2025-05-25T07:02:25Z</time>
      </trkpt>
      <trkpt lat="45.11708" lon="0.64414">
        <ele>212.8</ele>
        <time>2025-05-25T07:02:26Z</time>
      </trkpt>
      <trkpt lat="45.11703" lon="0.64416">
        <ele>212.6</ele>
        <time>2025-05-25T07:02:27Z</time>
      </trkpt>
      <trkpt lat="45.11697" lon="0.64417">
        <ele>212.6</ele>
        <time>2025-05-25T07:02:28Z</time>
      </trkpt>
      <trkpt lat="45.11692" lon="0.64419">
        <ele>212.4</ele>
        <time>2025-05-25T07:02:29Z</time>
      </trkpt>
      <trkpt lat="45.11687" lon="0.64421">
        <ele>212.4</ele>
        <time>2025-05-25T07:02:30Z</time>
      </trkpt>
      <trkpt lat="45.11681" lon="0.64423">
        <ele>212.2</ele>
        <time>2025-05-25T07:02:31Z</time>
      </trkpt>
      <trkpt lat="45.11676" lon="0.64426">
        <ele>211.8</ele>
        <time>2025-05-25T07:02:32Z</time>
      </trkpt>
      <trkpt lat="45.11671" lon="0.64429">
        <ele>211.6</ele>
        <time>2025-05-25T07:02:33Z</time>
      </trkpt>
      <trkpt lat="45.11665" lon="0.64432">
        <ele>211.4</ele>
        <time>2025-05-25T07:02:34Z</time>
      </trkpt>
      <trkpt lat="45.11659" lon="0.64434">
        <ele>211</ele>
        <time>2025-05-25T07:02:35Z</time>
      </trkpt>
      <trkpt lat="45.11653" lon="0.64436">
        <ele>210.8</ele>
        <time>2025-05-25T07:02:36Z</time>
      </trkpt>
      <trkpt lat="45.11646" lon="0.64439">
        <ele>210.4</ele>
        <time>2025-05-25T07:02:37Z</time>
      </trkpt>
      <trkpt lat="45.1164" lon="0.64441">
        <ele>210.2</ele>
        <time>2025-05-25T07:02:38Z</time>
      </trkpt>
      <trkpt lat="45.11633" lon="0.64445">
        <ele>210</ele>
        <time>2025-05-25T07:02:39Z</time>
      </trkpt>
      <trkpt lat="45.11626" lon="0.64448">
        <ele>209.6</ele>
        <time>2025-05-25T07:02:40Z</time>
      </trkpt>
      <trkpt lat="45.11619" lon="0.64451">
        <ele>209.4</ele>
        <time>2025-05-25T07:02:41Z</time>
      </trkpt>
      <trkpt lat="45.11612" lon="0.64453">
        <ele>209</ele>
        <time>2025-05-25T07:02:42Z</time>
      </trkpt>
      <trkpt lat="45.11604" lon="0.64453">
        <ele>208.4</ele>
        <time>2025-05-25T07:02:43Z</time>
      </trkpt>
      <trkpt lat="45.11596" lon="0.64452">
        <ele>208</ele>
        <time>2025-05-25T07:02:44Z</time>
      </trkpt>
      <trkpt lat="45.11589" lon="0.64451">
        <ele>207.6</ele>
        <time>2025-05-25T07:02:45Z</time>
      </trkpt>
      <trkpt lat="45.11581" lon="0.64449">
        <ele>207</ele>
        <time>2025-05-25T07:02:46Z</time>
      </trkpt>
      <trkpt lat="45.11573" lon="0.64446">
        <ele>206.4</ele>
        <time>2025-05-25T07:02:47Z</time>
      </trkpt>
      <trkpt lat="45.11565" lon="0.64442">
        <ele>205.8</ele>
        <time>2025-05-25T07:02:48Z</time>
      </trkpt>
      <trkpt lat="45.11558" lon="0.64436">
        <ele>205.4</ele>
        <time>2025-05-25T07:02:49Z</time>
      </trkpt>
      <trkpt lat="45.11551" lon="0.64429">
        <ele>204.8</ele>
        <time>2025-05-25T07:02:50Z</time>
      </trkpt>
      <trkpt lat="45.11544" lon="0.64419">
        <ele>204.2</ele>
        <time>2025-05-25T07:02:51Z</time>
      </trkpt>
      <trkpt lat="45.11538" lon="0.6441">
        <ele>203.6</ele>
        <time>2025-05-25T07:02:52Z</time>
      </trkpt>
      <trkpt lat="45.1153" lon="0.64403">
        <ele>203</ele>
        <time>2025-05-25T07:02:53Z</time>
      </trkpt>
      <trkpt lat="45.11523" lon="0.64396">
        <ele>202.4</ele>
        <time>2025-05-25T07:02:54Z</time>
      </trkpt>
      <trkpt lat="45.11515" lon="0.64391">
        <ele>202.2</ele>
        <time>2025-05-25T07:02:55Z</time>
      </trkpt>
      <trkpt lat="45.11508" lon="0.64386">
        <ele>202.2</ele>
        <time>2025-05-25T07:02:56Z</time>
      </trkpt>
      <trkpt lat="45.11501" lon="0.64383">
        <ele>202.4</ele>
        <time>2025-05-25T07:02:57Z</time>
      </trkpt>
      <trkpt lat="45.11495" lon="0.6438">
        <ele>202.8</ele>
        <time>2025-05-25T07:02:58Z</time>
      </trkpt>
      <trkpt lat="45.11491" lon="0.64377">
        <ele>203.6</ele>
        <time>2025-05-25T07:02:59Z</time>
      </trkpt>
      <trkpt lat="45.11486" lon="0.64375">
        <ele>204.6</ele>
        <time>2025-05-25T07:03:00Z</time>
      </trkpt>
      <trkpt lat="45.11482" lon="0.64374">
        <ele>205.4</ele>
        <time>2025-05-25T07:03:01Z</time>
      </trkpt>
      <trkpt lat="45.11478" lon="0.64375">
        <ele>206.2</ele>
        <time>2025-05-25T07:03:02Z</time>
      </trkpt>
      <trkpt lat="45.11474" lon="0.64378">
        <ele>206.8</ele>
        <time>2025-05-25T07:03:03Z</time>
      </trkpt>
      <trkpt lat="45.11471" lon="0.64382">
        <ele>207</ele>
        <time>2025-05-25T07:03:04Z</time>
      </trkpt>
      <trkpt lat="45.11467" lon="0.64387">
        <ele>207.4</ele>
        <time>2025-05-25T07:03:05Z</time>
      </trkpt>
      <trkpt lat="45.11464" lon="0.64393">
        <ele>207.4</ele>
        <time>2025-05-25T07:03:06Z</time>
      </trkpt>
      <trkpt lat="45.1146" lon="0.644">
        <ele>207.4</ele>
        <time>2025-05-25T07:03:07Z</time>
      </trkpt>
      <trkpt lat="45.11456" lon="0.64406">
        <ele>207.2</ele>
        <time>2025-05-25T07:03:08Z</time>
      </trkpt>
      <trkpt lat="45.11453" lon="0.64413">
        <ele>207</ele>
        <time>2025-05-25T07:03:09Z</time>
      </trkpt>
      <trkpt lat="45.11451" lon="0.64421">
        <ele>206.8</ele>
        <time>2025-05-25T07:03:10Z</time>
      </trkpt>
      <trkpt lat="45.1145" lon="0.64429">
        <ele>206.6</ele>
        <time>2025-05-25T07:03:11Z</time>
      </trkpt>
      <trkpt lat="45.11449" lon="0.64438">
        <ele>206.4</ele>
        <time>2025-05-25T07:03:12Z</time>
      </trkpt>
      <trkpt lat="45.11447" lon="0.64446">
        <ele>206.2</ele>
        <time>2025-05-25T07:03:13Z</time>
      </trkpt>
      <trkpt lat="45.11446" lon="0.64454">
        <ele>206.2</ele>
        <time>2025-05-25T07:03:14Z</time>
      </trkpt>
      <trkpt lat="45.11444" lon="0.64463">
        <ele>206</ele>
        <time>2025-05-25T07:03:15Z</time>
      </trkpt>
      <trkpt lat="45.11442" lon="0.64472">
        <ele>205.6</ele>
        <time>2025-05-25T07:03:16Z</time>
      </trkpt>
      <trkpt lat="45.1144" lon="0.6448">
        <ele>205.6</ele>
        <time>2025-05-25T07:03:17Z</time>
      </trkpt>
      <trkpt lat="45.11438" lon="0.64489">
        <ele>205.2</ele>
        <time>2025-05-25T07:03:18Z</time>
      </trkpt>
      <trkpt lat="45.11436" lon="0.64498">
        <ele>205</ele>
        <time>2025-05-25T07:03:19Z</time>
      </trkpt>
      <trkpt lat="45.11434" lon="0.64506">
        <ele>205</ele>
        <time>2025-05-25T07:03:20Z</time>
      </trkpt>
      <trkpt lat="45.11432" lon="0.64514">
        <ele>204.8</ele>
        <time>2025-05-25T07:03:21Z</time>
      </trkpt>
      <trkpt lat="45.1143" lon="0.64521">
        <ele>204.8</ele>
        <time>2025-05-25T07:03:22Z</time>
      </trkpt>
      <trkpt lat="45.11429" lon="0.64529">
        <ele>204.8</ele>
        <time>2025-05-25T07:03:23Z</time>
      </trkpt>
      <trkpt lat="45.11427" lon="0.64537">
        <ele>205</ele>
        <time>2025-05-25T07:03:24Z</time>
      </trkpt>
      <trkpt lat="45.11425" lon="0.64544">
        <ele>205</ele>
        <time>2025-05-25T07:03:25Z</time>
      </trkpt>
      <trkpt lat="45.11423" lon="0.64552">
        <ele>205</ele>
        <time>2025-05-25T07:03:26Z</time>
      </trkpt>
      <trkpt lat="45.11422" lon="0.6456">
        <ele>205.2</ele>
        <time>2025-05-25T07:03:27Z</time>
      </trkpt>
      <trkpt lat="45.1142" lon="0.64568">
        <ele>205.2</ele>
        <time>2025-05-25T07:03:28Z</time>
      </trkpt>
      <trkpt lat="45.11419" lon="0.64576">
        <ele>205</ele>
        <time>2025-05-25T07:03:29Z</time>
      </trkpt>
      <trkpt lat="45.11417" lon="0.64584">
        <ele>205</ele>
        <time>2025-05-25T07:03:30Z</time>
      </trkpt>
      <trkpt lat="45.11416" lon="0.64592">
        <ele>204.8</ele>
        <time>2025-05-25T07:03:31Z</time>
      </trkpt>
      <trkpt lat="45.11415" lon="0.646">
        <ele>204.6</ele>
        <time>2025-05-25T07:03:32Z</time>
      </trkpt>
      <trkpt lat="45.11413" lon="0.64609">
        <ele>204.6</ele>
        <time>2025-05-25T07:03:33Z</time>
      </trkpt>
      <trkpt lat="45.11412" lon="0.64618">
        <ele>204.4</ele>
        <time>2025-05-25T07:03:34Z</time>
      </trkpt>
      <trkpt lat="45.1141" lon="0.64627">
        <ele>204.2</ele>
        <time>2025-05-25T07:03:35Z</time>
      </trkpt>
      <trkpt lat="45.11409" lon="0.64637">
        <ele>204</ele>
        <time>2025-05-25T07:03:36Z</time>
      </trkpt>
      <trkpt lat="45.11407" lon="0.64647">
        <ele>203.8</ele>
        <time>2025-05-25T07:03:37Z</time>
      </trkpt>
      <trkpt lat="45.11405" lon="0.64656">
        <ele>203.6</ele>
        <time>2025-05-25T07:03:38Z</time>
      </trkpt>
      <trkpt lat="45.11402" lon="0.64663">
        <ele>203.2</ele>
        <time>2025-05-25T07:03:39Z</time>
      </trkpt>
      <trkpt lat="45.11397" lon="0.64669">
        <ele>202.8</ele>
        <time>2025-05-25T07:03:40Z</time>
      </trkpt>
      <trkpt lat="45.11392" lon="0.64673">
        <ele>202.2</ele>
        <time>2025-05-25T07:03:41Z</time>
      </trkpt>
      <trkpt lat="45.11386" lon="0.64678">
        <ele>201.8</ele>
        <time>2025-05-25T07:03:42Z</time>
      </trkpt>
      <trkpt lat="45.1138" lon="0.64684">
        <ele>201.2</ele>
        <time>2025-05-25T07:03:43Z</time>
      </trkpt>
      <trkpt lat="45.11373" lon="0.6469">
        <ele>200.4</ele>
        <time>2025-05-25T07:03:44Z</time>
      </trkpt>
      <trkpt lat="45.11366" lon="0.64694">
        <ele>199.4</ele>
        <time>2025-05-25T07:03:45Z</time>
      </trkpt>
      <trkpt lat="45.11358" lon="0.64699">
        <ele>198.4</ele>
        <time>2025-05-25T07:03:46Z</time>
      </trkpt>
      <trkpt lat="45.11349" lon="0.64704">
        <ele>197.2</ele>
        <time>2025-05-25T07:03:47Z</time>
      </trkpt>
      <trkpt lat="45.1134" lon="0.6471">
        <ele>196</ele>
        <time>2025-05-25T07:03:48Z</time>
      </trkpt>
      <trkpt lat="45.11331" lon="0.64716">
        <ele>194.8</ele>
        <time>2025-05-25T07:03:49Z</time>
      </trkpt>
      <trkpt lat="45.11323" lon="0.64721">
        <ele>193.2</ele>
        <time>2025-05-25T07:03:50Z</time>
      </trkpt>
      <trkpt lat="45.11317" lon="0.64726">
        <ele>192.4</ele>
        <time>2025-05-25T07:03:51Z</time>
      </trkpt>
      <trkpt lat="45.11312" lon="0.64731">
        <ele>191.6</ele>
        <time>2025-05-25T07:03:52Z</time>
      </trkpt>
      <trkpt lat="45.11306" lon="0.64734">
        <ele>190.8</ele>
        <time>2025-05-25T07:03:53Z</time>
      </trkpt>
      <trkpt lat="45.11301" lon="0.64734">
        <ele>190</ele>
        <time>2025-05-25T07:03:54Z</time>
      </trkpt>
      <trkpt lat="45.11298" lon="0.64731">
        <ele>188.8</ele>
        <time>2025-05-25T07:03:55Z</time>
      </trkpt>
      <trkpt lat="45.11294" lon="0.64727">
        <ele>187.8</ele>
        <time>2025-05-25T07:03:56Z</time>
      </trkpt>
      <trkpt lat="45.1129" lon="0.64722">
        <ele>186.8</ele>
        <time>2025-05-25T07:03:57Z</time>
      </trkpt>
      <trkpt lat="45.11286" lon="0.64716">
        <ele>186</ele>
        <time>2025-05-25T07:03:58Z</time>
      </trkpt>
      <trkpt lat="45.1128" lon="0.64709">
        <ele>184.2</ele>
        <time>2025-05-25T07:03:59Z</time>
      </trkpt>
      <trkpt lat="45.11273" lon="0.64702">
        <ele>183</ele>
        <time>2025-05-25T07:04:00Z</time>
      </trkpt>
      <trkpt lat="45.11265" lon="0.64696">
        <ele>180.4</ele>
        <time>2025-05-25T07:04:01Z</time>
      </trkpt>
      <trkpt lat="45.11257" lon="0.64686">
        <ele>178.6</ele>
        <time>2025-05-25T07:04:02Z</time>
      </trkpt>
      <trkpt lat="45.1125" lon="0.64677">
        <ele>177.4</ele>
        <time>2025-05-25T07:04:03Z</time>
      </trkpt>
      <trkpt lat="45.11243" lon="0.64668">
        <ele>175.8</ele>
        <time>2025-05-25T07:04:04Z</time>
      </trkpt>
      <trkpt lat="45.11237" lon="0.6466">
        <ele>174.6</ele>
        <time>2025-05-25T07:04:05Z</time>
      </trkpt>
      <trkpt lat="45.11231" lon="0.64652">
        <ele>173.4</ele>
        <time>2025-05-25T07:04:06Z</time>
      </trkpt>
      <trkpt lat="45.11225" lon="0.64644">
        <ele>171.6</ele>
        <time>2025-05-25T07:04:07Z</time>
      </trkpt>
      <trkpt lat="45.11218" lon="0.64639">
        <ele>170.2</ele>
        <time>2025-05-25T07:04:08Z</time>
      </trkpt>
      <trkpt lat="45.1121" lon="0.64634">
        <ele>168.8</ele>
        <time>2025-05-25T07:04:09Z</time>
      </trkpt>
      <trkpt lat="45.11202" lon="0.64631">
        <ele>167</ele>
        <time>2025-05-25T07:04:10Z</time>
      </trkpt>
      <trkpt lat="45.11195" lon="0.64627">
        <ele>165.6</ele>
        <time>2025-05-25T07:04:11Z</time>
      </trkpt>
      <trkpt lat="45.11188" lon="0.64623">
        <ele>163.8</ele>
        <time>2025-05-25T07:04:12Z</time>
      </trkpt>
      <trkpt lat="45.11183" lon="0.64618">
        <ele>162.6</ele>
        <time>2025-05-25T07:04:13Z</time>
      </trkpt>
      <trkpt lat="45.11179" lon="0.64609">
        <ele>161.4</ele>
        <time>2025-05-25T07:04:14Z</time>
      </trkpt>
      <trkpt lat="45.11176" lon="0.64599">
        <ele>159.8</ele>
        <time>2025-05-25T07:04:15Z</time>
      </trkpt>
      <trkpt lat="45.11173" lon="0.6459">
        <ele>158.8</ele>
        <time>2025-05-25T07:04:16Z</time>
      </trkpt>
      <trkpt lat="45.11171" lon="0.6458">
        <ele>157.4</ele>
        <time>2025-05-25T07:04:17Z</time>
      </trkpt>
      <trkpt lat="45.11166" lon="0.64574">
        <ele>155.8</ele>
        <time>2025-05-25T07:04:18Z</time>
      </trkpt>
      <trkpt lat="45.11161" lon="0.6457">
        <ele>154.6</ele>
        <time>2025-05-25T07:04:19Z</time>
      </trkpt>
      <trkpt lat="45.11156" lon="0.6457">
        <ele>154</ele>
        <time>2025-05-25T07:04:20Z</time>
      </trkpt>
      <trkpt lat="45.1115" lon="0.64571">
        <ele>153.4</ele>
        <time>2025-05-25T07:04:21Z</time>
      </trkpt>
      <trkpt lat="45.11144" lon="0.64574">
        <ele>152.6</ele>
        <time>2025-05-25T07:04:22Z</time>
      </trkpt>
      <trkpt lat="45.1114" lon="0.64579">
        <ele>152</ele>
        <time>2025-05-25T07:04:23Z</time>
      </trkpt>
      <trkpt lat="45.11136" lon="0.64586">
        <ele>151.4</ele>
        <time>2025-05-25T07:04:24Z</time>
      </trkpt>
      <trkpt lat="45.11133" lon="0.64593">
        <ele>150.8</ele>
        <time>2025-05-25T07:04:25Z</time>
      </trkpt>
      <trkpt lat="45.1113" lon="0.64601">
        <ele>150.4</ele>
        <time>2025-05-25T07:04:26Z</time>
      </trkpt>
      <trkpt lat="45.11127" lon="0.64608">
        <ele>150</ele>
        <time>2025-05-25T07:04:27Z</time>
      </trkpt>
      <trkpt lat="45.11124" lon="0.64615">
        <ele>149.6</ele>
        <time>2025-05-25T07:04:28Z</time>
      </trkpt>
      <trkpt lat="45.11121" lon="0.64623">
        <ele>149.4</ele>
        <time>2025-05-25T07:04:29Z</time>
      </trkpt>
      <trkpt lat="45.11118" lon="0.64632">
        <ele>149.2</ele>
        <time>2025-05-25T07:04:30Z</time>
      </trkpt>
      <trkpt lat="45.11115" lon="0.6464">
        <ele>149</ele>
        <time>2025-05-25T07:04:31Z</time>
      </trkpt>
      <trkpt lat="45.11113" lon="0.64648">
        <ele>148.6</ele>
        <time>2025-05-25T07:04:32Z</time>
      </trkpt>
      <trkpt lat="45.11109" lon="0.64656">
        <ele>148.4</ele>
        <time>2025-05-25T07:04:33Z</time>
      </trkpt>
      <trkpt lat="45.11105" lon="0.64664">
        <ele>148.2</ele>
        <time>2025-05-25T07:04:34Z</time>
      </trkpt>
      <trkpt lat="45.111" lon="0.64671">
        <ele>147.8</ele>
        <time>2025-05-25T07:04:35Z</time>
      </trkpt>
      <trkpt lat="45.11096" lon="0.64678">
        <ele>147.6</ele>
        <time>2025-05-25T07:04:36Z</time>
      </trkpt>
      <trkpt lat="45.11091" lon="0.64685">
        <ele>147.4</ele>
        <time>2025-05-25T07:04:37Z</time>
      </trkpt>
      <trkpt lat="45.11086" lon="0.64692">
        <ele>147.2</ele>
        <time>2025-05-25T07:04:38Z</time>
      </trkpt>
      <trkpt lat="45.1108" lon="0.64698">
        <ele>146.8</ele>
        <time>2025-05-25T07:04:39Z</time>
      </trkpt>
      <trkpt lat="45.11074" lon="0.64704">
        <ele>146.4</ele>
        <time>2025-05-25T07:04:40Z</time>
      </trkpt>
      <trkpt lat="45.11069" lon="0.64711">
        <ele>146.2</ele>
        <time>2025-05-25T07:04:41Z</time>
      </trkpt>
      <trkpt lat="45.11065" lon="0.64718">
        <ele>146</ele>
        <time>2025-05-25T07:04:42Z</time>
      </trkpt>
      <trkpt lat="45.11062" lon="0.64725">
        <ele>145.8</ele>
        <time>2025-05-25T07:04:43Z</time>
      </trkpt>
      <trkpt lat="45.11058" lon="0.64732">
        <ele>145.8</ele>
        <time>2025-05-25T07:04:44Z</time>
      </trkpt>
      <trkpt lat="45.11054" lon="0.64739">
        <ele>145.6</ele>
        <time>2025-05-25T07:04:45Z</time>
      </trkpt>
      <trkpt lat="45.11049" lon="0.64745">
        <ele>145.4</ele>
        <time>2025-05-25T07:04:46Z</time>
      </trkpt>
      <trkpt lat="45.11044" lon="0.64749">
        <ele>145.2</ele>
        <time>2025-05-25T07:04:47Z</time>
      </trkpt>
      <trkpt lat="45.1104" lon="0.64751">
        <ele>145</ele>
        <time>2025-05-25T07:04:48Z</time>
      </trkpt>
      <trkpt lat="45.11037" lon="0.64752">
        <ele>144.8</ele>
        <time>2025-05-25T07:04:49Z</time>
      </trkpt>
      <trkpt lat="45.11035" lon="0.64754">
        <ele>144.8</ele>
        <time>2025-05-25T07:04:50Z</time>
      </trkpt>
      <trkpt lat="45.11033" lon="0.64756">
        <ele>144.8</ele>
        <time>2025-05-25T07:04:51Z</time>
      </trkpt>
      <trkpt lat="45.11032" lon="0.64758">
        <ele>145</ele>
        <time>2025-05-25T07:04:52Z</time>
      </trkpt>
      <trkpt lat="45.11031" lon="0.64761">
        <ele>145</ele>
        <time>2025-05-25T07:04:53Z</time>
      </trkpt>
      <trkpt lat="45.11032" lon="0.64764">
        <ele>145</ele>
        <time>2025-05-25T07:04:54Z</time>
      </trkpt>
      <trkpt lat="45.11034" lon="0.64768">
        <ele>144.8</ele>
        <time>2025-05-25T07:04:55Z</time>
      </trkpt>
      <trkpt lat="45.11036" lon="0.64772">
        <ele>144.8</ele>
        <time>2025-05-25T07:04:56Z</time>
      </trkpt>
      <trkpt lat="45.11038" lon="0.64776">
        <ele>144.6</ele>
        <time>2025-05-25T07:04:57Z</time>
      </trkpt>
      <trkpt lat="45.1104" lon="0.64781">
        <ele>144.4</ele>
        <time>2025-05-25T07:04:58Z</time>
      </trkpt>
      <trkpt lat="45.11042" lon="0.64785">
        <ele>144.4</ele>
        <time>2025-05-25T07:04:59Z</time>
      </trkpt>
      <trkpt lat="45.11045" lon="0.6479">
        <ele>144.2</ele>
        <time>2025-05-25T07:05:00Z</time>
      </trkpt>
      <trkpt lat="45.11048" lon="0.64795">
        <ele>144.2</ele>
        <time>2025-05-25T07:05:01Z</time>
      </trkpt>
      <trkpt lat="45.1105" lon="0.648">
        <ele>144</ele>
        <time>2025-05-25T07:05:02Z</time>
      </trkpt>
      <trkpt lat="45.11052" lon="0.64805">
        <ele>144</ele>
        <time>2025-05-25T07:05:03Z</time>
      </trkpt>
      <trkpt lat="45.11054" lon="0.64811">
        <ele>144</ele>
        <time>2025-05-25T07:05:04Z</time>
      </trkpt>
      <trkpt lat="45.11055" lon="0.64818">
        <ele>144.2</ele>
        <time>2025-05-25T07:05:05Z</time>
      </trkpt>
      <trkpt lat="45.11056" lon="0.64824">
        <ele>144.4</ele>
        <time>2025-05-25T07:05:06Z</time>
      </trkpt>
      <trkpt lat="45.11058" lon="0.64831">
        <ele>144.4</ele>
        <time>2025-05-25T07:05:07Z</time>
      </trkpt>
      <trkpt lat="45.1106" lon="0.64837">
        <ele>144.6</ele>
        <time>2025-05-25T07:05:08Z</time>
      </trkpt>
      <trkpt lat="45.11063" lon="0.64843">
        <ele>144.8</ele>
        <time>2025-05-25T07:05:09Z</time>
      </trkpt>
      <trkpt lat="45.11066" lon="0.64849">
        <ele>145</ele>
        <time>2025-05-25T07:05:10Z</time>
      </trkpt>
      <trkpt lat="45.11069" lon="0.64854">
        <ele>145.2</ele>
        <time>2025-05-25T07:05:11Z</time>
      </trkpt>
      <trkpt lat="45.11072" lon="0.64859">
        <ele>145.4</ele>
        <time>2025-05-25T07:05:12Z</time>
      </trkpt>
      <trkpt lat="45.11074" lon="0.64863">
        <ele>145.6</ele>
        <time>2025-05-25T07:05:13Z</time>
      </trkpt>
      <trkpt lat="45.11077" lon="0.64868">
        <ele>146</ele>
        <time>2025-05-25T07:05:14Z</time>
      </trkpt>
      <trkpt lat="45.1108" lon="0.64872">
        <ele>146.2</ele>
        <time>2025-05-25T07:05:15Z</time>
      </trkpt>
      <trkpt lat="45.11083" lon="0.64876">
        <ele>146.4</ele>
        <time>2025-05-25T07:05:16Z</time>
      </trkpt>
      <trkpt lat="45.11085" lon="0.6488">
        <ele>146.8</ele>
        <time>2025-05-25T07:05:17Z</time>
      </trkpt>
      <trkpt lat="45.11087" lon="0.64884">
        <ele>147</ele>
        <time>2025-05-25T07:05:18Z</time>
      </trkpt>
      <trkpt lat="45.1109" lon="0.64888">
        <ele>147.2</ele>
        <time>2025-05-25T07:05:19Z</time>
      </trkpt>
      <trkpt lat="45.11092" lon="0.64891">
        <ele>147.4</ele>
        <time>2025-05-25T07:05:20Z</time>
      </trkpt>
      <trkpt lat="45.11093" lon="0.64896">
        <ele>147.6</ele>
        <time>2025-05-25T07:05:21Z</time>
      </trkpt>
      <trkpt lat="45.11095" lon="0.64899">
        <ele>147.8</ele>
        <time>2025-05-25T07:05:22Z</time>
      </trkpt>
      <trkpt lat="45.11098" lon="0.64903">
        <ele>147.8</ele>
        <time>2025-05-25T07:05:23Z</time>
      </trkpt>
      <trkpt lat="45.11101" lon="0.64906">
        <ele>148</ele>
        <time>2025-05-25T07:05:24Z</time>
      </trkpt>
      <trkpt lat="45.11103" lon="0.64909">
        <ele>148</ele>
        <time>2025-05-25T07:05:25Z</time>
      </trkpt>
      <trkpt lat="45.11104" lon="0.64913">
        <ele>148.2</ele>
        <time>2025-05-25T07:05:26Z</time>
      </trkpt>
      <trkpt lat="45.11107" lon="0.64917">
        <ele>148.2</ele>
        <time>2025-05-25T07:05:27Z</time>
      </trkpt>
      <trkpt lat="45.11109" lon="0.64921">
        <ele>148.4</ele>
        <time>2025-05-25T07:05:28Z</time>
      </trkpt>
      <trkpt lat="45.11111" lon="0.64926">
        <ele>148.6</ele>
        <time>2025-05-25T07:05:29Z</time>
      </trkpt>
      <trkpt lat="45.11114" lon="0.6493">
        <ele>148.6</ele>
        <time>2025-05-25T07:05:30Z</time>
      </trkpt>
      <trkpt lat="45.11117" lon="0.64934">
        <ele>148.8</ele>
        <time>2025-05-25T07:05:31Z</time>
      </trkpt>
      <trkpt lat="45.11119" lon="0.64938">
        <ele>148.8</ele>
        <time>2025-05-25T07:05:32Z</time>
      </trkpt>
      <trkpt lat="45.11121" lon="0.64942">
        <ele>149</ele>
        <time>2025-05-25T07:05:33Z</time>
      </trkpt>
      <trkpt lat="45.11124" lon="0.64948">
        <ele>149</ele>
        <time>2025-05-25T07:05:34Z</time>
      </trkpt>
      <trkpt lat="45.11125" lon="0.64954">
        <ele>149</ele>
        <time>2025-05-25T07:05:35Z</time>
      </trkpt>
      <trkpt lat="45.11127" lon="0.6496">
        <ele>149</ele>
        <time>2025-05-25T07:05:36Z</time>
      </trkpt>
      <trkpt lat="45.1113" lon="0.64966">
        <ele>148.8</ele>
        <time>2025-05-25T07:05:37Z</time>
      </trkpt>
      <trkpt lat="45.11133" lon="0.64972">
        <ele>148.8</ele>
        <time>2025-05-25T07:05:38Z</time>
      </trkpt>
      <trkpt lat="45.11136" lon="0.64977">
        <ele>148.8</ele>
        <time>2025-05-25T07:05:39Z</time>
      </trkpt>
      <trkpt lat="45.11139" lon="0.64983">
        <ele>148.8</ele>
        <time>2025-05-25T07:05:40Z</time>
      </trkpt>
      <trkpt lat="45.11142" lon="0.64988">
        <ele>148.8</ele>
        <time>2025-05-25T07:05:41Z</time>
      </trkpt>
      <trkpt lat="45.11145" lon="0.64992">
        <ele>148.8</ele>
        <time>2025-05-25T07:05:42Z</time>
      </trkpt>
      <trkpt lat="45.11149" lon="0.64996">
        <ele>149</ele>
        <time>2025-05-25T07:05:43Z</time>
      </trkpt>
      <trkpt lat="45.11151" lon="0.65001">
        <ele>149.2</ele>
        <time>2025-05-25T07:05:44Z</time>
      </trkpt>
      <trkpt lat="45.11154" lon="0.65005">
        <ele>149.4</ele>
        <time>2025-05-25T07:05:45Z</time>
      </trkpt>
      <trkpt lat="45.11158" lon="0.65009">
        <ele>149.6</ele>
        <time>2025-05-25T07:05:46Z</time>
      </trkpt>
      <trkpt lat="45.11161" lon="0.65013">
        <ele>149.8</ele>
        <time>2025-05-25T07:05:47Z</time>
      </trkpt>
      <trkpt lat="45.11164" lon="0.65016">
        <ele>150</ele>
        <time>2025-05-25T07:05:48Z</time>
      </trkpt>
      <trkpt lat="45.11167" lon="0.6502">
        <ele>150.2</ele>
        <time>2025-05-25T07:05:49Z</time>
      </trkpt>
      <trkpt lat="45.1117" lon="0.65023">
        <ele>150.4</ele>
        <time>2025-05-25T07:05:50Z</time>
      </trkpt>
      <trkpt lat="45.11174" lon="0.65026">
        <ele>150.4</ele>
        <time>2025-05-25T07:05:51Z</time>
      </trkpt>
      <trkpt lat="45.11177" lon="0.65029">
        <ele>150.4</ele>
        <time>2025-05-25T07:05:52Z</time>
      </trkpt>
      <trkpt lat="45.1118" lon="0.65032">
        <ele>150.6</ele>
        <time>2025-05-25T07:05:53Z</time>
      </trkpt>
      <trkpt lat="45.11183" lon="0.65035">
        <ele>150.8</ele>
        <time>2025-05-25T07:05:54Z</time>
      </trkpt>
      <trkpt lat="45.11187" lon="0.65038">
        <ele>150.8</ele>
        <time>2025-05-25T07:05:55Z</time>
      </trkpt>
      <trkpt lat="45.1119" lon="0.65041">
        <ele>151</ele>
        <time>2025-05-25T07:05:56Z</time>
      </trkpt>
      <trkpt lat="45.11194" lon="0.65044">
        <ele>151</ele>
        <time>2025-05-25T07:05:57Z</time>
      </trkpt>
      <trkpt lat="45.11197" lon="0.65047">
        <ele>151.2</ele>
        <time>2025-05-25T07:05:58Z</time>
      </trkpt>
      <trkpt lat="45.112" lon="0.6505">
        <ele>151.2</ele>
        <time>2025-05-25T07:05:59Z</time>
      </trkpt>
      <trkpt lat="45.11203" lon="0.65052">
        <ele>151.4</ele>
        <time>2025-05-25T07:06:00Z</time>
      </trkpt>
      <trkpt lat="45.11207" lon="0.65055">
        <ele>151.4</ele>
        <time>2025-05-25T07:06:01Z</time>
      </trkpt>
      <trkpt lat="45.11211" lon="0.65058">
        <ele>151.6</ele>
        <time>2025-05-25T07:06:02Z</time>
      </trkpt>
      <trkpt lat="45.11215" lon="0.6506">
        <ele>151.6</ele>
        <time>2025-05-25T07:06:03Z</time>
      </trkpt>
      <trkpt lat="45.11218" lon="0.65063">
        <ele>151.6</ele>
        <time>2025-05-25T07:06:04Z</time>
      </trkpt>
      <trkpt lat="45.11223" lon="0.65065">
        <ele>151.6</ele>
        <time>2025-05-25T07:06:05Z</time>
      </trkpt>
      <trkpt lat="45.11227" lon="0.65068">
        <ele>151.4</ele>
        <time>2025-05-25T07:06:06Z</time>
      </trkpt>
      <trkpt lat="45.11231" lon="0.6507">
        <ele>151.4</ele>
        <time>2025-05-25T07:06:07Z</time>
      </trkpt>
      <trkpt lat="45.11234" lon="0.65073">
        <ele>151.4</ele>
        <time>2025-05-25T07:06:08Z</time>
      </trkpt>
      <trkpt lat="45.11238" lon="0.65076">
        <ele>151.2</ele>
        <time>2025-05-25T07:06:09Z</time>
      </trkpt>
      <trkpt lat="45.11243" lon="0.6508">
        <ele>151.2</ele>
        <time>2025-05-25T07:06:10Z</time>
      </trkpt>
      <trkpt lat="45.11247" lon="0.65084">
        <ele>151.2</ele>
        <time>2025-05-25T07:06:11Z</time>
      </trkpt>
      <trkpt lat="45.11251" lon="0.65089">
        <ele>151.2</ele>
        <time>2025-05-25T07:06:12Z</time>
      </trkpt>
      <trkpt lat="45.11255" lon="0.65094">
        <ele>151</ele>
        <time>2025-05-25T07:06:13Z</time>
      </trkpt>
      <trkpt lat="45.11258" lon="0.651">
        <ele>151</ele>
        <time>2025-05-25T07:06:14Z</time>
      </trkpt>
      <trkpt lat="45.1126" lon="0.65106">
        <ele>150.8</ele>
        <time>2025-05-25T07:06:15Z</time>
      </trkpt>
      <trkpt lat="45.11262" lon="0.65111">
        <ele>150.8</ele>
        <time>2025-05-25T07:06:16Z</time>
      </trkpt>
      <trkpt lat="45.11265" lon="0.65117">
        <ele>150.8</ele>
        <time>2025-05-25T07:06:17Z</time>
      </trkpt>
      <trkpt lat="45.11266" lon="0.65121">
        <ele>150.8</ele>
        <time>2025-05-25T07:06:18Z</time>
      </trkpt>
      <trkpt lat="45.11267" lon="0.65126">
        <ele>150.8</ele>
        <time>2025-05-25T07:06:19Z</time>
      </trkpt>
      <trkpt lat="45.11268" lon="0.6513">
        <ele>151</ele>
        <time>2025-05-25T07:06:20Z</time>
      </trkpt>
      <trkpt lat="45.1127" lon="0.65134">
        <ele>151.2</ele>
        <time>2025-05-25T07:06:21Z</time>
      </trkpt>
      <trkpt lat="45.11271" lon="0.65139">
        <ele>151.2</ele>
        <time>2025-05-25T07:06:22Z</time>
      </trkpt>
      <trkpt lat="45.11273" lon="0.65143">
        <ele>151.4</ele>
        <time>2025-05-25T07:06:23Z</time>
      </trkpt>
      <trkpt lat="45.11274" lon="0.65147">
        <ele>151.6</ele>
        <time>2025-05-25T07:06:24Z</time>
      </trkpt>
      <trkpt lat="45.11276" lon="0.65152">
        <ele>152</ele>
        <time>2025-05-25T07:06:25Z</time>
      </trkpt>
      <trkpt lat="45.11277" lon="0.65156">
        <ele>152.2</ele>
        <time>2025-05-25T07:06:26Z</time>
      </trkpt>
      <trkpt lat="45.11278" lon="0.65159">
        <ele>152.6</ele>
        <time>2025-05-25T07:06:27Z</time>
      </trkpt>
      <trkpt lat="45.11279" lon="0.65162">
        <ele>153</ele>
        <time>2025-05-25T07:06:28Z</time>
      </trkpt>
      <trkpt lat="45.1128" lon="0.65165">
        <ele>153.4</ele>
        <time>2025-05-25T07:06:29Z</time>
      </trkpt>
      <trkpt lat="45.11282" lon="0.65168">
        <ele>153.6</ele>
        <time>2025-05-25T07:06:30Z</time>
      </trkpt>
      <trkpt lat="45.11282" lon="0.65171">
        <ele>154</ele>
        <time>2025-05-25T07:06:31Z</time>
      </trkpt>
      <trkpt lat="45.11283" lon="0.65173">
        <ele>154.4</ele>
        <time>2025-05-25T07:06:32Z</time>
      </trkpt>
      <trkpt lat="45.11284" lon="0.65176">
        <ele>154.6</ele>
        <time>2025-05-25T07:06:33Z</time>
      </trkpt>
      <trkpt lat="45.11285" lon="0.65178">
        <ele>154.8</ele>
        <time>2025-05-25T07:06:34Z</time>
      </trkpt>
      <trkpt lat="45.11285" lon="0.65181">
        <ele>155</ele>
        <time>2025-05-25T07:06:35Z</time>
      </trkpt>
      <trkpt lat="45.11287" lon="0.65185">
        <ele>155.2</ele>
        <time>2025-05-25T07:06:36Z</time>
      </trkpt>
      <trkpt lat="45.11289" lon="0.65188">
        <ele>155.4</ele>
        <time>2025-05-25T07:06:37Z</time>
      </trkpt>
      <trkpt lat="45.11289" lon="0.65191">
        <ele>155.6</ele>
        <time>2025-05-25T07:06:38Z</time>
      </trkpt>
      <trkpt lat="45.11291" lon="0.65194">
        <ele>155.8</ele>
        <time>2025-05-25T07:06:39Z</time>
      </trkpt>
      <trkpt lat="45.11293" lon="0.65196">
        <ele>156</ele>
        <time>2025-05-25T07:06:40Z</time>
      </trkpt>
      <trkpt lat="45.11294" lon="0.65199">
        <ele>156.2</ele>
        <time>2025-05-25T07:06:41Z</time>
      </trkpt>
      <trkpt lat="45.11295" lon="0.65202">
        <ele>156.6</ele>
        <time>2025-05-25T07:06:42Z</time>
      </trkpt>
      <trkpt lat="45.11297" lon="0.65205">
        <ele>156.8</ele>
        <time>2025-05-25T07:06:43Z</time>
      </trkpt>
      <trkpt lat="45.11298" lon="0.65208">
        <ele>157.2</ele>
        <time>2025-05-25T07:06:44Z</time>
      </trkpt>
      <trkpt lat="45.11299" lon="0.6521">
        <ele>157.4</ele>
        <time>2025-05-25T07:06:45Z</time>
      </trkpt>
      <trkpt lat="45.113" lon="0.65213">
        <ele>157.6</ele>
        <time>2025-05-25T07:06:46Z</time>
      </trkpt>
      <trkpt lat="45.11302" lon="0.65215">
        <ele>158</ele>
        <time>2025-05-25T07:06:47Z</time>
      </trkpt>
      <trkpt lat="45.11303" lon="0.65218">
        <ele>158.2</ele>
        <time>2025-05-25T07:06:48Z</time>
      </trkpt>
      <trkpt lat="45.11304" lon="0.6522">
        <ele>158.6</ele>
        <time>2025-05-25T07:06:49Z</time>
      </trkpt>
      <trkpt lat="45.11305" lon="0.65223">
        <ele>158.8</ele>
        <time>2025-05-25T07:06:50Z</time>
      </trkpt>
      <trkpt lat="45.11306" lon="0.65225">
        <ele>159</ele>
        <time>2025-05-25T07:06:51Z</time>
      </trkpt>
      <trkpt lat="45.11307" lon="0.65227">
        <ele>159.4</ele>
        <time>2025-05-25T07:06:52Z</time>
      </trkpt>
      <trkpt lat="45.11307" lon="0.65229">
        <ele>159.6</ele>
        <time>2025-05-25T07:06:53Z</time>
      </trkpt>
      <trkpt lat="45.11308" lon="0.65232">
        <ele>159.8</ele>
        <time>2025-05-25T07:06:54Z</time>
      </trkpt>
      <trkpt lat="45.11309" lon="0.65234">
        <ele>160.2</ele>
        <time>2025-05-25T07:06:55Z</time>
      </trkpt>
      <trkpt lat="45.1131" lon="0.65236">
        <ele>160.4</ele>
        <time>2025-05-25T07:06:56Z</time>
      </trkpt>
      <trkpt lat="45.1131" lon="0.65238">
        <ele>160.8</ele>
        <time>2025-05-25T07:06:57Z</time>
      </trkpt>
      <trkpt lat="45.11311" lon="0.6524">
        <ele>161</ele>
        <time>2025-05-25T07:06:58Z</time>
      </trkpt>
      <trkpt lat="45.11312" lon="0.65242">
        <ele>161.2</ele>
        <time>2025-05-25T07:06:59Z</time>
      </trkpt>
      <trkpt lat="45.11314" lon="0.65245">
        <ele>161.6</ele>
        <time>2025-05-25T07:07:00Z</time>
      </trkpt>
      <trkpt lat="45.11314" lon="0.65247">
        <ele>161.8</ele>
        <time>2025-05-25T07:07:01Z</time>
      </trkpt>
      <trkpt lat="45.11315" lon="0.6525">
        <ele>162.2</ele>
        <time>2025-05-25T07:07:02Z</time>
      </trkpt>
      <trkpt lat="45.11316" lon="0.65252">
        <ele>162.4</ele>
        <time>2025-05-25T07:07:03Z</time>
      </trkpt>
      <trkpt lat="45.11317" lon="0.65254">
        <ele>162.6</ele>
        <time>2025-05-25T07:07:04Z</time>
      </trkpt>
      <trkpt lat="45.11318" lon="0.65256">
        <ele>162.8</ele>
        <time>2025-05-25T07:07:05Z</time>
      </trkpt>
      <trkpt lat="45.11319" lon="0.65258">
        <ele>163.2</ele>
        <time>2025-05-25T07:07:06Z</time>
      </trkpt>
      <trkpt lat="45.1132" lon="0.6526">
        <ele>163.4</ele>
        <time>2025-05-25T07:07:07Z</time>
      </trkpt>
      <trkpt lat="45.1132" lon="0.65262">
        <ele>163.6</ele>
        <time>2025-05-25T07:07:08Z</time>
      </trkpt>
      <trkpt lat="45.11321" lon="0.65264">
        <ele>163.8</ele>
        <time>2025-05-25T07:07:09Z</time>
      </trkpt>
      <trkpt lat="45.11323" lon="0.65266">
        <ele>164</ele>
        <time>2025-05-25T07:07:10Z</time>
      </trkpt>
      <trkpt lat="45.11324" lon="0.65268">
        <ele>164.4</ele>
        <time>2025-05-25T07:07:11Z</time>
      </trkpt>
      <trkpt lat="45.11325" lon="0.6527">
        <ele>164.6</ele>
        <time>2025-05-25T07:07:12Z</time>
      </trkpt>
      <trkpt lat="45.11326" lon="0.65272">
        <ele>164.8</ele>
        <time>2025-05-25T07:07:13Z</time>
      </trkpt>
      <trkpt lat="45.11327" lon="0.65275">
        <ele>165.2</ele>
        <time>2025-05-25T07:07:14Z</time>
      </trkpt>
      <trkpt lat="45.11328" lon="0.65276">
        <ele>165.4</ele>
        <time>2025-05-25T07:07:15Z</time>
      </trkpt>
      <trkpt lat="45.11329" lon="0.65278">
        <ele>165.6</ele>
        <time>2025-05-25T07:07:16Z</time>
      </trkpt>
      <trkpt lat="45.11329" lon="0.6528">
        <ele>165.8</ele>
        <time>2025-05-25T07:07:17Z</time>
      </trkpt>
      <trkpt lat="45.1133" lon="0.65282">
        <ele>166</ele>
        <time>2025-05-25T07:07:18Z</time>
      </trkpt>
      <trkpt lat="45.11331" lon="0.65285">
        <ele>166.2</ele>
        <time>2025-05-25T07:07:19Z</time>
      </trkpt>
      <trkpt lat="45.11332" lon="0.65287">
        <ele>166.6</ele>
        <time>2025-05-25T07:07:20Z</time>
      </trkpt>
      <trkpt lat="45.11333" lon="0.65289">
        <ele>166.8</ele>
        <time>2025-05-25T07:07:21Z</time>
      </trkpt>
      <trkpt lat="45.11334" lon="0.65291">
        <ele>166.8</ele>
        <time>2025-05-25T07:07:22Z</time>
      </trkpt>
      <trkpt lat="45.11334" lon="0.65293">
        <ele>167.2</ele>
        <time>2025-05-25T07:07:23Z</time>
      </trkpt>
      <trkpt lat="45.11336" lon="0.65296">
        <ele>167.4</ele>
        <time>2025-05-25T07:07:24Z</time>
      </trkpt>
      <trkpt lat="45.11337" lon="0.65298">
        <ele>167.6</ele>
        <time>2025-05-25T07:07:25Z</time>
      </trkpt>
      <trkpt lat="45.11337" lon="0.653">
        <ele>167.8</ele>
        <time>2025-05-25T07:07:26Z</time>
      </trkpt>
      <trkpt lat="45.11338" lon="0.65302">
        <ele>168</ele>
        <time>2025-05-25T07:07:27Z</time>
      </trkpt>
      <trkpt lat="45.11339" lon="0.65304">
        <ele>168.4</ele>
        <time>2025-05-25T07:07:28Z</time>
      </trkpt>
      <trkpt lat="45.1134" lon="0.65306">
        <ele>168.6</ele>
        <time>2025-05-25T07:07:29Z</time>
      </trkpt>
      <trkpt lat="45.1134" lon="0.65308">
        <ele>168.8</ele>
        <time>2025-05-25T07:07:30Z</time>
      </trkpt>
      <trkpt lat="45.11341" lon="0.6531">
        <ele>169</ele>
        <time>2025-05-25T07:07:31Z</time>
      </trkpt>
      <trkpt lat="45.11342" lon="0.65312">
        <ele>169.2</ele>
        <time>2025-05-25T07:07:32Z</time>
      </trkpt>
      <trkpt lat="45.11343" lon="0.65314">
        <ele>169.4</ele>
        <time>2025-05-25T07:07:33Z</time>
      </trkpt>
      <trkpt lat="45.11343" lon="0.65316">
        <ele>169.8</ele>
        <time>2025-05-25T07:07:34Z</time>
      </trkpt>
      <trkpt lat="45.11344" lon="0.65318">
        <ele>170</ele>
        <time>2025-05-25T07:07:35Z</time>
      </trkpt>
      <trkpt lat="45.11345" lon="0.65321">
        <ele>170.2</ele>
        <time>2025-05-25T07:07:36Z</time>
      </trkpt>
      <trkpt lat="45.11345" lon="0.65323">
        <ele>170.4</ele>
        <time>2025-05-25T07:07:37Z</time>
      </trkpt>
      <trkpt lat="45.11345" lon="0.65325">
        <ele>170.4</ele>
        <time>2025-05-25T07:07:38Z</time>
      </trkpt>
      <trkpt lat="45.11346" lon="0.65327">
        <ele>170.6</ele>
        <time>2025-05-25T07:07:39Z</time>
      </trkpt>
      <trkpt lat="45.11348" lon="0.6533">
        <ele>171</ele>
        <time>2025-05-25T07:07:40Z</time>
      </trkpt>
      <trkpt lat="45.11348" lon="0.65332">
        <ele>171.2</ele>
        <time>2025-05-25T07:07:41Z</time>
      </trkpt>
      <trkpt lat="45.11349" lon="0.65335">
        <ele>171.4</ele>
        <time>2025-05-25T07:07:42Z</time>
      </trkpt>
      <trkpt lat="45.1135" lon="0.65338">
        <ele>171.6</ele>
        <time>2025-05-25T07:07:43Z</time>
      </trkpt>
      <trkpt lat="45.1135" lon="0.6534">
        <ele>171.8</ele>
        <time>2025-05-25T07:07:44Z</time>
      </trkpt>
      <trkpt lat="45.11351" lon="0.65342">
        <ele>172</ele>
        <time>2025-05-25T07:07:45Z</time>
      </trkpt>
      <trkpt lat="45.11352" lon="0.65344">
        <ele>172.2</ele>
        <time>2025-05-25T07:07:46Z</time>
      </trkpt>
      <trkpt lat="45.11353" lon="0.65346">
        <ele>172.4</ele>
        <time>2025-05-25T07:07:47Z</time>
      </trkpt>
      <trkpt lat="45.11354" lon="0.65348">
        <ele>172.6</ele>
        <time>2025-05-25T07:07:48Z</time>
      </trkpt>
      <trkpt lat="45.11354" lon="0.6535">
        <ele>172.8</ele>
        <time>2025-05-25T07:07:49Z</time>
      </trkpt>
      <trkpt lat="45.11355" lon="0.65352">
        <ele>173</ele>
        <time>2025-05-25T07:07:50Z</time>
      </trkpt>
      <trkpt lat="45.11356" lon="0.65354">
        <ele>173.4</ele>
        <time>2025-05-25T07:07:51Z</time>
      </trkpt>
      <trkpt lat="45.11358" lon="0.65356">
        <ele>173.6</ele>
        <time>2025-05-25T07:07:52Z</time>
      </trkpt>
      <trkpt lat="45.11359" lon="0.65357">
        <ele>173.8</ele>
        <time>2025-05-25T07:07:53Z</time>
      </trkpt>
      <trkpt lat="45.1136" lon="0.65359">
        <ele>174</ele>
        <time>2025-05-25T07:07:54Z</time>
      </trkpt>
      <trkpt lat="45.11361" lon="0.65361">
        <ele>174.2</ele>
        <time>2025-05-25T07:07:55Z</time>
      </trkpt>
      <trkpt lat="45.11362" lon="0.65362">
        <ele>174.4</ele>
        <time>2025-05-25T07:07:56Z</time>
      </trkpt>
      <trkpt lat="45.11363" lon="0.65364">
        <ele>174.6</ele>
        <time>2025-05-25T07:07:57Z</time>
      </trkpt>
      <trkpt lat="45.11364" lon="0.65365">
        <ele>174.8</ele>
        <time>2025-05-25T07:07:58Z</time>
      </trkpt>
      <trkpt lat="45.11365" lon="0.65367">
        <ele>175</ele>
        <time>2025-05-25T07:07:59Z</time>
      </trkpt>
      <trkpt lat="45.11366" lon="0.65369">
        <ele>175.2</ele>
        <time>2025-05-25T07:08:00Z</time>
      </trkpt>
      <trkpt lat="45.11367" lon="0.65371">
        <ele>175.6</ele>
        <time>2025-05-25T07:08:01Z</time>
      </trkpt>
      <trkpt lat="45.11368" lon="0.65373">
        <ele>175.8</ele>
        <time>2025-05-25T07:08:02Z</time>
      </trkpt>
      <trkpt lat="45.11369" lon="0.65375">
        <ele>176</ele>
        <time>2025-05-25T07:08:03Z</time>
      </trkpt>
      <trkpt lat="45.1137" lon="0.65376">
        <ele>176.4</ele>
        <time>2025-05-25T07:08:04Z</time>
      </trkpt>
      <trkpt lat="45.11371" lon="0.65377">
        <ele>176.6</ele>
        <time>2025-05-25T07:08:05Z</time>
      </trkpt>
      <trkpt lat="45.11372" lon="0.65379">
        <ele>176.8</ele>
        <time>2025-05-25T07:08:06Z</time>
      </trkpt>
      <trkpt lat="45.11372" lon="0.65381">
        <ele>177</ele>
        <time>2025-05-25T07:08:07Z</time>
      </trkpt>
      <trkpt lat="45.11374" lon="0.65383">
        <ele>177.2</ele>
        <time>2025-05-25T07:08:08Z</time>
      </trkpt>
      <trkpt lat="45.11374" lon="0.65385">
        <ele>177.4</ele>
        <time>2025-05-25T07:08:09Z</time>
      </trkpt>
      <trkpt lat="45.11375" lon="0.65387">
        <ele>177.6</ele>
        <time>2025-05-25T07:08:10Z</time>
      </trkpt>
      <trkpt lat="45.11376" lon="0.65388">
        <ele>177.8</ele>
        <time>2025-05-25T07:08:11Z</time>
      </trkpt>
      <trkpt lat="45.11376" lon="0.6539">
        <ele>178</ele>
        <time>2025-05-25T07:08:12Z</time>
      </trkpt>
      <trkpt lat="45.11377" lon="0.65392">
        <ele>178.2</ele>
        <time>2025-05-25T07:08:13Z</time>
      </trkpt>
      <trkpt lat="45.11378" lon="0.65393">
        <ele>178.4</ele>
        <time>2025-05-25T07:08:14Z</time>
      </trkpt>
      <trkpt lat="45.11379" lon="0.65395">
        <ele>178.6</ele>
        <time>2025-05-25T07:08:15Z</time>
      </trkpt>
      <trkpt lat="45.1138" lon="0.65396">
        <ele>178.8</ele>
        <time>2025-05-25T07:08:16Z</time>
      </trkpt>
      <trkpt lat="45.11381" lon="0.65398">
        <ele>179</ele>
        <time>2025-05-25T07:08:17Z</time>
      </trkpt>
      <trkpt lat="45.11382" lon="0.654">
        <ele>179.2</ele>
        <time>2025-05-25T07:08:18Z</time>
      </trkpt>
      <trkpt lat="45.11384" lon="0.65402">
        <ele>179.4</ele>
        <time>2025-05-25T07:08:19Z</time>
      </trkpt>
      <trkpt lat="45.11385" lon="0.65403">
        <ele>179.6</ele>
        <time>2025-05-25T07:08:20Z</time>
      </trkpt>
      <trkpt lat="45.11386" lon="0.65405">
        <ele>179.8</ele>
        <time>2025-05-25T07:08:21Z</time>
      </trkpt>
      <trkpt lat="45.11387" lon="0.65407">
        <ele>180</ele>
        <time>2025-05-25T07:08:22Z</time>
      </trkpt>
      <trkpt lat="45.11387" lon="0.65409">
        <ele>180.2</ele>
        <time>2025-05-25T07:08:23Z</time>
      </trkpt>
      <trkpt lat="45.11388" lon="0.65411">
        <ele>180.6</ele>
        <time>2025-05-25T07:08:24Z</time>
      </trkpt>
      <trkpt lat="45.11389" lon="0.65413">
        <ele>180.8</ele>
        <time>2025-05-25T07:08:25Z</time>
      </trkpt>
      <trkpt lat="45.11391" lon="0.65415">
        <ele>181</ele>
        <time>2025-05-25T07:08:26Z</time>
      </trkpt>
      <trkpt lat="45.11391" lon="0.65417">
        <ele>181.2</ele>
        <time>2025-05-25T07:08:27Z</time>
      </trkpt>
      <trkpt lat="45.11393" lon="0.6542">
        <ele>181.4</ele>
        <time>2025-05-25T07:08:28Z</time>
      </trkpt>
      <trkpt lat="45.11393" lon="0.65422">
        <ele>181.6</ele>
        <time>2025-05-25T07:08:29Z</time>
      </trkpt>
      <trkpt lat="45.11394" lon="0.65424">
        <ele>181.8</ele>
        <time>2025-05-25T07:08:30Z</time>
      </trkpt>
      <trkpt lat="45.11395" lon="0.65426">
        <ele>182</ele>
        <time>2025-05-25T07:08:31Z</time>
      </trkpt>
      <trkpt lat="45.11396" lon="0.65428">
        <ele>182.2</ele>
        <time>2025-05-25T07:08:32Z</time>
      </trkpt>
      <trkpt lat="45.11396" lon="0.6543">
        <ele>182.4</ele>
        <time>2025-05-25T07:08:33Z</time>
      </trkpt>
      <trkpt lat="45.11397" lon="0.65432">
        <ele>182.6</ele>
        <time>2025-05-25T07:08:34Z</time>
      </trkpt>
      <trkpt lat="45.11398" lon="0.65434">
        <ele>182.8</ele>
        <time>2025-05-25T07:08:35Z</time>
      </trkpt>
      <trkpt lat="45.11399" lon="0.65437">
        <ele>183.2</ele>
        <time>2025-05-25T07:08:36Z</time>
      </trkpt>
      <trkpt lat="45.114" lon="0.65438">
        <ele>183.4</ele>
        <time>2025-05-25T07:08:37Z</time>
      </trkpt>
      <trkpt lat="45.114" lon="0.6544">
        <ele>183.6</ele>
        <time>2025-05-25T07:08:38Z</time>
      </trkpt>
      <trkpt lat="45.11401" lon="0.65441">
        <ele>183.8</ele>
        <time>2025-05-25T07:08:39Z</time>
      </trkpt>
      <trkpt lat="45.11402" lon="0.65443">
        <ele>184</ele>
        <time>2025-05-25T07:08:40Z</time>
      </trkpt>
      <trkpt lat="45.11403" lon="0.65444">
        <ele>184.4</ele>
        <time>2025-05-25T07:08:41Z</time>
      </trkpt>
      <trkpt lat="45.11403" lon="0.65447">
        <ele>184.6</ele>
        <time>2025-05-25T07:08:42Z</time>
      </trkpt>
      <trkpt lat="45.11404" lon="0.65449">
        <ele>184.8</ele>
        <time>2025-05-25T07:08:43Z</time>
      </trkpt>
      <trkpt lat="45.11404" lon="0.65451">
        <ele>185</ele>
        <time>2025-05-25T07:08:44Z</time>
      </trkpt>
      <trkpt lat="45.11405" lon="0.65452">
        <ele>185.2</ele>
        <time>2025-05-25T07:08:45Z</time>
      </trkpt>
      <trkpt lat="45.11406" lon="0.65453">
        <ele>185.4</ele>
        <time>2025-05-25T07:08:46Z</time>
      </trkpt>
      <trkpt lat="45.11407" lon="0.65455">
        <ele>185.6</ele>
        <time>2025-05-25T07:08:47Z</time>
      </trkpt>
      <trkpt lat="45.11408" lon="0.65456">
        <ele>186</ele>
        <time>2025-05-25T07:08:48Z</time>
      </trkpt>
      <trkpt lat="45.11409" lon="0.65457">
        <ele>186.2</ele>
        <time>2025-05-25T07:08:49Z</time>
      </trkpt>
      <trkpt lat="45.1141" lon="0.65459">
        <ele>186.4</ele>
        <time>2025-05-25T07:08:50Z</time>
      </trkpt>
      <trkpt lat="45.11411" lon="0.6546">
        <ele>186.6</ele>
        <time>2025-05-25T07:08:51Z</time>
      </trkpt>
      <trkpt lat="45.11412" lon="0.65461">
        <ele>187</ele>
        <time>2025-05-25T07:08:52Z</time>
      </trkpt>
      <trkpt lat="45.11413" lon="0.65463">
        <ele>187.2</ele>
        <time>2025-05-25T07:08:53Z</time>
      </trkpt>
      <trkpt lat="45.11414" lon="0.65464">
        <ele>187.4</ele>
        <time>2025-05-25T07:08:54Z</time>
      </trkpt>
      <trkpt lat="45.11415" lon="0.65465">
        <ele>187.8</ele>
        <time>2025-05-25T07:08:55Z</time>
      </trkpt>
      <trkpt lat="45.11417" lon="0.65466">
        <ele>188</ele>
        <time>2025-05-25T07:08:56Z</time>
      </trkpt>
      <trkpt lat="45.11418" lon="0.65467">
        <ele>188.2</ele>
        <time>2025-05-25T07:08:57Z</time>
      </trkpt>
      <trkpt lat="45.11419" lon="0.65469">
        <ele>188.6</ele>
        <time>2025-05-25T07:08:58Z</time>
      </trkpt>
      <trkpt lat="45.11421" lon="0.6547">
        <ele>188.8</ele>
        <time>2025-05-25T07:08:59Z</time>
      </trkpt>
      <trkpt lat="45.11422" lon="0.65471">
        <ele>189</ele>
        <time>2025-05-25T07:09:00Z</time>
      </trkpt>
      <trkpt lat="45.11423" lon="0.65472">
        <ele>189.2</ele>
        <time>2025-05-25T07:09:01Z</time>
      </trkpt>
      <trkpt lat="45.11425" lon="0.65473">
        <ele>189.4</ele>
        <time>2025-05-25T07:09:02Z</time>
      </trkpt>
      <trkpt lat="45.11426" lon="0.65474">
        <ele>189.8</ele>
        <time>2025-05-25T07:09:03Z</time>
      </trkpt>
      <trkpt lat="45.11427" lon="0.65475">
        <ele>190</ele>
        <time>2025-05-25T07:09:04Z</time>
      </trkpt>
      <trkpt lat="45.11428" lon="0.65476">
        <ele>190.2</ele>
        <time>2025-05-25T07:09:05Z</time>
      </trkpt>
      <trkpt lat="45.11429" lon="0.65477">
        <ele>190.4</ele>
        <time>2025-05-25T07:09:06Z</time>
      </trkpt>
      <trkpt lat="45.1143" lon="0.65477">
        <ele>190.6</ele>
        <time>2025-05-25T07:09:07Z</time>
      </trkpt>
      <trkpt lat="45.11432" lon="0.65478">
        <ele>190.8</ele>
        <time>2025-05-25T07:09:08Z</time>
      </trkpt>
      <trkpt lat="45.11433" lon="0.65479">
        <ele>191.2</ele>
        <time>2025-05-25T07:09:09Z</time>
      </trkpt>
      <trkpt lat="45.11434" lon="0.6548">
        <ele>191.4</ele>
        <time>2025-05-25T07:09:10Z</time>
      </trkpt>
      <trkpt lat="45.11436" lon="0.65481">
        <ele>191.6</ele>
        <time>2025-05-25T07:09:11Z</time>
      </trkpt>
      <trkpt lat="45.11437" lon="0.65482">
        <ele>191.8</ele>
        <time>2025-05-25T07:09:12Z</time>
      </trkpt>
      <trkpt lat="45.11438" lon="0.65483">
        <ele>192</ele>
        <time>2025-05-25T07:09:13Z</time>
      </trkpt>
      <trkpt lat="45.1144" lon="0.65484">
        <ele>192.2</ele>
        <time>2025-05-25T07:09:14Z</time>
      </trkpt>
      <trkpt lat="45.11441" lon="0.65485">
        <ele>192.4</ele>
        <time>2025-05-25T07:09:15Z</time>
      </trkpt>
      <trkpt lat="45.11443" lon="0.65486">
        <ele>192.6</ele>
        <time>2025-05-25T07:09:16Z</time>
      </trkpt>
      <trkpt lat="45.11445" lon="0.65487">
        <ele>192.6</ele>
        <time>2025-05-25T07:09:17Z</time>
      </trkpt>
      <trkpt lat="45.11447" lon="0.65488">
        <ele>192.8</ele>
        <time>2025-05-25T07:09:18Z</time>
      </trkpt>
      <trkpt lat="45.11449" lon="0.6549">
        <ele>193</ele>
        <time>2025-05-25T07:09:19Z</time>
      </trkpt>
      <trkpt lat="45.11451" lon="0.65491">
        <ele>193.2</ele>
        <time>2025-05-25T07:09:20Z</time>
      </trkpt>
      <trkpt lat="45.11454" lon="0.65492">
        <ele>193.4</ele>
        <time>2025-05-25T07:09:21Z</time>
      </trkpt>
      <trkpt lat="45.11456" lon="0.65493">
        <ele>193.6</ele>
        <time>2025-05-25T07:09:22Z</time>
      </trkpt>
      <trkpt lat="45.11458" lon="0.65493">
        <ele>193.6</ele>
        <time>2025-05-25T07:09:23Z</time>
      </trkpt>
      <trkpt lat="45.1146" lon="0.65495">
        <ele>193.8</ele>
        <time>2025-05-25T07:09:24Z</time>
      </trkpt>
      <trkpt lat="45.11462" lon="0.65495">
        <ele>193.8</ele>
        <time>2025-05-25T07:09:25Z</time>
      </trkpt>
      <trkpt lat="45.11464" lon="0.65496">
        <ele>194</ele>
        <time>2025-05-25T07:09:26Z</time>
      </trkpt>
      <trkpt lat="45.11466" lon="0.65497">
        <ele>194</ele>
        <time>2025-05-25T07:09:27Z</time>
      </trkpt>
      <trkpt lat="45.11468" lon="0.65498">
        <ele>194.2</ele>
        <time>2025-05-25T07:09:28Z</time>
      </trkpt>
      <trkpt lat="45.11471" lon="0.65499">
        <ele>194.4</ele>
        <time>2025-05-25T07:09:29Z</time>
      </trkpt>
      <trkpt lat="45.11472" lon="0.65499">
        <ele>194.6</ele>
        <time>2025-05-25T07:09:30Z</time>
      </trkpt>
      <trkpt lat="45.11474" lon="0.655">
        <ele>194.8</ele>
        <time>2025-05-25T07:09:31Z</time>
      </trkpt>
      <trkpt lat="45.11477" lon="0.65501">
        <ele>194.8</ele>
        <time>2025-05-25T07:09:32Z</time>
      </trkpt>
      <trkpt lat="45.11479" lon="0.65502">
        <ele>194.8</ele>
        <time>2025-05-25T07:09:33Z</time>
      </trkpt>
      <trkpt lat="45.11483" lon="0.65503">
        <ele>194.8</ele>
        <time>2025-05-25T07:09:34Z</time>
      </trkpt>
      <trkpt lat="45.11487" lon="0.65505">
        <ele>194.6</ele>
        <time>2025-05-25T07:09:35Z</time>
      </trkpt>
      <trkpt lat="45.11492" lon="0.65506">
        <ele>194.2</ele>
        <time>2025-05-25T07:09:36Z</time>
      </trkpt>
      <trkpt lat="45.11498" lon="0.65509">
        <ele>193.6</ele>
        <time>2025-05-25T07:09:37Z</time>
      </trkpt>
      <trkpt lat="45.11503" lon="0.65512">
        <ele>193</ele>
        <time>2025-05-25T07:09:38Z</time>
      </trkpt>
      <trkpt lat="45.11509" lon="0.65515">
        <ele>192.4</ele>
        <time>2025-05-25T07:09:39Z</time>
      </trkpt>
      <trkpt lat="45.11513" lon="0.65519">
        <ele>192</ele>
        <time>2025-05-25T07:09:40Z</time>
      </trkpt>
      <trkpt lat="45.1152" lon="0.65522">
        <ele>191.8</ele>
        <time>2025-05-25T07:09:41Z</time>
      </trkpt>
      <trkpt lat="45.11524" lon="0.65524">
        <ele>191.6</ele>
        <time>2025-05-25T07:09:42Z</time>
      </trkpt>
      <trkpt lat="45.11529" lon="0.65526">
        <ele>191.6</ele>
        <time>2025-05-25T07:09:43Z</time>
      </trkpt>
      <trkpt lat="45.11534" lon="0.65527">
        <ele>191.6</ele>
        <time>2025-05-25T07:09:44Z</time>
      </trkpt>
      <trkpt lat="45.11538" lon="0.65529">
        <ele>191.6</ele>
        <time>2025-05-25T07:09:45Z</time>
      </trkpt>
      <trkpt lat="45.11542" lon="0.65532">
        <ele>191.8</ele>
        <time>2025-05-25T07:09:46Z</time>
      </trkpt>
      <trkpt lat="45.11545" lon="0.65535">
        <ele>192.2</ele>
        <time>2025-05-25T07:09:47Z</time>
      </trkpt>
      <trkpt lat="45.11549" lon="0.65537">
        <ele>192.4</ele>
        <time>2025-05-25T07:09:48Z</time>
      </trkpt>
      <trkpt lat="45.11552" lon="0.65539">
        <ele>192.8</ele>
        <time>2025-05-25T07:09:49Z</time>
      </trkpt>
      <trkpt lat="45.11556" lon="0.65541">
        <ele>192.8</ele>
        <time>2025-05-25T07:09:50Z</time>
      </trkpt>
      <trkpt lat="45.11559" lon="0.65543">
        <ele>193</ele>
        <time>2025-05-25T07:09:51Z</time>
      </trkpt>
      <trkpt lat="45.11562" lon="0.65545">
        <ele>193.2</ele>
        <time>2025-05-25T07:09:52Z</time>
      </trkpt>
      <trkpt lat="45.11565" lon="0.65547">
        <ele>193.2</ele>
        <time>2025-05-25T07:09:53Z</time>
      </trkpt>
      <trkpt lat="45.11568" lon="0.65548">
        <ele>193.4</ele>
        <time>2025-05-25T07:09:54Z</time>
      </trkpt>
      <trkpt lat="45.11571" lon="0.6555">
        <ele>193.8</ele>
        <time>2025-05-25T07:09:55Z</time>
      </trkpt>
      <trkpt lat="45.11574" lon="0.65552">
        <ele>193.8</ele>
        <time>2025-05-25T07:09:56Z</time>
      </trkpt>
      <trkpt lat="45.11578" lon="0.65554">
        <ele>194.2</ele>
        <time>2025-05-25T07:09:57Z</time>
      </trkpt>
      <trkpt lat="45.11581" lon="0.65557">
        <ele>194.4</ele>
        <time>2025-05-25T07:09:58Z</time>
      </trkpt>
      <trkpt lat="45.11583" lon="0.65559">
        <ele>194.6</ele>
        <time>2025-05-25T07:09:59Z</time>
      </trkpt>
      <trkpt lat="45.11586" lon="0.65562">
        <ele>195</ele>
        <time>2025-05-25T07:10:00Z</time>
      </trkpt>
      <trkpt lat="45.11589" lon="0.65564">
        <ele>195.2</ele>
        <time>2025-05-25T07:10:01Z</time>
      </trkpt>
      <trkpt lat="45.11591" lon="0.65566">
        <ele>195.6</ele>
        <time>2025-05-25T07:10:02Z</time>
      </trkpt>
      <trkpt lat="45.11593" lon="0.65568">
        <ele>195.8</ele>
        <time>2025-05-25T07:10:03Z</time>
      </trkpt>
      <trkpt lat="45.11595" lon="0.6557">
        <ele>196.2</ele>
        <time>2025-05-25T07:10:04Z</time>
      </trkpt>
      <trkpt lat="45.11596" lon="0.65571">
        <ele>196.4</ele>
        <time>2025-05-25T07:10:05Z</time>
      </trkpt>
      <trkpt lat="45.11598" lon="0.65573">
        <ele>196.8</ele>
        <time>2025-05-25T07:10:06Z</time>
      </trkpt>
      <trkpt lat="45.116" lon="0.65574">
        <ele>197</ele>
        <time>2025-05-25T07:10:07Z</time>
      </trkpt>
      <trkpt lat="45.11601" lon="0.65575">
        <ele>197.4</ele>
        <time>2025-05-25T07:10:08Z</time>
      </trkpt>
      <trkpt lat="45.11603" lon="0.65576">
        <ele>197.6</ele>
        <time>2025-05-25T07:10:09Z</time>
      </trkpt>
      <trkpt lat="45.11605" lon="0.65577">
        <ele>198</ele>
        <time>2025-05-25T07:10:10Z</time>
      </trkpt>
      <trkpt lat="45.11606" lon="0.65578">
        <ele>198.2</ele>
        <time>2025-05-25T07:10:11Z</time>
      </trkpt>
      <trkpt lat="45.11608" lon="0.65579">
        <ele>198.4</ele>
        <time>2025-05-25T07:10:12Z</time>
      </trkpt>
      <trkpt lat="45.11609" lon="0.65579">
        <ele>198.8</ele>
        <time>2025-05-25T07:10:13Z</time>
      </trkpt>
      <trkpt lat="45.11611" lon="0.6558">
        <ele>199</ele>
        <time>2025-05-25T07:10:14Z</time>
      </trkpt>
      <trkpt lat="45.11612" lon="0.65581">
        <ele>199.4</ele>
        <time>2025-05-25T07:10:15Z</time>
      </trkpt>
      <trkpt lat="45.11614" lon="0.65582">
        <ele>199.8</ele>
        <time>2025-05-25T07:10:16Z</time>
      </trkpt>
      <trkpt lat="45.11616" lon="0.65584">
        <ele>200</ele>
        <time>2025-05-25T07:10:17Z</time>
      </trkpt>
      <trkpt lat="45.11617" lon="0.65585">
        <ele>200.4</ele>
        <time>2025-05-25T07:10:18Z</time>
      </trkpt>
      <trkpt lat="45.11618" lon="0.65586">
        <ele>200.6</ele>
        <time>2025-05-25T07:10:19Z</time>
      </trkpt>
      <trkpt lat="45.11619" lon="0.65587">
        <ele>200.8</ele>
        <time>2025-05-25T07:10:20Z</time>
      </trkpt>
      <trkpt lat="45.1162" lon="0.65588">
        <ele>201</ele>
        <time>2025-05-25T07:10:21Z</time>
      </trkpt>
      <trkpt lat="45.11621" lon="0.65589">
        <ele>201.4</ele>
        <time>2025-05-25T07:10:22Z</time>
      </trkpt>
      <trkpt lat="45.11622" lon="0.65589">
        <ele>201.6</ele>
        <time>2025-05-25T07:10:23Z</time>
      </trkpt>
      <trkpt lat="45.11623" lon="0.6559">
        <ele>201.8</ele>
        <time>2025-05-25T07:10:24Z</time>
      </trkpt>
      <trkpt lat="45.11624" lon="0.6559">
        <ele>202</ele>
        <time>2025-05-25T07:10:25Z</time>
      </trkpt>
      <trkpt lat="45.11626" lon="0.65591">
        <ele>202.4</ele>
        <time>2025-05-25T07:10:26Z</time>
      </trkpt>
      <trkpt lat="45.11627" lon="0.65592">
        <ele>202.8</ele>
        <time>2025-05-25T07:10:27Z</time>
      </trkpt>
      <trkpt lat="45.11628" lon="0.65593">
        <ele>203</ele>
        <time>2025-05-25T07:10:28Z</time>
      </trkpt>
      <trkpt lat="45.11629" lon="0.65594">
        <ele>203.2</ele>
        <time>2025-05-25T07:10:29Z</time>
      </trkpt>
      <trkpt lat="45.11631" lon="0.65595">
        <ele>203.6</ele>
        <time>2025-05-25T07:10:30Z</time>
      </trkpt>
      <trkpt lat="45.11632" lon="0.65596">
        <ele>203.8</ele>
        <time>2025-05-25T07:10:31Z</time>
      </trkpt>
      <trkpt lat="45.11633" lon="0.65597">
        <ele>204</ele>
        <time>2025-05-25T07:10:32Z</time>
      </trkpt>
      <trkpt lat="45.11635" lon="0.65598">
        <ele>204.2</ele>
        <time>2025-05-25T07:10:33Z</time>
      </trkpt>
      <trkpt lat="45.11636" lon="0.65599">
        <ele>204.6</ele>
        <time>2025-05-25T07:10:34Z</time>
      </trkpt>
      <trkpt lat="45.11637" lon="0.656">
        <ele>204.8</ele>
        <time>2025-05-25T07:10:35Z</time>
      </trkpt>
      <trkpt lat="45.11638" lon="0.656">
        <ele>205</ele>
        <time>2025-05-25T07:10:36Z</time>
      </trkpt>
      <trkpt lat="45.11639" lon="0.65601">
        <ele>205.2</ele>
        <time>2025-05-25T07:10:37Z</time>
      </trkpt>
      <trkpt lat="45.1164" lon="0.65601">
        <ele>205.4</ele>
        <time>2025-05-25T07:10:38Z</time>
      </trkpt>
      <trkpt lat="45.11641" lon="0.65602">
        <ele>205.6</ele>
        <time>2025-05-25T07:10:39Z</time>
      </trkpt>
      <trkpt lat="45.11643" lon="0.65603">
        <ele>205.8</ele>
        <time>2025-05-25T07:10:40Z</time>
      </trkpt>
      <trkpt lat="45.11645" lon="0.65604">
        <ele>206</ele>
        <time>2025-05-25T07:10:41Z</time>
      </trkpt>
      <trkpt lat="45.11646" lon="0.65605">
        <ele>206.2</ele>
        <time>2025-05-25T07:10:42Z</time>
      </trkpt>
      <trkpt lat="45.11648" lon="0.65606">
        <ele>206.4</ele>
        <time>2025-05-25T07:10:43Z</time>
      </trkpt>
      <trkpt lat="45.11649" lon="0.65607">
        <ele>206.8</ele>
        <time>2025-05-25T07:10:44Z</time>
      </trkpt>
      <trkpt lat="45.1165" lon="0.65608">
        <ele>207</ele>
        <time>2025-05-25T07:10:45Z</time>
      </trkpt>
      <trkpt lat="45.11651" lon="0.65608">
        <ele>207.2</ele>
        <time>2025-05-25T07:10:46Z</time>
      </trkpt>
      <trkpt lat="45.11652" lon="0.65609">
        <ele>207.4</ele>
        <time>2025-05-25T07:10:47Z</time>
      </trkpt>
      <trkpt lat="45.11653" lon="0.65611">
        <ele>207.6</ele>
        <time>2025-05-25T07:10:48Z</time>
      </trkpt>
      <trkpt lat="45.11654" lon="0.65611">
        <ele>208</ele>
        <time>2025-05-25T07:10:49Z</time>
      </trkpt>
      <trkpt lat="45.11655" lon="0.65612">
        <ele>208.2</ele>
        <time>2025-05-25T07:10:50Z</time>
      </trkpt>
      <trkpt lat="45.11657" lon="0.65612">
        <ele>208.4</ele>
        <time>2025-05-25T07:10:51Z</time>
      </trkpt>
      <trkpt lat="45.11659" lon="0.65613">
        <ele>208.6</ele>
        <time>2025-05-25T07:10:52Z</time>
      </trkpt>
      <trkpt lat="45.1166" lon="0.65614">
        <ele>208.8</ele>
        <time>2025-05-25T07:10:53Z</time>
      </trkpt>
      <trkpt lat="45.11662" lon="0.65614">
        <ele>209</ele>
        <time>2025-05-25T07:10:54Z</time>
      </trkpt>
      <trkpt lat="45.11663" lon="0.65615">
        <ele>209.2</ele>
        <time>2025-05-25T07:10:55Z</time>
      </trkpt>
      <trkpt lat="45.11664" lon="0.65616">
        <ele>209.6</ele>
        <time>2025-05-25T07:10:56Z</time>
      </trkpt>
      <trkpt lat="45.11666" lon="0.65616">
        <ele>209.8</ele>
        <time>2025-05-25T07:10:57Z</time>
      </trkpt>
      <trkpt lat="45.11667" lon="0.65617">
        <ele>210</ele>
        <time>2025-05-25T07:10:58Z</time>
      </trkpt>
      <trkpt lat="45.11668" lon="0.65618">
        <ele>210.2</ele>
        <time>2025-05-25T07:10:59Z</time>
      </trkpt>
      <trkpt lat="45.1167" lon="0.65618">
        <ele>210.4</ele>
        <time>2025-05-25T07:11:00Z</time>
      </trkpt>
      <trkpt lat="45.11671" lon="0.65618">
        <ele>210.6</ele>
        <time>2025-05-25T07:11:01Z</time>
      </trkpt>
      <trkpt lat="45.11673" lon="0.65618">
        <ele>210.8</ele>
        <time>2025-05-25T07:11:02Z</time>
      </trkpt>
      <trkpt lat="45.11674" lon="0.65619">
        <ele>210.8</ele>
        <time>2025-05-25T07:11:03Z</time>
      </trkpt>
      <trkpt lat="45.11675" lon="0.65618">
        <ele>211.2</ele>
        <time>2025-05-25T07:11:04Z</time>
      </trkpt>
      <trkpt lat="45.11676" lon="0.65619">
        <ele>211.4</ele>
        <time>2025-05-25T07:11:05Z</time>
      </trkpt>
      <trkpt lat="45.11677" lon="0.65618">
        <ele>211.6</ele>
        <time>2025-05-25T07:11:06Z</time>
      </trkpt>
      <trkpt lat="45.11679" lon="0.65618">
        <ele>212</ele>
        <time>2025-05-25T07:11:07Z</time>
      </trkpt>
      <trkpt lat="45.1168" lon="0.65618">
        <ele>212.2</ele>
        <time>2025-05-25T07:11:08Z</time>
      </trkpt>
      <trkpt lat="45.11682" lon="0.65618">
        <ele>212.4</ele>
        <time>2025-05-25T07:11:09Z</time>
      </trkpt>
      <trkpt lat="45.11683" lon="0.65618">
        <ele>212.8</ele>
        <time>2025-05-25T07:11:10Z</time>
      </trkpt>
      <trkpt lat="45.11684" lon="0.65618">
        <ele>213</ele>
        <time>2025-05-25T07:11:11Z</time>
      </trkpt>
      <trkpt lat="45.11686" lon="0.65618">
        <ele>213.2</ele>
        <time>2025-05-25T07:11:12Z</time>
      </trkpt>
      <trkpt lat="45.11687" lon="0.65618">
        <ele>213.4</ele>
        <time>2025-05-25T07:11:13Z</time>
      </trkpt>
      <trkpt lat="45.11688" lon="0.65617">
        <ele>213.6</ele>
        <time>2025-05-25T07:11:14Z</time>
      </trkpt>
      <trkpt lat="45.1169" lon="0.65617">
        <ele>213.8</ele>
        <time>2025-05-25T07:11:15Z</time>
      </trkpt>
      <trkpt lat="45.11691" lon="0.65616">
        <ele>214</ele>
        <time>2025-05-25T07:11:16Z</time>
      </trkpt>
      <trkpt lat="45.11693" lon="0.65616">
        <ele>214.2</ele>
        <time>2025-05-25T07:11:17Z</time>
      </trkpt>
      <trkpt lat="45.11694" lon="0.65615">
        <ele>214.4</ele>
        <time>2025-05-25T07:11:18Z</time>
      </trkpt>
      <trkpt lat="45.11696" lon="0.65616">
        <ele>214.6</ele>
        <time>2025-05-25T07:11:19Z</time>
      </trkpt>
      <trkpt lat="45.11697" lon="0.65616">
        <ele>214.8</ele>
        <time>2025-05-25T07:11:20Z</time>
      </trkpt>
      <trkpt lat="45.11699" lon="0.65616">
        <ele>215</ele>
        <time>2025-05-25T07:11:21Z</time>
      </trkpt>
      <trkpt lat="45.11701" lon="0.65617">
        <ele>215.2</ele>
        <time>2025-05-25T07:11:22Z</time>
      </trkpt>
      <trkpt lat="45.11702" lon="0.65619">
        <ele>215.4</ele>
        <time>2025-05-25T07:11:23Z</time>
      </trkpt>
      <trkpt lat="45.11704" lon="0.65621">
        <ele>215.6</ele>
        <time>2025-05-25T07:11:24Z</time>
      </trkpt>
      <trkpt lat="45.11705" lon="0.65622">
        <ele>215.6</ele>
        <time>2025-05-25T07:11:25Z</time>
      </trkpt>
      <trkpt lat="45.11707" lon="0.65623">
        <ele>215.8</ele>
        <time>2025-05-25T07:11:26Z</time>
      </trkpt>
      <trkpt lat="45.11708" lon="0.65624">
        <ele>216</ele>
        <time>2025-05-25T07:11:27Z</time>
      </trkpt>
      <trkpt lat="45.1171" lon="0.65624">
        <ele>216.2</ele>
        <time>2025-05-25T07:11:28Z</time>
      </trkpt>
      <trkpt lat="45.11712" lon="0.65625">
        <ele>216.4</ele>
        <time>2025-05-25T07:11:29Z</time>
      </trkpt>
      <trkpt lat="45.11714" lon="0.65626">
        <ele>216.4</ele>
        <time>2025-05-25T07:11:30Z</time>
      </trkpt>
      <trkpt lat="45.11716" lon="0.65626">
        <ele>216.6</ele>
        <time>2025-05-25T07:11:31Z</time>
      </trkpt>
      <trkpt lat="45.11718" lon="0.65626">
        <ele>216.8</ele>
        <time>2025-05-25T07:11:32Z</time>
      </trkpt>
      <trkpt lat="45.1172" lon="0.65626">
        <ele>217</ele>
        <time>2025-05-25T07:11:33Z</time>
      </trkpt>
      <trkpt lat="45.11722" lon="0.65626">
        <ele>217</ele>
        <time>2025-05-25T07:11:34Z</time>
      </trkpt>
      <trkpt lat="45.11724" lon="0.65627">
        <ele>217.2</ele>
        <time>2025-05-25T07:11:35Z</time>
      </trkpt>
      <trkpt lat="45.11725" lon="0.65629">
        <ele>217.4</ele>
        <time>2025-05-25T07:11:36Z</time>
      </trkpt>
      <trkpt lat="45.11726" lon="0.65631">
        <ele>217.6</ele>
        <time>2025-05-25T07:11:37Z</time>
      </trkpt>
      <trkpt lat="45.11727" lon="0.65633">
        <ele>217.6</ele>
        <time>2025-05-25T07:11:38Z</time>
      </trkpt>
      <trkpt lat="45.11727" lon="0.65636">
        <ele>217.8</ele>
        <time>2025-05-25T07:11:39Z</time>
      </trkpt>
      <trkpt lat="45.11728" lon="0.65639">
        <ele>217.8</ele>
        <time>2025-05-25T07:11:40Z</time>
      </trkpt>
      <trkpt lat="45.11729" lon="0.65642">
        <ele>217.8</ele>
        <time>2025-05-25T07:11:41Z</time>
      </trkpt>
      <trkpt lat="45.1173" lon="0.65645">
        <ele>217.8</ele>
        <time>2025-05-25T07:11:42Z</time>
      </trkpt>
      <trkpt lat="45.11731" lon="0.65649">
        <ele>217.8</ele>
        <time>2025-05-25T07:11:43Z</time>
      </trkpt>
      <trkpt lat="45.11732" lon="0.65653">
        <ele>217.8</ele>
        <time>2025-05-25T07:11:44Z</time>
      </trkpt>
      <trkpt lat="45.11733" lon="0.65656">
        <ele>217.8</ele>
        <time>2025-05-25T07:11:45Z</time>
      </trkpt>
      <trkpt lat="45.11735" lon="0.65659">
        <ele>218</ele>
        <time>2025-05-25T07:11:46Z</time>
      </trkpt>
      <trkpt lat="45.11736" lon="0.65663">
        <ele>218</ele>
        <time>2025-05-25T07:11:47Z</time>
      </trkpt>
      <trkpt lat="45.11737" lon="0.65666">
        <ele>218</ele>
        <time>2025-05-25T07:11:48Z</time>
      </trkpt>
      <trkpt lat="45.11739" lon="0.6567">
        <ele>218</ele>
        <time>2025-05-25T07:11:49Z</time>
      </trkpt>
      <trkpt lat="45.1174" lon="0.65674">
        <ele>218.2</ele>
        <time>2025-05-25T07:11:50Z</time>
      </trkpt>
      <trkpt lat="45.11742" lon="0.65677">
        <ele>218.2</ele>
        <time>2025-05-25T07:11:51Z</time>
      </trkpt>
      <trkpt lat="45.11743" lon="0.65681">
        <ele>218.4</ele>
        <time>2025-05-25T07:11:52Z</time>
      </trkpt>
      <trkpt lat="45.11744" lon="0.65685">
        <ele>218.4</ele>
        <time>2025-05-25T07:11:53Z</time>
      </trkpt>
      <trkpt lat="45.11745" lon="0.65688">
        <ele>218.6</ele>
        <time>2025-05-25T07:11:54Z</time>
      </trkpt>
      <trkpt lat="45.11747" lon="0.65691">
        <ele>218.6</ele>
        <time>2025-05-25T07:11:55Z</time>
      </trkpt>
      <trkpt lat="45.11748" lon="0.65695">
        <ele>218.8</ele>
        <time>2025-05-25T07:11:56Z</time>
      </trkpt>
      <trkpt lat="45.11749" lon="0.65698">
        <ele>219</ele>
        <time>2025-05-25T07:11:57Z</time>
      </trkpt>
      <trkpt lat="45.11751" lon="0.65701">
        <ele>219.2</ele>
        <time>2025-05-25T07:11:58Z</time>
      </trkpt>
      <trkpt lat="45.11752" lon="0.65704">
        <ele>219.4</ele>
        <time>2025-05-25T07:11:59Z</time>
      </trkpt>
      <trkpt lat="45.11753" lon="0.65707">
        <ele>219.4</ele>
        <time>2025-05-25T07:12:00Z</time>
      </trkpt>
      <trkpt lat="45.11755" lon="0.6571">
        <ele>219.6</ele>
        <time>2025-05-25T07:12:01Z</time>
      </trkpt>
      <trkpt lat="45.11756" lon="0.65713">
        <ele>219.8</ele>
        <time>2025-05-25T07:12:02Z</time>
      </trkpt>
      <trkpt lat="45.11758" lon="0.65716">
        <ele>220</ele>
        <time>2025-05-25T07:12:03Z</time>
      </trkpt>
      <trkpt lat="45.1176" lon="0.65719">
        <ele>220</ele>
        <time>2025-05-25T07:12:04Z</time>
      </trkpt>
      <trkpt lat="45.11761" lon="0.65722">
        <ele>220.2</ele>
        <time>2025-05-25T07:12:05Z</time>
      </trkpt>
      <trkpt lat="45.11763" lon="0.65725">
        <ele>220.2</ele>
        <time>2025-05-25T07:12:06Z</time>
      </trkpt>
      <trkpt lat="45.11765" lon="0.65727">
        <ele>220.4</ele>
        <time>2025-05-25T07:12:07Z</time>
      </trkpt>
      <trkpt lat="45.11767" lon="0.6573">
        <ele>220.6</ele>
        <time>2025-05-25T07:12:08Z</time>
      </trkpt>
      <trkpt lat="45.11768" lon="0.65733">
        <ele>220.8</ele>
        <time>2025-05-25T07:12:09Z</time>
      </trkpt>
      <trkpt lat="45.1177" lon="0.65735">
        <ele>220.8</ele>
        <time>2025-05-25T07:12:10Z</time>
      </trkpt>
      <trkpt lat="45.11772" lon="0.65738">
        <ele>221</ele>
        <time>2025-05-25T07:12:11Z</time>
      </trkpt>
      <trkpt lat="45.11774" lon="0.65741">
        <ele>221.2</ele>
        <time>2025-05-25T07:12:12Z</time>
      </trkpt>
      <trkpt lat="45.11776" lon="0.65744">
        <ele>221.2</ele>
        <time>2025-05-25T07:12:13Z</time>
      </trkpt>
      <trkpt lat="45.11777" lon="0.65748">
        <ele>221.4</ele>
        <time>2025-05-25T07:12:14Z</time>
      </trkpt>
      <trkpt lat="45.11779" lon="0.65751">
        <ele>221.4</ele>
        <time>2025-05-25T07:12:15Z</time>
      </trkpt>
      <trkpt lat="45.11781" lon="0.65754">
        <ele>221.6</ele>
        <time>2025-05-25T07:12:16Z</time>
      </trkpt>
      <trkpt lat="45.11783" lon="0.65758">
        <ele>221.6</ele>
        <time>2025-05-25T07:12:17Z</time>
      </trkpt>
      <trkpt lat="45.11785" lon="0.65761">
        <ele>221.8</ele>
        <time>2025-05-25T07:12:18Z</time>
      </trkpt>
      <trkpt lat="45.11787" lon="0.65764">
        <ele>222</ele>
        <time>2025-05-25T07:12:19Z</time>
      </trkpt>
      <trkpt lat="45.11788" lon="0.65767">
        <ele>222.2</ele>
        <time>2025-05-25T07:12:20Z</time>
      </trkpt>
      <trkpt lat="45.1179" lon="0.6577">
        <ele>222.4</ele>
        <time>2025-05-25T07:12:21Z</time>
      </trkpt>
      <trkpt lat="45.11791" lon="0.65773">
        <ele>222.4</ele>
        <time>2025-05-25T07:12:22Z</time>
      </trkpt>
      <trkpt lat="45.11793" lon="0.65777">
        <ele>222.6</ele>
        <time>2025-05-25T07:12:23Z</time>
      </trkpt>
      <trkpt lat="45.11795" lon="0.6578">
        <ele>222.6</ele>
        <time>2025-05-25T07:12:24Z</time>
      </trkpt>
      <trkpt lat="45.11797" lon="0.65783">
        <ele>222.8</ele>
        <time>2025-05-25T07:12:25Z</time>
      </trkpt>
      <trkpt lat="45.11799" lon="0.65786">
        <ele>222.8</ele>
        <time>2025-05-25T07:12:26Z</time>
      </trkpt>
      <trkpt lat="45.118" lon="0.65789">
        <ele>223</ele>
        <time>2025-05-25T07:12:27Z</time>
      </trkpt>
      <trkpt lat="45.11802" lon="0.65793">
        <ele>223</ele>
        <time>2025-05-25T07:12:28Z</time>
      </trkpt>
      <trkpt lat="45.11804" lon="0.65796">
        <ele>223.2</ele>
        <time>2025-05-25T07:12:29Z</time>
      </trkpt>
      <trkpt lat="45.11806" lon="0.65799">
        <ele>223.4</ele>
        <time>2025-05-25T07:12:30Z</time>
      </trkpt>
      <trkpt lat="45.11807" lon="0.65802">
        <ele>223.4</ele>
        <time>2025-05-25T07:12:31Z</time>
      </trkpt>
      <trkpt lat="45.11809" lon="0.65805">
        <ele>223.4</ele>
        <time>2025-05-25T07:12:32Z</time>
      </trkpt>
      <trkpt lat="45.11811" lon="0.65808">
        <ele>223.6</ele>
        <time>2025-05-25T07:12:33Z</time>
      </trkpt>
      <trkpt lat="45.11813" lon="0.65811">
        <ele>223.6</ele>
        <time>2025-05-25T07:12:34Z</time>
      </trkpt>
      <trkpt lat="45.11815" lon="0.65815">
        <ele>223.6</ele>
        <time>2025-05-25T07:12:35Z</time>
      </trkpt>
      <trkpt lat="45.11816" lon="0.65819">
        <ele>223.8</ele>
        <time>2025-05-25T07:12:36Z</time>
      </trkpt>
      <trkpt lat="45.11819" lon="0.65822">
        <ele>223.8</ele>
        <time>2025-05-25T07:12:37Z</time>
      </trkpt>
      <trkpt lat="45.1182" lon="0.65826">
        <ele>223.8</ele>
        <time>2025-05-25T07:12:38Z</time>
      </trkpt>
      <trkpt lat="45.11822" lon="0.6583">
        <ele>223.8</ele>
        <time>2025-05-25T07:12:39Z</time>
      </trkpt>
      <trkpt lat="45.11825" lon="0.65833">
        <ele>224</ele>
        <time>2025-05-25T07:12:40Z</time>
      </trkpt>
      <trkpt lat="45.11827" lon="0.65837">
        <ele>224</ele>
        <time>2025-05-25T07:12:41Z</time>
      </trkpt>
      <trkpt lat="45.11829" lon="0.65842">
        <ele>224.2</ele>
        <time>2025-05-25T07:12:42Z</time>
      </trkpt>
      <trkpt lat="45.11831" lon="0.65846">
        <ele>224.2</ele>
        <time>2025-05-25T07:12:43Z</time>
      </trkpt>
      <trkpt lat="45.11833" lon="0.6585">
        <ele>224.2</ele>
        <time>2025-05-25T07:12:44Z</time>
      </trkpt>
      <trkpt lat="45.11835" lon="0.65854">
        <ele>224.4</ele>
        <time>2025-05-25T07:12:45Z</time>
      </trkpt>
      <trkpt lat="45.11838" lon="0.65858">
        <ele>224.4</ele>
        <time>2025-05-25T07:12:46Z</time>
      </trkpt>
      <trkpt lat="45.1184" lon="0.65862">
        <ele>224.4</ele>
        <time>2025-05-25T07:12:47Z</time>
      </trkpt>
      <trkpt lat="45.11842" lon="0.65866">
        <ele>224.4</ele>
        <time>2025-05-25T07:12:48Z</time>
      </trkpt>
      <trkpt lat="45.11844" lon="0.6587">
        <ele>224.4</ele>
        <time>2025-05-25T07:12:49Z</time>
      </trkpt>
      <trkpt lat="45.11846" lon="0.65875">
        <ele>224.4</ele>
        <time>2025-05-25T07:12:50Z</time>
      </trkpt>
      <trkpt lat="45.11848" lon="0.65879">
        <ele>224.4</ele>
        <time>2025-05-25T07:12:51Z</time>
      </trkpt>
      <trkpt lat="45.11851" lon="0.65883">
        <ele>224.4</ele>
        <time>2025-05-25T07:12:52Z</time>
      </trkpt>
      <trkpt lat="45.11853" lon="0.65888">
        <ele>224.2</ele>
        <time>2025-05-25T07:12:53Z</time>
      </trkpt>
      <trkpt lat="45.11855" lon="0.65892">
        <ele>224.2</ele>
        <time>2025-05-25T07:12:54Z</time>
      </trkpt>
      <trkpt lat="45.11858" lon="0.65897">
        <ele>224.2</ele>
        <time>2025-05-25T07:12:55Z</time>
      </trkpt>
      <trkpt lat="45.11861" lon="0.65901">
        <ele>224.2</ele>
        <time>2025-05-25T07:12:56Z</time>
      </trkpt>
      <trkpt lat="45.11863" lon="0.65906">
        <ele>224.2</ele>
        <time>2025-05-25T07:12:57Z</time>
      </trkpt>
      <trkpt lat="45.11866" lon="0.6591">
        <ele>224.4</ele>
        <time>2025-05-25T07:12:58Z</time>
      </trkpt>
      <trkpt lat="45.11868" lon="0.65914">
        <ele>224.2</ele>
        <time>2025-05-25T07:12:59Z</time>
      </trkpt>
      <trkpt lat="45.11871" lon="0.65918">
        <ele>224.2</ele>
        <time>2025-05-25T07:13:00Z</time>
      </trkpt>
      <trkpt lat="45.11873" lon="0.65922">
        <ele>224.2</ele>
        <time>2025-05-25T07:13:01Z</time>
      </trkpt>
      <trkpt lat="45.11876" lon="0.65925">
        <ele>224.2</ele>
        <time>2025-05-25T07:13:02Z</time>
      </trkpt>
      <trkpt lat="45.11877" lon="0.65927">
        <ele>224.2</ele>
        <time>2025-05-25T07:13:03Z</time>
      </trkpt>
      <trkpt lat="45.11878" lon="0.65929">
        <ele>224.2</ele>
        <time>2025-05-25T07:13:04Z</time>
      </trkpt>
      <trkpt lat="45.11879" lon="0.65932">
        <ele>224.2</ele>
        <time>2025-05-25T07:13:05Z</time>
      </trkpt>
      <trkpt lat="45.11878" lon="0.65935">
        <ele>224.2</ele>
        <time>2025-05-25T07:13:06Z</time>
      </trkpt>
      <trkpt lat="45.11875" lon="0.65937">
        <ele>224</ele>
        <time>2025-05-25T07:13:07Z</time>
      </trkpt>
      <trkpt lat="45.11872" lon="0.65939">
        <ele>224</ele>
        <time>2025-05-25T07:13:08Z</time>
      </trkpt>
      <trkpt lat="45.11869" lon="0.65942">
        <ele>223.8</ele>
        <time>2025-05-25T07:13:09Z</time>
      </trkpt>
      <trkpt lat="45.11865" lon="0.65945">
        <ele>223.6</ele>
        <time>2025-05-25T07:13:10Z</time>
      </trkpt>
      <trkpt lat="45.11861" lon="0.65949">
        <ele>223.4</ele>
        <time>2025-05-25T07:13:11Z</time>
      </trkpt>
      <trkpt lat="45.11857" lon="0.65952">
        <ele>223.4</ele>
        <time>2025-05-25T07:13:12Z</time>
      </trkpt>
      <trkpt lat="45.11853" lon="0.65955">
        <ele>223.4</ele>
        <time>2025-05-25T07:13:13Z</time>
      </trkpt>
      <trkpt lat="45.11848" lon="0.65959">
        <ele>223.2</ele>
        <time>2025-05-25T07:13:14Z</time>
      </trkpt>
      <trkpt lat="45.11844" lon="0.65963">
        <ele>223.2</ele>
        <time>2025-05-25T07:13:15Z</time>
      </trkpt>
      <trkpt lat="45.1184" lon="0.65966">
        <ele>223.2</ele>
        <time>2025-05-25T07:13:16Z</time>
      </trkpt>
      <trkpt lat="45.11837" lon="0.65971">
        <ele>223.2</ele>
        <time>2025-05-25T07:13:17Z</time>
      </trkpt>
      <trkpt lat="45.11832" lon="0.65975">
        <ele>223</ele>
        <time>2025-05-25T07:13:18Z</time>
      </trkpt>
      <trkpt lat="45.11828" lon="0.6598">
        <ele>223</ele>
        <time>2025-05-25T07:13:19Z</time>
      </trkpt>
      <trkpt lat="45.11823" lon="0.65984">
        <ele>223</ele>
        <time>2025-05-25T07:13:20Z</time>
      </trkpt>
      <trkpt lat="45.11818" lon="0.65988">
        <ele>222.8</ele>
        <time>2025-05-25T07:13:21Z</time>
      </trkpt>
      <trkpt lat="45.11813" lon="0.65993">
        <ele>222.6</ele>
        <time>2025-05-25T07:13:22Z</time>
      </trkpt>
      <trkpt lat="45.11808" lon="0.65997">
        <ele>222.4</ele>
        <time>2025-05-25T07:13:23Z</time>
      </trkpt>
      <trkpt lat="45.11803" lon="0.66001">
        <ele>222.4</ele>
        <time>2025-05-25T07:13:24Z</time>
      </trkpt>
      <trkpt lat="45.11798" lon="0.66006">
        <ele>222.2</ele>
        <time>2025-05-25T07:13:25Z</time>
      </trkpt>
      <trkpt lat="45.11792" lon="0.6601">
        <ele>222.2</ele>
        <time>2025-05-25T07:13:26Z</time>
      </trkpt>
      <trkpt lat="45.11787" lon="0.66015">
        <ele>222</ele>
        <time>2025-05-25T07:13:27Z</time>
      </trkpt>
      <trkpt lat="45.11781" lon="0.6602">
        <ele>222</ele>
        <time>2025-05-25T07:13:28Z</time>
      </trkpt>
      <trkpt lat="45.11776" lon="0.66025">
        <ele>221.8</ele>
        <time>2025-05-25T07:13:29Z</time>
      </trkpt>
      <trkpt lat="45.1177" lon="0.66031">
        <ele>221.6</ele>
        <time>2025-05-25T07:13:30Z</time>
      </trkpt>
      <trkpt lat="45.11764" lon="0.66036">
        <ele>221.6</ele>
        <time>2025-05-25T07:13:31Z</time>
      </trkpt>
      <trkpt lat="45.11758" lon="0.66041">
        <ele>221.2</ele>
        <time>2025-05-25T07:13:32Z</time>
      </trkpt>
      <trkpt lat="45.11753" lon="0.66046">
        <ele>221</ele>
        <time>2025-05-25T07:13:33Z</time>
      </trkpt>
      <trkpt lat="45.11746" lon="0.66051">
        <ele>220.8</ele>
        <time>2025-05-25T07:13:34Z</time>
      </trkpt>
      <trkpt lat="45.1174" lon="0.66056">
        <ele>220.4</ele>
        <time>2025-05-25T07:13:35Z</time>
      </trkpt>
      <trkpt lat="45.11734" lon="0.66061">
        <ele>220</ele>
        <time>2025-05-25T07:13:36Z</time>
      </trkpt>
      <trkpt lat="45.11728" lon="0.66066">
        <ele>219.8</ele>
        <time>2025-05-25T07:13:37Z</time>
      </trkpt>
      <trkpt lat="45.11722" lon="0.66071">
        <ele>219.4</ele>
        <time>2025-05-25T07:13:38Z</time>
      </trkpt>
      <trkpt lat="45.11716" lon="0.66076">
        <ele>219</ele>
        <time>2025-05-25T07:13:39Z</time>
      </trkpt>
      <trkpt lat="45.1171" lon="0.66081">
        <ele>218.8</ele>
        <time>2025-05-25T07:13:40Z</time>
      </trkpt>
      <trkpt lat="45.11704" lon="0.66086">
        <ele>218.6</ele>
        <time>2025-05-25T07:13:41Z</time>
      </trkpt>
      <trkpt lat="45.11697" lon="0.66091">
        <ele>218.4</ele>
        <time>2025-05-25T07:13:42Z</time>
      </trkpt>
      <trkpt lat="45.11691" lon="0.66096">
        <ele>218.2</ele>
        <time>2025-05-25T07:13:43Z</time>
      </trkpt>
      <trkpt lat="45.11685" lon="0.66102">
        <ele>218</ele>
        <time>2025-05-25T07:13:44Z</time>
      </trkpt>
      <trkpt lat="45.11679" lon="0.66108">
        <ele>217.8</ele>
        <time>2025-05-25T07:13:45Z</time>
      </trkpt>
      <trkpt lat="45.11673" lon="0.66113">
        <ele>217.8</ele>
        <time>2025-05-25T07:13:46Z</time>
      </trkpt>
      <trkpt lat="45.11667" lon="0.66119">
        <ele>217.6</ele>
        <time>2025-05-25T07:13:47Z</time>
      </trkpt>
      <trkpt lat="45.11661" lon="0.66125">
        <ele>217.6</ele>
        <time>2025-05-25T07:13:48Z</time>
      </trkpt>
      <trkpt lat="45.11654" lon="0.6613">
        <ele>217.4</ele>
        <time>2025-05-25T07:13:49Z</time>
      </trkpt>
      <trkpt lat="45.11648" lon="0.66136">
        <ele>217.2</ele>
        <time>2025-05-25T07:13:50Z</time>
      </trkpt>
      <trkpt lat="45.11642" lon="0.66141">
        <ele>217</ele>
        <time>2025-05-25T07:13:51Z</time>
      </trkpt>
      <trkpt lat="45.11635" lon="0.66146">
        <ele>216.8</ele>
        <time>2025-05-25T07:13:52Z</time>
      </trkpt>
      <trkpt lat="45.11629" lon="0.66151">
        <ele>216.6</ele>
        <time>2025-05-25T07:13:53Z</time>
      </trkpt>
      <trkpt lat="45.11623" lon="0.66157">
        <ele>216.6</ele>
        <time>2025-05-25T07:13:54Z</time>
      </trkpt>
      <trkpt lat="45.11617" lon="0.66162">
        <ele>216.6</ele>
        <time>2025-05-25T07:13:55Z</time>
      </trkpt>
      <trkpt lat="45.11611" lon="0.66167">
        <ele>216.6</ele>
        <time>2025-05-25T07:13:56Z</time>
      </trkpt>
      <trkpt lat="45.11605" lon="0.66173">
        <ele>216.8</ele>
        <time>2025-05-25T07:13:57Z</time>
      </trkpt>
      <trkpt lat="45.11599" lon="0.66178">
        <ele>216.8</ele>
        <time>2025-05-25T07:13:58Z</time>
      </trkpt>
      <trkpt lat="45.11593" lon="0.66184">
        <ele>216.8</ele>
        <time>2025-05-25T07:13:59Z</time>
      </trkpt>
      <trkpt lat="45.11587" lon="0.66189">
        <ele>216.8</ele>
        <time>2025-05-25T07:14:00Z</time>
      </trkpt>
      <trkpt lat="45.11581" lon="0.66195">
        <ele>217</ele>
        <time>2025-05-25T07:14:01Z</time>
      </trkpt>
      <trkpt lat="45.11574" lon="0.662">
        <ele>217</ele>
        <time>2025-05-25T07:14:02Z</time>
      </trkpt>
      <trkpt lat="45.11568" lon="0.66205">
        <ele>217</ele>
        <time>2025-05-25T07:14:03Z</time>
      </trkpt>
      <trkpt lat="45.11561" lon="0.6621">
        <ele>217</ele>
        <time>2025-05-25T07:14:04Z</time>
      </trkpt>
      <trkpt lat="45.11555" lon="0.66216">
        <ele>217</ele>
        <time>2025-05-25T07:14:05Z</time>
      </trkpt>
      <trkpt lat="45.11549" lon="0.66222">
        <ele>216.8</ele>
        <time>2025-05-25T07:14:06Z</time>
      </trkpt>
      <trkpt lat="45.11542" lon="0.66228">
        <ele>216.8</ele>
        <time>2025-05-25T07:14:07Z</time>
      </trkpt>
      <trkpt lat="45.11535" lon="0.66234">
        <ele>216.6</ele>
        <time>2025-05-25T07:14:08Z</time>
      </trkpt>
      <trkpt lat="45.11529" lon="0.6624">
        <ele>216.4</ele>
        <time>2025-05-25T07:14:09Z</time>
      </trkpt>
      <trkpt lat="45.11522" lon="0.66246">
        <ele>216.2</ele>
        <time>2025-05-25T07:14:10Z</time>
      </trkpt>
      <trkpt lat="45.11515" lon="0.66252">
        <ele>216</ele>
        <time>2025-05-25T07:14:11Z</time>
      </trkpt>
      <trkpt lat="45.11508" lon="0.66259">
        <ele>215.6</ele>
        <time>2025-05-25T07:14:12Z</time>
      </trkpt>
      <trkpt lat="45.11501" lon="0.66265">
        <ele>215.2</ele>
        <time>2025-05-25T07:14:13Z</time>
      </trkpt>
      <trkpt lat="45.11494" lon="0.66272">
        <ele>215</ele>
        <time>2025-05-25T07:14:14Z</time>
      </trkpt>
      <trkpt lat="45.11486" lon="0.66279">
        <ele>214.6</ele>
        <time>2025-05-25T07:14:15Z</time>
      </trkpt>
      <trkpt lat="45.11479" lon="0.66287">
        <ele>214.2</ele>
        <time>2025-05-25T07:14:16Z</time>
      </trkpt>
      <trkpt lat="45.11471" lon="0.66295">
        <ele>213.6</ele>
        <time>2025-05-25T07:14:17Z</time>
      </trkpt>
      <trkpt lat="45.11463" lon="0.66302">
        <ele>213</ele>
        <time>2025-05-25T07:14:18Z</time>
      </trkpt>
      <trkpt lat="45.11455" lon="0.66309">
        <ele>212.4</ele>
        <time>2025-05-25T07:14:19Z</time>
      </trkpt>
      <trkpt lat="45.11447" lon="0.66315">
        <ele>211.8</ele>
        <time>2025-05-25T07:14:20Z</time>
      </trkpt>
      <trkpt lat="45.11438" lon="0.66321">
        <ele>211.4</ele>
        <time>2025-05-25T07:14:21Z</time>
      </trkpt>
      <trkpt lat="45.1143" lon="0.66328">
        <ele>211</ele>
        <time>2025-05-25T07:14:22Z</time>
      </trkpt>
      <trkpt lat="45.11423" lon="0.66334">
        <ele>211</ele>
        <time>2025-05-25T07:14:23Z</time>
      </trkpt>
      <trkpt lat="45.11416" lon="0.66339">
        <ele>211.2</ele>
        <time>2025-05-25T07:14:24Z</time>
      </trkpt>
      <trkpt lat="45.1141" lon="0.66345">
        <ele>211.4</ele>
        <time>2025-05-25T07:14:25Z</time>
      </trkpt>
      <trkpt lat="45.11407" lon="0.66354">
        <ele>211.6</ele>
        <time>2025-05-25T07:14:26Z</time>
      </trkpt>
      <trkpt lat="45.11406" lon="0.66364">
        <ele>211.6</ele>
        <time>2025-05-25T07:14:27Z</time>
      </trkpt>
      <trkpt lat="45.11408" lon="0.66374">
        <ele>211.6</ele>
        <time>2025-05-25T07:14:28Z</time>
      </trkpt>
      <trkpt lat="45.11409" lon="0.66383">
        <ele>211.4</ele>
        <time>2025-05-25T07:14:29Z</time>
      </trkpt>
      <trkpt lat="45.11411" lon="0.66393">
        <ele>211.4</ele>
        <time>2025-05-25T07:14:30Z</time>
      </trkpt>
      <trkpt lat="45.11411" lon="0.66403">
        <ele>211.2</ele>
        <time>2025-05-25T07:14:31Z</time>
      </trkpt>
      <trkpt lat="45.11411" lon="0.66414">
        <ele>210.8</ele>
        <time>2025-05-25T07:14:32Z</time>
      </trkpt>
      <trkpt lat="45.1141" lon="0.66425">
        <ele>210.6</ele>
        <time>2025-05-25T07:14:33Z</time>
      </trkpt>
      <trkpt lat="45.1141" lon="0.66436">
        <ele>210.4</ele>
        <time>2025-05-25T07:14:34Z</time>
      </trkpt>
      <trkpt lat="45.11409" lon="0.66446">
        <ele>210</ele>
        <time>2025-05-25T07:14:35Z</time>
      </trkpt>
      <trkpt lat="45.11409" lon="0.66455">
        <ele>209.6</ele>
        <time>2025-05-25T07:14:36Z</time>
      </trkpt>
      <trkpt lat="45.11408" lon="0.66463">
        <ele>209.4</ele>
        <time>2025-05-25T07:14:37Z</time>
      </trkpt>
      <trkpt lat="45.11407" lon="0.66472">
        <ele>209.2</ele>
        <time>2025-05-25T07:14:38Z</time>
      </trkpt>
      <trkpt lat="45.11405" lon="0.6648">
        <ele>209</ele>
        <time>2025-05-25T07:14:39Z</time>
      </trkpt>
      <trkpt lat="45.11404" lon="0.66486">
        <ele>208.8</ele>
        <time>2025-05-25T07:14:40Z</time>
      </trkpt>
      <trkpt lat="45.11403" lon="0.66492">
        <ele>208.6</ele>
        <time>2025-05-25T07:14:41Z</time>
      </trkpt>
      <trkpt lat="45.11402" lon="0.66496">
        <ele>208.4</ele>
        <time>2025-05-25T07:14:42Z</time>
      </trkpt>
      <trkpt lat="45.11403" lon="0.665">
        <ele>208.2</ele>
        <time>2025-05-25T07:14:43Z</time>
      </trkpt>
      <trkpt lat="45.11405" lon="0.66505">
        <ele>208</ele>
        <time>2025-05-25T07:14:44Z</time>
      </trkpt>
      <trkpt lat="45.11406" lon="0.66512">
        <ele>207.6</ele>
        <time>2025-05-25T07:14:45Z</time>
      </trkpt>
      <trkpt lat="45.11408" lon="0.66521">
        <ele>207.2</ele>
        <time>2025-05-25T07:14:46Z</time>
      </trkpt>
      <trkpt lat="45.1141" lon="0.6653">
        <ele>206.8</ele>
        <time>2025-05-25T07:14:47Z</time>
      </trkpt>
      <trkpt lat="45.11413" lon="0.6654">
        <ele>206</ele>
        <time>2025-05-25T07:14:48Z</time>
      </trkpt>
      <trkpt lat="45.11414" lon="0.66551">
        <ele>205.2</ele>
        <time>2025-05-25T07:14:49Z</time>
      </trkpt>
      <trkpt lat="45.11417" lon="0.66561">
        <ele>204</ele>
        <time>2025-05-25T07:14:50Z</time>
      </trkpt>
      <trkpt lat="45.11421" lon="0.66572">
        <ele>203</ele>
        <time>2025-05-25T07:14:51Z</time>
      </trkpt>
      <trkpt lat="45.11424" lon="0.66584">
        <ele>202</ele>
        <time>2025-05-25T07:14:52Z</time>
      </trkpt>
      <trkpt lat="45.11427" lon="0.66596">
        <ele>201.2</ele>
        <time>2025-05-25T07:14:53Z</time>
      </trkpt>
      <trkpt lat="45.11431" lon="0.66608">
        <ele>200.2</ele>
        <time>2025-05-25T07:14:54Z</time>
      </trkpt>
      <trkpt lat="45.11435" lon="0.66619">
        <ele>199.4</ele>
        <time>2025-05-25T07:14:55Z</time>
      </trkpt>
      <trkpt lat="45.11441" lon="0.66627">
        <ele>198.4</ele>
        <time>2025-05-25T07:14:56Z</time>
      </trkpt>
      <trkpt lat="45.11447" lon="0.66635">
        <ele>197.6</ele>
        <time>2025-05-25T07:14:57Z</time>
      </trkpt>
      <trkpt lat="45.11455" lon="0.66641">
        <ele>196.6</ele>
        <time>2025-05-25T07:14:58Z</time>
      </trkpt>
      <trkpt lat="45.11462" lon="0.66648">
        <ele>195.6</ele>
        <time>2025-05-25T07:14:59Z</time>
      </trkpt>
      <trkpt lat="45.11468" lon="0.66657">
        <ele>194.8</ele>
        <time>2025-05-25T07:15:00Z</time>
      </trkpt>
      <trkpt lat="45.11474" lon="0.66667">
        <ele>193.6</ele>
        <time>2025-05-25T07:15:01Z</time>
      </trkpt>
      <trkpt lat="45.11479" lon="0.66677">
        <ele>192.6</ele>
        <time>2025-05-25T07:15:02Z</time>
      </trkpt>
      <trkpt lat="45.11487" lon="0.66684">
        <ele>191.8</ele>
        <time>2025-05-25T07:15:03Z</time>
      </trkpt>
      <trkpt lat="45.11496" lon="0.6669">
        <ele>191</ele>
        <time>2025-05-25T07:15:04Z</time>
      </trkpt>
      <trkpt lat="45.11503" lon="0.66698">
        <ele>190.4</ele>
        <time>2025-05-25T07:15:05Z</time>
      </trkpt>
      <trkpt lat="45.1151" lon="0.66707">
        <ele>190.2</ele>
        <time>2025-05-25T07:15:06Z</time>
      </trkpt>
      <trkpt lat="45.11517" lon="0.66714">
        <ele>189.6</ele>
        <time>2025-05-25T07:15:07Z</time>
      </trkpt>
      <trkpt lat="45.11525" lon="0.66719">
        <ele>189.4</ele>
        <time>2025-05-25T07:15:08Z</time>
      </trkpt>
      <trkpt lat="45.11533" lon="0.66724">
        <ele>189</ele>
        <time>2025-05-25T07:15:09Z</time>
      </trkpt>
      <trkpt lat="45.11541" lon="0.6673">
        <ele>188.8</ele>
        <time>2025-05-25T07:15:10Z</time>
      </trkpt>
      <trkpt lat="45.11546" lon="0.66738">
        <ele>188.6</ele>
        <time>2025-05-25T07:15:11Z</time>
      </trkpt>
      <trkpt lat="45.11551" lon="0.66747">
        <ele>188</ele>
        <time>2025-05-25T07:15:12Z</time>
      </trkpt>
      <trkpt lat="45.11555" lon="0.66756">
        <ele>187.2</ele>
        <time>2025-05-25T07:15:13Z</time>
      </trkpt>
      <trkpt lat="45.1156" lon="0.66766">
        <ele>186.8</ele>
        <time>2025-05-25T07:15:14Z</time>
      </trkpt>
      <trkpt lat="45.11566" lon="0.66776">
        <ele>186.2</ele>
        <time>2025-05-25T07:15:15Z</time>
      </trkpt>
      <trkpt lat="45.11573" lon="0.66782">
        <ele>185.4</ele>
        <time>2025-05-25T07:15:16Z</time>
      </trkpt>
      <trkpt lat="45.1158" lon="0.66785">
        <ele>185</ele>
        <time>2025-05-25T07:15:17Z</time>
      </trkpt>
      <trkpt lat="45.11588" lon="0.66788">
        <ele>184.6</ele>
        <time>2025-05-25T07:15:18Z</time>
      </trkpt>
      <trkpt lat="45.11596" lon="0.66791">
        <ele>184.2</ele>
        <time>2025-05-25T07:15:19Z</time>
      </trkpt>
      <trkpt lat="45.11604" lon="0.66795">
        <ele>183.4</ele>
        <time>2025-05-25T07:15:20Z</time>
      </trkpt>
      <trkpt lat="45.11612" lon="0.66798">
        <ele>183</ele>
        <time>2025-05-25T07:15:21Z</time>
      </trkpt>
      <trkpt lat="45.11621" lon="0.668">
        <ele>182.6</ele>
        <time>2025-05-25T07:15:22Z</time>
      </trkpt>
      <trkpt lat="45.11629" lon="0.66805">
        <ele>182.2</ele>
        <time>2025-05-25T07:15:23Z</time>
      </trkpt>
      <trkpt lat="45.11634" lon="0.66811">
        <ele>182.2</ele>
        <time>2025-05-25T07:15:24Z</time>
      </trkpt>
      <trkpt lat="45.11639" lon="0.66819">
        <ele>182.4</ele>
        <time>2025-05-25T07:15:25Z</time>
      </trkpt>
      <trkpt lat="45.11644" lon="0.66826">
        <ele>182.6</ele>
        <time>2025-05-25T07:15:26Z</time>
      </trkpt>
      <trkpt lat="45.1165" lon="0.66834">
        <ele>182.4</ele>
        <time>2025-05-25T07:15:27Z</time>
      </trkpt>
      <trkpt lat="45.11655" lon="0.66843">
        <ele>182.2</ele>
        <time>2025-05-25T07:15:28Z</time>
      </trkpt>
      <trkpt lat="45.11662" lon="0.66851">
        <ele>181.6</ele>
        <time>2025-05-25T07:15:29Z</time>
      </trkpt>
      <trkpt lat="45.11668" lon="0.66861">
        <ele>180.8</ele>
        <time>2025-05-25T07:15:30Z</time>
      </trkpt>
      <trkpt lat="45.11674" lon="0.66869">
        <ele>179.8</ele>
        <time>2025-05-25T07:15:31Z</time>
      </trkpt>
      <trkpt lat="45.11679" lon="0.66877">
        <ele>179</ele>
        <time>2025-05-25T07:15:32Z</time>
      </trkpt>
      <trkpt lat="45.11683" lon="0.66884">
        <ele>178</ele>
        <time>2025-05-25T07:15:33Z</time>
      </trkpt>
      <trkpt lat="45.11686" lon="0.6689">
        <ele>177.4</ele>
        <time>2025-05-25T07:15:34Z</time>
      </trkpt>
      <trkpt lat="45.1169" lon="0.66894">
        <ele>177</ele>
        <time>2025-05-25T07:15:35Z</time>
      </trkpt>
      <trkpt lat="45.11694" lon="0.66893">
        <ele>176.6</ele>
        <time>2025-05-25T07:15:36Z</time>
      </trkpt>
      <trkpt lat="45.11697" lon="0.66892">
        <ele>176.2</ele>
        <time>2025-05-25T07:15:37Z</time>
      </trkpt>
      <trkpt lat="45.11701" lon="0.6689">
        <ele>175.8</ele>
        <time>2025-05-25T07:15:38Z</time>
      </trkpt>
      <trkpt lat="45.11705" lon="0.66886">
        <ele>175.2</ele>
        <time>2025-05-25T07:15:39Z</time>
      </trkpt>
      <trkpt lat="45.11709" lon="0.66883">
        <ele>174.6</ele>
        <time>2025-05-25T07:15:40Z</time>
      </trkpt>
      <trkpt lat="45.11712" lon="0.66878">
        <ele>174.2</ele>
        <time>2025-05-25T07:15:41Z</time>
      </trkpt>
      <trkpt lat="45.11716" lon="0.66873">
        <ele>173.8</ele>
        <time>2025-05-25T07:15:42Z</time>
      </trkpt>
      <trkpt lat="45.1172" lon="0.66868">
        <ele>173.4</ele>
        <time>2025-05-25T07:15:43Z</time>
      </trkpt>
      <trkpt lat="45.11723" lon="0.66865">
        <ele>173</ele>
        <time>2025-05-25T07:15:44Z</time>
      </trkpt>
      <trkpt lat="45.11726" lon="0.66861">
        <ele>172.8</ele>
        <time>2025-05-25T07:15:45Z</time>
      </trkpt>
      <trkpt lat="45.11728" lon="0.66856">
        <ele>172.6</ele>
        <time>2025-05-25T07:15:46Z</time>
      </trkpt>
      <trkpt lat="45.1173" lon="0.66852">
        <ele>172.4</ele>
        <time>2025-05-25T07:15:47Z</time>
      </trkpt>
      <trkpt lat="45.11733" lon="0.66848">
        <ele>172.4</ele>
        <time>2025-05-25T07:15:48Z</time>
      </trkpt>
      <trkpt lat="45.11736" lon="0.66844">
        <ele>172.2</ele>
        <time>2025-05-25T07:15:49Z</time>
      </trkpt>
      <trkpt lat="45.11737" lon="0.66842">
        <ele>172.2</ele>
        <time>2025-05-25T07:15:50Z</time>
      </trkpt>
      <trkpt lat="45.11738" lon="0.6684">
        <ele>172.2</ele>
        <time>2025-05-25T07:15:51Z</time>
      </trkpt>
      <trkpt lat="45.11741" lon="0.66838">
        <ele>172.2</ele>
        <time>2025-05-25T07:15:52Z</time>
      </trkpt>
      <trkpt lat="45.11742" lon="0.66835">
        <ele>172.2</ele>
        <time>2025-05-25T07:15:53Z</time>
      </trkpt>
      <trkpt lat="45.11744" lon="0.66832">
        <ele>172.2</ele>
        <time>2025-05-25T07:15:54Z</time>
      </trkpt>
      <trkpt lat="45.11745" lon="0.66828">
        <ele>172.2</ele>
        <time>2025-05-25T07:15:55Z</time>
      </trkpt>
      <trkpt lat="45.11749" lon="0.66825">
        <ele>172.2</ele>
        <time>2025-05-25T07:15:56Z</time>
      </trkpt>
      <trkpt lat="45.11753" lon="0.66825">
        <ele>172</ele>
        <time>2025-05-25T07:15:57Z</time>
      </trkpt>
      <trkpt lat="45.11758" lon="0.66825">
        <ele>171.8</ele>
        <time>2025-05-25T07:15:58Z</time>
      </trkpt>
      <trkpt lat="45.11762" lon="0.66826">
        <ele>171.4</ele>
        <time>2025-05-25T07:15:59Z</time>
      </trkpt>
      <trkpt lat="45.11767" lon="0.66828">
        <ele>171.2</ele>
        <time>2025-05-25T07:16:00Z</time>
      </trkpt>
      <trkpt lat="45.1177" lon="0.66829">
        <ele>171</ele>
        <time>2025-05-25T07:16:01Z</time>
      </trkpt>
      <trkpt lat="45.11773" lon="0.6683">
        <ele>170.8</ele>
        <time>2025-05-25T07:16:02Z</time>
      </trkpt>
      <trkpt lat="45.11775" lon="0.66831">
        <ele>171</ele>
        <time>2025-05-25T07:16:03Z</time>
      </trkpt>
      <trkpt lat="45.11777" lon="0.66832">
        <ele>171.2</ele>
        <time>2025-05-25T07:16:04Z</time>
      </trkpt>
      <trkpt lat="45.11778" lon="0.66833">
        <ele>171.6</ele>
        <time>2025-05-25T07:16:05Z</time>
      </trkpt>
      <trkpt lat="45.1178" lon="0.66834">
        <ele>172</ele>
        <time>2025-05-25T07:16:06Z</time>
      </trkpt>
      <trkpt lat="45.11781" lon="0.66835">
        <ele>172.4</ele>
        <time>2025-05-25T07:16:07Z</time>
      </trkpt>
      <trkpt lat="45.11783" lon="0.66835">
        <ele>173</ele>
        <time>2025-05-25T07:16:08Z</time>
      </trkpt>
      <trkpt lat="45.11785" lon="0.66836">
        <ele>173.2</ele>
        <time>2025-05-25T07:16:09Z</time>
      </trkpt>
      <trkpt lat="45.11786" lon="0.66836">
        <ele>173.6</ele>
        <time>2025-05-25T07:16:10Z</time>
      </trkpt>
      <trkpt lat="45.11788" lon="0.66836">
        <ele>174</ele>
        <time>2025-05-25T07:16:11Z</time>
      </trkpt>
      <trkpt lat="45.11789" lon="0.66836">
        <ele>174.2</ele>
        <time>2025-05-25T07:16:12Z</time>
      </trkpt>
      <trkpt lat="45.11791" lon="0.66836">
        <ele>174.6</ele>
        <time>2025-05-25T07:16:13Z</time>
      </trkpt>
      <trkpt lat="45.11792" lon="0.66836">
        <ele>175</ele>
        <time>2025-05-25T07:16:14Z</time>
      </trkpt>
      <trkpt lat="45.11793" lon="0.66835">
        <ele>175.4</ele>
        <time>2025-05-25T07:16:15Z</time>
      </trkpt>
      <trkpt lat="45.11795" lon="0.66835">
        <ele>175.8</ele>
        <time>2025-05-25T07:16:16Z</time>
      </trkpt>
      <trkpt lat="45.11796" lon="0.66833">
        <ele>176.2</ele>
        <time>2025-05-25T07:16:17Z</time>
      </trkpt>
      <trkpt lat="45.11797" lon="0.66833">
        <ele>176.4</ele>
        <time>2025-05-25T07:16:18Z</time>
      </trkpt>
      <trkpt lat="45.11797" lon="0.66831">
        <ele>176.8</ele>
        <time>2025-05-25T07:16:19Z</time>
      </trkpt>
      <trkpt lat="45.11798" lon="0.66831">
        <ele>177.2</ele>
        <time>2025-05-25T07:16:20Z</time>
      </trkpt>
      <trkpt lat="45.11799" lon="0.6683">
        <ele>177.4</ele>
        <time>2025-05-25T07:16:21Z</time>
      </trkpt>
      <trkpt lat="45.11799" lon="0.66829">
        <ele>177.8</ele>
        <time>2025-05-25T07:16:22Z</time>
      </trkpt>
      <trkpt lat="45.118" lon="0.66829">
        <ele>178</ele>
        <time>2025-05-25T07:16:23Z</time>
      </trkpt>
      <trkpt lat="45.11802" lon="0.66828">
        <ele>178.4</ele>
        <time>2025-05-25T07:16:24Z</time>
      </trkpt>
      <trkpt lat="45.11802" lon="0.66827">
        <ele>178.6</ele>
        <time>2025-05-25T07:16:25Z</time>
      </trkpt>
      <trkpt lat="45.11802" lon="0.66827">
        <ele>179</ele>
        <time>2025-05-25T07:16:26Z</time>
      </trkpt>
      <trkpt lat="45.11853" lon="0.66785">
        <ele>194.4</ele>
        <time>2025-05-25T07:17:58Z</time>
      </trkpt>
      <trkpt lat="45.11854" lon="0.66785">
        <ele>194.6</ele>
        <time>2025-05-25T07:17:59Z</time>
      </trkpt>
      <trkpt lat="45.11855" lon="0.66785">
        <ele>194.8</ele>
        <time>2025-05-25T07:18:00Z</time>
      </trkpt>
      <trkpt lat="45.11857" lon="0.66784">
        <ele>195</ele>
        <time>2025-05-25T07:18:01Z</time>
      </trkpt>
      <trkpt lat="45.11858" lon="0.66784">
        <ele>195.2</ele>
        <time>2025-05-25T07:18:02Z</time>
      </trkpt>
      <trkpt lat="45.11859" lon="0.66784">
        <ele>195.6</ele>
        <time>2025-05-25T07:18:03Z</time>
      </trkpt>
      <trkpt lat="45.11861" lon="0.66784">
        <ele>195.8</ele>
        <time>2025-05-25T07:18:04Z</time>
      </trkpt>
      <trkpt lat="45.11862" lon="0.66784">
        <ele>196</ele>
        <time>2025-05-25T07:18:05Z</time>
      </trkpt>
      <trkpt lat="45.11863" lon="0.66784">
        <ele>196.2</ele>
        <time>2025-05-25T07:18:06Z</time>
      </trkpt>
      <trkpt lat="45.11865" lon="0.66783">
        <ele>196.6</ele>
        <time>2025-05-25T07:18:07Z</time>
      </trkpt>
      <trkpt lat="45.11866" lon="0.66784">
        <ele>196.8</ele>
        <time>2025-05-25T07:18:08Z</time>
      </trkpt>
      <trkpt lat="45.11868" lon="0.66784">
        <ele>197</ele>
        <time>2025-05-25T07:18:09Z</time>
      </trkpt>
      <trkpt lat="45.11869" lon="0.66784">
        <ele>197.2</ele>
        <time>2025-05-25T07:18:10Z</time>
      </trkpt>
      <trkpt lat="45.11871" lon="0.66785">
        <ele>197.6</ele>
        <time>2025-05-25T07:18:11Z</time>
      </trkpt>
      <trkpt lat="45.11873" lon="0.66786">
        <ele>197.8</ele>
        <time>2025-05-25T07:18:12Z</time>
      </trkpt>
      <trkpt lat="45.11875" lon="0.66786">
        <ele>198</ele>
        <time>2025-05-25T07:18:13Z</time>
      </trkpt>
      <trkpt lat="45.11877" lon="0.66787">
        <ele>198.2</ele>
        <time>2025-05-25T07:18:14Z</time>
      </trkpt>
      <trkpt lat="45.11879" lon="0.66788">
        <ele>198.4</ele>
        <time>2025-05-25T07:18:15Z</time>
      </trkpt>
      <trkpt lat="45.11881" lon="0.66789">
        <ele>198.6</ele>
        <time>2025-05-25T07:18:16Z</time>
      </trkpt>
      <trkpt lat="45.11883" lon="0.66791">
        <ele>198.8</ele>
        <time>2025-05-25T07:18:17Z</time>
      </trkpt>
      <trkpt lat="45.11884" lon="0.66793">
        <ele>199</ele>
        <time>2025-05-25T07:18:18Z</time>
      </trkpt>
      <trkpt lat="45.11886" lon="0.66795">
        <ele>199.2</ele>
        <time>2025-05-25T07:18:19Z</time>
      </trkpt>
      <trkpt lat="45.11888" lon="0.66797">
        <ele>199.4</ele>
        <time>2025-05-25T07:18:20Z</time>
      </trkpt>
      <trkpt lat="45.11889" lon="0.66799">
        <ele>199.4</ele>
        <time>2025-05-25T07:18:21Z</time>
      </trkpt>
      <trkpt lat="45.11891" lon="0.66802">
        <ele>199.4</ele>
        <time>2025-05-25T07:18:22Z</time>
      </trkpt>
      <trkpt lat="45.11892" lon="0.66805">
        <ele>199.4</ele>
        <time>2025-05-25T07:18:23Z</time>
      </trkpt>
      <trkpt lat="45.11894" lon="0.66808">
        <ele>199.4</ele>
        <time>2025-05-25T07:18:24Z</time>
      </trkpt>
      <trkpt lat="45.11897" lon="0.66811">
        <ele>199.4</ele>
        <time>2025-05-25T07:18:25Z</time>
      </trkpt>
      <trkpt lat="45.11899" lon="0.66812">
        <ele>199.4</ele>
        <time>2025-05-25T07:18:26Z</time>
      </trkpt>
      <trkpt lat="45.11901" lon="0.66815">
        <ele>199.4</ele>
        <time>2025-05-25T07:18:27Z</time>
      </trkpt>
      <trkpt lat="45.11904" lon="0.66819">
        <ele>199.6</ele>
        <time>2025-05-25T07:18:28Z</time>
      </trkpt>
      <trkpt lat="45.11907" lon="0.66821">
        <ele>199.6</ele>
        <time>2025-05-25T07:18:29Z</time>
      </trkpt>
      <trkpt lat="45.1191" lon="0.66824">
        <ele>199.6</ele>
        <time>2025-05-25T07:18:30Z</time>
      </trkpt>
      <trkpt lat="45.11913" lon="0.66827">
        <ele>199.4</ele>
        <time>2025-05-25T07:18:31Z</time>
      </trkpt>
      <trkpt lat="45.11917" lon="0.66829">
        <ele>199.4</ele>
        <time>2025-05-25T07:18:32Z</time>
      </trkpt>
      <trkpt lat="45.1192" lon="0.66831">
        <ele>199.4</ele>
        <time>2025-05-25T07:18:33Z</time>
      </trkpt>
      <trkpt lat="45.11924" lon="0.66831">
        <ele>199.2</ele>
        <time>2025-05-25T07:18:34Z</time>
      </trkpt>
      <trkpt lat="45.11926" lon="0.66829">
        <ele>199.2</ele>
        <time>2025-05-25T07:18:35Z</time>
      </trkpt>
      <trkpt lat="45.11929" lon="0.66827">
        <ele>199.2</ele>
        <time>2025-05-25T07:18:36Z</time>
      </trkpt>
      <trkpt lat="45.11931" lon="0.66824">
        <ele>199.2</ele>
        <time>2025-05-25T07:18:37Z</time>
      </trkpt>
      <trkpt lat="45.11933" lon="0.66821">
        <ele>199.4</ele>
        <time>2025-05-25T07:18:38Z</time>
      </trkpt>
      <trkpt lat="45.11935" lon="0.66819">
        <ele>199.6</ele>
        <time>2025-05-25T07:18:39Z</time>
      </trkpt>
      <trkpt lat="45.11936" lon="0.66816">
        <ele>199.8</ele>
        <time>2025-05-25T07:18:40Z</time>
      </trkpt>
      <trkpt lat="45.11938" lon="0.66812">
        <ele>200</ele>
        <time>2025-05-25T07:18:41Z</time>
      </trkpt>
      <trkpt lat="45.11939" lon="0.66809">
        <ele>200.2</ele>
        <time>2025-05-25T07:18:42Z</time>
      </trkpt>
      <trkpt lat="45.11941" lon="0.66806">
        <ele>200.4</ele>
        <time>2025-05-25T07:18:43Z</time>
      </trkpt>
      <trkpt lat="45.11943" lon="0.66803">
        <ele>200.8</ele>
        <time>2025-05-25T07:18:44Z</time>
      </trkpt>
      <trkpt lat="45.11944" lon="0.668">
        <ele>201</ele>
        <time>2025-05-25T07:18:45Z</time>
      </trkpt>
      <trkpt lat="45.11946" lon="0.66798">
        <ele>201.2</ele>
        <time>2025-05-25T07:18:46Z</time>
      </trkpt>
      <trkpt lat="45.11947" lon="0.66794">
        <ele>201.4</ele>
        <time>2025-05-25T07:18:47Z</time>
      </trkpt>
      <trkpt lat="45.11949" lon="0.66791">
        <ele>201.6</ele>
        <time>2025-05-25T07:18:48Z</time>
      </trkpt>
      <trkpt lat="45.1195" lon="0.66788">
        <ele>201.8</ele>
        <time>2025-05-25T07:18:49Z</time>
      </trkpt>
      <trkpt lat="45.11952" lon="0.66784">
        <ele>202</ele>
        <time>2025-05-25T07:18:50Z</time>
      </trkpt>
      <trkpt lat="45.11954" lon="0.66781">
        <ele>202.2</ele>
        <time>2025-05-25T07:18:51Z</time>
      </trkpt>
      <trkpt lat="45.11956" lon="0.66778">
        <ele>202.4</ele>
        <time>2025-05-25T07:18:52Z</time>
      </trkpt>
      <trkpt lat="45.11958" lon="0.66775">
        <ele>202.6</ele>
        <time>2025-05-25T07:18:53Z</time>
      </trkpt>
      <trkpt lat="45.11959" lon="0.66772">
        <ele>202.8</ele>
        <time>2025-05-25T07:18:54Z</time>
      </trkpt>
      <trkpt lat="45.11961" lon="0.66769">
        <ele>203</ele>
        <time>2025-05-25T07:18:55Z</time>
      </trkpt>
      <trkpt lat="45.11963" lon="0.66766">
        <ele>203.4</ele>
        <time>2025-05-25T07:18:56Z</time>
      </trkpt>
      <trkpt lat="45.11965" lon="0.66764">
        <ele>203.6</ele>
        <time>2025-05-25T07:18:57Z</time>
      </trkpt>
      <trkpt lat="45.11967" lon="0.66761">
        <ele>203.8</ele>
        <time>2025-05-25T07:18:58Z</time>
      </trkpt>
      <trkpt lat="45.11969" lon="0.66758">
        <ele>204</ele>
        <time>2025-05-25T07:18:59Z</time>
      </trkpt>
      <trkpt lat="45.1197" lon="0.66755">
        <ele>204.2</ele>
        <time>2025-05-25T07:19:00Z</time>
      </trkpt>
      <trkpt lat="45.11972" lon="0.66752">
        <ele>204.4</ele>
        <time>2025-05-25T07:19:01Z</time>
      </trkpt>
      <trkpt lat="45.11973" lon="0.66748">
        <ele>204.6</ele>
        <time>2025-05-25T07:19:02Z</time>
      </trkpt>
      <trkpt lat="45.11975" lon="0.66744">
        <ele>204.8</ele>
        <time>2025-05-25T07:19:03Z</time>
      </trkpt>
      <trkpt lat="45.11976" lon="0.66741">
        <ele>205</ele>
        <time>2025-05-25T07:19:04Z</time>
      </trkpt>
      <trkpt lat="45.11978" lon="0.66738">
        <ele>205.2</ele>
        <time>2025-05-25T07:19:05Z</time>
      </trkpt>
      <trkpt lat="45.11979" lon="0.66734">
        <ele>205.4</ele>
        <time>2025-05-25T07:19:06Z</time>
      </trkpt>
      <trkpt lat="45.11981" lon="0.66731">
        <ele>205.8</ele>
        <time>2025-05-25T07:19:07Z</time>
      </trkpt>
      <trkpt lat="45.11982" lon="0.66727">
        <ele>206</ele>
        <time>2025-05-25T07:19:08Z</time>
      </trkpt>
      <trkpt lat="45.11983" lon="0.66723">
        <ele>206</ele>
        <time>2025-05-25T07:19:09Z</time>
      </trkpt>
      <trkpt lat="45.11984" lon="0.6672">
        <ele>206.2</ele>
        <time>2025-05-25T07:19:10Z</time>
      </trkpt>
      <trkpt lat="45.11985" lon="0.66716">
        <ele>206.6</ele>
        <time>2025-05-25T07:19:11Z</time>
      </trkpt>
      <trkpt lat="45.11987" lon="0.66713">
        <ele>206.8</ele>
        <time>2025-05-25T07:19:12Z</time>
      </trkpt>
      <trkpt lat="45.11988" lon="0.66709">
        <ele>207</ele>
        <time>2025-05-25T07:19:13Z</time>
      </trkpt>
      <trkpt lat="45.11989" lon="0.66706">
        <ele>207.2</ele>
        <time>2025-05-25T07:19:14Z</time>
      </trkpt>
      <trkpt lat="45.1199" lon="0.66703">
        <ele>207.4</ele>
        <time>2025-05-25T07:19:15Z</time>
      </trkpt>
      <trkpt lat="45.11992" lon="0.66699">
        <ele>207.6</ele>
        <time>2025-05-25T07:19:16Z</time>
      </trkpt>
      <trkpt lat="45.11993" lon="0.66696">
        <ele>207.8</ele>
        <time>2025-05-25T07:19:17Z</time>
      </trkpt>
      <trkpt lat="45.11994" lon="0.66693">
        <ele>208</ele>
        <time>2025-05-25T07:19:18Z</time>
      </trkpt>
      <trkpt lat="45.11996" lon="0.6669">
        <ele>208.2</ele>
        <time>2025-05-25T07:19:19Z</time>
      </trkpt>
      <trkpt lat="45.11997" lon="0.66687">
        <ele>208.4</ele>
        <time>2025-05-25T07:19:20Z</time>
      </trkpt>
      <trkpt lat="45.11998" lon="0.66684">
        <ele>208.6</ele>
        <time>2025-05-25T07:19:21Z</time>
      </trkpt>
      <trkpt lat="45.12" lon="0.66682">
        <ele>209</ele>
        <time>2025-05-25T07:19:22Z</time>
      </trkpt>
      <trkpt lat="45.12001" lon="0.66679">
        <ele>209.2</ele>
        <time>2025-05-25T07:19:23Z</time>
      </trkpt>
      <trkpt lat="45.12002" lon="0.66677">
        <ele>209.4</ele>
        <time>2025-05-25T07:19:24Z</time>
      </trkpt>
      <trkpt lat="45.12003" lon="0.66674">
        <ele>209.6</ele>
        <time>2025-05-25T07:19:25Z</time>
      </trkpt>
      <trkpt lat="45.12005" lon="0.66672">
        <ele>209.8</ele>
        <time>2025-05-25T07:19:26Z</time>
      </trkpt>
      <trkpt lat="45.12006" lon="0.6667">
        <ele>210.2</ele>
        <time>2025-05-25T07:19:27Z</time>
      </trkpt>
      <trkpt lat="45.12007" lon="0.66667">
        <ele>210.4</ele>
        <time>2025-05-25T07:19:28Z</time>
      </trkpt>
      <trkpt lat="45.12008" lon="0.66663">
        <ele>210.6</ele>
        <time>2025-05-25T07:19:29Z</time>
      </trkpt>
      <trkpt lat="45.12009" lon="0.66661">
        <ele>211</ele>
        <time>2025-05-25T07:19:30Z</time>
      </trkpt>
      <trkpt lat="45.12011" lon="0.66658">
        <ele>211.2</ele>
        <time>2025-05-25T07:19:31Z</time>
      </trkpt>
      <trkpt lat="45.12013" lon="0.66655">
        <ele>211.4</ele>
        <time>2025-05-25T07:19:32Z</time>
      </trkpt>
      <trkpt lat="45.12014" lon="0.66652">
        <ele>211.6</ele>
        <time>2025-05-25T07:19:33Z</time>
      </trkpt>
      <trkpt lat="45.12016" lon="0.66649">
        <ele>211.8</ele>
        <time>2025-05-25T07:19:34Z</time>
      </trkpt>
      <trkpt lat="45.12017" lon="0.66646">
        <ele>212</ele>
        <time>2025-05-25T07:19:35Z</time>
      </trkpt>
      <trkpt lat="45.12019" lon="0.66644">
        <ele>212.2</ele>
        <time>2025-05-25T07:19:36Z</time>
      </trkpt>
      <trkpt lat="45.1202" lon="0.66641">
        <ele>212.4</ele>
        <time>2025-05-25T07:19:37Z</time>
      </trkpt>
      <trkpt lat="45.12022" lon="0.66638">
        <ele>212.4</ele>
        <time>2025-05-25T07:19:38Z</time>
      </trkpt>
      <trkpt lat="45.12023" lon="0.66635">
        <ele>212.6</ele>
        <time>2025-05-25T07:19:39Z</time>
      </trkpt>
      <trkpt lat="45.12025" lon="0.66631">
        <ele>212.8</ele>
        <time>2025-05-25T07:19:40Z</time>
      </trkpt>
      <trkpt lat="45.12026" lon="0.66628">
        <ele>213.2</ele>
        <time>2025-05-25T07:19:41Z</time>
      </trkpt>
      <trkpt lat="45.12027" lon="0.66625">
        <ele>213.2</ele>
        <time>2025-05-25T07:19:42Z</time>
      </trkpt>
      <trkpt lat="45.12028" lon="0.66621">
        <ele>213.4</ele>
        <time>2025-05-25T07:19:43Z</time>
      </trkpt>
      <trkpt lat="45.12028" lon="0.66617">
        <ele>213.6</ele>
        <time>2025-05-25T07:19:44Z</time>
      </trkpt>
      <trkpt lat="45.12028" lon="0.66613">
        <ele>213.8</ele>
        <time>2025-05-25T07:19:45Z</time>
      </trkpt>
      <trkpt lat="45.12028" lon="0.66609">
        <ele>214</ele>
        <time>2025-05-25T07:19:46Z</time>
      </trkpt>
      <trkpt lat="45.12029" lon="0.66606">
        <ele>214.2</ele>
        <time>2025-05-25T07:19:47Z</time>
      </trkpt>
      <trkpt lat="45.12029" lon="0.66602">
        <ele>214.2</ele>
        <time>2025-05-25T07:19:48Z</time>
      </trkpt>
      <trkpt lat="45.12029" lon="0.66598">
        <ele>214.4</ele>
        <time>2025-05-25T07:19:49Z</time>
      </trkpt>
      <trkpt lat="45.12029" lon="0.66594">
        <ele>214.4</ele>
        <time>2025-05-25T07:19:50Z</time>
      </trkpt>
      <trkpt lat="45.1203" lon="0.6659">
        <ele>214.6</ele>
        <time>2025-05-25T07:19:51Z</time>
      </trkpt>
      <trkpt lat="45.1203" lon="0.66586">
        <ele>214.6</ele>
        <time>2025-05-25T07:19:52Z</time>
      </trkpt>
      <trkpt lat="45.1203" lon="0.66582">
        <ele>214.8</ele>
        <time>2025-05-25T07:19:53Z</time>
      </trkpt>
      <trkpt lat="45.12031" lon="0.66578">
        <ele>214.8</ele>
        <time>2025-05-25T07:19:54Z</time>
      </trkpt>
      <trkpt lat="45.12031" lon="0.66574">
        <ele>215</ele>
        <time>2025-05-25T07:19:55Z</time>
      </trkpt>
      <trkpt lat="45.1203" lon="0.6657">
        <ele>215.2</ele>
        <time>2025-05-25T07:19:56Z</time>
      </trkpt>
      <trkpt lat="45.1203" lon="0.66566">
        <ele>215.2</ele>
        <time>2025-05-25T07:19:57Z</time>
      </trkpt>
      <trkpt lat="45.1203" lon="0.66562">
        <ele>215.4</ele>
        <time>2025-05-25T07:19:58Z</time>
      </trkpt>
      <trkpt lat="45.1203" lon="0.66558">
        <ele>215.6</ele>
        <time>2025-05-25T07:19:59Z</time>
      </trkpt>
      <trkpt lat="45.1203" lon="0.66553">
        <ele>215.6</ele>
        <time>2025-05-25T07:20:00Z</time>
      </trkpt>
      <trkpt lat="45.1203" lon="0.6655">
        <ele>215.8</ele>
        <time>2025-05-25T07:20:01Z</time>
      </trkpt>
      <trkpt lat="45.1203" lon="0.66546">
        <ele>216</ele>
        <time>2025-05-25T07:20:02Z</time>
      </trkpt>
      <trkpt lat="45.12029" lon="0.66542">
        <ele>216</ele>
        <time>2025-05-25T07:20:03Z</time>
      </trkpt>
      <trkpt lat="45.12029" lon="0.66538">
        <ele>216.2</ele>
        <time>2025-05-25T07:20:04Z</time>
      </trkpt>
      <trkpt lat="45.12028" lon="0.66534">
        <ele>216.4</ele>
        <time>2025-05-25T07:20:05Z</time>
      </trkpt>
      <trkpt lat="45.12028" lon="0.6653">
        <ele>216.6</ele>
        <time>2025-05-25T07:20:06Z</time>
      </trkpt>
      <trkpt lat="45.12026" lon="0.66527">
        <ele>216.6</ele>
        <time>2025-05-25T07:20:07Z</time>
      </trkpt>
      <trkpt lat="45.12025" lon="0.66523">
        <ele>216.6</ele>
        <time>2025-05-25T07:20:08Z</time>
      </trkpt>
      <trkpt lat="45.12024" lon="0.6652">
        <ele>216.8</ele>
        <time>2025-05-25T07:20:09Z</time>
      </trkpt>
      <trkpt lat="45.12022" lon="0.66517">
        <ele>216.8</ele>
        <time>2025-05-25T07:20:10Z</time>
      </trkpt>
      <trkpt lat="45.12021" lon="0.66513">
        <ele>217</ele>
        <time>2025-05-25T07:20:11Z</time>
      </trkpt>
      <trkpt lat="45.12019" lon="0.6651">
        <ele>217.2</ele>
        <time>2025-05-25T07:20:12Z</time>
      </trkpt>
      <trkpt lat="45.12018" lon="0.66505">
        <ele>217.2</ele>
        <time>2025-05-25T07:20:13Z</time>
      </trkpt>
      <trkpt lat="45.12018" lon="0.66501">
        <ele>217.2</ele>
        <time>2025-05-25T07:20:14Z</time>
      </trkpt>
      <trkpt lat="45.12019" lon="0.66497">
        <ele>217.4</ele>
        <time>2025-05-25T07:20:15Z</time>
      </trkpt>
      <trkpt lat="45.12019" lon="0.66492">
        <ele>217.2</ele>
        <time>2025-05-25T07:20:16Z</time>
      </trkpt>
      <trkpt lat="45.12019" lon="0.66487">
        <ele>217.2</ele>
        <time>2025-05-25T07:20:17Z</time>
      </trkpt>
      <trkpt lat="45.12018" lon="0.66481">
        <ele>217.2</ele>
        <time>2025-05-25T07:20:18Z</time>
      </trkpt>
      <trkpt lat="45.12019" lon="0.66477">
        <ele>217.2</ele>
        <time>2025-05-25T07:20:19Z</time>
      </trkpt>
      <trkpt lat="45.12022" lon="0.66475">
        <ele>217.2</ele>
        <time>2025-05-25T07:20:20Z</time>
      </trkpt>
      <trkpt lat="45.12025" lon="0.66476">
        <ele>217.2</ele>
        <time>2025-05-25T07:20:21Z</time>
      </trkpt>
      <trkpt lat="45.12027" lon="0.66478">
        <ele>217.2</ele>
        <time>2025-05-25T07:20:22Z</time>
      </trkpt>
      <trkpt lat="45.12028" lon="0.66482">
        <ele>217.2</ele>
        <time>2025-05-25T07:20:23Z</time>
      </trkpt>
      <trkpt lat="45.1203" lon="0.66486">
        <ele>217.2</ele>
        <time>2025-05-25T07:20:24Z</time>
      </trkpt>
      <trkpt lat="45.12032" lon="0.6649">
        <ele>217.2</ele>
        <time>2025-05-25T07:20:25Z</time>
      </trkpt>
      <trkpt lat="45.12034" lon="0.66495">
        <ele>217</ele>
        <time>2025-05-25T07:20:26Z</time>
      </trkpt>
      <trkpt lat="45.12036" lon="0.66501">
        <ele>216.8</ele>
        <time>2025-05-25T07:20:27Z</time>
      </trkpt>
      <trkpt lat="45.12039" lon="0.66507">
        <ele>216.6</ele>
        <time>2025-05-25T07:20:28Z</time>
      </trkpt>
      <trkpt lat="45.12043" lon="0.66512">
        <ele>216.4</ele>
        <time>2025-05-25T07:20:29Z</time>
      </trkpt>
      <trkpt lat="45.12046" lon="0.66518">
        <ele>216.2</ele>
        <time>2025-05-25T07:20:30Z</time>
      </trkpt>
      <trkpt lat="45.12049" lon="0.66524">
        <ele>216</ele>
        <time>2025-05-25T07:20:31Z</time>
      </trkpt>
      <trkpt lat="45.12052" lon="0.66531">
        <ele>215.6</ele>
        <time>2025-05-25T07:20:32Z</time>
      </trkpt>
      <trkpt lat="45.12055" lon="0.66538">
        <ele>215.4</ele>
        <time>2025-05-25T07:20:33Z</time>
      </trkpt>
      <trkpt lat="45.12057" lon="0.66545">
        <ele>215.2</ele>
        <time>2025-05-25T07:20:34Z</time>
      </trkpt>
      <trkpt lat="45.1206" lon="0.66552">
        <ele>215</ele>
        <time>2025-05-25T07:20:35Z</time>
      </trkpt>
      <trkpt lat="45.12063" lon="0.6656">
        <ele>215</ele>
        <time>2025-05-25T07:20:36Z</time>
      </trkpt>
      <trkpt lat="45.12066" lon="0.66567">
        <ele>214.6</ele>
        <time>2025-05-25T07:20:37Z</time>
      </trkpt>
      <trkpt lat="45.12069" lon="0.66575">
        <ele>214.4</ele>
        <time>2025-05-25T07:20:38Z</time>
      </trkpt>
      <trkpt lat="45.12072" lon="0.66582">
        <ele>214.2</ele>
        <time>2025-05-25T07:20:39Z</time>
      </trkpt>
      <trkpt lat="45.12076" lon="0.6659">
        <ele>214</ele>
        <time>2025-05-25T07:20:40Z</time>
      </trkpt>
      <trkpt lat="45.12079" lon="0.66598">
        <ele>213.6</ele>
        <time>2025-05-25T07:20:41Z</time>
      </trkpt>
      <trkpt lat="45.12082" lon="0.66605">
        <ele>213.4</ele>
        <time>2025-05-25T07:20:42Z</time>
      </trkpt>
      <trkpt lat="45.12085" lon="0.66613">
        <ele>213</ele>
        <time>2025-05-25T07:20:43Z</time>
      </trkpt>
      <trkpt lat="45.12088" lon="0.66621">
        <ele>212.8</ele>
        <time>2025-05-25T07:20:44Z</time>
      </trkpt>
      <trkpt lat="45.12092" lon="0.66629">
        <ele>212.6</ele>
        <time>2025-05-25T07:20:45Z</time>
      </trkpt>
      <trkpt lat="45.12095" lon="0.66636">
        <ele>212.6</ele>
        <time>2025-05-25T07:20:46Z</time>
      </trkpt>
      <trkpt lat="45.12099" lon="0.66644">
        <ele>212.4</ele>
        <time>2025-05-25T07:20:47Z</time>
      </trkpt>
      <trkpt lat="45.12103" lon="0.66651">
        <ele>212.2</ele>
        <time>2025-05-25T07:20:48Z</time>
      </trkpt>
      <trkpt lat="45.12106" lon="0.66659">
        <ele>212</ele>
        <time>2025-05-25T07:20:49Z</time>
      </trkpt>
      <trkpt lat="45.12109" lon="0.66668">
        <ele>212</ele>
        <time>2025-05-25T07:20:50Z</time>
      </trkpt>
      <trkpt lat="45.12113" lon="0.66677">
        <ele>211.8</ele>
        <time>2025-05-25T07:20:51Z</time>
      </trkpt>
      <trkpt lat="45.12117" lon="0.66686">
        <ele>211.4</ele>
        <time>2025-05-25T07:20:52Z</time>
      </trkpt>
      <trkpt lat="45.12121" lon="0.66694">
        <ele>211.2</ele>
        <time>2025-05-25T07:20:53Z</time>
      </trkpt>
      <trkpt lat="45.12125" lon="0.66703">
        <ele>210.6</ele>
        <time>2025-05-25T07:20:54Z</time>
      </trkpt>
      <trkpt lat="45.12129" lon="0.66712">
        <ele>210.2</ele>
        <time>2025-05-25T07:20:55Z</time>
      </trkpt>
      <trkpt lat="45.12133" lon="0.6672">
        <ele>209.8</ele>
        <time>2025-05-25T07:20:56Z</time>
      </trkpt>
      <trkpt lat="45.12137" lon="0.66729">
        <ele>209.6</ele>
        <time>2025-05-25T07:20:57Z</time>
      </trkpt>
      <trkpt lat="45.12141" lon="0.66738">
        <ele>209.2</ele>
        <time>2025-05-25T07:20:58Z</time>
      </trkpt>
      <trkpt lat="45.12144" lon="0.66747">
        <ele>209</ele>
        <time>2025-05-25T07:20:59Z</time>
      </trkpt>
      <trkpt lat="45.12148" lon="0.66756">
        <ele>209</ele>
        <time>2025-05-25T07:21:00Z</time>
      </trkpt>
      <trkpt lat="45.12152" lon="0.66764">
        <ele>208.8</ele>
        <time>2025-05-25T07:21:01Z</time>
      </trkpt>
      <trkpt lat="45.12156" lon="0.66773">
        <ele>208.6</ele>
        <time>2025-05-25T07:21:02Z</time>
      </trkpt>
      <trkpt lat="45.1216" lon="0.66781">
        <ele>208.4</ele>
        <time>2025-05-25T07:21:03Z</time>
      </trkpt>
      <trkpt lat="45.12164" lon="0.66789">
        <ele>208.2</ele>
        <time>2025-05-25T07:21:04Z</time>
      </trkpt>
      <trkpt lat="45.12169" lon="0.66797">
        <ele>208</ele>
        <time>2025-05-25T07:21:05Z</time>
      </trkpt>
      <trkpt lat="45.12174" lon="0.66805">
        <ele>208</ele>
        <time>2025-05-25T07:21:06Z</time>
      </trkpt>
      <trkpt lat="45.12179" lon="0.66812">
        <ele>207.8</ele>
        <time>2025-05-25T07:21:07Z</time>
      </trkpt>
      <trkpt lat="45.12185" lon="0.66819">
        <ele>207.6</ele>
        <time>2025-05-25T07:21:08Z</time>
      </trkpt>
      <trkpt lat="45.12191" lon="0.66826">
        <ele>207.4</ele>
        <time>2025-05-25T07:21:09Z</time>
      </trkpt>
      <trkpt lat="45.12197" lon="0.66834">
        <ele>207</ele>
        <time>2025-05-25T07:21:10Z</time>
      </trkpt>
      <trkpt lat="45.12203" lon="0.66841">
        <ele>206.8</ele>
        <time>2025-05-25T07:21:11Z</time>
      </trkpt>
      <trkpt lat="45.12209" lon="0.66849">
        <ele>206.6</ele>
        <time>2025-05-25T07:21:12Z</time>
      </trkpt>
      <trkpt lat="45.12215" lon="0.66856">
        <ele>206.4</ele>
        <time>2025-05-25T07:21:13Z</time>
      </trkpt>
      <trkpt lat="45.1222" lon="0.66863">
        <ele>206.4</ele>
        <time>2025-05-25T07:21:14Z</time>
      </trkpt>
      <trkpt lat="45.12226" lon="0.6687">
        <ele>206.4</ele>
        <time>2025-05-25T07:21:15Z</time>
      </trkpt>
      <trkpt lat="45.12231" lon="0.66877">
        <ele>206.4</ele>
        <time>2025-05-25T07:21:16Z</time>
      </trkpt>
      <trkpt lat="45.12236" lon="0.66884">
        <ele>206.4</ele>
        <time>2025-05-25T07:21:17Z</time>
      </trkpt>
      <trkpt lat="45.12241" lon="0.66892">
        <ele>206.6</ele>
        <time>2025-05-25T07:21:18Z</time>
      </trkpt>
      <trkpt lat="45.12246" lon="0.66899">
        <ele>206.6</ele>
        <time>2025-05-25T07:21:19Z</time>
      </trkpt>
      <trkpt lat="45.12251" lon="0.66905">
        <ele>206.8</ele>
        <time>2025-05-25T07:21:20Z</time>
      </trkpt>
      <trkpt lat="45.12256" lon="0.66912">
        <ele>207</ele>
        <time>2025-05-25T07:21:21Z</time>
      </trkpt>
      <trkpt lat="45.1226" lon="0.66919">
        <ele>207.4</ele>
        <time>2025-05-25T07:21:22Z</time>
      </trkpt>
      <trkpt lat="45.12265" lon="0.66926">
        <ele>207.6</ele>
        <time>2025-05-25T07:21:23Z</time>
      </trkpt>
      <trkpt lat="45.1227" lon="0.66933">
        <ele>208</ele>
        <time>2025-05-25T07:21:24Z</time>
      </trkpt>
      <trkpt lat="45.12275" lon="0.6694">
        <ele>208.2</ele>
        <time>2025-05-25T07:21:25Z</time>
      </trkpt>
      <trkpt lat="45.1228" lon="0.66946">
        <ele>208.2</ele>
        <time>2025-05-25T07:21:26Z</time>
      </trkpt>
      <trkpt lat="45.12285" lon="0.66953">
        <ele>208.4</ele>
        <time>2025-05-25T07:21:27Z</time>
      </trkpt>
      <trkpt lat="45.12291" lon="0.6696">
        <ele>208.2</ele>
        <time>2025-05-25T07:21:28Z</time>
      </trkpt>
      <trkpt lat="45.12296" lon="0.66966">
        <ele>208.2</ele>
        <time>2025-05-25T07:21:29Z</time>
      </trkpt>
      <trkpt lat="45.12302" lon="0.66972">
        <ele>208</ele>
        <time>2025-05-25T07:21:30Z</time>
      </trkpt>
      <trkpt lat="45.12308" lon="0.66976">
        <ele>207.8</ele>
        <time>2025-05-25T07:21:31Z</time>
      </trkpt>
      <trkpt lat="45.12315" lon="0.6698">
        <ele>207.6</ele>
        <time>2025-05-25T07:21:32Z</time>
      </trkpt>
      <trkpt lat="45.12322" lon="0.66985">
        <ele>207</ele>
        <time>2025-05-25T07:21:33Z</time>
      </trkpt>
      <trkpt lat="45.1233" lon="0.66988">
        <ele>206.6</ele>
        <time>2025-05-25T07:21:34Z</time>
      </trkpt>
      <trkpt lat="45.12338" lon="0.66991">
        <ele>206</ele>
        <time>2025-05-25T07:21:35Z</time>
      </trkpt>
      <trkpt lat="45.12347" lon="0.66992">
        <ele>205.4</ele>
        <time>2025-05-25T07:21:36Z</time>
      </trkpt>
      <trkpt lat="45.12356" lon="0.66992">
        <ele>204.8</ele>
        <time>2025-05-25T07:21:37Z</time>
      </trkpt>
      <trkpt lat="45.12364" lon="0.6699">
        <ele>204</ele>
        <time>2025-05-25T07:21:38Z</time>
      </trkpt>
      <trkpt lat="45.12372" lon="0.66987">
        <ele>203.4</ele>
        <time>2025-05-25T07:21:39Z</time>
      </trkpt>
      <trkpt lat="45.1238" lon="0.66985">
        <ele>202.6</ele>
        <time>2025-05-25T07:21:40Z</time>
      </trkpt>
      <trkpt lat="45.12388" lon="0.66981">
        <ele>202</ele>
        <time>2025-05-25T07:21:41Z</time>
      </trkpt>
      <trkpt lat="45.12397" lon="0.66977">
        <ele>201.6</ele>
        <time>2025-05-25T07:21:42Z</time>
      </trkpt>
      <trkpt lat="45.12405" lon="0.66973">
        <ele>201.2</ele>
        <time>2025-05-25T07:21:43Z</time>
      </trkpt>
      <trkpt lat="45.12414" lon="0.66969">
        <ele>200.6</ele>
        <time>2025-05-25T07:21:44Z</time>
      </trkpt>
      <trkpt lat="45.12422" lon="0.66964">
        <ele>200.2</ele>
        <time>2025-05-25T07:21:45Z</time>
      </trkpt>
      <trkpt lat="45.12431" lon="0.66961">
        <ele>199.8</ele>
        <time>2025-05-25T07:21:46Z</time>
      </trkpt>
      <trkpt lat="45.1244" lon="0.6696">
        <ele>199.2</ele>
        <time>2025-05-25T07:21:47Z</time>
      </trkpt>
      <trkpt lat="45.1245" lon="0.66961">
        <ele>198.6</ele>
        <time>2025-05-25T07:21:48Z</time>
      </trkpt>
      <trkpt lat="45.12459" lon="0.66965">
        <ele>197.8</ele>
        <time>2025-05-25T07:21:49Z</time>
      </trkpt>
      <trkpt lat="45.12467" lon="0.6697">
        <ele>197</ele>
        <time>2025-05-25T07:21:50Z</time>
      </trkpt>
      <trkpt lat="45.12474" lon="0.66978">
        <ele>196.4</ele>
        <time>2025-05-25T07:21:51Z</time>
      </trkpt>
      <trkpt lat="45.12482" lon="0.66987">
        <ele>195.6</ele>
        <time>2025-05-25T07:21:52Z</time>
      </trkpt>
      <trkpt lat="45.12489" lon="0.66997">
        <ele>195</ele>
        <time>2025-05-25T07:21:53Z</time>
      </trkpt>
      <trkpt lat="45.12496" lon="0.67007">
        <ele>194.6</ele>
        <time>2025-05-25T07:21:54Z</time>
      </trkpt>
      <trkpt lat="45.12503" lon="0.67017">
        <ele>193.8</ele>
        <time>2025-05-25T07:21:55Z</time>
      </trkpt>
      <trkpt lat="45.12511" lon="0.67028">
        <ele>193.2</ele>
        <time>2025-05-25T07:21:56Z</time>
      </trkpt>
      <trkpt lat="45.12518" lon="0.67038">
        <ele>192.6</ele>
        <time>2025-05-25T07:21:57Z</time>
      </trkpt>
      <trkpt lat="45.12525" lon="0.67048">
        <ele>191.8</ele>
        <time>2025-05-25T07:21:58Z</time>
      </trkpt>
      <trkpt lat="45.12533" lon="0.67059">
        <ele>191.2</ele>
        <time>2025-05-25T07:21:59Z</time>
      </trkpt>
      <trkpt lat="45.1254" lon="0.67069">
        <ele>190.4</ele>
        <time>2025-05-25T07:22:00Z</time>
      </trkpt>
      <trkpt lat="45.12548" lon="0.67079">
        <ele>189.8</ele>
        <time>2025-05-25T07:22:01Z</time>
      </trkpt>
      <trkpt lat="45.12557" lon="0.67088">
        <ele>189.2</ele>
        <time>2025-05-25T07:22:02Z</time>
      </trkpt>
      <trkpt lat="45.12566" lon="0.67098">
        <ele>188.4</ele>
        <time>2025-05-25T07:22:03Z</time>
      </trkpt>
      <trkpt lat="45.12576" lon="0.67106">
        <ele>187.8</ele>
        <time>2025-05-25T07:22:04Z</time>
      </trkpt>
      <trkpt lat="45.12586" lon="0.67115">
        <ele>187</ele>
        <time>2025-05-25T07:22:05Z</time>
      </trkpt>
      <trkpt lat="45.12595" lon="0.67123">
        <ele>186</ele>
        <time>2025-05-25T07:22:06Z</time>
      </trkpt>
      <trkpt lat="45.12605" lon="0.67132">
        <ele>185.2</ele>
        <time>2025-05-25T07:22:07Z</time>
      </trkpt>
      <trkpt lat="45.12614" lon="0.67141">
        <ele>184</ele>
        <time>2025-05-25T07:22:08Z</time>
      </trkpt>
      <trkpt lat="45.12624" lon="0.6715">
        <ele>183</ele>
        <time>2025-05-25T07:22:09Z</time>
      </trkpt>
      <trkpt lat="45.12633" lon="0.6716">
        <ele>182</ele>
        <time>2025-05-25T07:22:10Z</time>
      </trkpt>
      <trkpt lat="45.12643" lon="0.67169">
        <ele>181.2</ele>
        <time>2025-05-25T07:22:11Z</time>
      </trkpt>
      <trkpt lat="45.12653" lon="0.67176">
        <ele>180.4</ele>
        <time>2025-05-25T07:22:12Z</time>
      </trkpt>
      <trkpt lat="45.12663" lon="0.67184">
        <ele>179.8</ele>
        <time>2025-05-25T07:22:13Z</time>
      </trkpt>
      <trkpt lat="45.12674" lon="0.67189">
        <ele>179</ele>
        <time>2025-05-25T07:22:14Z</time>
      </trkpt>
      <trkpt lat="45.12685" lon="0.67193">
        <ele>178.2</ele>
        <time>2025-05-25T07:22:15Z</time>
      </trkpt>
      <trkpt lat="45.12697" lon="0.67197">
        <ele>177.6</ele>
        <time>2025-05-25T07:22:16Z</time>
      </trkpt>
      <trkpt lat="45.12708" lon="0.672">
        <ele>176.6</ele>
        <time>2025-05-25T07:22:17Z</time>
      </trkpt>
      <trkpt lat="45.1272" lon="0.67202">
        <ele>175.8</ele>
        <time>2025-05-25T07:22:18Z</time>
      </trkpt>
      <trkpt lat="45.12732" lon="0.67206">
        <ele>175.2</ele>
        <time>2025-05-25T07:22:19Z</time>
      </trkpt>
      <trkpt lat="45.12743" lon="0.67209">
        <ele>174.4</ele>
        <time>2025-05-25T07:22:20Z</time>
      </trkpt>
      <trkpt lat="45.12754" lon="0.67213">
        <ele>173.6</ele>
        <time>2025-05-25T07:22:21Z</time>
      </trkpt>
      <trkpt lat="45.12765" lon="0.67217">
        <ele>173</ele>
        <time>2025-05-25T07:22:22Z</time>
      </trkpt>
      <trkpt lat="45.12775" lon="0.67223">
        <ele>172.4</ele>
        <time>2025-05-25T07:22:23Z</time>
      </trkpt>
      <trkpt lat="45.12784" lon="0.67232">
        <ele>171.6</ele>
        <time>2025-05-25T07:22:24Z</time>
      </trkpt>
      <trkpt lat="45.12791" lon="0.67243">
        <ele>171</ele>
        <time>2025-05-25T07:22:25Z</time>
      </trkpt>
      <trkpt lat="45.12798" lon="0.67256">
        <ele>170.2</ele>
        <time>2025-05-25T07:22:26Z</time>
      </trkpt>
      <trkpt lat="45.12804" lon="0.67268">
        <ele>169.6</ele>
        <time>2025-05-25T07:22:27Z</time>
      </trkpt>
      <trkpt lat="45.12811" lon="0.67282">
        <ele>169.2</ele>
        <time>2025-05-25T07:22:28Z</time>
      </trkpt>
      <trkpt lat="45.12817" lon="0.67294">
        <ele>168.6</ele>
        <time>2025-05-25T07:22:29Z</time>
      </trkpt>
      <trkpt lat="45.12823" lon="0.67308">
        <ele>168</ele>
        <time>2025-05-25T07:22:30Z</time>
      </trkpt>
      <trkpt lat="45.12829" lon="0.67321">
        <ele>167.4</ele>
        <time>2025-05-25T07:22:31Z</time>
      </trkpt>
      <trkpt lat="45.12835" lon="0.67334">
        <ele>166.6</ele>
        <time>2025-05-25T07:22:32Z</time>
      </trkpt>
      <trkpt lat="45.12841" lon="0.67347">
        <ele>165.8</ele>
        <time>2025-05-25T07:22:33Z</time>
      </trkpt>
      <trkpt lat="45.12846" lon="0.6736">
        <ele>165</ele>
        <time>2025-05-25T07:22:34Z</time>
      </trkpt>
      <trkpt lat="45.12853" lon="0.67372">
        <ele>164.4</ele>
        <time>2025-05-25T07:22:35Z</time>
      </trkpt>
      <trkpt lat="45.12859" lon="0.67384">
        <ele>163.8</ele>
        <time>2025-05-25T07:22:36Z</time>
      </trkpt>
      <trkpt lat="45.12866" lon="0.67396">
        <ele>163.2</ele>
        <time>2025-05-25T07:22:37Z</time>
      </trkpt>
      <trkpt lat="45.12872" lon="0.67407">
        <ele>162.6</ele>
        <time>2025-05-25T07:22:38Z</time>
      </trkpt>
      <trkpt lat="45.12879" lon="0.67419">
        <ele>161.8</ele>
        <time>2025-05-25T07:22:39Z</time>
      </trkpt>
      <trkpt lat="45.12886" lon="0.6743">
        <ele>161</ele>
        <time>2025-05-25T07:22:40Z</time>
      </trkpt>
      <trkpt lat="45.12894" lon="0.6744">
        <ele>160.4</ele>
        <time>2025-05-25T07:22:41Z</time>
      </trkpt>
      <trkpt lat="45.12902" lon="0.67449">
        <ele>159.4</ele>
        <time>2025-05-25T07:22:42Z</time>
      </trkpt>
      <trkpt lat="45.1291" lon="0.67458">
        <ele>158.8</ele>
        <time>2025-05-25T07:22:43Z</time>
      </trkpt>
      <trkpt lat="45.12919" lon="0.67465">
        <ele>158.2</ele>
        <time>2025-05-25T07:22:44Z</time>
      </trkpt>
      <trkpt lat="45.12927" lon="0.67471">
        <ele>157.6</ele>
        <time>2025-05-25T07:22:45Z</time>
      </trkpt>
      <trkpt lat="45.12934" lon="0.67478">
        <ele>157.4</ele>
        <time>2025-05-25T07:22:46Z</time>
      </trkpt>
      <trkpt lat="45.12941" lon="0.67485">
        <ele>157.2</ele>
        <time>2025-05-25T07:22:47Z</time>
      </trkpt>
      <trkpt lat="45.12948" lon="0.67491">
        <ele>156.8</ele>
        <time>2025-05-25T07:22:48Z</time>
      </trkpt>
      <trkpt lat="45.12955" lon="0.67497">
        <ele>156.4</ele>
        <time>2025-05-25T07:22:49Z</time>
      </trkpt>
      <trkpt lat="45.12962" lon="0.67502">
        <ele>156</ele>
        <time>2025-05-25T07:22:50Z</time>
      </trkpt>
      <trkpt lat="45.12968" lon="0.67507">
        <ele>155.8</ele>
        <time>2025-05-25T07:22:51Z</time>
      </trkpt>
      <trkpt lat="45.12975" lon="0.67512">
        <ele>155.4</ele>
        <time>2025-05-25T07:22:52Z</time>
      </trkpt>
      <trkpt lat="45.12981" lon="0.67516">
        <ele>155.4</ele>
        <time>2025-05-25T07:22:53Z</time>
      </trkpt>
      <trkpt lat="45.12987" lon="0.67521">
        <ele>155.4</ele>
        <time>2025-05-25T07:22:54Z</time>
      </trkpt>
      <trkpt lat="45.12994" lon="0.67526">
        <ele>154.8</ele>
        <time>2025-05-25T07:22:55Z</time>
      </trkpt>
      <trkpt lat="45.13001" lon="0.67532">
        <ele>154.2</ele>
        <time>2025-05-25T07:22:56Z</time>
      </trkpt>
      <trkpt lat="45.13008" lon="0.67537">
        <ele>153.4</ele>
        <time>2025-05-25T07:22:57Z</time>
      </trkpt>
      <trkpt lat="45.13016" lon="0.67542">
        <ele>152.6</ele>
        <time>2025-05-25T07:22:58Z</time>
      </trkpt>
      <trkpt lat="45.13024" lon="0.67548">
        <ele>151.6</ele>
        <time>2025-05-25T07:22:59Z</time>
      </trkpt>
      <trkpt lat="45.13031" lon="0.67553">
        <ele>150.6</ele>
        <time>2025-05-25T07:23:00Z</time>
      </trkpt>
      <trkpt lat="45.13039" lon="0.67559">
        <ele>149.6</ele>
        <time>2025-05-25T07:23:01Z</time>
      </trkpt>
      <trkpt lat="45.13047" lon="0.67564">
        <ele>148.8</ele>
        <time>2025-05-25T07:23:02Z</time>
      </trkpt>
      <trkpt lat="45.13055" lon="0.67569">
        <ele>147.8</ele>
        <time>2025-05-25T07:23:03Z</time>
      </trkpt>
      <trkpt lat="45.13063" lon="0.67573">
        <ele>147.2</ele>
        <time>2025-05-25T07:23:04Z</time>
      </trkpt>
      <trkpt lat="45.13072" lon="0.67577">
        <ele>146.6</ele>
        <time>2025-05-25T07:23:05Z</time>
      </trkpt>
      <trkpt lat="45.13081" lon="0.67581">
        <ele>146</ele>
        <time>2025-05-25T07:23:06Z</time>
      </trkpt>
      <trkpt lat="45.1309" lon="0.67585">
        <ele>145.4</ele>
        <time>2025-05-25T07:23:07Z</time>
      </trkpt>
      <trkpt lat="45.13099" lon="0.67589">
        <ele>144.6</ele>
        <time>2025-05-25T07:23:08Z</time>
      </trkpt>
      <trkpt lat="45.13108" lon="0.67592">
        <ele>143.8</ele>
        <time>2025-05-25T07:23:09Z</time>
      </trkpt>
      <trkpt lat="45.13116" lon="0.67596">
        <ele>143</ele>
        <time>2025-05-25T07:23:10Z</time>
      </trkpt>
      <trkpt lat="45.13125" lon="0.676">
        <ele>142.2</ele>
        <time>2025-05-25T07:23:11Z</time>
      </trkpt>
      <trkpt lat="45.13134" lon="0.67604">
        <ele>141.4</ele>
        <time>2025-05-25T07:23:12Z</time>
      </trkpt>
      <trkpt lat="45.13143" lon="0.67609">
        <ele>140.6</ele>
        <time>2025-05-25T07:23:13Z</time>
      </trkpt>
      <trkpt lat="45.13152" lon="0.67614">
        <ele>139.4</ele>
        <time>2025-05-25T07:23:14Z</time>
      </trkpt>
      <trkpt lat="45.13161" lon="0.6762">
        <ele>138.6</ele>
        <time>2025-05-25T07:23:15Z</time>
      </trkpt>
      <trkpt lat="45.1317" lon="0.67625">
        <ele>137.8</ele>
        <time>2025-05-25T07:23:16Z</time>
      </trkpt>
      <trkpt lat="45.13179" lon="0.67629">
        <ele>136.8</ele>
        <time>2025-05-25T07:23:17Z</time>
      </trkpt>
      <trkpt lat="45.13188" lon="0.67634">
        <ele>136.2</ele>
        <time>2025-05-25T07:23:18Z</time>
      </trkpt>
      <trkpt lat="45.13196" lon="0.67638">
        <ele>135.2</ele>
        <time>2025-05-25T07:23:19Z</time>
      </trkpt>
      <trkpt lat="45.13205" lon="0.67643">
        <ele>134.4</ele>
        <time>2025-05-25T07:23:20Z</time>
      </trkpt>
      <trkpt lat="45.13214" lon="0.67648">
        <ele>134</ele>
        <time>2025-05-25T07:23:21Z</time>
      </trkpt>
      <trkpt lat="45.13222" lon="0.67652">
        <ele>133.4</ele>
        <time>2025-05-25T07:23:22Z</time>
      </trkpt>
      <trkpt lat="45.1323" lon="0.67656">
        <ele>133</ele>
        <time>2025-05-25T07:23:23Z</time>
      </trkpt>
      <trkpt lat="45.13239" lon="0.6766">
        <ele>132.6</ele>
        <time>2025-05-25T07:23:24Z</time>
      </trkpt>
      <trkpt lat="45.13247" lon="0.67665">
        <ele>132.2</ele>
        <time>2025-05-25T07:23:25Z</time>
      </trkpt>
      <trkpt lat="45.13255" lon="0.67669">
        <ele>131.8</ele>
        <time>2025-05-25T07:23:26Z</time>
      </trkpt>
      <trkpt lat="45.13263" lon="0.67672">
        <ele>131.4</ele>
        <time>2025-05-25T07:23:27Z</time>
      </trkpt>
      <trkpt lat="45.13271" lon="0.67675">
        <ele>131</ele>
        <time>2025-05-25T07:23:28Z</time>
      </trkpt>
      <trkpt lat="45.13279" lon="0.67678">
        <ele>130.6</ele>
        <time>2025-05-25T07:23:29Z</time>
      </trkpt>
      <trkpt lat="45.13288" lon="0.67682">
        <ele>129.8</ele>
        <time>2025-05-25T07:23:30Z</time>
      </trkpt>
      <trkpt lat="45.13296" lon="0.67686">
        <ele>129.4</ele>
        <time>2025-05-25T07:23:31Z</time>
      </trkpt>
      <trkpt lat="45.13305" lon="0.6769">
        <ele>128.8</ele>
        <time>2025-05-25T07:23:32Z</time>
      </trkpt>
      <trkpt lat="45.13314" lon="0.67694">
        <ele>128.2</ele>
        <time>2025-05-25T07:23:33Z</time>
      </trkpt>
      <trkpt lat="45.13323" lon="0.67698">
        <ele>127.4</ele>
        <time>2025-05-25T07:23:34Z</time>
      </trkpt>
      <trkpt lat="45.13332" lon="0.67701">
        <ele>126.8</ele>
        <time>2025-05-25T07:23:35Z</time>
      </trkpt>
      <trkpt lat="45.13341" lon="0.67705">
        <ele>126.2</ele>
        <time>2025-05-25T07:23:36Z</time>
      </trkpt>
      <trkpt lat="45.1335" lon="0.67709">
        <ele>125.6</ele>
        <time>2025-05-25T07:23:37Z</time>
      </trkpt>
      <trkpt lat="45.13359" lon="0.67713">
        <ele>125</ele>
        <time>2025-05-25T07:23:38Z</time>
      </trkpt>
      <trkpt lat="45.13368" lon="0.67718">
        <ele>124.4</ele>
        <time>2025-05-25T07:23:39Z</time>
      </trkpt>
      <trkpt lat="45.13376" lon="0.67723">
        <ele>124.2</ele>
        <time>2025-05-25T07:23:40Z</time>
      </trkpt>
      <trkpt lat="45.13385" lon="0.67726">
        <ele>123.6</ele>
        <time>2025-05-25T07:23:41Z</time>
      </trkpt>
      <trkpt lat="45.13393" lon="0.67729">
        <ele>123.4</ele>
        <time>2025-05-25T07:23:42Z</time>
      </trkpt>
      <trkpt lat="45.13402" lon="0.67732">
        <ele>123</ele>
        <time>2025-05-25T07:23:43Z</time>
      </trkpt>
      <trkpt lat="45.13411" lon="0.67736">
        <ele>122.8</ele>
        <time>2025-05-25T07:23:44Z</time>
      </trkpt>
      <trkpt lat="45.13419" lon="0.67738">
        <ele>122.6</ele>
        <time>2025-05-25T07:23:45Z</time>
      </trkpt>
      <trkpt lat="45.13428" lon="0.6774">
        <ele>122.4</ele>
        <time>2025-05-25T07:23:46Z</time>
      </trkpt>
      <trkpt lat="45.13436" lon="0.67741">
        <ele>122</ele>
        <time>2025-05-25T07:23:47Z</time>
      </trkpt>
      <trkpt lat="45.13445" lon="0.67743">
        <ele>121.8</ele>
        <time>2025-05-25T07:23:48Z</time>
      </trkpt>
      <trkpt lat="45.13454" lon="0.67745">
        <ele>121.6</ele>
        <time>2025-05-25T07:23:49Z</time>
      </trkpt>
      <trkpt lat="45.13462" lon="0.67748">
        <ele>121.6</ele>
        <time>2025-05-25T07:23:50Z</time>
      </trkpt>
      <trkpt lat="45.1347" lon="0.67752">
        <ele>121.4</ele>
        <time>2025-05-25T07:23:51Z</time>
      </trkpt>
      <trkpt lat="45.13478" lon="0.67756">
        <ele>121.4</ele>
        <time>2025-05-25T07:23:52Z</time>
      </trkpt>
      <trkpt lat="45.13485" lon="0.67761">
        <ele>121.4</ele>
        <time>2025-05-25T07:23:53Z</time>
      </trkpt>
      <trkpt lat="45.13492" lon="0.67766">
        <ele>121.2</ele>
        <time>2025-05-25T07:23:54Z</time>
      </trkpt>
      <trkpt lat="45.135" lon="0.67771">
        <ele>121.2</ele>
        <time>2025-05-25T07:23:55Z</time>
      </trkpt>
      <trkpt lat="45.13507" lon="0.67775">
        <ele>121.2</ele>
        <time>2025-05-25T07:23:56Z</time>
      </trkpt>
      <trkpt lat="45.13514" lon="0.67778">
        <ele>121.2</ele>
        <time>2025-05-25T07:23:57Z</time>
      </trkpt>
      <trkpt lat="45.13521" lon="0.67781">
        <ele>121</ele>
        <time>2025-05-25T07:23:58Z</time>
      </trkpt>
      <trkpt lat="45.13529" lon="0.67783">
        <ele>121</ele>
        <time>2025-05-25T07:23:59Z</time>
      </trkpt>
      <trkpt lat="45.13536" lon="0.67785">
        <ele>120.8</ele>
        <time>2025-05-25T07:24:00Z</time>
      </trkpt>
      <trkpt lat="45.13543" lon="0.67785">
        <ele>120.8</ele>
        <time>2025-05-25T07:24:01Z</time>
      </trkpt>
      <trkpt lat="45.13549" lon="0.67786">
        <ele>121</ele>
        <time>2025-05-25T07:24:02Z</time>
      </trkpt>
      <trkpt lat="45.13554" lon="0.67787">
        <ele>121.2</ele>
        <time>2025-05-25T07:24:03Z</time>
      </trkpt>
      <trkpt lat="45.13558" lon="0.6779">
        <ele>121.4</ele>
        <time>2025-05-25T07:24:04Z</time>
      </trkpt>
      <trkpt lat="45.1356" lon="0.67794">
        <ele>121.8</ele>
        <time>2025-05-25T07:24:05Z</time>
      </trkpt>
      <trkpt lat="45.13559" lon="0.67798">
        <ele>122.2</ele>
        <time>2025-05-25T07:24:06Z</time>
      </trkpt>
      <trkpt lat="45.13558" lon="0.67802">
        <ele>122.6</ele>
        <time>2025-05-25T07:24:07Z</time>
      </trkpt>
      <trkpt lat="45.13555" lon="0.67805">
        <ele>123</ele>
        <time>2025-05-25T07:24:08Z</time>
      </trkpt>
      <trkpt lat="45.13553" lon="0.67808">
        <ele>123.6</ele>
        <time>2025-05-25T07:24:09Z</time>
      </trkpt>
      <trkpt lat="45.13551" lon="0.67811">
        <ele>123.8</ele>
        <time>2025-05-25T07:24:10Z</time>
      </trkpt>
      <trkpt lat="45.13548" lon="0.67814">
        <ele>124</ele>
        <time>2025-05-25T07:24:11Z</time>
      </trkpt>
      <trkpt lat="45.13546" lon="0.67817">
        <ele>124.2</ele>
        <time>2025-05-25T07:24:12Z</time>
      </trkpt>
      <trkpt lat="45.13544" lon="0.67819">
        <ele>124.4</ele>
        <time>2025-05-25T07:24:13Z</time>
      </trkpt>
      <trkpt lat="45.13541" lon="0.67823">
        <ele>124.4</ele>
        <time>2025-05-25T07:24:14Z</time>
      </trkpt>
      <trkpt lat="45.13539" lon="0.67827">
        <ele>124.6</ele>
        <time>2025-05-25T07:24:15Z</time>
      </trkpt>
      <trkpt lat="45.13536" lon="0.6783">
        <ele>124.6</ele>
        <time>2025-05-25T07:24:16Z</time>
      </trkpt>
      <trkpt lat="45.13534" lon="0.67834">
        <ele>124.6</ele>
        <time>2025-05-25T07:24:17Z</time>
      </trkpt>
      <trkpt lat="45.13531" lon="0.67838">
        <ele>124.6</ele>
        <time>2025-05-25T07:24:18Z</time>
      </trkpt>
      <trkpt lat="45.13529" lon="0.67842">
        <ele>124.8</ele>
        <time>2025-05-25T07:24:19Z</time>
      </trkpt>
      <trkpt lat="45.13526" lon="0.67846">
        <ele>124.8</ele>
        <time>2025-05-25T07:24:20Z</time>
      </trkpt>
      <trkpt lat="45.13523" lon="0.6785">
        <ele>124.8</ele>
        <time>2025-05-25T07:24:21Z</time>
      </trkpt>
      <trkpt lat="45.13521" lon="0.67854">
        <ele>124.8</ele>
        <time>2025-05-25T07:24:22Z</time>
      </trkpt>
      <trkpt lat="45.13518" lon="0.67859">
        <ele>124.8</ele>
        <time>2025-05-25T07:24:23Z</time>
      </trkpt>
      <trkpt lat="45.13515" lon="0.67863">
        <ele>124.8</ele>
        <time>2025-05-25T07:24:24Z</time>
      </trkpt>
      <trkpt lat="45.13513" lon="0.67868">
        <ele>124.8</ele>
        <time>2025-05-25T07:24:25Z</time>
      </trkpt>
      <trkpt lat="45.13511" lon="0.67872">
        <ele>124.8</ele>
        <time>2025-05-25T07:24:26Z</time>
      </trkpt>
      <trkpt lat="45.13508" lon="0.67877">
        <ele>124.8</ele>
        <time>2025-05-25T07:24:27Z</time>
      </trkpt>
      <trkpt lat="45.13506" lon="0.67882">
        <ele>124.8</ele>
        <time>2025-05-25T07:24:28Z</time>
      </trkpt>
      <trkpt lat="45.13503" lon="0.67886">
        <ele>124.8</ele>
        <time>2025-05-25T07:24:29Z</time>
      </trkpt>
      <trkpt lat="45.13501" lon="0.67891">
        <ele>125</ele>
        <time>2025-05-25T07:24:30Z</time>
      </trkpt>
      <trkpt lat="45.13499" lon="0.67896">
        <ele>125</ele>
        <time>2025-05-25T07:24:31Z</time>
      </trkpt>
      <trkpt lat="45.13496" lon="0.679">
        <ele>125</ele>
        <time>2025-05-25T07:24:32Z</time>
      </trkpt>
      <trkpt lat="45.13494" lon="0.67904">
        <ele>125.2</ele>
        <time>2025-05-25T07:24:33Z</time>
      </trkpt>
      <trkpt lat="45.13492" lon="0.67908">
        <ele>125.4</ele>
        <time>2025-05-25T07:24:34Z</time>
      </trkpt>
      <trkpt lat="45.1349" lon="0.67912">
        <ele>125.6</ele>
        <time>2025-05-25T07:24:35Z</time>
      </trkpt>
      <trkpt lat="45.13488" lon="0.67915">
        <ele>125.8</ele>
        <time>2025-05-25T07:24:36Z</time>
      </trkpt>
      <trkpt lat="45.13486" lon="0.67917">
        <ele>126.2</ele>
        <time>2025-05-25T07:24:37Z</time>
      </trkpt>
      <trkpt lat="45.13484" lon="0.6792">
        <ele>126.6</ele>
        <time>2025-05-25T07:24:38Z</time>
      </trkpt>
      <trkpt lat="45.13482" lon="0.67922">
        <ele>127</ele>
        <time>2025-05-25T07:24:39Z</time>
      </trkpt>
      <trkpt lat="45.1348" lon="0.67925">
        <ele>127.4</ele>
        <time>2025-05-25T07:24:40Z</time>
      </trkpt>
      <trkpt lat="45.13478" lon="0.67927">
        <ele>127.8</ele>
        <time>2025-05-25T07:24:41Z</time>
      </trkpt>
      <trkpt lat="45.13477" lon="0.67929">
        <ele>128</ele>
        <time>2025-05-25T07:24:42Z</time>
      </trkpt>
      <trkpt lat="45.13475" lon="0.67931">
        <ele>128.4</ele>
        <time>2025-05-25T07:24:43Z</time>
      </trkpt>
      <trkpt lat="45.13474" lon="0.67933">
        <ele>128.6</ele>
        <time>2025-05-25T07:24:44Z</time>
      </trkpt>
      <trkpt lat="45.13472" lon="0.67935">
        <ele>128.8</ele>
        <time>2025-05-25T07:24:45Z</time>
      </trkpt>
      <trkpt lat="45.1347" lon="0.67938">
        <ele>129.2</ele>
        <time>2025-05-25T07:24:46Z</time>
      </trkpt>
      <trkpt lat="45.13469" lon="0.6794">
        <ele>129.4</ele>
        <time>2025-05-25T07:24:47Z</time>
      </trkpt>
      <trkpt lat="45.13468" lon="0.67942">
        <ele>129.6</ele>
        <time>2025-05-25T07:24:48Z</time>
      </trkpt>
      <trkpt lat="45.13466" lon="0.67944">
        <ele>129.8</ele>
        <time>2025-05-25T07:24:49Z</time>
      </trkpt>
      <trkpt lat="45.13465" lon="0.67947">
        <ele>130</ele>
        <time>2025-05-25T07:24:50Z</time>
      </trkpt>
      <trkpt lat="45.13464" lon="0.67949">
        <ele>130.2</ele>
        <time>2025-05-25T07:24:51Z</time>
      </trkpt>
      <trkpt lat="45.13462" lon="0.6795">
        <ele>130.4</ele>
        <time>2025-05-25T07:24:52Z</time>
      </trkpt>
      <trkpt lat="45.13461" lon="0.67952">
        <ele>130.8</ele>
        <time>2025-05-25T07:24:53Z</time>
      </trkpt>
      <trkpt lat="45.1346" lon="0.67954">
        <ele>131</ele>
        <time>2025-05-25T07:24:54Z</time>
      </trkpt>
      <trkpt lat="45.13459" lon="0.67956">
        <ele>131.2</ele>
        <time>2025-05-25T07:24:55Z</time>
      </trkpt>
      <trkpt lat="45.13458" lon="0.67958">
        <ele>131.6</ele>
        <time>2025-05-25T07:24:56Z</time>
      </trkpt>
      <trkpt lat="45.13456" lon="0.6796">
        <ele>131.8</ele>
        <time>2025-05-25T07:24:57Z</time>
      </trkpt>
      <trkpt lat="45.13455" lon="0.67962">
        <ele>132</ele>
        <time>2025-05-25T07:24:58Z</time>
      </trkpt>
      <trkpt lat="45.13454" lon="0.67964">
        <ele>132.2</ele>
        <time>2025-05-25T07:24:59Z</time>
      </trkpt>
      <trkpt lat="45.13453" lon="0.67966">
        <ele>132.6</ele>
        <time>2025-05-25T07:25:00Z</time>
      </trkpt>
      <trkpt lat="45.13452" lon="0.67968">
        <ele>132.8</ele>
        <time>2025-05-25T07:25:01Z</time>
      </trkpt>
      <trkpt lat="45.1345" lon="0.6797">
        <ele>133</ele>
        <time>2025-05-25T07:25:02Z</time>
      </trkpt>
      <trkpt lat="45.13449" lon="0.67972">
        <ele>133.2</ele>
        <time>2025-05-25T07:25:03Z</time>
      </trkpt>
      <trkpt lat="45.13448" lon="0.67974">
        <ele>133.4</ele>
        <time>2025-05-25T07:25:04Z</time>
      </trkpt>
      <trkpt lat="45.13447" lon="0.67976">
        <ele>133.6</ele>
        <time>2025-05-25T07:25:05Z</time>
      </trkpt>
      <trkpt lat="45.13445" lon="0.67978">
        <ele>133.8</ele>
        <time>2025-05-25T07:25:06Z</time>
      </trkpt>
      <trkpt lat="45.13444" lon="0.6798">
        <ele>134</ele>
        <time>2025-05-25T07:25:07Z</time>
      </trkpt>
      <trkpt lat="45.13443" lon="0.67982">
        <ele>134.2</ele>
        <time>2025-05-25T07:25:08Z</time>
      </trkpt>
      <trkpt lat="45.13442" lon="0.67984">
        <ele>134.4</ele>
        <time>2025-05-25T07:25:09Z</time>
      </trkpt>
      <trkpt lat="45.13441" lon="0.67986">
        <ele>134.6</ele>
        <time>2025-05-25T07:25:10Z</time>
      </trkpt>
      <trkpt lat="45.1344" lon="0.67988">
        <ele>135</ele>
        <time>2025-05-25T07:25:11Z</time>
      </trkpt>
      <trkpt lat="45.13439" lon="0.6799">
        <ele>135.2</ele>
        <time>2025-05-25T07:25:12Z</time>
      </trkpt>
      <trkpt lat="45.13438" lon="0.67992">
        <ele>135.4</ele>
        <time>2025-05-25T07:25:13Z</time>
      </trkpt>
      <trkpt lat="45.13437" lon="0.67994">
        <ele>135.6</ele>
        <time>2025-05-25T07:25:14Z</time>
      </trkpt>
      <trkpt lat="45.13436" lon="0.67996">
        <ele>135.8</ele>
        <time>2025-05-25T07:25:15Z</time>
      </trkpt>
      <trkpt lat="45.13435" lon="0.67998">
        <ele>136</ele>
        <time>2025-05-25T07:25:16Z</time>
      </trkpt>
      <trkpt lat="45.13435" lon="0.68">
        <ele>136.4</ele>
        <time>2025-05-25T07:25:17Z</time>
      </trkpt>
      <trkpt lat="45.13434" lon="0.68002">
        <ele>136.6</ele>
        <time>2025-05-25T07:25:18Z</time>
      </trkpt>
      <trkpt lat="45.13433" lon="0.68005">
        <ele>136.8</ele>
        <time>2025-05-25T07:25:19Z</time>
      </trkpt>
      <trkpt lat="45.13432" lon="0.68007">
        <ele>137</ele>
        <time>2025-05-25T07:25:20Z</time>
      </trkpt>
      <trkpt lat="45.13431" lon="0.68009">
        <ele>137.2</ele>
        <time>2025-05-25T07:25:21Z</time>
      </trkpt>
      <trkpt lat="45.1343" lon="0.68012">
        <ele>137.4</ele>
        <time>2025-05-25T07:25:22Z</time>
      </trkpt>
      <trkpt lat="45.13429" lon="0.68014">
        <ele>137.6</ele>
        <time>2025-05-25T07:25:23Z</time>
      </trkpt>
      <trkpt lat="45.13429" lon="0.68017">
        <ele>137.6</ele>
        <time>2025-05-25T07:25:24Z</time>
      </trkpt>
      <trkpt lat="45.13428" lon="0.68019">
        <ele>137.8</ele>
        <time>2025-05-25T07:25:25Z</time>
      </trkpt>
      <trkpt lat="45.13427" lon="0.68021">
        <ele>138</ele>
        <time>2025-05-25T07:25:26Z</time>
      </trkpt>
      <trkpt lat="45.13427" lon="0.68024">
        <ele>138.2</ele>
        <time>2025-05-25T07:25:27Z</time>
      </trkpt>
      <trkpt lat="45.13426" lon="0.68026">
        <ele>138.4</ele>
        <time>2025-05-25T07:25:28Z</time>
      </trkpt>
      <trkpt lat="45.13425" lon="0.68029">
        <ele>138.4</ele>
        <time>2025-05-25T07:25:29Z</time>
      </trkpt>
      <trkpt lat="45.13425" lon="0.68032">
        <ele>138.6</ele>
        <time>2025-05-25T07:25:30Z</time>
      </trkpt>
      <trkpt lat="45.13424" lon="0.68034">
        <ele>138.8</ele>
        <time>2025-05-25T07:25:31Z</time>
      </trkpt>
      <trkpt lat="45.13424" lon="0.68037">
        <ele>139</ele>
        <time>2025-05-25T07:25:32Z</time>
      </trkpt>
      <trkpt lat="45.13423" lon="0.68039">
        <ele>139.2</ele>
        <time>2025-05-25T07:25:33Z</time>
      </trkpt>
      <trkpt lat="45.13423" lon="0.68042">
        <ele>139.2</ele>
        <time>2025-05-25T07:25:34Z</time>
      </trkpt>
      <trkpt lat="45.13422" lon="0.68045">
        <ele>139.4</ele>
        <time>2025-05-25T07:25:35Z</time>
      </trkpt>
      <trkpt lat="45.13422" lon="0.68048">
        <ele>139.6</ele>
        <time>2025-05-25T07:25:36Z</time>
      </trkpt>
      <trkpt lat="45.13421" lon="0.68051">
        <ele>139.6</ele>
        <time>2025-05-25T07:25:37Z</time>
      </trkpt>
      <trkpt lat="45.13421" lon="0.68053">
        <ele>139.6</ele>
        <time>2025-05-25T07:25:38Z</time>
      </trkpt>
      <trkpt lat="45.1342" lon="0.68056">
        <ele>139.8</ele>
        <time>2025-05-25T07:25:39Z</time>
      </trkpt>
      <trkpt lat="45.1342" lon="0.68059">
        <ele>140</ele>
        <time>2025-05-25T07:25:40Z</time>
      </trkpt>
      <trkpt lat="45.1342" lon="0.68061">
        <ele>140</ele>
        <time>2025-05-25T07:25:41Z</time>
      </trkpt>
      <trkpt lat="45.1342" lon="0.68064">
        <ele>140.2</ele>
        <time>2025-05-25T07:25:42Z</time>
      </trkpt>
      <trkpt lat="45.1342" lon="0.68066">
        <ele>140.2</ele>
        <time>2025-05-25T07:25:43Z</time>
      </trkpt>
      <trkpt lat="45.1342" lon="0.68069">
        <ele>140.4</ele>
        <time>2025-05-25T07:25:44Z</time>
      </trkpt>
      <trkpt lat="45.13419" lon="0.68072">
        <ele>140.6</ele>
        <time>2025-05-25T07:25:45Z</time>
      </trkpt>
      <trkpt lat="45.13419" lon="0.68074">
        <ele>140.6</ele>
        <time>2025-05-25T07:25:46Z</time>
      </trkpt>
      <trkpt lat="45.13419" lon="0.68077">
        <ele>140.8</ele>
        <time>2025-05-25T07:25:47Z</time>
      </trkpt>
      <trkpt lat="45.13418" lon="0.6808">
        <ele>140.8</ele>
        <time>2025-05-25T07:25:48Z</time>
      </trkpt>
      <trkpt lat="45.13418" lon="0.68083">
        <ele>141</ele>
        <time>2025-05-25T07:25:49Z</time>
      </trkpt>
      <trkpt lat="45.13417" lon="0.68085">
        <ele>141.2</ele>
        <time>2025-05-25T07:25:50Z</time>
      </trkpt>
      <trkpt lat="45.13417" lon="0.68088">
        <ele>141.2</ele>
        <time>2025-05-25T07:25:51Z</time>
      </trkpt>
      <trkpt lat="45.13417" lon="0.68091">
        <ele>141.2</ele>
        <time>2025-05-25T07:25:52Z</time>
      </trkpt>
      <trkpt lat="45.13416" lon="0.68094">
        <ele>141.4</ele>
        <time>2025-05-25T07:25:53Z</time>
      </trkpt>
      <trkpt lat="45.13416" lon="0.68097">
        <ele>141.4</ele>
        <time>2025-05-25T07:25:54Z</time>
      </trkpt>
      <trkpt lat="45.13416" lon="0.681">
        <ele>141.6</ele>
        <time>2025-05-25T07:25:55Z</time>
      </trkpt>
      <trkpt lat="45.13416" lon="0.68103">
        <ele>141.8</ele>
        <time>2025-05-25T07:25:56Z</time>
      </trkpt>
      <trkpt lat="45.13416" lon="0.68106">
        <ele>141.8</ele>
        <time>2025-05-25T07:25:57Z</time>
      </trkpt>
      <trkpt lat="45.13415" lon="0.6811">
        <ele>142</ele>
        <time>2025-05-25T07:25:58Z</time>
      </trkpt>
      <trkpt lat="45.13415" lon="0.68112">
        <ele>142</ele>
        <time>2025-05-25T07:25:59Z</time>
      </trkpt>
      <trkpt lat="45.13414" lon="0.68115">
        <ele>142.2</ele>
        <time>2025-05-25T07:26:00Z</time>
      </trkpt>
      <trkpt lat="45.13414" lon="0.68118">
        <ele>142.2</ele>
        <time>2025-05-25T07:26:01Z</time>
      </trkpt>
      <trkpt lat="45.13414" lon="0.68121">
        <ele>142.4</ele>
        <time>2025-05-25T07:26:02Z</time>
      </trkpt>
      <trkpt lat="45.13414" lon="0.68123">
        <ele>142.4</ele>
        <time>2025-05-25T07:26:03Z</time>
      </trkpt>
      <trkpt lat="45.13414" lon="0.68125">
        <ele>142.6</ele>
        <time>2025-05-25T07:26:04Z</time>
      </trkpt>
      <trkpt lat="45.13414" lon="0.68128">
        <ele>142.8</ele>
        <time>2025-05-25T07:26:05Z</time>
      </trkpt>
      <trkpt lat="45.13414" lon="0.68131">
        <ele>142.8</ele>
        <time>2025-05-25T07:26:06Z</time>
      </trkpt>
      <trkpt lat="45.13413" lon="0.68134">
        <ele>143</ele>
        <time>2025-05-25T07:26:07Z</time>
      </trkpt>
      <trkpt lat="45.13413" lon="0.68137">
        <ele>143</ele>
        <time>2025-05-25T07:26:08Z</time>
      </trkpt>
      <trkpt lat="45.13413" lon="0.6814">
        <ele>143</ele>
        <time>2025-05-25T07:26:09Z</time>
      </trkpt>
      <trkpt lat="45.13412" lon="0.68143">
        <ele>143.2</ele>
        <time>2025-05-25T07:26:10Z</time>
      </trkpt>
      <trkpt lat="45.13412" lon="0.68147">
        <ele>143.4</ele>
        <time>2025-05-25T07:26:11Z</time>
      </trkpt>
      <trkpt lat="45.13412" lon="0.6815">
        <ele>143.4</ele>
        <time>2025-05-25T07:26:12Z</time>
      </trkpt>
      <trkpt lat="45.13412" lon="0.68153">
        <ele>143.6</ele>
        <time>2025-05-25T07:26:13Z</time>
      </trkpt>
      <trkpt lat="45.13411" lon="0.68156">
        <ele>143.8</ele>
        <time>2025-05-25T07:26:14Z</time>
      </trkpt>
      <trkpt lat="45.13411" lon="0.68159">
        <ele>144</ele>
        <time>2025-05-25T07:26:15Z</time>
      </trkpt>
      <trkpt lat="45.13411" lon="0.68161">
        <ele>144</ele>
        <time>2025-05-25T07:26:16Z</time>
      </trkpt>
      <trkpt lat="45.1341" lon="0.68165">
        <ele>144.2</ele>
        <time>2025-05-25T07:26:17Z</time>
      </trkpt>
      <trkpt lat="45.1341" lon="0.68168">
        <ele>144.4</ele>
        <time>2025-05-25T07:26:18Z</time>
      </trkpt>
      <trkpt lat="45.1341" lon="0.68171">
        <ele>144.6</ele>
        <time>2025-05-25T07:26:19Z</time>
      </trkpt>
      <trkpt lat="45.1341" lon="0.68174">
        <ele>144.8</ele>
        <time>2025-05-25T07:26:20Z</time>
      </trkpt>
      <trkpt lat="45.13409" lon="0.68177">
        <ele>144.8</ele>
        <time>2025-05-25T07:26:21Z</time>
      </trkpt>
      <trkpt lat="45.13409" lon="0.68179">
        <ele>145</ele>
        <time>2025-05-25T07:26:22Z</time>
      </trkpt>
      <trkpt lat="45.13409" lon="0.68182">
        <ele>145.2</ele>
        <time>2025-05-25T07:26:23Z</time>
      </trkpt>
      <trkpt lat="45.13408" lon="0.68185">
        <ele>145.2</ele>
        <time>2025-05-25T07:26:24Z</time>
      </trkpt>
      <trkpt lat="45.13408" lon="0.68187">
        <ele>145.4</ele>
        <time>2025-05-25T07:26:25Z</time>
      </trkpt>
      <trkpt lat="45.13408" lon="0.6819">
        <ele>145.6</ele>
        <time>2025-05-25T07:26:26Z</time>
      </trkpt>
      <trkpt lat="45.13407" lon="0.68193">
        <ele>145.8</ele>
        <time>2025-05-25T07:26:27Z</time>
      </trkpt>
      <trkpt lat="45.13407" lon="0.68195">
        <ele>146.2</ele>
        <time>2025-05-25T07:26:28Z</time>
      </trkpt>
      <trkpt lat="45.13407" lon="0.68198">
        <ele>146.4</ele>
        <time>2025-05-25T07:26:29Z</time>
      </trkpt>
      <trkpt lat="45.13406" lon="0.68201">
        <ele>146.6</ele>
        <time>2025-05-25T07:26:30Z</time>
      </trkpt>
      <trkpt lat="45.13406" lon="0.68203">
        <ele>146.8</ele>
        <time>2025-05-25T07:26:31Z</time>
      </trkpt>
      <trkpt lat="45.13406" lon="0.68206">
        <ele>147</ele>
        <time>2025-05-25T07:26:32Z</time>
      </trkpt>
      <trkpt lat="45.13405" lon="0.68208">
        <ele>147.2</ele>
        <time>2025-05-25T07:26:33Z</time>
      </trkpt>
      <trkpt lat="45.13405" lon="0.68211">
        <ele>147.4</ele>
        <time>2025-05-25T07:26:34Z</time>
      </trkpt>
      <trkpt lat="45.13405" lon="0.68214">
        <ele>147.4</ele>
        <time>2025-05-25T07:26:35Z</time>
      </trkpt>
      <trkpt lat="45.13404" lon="0.68216">
        <ele>147.6</ele>
        <time>2025-05-25T07:26:36Z</time>
      </trkpt>
      <trkpt lat="45.13404" lon="0.68219">
        <ele>147.8</ele>
        <time>2025-05-25T07:26:37Z</time>
      </trkpt>
      <trkpt lat="45.13404" lon="0.68222">
        <ele>148</ele>
        <time>2025-05-25T07:26:38Z</time>
      </trkpt>
      <trkpt lat="45.13403" lon="0.68224">
        <ele>148.2</ele>
        <time>2025-05-25T07:26:39Z</time>
      </trkpt>
      <trkpt lat="45.13403" lon="0.68227">
        <ele>148.4</ele>
        <time>2025-05-25T07:26:40Z</time>
      </trkpt>
      <trkpt lat="45.13402" lon="0.68229">
        <ele>148.6</ele>
        <time>2025-05-25T07:26:41Z</time>
      </trkpt>
      <trkpt lat="45.13402" lon="0.68232">
        <ele>148.8</ele>
        <time>2025-05-25T07:26:42Z</time>
      </trkpt>
      <trkpt lat="45.13401" lon="0.68234">
        <ele>149</ele>
        <time>2025-05-25T07:26:43Z</time>
      </trkpt>
      <trkpt lat="45.13401" lon="0.68237">
        <ele>149.4</ele>
        <time>2025-05-25T07:26:44Z</time>
      </trkpt>
      <trkpt lat="45.134" lon="0.68239">
        <ele>149.6</ele>
        <time>2025-05-25T07:26:45Z</time>
      </trkpt>
      <trkpt lat="45.134" lon="0.68242">
        <ele>149.8</ele>
        <time>2025-05-25T07:26:46Z</time>
      </trkpt>
      <trkpt lat="45.13399" lon="0.68245">
        <ele>150</ele>
        <time>2025-05-25T07:26:47Z</time>
      </trkpt>
      <trkpt lat="45.13398" lon="0.68247">
        <ele>150.2</ele>
        <time>2025-05-25T07:26:48Z</time>
      </trkpt>
      <trkpt lat="45.13398" lon="0.6825">
        <ele>150.4</ele>
        <time>2025-05-25T07:26:49Z</time>
      </trkpt>
      <trkpt lat="45.13397" lon="0.68252">
        <ele>150.6</ele>
        <time>2025-05-25T07:26:50Z</time>
      </trkpt>
      <trkpt lat="45.13396" lon="0.68254">
        <ele>150.8</ele>
        <time>2025-05-25T07:26:51Z</time>
      </trkpt>
      <trkpt lat="45.13395" lon="0.68257">
        <ele>151</ele>
        <time>2025-05-25T07:26:52Z</time>
      </trkpt>
      <trkpt lat="45.13395" lon="0.68259">
        <ele>151.2</ele>
        <time>2025-05-25T07:26:53Z</time>
      </trkpt>
      <trkpt lat="45.13394" lon="0.68261">
        <ele>151.4</ele>
        <time>2025-05-25T07:26:54Z</time>
      </trkpt>
      <trkpt lat="45.13393" lon="0.68264">
        <ele>151.4</ele>
        <time>2025-05-25T07:26:55Z</time>
      </trkpt>
      <trkpt lat="45.13392" lon="0.68266">
        <ele>151.6</ele>
        <time>2025-05-25T07:26:56Z</time>
      </trkpt>
      <trkpt lat="45.13391" lon="0.68268">
        <ele>152</ele>
        <time>2025-05-25T07:26:57Z</time>
      </trkpt>
      <trkpt lat="45.1339" lon="0.6827">
        <ele>152</ele>
        <time>2025-05-25T07:26:58Z</time>
      </trkpt>
      <trkpt lat="45.1339" lon="0.68273">
        <ele>152.2</ele>
        <time>2025-05-25T07:26:59Z</time>
      </trkpt>
      <trkpt lat="45.13389" lon="0.68275">
        <ele>152.4</ele>
        <time>2025-05-25T07:27:00Z</time>
      </trkpt>
      <trkpt lat="45.13388" lon="0.68278">
        <ele>152.8</ele>
        <time>2025-05-25T07:27:01Z</time>
      </trkpt>
      <trkpt lat="45.13387" lon="0.6828">
        <ele>153</ele>
        <time>2025-05-25T07:27:02Z</time>
      </trkpt>
      <trkpt lat="45.13387" lon="0.68282">
        <ele>153.2</ele>
        <time>2025-05-25T07:27:03Z</time>
      </trkpt>
      <trkpt lat="45.13386" lon="0.68284">
        <ele>153.4</ele>
        <time>2025-05-25T07:27:04Z</time>
      </trkpt>
      <trkpt lat="45.13385" lon="0.68286">
        <ele>153.6</ele>
        <time>2025-05-25T07:27:05Z</time>
      </trkpt>
      <trkpt lat="45.13384" lon="0.68288">
        <ele>153.8</ele>
        <time>2025-05-25T07:27:06Z</time>
      </trkpt>
      <trkpt lat="45.13384" lon="0.68291">
        <ele>154</ele>
        <time>2025-05-25T07:27:07Z</time>
      </trkpt>
      <trkpt lat="45.13383" lon="0.68293">
        <ele>154.2</ele>
        <time>2025-05-25T07:27:08Z</time>
      </trkpt>
      <trkpt lat="45.13382" lon="0.68295">
        <ele>154.4</ele>
        <time>2025-05-25T07:27:09Z</time>
      </trkpt>
      <trkpt lat="45.13381" lon="0.68297">
        <ele>154.6</ele>
        <time>2025-05-25T07:27:10Z</time>
      </trkpt>
      <trkpt lat="45.1338" lon="0.68299">
        <ele>154.8</ele>
        <time>2025-05-25T07:27:11Z</time>
      </trkpt>
      <trkpt lat="45.13379" lon="0.68302">
        <ele>155</ele>
        <time>2025-05-25T07:27:12Z</time>
      </trkpt>
      <trkpt lat="45.13379" lon="0.68304">
        <ele>155.4</ele>
        <time>2025-05-25T07:27:13Z</time>
      </trkpt>
      <trkpt lat="45.13378" lon="0.68306">
        <ele>155.6</ele>
        <time>2025-05-25T07:27:14Z</time>
      </trkpt>
      <trkpt lat="45.13377" lon="0.68308">
        <ele>155.8</ele>
        <time>2025-05-25T07:27:15Z</time>
      </trkpt>
      <trkpt lat="45.13376" lon="0.68311">
        <ele>156</ele>
        <time>2025-05-25T07:27:16Z</time>
      </trkpt>
      <trkpt lat="45.13375" lon="0.68313">
        <ele>156.2</ele>
        <time>2025-05-25T07:27:17Z</time>
      </trkpt>
      <trkpt lat="45.13374" lon="0.68315">
        <ele>156.4</ele>
        <time>2025-05-25T07:27:18Z</time>
      </trkpt>
      <trkpt lat="45.13374" lon="0.68317">
        <ele>156.6</ele>
        <time>2025-05-25T07:27:19Z</time>
      </trkpt>
      <trkpt lat="45.13373" lon="0.68319">
        <ele>156.8</ele>
        <time>2025-05-25T07:27:20Z</time>
      </trkpt>
      <trkpt lat="45.13372" lon="0.68321">
        <ele>157</ele>
        <time>2025-05-25T07:27:21Z</time>
      </trkpt>
      <trkpt lat="45.13371" lon="0.68323">
        <ele>157.2</ele>
        <time>2025-05-25T07:27:22Z</time>
      </trkpt>
      <trkpt lat="45.1337" lon="0.68325">
        <ele>157.4</ele>
        <time>2025-05-25T07:27:23Z</time>
      </trkpt>
      <trkpt lat="45.13369" lon="0.68327">
        <ele>157.6</ele>
        <time>2025-05-25T07:27:24Z</time>
      </trkpt>
      <trkpt lat="45.13369" lon="0.68329">
        <ele>157.8</ele>
        <time>2025-05-25T07:27:25Z</time>
      </trkpt>
      <trkpt lat="45.13368" lon="0.68331">
        <ele>158</ele>
        <time>2025-05-25T07:27:26Z</time>
      </trkpt>
      <trkpt lat="45.13367" lon="0.68332">
        <ele>158.2</ele>
        <time>2025-05-25T07:27:27Z</time>
      </trkpt>
      <trkpt lat="45.13366" lon="0.68334">
        <ele>158.4</ele>
        <time>2025-05-25T07:27:28Z</time>
      </trkpt>
      <trkpt lat="45.13365" lon="0.68336">
        <ele>158.6</ele>
        <time>2025-05-25T07:27:29Z</time>
      </trkpt>
      <trkpt lat="45.13364" lon="0.68338">
        <ele>158.8</ele>
        <time>2025-05-25T07:27:30Z</time>
      </trkpt>
      <trkpt lat="45.13363" lon="0.6834">
        <ele>159</ele>
        <time>2025-05-25T07:27:31Z</time>
      </trkpt>
      <trkpt lat="45.13362" lon="0.68342">
        <ele>159.2</ele>
        <time>2025-05-25T07:27:32Z</time>
      </trkpt>
      <trkpt lat="45.13361" lon="0.68344">
        <ele>159.4</ele>
        <time>2025-05-25T07:27:33Z</time>
      </trkpt>
      <trkpt lat="45.1336" lon="0.68346">
        <ele>159.6</ele>
        <time>2025-05-25T07:27:34Z</time>
      </trkpt>
      <trkpt lat="45.13359" lon="0.68349">
        <ele>159.8</ele>
        <time>2025-05-25T07:27:35Z</time>
      </trkpt>
      <trkpt lat="45.13359" lon="0.68351">
        <ele>160</ele>
        <time>2025-05-25T07:27:36Z</time>
      </trkpt>
      <trkpt lat="45.13358" lon="0.68353">
        <ele>160</ele>
        <time>2025-05-25T07:27:37Z</time>
      </trkpt>
      <trkpt lat="45.13357" lon="0.68355">
        <ele>160.2</ele>
        <time>2025-05-25T07:27:38Z</time>
      </trkpt>
      <trkpt lat="45.13356" lon="0.68358">
        <ele>160.4</ele>
        <time>2025-05-25T07:27:39Z</time>
      </trkpt>
      <trkpt lat="45.13355" lon="0.6836">
        <ele>160.6</ele>
        <time>2025-05-25T07:27:40Z</time>
      </trkpt>
      <trkpt lat="45.13353" lon="0.68362">
        <ele>160.8</ele>
        <time>2025-05-25T07:27:41Z</time>
      </trkpt>
      <trkpt lat="45.13352" lon="0.68364">
        <ele>161</ele>
        <time>2025-05-25T07:27:42Z</time>
      </trkpt>
      <trkpt lat="45.13351" lon="0.68366">
        <ele>161.2</ele>
        <time>2025-05-25T07:27:43Z</time>
      </trkpt>
      <trkpt lat="45.1335" lon="0.68368">
        <ele>161.4</ele>
        <time>2025-05-25T07:27:44Z</time>
      </trkpt>
      <trkpt lat="45.13349" lon="0.6837">
        <ele>161.6</ele>
        <time>2025-05-25T07:27:45Z</time>
      </trkpt>
      <trkpt lat="45.13348" lon="0.68373">
        <ele>161.8</ele>
        <time>2025-05-25T07:27:46Z</time>
      </trkpt>
      <trkpt lat="45.13347" lon="0.68375">
        <ele>162</ele>
        <time>2025-05-25T07:27:47Z</time>
      </trkpt>
      <trkpt lat="45.13346" lon="0.68377">
        <ele>162.2</ele>
        <time>2025-05-25T07:27:48Z</time>
      </trkpt>
      <trkpt lat="45.13345" lon="0.68379">
        <ele>162.4</ele>
        <time>2025-05-25T07:27:49Z</time>
      </trkpt>
      <trkpt lat="45.13344" lon="0.68381">
        <ele>162.6</ele>
        <time>2025-05-25T07:27:50Z</time>
      </trkpt>
      <trkpt lat="45.13343" lon="0.68382">
        <ele>162.6</ele>
        <time>2025-05-25T07:27:51Z</time>
      </trkpt>
      <trkpt lat="45.13342" lon="0.68384">
        <ele>163</ele>
        <time>2025-05-25T07:27:52Z</time>
      </trkpt>
      <trkpt lat="45.13341" lon="0.68386">
        <ele>163</ele>
        <time>2025-05-25T07:27:53Z</time>
      </trkpt>
      <trkpt lat="45.1334" lon="0.68388">
        <ele>163.2</ele>
        <time>2025-05-25T07:27:54Z</time>
      </trkpt>
      <trkpt lat="45.13339" lon="0.68391">
        <ele>163.4</ele>
        <time>2025-05-25T07:27:55Z</time>
      </trkpt>
      <trkpt lat="45.13338" lon="0.68393">
        <ele>163.6</ele>
        <time>2025-05-25T07:27:56Z</time>
      </trkpt>
      <trkpt lat="45.13337" lon="0.68395">
        <ele>163.8</ele>
        <time>2025-05-25T07:27:57Z</time>
      </trkpt>
      <trkpt lat="45.13336" lon="0.68396">
        <ele>164.2</ele>
        <time>2025-05-25T07:27:58Z</time>
      </trkpt>
      <trkpt lat="45.13336" lon="0.68398">
        <ele>164.4</ele>
        <time>2025-05-25T07:27:59Z</time>
      </trkpt>
      <trkpt lat="45.13335" lon="0.68401">
        <ele>164.6</ele>
        <time>2025-05-25T07:28:00Z</time>
      </trkpt>
      <trkpt lat="45.13334" lon="0.68403">
        <ele>164.8</ele>
        <time>2025-05-25T07:28:01Z</time>
      </trkpt>
      <trkpt lat="45.13332" lon="0.68405">
        <ele>165</ele>
        <time>2025-05-25T07:28:02Z</time>
      </trkpt>
      <trkpt lat="45.13331" lon="0.68407">
        <ele>165.2</ele>
        <time>2025-05-25T07:28:03Z</time>
      </trkpt>
      <trkpt lat="45.1333" lon="0.68409">
        <ele>165.4</ele>
        <time>2025-05-25T07:28:04Z</time>
      </trkpt>
      <trkpt lat="45.13329" lon="0.6841">
        <ele>165.6</ele>
        <time>2025-05-25T07:28:05Z</time>
      </trkpt>
      <trkpt lat="45.13329" lon="0.68412">
        <ele>165.6</ele>
        <time>2025-05-25T07:28:06Z</time>
      </trkpt>
      <trkpt lat="45.13327" lon="0.68414">
        <ele>165.8</ele>
        <time>2025-05-25T07:28:07Z</time>
      </trkpt>
      <trkpt lat="45.13327" lon="0.68416">
        <ele>166</ele>
        <time>2025-05-25T07:28:08Z</time>
      </trkpt>
      <trkpt lat="45.13326" lon="0.68418">
        <ele>166.2</ele>
        <time>2025-05-25T07:28:09Z</time>
      </trkpt>
      <trkpt lat="45.13324" lon="0.6842">
        <ele>166.4</ele>
        <time>2025-05-25T07:28:10Z</time>
      </trkpt>
      <trkpt lat="45.13323" lon="0.68422">
        <ele>166.6</ele>
        <time>2025-05-25T07:28:11Z</time>
      </trkpt>
      <trkpt lat="45.13322" lon="0.68424">
        <ele>166.8</ele>
        <time>2025-05-25T07:28:12Z</time>
      </trkpt>
      <trkpt lat="45.13321" lon="0.68426">
        <ele>167</ele>
        <time>2025-05-25T07:28:13Z</time>
      </trkpt>
      <trkpt lat="45.1332" lon="0.68428">
        <ele>167.2</ele>
        <time>2025-05-25T07:28:14Z</time>
      </trkpt>
      <trkpt lat="45.13319" lon="0.6843">
        <ele>167.4</ele>
        <time>2025-05-25T07:28:15Z</time>
      </trkpt>
      <trkpt lat="45.13318" lon="0.68431">
        <ele>167.6</ele>
        <time>2025-05-25T07:28:16Z</time>
      </trkpt>
      <trkpt lat="45.13317" lon="0.68433">
        <ele>167.8</ele>
        <time>2025-05-25T07:28:17Z</time>
      </trkpt>
      <trkpt lat="45.13317" lon="0.68435">
        <ele>168</ele>
        <time>2025-05-25T07:28:18Z</time>
      </trkpt>
      <trkpt lat="45.13316" lon="0.68437">
        <ele>168.2</ele>
        <time>2025-05-25T07:28:19Z</time>
      </trkpt>
      <trkpt lat="45.13315" lon="0.6844">
        <ele>168.4</ele>
        <time>2025-05-25T07:28:20Z</time>
      </trkpt>
      <trkpt lat="45.13314" lon="0.68442">
        <ele>168.6</ele>
        <time>2025-05-25T07:28:21Z</time>
      </trkpt>
      <trkpt lat="45.13313" lon="0.68444">
        <ele>168.8</ele>
        <time>2025-05-25T07:28:22Z</time>
      </trkpt>
      <trkpt lat="45.13312" lon="0.68446">
        <ele>169</ele>
        <time>2025-05-25T07:28:23Z</time>
      </trkpt>
      <trkpt lat="45.13311" lon="0.68448">
        <ele>169.2</ele>
        <time>2025-05-25T07:28:24Z</time>
      </trkpt>
      <trkpt lat="45.1331" lon="0.6845">
        <ele>169.4</ele>
        <time>2025-05-25T07:28:25Z</time>
      </trkpt>
      <trkpt lat="45.13308" lon="0.68452">
        <ele>169.6</ele>
        <time>2025-05-25T07:28:26Z</time>
      </trkpt>
      <trkpt lat="45.13307" lon="0.68454">
        <ele>169.8</ele>
        <time>2025-05-25T07:28:27Z</time>
      </trkpt>
      <trkpt lat="45.13306" lon="0.68456">
        <ele>170</ele>
        <time>2025-05-25T07:28:28Z</time>
      </trkpt>
      <trkpt lat="45.13305" lon="0.68458">
        <ele>170.2</ele>
        <time>2025-05-25T07:28:29Z</time>
      </trkpt>
      <trkpt lat="45.13305" lon="0.68459">
        <ele>170.4</ele>
        <time>2025-05-25T07:28:30Z</time>
      </trkpt>
      <trkpt lat="45.13304" lon="0.68461">
        <ele>170.8</ele>
        <time>2025-05-25T07:28:31Z</time>
      </trkpt>
      <trkpt lat="45.13303" lon="0.68463">
        <ele>171</ele>
        <time>2025-05-25T07:28:32Z</time>
      </trkpt>
      <trkpt lat="45.13302" lon="0.68465">
        <ele>171.2</ele>
        <time>2025-05-25T07:28:33Z</time>
      </trkpt>
      <trkpt lat="45.13301" lon="0.68466">
        <ele>171.4</ele>
        <time>2025-05-25T07:28:34Z</time>
      </trkpt>
      <trkpt lat="45.133" lon="0.68468">
        <ele>171.6</ele>
        <time>2025-05-25T07:28:35Z</time>
      </trkpt>
      <trkpt lat="45.13298" lon="0.6847">
        <ele>171.8</ele>
        <time>2025-05-25T07:28:36Z</time>
      </trkpt>
      <trkpt lat="45.13298" lon="0.68472">
        <ele>172</ele>
        <time>2025-05-25T07:28:37Z</time>
      </trkpt>
      <trkpt lat="45.13297" lon="0.68474">
        <ele>172.2</ele>
        <time>2025-05-25T07:28:38Z</time>
      </trkpt>
      <trkpt lat="45.13297" lon="0.68476">
        <ele>172.4</ele>
        <time>2025-05-25T07:28:39Z</time>
      </trkpt>
      <trkpt lat="45.13298" lon="0.68479">
        <ele>172.6</ele>
        <time>2025-05-25T07:28:40Z</time>
      </trkpt>
      <trkpt lat="45.13298" lon="0.6848">
        <ele>172.8</ele>
        <time>2025-05-25T07:28:41Z</time>
      </trkpt>
      <trkpt lat="45.13298" lon="0.68482">
        <ele>173</ele>
        <time>2025-05-25T07:28:42Z</time>
      </trkpt>
      <trkpt lat="45.13298" lon="0.68485">
        <ele>173.2</ele>
        <time>2025-05-25T07:28:43Z</time>
      </trkpt>
      <trkpt lat="45.13299" lon="0.68488">
        <ele>173.2</ele>
        <time>2025-05-25T07:28:44Z</time>
      </trkpt>
      <trkpt lat="45.13299" lon="0.68491">
        <ele>173.4</ele>
        <time>2025-05-25T07:28:45Z</time>
      </trkpt>
      <trkpt lat="45.133" lon="0.68494">
        <ele>173.6</ele>
        <time>2025-05-25T07:28:46Z</time>
      </trkpt>
      <trkpt lat="45.13301" lon="0.68496">
        <ele>173.8</ele>
        <time>2025-05-25T07:28:47Z</time>
      </trkpt>
      <trkpt lat="45.13301" lon="0.68499">
        <ele>174</ele>
        <time>2025-05-25T07:28:48Z</time>
      </trkpt>
      <trkpt lat="45.13302" lon="0.68502">
        <ele>174.2</ele>
        <time>2025-05-25T07:28:49Z</time>
      </trkpt>
      <trkpt lat="45.13303" lon="0.68504">
        <ele>174.4</ele>
        <time>2025-05-25T07:28:50Z</time>
      </trkpt>
      <trkpt lat="45.13304" lon="0.68507">
        <ele>174.4</ele>
        <time>2025-05-25T07:28:51Z</time>
      </trkpt>
      <trkpt lat="45.13305" lon="0.68509">
        <ele>174.6</ele>
        <time>2025-05-25T07:28:52Z</time>
      </trkpt>
      <trkpt lat="45.13306" lon="0.68511">
        <ele>174.8</ele>
        <time>2025-05-25T07:28:53Z</time>
      </trkpt>
      <trkpt lat="45.13307" lon="0.68513">
        <ele>174.8</ele>
        <time>2025-05-25T07:28:54Z</time>
      </trkpt>
      <trkpt lat="45.13308" lon="0.68516">
        <ele>175</ele>
        <time>2025-05-25T07:28:55Z</time>
      </trkpt>
      <trkpt lat="45.13309" lon="0.68518">
        <ele>175.2</ele>
        <time>2025-05-25T07:28:56Z</time>
      </trkpt>
      <trkpt lat="45.1331" lon="0.6852">
        <ele>175.2</ele>
        <time>2025-05-25T07:28:57Z</time>
      </trkpt>
      <trkpt lat="45.13311" lon="0.68522">
        <ele>175.4</ele>
        <time>2025-05-25T07:28:58Z</time>
      </trkpt>
      <trkpt lat="45.13313" lon="0.68523">
        <ele>175.6</ele>
        <time>2025-05-25T07:28:59Z</time>
      </trkpt>
      <trkpt lat="45.13314" lon="0.68525">
        <ele>175.6</ele>
        <time>2025-05-25T07:29:00Z</time>
      </trkpt>
      <trkpt lat="45.13315" lon="0.68526">
        <ele>175.8</ele>
        <time>2025-05-25T07:29:01Z</time>
      </trkpt>
      <trkpt lat="45.13316" lon="0.68528">
        <ele>176</ele>
        <time>2025-05-25T07:29:02Z</time>
      </trkpt>
      <trkpt lat="45.13317" lon="0.6853">
        <ele>176.2</ele>
        <time>2025-05-25T07:29:03Z</time>
      </trkpt>
      <trkpt lat="45.13318" lon="0.68531">
        <ele>176.4</ele>
        <time>2025-05-25T07:29:04Z</time>
      </trkpt>
      <trkpt lat="45.13319" lon="0.68533">
        <ele>176.4</ele>
        <time>2025-05-25T07:29:05Z</time>
      </trkpt>
      <trkpt lat="45.1332" lon="0.68534">
        <ele>176.6</ele>
        <time>2025-05-25T07:29:06Z</time>
      </trkpt>
      <trkpt lat="45.13321" lon="0.68536">
        <ele>176.8</ele>
        <time>2025-05-25T07:29:07Z</time>
      </trkpt>
      <trkpt lat="45.13322" lon="0.68538">
        <ele>176.8</ele>
        <time>2025-05-25T07:29:08Z</time>
      </trkpt>
      <trkpt lat="45.13324" lon="0.6854">
        <ele>177</ele>
        <time>2025-05-25T07:29:09Z</time>
      </trkpt>
      <trkpt lat="45.13325" lon="0.68542">
        <ele>177</ele>
        <time>2025-05-25T07:29:10Z</time>
      </trkpt>
      <trkpt lat="45.13326" lon="0.68544">
        <ele>177.2</ele>
        <time>2025-05-25T07:29:11Z</time>
      </trkpt>
      <trkpt lat="45.13326" lon="0.68546">
        <ele>177.4</ele>
        <time>2025-05-25T07:29:12Z</time>
      </trkpt>
      <trkpt lat="45.13328" lon="0.68549">
        <ele>177.4</ele>
        <time>2025-05-25T07:29:13Z</time>
      </trkpt>
      <trkpt lat="45.13329" lon="0.68551">
        <ele>177.6</ele>
        <time>2025-05-25T07:29:14Z</time>
      </trkpt>
      <trkpt lat="45.1333" lon="0.68554">
        <ele>177.8</ele>
        <time>2025-05-25T07:29:15Z</time>
      </trkpt>
      <trkpt lat="45.13332" lon="0.68557">
        <ele>178</ele>
        <time>2025-05-25T07:29:16Z</time>
      </trkpt>
      <trkpt lat="45.13334" lon="0.6856">
        <ele>178.2</ele>
        <time>2025-05-25T07:29:17Z</time>
      </trkpt>
      <trkpt lat="45.13335" lon="0.68562">
        <ele>178.2</ele>
        <time>2025-05-25T07:29:18Z</time>
      </trkpt>
      <trkpt lat="45.13336" lon="0.68565">
        <ele>178.4</ele>
        <time>2025-05-25T07:29:19Z</time>
      </trkpt>
      <trkpt lat="45.13337" lon="0.68567">
        <ele>178.6</ele>
        <time>2025-05-25T07:29:20Z</time>
      </trkpt>
      <trkpt lat="45.13338" lon="0.68568">
        <ele>178.8</ele>
        <time>2025-05-25T07:29:21Z</time>
      </trkpt>
      <trkpt lat="45.1334" lon="0.6857">
        <ele>179</ele>
        <time>2025-05-25T07:29:22Z</time>
      </trkpt>
      <trkpt lat="45.13341" lon="0.68572">
        <ele>179.2</ele>
        <time>2025-05-25T07:29:23Z</time>
      </trkpt>
      <trkpt lat="45.13343" lon="0.68575">
        <ele>179.4</ele>
        <time>2025-05-25T07:29:24Z</time>
      </trkpt>
      <trkpt lat="45.13345" lon="0.68576">
        <ele>179.6</ele>
        <time>2025-05-25T07:29:25Z</time>
      </trkpt>
      <trkpt lat="45.13346" lon="0.68578">
        <ele>179.8</ele>
        <time>2025-05-25T07:29:26Z</time>
      </trkpt>
      <trkpt lat="45.13348" lon="0.68579">
        <ele>180</ele>
        <time>2025-05-25T07:29:27Z</time>
      </trkpt>
      <trkpt lat="45.13349" lon="0.68581">
        <ele>180</ele>
        <time>2025-05-25T07:29:28Z</time>
      </trkpt>
      <trkpt lat="45.13351" lon="0.68582">
        <ele>180.2</ele>
        <time>2025-05-25T07:29:29Z</time>
      </trkpt>
      <trkpt lat="45.13353" lon="0.68584">
        <ele>180.4</ele>
        <time>2025-05-25T07:29:30Z</time>
      </trkpt>
      <trkpt lat="45.13355" lon="0.68586">
        <ele>180.6</ele>
        <time>2025-05-25T07:29:31Z</time>
      </trkpt>
      <trkpt lat="45.13357" lon="0.68587">
        <ele>180.6</ele>
        <time>2025-05-25T07:29:32Z</time>
      </trkpt>
      <trkpt lat="45.13359" lon="0.68588">
        <ele>180.8</ele>
        <time>2025-05-25T07:29:33Z</time>
      </trkpt>
      <trkpt lat="45.13361" lon="0.68589">
        <ele>181</ele>
        <time>2025-05-25T07:29:34Z</time>
      </trkpt>
      <trkpt lat="45.13364" lon="0.6859">
        <ele>181</ele>
        <time>2025-05-25T07:29:35Z</time>
      </trkpt>
      <trkpt lat="45.13366" lon="0.6859">
        <ele>181.2</ele>
        <time>2025-05-25T07:29:36Z</time>
      </trkpt>
      <trkpt lat="45.13368" lon="0.68591">
        <ele>181.4</ele>
        <time>2025-05-25T07:29:37Z</time>
      </trkpt>
      <trkpt lat="45.1337" lon="0.68591">
        <ele>181.4</ele>
        <time>2025-05-25T07:29:38Z</time>
      </trkpt>
      <trkpt lat="45.13372" lon="0.68591">
        <ele>181.6</ele>
        <time>2025-05-25T07:29:39Z</time>
      </trkpt>
      <trkpt lat="45.13374" lon="0.6859">
        <ele>181.6</ele>
        <time>2025-05-25T07:29:40Z</time>
      </trkpt>
      <trkpt lat="45.13377" lon="0.68591">
        <ele>181.6</ele>
        <time>2025-05-25T07:29:41Z</time>
      </trkpt>
      <trkpt lat="45.13379" lon="0.68592">
        <ele>181.6</ele>
        <time>2025-05-25T07:29:42Z</time>
      </trkpt>
      <trkpt lat="45.13381" lon="0.68594">
        <ele>181.6</ele>
        <time>2025-05-25T07:29:43Z</time>
      </trkpt>
      <trkpt lat="45.13381" lon="0.68597">
        <ele>181.6</ele>
        <time>2025-05-25T07:29:44Z</time>
      </trkpt>
      <trkpt lat="45.1338" lon="0.68598">
        <ele>181.6</ele>
        <time>2025-05-25T07:29:45Z</time>
      </trkpt>
      <trkpt lat="45.13379" lon="0.68599">
        <ele>181.8</ele>
        <time>2025-05-25T07:29:46Z</time>
      </trkpt>
      <trkpt lat="45.13378" lon="0.686">
        <ele>182</ele>
        <time>2025-05-25T07:29:47Z</time>
      </trkpt>
      <trkpt lat="45.13377" lon="0.68601">
        <ele>182.4</ele>
        <time>2025-05-25T07:29:48Z</time>
      </trkpt>
      <trkpt lat="45.13376" lon="0.68602">
        <ele>182.6</ele>
        <time>2025-05-25T07:29:49Z</time>
      </trkpt>
      <trkpt lat="45.13374" lon="0.68603">
        <ele>183</ele>
        <time>2025-05-25T07:29:50Z</time>
      </trkpt>
      <trkpt lat="45.13373" lon="0.68604">
        <ele>183.2</ele>
        <time>2025-05-25T07:29:51Z</time>
      </trkpt>
      <trkpt lat="45.13371" lon="0.68605">
        <ele>183.6</ele>
        <time>2025-05-25T07:29:52Z</time>
      </trkpt>
      <trkpt lat="45.1337" lon="0.68606">
        <ele>183.8</ele>
        <time>2025-05-25T07:29:53Z</time>
      </trkpt>
      <trkpt lat="45.13368" lon="0.68607">
        <ele>184</ele>
        <time>2025-05-25T07:29:54Z</time>
      </trkpt>
      <trkpt lat="45.13367" lon="0.68608">
        <ele>184.2</ele>
        <time>2025-05-25T07:29:55Z</time>
      </trkpt>
      <trkpt lat="45.13366" lon="0.68609">
        <ele>184.2</ele>
        <time>2025-05-25T07:29:56Z</time>
      </trkpt>
      <trkpt lat="45.13365" lon="0.68611">
        <ele>184.4</ele>
        <time>2025-05-25T07:29:57Z</time>
      </trkpt>
      <trkpt lat="45.13363" lon="0.68612">
        <ele>184.6</ele>
        <time>2025-05-25T07:29:58Z</time>
      </trkpt>
      <trkpt lat="45.13362" lon="0.68613">
        <ele>184.8</ele>
        <time>2025-05-25T07:29:59Z</time>
      </trkpt>
      <trkpt lat="45.13361" lon="0.68613">
        <ele>185</ele>
        <time>2025-05-25T07:30:00Z</time>
      </trkpt>
      <trkpt lat="45.13359" lon="0.68614">
        <ele>185.2</ele>
        <time>2025-05-25T07:30:01Z</time>
      </trkpt>
      <trkpt lat="45.13358" lon="0.68615">
        <ele>185.4</ele>
        <time>2025-05-25T07:30:02Z</time>
      </trkpt>
      <trkpt lat="45.13357" lon="0.68616">
        <ele>185.6</ele>
        <time>2025-05-25T07:30:03Z</time>
      </trkpt>
      <trkpt lat="45.13355" lon="0.68616">
        <ele>186</ele>
        <time>2025-05-25T07:30:04Z</time>
      </trkpt>
      <trkpt lat="45.13354" lon="0.68616">
        <ele>186.2</ele>
        <time>2025-05-25T07:30:05Z</time>
      </trkpt>
      <trkpt lat="45.13352" lon="0.68617">
        <ele>186.4</ele>
        <time>2025-05-25T07:30:06Z</time>
      </trkpt>
      <trkpt lat="45.13351" lon="0.68617">
        <ele>186.6</ele>
        <time>2025-05-25T07:30:07Z</time>
      </trkpt>
      <trkpt lat="45.13349" lon="0.68618">
        <ele>186.8</ele>
        <time>2025-05-25T07:30:08Z</time>
      </trkpt>
      <trkpt lat="45.13348" lon="0.68619">
        <ele>187</ele>
        <time>2025-05-25T07:30:09Z</time>
      </trkpt>
      <trkpt lat="45.13347" lon="0.6862">
        <ele>187.4</ele>
        <time>2025-05-25T07:30:10Z</time>
      </trkpt>
      <trkpt lat="45.13346" lon="0.68621">
        <ele>187.6</ele>
        <time>2025-05-25T07:30:11Z</time>
      </trkpt>
      <trkpt lat="45.13345" lon="0.68622">
        <ele>187.8</ele>
        <time>2025-05-25T07:30:12Z</time>
      </trkpt>
      <trkpt lat="45.13344" lon="0.68622">
        <ele>188</ele>
        <time>2025-05-25T07:30:13Z</time>
      </trkpt>
      <trkpt lat="45.13343" lon="0.68623">
        <ele>188.2</ele>
        <time>2025-05-25T07:30:14Z</time>
      </trkpt>
      <trkpt lat="45.13341" lon="0.68624">
        <ele>188.6</ele>
        <time>2025-05-25T07:30:15Z</time>
      </trkpt>
      <trkpt lat="45.1334" lon="0.68625">
        <ele>188.8</ele>
        <time>2025-05-25T07:30:16Z</time>
      </trkpt>
      <trkpt lat="45.13339" lon="0.68626">
        <ele>189</ele>
        <time>2025-05-25T07:30:17Z</time>
      </trkpt>
      <trkpt lat="45.13338" lon="0.68627">
        <ele>189.2</ele>
        <time>2025-05-25T07:30:18Z</time>
      </trkpt>
      <trkpt lat="45.13337" lon="0.68628">
        <ele>189.4</ele>
        <time>2025-05-25T07:30:19Z</time>
      </trkpt>
      <trkpt lat="45.13335" lon="0.68629">
        <ele>189.6</ele>
        <time>2025-05-25T07:30:20Z</time>
      </trkpt>
      <trkpt lat="45.13334" lon="0.6863">
        <ele>189.8</ele>
        <time>2025-05-25T07:30:21Z</time>
      </trkpt>
      <trkpt lat="45.13332" lon="0.6863">
        <ele>190</ele>
        <time>2025-05-25T07:30:22Z</time>
      </trkpt>
      <trkpt lat="45.13331" lon="0.68631">
        <ele>190.2</ele>
        <time>2025-05-25T07:30:23Z</time>
      </trkpt>
      <trkpt lat="45.1333" lon="0.68632">
        <ele>190.4</ele>
        <time>2025-05-25T07:30:24Z</time>
      </trkpt>
      <trkpt lat="45.13329" lon="0.68633">
        <ele>190.6</ele>
        <time>2025-05-25T07:30:25Z</time>
      </trkpt>
      <trkpt lat="45.13327" lon="0.68633">
        <ele>191</ele>
        <time>2025-05-25T07:30:26Z</time>
      </trkpt>
      <trkpt lat="45.13326" lon="0.68634">
        <ele>191.2</ele>
        <time>2025-05-25T07:30:27Z</time>
      </trkpt>
      <trkpt lat="45.13324" lon="0.68635">
        <ele>191.4</ele>
        <time>2025-05-25T07:30:28Z</time>
      </trkpt>
      <trkpt lat="45.13323" lon="0.68636">
        <ele>191.6</ele>
        <time>2025-05-25T07:30:29Z</time>
      </trkpt>
      <trkpt lat="45.13322" lon="0.68637">
        <ele>191.8</ele>
        <time>2025-05-25T07:30:30Z</time>
      </trkpt>
      <trkpt lat="45.13321" lon="0.68638">
        <ele>192</ele>
        <time>2025-05-25T07:30:31Z</time>
      </trkpt>
      <trkpt lat="45.1332" lon="0.68638">
        <ele>192.2</ele>
        <time>2025-05-25T07:30:32Z</time>
      </trkpt>
      <trkpt lat="45.13319" lon="0.68639">
        <ele>192.6</ele>
        <time>2025-05-25T07:30:33Z</time>
      </trkpt>
      <trkpt lat="45.13317" lon="0.68639">
        <ele>192.8</ele>
        <time>2025-05-25T07:30:34Z</time>
      </trkpt>
      <trkpt lat="45.13316" lon="0.68639">
        <ele>193</ele>
        <time>2025-05-25T07:30:35Z</time>
      </trkpt>
      <trkpt lat="45.13315" lon="0.6864">
        <ele>193.2</ele>
        <time>2025-05-25T07:30:36Z</time>
      </trkpt>
      <trkpt lat="45.13314" lon="0.68642">
        <ele>193.4</ele>
        <time>2025-05-25T07:30:37Z</time>
      </trkpt>
      <trkpt lat="45.13312" lon="0.68643">
        <ele>193.6</ele>
        <time>2025-05-25T07:30:38Z</time>
      </trkpt>
      <trkpt lat="45.13311" lon="0.68643">
        <ele>193.8</ele>
        <time>2025-05-25T07:30:39Z</time>
      </trkpt>
      <trkpt lat="45.1331" lon="0.68644">
        <ele>194.2</ele>
        <time>2025-05-25T07:30:40Z</time>
      </trkpt>
      <trkpt lat="45.13309" lon="0.68645">
        <ele>194.4</ele>
        <time>2025-05-25T07:30:41Z</time>
      </trkpt>
      <trkpt lat="45.13308" lon="0.68646">
        <ele>194.6</ele>
        <time>2025-05-25T07:30:42Z</time>
      </trkpt>
      <trkpt lat="45.13307" lon="0.68647">
        <ele>194.8</ele>
        <time>2025-05-25T07:30:43Z</time>
      </trkpt>
      <trkpt lat="45.13306" lon="0.68649">
        <ele>195</ele>
        <time>2025-05-25T07:30:44Z</time>
      </trkpt>
      <trkpt lat="45.13305" lon="0.6865">
        <ele>195.4</ele>
        <time>2025-05-25T07:30:45Z</time>
      </trkpt>
      <trkpt lat="45.13304" lon="0.68651">
        <ele>195.6</ele>
        <time>2025-05-25T07:30:46Z</time>
      </trkpt>
      <trkpt lat="45.13303" lon="0.68652">
        <ele>195.8</ele>
        <time>2025-05-25T07:30:47Z</time>
      </trkpt>
      <trkpt lat="45.13301" lon="0.68654">
        <ele>196</ele>
        <time>2025-05-25T07:30:48Z</time>
      </trkpt>
      <trkpt lat="45.13301" lon="0.68654">
        <ele>196.2</ele>
        <time>2025-05-25T07:30:49Z</time>
      </trkpt>
      <trkpt lat="45.133" lon="0.68655">
        <ele>196.4</ele>
        <time>2025-05-25T07:30:50Z</time>
      </trkpt>
      <trkpt lat="45.13298" lon="0.68656">
        <ele>196.6</ele>
        <time>2025-05-25T07:30:51Z</time>
      </trkpt>
      <trkpt lat="45.13298" lon="0.68658">
        <ele>196.8</ele>
        <time>2025-05-25T07:30:52Z</time>
      </trkpt>
      <trkpt lat="45.13297" lon="0.68659">
        <ele>197</ele>
        <time>2025-05-25T07:30:53Z</time>
      </trkpt>
      <trkpt lat="45.13296" lon="0.6866">
        <ele>197.2</ele>
        <time>2025-05-25T07:30:54Z</time>
      </trkpt>
      <trkpt lat="45.13294" lon="0.68661">
        <ele>197.6</ele>
        <time>2025-05-25T07:30:55Z</time>
      </trkpt>
      <trkpt lat="45.13294" lon="0.68662">
        <ele>197.8</ele>
        <time>2025-05-25T07:30:56Z</time>
      </trkpt>
      <trkpt lat="45.13293" lon="0.68664">
        <ele>198</ele>
        <time>2025-05-25T07:30:57Z</time>
      </trkpt>
      <trkpt lat="45.13292" lon="0.68665">
        <ele>198.2</ele>
        <time>2025-05-25T07:30:58Z</time>
      </trkpt>
      <trkpt lat="45.13291" lon="0.68666">
        <ele>198.6</ele>
        <time>2025-05-25T07:30:59Z</time>
      </trkpt>
      <trkpt lat="45.1329" lon="0.68667">
        <ele>198.8</ele>
        <time>2025-05-25T07:31:00Z</time>
      </trkpt>
      <trkpt lat="45.13289" lon="0.68668">
        <ele>199</ele>
        <time>2025-05-25T07:31:01Z</time>
      </trkpt>
      <trkpt lat="45.13288" lon="0.6867">
        <ele>199.2</ele>
        <time>2025-05-25T07:31:02Z</time>
      </trkpt>
      <trkpt lat="45.13288" lon="0.68672">
        <ele>199.4</ele>
        <time>2025-05-25T07:31:03Z</time>
      </trkpt>
      <trkpt lat="45.13287" lon="0.68674">
        <ele>199.6</ele>
        <time>2025-05-25T07:31:04Z</time>
      </trkpt>
      <trkpt lat="45.13286" lon="0.68676">
        <ele>200</ele>
        <time>2025-05-25T07:31:05Z</time>
      </trkpt>
      <trkpt lat="45.13285" lon="0.68677">
        <ele>200.2</ele>
        <time>2025-05-25T07:31:06Z</time>
      </trkpt>
      <trkpt lat="45.13284" lon="0.68678">
        <ele>200.6</ele>
        <time>2025-05-25T07:31:07Z</time>
      </trkpt>
      <trkpt lat="45.13283" lon="0.6868">
        <ele>200.8</ele>
        <time>2025-05-25T07:31:08Z</time>
      </trkpt>
      <trkpt lat="45.13282" lon="0.68681">
        <ele>201</ele>
        <time>2025-05-25T07:31:09Z</time>
      </trkpt>
      <trkpt lat="45.13281" lon="0.68683">
        <ele>201.4</ele>
        <time>2025-05-25T07:31:10Z</time>
      </trkpt>
      <trkpt lat="45.1328" lon="0.68685">
        <ele>201.6</ele>
        <time>2025-05-25T07:31:11Z</time>
      </trkpt>
      <trkpt lat="45.1328" lon="0.68687">
        <ele>201.8</ele>
        <time>2025-05-25T07:31:12Z</time>
      </trkpt>
      <trkpt lat="45.13279" lon="0.68689">
        <ele>202</ele>
        <time>2025-05-25T07:31:13Z</time>
      </trkpt>
      <trkpt lat="45.13278" lon="0.6869">
        <ele>202.2</ele>
        <time>2025-05-25T07:31:14Z</time>
      </trkpt>
      <trkpt lat="45.13277" lon="0.68692">
        <ele>202.4</ele>
        <time>2025-05-25T07:31:15Z</time>
      </trkpt>
      <trkpt lat="45.13277" lon="0.68693">
        <ele>202.8</ele>
        <time>2025-05-25T07:31:16Z</time>
      </trkpt>
      <trkpt lat="45.13276" lon="0.68695">
        <ele>203</ele>
        <time>2025-05-25T07:31:17Z</time>
      </trkpt>
      <trkpt lat="45.13275" lon="0.68697">
        <ele>203.2</ele>
        <time>2025-05-25T07:31:18Z</time>
      </trkpt>
      <trkpt lat="45.13275" lon="0.68699">
        <ele>203.4</ele>
        <time>2025-05-25T07:31:19Z</time>
      </trkpt>
      <trkpt lat="45.13274" lon="0.68701">
        <ele>203.6</ele>
        <time>2025-05-25T07:31:20Z</time>
      </trkpt>
      <trkpt lat="45.13273" lon="0.68703">
        <ele>203.6</ele>
        <time>2025-05-25T07:31:21Z</time>
      </trkpt>
      <trkpt lat="45.13272" lon="0.68705">
        <ele>203.8</ele>
        <time>2025-05-25T07:31:22Z</time>
      </trkpt>
      <trkpt lat="45.13271" lon="0.68707">
        <ele>204</ele>
        <time>2025-05-25T07:31:23Z</time>
      </trkpt>
      <trkpt lat="45.13271" lon="0.68708">
        <ele>204.2</ele>
        <time>2025-05-25T07:31:24Z</time>
      </trkpt>
      <trkpt lat="45.1327" lon="0.6871">
        <ele>204.4</ele>
        <time>2025-05-25T07:31:25Z</time>
      </trkpt>
      <trkpt lat="45.1327" lon="0.68712">
        <ele>204.6</ele>
        <time>2025-05-25T07:31:26Z</time>
      </trkpt>
      <trkpt lat="45.13269" lon="0.68714">
        <ele>204.8</ele>
        <time>2025-05-25T07:31:27Z</time>
      </trkpt>
      <trkpt lat="45.13269" lon="0.68716">
        <ele>205</ele>
        <time>2025-05-25T07:31:28Z</time>
      </trkpt>
      <trkpt lat="45.13268" lon="0.68717">
        <ele>205.2</ele>
        <time>2025-05-25T07:31:29Z</time>
      </trkpt>
      <trkpt lat="45.13268" lon="0.68718">
        <ele>205.6</ele>
        <time>2025-05-25T07:31:30Z</time>
      </trkpt>
      <trkpt lat="45.13268" lon="0.6872">
        <ele>205.8</ele>
        <time>2025-05-25T07:31:31Z</time>
      </trkpt>
      <trkpt lat="45.13268" lon="0.68721">
        <ele>206</ele>
        <time>2025-05-25T07:31:32Z</time>
      </trkpt>
      <trkpt lat="45.13267" lon="0.68723">
        <ele>206.4</ele>
        <time>2025-05-25T07:31:33Z</time>
      </trkpt>
      <trkpt lat="45.13267" lon="0.68725">
        <ele>206.6</ele>
        <time>2025-05-25T07:31:34Z</time>
      </trkpt>
      <trkpt lat="45.13267" lon="0.68727">
        <ele>206.8</ele>
        <time>2025-05-25T07:31:35Z</time>
      </trkpt>
      <trkpt lat="45.13266" lon="0.68729">
        <ele>207.2</ele>
        <time>2025-05-25T07:31:36Z</time>
      </trkpt>
      <trkpt lat="45.13266" lon="0.68731">
        <ele>207.4</ele>
        <time>2025-05-25T07:31:37Z</time>
      </trkpt>
      <trkpt lat="45.13266" lon="0.68734">
        <ele>207.6</ele>
        <time>2025-05-25T07:31:38Z</time>
      </trkpt>
      <trkpt lat="45.13266" lon="0.68736">
        <ele>207.8</ele>
        <time>2025-05-25T07:31:39Z</time>
      </trkpt>
      <trkpt lat="45.13266" lon="0.68738">
        <ele>208</ele>
        <time>2025-05-25T07:31:40Z</time>
      </trkpt>
      <trkpt lat="45.13266" lon="0.68741">
        <ele>208.2</ele>
        <time>2025-05-25T07:31:41Z</time>
      </trkpt>
      <trkpt lat="45.13266" lon="0.68744">
        <ele>208.4</ele>
        <time>2025-05-25T07:31:42Z</time>
      </trkpt>
      <trkpt lat="45.13266" lon="0.68746">
        <ele>208.6</ele>
        <time>2025-05-25T07:31:43Z</time>
      </trkpt>
      <trkpt lat="45.13266" lon="0.68749">
        <ele>208.8</ele>
        <time>2025-05-25T07:31:44Z</time>
      </trkpt>
      <trkpt lat="45.13266" lon="0.68751">
        <ele>209</ele>
        <time>2025-05-25T07:31:45Z</time>
      </trkpt>
      <trkpt lat="45.13266" lon="0.68754">
        <ele>209</ele>
        <time>2025-05-25T07:31:46Z</time>
      </trkpt>
      <trkpt lat="45.13267" lon="0.68756">
        <ele>209.2</ele>
        <time>2025-05-25T07:31:47Z</time>
      </trkpt>
      <trkpt lat="45.13267" lon="0.68758">
        <ele>209.4</ele>
        <time>2025-05-25T07:31:48Z</time>
      </trkpt>
      <trkpt lat="45.13267" lon="0.6876">
        <ele>209.6</ele>
        <time>2025-05-25T07:31:49Z</time>
      </trkpt>
      <trkpt lat="45.13267" lon="0.68762">
        <ele>209.8</ele>
        <time>2025-05-25T07:31:50Z</time>
      </trkpt>
      <trkpt lat="45.13268" lon="0.68764">
        <ele>210</ele>
        <time>2025-05-25T07:31:51Z</time>
      </trkpt>
      <trkpt lat="45.13268" lon="0.68765">
        <ele>210.2</ele>
        <time>2025-05-25T07:31:52Z</time>
      </trkpt>
      <trkpt lat="45.13268" lon="0.68768">
        <ele>210.4</ele>
        <time>2025-05-25T07:31:53Z</time>
      </trkpt>
      <trkpt lat="45.13268" lon="0.6877">
        <ele>210.6</ele>
        <time>2025-05-25T07:31:54Z</time>
      </trkpt>
      <trkpt lat="45.13268" lon="0.68772">
        <ele>210.8</ele>
        <time>2025-05-25T07:31:55Z</time>
      </trkpt>
      <trkpt lat="45.13268" lon="0.68775">
        <ele>211</ele>
        <time>2025-05-25T07:31:56Z</time>
      </trkpt>
      <trkpt lat="45.13268" lon="0.68777">
        <ele>211.2</ele>
        <time>2025-05-25T07:31:57Z</time>
      </trkpt>
      <trkpt lat="45.13268" lon="0.6878">
        <ele>211.4</ele>
        <time>2025-05-25T07:31:58Z</time>
      </trkpt>
      <trkpt lat="45.13269" lon="0.68782">
        <ele>211.6</ele>
        <time>2025-05-25T07:31:59Z</time>
      </trkpt>
      <trkpt lat="45.13269" lon="0.68784">
        <ele>211.8</ele>
        <time>2025-05-25T07:32:00Z</time>
      </trkpt>
      <trkpt lat="45.1327" lon="0.68787">
        <ele>212</ele>
        <time>2025-05-25T07:32:01Z</time>
      </trkpt>
      <trkpt lat="45.1327" lon="0.68789">
        <ele>212.2</ele>
        <time>2025-05-25T07:32:02Z</time>
      </trkpt>
      <trkpt lat="45.13271" lon="0.68793">
        <ele>212.4</ele>
        <time>2025-05-25T07:32:03Z</time>
      </trkpt>
      <trkpt lat="45.13271" lon="0.68796">
        <ele>212.6</ele>
        <time>2025-05-25T07:32:04Z</time>
      </trkpt>
      <trkpt lat="45.13272" lon="0.68799">
        <ele>212.8</ele>
        <time>2025-05-25T07:32:05Z</time>
      </trkpt>
      <trkpt lat="45.13273" lon="0.68802">
        <ele>213</ele>
        <time>2025-05-25T07:32:06Z</time>
      </trkpt>
      <trkpt lat="45.13273" lon="0.68805">
        <ele>213.2</ele>
        <time>2025-05-25T07:32:07Z</time>
      </trkpt>
      <trkpt lat="45.13274" lon="0.68807">
        <ele>213.4</ele>
        <time>2025-05-25T07:32:08Z</time>
      </trkpt>
      <trkpt lat="45.13275" lon="0.6881">
        <ele>213.4</ele>
        <time>2025-05-25T07:32:09Z</time>
      </trkpt>
      <trkpt lat="45.13276" lon="0.68813">
        <ele>213.6</ele>
        <time>2025-05-25T07:32:10Z</time>
      </trkpt>
      <trkpt lat="45.13276" lon="0.68815">
        <ele>213.8</ele>
        <time>2025-05-25T07:32:11Z</time>
      </trkpt>
      <trkpt lat="45.13277" lon="0.68818">
        <ele>214</ele>
        <time>2025-05-25T07:32:12Z</time>
      </trkpt>
      <trkpt lat="45.13278" lon="0.68821">
        <ele>214.2</ele>
        <time>2025-05-25T07:32:13Z</time>
      </trkpt>
      <trkpt lat="45.13278" lon="0.68824">
        <ele>214.2</ele>
        <time>2025-05-25T07:32:14Z</time>
      </trkpt>
      <trkpt lat="45.13279" lon="0.68826">
        <ele>214.4</ele>
        <time>2025-05-25T07:32:15Z</time>
      </trkpt>
      <trkpt lat="45.13279" lon="0.68829">
        <ele>214.6</ele>
        <time>2025-05-25T07:32:16Z</time>
      </trkpt>
      <trkpt lat="45.1328" lon="0.68832">
        <ele>214.6</ele>
        <time>2025-05-25T07:32:17Z</time>
      </trkpt>
      <trkpt lat="45.1328" lon="0.68835">
        <ele>214.8</ele>
        <time>2025-05-25T07:32:18Z</time>
      </trkpt>
      <trkpt lat="45.13281" lon="0.68838">
        <ele>214.8</ele>
        <time>2025-05-25T07:32:19Z</time>
      </trkpt>
      <trkpt lat="45.13281" lon="0.68842">
        <ele>215</ele>
        <time>2025-05-25T07:32:20Z</time>
      </trkpt>
      <trkpt lat="45.13282" lon="0.68845">
        <ele>215</ele>
        <time>2025-05-25T07:32:21Z</time>
      </trkpt>
      <trkpt lat="45.13282" lon="0.68848">
        <ele>215</ele>
        <time>2025-05-25T07:32:22Z</time>
      </trkpt>
      <trkpt lat="45.13283" lon="0.68852">
        <ele>215.2</ele>
        <time>2025-05-25T07:32:23Z</time>
      </trkpt>
      <trkpt lat="45.13284" lon="0.68855">
        <ele>215.2</ele>
        <time>2025-05-25T07:32:24Z</time>
      </trkpt>
      <trkpt lat="45.13285" lon="0.68859">
        <ele>215.4</ele>
        <time>2025-05-25T07:32:25Z</time>
      </trkpt>
      <trkpt lat="45.13285" lon="0.68863">
        <ele>215.4</ele>
        <time>2025-05-25T07:32:26Z</time>
      </trkpt>
      <trkpt lat="45.13286" lon="0.68867">
        <ele>215.6</ele>
        <time>2025-05-25T07:32:27Z</time>
      </trkpt>
      <trkpt lat="45.13287" lon="0.68871">
        <ele>215.6</ele>
        <time>2025-05-25T07:32:28Z</time>
      </trkpt>
      <trkpt lat="45.13288" lon="0.68876">
        <ele>215.6</ele>
        <time>2025-05-25T07:32:29Z</time>
      </trkpt>
      <trkpt lat="45.13288" lon="0.6888">
        <ele>215.8</ele>
        <time>2025-05-25T07:32:30Z</time>
      </trkpt>
      <trkpt lat="45.13289" lon="0.68885">
        <ele>215.8</ele>
        <time>2025-05-25T07:32:31Z</time>
      </trkpt>
      <trkpt lat="45.1329" lon="0.6889">
        <ele>215.8</ele>
        <time>2025-05-25T07:32:32Z</time>
      </trkpt>
      <trkpt lat="45.13291" lon="0.68894">
        <ele>215.8</ele>
        <time>2025-05-25T07:32:33Z</time>
      </trkpt>
      <trkpt lat="45.13292" lon="0.689">
        <ele>215.8</ele>
        <time>2025-05-25T07:32:34Z</time>
      </trkpt>
      <trkpt lat="45.13293" lon="0.68904">
        <ele>215.8</ele>
        <time>2025-05-25T07:32:35Z</time>
      </trkpt>
      <trkpt lat="45.13294" lon="0.6891">
        <ele>215.6</ele>
        <time>2025-05-25T07:32:36Z</time>
      </trkpt>
      <trkpt lat="45.13295" lon="0.68915">
        <ele>215.6</ele>
        <time>2025-05-25T07:32:37Z</time>
      </trkpt>
      <trkpt lat="45.13296" lon="0.68921">
        <ele>215.6</ele>
        <time>2025-05-25T07:32:38Z</time>
      </trkpt>
      <trkpt lat="45.13297" lon="0.68927">
        <ele>215.6</ele>
        <time>2025-05-25T07:32:39Z</time>
      </trkpt>
      <trkpt lat="45.13299" lon="0.68932">
        <ele>215.6</ele>
        <time>2025-05-25T07:32:40Z</time>
      </trkpt>
      <trkpt lat="45.133" lon="0.68938">
        <ele>215.6</ele>
        <time>2025-05-25T07:32:41Z</time>
      </trkpt>
      <trkpt lat="45.13301" lon="0.68943">
        <ele>215.4</ele>
        <time>2025-05-25T07:32:42Z</time>
      </trkpt>
      <trkpt lat="45.13302" lon="0.68948">
        <ele>215.4</ele>
        <time>2025-05-25T07:32:43Z</time>
      </trkpt>
      <trkpt lat="45.13302" lon="0.68953">
        <ele>215.4</ele>
        <time>2025-05-25T07:32:44Z</time>
      </trkpt>
      <trkpt lat="45.133" lon="0.68956">
        <ele>215.4</ele>
        <time>2025-05-25T07:32:45Z</time>
      </trkpt>
      <trkpt lat="45.13298" lon="0.68959">
        <ele>215.2</ele>
        <time>2025-05-25T07:32:46Z</time>
      </trkpt>
      <trkpt lat="45.13295" lon="0.68963">
        <ele>215.2</ele>
        <time>2025-05-25T07:32:47Z</time>
      </trkpt>
      <trkpt lat="45.13292" lon="0.68967">
        <ele>215</ele>
        <time>2025-05-25T07:32:48Z</time>
      </trkpt>
      <trkpt lat="45.13289" lon="0.68971">
        <ele>214.8</ele>
        <time>2025-05-25T07:32:49Z</time>
      </trkpt>
      <trkpt lat="45.13285" lon="0.68976">
        <ele>214.8</ele>
        <time>2025-05-25T07:32:50Z</time>
      </trkpt>
      <trkpt lat="45.13281" lon="0.68981">
        <ele>214.6</ele>
        <time>2025-05-25T07:32:51Z</time>
      </trkpt>
      <trkpt lat="45.13278" lon="0.68986">
        <ele>214.6</ele>
        <time>2025-05-25T07:32:52Z</time>
      </trkpt>
      <trkpt lat="45.13274" lon="0.68991">
        <ele>214.4</ele>
        <time>2025-05-25T07:32:53Z</time>
      </trkpt>
      <trkpt lat="45.13271" lon="0.68995">
        <ele>214.4</ele>
        <time>2025-05-25T07:32:54Z</time>
      </trkpt>
      <trkpt lat="45.13267" lon="0.69001">
        <ele>214.4</ele>
        <time>2025-05-25T07:32:55Z</time>
      </trkpt>
      <trkpt lat="45.13264" lon="0.69005">
        <ele>214.2</ele>
        <time>2025-05-25T07:32:56Z</time>
      </trkpt>
      <trkpt lat="45.1326" lon="0.6901">
        <ele>214.2</ele>
        <time>2025-05-25T07:32:57Z</time>
      </trkpt>
      <trkpt lat="45.13257" lon="0.69015">
        <ele>214.2</ele>
        <time>2025-05-25T07:32:58Z</time>
      </trkpt>
      <trkpt lat="45.13253" lon="0.69019">
        <ele>214</ele>
        <time>2025-05-25T07:32:59Z</time>
      </trkpt>
      <trkpt lat="45.13249" lon="0.69024">
        <ele>214</ele>
        <time>2025-05-25T07:33:00Z</time>
      </trkpt>
      <trkpt lat="45.13245" lon="0.69029">
        <ele>213.8</ele>
        <time>2025-05-25T07:33:01Z</time>
      </trkpt>
      <trkpt lat="45.13241" lon="0.69034">
        <ele>213.8</ele>
        <time>2025-05-25T07:33:02Z</time>
      </trkpt>
      <trkpt lat="45.13237" lon="0.69039">
        <ele>213.6</ele>
        <time>2025-05-25T07:33:03Z</time>
      </trkpt>
      <trkpt lat="45.13233" lon="0.69044">
        <ele>213.6</ele>
        <time>2025-05-25T07:33:04Z</time>
      </trkpt>
      <trkpt lat="45.13229" lon="0.69049">
        <ele>213.6</ele>
        <time>2025-05-25T07:33:05Z</time>
      </trkpt>
      <trkpt lat="45.13225" lon="0.69054">
        <ele>213.6</ele>
        <time>2025-05-25T07:33:06Z</time>
      </trkpt>
      <trkpt lat="45.13221" lon="0.6906">
        <ele>213.6</ele>
        <time>2025-05-25T07:33:07Z</time>
      </trkpt>
      <trkpt lat="45.13217" lon="0.69065">
        <ele>213.4</ele>
        <time>2025-05-25T07:33:08Z</time>
      </trkpt>
      <trkpt lat="45.13212" lon="0.69071">
        <ele>213.4</ele>
        <time>2025-05-25T07:33:09Z</time>
      </trkpt>
      <trkpt lat="45.13208" lon="0.69076">
        <ele>213.2</ele>
        <time>2025-05-25T07:33:10Z</time>
      </trkpt>
      <trkpt lat="45.13203" lon="0.6908">
        <ele>213</ele>
        <time>2025-05-25T07:33:11Z</time>
      </trkpt>
      <trkpt lat="45.13198" lon="0.69084">
        <ele>213</ele>
        <time>2025-05-25T07:33:12Z</time>
      </trkpt>
      <trkpt lat="45.13193" lon="0.69089">
        <ele>212.8</ele>
        <time>2025-05-25T07:33:13Z</time>
      </trkpt>
      <trkpt lat="45.13188" lon="0.69093">
        <ele>212.6</ele>
        <time>2025-05-25T07:33:14Z</time>
      </trkpt>
      <trkpt lat="45.13183" lon="0.69099">
        <ele>212.4</ele>
        <time>2025-05-25T07:33:15Z</time>
      </trkpt>
      <trkpt lat="45.13178" lon="0.69104">
        <ele>212.4</ele>
        <time>2025-05-25T07:33:16Z</time>
      </trkpt>
      <trkpt lat="45.13173" lon="0.69109">
        <ele>212.2</ele>
        <time>2025-05-25T07:33:17Z</time>
      </trkpt>
      <trkpt lat="45.13167" lon="0.69115">
        <ele>212</ele>
        <time>2025-05-25T07:33:18Z</time>
      </trkpt>
      <trkpt lat="45.13162" lon="0.6912">
        <ele>211.8</ele>
        <time>2025-05-25T07:33:19Z</time>
      </trkpt>
      <trkpt lat="45.13156" lon="0.69125">
        <ele>211.6</ele>
        <time>2025-05-25T07:33:20Z</time>
      </trkpt>
      <trkpt lat="45.13149" lon="0.69131">
        <ele>211.2</ele>
        <time>2025-05-25T07:33:21Z</time>
      </trkpt>
      <trkpt lat="45.13143" lon="0.69136">
        <ele>210.8</ele>
        <time>2025-05-25T07:33:22Z</time>
      </trkpt>
      <trkpt lat="45.13136" lon="0.69141">
        <ele>210.2</ele>
        <time>2025-05-25T07:33:23Z</time>
      </trkpt>
      <trkpt lat="45.13129" lon="0.69146">
        <ele>209.6</ele>
        <time>2025-05-25T07:33:24Z</time>
      </trkpt>
      <trkpt lat="45.13123" lon="0.69152">
        <ele>209.2</ele>
        <time>2025-05-25T07:33:25Z</time>
      </trkpt>
      <trkpt lat="45.13118" lon="0.69157">
        <ele>208.6</ele>
        <time>2025-05-25T07:33:26Z</time>
      </trkpt>
      <trkpt lat="45.13113" lon="0.69164">
        <ele>208</ele>
        <time>2025-05-25T07:33:27Z</time>
      </trkpt>
      <trkpt lat="45.1311" lon="0.69171">
        <ele>207.4</ele>
        <time>2025-05-25T07:33:28Z</time>
      </trkpt>
      <trkpt lat="45.13108" lon="0.6918">
        <ele>206.4</ele>
        <time>2025-05-25T07:33:29Z</time>
      </trkpt>
      <trkpt lat="45.13108" lon="0.69189">
        <ele>205.2</ele>
        <time>2025-05-25T07:33:30Z</time>
      </trkpt>
      <trkpt lat="45.13106" lon="0.69198">
        <ele>204.4</ele>
        <time>2025-05-25T07:33:31Z</time>
      </trkpt>
      <trkpt lat="45.13102" lon="0.69206">
        <ele>203.6</ele>
        <time>2025-05-25T07:33:32Z</time>
      </trkpt>
      <trkpt lat="45.13099" lon="0.69213">
        <ele>203</ele>
        <time>2025-05-25T07:33:33Z</time>
      </trkpt>
      <trkpt lat="45.13096" lon="0.69219">
        <ele>202.4</ele>
        <time>2025-05-25T07:33:34Z</time>
      </trkpt>
      <trkpt lat="45.13091" lon="0.69224">
        <ele>201.6</ele>
        <time>2025-05-25T07:33:35Z</time>
      </trkpt>
      <trkpt lat="45.13086" lon="0.69226">
        <ele>201</ele>
        <time>2025-05-25T07:33:36Z</time>
      </trkpt>
      <trkpt lat="45.13082" lon="0.69224">
        <ele>200.4</ele>
        <time>2025-05-25T07:33:37Z</time>
      </trkpt>
      <trkpt lat="45.13078" lon="0.6922">
        <ele>200</ele>
        <time>2025-05-25T07:33:38Z</time>
      </trkpt>
      <trkpt lat="45.13075" lon="0.69215">
        <ele>199.6</ele>
        <time>2025-05-25T07:33:39Z</time>
      </trkpt>
      <trkpt lat="45.13071" lon="0.6921">
        <ele>199.4</ele>
        <time>2025-05-25T07:33:40Z</time>
      </trkpt>
      <trkpt lat="45.13067" lon="0.69203">
        <ele>199</ele>
        <time>2025-05-25T07:33:41Z</time>
      </trkpt>
      <trkpt lat="45.13063" lon="0.69196">
        <ele>198.4</ele>
        <time>2025-05-25T07:33:42Z</time>
      </trkpt>
      <trkpt lat="45.1306" lon="0.69187">
        <ele>198</ele>
        <time>2025-05-25T07:33:43Z</time>
      </trkpt>
      <trkpt lat="45.13057" lon="0.69179">
        <ele>197.4</ele>
        <time>2025-05-25T07:33:44Z</time>
      </trkpt>
      <trkpt lat="45.13051" lon="0.69174">
        <ele>196.4</ele>
        <time>2025-05-25T07:33:45Z</time>
      </trkpt>
      <trkpt lat="45.13044" lon="0.69171">
        <ele>195.4</ele>
        <time>2025-05-25T07:33:46Z</time>
      </trkpt>
      <trkpt lat="45.13035" lon="0.69171">
        <ele>194.4</ele>
        <time>2025-05-25T07:33:47Z</time>
      </trkpt>
      <trkpt lat="45.13025" lon="0.69169">
        <ele>192.2</ele>
        <time>2025-05-25T07:33:48Z</time>
      </trkpt>
      <trkpt lat="45.13015" lon="0.69168">
        <ele>190</ele>
        <time>2025-05-25T07:33:49Z</time>
      </trkpt>
      <trkpt lat="45.13005" lon="0.69166">
        <ele>187</ele>
        <time>2025-05-25T07:33:50Z</time>
      </trkpt>
      <trkpt lat="45.12996" lon="0.69164">
        <ele>184.2</ele>
        <time>2025-05-25T07:33:51Z</time>
      </trkpt>
      <trkpt lat="45.1299" lon="0.69158">
        <ele>183</ele>
        <time>2025-05-25T07:33:52Z</time>
      </trkpt>
      <trkpt lat="45.12985" lon="0.69151">
        <ele>182.4</ele>
        <time>2025-05-25T07:33:53Z</time>
      </trkpt>
      <trkpt lat="45.12982" lon="0.69143">
        <ele>181.6</ele>
        <time>2025-05-25T07:33:54Z</time>
      </trkpt>
      <trkpt lat="45.12979" lon="0.69136">
        <ele>180.4</ele>
        <time>2025-05-25T07:33:55Z</time>
      </trkpt>
      <trkpt lat="45.12979" lon="0.69129">
        <ele>179.2</ele>
        <time>2025-05-25T07:33:56Z</time>
      </trkpt>
      <trkpt lat="45.12982" lon="0.69121">
        <ele>177.2</ele>
        <time>2025-05-25T07:33:57Z</time>
      </trkpt>
      <trkpt lat="45.12988" lon="0.69115">
        <ele>175.4</ele>
        <time>2025-05-25T07:33:58Z</time>
      </trkpt>
      <trkpt lat="45.12995" lon="0.69111">
        <ele>174.4</ele>
        <time>2025-05-25T07:33:59Z</time>
      </trkpt>
      <trkpt lat="45.13002" lon="0.69106">
        <ele>173.2</ele>
        <time>2025-05-25T07:34:00Z</time>
      </trkpt>
      <trkpt lat="45.13007" lon="0.69098">
        <ele>172.4</ele>
        <time>2025-05-25T07:34:01Z</time>
      </trkpt>
      <trkpt lat="45.13007" lon="0.69089">
        <ele>171.8</ele>
        <time>2025-05-25T07:34:02Z</time>
      </trkpt>
      <trkpt lat="45.13004" lon="0.69079">
        <ele>171.2</ele>
        <time>2025-05-25T07:34:03Z</time>
      </trkpt>
      <trkpt lat="45.13002" lon="0.69068">
        <ele>170.8</ele>
        <time>2025-05-25T07:34:04Z</time>
      </trkpt>
      <trkpt lat="45.12999" lon="0.69056">
        <ele>170.2</ele>
        <time>2025-05-25T07:34:05Z</time>
      </trkpt>
      <trkpt lat="45.12997" lon="0.69044">
        <ele>169</ele>
        <time>2025-05-25T07:34:06Z</time>
      </trkpt>
      <trkpt lat="45.12995" lon="0.69033">
        <ele>167.8</ele>
        <time>2025-05-25T07:34:07Z</time>
      </trkpt>
      <trkpt lat="45.12993" lon="0.69022">
        <ele>166.2</ele>
        <time>2025-05-25T07:34:08Z</time>
      </trkpt>
      <trkpt lat="45.1299" lon="0.69012">
        <ele>164.6</ele>
        <time>2025-05-25T07:34:09Z</time>
      </trkpt>
      <trkpt lat="45.12988" lon="0.69001">
        <ele>163.4</ele>
        <time>2025-05-25T07:34:10Z</time>
      </trkpt>
      <trkpt lat="45.12987" lon="0.68991">
        <ele>162</ele>
        <time>2025-05-25T07:34:11Z</time>
      </trkpt>
      <trkpt lat="45.12986" lon="0.6898">
        <ele>160.8</ele>
        <time>2025-05-25T07:34:12Z</time>
      </trkpt>
      <trkpt lat="45.12986" lon="0.6897">
        <ele>159.2</ele>
        <time>2025-05-25T07:34:13Z</time>
      </trkpt>
      <trkpt lat="45.12987" lon="0.68959">
        <ele>157</ele>
        <time>2025-05-25T07:34:14Z</time>
      </trkpt>
      <trkpt lat="45.12988" lon="0.68947">
        <ele>156</ele>
        <time>2025-05-25T07:34:15Z</time>
      </trkpt>
      <trkpt lat="45.12989" lon="0.68935">
        <ele>155</ele>
        <time>2025-05-25T07:34:16Z</time>
      </trkpt>
      <trkpt lat="45.1299" lon="0.68923">
        <ele>154</ele>
        <time>2025-05-25T07:34:17Z</time>
      </trkpt>
      <trkpt lat="45.12989" lon="0.6891">
        <ele>153</ele>
        <time>2025-05-25T07:34:18Z</time>
      </trkpt>
      <trkpt lat="45.12988" lon="0.68898">
        <ele>152</ele>
        <time>2025-05-25T07:34:19Z</time>
      </trkpt>
      <trkpt lat="45.12985" lon="0.68886">
        <ele>151</ele>
        <time>2025-05-25T07:34:20Z</time>
      </trkpt>
      <trkpt lat="45.12982" lon="0.68874">
        <ele>150</ele>
        <time>2025-05-25T07:34:21Z</time>
      </trkpt>
      <trkpt lat="45.12979" lon="0.68861">
        <ele>149.4</ele>
        <time>2025-05-25T07:34:22Z</time>
      </trkpt>
      <trkpt lat="45.12977" lon="0.68849">
        <ele>148.4</ele>
        <time>2025-05-25T07:34:23Z</time>
      </trkpt>
      <trkpt lat="45.12973" lon="0.68838">
        <ele>147.6</ele>
        <time>2025-05-25T07:34:24Z</time>
      </trkpt>
      <trkpt lat="45.12969" lon="0.68828">
        <ele>146.6</ele>
        <time>2025-05-25T07:34:25Z</time>
      </trkpt>
      <trkpt lat="45.12965" lon="0.68819">
        <ele>146</ele>
        <time>2025-05-25T07:34:26Z</time>
      </trkpt>
      <trkpt lat="45.1296" lon="0.6881">
        <ele>145.2</ele>
        <time>2025-05-25T07:34:27Z</time>
      </trkpt>
      <trkpt lat="45.12954" lon="0.68803">
        <ele>144.6</ele>
        <time>2025-05-25T07:34:28Z</time>
      </trkpt>
      <trkpt lat="45.12948" lon="0.68797">
        <ele>143.8</ele>
        <time>2025-05-25T07:34:29Z</time>
      </trkpt>
      <trkpt lat="45.12943" lon="0.68789">
        <ele>143</ele>
        <time>2025-05-25T07:34:30Z</time>
      </trkpt>
      <trkpt lat="45.12938" lon="0.68781">
        <ele>141.4</ele>
        <time>2025-05-25T07:34:31Z</time>
      </trkpt>
      <trkpt lat="45.12933" lon="0.68772">
        <ele>140.2</ele>
        <time>2025-05-25T07:34:32Z</time>
      </trkpt>
      <trkpt lat="45.1293" lon="0.68763">
        <ele>139.2</ele>
        <time>2025-05-25T07:34:33Z</time>
      </trkpt>
      <trkpt lat="45.12927" lon="0.68755">
        <ele>138.6</ele>
        <time>2025-05-25T07:34:34Z</time>
      </trkpt>
      <trkpt lat="45.12925" lon="0.68748">
        <ele>137.8</ele>
        <time>2025-05-25T07:34:35Z</time>
      </trkpt>
      <trkpt lat="45.12921" lon="0.68743">
        <ele>137.2</ele>
        <time>2025-05-25T07:34:36Z</time>
      </trkpt>
      <trkpt lat="45.12918" lon="0.68743">
        <ele>136.8</ele>
        <time>2025-05-25T07:34:37Z</time>
      </trkpt>
      <trkpt lat="45.12914" lon="0.68744">
        <ele>136.4</ele>
        <time>2025-05-25T07:34:38Z</time>
      </trkpt>
      <trkpt lat="45.12911" lon="0.68747">
        <ele>136.2</ele>
        <time>2025-05-25T07:34:39Z</time>
      </trkpt>
      <trkpt lat="45.12908" lon="0.6875">
        <ele>136.2</ele>
        <time>2025-05-25T07:34:40Z</time>
      </trkpt>
      <trkpt lat="45.12905" lon="0.68753">
        <ele>136.2</ele>
        <time>2025-05-25T07:34:41Z</time>
      </trkpt>
      <trkpt lat="45.12902" lon="0.68754">
        <ele>136</ele>
        <time>2025-05-25T07:34:42Z</time>
      </trkpt>
      <trkpt lat="45.12899" lon="0.68752">
        <ele>135.8</ele>
        <time>2025-05-25T07:34:43Z</time>
      </trkpt>
      <trkpt lat="45.12896" lon="0.68747">
        <ele>135.8</ele>
        <time>2025-05-25T07:34:44Z</time>
      </trkpt>
      <trkpt lat="45.12894" lon="0.68742">
        <ele>135.6</ele>
        <time>2025-05-25T07:34:45Z</time>
      </trkpt>
      <trkpt lat="45.12892" lon="0.68736">
        <ele>135.4</ele>
        <time>2025-05-25T07:34:46Z</time>
      </trkpt>
      <trkpt lat="45.12889" lon="0.68729">
        <ele>135</ele>
        <time>2025-05-25T07:34:47Z</time>
      </trkpt>
      <trkpt lat="45.12887" lon="0.68722">
        <ele>134.6</ele>
        <time>2025-05-25T07:34:48Z</time>
      </trkpt>
      <trkpt lat="45.12884" lon="0.68715">
        <ele>134</ele>
        <time>2025-05-25T07:34:49Z</time>
      </trkpt>
      <trkpt lat="45.12881" lon="0.68708">
        <ele>133.6</ele>
        <time>2025-05-25T07:34:50Z</time>
      </trkpt>
      <trkpt lat="45.12878" lon="0.68701">
        <ele>133.2</ele>
        <time>2025-05-25T07:34:51Z</time>
      </trkpt>
      <trkpt lat="45.12874" lon="0.68693">
        <ele>133</ele>
        <time>2025-05-25T07:34:52Z</time>
      </trkpt>
      <trkpt lat="45.12871" lon="0.68686">
        <ele>132.8</ele>
        <time>2025-05-25T07:34:53Z</time>
      </trkpt>
      <trkpt lat="45.12868" lon="0.68679">
        <ele>132.8</ele>
        <time>2025-05-25T07:34:54Z</time>
      </trkpt>
      <trkpt lat="45.12865" lon="0.68674">
        <ele>132.8</ele>
        <time>2025-05-25T07:34:55Z</time>
      </trkpt>
      <trkpt lat="45.12862" lon="0.68668">
        <ele>132.8</ele>
        <time>2025-05-25T07:34:56Z</time>
      </trkpt>
      <trkpt lat="45.1286" lon="0.68663">
        <ele>133</ele>
        <time>2025-05-25T07:34:57Z</time>
      </trkpt>
      <trkpt lat="45.12858" lon="0.68658">
        <ele>133.4</ele>
        <time>2025-05-25T07:34:58Z</time>
      </trkpt>
      <trkpt lat="45.12856" lon="0.68653">
        <ele>133.8</ele>
        <time>2025-05-25T07:34:59Z</time>
      </trkpt>
      <trkpt lat="45.12854" lon="0.68649">
        <ele>134.2</ele>
        <time>2025-05-25T07:35:00Z</time>
      </trkpt>
      <trkpt lat="45.12853" lon="0.68645">
        <ele>134.4</ele>
        <time>2025-05-25T07:35:01Z</time>
      </trkpt>
      <trkpt lat="45.12852" lon="0.68642">
        <ele>134.8</ele>
        <time>2025-05-25T07:35:02Z</time>
      </trkpt>
      <trkpt lat="45.1285" lon="0.68639">
        <ele>135</ele>
        <time>2025-05-25T07:35:03Z</time>
      </trkpt>
      <trkpt lat="45.12849" lon="0.68636">
        <ele>135.4</ele>
        <time>2025-05-25T07:35:04Z</time>
      </trkpt>
      <trkpt lat="45.12847" lon="0.68634">
        <ele>135.8</ele>
        <time>2025-05-25T07:35:05Z</time>
      </trkpt>
      <trkpt lat="45.12846" lon="0.68631">
        <ele>136</ele>
        <time>2025-05-25T07:35:06Z</time>
      </trkpt>
      <trkpt lat="45.12845" lon="0.68628">
        <ele>136.4</ele>
        <time>2025-05-25T07:35:07Z</time>
      </trkpt>
      <trkpt lat="45.12843" lon="0.68626">
        <ele>136.8</ele>
        <time>2025-05-25T07:35:08Z</time>
      </trkpt>
      <trkpt lat="45.12842" lon="0.68623">
        <ele>137</ele>
        <time>2025-05-25T07:35:09Z</time>
      </trkpt>
      <trkpt lat="45.1284" lon="0.68621">
        <ele>137.4</ele>
        <time>2025-05-25T07:35:10Z</time>
      </trkpt>
      <trkpt lat="45.12839" lon="0.68618">
        <ele>137.6</ele>
        <time>2025-05-25T07:35:11Z</time>
      </trkpt>
      <trkpt lat="45.12837" lon="0.68616">
        <ele>137.8</ele>
        <time>2025-05-25T07:35:12Z</time>
      </trkpt>
      <trkpt lat="45.12836" lon="0.68614">
        <ele>138</ele>
        <time>2025-05-25T07:35:13Z</time>
      </trkpt>
      <trkpt lat="45.12834" lon="0.68611">
        <ele>138.2</ele>
        <time>2025-05-25T07:35:14Z</time>
      </trkpt>
      <trkpt lat="45.12833" lon="0.68609">
        <ele>138.4</ele>
        <time>2025-05-25T07:35:15Z</time>
      </trkpt>
      <trkpt lat="45.12831" lon="0.68607">
        <ele>138.6</ele>
        <time>2025-05-25T07:35:16Z</time>
      </trkpt>
      <trkpt lat="45.1283" lon="0.68605">
        <ele>138.8</ele>
        <time>2025-05-25T07:35:17Z</time>
      </trkpt>
      <trkpt lat="45.12828" lon="0.68602">
        <ele>139</ele>
        <time>2025-05-25T07:35:18Z</time>
      </trkpt>
      <trkpt lat="45.12827" lon="0.686">
        <ele>139.2</ele>
        <time>2025-05-25T07:35:19Z</time>
      </trkpt>
      <trkpt lat="45.12825" lon="0.68598">
        <ele>139.4</ele>
        <time>2025-05-25T07:35:20Z</time>
      </trkpt>
      <trkpt lat="45.12824" lon="0.68595">
        <ele>139.6</ele>
        <time>2025-05-25T07:35:21Z</time>
      </trkpt>
      <trkpt lat="45.12822" lon="0.68593">
        <ele>139.6</ele>
        <time>2025-05-25T07:35:22Z</time>
      </trkpt>
      <trkpt lat="45.1282" lon="0.68591">
        <ele>139.8</ele>
        <time>2025-05-25T07:35:23Z</time>
      </trkpt>
      <trkpt lat="45.12819" lon="0.68589">
        <ele>140</ele>
        <time>2025-05-25T07:35:24Z</time>
      </trkpt>
      <trkpt lat="45.12818" lon="0.68587">
        <ele>140</ele>
        <time>2025-05-25T07:35:25Z</time>
      </trkpt>
      <trkpt lat="45.12816" lon="0.68585">
        <ele>140.2</ele>
        <time>2025-05-25T07:35:26Z</time>
      </trkpt>
      <trkpt lat="45.12814" lon="0.68582">
        <ele>140.4</ele>
        <time>2025-05-25T07:35:27Z</time>
      </trkpt>
      <trkpt lat="45.12813" lon="0.68579">
        <ele>140.4</ele>
        <time>2025-05-25T07:35:28Z</time>
      </trkpt>
      <trkpt lat="45.12811" lon="0.68577">
        <ele>140.6</ele>
        <time>2025-05-25T07:35:29Z</time>
      </trkpt>
      <trkpt lat="45.1281" lon="0.68575">
        <ele>140.8</ele>
        <time>2025-05-25T07:35:30Z</time>
      </trkpt>
      <trkpt lat="45.12808" lon="0.68572">
        <ele>141</ele>
        <time>2025-05-25T07:35:31Z</time>
      </trkpt>
      <trkpt lat="45.12807" lon="0.6857">
        <ele>141.2</ele>
        <time>2025-05-25T07:35:32Z</time>
      </trkpt>
      <trkpt lat="45.12805" lon="0.68568">
        <ele>141.4</ele>
        <time>2025-05-25T07:35:33Z</time>
      </trkpt>
      <trkpt lat="45.12803" lon="0.68565">
        <ele>141.6</ele>
        <time>2025-05-25T07:35:34Z</time>
      </trkpt>
      <trkpt lat="45.12802" lon="0.68563">
        <ele>141.8</ele>
        <time>2025-05-25T07:35:35Z</time>
      </trkpt>
      <trkpt lat="45.128" lon="0.68561">
        <ele>142</ele>
        <time>2025-05-25T07:35:36Z</time>
      </trkpt>
      <trkpt lat="45.12798" lon="0.68559">
        <ele>142.2</ele>
        <time>2025-05-25T07:35:37Z</time>
      </trkpt>
      <trkpt lat="45.12796" lon="0.68557">
        <ele>142.4</ele>
        <time>2025-05-25T07:35:38Z</time>
      </trkpt>
      <trkpt lat="45.12795" lon="0.68554">
        <ele>142.6</ele>
        <time>2025-05-25T07:35:39Z</time>
      </trkpt>
      <trkpt lat="45.12793" lon="0.68551">
        <ele>142.8</ele>
        <time>2025-05-25T07:35:40Z</time>
      </trkpt>
      <trkpt lat="45.12791" lon="0.68549">
        <ele>142.8</ele>
        <time>2025-05-25T07:35:41Z</time>
      </trkpt>
      <trkpt lat="45.12789" lon="0.68546">
        <ele>143</ele>
        <time>2025-05-25T07:35:42Z</time>
      </trkpt>
      <trkpt lat="45.12787" lon="0.68544">
        <ele>143</ele>
        <time>2025-05-25T07:35:43Z</time>
      </trkpt>
      <trkpt lat="45.12785" lon="0.68541">
        <ele>143.2</ele>
        <time>2025-05-25T07:35:44Z</time>
      </trkpt>
      <trkpt lat="45.12782" lon="0.68539">
        <ele>143.2</ele>
        <time>2025-05-25T07:35:45Z</time>
      </trkpt>
      <trkpt lat="45.1278" lon="0.68536">
        <ele>143.4</ele>
        <time>2025-05-25T07:35:46Z</time>
      </trkpt>
      <trkpt lat="45.12777" lon="0.68534">
        <ele>143.4</ele>
        <time>2025-05-25T07:35:47Z</time>
      </trkpt>
      <trkpt lat="45.12775" lon="0.68532">
        <ele>143.6</ele>
        <time>2025-05-25T07:35:48Z</time>
      </trkpt>
      <trkpt lat="45.12772" lon="0.68529">
        <ele>143.8</ele>
        <time>2025-05-25T07:35:49Z</time>
      </trkpt>
      <trkpt lat="45.1277" lon="0.68527">
        <ele>144</ele>
        <time>2025-05-25T07:35:50Z</time>
      </trkpt>
      <trkpt lat="45.12767" lon="0.68525">
        <ele>144.2</ele>
        <time>2025-05-25T07:35:51Z</time>
      </trkpt>
      <trkpt lat="45.12764" lon="0.68523">
        <ele>144.2</ele>
        <time>2025-05-25T07:35:52Z</time>
      </trkpt>
      <trkpt lat="45.12762" lon="0.68521">
        <ele>144.4</ele>
        <time>2025-05-25T07:35:53Z</time>
      </trkpt>
      <trkpt lat="45.1276" lon="0.68519">
        <ele>144.4</ele>
        <time>2025-05-25T07:35:54Z</time>
      </trkpt>
      <trkpt lat="45.12758" lon="0.68517">
        <ele>144.6</ele>
        <time>2025-05-25T07:35:55Z</time>
      </trkpt>
      <trkpt lat="45.12755" lon="0.68515">
        <ele>144.6</ele>
        <time>2025-05-25T07:35:56Z</time>
      </trkpt>
      <trkpt lat="45.12753" lon="0.68513">
        <ele>144.8</ele>
        <time>2025-05-25T07:35:57Z</time>
      </trkpt>
      <trkpt lat="45.12751" lon="0.68511">
        <ele>144.8</ele>
        <time>2025-05-25T07:35:58Z</time>
      </trkpt>
      <trkpt lat="45.12748" lon="0.68509">
        <ele>145</ele>
        <time>2025-05-25T07:35:59Z</time>
      </trkpt>
      <trkpt lat="45.12746" lon="0.68508">
        <ele>145.2</ele>
        <time>2025-05-25T07:36:00Z</time>
      </trkpt>
      <trkpt lat="45.12744" lon="0.68506">
        <ele>145.4</ele>
        <time>2025-05-25T07:36:01Z</time>
      </trkpt>
      <trkpt lat="45.12741" lon="0.68505">
        <ele>145.6</ele>
        <time>2025-05-25T07:36:02Z</time>
      </trkpt>
      <trkpt lat="45.12739" lon="0.68503">
        <ele>145.6</ele>
        <time>2025-05-25T07:36:03Z</time>
      </trkpt>
      <trkpt lat="45.12737" lon="0.68502">
        <ele>145.8</ele>
        <time>2025-05-25T07:36:04Z</time>
      </trkpt>
      <trkpt lat="45.12735" lon="0.685">
        <ele>146</ele>
        <time>2025-05-25T07:36:05Z</time>
      </trkpt>
      <trkpt lat="45.12733" lon="0.68498">
        <ele>146</ele>
        <time>2025-05-25T07:36:06Z</time>
      </trkpt>
      <trkpt lat="45.12731" lon="0.68497">
        <ele>146.2</ele>
        <time>2025-05-25T07:36:07Z</time>
      </trkpt>
      <trkpt lat="45.12729" lon="0.68495">
        <ele>146.4</ele>
        <time>2025-05-25T07:36:08Z</time>
      </trkpt>
      <trkpt lat="45.12727" lon="0.68494">
        <ele>146.6</ele>
        <time>2025-05-25T07:36:09Z</time>
      </trkpt>
      <trkpt lat="45.12725" lon="0.68492">
        <ele>146.8</ele>
        <time>2025-05-25T07:36:10Z</time>
      </trkpt>
      <trkpt lat="45.12723" lon="0.68491">
        <ele>147</ele>
        <time>2025-05-25T07:36:11Z</time>
      </trkpt>
      <trkpt lat="45.1272" lon="0.68489">
        <ele>147</ele>
        <time>2025-05-25T07:36:12Z</time>
      </trkpt>
      <trkpt lat="45.12719" lon="0.68488">
        <ele>147.2</ele>
        <time>2025-05-25T07:36:13Z</time>
      </trkpt>
      <trkpt lat="45.12717" lon="0.68486">
        <ele>147.4</ele>
        <time>2025-05-25T07:36:14Z</time>
      </trkpt>
      <trkpt lat="45.12715" lon="0.68485">
        <ele>147.6</ele>
        <time>2025-05-25T07:36:15Z</time>
      </trkpt>
      <trkpt lat="45.12713" lon="0.68483">
        <ele>147.8</ele>
        <time>2025-05-25T07:36:16Z</time>
      </trkpt>
      <trkpt lat="45.12711" lon="0.68482">
        <ele>148</ele>
        <time>2025-05-25T07:36:17Z</time>
      </trkpt>
      <trkpt lat="45.12709" lon="0.68481">
        <ele>148.2</ele>
        <time>2025-05-25T07:36:18Z</time>
      </trkpt>
      <trkpt lat="45.12707" lon="0.68479">
        <ele>148.4</ele>
        <time>2025-05-25T07:36:19Z</time>
      </trkpt>
      <trkpt lat="45.12705" lon="0.68478">
        <ele>148.8</ele>
        <time>2025-05-25T07:36:20Z</time>
      </trkpt>
      <trkpt lat="45.12703" lon="0.68477">
        <ele>149</ele>
        <time>2025-05-25T07:36:21Z</time>
      </trkpt>
      <trkpt lat="45.12701" lon="0.68475">
        <ele>149.2</ele>
        <time>2025-05-25T07:36:22Z</time>
      </trkpt>
      <trkpt lat="45.12699" lon="0.68473">
        <ele>149.4</ele>
        <time>2025-05-25T07:36:23Z</time>
      </trkpt>
      <trkpt lat="45.12697" lon="0.68472">
        <ele>149.8</ele>
        <time>2025-05-25T07:36:24Z</time>
      </trkpt>
      <trkpt lat="45.12695" lon="0.68471">
        <ele>150</ele>
        <time>2025-05-25T07:36:25Z</time>
      </trkpt>
      <trkpt lat="45.12693" lon="0.68469">
        <ele>150.2</ele>
        <time>2025-05-25T07:36:26Z</time>
      </trkpt>
      <trkpt lat="45.12692" lon="0.68467">
        <ele>150.4</ele>
        <time>2025-05-25T07:36:27Z</time>
      </trkpt>
      <trkpt lat="45.1269" lon="0.68466">
        <ele>150.6</ele>
        <time>2025-05-25T07:36:28Z</time>
      </trkpt>
      <trkpt lat="45.12688" lon="0.68465">
        <ele>150.8</ele>
        <time>2025-05-25T07:36:29Z</time>
      </trkpt>
      <trkpt lat="45.12686" lon="0.68463">
        <ele>151</ele>
        <time>2025-05-25T07:36:30Z</time>
      </trkpt>
      <trkpt lat="45.12684" lon="0.68462">
        <ele>151.2</ele>
        <time>2025-05-25T07:36:31Z</time>
      </trkpt>
      <trkpt lat="45.12683" lon="0.6846">
        <ele>151.4</ele>
        <time>2025-05-25T07:36:32Z</time>
      </trkpt>
      <trkpt lat="45.12681" lon="0.68459">
        <ele>151.6</ele>
        <time>2025-05-25T07:36:33Z</time>
      </trkpt>
      <trkpt lat="45.12679" lon="0.68457">
        <ele>151.8</ele>
        <time>2025-05-25T07:36:34Z</time>
      </trkpt>
      <trkpt lat="45.12678" lon="0.68456">
        <ele>152.2</ele>
        <time>2025-05-25T07:36:35Z</time>
      </trkpt>
      <trkpt lat="45.12676" lon="0.68454">
        <ele>152.4</ele>
        <time>2025-05-25T07:36:36Z</time>
      </trkpt>
      <trkpt lat="45.12675" lon="0.68453">
        <ele>152.6</ele>
        <time>2025-05-25T07:36:37Z</time>
      </trkpt>
      <trkpt lat="45.12673" lon="0.68452">
        <ele>152.8</ele>
        <time>2025-05-25T07:36:38Z</time>
      </trkpt>
      <trkpt lat="45.12671" lon="0.6845">
        <ele>153.2</ele>
        <time>2025-05-25T07:36:39Z</time>
      </trkpt>
      <trkpt lat="45.1267" lon="0.68449">
        <ele>153.4</ele>
        <time>2025-05-25T07:36:40Z</time>
      </trkpt>
      <trkpt lat="45.12668" lon="0.68448">
        <ele>153.6</ele>
        <time>2025-05-25T07:36:41Z</time>
      </trkpt>
      <trkpt lat="45.12667" lon="0.68446">
        <ele>153.8</ele>
        <time>2025-05-25T07:36:42Z</time>
      </trkpt>
      <trkpt lat="45.12665" lon="0.68445">
        <ele>154</ele>
        <time>2025-05-25T07:36:43Z</time>
      </trkpt>
      <trkpt lat="45.12663" lon="0.68443">
        <ele>154.2</ele>
        <time>2025-05-25T07:36:44Z</time>
      </trkpt>
      <trkpt lat="45.12662" lon="0.68442">
        <ele>154.4</ele>
        <time>2025-05-25T07:36:45Z</time>
      </trkpt>
      <trkpt lat="45.1266" lon="0.6844">
        <ele>154.6</ele>
        <time>2025-05-25T07:36:46Z</time>
      </trkpt>
      <trkpt lat="45.12659" lon="0.68438">
        <ele>154.6</ele>
        <time>2025-05-25T07:36:47Z</time>
      </trkpt>
      <trkpt lat="45.12657" lon="0.68437">
        <ele>154.8</ele>
        <time>2025-05-25T07:36:48Z</time>
      </trkpt>
      <trkpt lat="45.12656" lon="0.68435">
        <ele>155</ele>
        <time>2025-05-25T07:36:49Z</time>
      </trkpt>
      <trkpt lat="45.12654" lon="0.68434">
        <ele>155.2</ele>
        <time>2025-05-25T07:36:50Z</time>
      </trkpt>
      <trkpt lat="45.12652" lon="0.68433">
        <ele>155.4</ele>
        <time>2025-05-25T07:36:51Z</time>
      </trkpt>
      <trkpt lat="45.12651" lon="0.68431">
        <ele>155.8</ele>
        <time>2025-05-25T07:36:52Z</time>
      </trkpt>
      <trkpt lat="45.12649" lon="0.6843">
        <ele>156</ele>
        <time>2025-05-25T07:36:53Z</time>
      </trkpt>
      <trkpt lat="45.12648" lon="0.68429">
        <ele>156.2</ele>
        <time>2025-05-25T07:36:54Z</time>
      </trkpt>
      <trkpt lat="45.12646" lon="0.68427">
        <ele>156.4</ele>
        <time>2025-05-25T07:36:55Z</time>
      </trkpt>
      <trkpt lat="45.12645" lon="0.68426">
        <ele>156.6</ele>
        <time>2025-05-25T07:36:56Z</time>
      </trkpt>
      <trkpt lat="45.12644" lon="0.68424">
        <ele>156.8</ele>
        <time>2025-05-25T07:36:57Z</time>
      </trkpt>
      <trkpt lat="45.12642" lon="0.68423">
        <ele>157</ele>
        <time>2025-05-25T07:36:58Z</time>
      </trkpt>
      <trkpt lat="45.12641" lon="0.68422">
        <ele>157</ele>
        <time>2025-05-25T07:36:59Z</time>
      </trkpt>
      <trkpt lat="45.12639" lon="0.6842">
        <ele>157.2</ele>
        <time>2025-05-25T07:37:00Z</time>
      </trkpt>
      <trkpt lat="45.12638" lon="0.68419">
        <ele>157.2</ele>
        <time>2025-05-25T07:37:01Z</time>
      </trkpt>
      <trkpt lat="45.12636" lon="0.68417">
        <ele>157.4</ele>
        <time>2025-05-25T07:37:02Z</time>
      </trkpt>
      <trkpt lat="45.12635" lon="0.68416">
        <ele>157.6</ele>
        <time>2025-05-25T07:37:03Z</time>
      </trkpt>
      <trkpt lat="45.12633" lon="0.68414">
        <ele>157.6</ele>
        <time>2025-05-25T07:37:04Z</time>
      </trkpt>
      <trkpt lat="45.12632" lon="0.68412">
        <ele>157.8</ele>
        <time>2025-05-25T07:37:05Z</time>
      </trkpt>
      <trkpt lat="45.1263" lon="0.68411">
        <ele>157.8</ele>
        <time>2025-05-25T07:37:06Z</time>
      </trkpt>
      <trkpt lat="45.12629" lon="0.6841">
        <ele>158</ele>
        <time>2025-05-25T07:37:07Z</time>
      </trkpt>
      <trkpt lat="45.12627" lon="0.68408">
        <ele>158</ele>
        <time>2025-05-25T07:37:08Z</time>
      </trkpt>
      <trkpt lat="45.12625" lon="0.68407">
        <ele>158.2</ele>
        <time>2025-05-25T07:37:09Z</time>
      </trkpt>
      <trkpt lat="45.12623" lon="0.68405">
        <ele>158.4</ele>
        <time>2025-05-25T07:37:10Z</time>
      </trkpt>
      <trkpt lat="45.12622" lon="0.68404">
        <ele>158.4</ele>
        <time>2025-05-25T07:37:11Z</time>
      </trkpt>
      <trkpt lat="45.1262" lon="0.68402">
        <ele>158.6</ele>
        <time>2025-05-25T07:37:12Z</time>
      </trkpt>
      <trkpt lat="45.12618" lon="0.68401">
        <ele>158.6</ele>
        <time>2025-05-25T07:37:13Z</time>
      </trkpt>
      <trkpt lat="45.12617" lon="0.68399">
        <ele>158.8</ele>
        <time>2025-05-25T07:37:14Z</time>
      </trkpt>
      <trkpt lat="45.12615" lon="0.68397">
        <ele>159</ele>
        <time>2025-05-25T07:37:15Z</time>
      </trkpt>
      <trkpt lat="45.12613" lon="0.68395">
        <ele>159</ele>
        <time>2025-05-25T07:37:16Z</time>
      </trkpt>
      <trkpt lat="45.12611" lon="0.68393">
        <ele>159.2</ele>
        <time>2025-05-25T07:37:17Z</time>
      </trkpt>
      <trkpt lat="45.12609" lon="0.68391">
        <ele>159.2</ele>
        <time>2025-05-25T07:37:18Z</time>
      </trkpt>
      <trkpt lat="45.12607" lon="0.68389">
        <ele>159.4</ele>
        <time>2025-05-25T07:37:19Z</time>
      </trkpt>
      <trkpt lat="45.12605" lon="0.68387">
        <ele>159.4</ele>
        <time>2025-05-25T07:37:20Z</time>
      </trkpt>
      <trkpt lat="45.12603" lon="0.68386">
        <ele>159.6</ele>
        <time>2025-05-25T07:37:21Z</time>
      </trkpt>
      <trkpt lat="45.12601" lon="0.68385">
        <ele>159.6</ele>
        <time>2025-05-25T07:37:22Z</time>
      </trkpt>
      <trkpt lat="45.12599" lon="0.68383">
        <ele>159.8</ele>
        <time>2025-05-25T07:37:23Z</time>
      </trkpt>
      <trkpt lat="45.12597" lon="0.68381">
        <ele>159.8</ele>
        <time>2025-05-25T07:37:24Z</time>
      </trkpt>
      <trkpt lat="45.12595" lon="0.68379">
        <ele>160</ele>
        <time>2025-05-25T07:37:25Z</time>
      </trkpt>
      <trkpt lat="45.12593" lon="0.68377">
        <ele>160</ele>
        <time>2025-05-25T07:37:26Z</time>
      </trkpt>
      <trkpt lat="45.12591" lon="0.68375">
        <ele>160.2</ele>
        <time>2025-05-25T07:37:27Z</time>
      </trkpt>
      <trkpt lat="45.12589" lon="0.68374">
        <ele>160.2</ele>
        <time>2025-05-25T07:37:28Z</time>
      </trkpt>
      <trkpt lat="45.12587" lon="0.68372">
        <ele>160.2</ele>
        <time>2025-05-25T07:37:29Z</time>
      </trkpt>
      <trkpt lat="45.12585" lon="0.6837">
        <ele>160.4</ele>
        <time>2025-05-25T07:37:30Z</time>
      </trkpt>
      <trkpt lat="45.12582" lon="0.68369">
        <ele>160.4</ele>
        <time>2025-05-25T07:37:31Z</time>
      </trkpt>
      <trkpt lat="45.1258" lon="0.68367">
        <ele>160.4</ele>
        <time>2025-05-25T07:37:32Z</time>
      </trkpt>
      <trkpt lat="45.12578" lon="0.68365">
        <ele>160.4</ele>
        <time>2025-05-25T07:37:33Z</time>
      </trkpt>
      <trkpt lat="45.12576" lon="0.68364">
        <ele>160.6</ele>
        <time>2025-05-25T07:37:34Z</time>
      </trkpt>
      <trkpt lat="45.12574" lon="0.68362">
        <ele>160.6</ele>
        <time>2025-05-25T07:37:35Z</time>
      </trkpt>
      <trkpt lat="45.12573" lon="0.6836">
        <ele>160.8</ele>
        <time>2025-05-25T07:37:36Z</time>
      </trkpt>
      <trkpt lat="45.12571" lon="0.68358">
        <ele>160.8</ele>
        <time>2025-05-25T07:37:37Z</time>
      </trkpt>
      <trkpt lat="45.12569" lon="0.68355">
        <ele>161</ele>
        <time>2025-05-25T07:37:38Z</time>
      </trkpt>
      <trkpt lat="45.12566" lon="0.68354">
        <ele>161</ele>
        <time>2025-05-25T07:37:39Z</time>
      </trkpt>
      <trkpt lat="45.12564" lon="0.68352">
        <ele>161.2</ele>
        <time>2025-05-25T07:37:40Z</time>
      </trkpt>
      <trkpt lat="45.12562" lon="0.68351">
        <ele>161.4</ele>
        <time>2025-05-25T07:37:41Z</time>
      </trkpt>
      <trkpt lat="45.1256" lon="0.6835">
        <ele>161.4</ele>
        <time>2025-05-25T07:37:42Z</time>
      </trkpt>
      <trkpt lat="45.12557" lon="0.68349">
        <ele>161.6</ele>
        <time>2025-05-25T07:37:43Z</time>
      </trkpt>
      <trkpt lat="45.12555" lon="0.68348">
        <ele>161.8</ele>
        <time>2025-05-25T07:37:44Z</time>
      </trkpt>
      <trkpt lat="45.12553" lon="0.68346">
        <ele>162</ele>
        <time>2025-05-25T07:37:45Z</time>
      </trkpt>
      <trkpt lat="45.12551" lon="0.68344">
        <ele>162</ele>
        <time>2025-05-25T07:37:46Z</time>
      </trkpt>
      <trkpt lat="45.12549" lon="0.68343">
        <ele>162.2</ele>
        <time>2025-05-25T07:37:47Z</time>
      </trkpt>
      <trkpt lat="45.12547" lon="0.68341">
        <ele>162.4</ele>
        <time>2025-05-25T07:37:48Z</time>
      </trkpt>
      <trkpt lat="45.12545" lon="0.6834">
        <ele>162.6</ele>
        <time>2025-05-25T07:37:49Z</time>
      </trkpt>
      <trkpt lat="45.12543" lon="0.68338">
        <ele>162.6</ele>
        <time>2025-05-25T07:37:50Z</time>
      </trkpt>
      <trkpt lat="45.12541" lon="0.68337">
        <ele>163</ele>
        <time>2025-05-25T07:37:51Z</time>
      </trkpt>
      <trkpt lat="45.12539" lon="0.68335">
        <ele>163</ele>
        <time>2025-05-25T07:37:52Z</time>
      </trkpt>
      <trkpt lat="45.12537" lon="0.68334">
        <ele>163.2</ele>
        <time>2025-05-25T07:37:53Z</time>
      </trkpt>
      <trkpt lat="45.12535" lon="0.68332">
        <ele>163.4</ele>
        <time>2025-05-25T07:37:54Z</time>
      </trkpt>
      <trkpt lat="45.12533" lon="0.6833">
        <ele>163.6</ele>
        <time>2025-05-25T07:37:55Z</time>
      </trkpt>
      <trkpt lat="45.12531" lon="0.68329">
        <ele>164</ele>
        <time>2025-05-25T07:37:56Z</time>
      </trkpt>
      <trkpt lat="45.1253" lon="0.68327">
        <ele>164.2</ele>
        <time>2025-05-25T07:37:57Z</time>
      </trkpt>
      <trkpt lat="45.12528" lon="0.68325">
        <ele>164.4</ele>
        <time>2025-05-25T07:37:58Z</time>
      </trkpt>
      <trkpt lat="45.12526" lon="0.68323">
        <ele>164.6</ele>
        <time>2025-05-25T07:37:59Z</time>
      </trkpt>
      <trkpt lat="45.12524" lon="0.68321">
        <ele>164.8</ele>
        <time>2025-05-25T07:38:00Z</time>
      </trkpt>
      <trkpt lat="45.12522" lon="0.68319">
        <ele>165</ele>
        <time>2025-05-25T07:38:01Z</time>
      </trkpt>
      <trkpt lat="45.1252" lon="0.68318">
        <ele>165.2</ele>
        <time>2025-05-25T07:38:02Z</time>
      </trkpt>
      <trkpt lat="45.12518" lon="0.68316">
        <ele>165.2</ele>
        <time>2025-05-25T07:38:03Z</time>
      </trkpt>
      <trkpt lat="45.12516" lon="0.68315">
        <ele>165.4</ele>
        <time>2025-05-25T07:38:04Z</time>
      </trkpt>
      <trkpt lat="45.12514" lon="0.68314">
        <ele>165.6</ele>
        <time>2025-05-25T07:38:05Z</time>
      </trkpt>
      <trkpt lat="45.12512" lon="0.68312">
        <ele>165.6</ele>
        <time>2025-05-25T07:38:06Z</time>
      </trkpt>
      <trkpt lat="45.12511" lon="0.68311">
        <ele>165.8</ele>
        <time>2025-05-25T07:38:07Z</time>
      </trkpt>
      <trkpt lat="45.12508" lon="0.68309">
        <ele>166</ele>
        <time>2025-05-25T07:38:08Z</time>
      </trkpt>
      <trkpt lat="45.12507" lon="0.68307">
        <ele>166</ele>
        <time>2025-05-25T07:38:09Z</time>
      </trkpt>
      <trkpt lat="45.12505" lon="0.68306">
        <ele>166.2</ele>
        <time>2025-05-25T07:38:10Z</time>
      </trkpt>
      <trkpt lat="45.12502" lon="0.68304">
        <ele>166.4</ele>
        <time>2025-05-25T07:38:11Z</time>
      </trkpt>
      <trkpt lat="45.12501" lon="0.68302">
        <ele>166.4</ele>
        <time>2025-05-25T07:38:12Z</time>
      </trkpt>
      <trkpt lat="45.12499" lon="0.68301">
        <ele>166.6</ele>
        <time>2025-05-25T07:38:13Z</time>
      </trkpt>
      <trkpt lat="45.12497" lon="0.68299">
        <ele>166.6</ele>
        <time>2025-05-25T07:38:14Z</time>
      </trkpt>
      <trkpt lat="45.12494" lon="0.68297">
        <ele>166.8</ele>
        <time>2025-05-25T07:38:15Z</time>
      </trkpt>
      <trkpt lat="45.12492" lon="0.68295">
        <ele>166.8</ele>
        <time>2025-05-25T07:38:16Z</time>
      </trkpt>
      <trkpt lat="45.1249" lon="0.68293">
        <ele>167</ele>
        <time>2025-05-25T07:38:17Z</time>
      </trkpt>
      <trkpt lat="45.12487" lon="0.6829">
        <ele>167</ele>
        <time>2025-05-25T07:38:18Z</time>
      </trkpt>
      <trkpt lat="45.12485" lon="0.68288">
        <ele>167</ele>
        <time>2025-05-25T07:38:19Z</time>
      </trkpt>
      <trkpt lat="45.12482" lon="0.68285">
        <ele>167</ele>
        <time>2025-05-25T07:38:20Z</time>
      </trkpt>
      <trkpt lat="45.1248" lon="0.68282">
        <ele>167</ele>
        <time>2025-05-25T07:38:21Z</time>
      </trkpt>
      <trkpt lat="45.12477" lon="0.68279">
        <ele>166.8</ele>
        <time>2025-05-25T07:38:22Z</time>
      </trkpt>
      <trkpt lat="45.12475" lon="0.68277">
        <ele>166.8</ele>
        <time>2025-05-25T07:38:23Z</time>
      </trkpt>
      <trkpt lat="45.12472" lon="0.68274">
        <ele>166.8</ele>
        <time>2025-05-25T07:38:24Z</time>
      </trkpt>
      <trkpt lat="45.1247" lon="0.68271">
        <ele>166.8</ele>
        <time>2025-05-25T07:38:25Z</time>
      </trkpt>
      <trkpt lat="45.12467" lon="0.68269">
        <ele>167</ele>
        <time>2025-05-25T07:38:26Z</time>
      </trkpt>
      <trkpt lat="45.12465" lon="0.68266">
        <ele>167</ele>
        <time>2025-05-25T07:38:27Z</time>
      </trkpt>
      <trkpt lat="45.12462" lon="0.68264">
        <ele>167</ele>
        <time>2025-05-25T07:38:28Z</time>
      </trkpt>
      <trkpt lat="45.12459" lon="0.68262">
        <ele>167</ele>
        <time>2025-05-25T07:38:29Z</time>
      </trkpt>
      <trkpt lat="45.12456" lon="0.68259">
        <ele>167</ele>
        <time>2025-05-25T07:38:30Z</time>
      </trkpt>
      <trkpt lat="45.12454" lon="0.68257">
        <ele>167</ele>
        <time>2025-05-25T07:38:31Z</time>
      </trkpt>
      <trkpt lat="45.12451" lon="0.68254">
        <ele>167.2</ele>
        <time>2025-05-25T07:38:32Z</time>
      </trkpt>
      <trkpt lat="45.12448" lon="0.68252">
        <ele>167.2</ele>
        <time>2025-05-25T07:38:33Z</time>
      </trkpt>
      <trkpt lat="45.12446" lon="0.6825">
        <ele>167.4</ele>
        <time>2025-05-25T07:38:34Z</time>
      </trkpt>
      <trkpt lat="45.12443" lon="0.68249">
        <ele>167.4</ele>
        <time>2025-05-25T07:38:35Z</time>
      </trkpt>
      <trkpt lat="45.1244" lon="0.68246">
        <ele>167.4</ele>
        <time>2025-05-25T07:38:36Z</time>
      </trkpt>
      <trkpt lat="45.12437" lon="0.68245">
        <ele>167.6</ele>
        <time>2025-05-25T07:38:37Z</time>
      </trkpt>
      <trkpt lat="45.12435" lon="0.68243">
        <ele>167.6</ele>
        <time>2025-05-25T07:38:38Z</time>
      </trkpt>
      <trkpt lat="45.12432" lon="0.68241">
        <ele>167.6</ele>
        <time>2025-05-25T07:38:39Z</time>
      </trkpt>
      <trkpt lat="45.12429" lon="0.6824">
        <ele>167.8</ele>
        <time>2025-05-25T07:38:40Z</time>
      </trkpt>
      <trkpt lat="45.12426" lon="0.68238">
        <ele>168</ele>
        <time>2025-05-25T07:38:41Z</time>
      </trkpt>
      <trkpt lat="45.12424" lon="0.68236">
        <ele>168</ele>
        <time>2025-05-25T07:38:42Z</time>
      </trkpt>
      <trkpt lat="45.12421" lon="0.68234">
        <ele>168.2</ele>
        <time>2025-05-25T07:38:43Z</time>
      </trkpt>
      <trkpt lat="45.12418" lon="0.68232">
        <ele>168.2</ele>
        <time>2025-05-25T07:38:44Z</time>
      </trkpt>
      <trkpt lat="45.12415" lon="0.68231">
        <ele>168.2</ele>
        <time>2025-05-25T07:38:45Z</time>
      </trkpt>
      <trkpt lat="45.12412" lon="0.68229">
        <ele>168.4</ele>
        <time>2025-05-25T07:38:46Z</time>
      </trkpt>
      <trkpt lat="45.1241" lon="0.68228">
        <ele>168.4</ele>
        <time>2025-05-25T07:38:47Z</time>
      </trkpt>
      <trkpt lat="45.12407" lon="0.68226">
        <ele>168.6</ele>
        <time>2025-05-25T07:38:48Z</time>
      </trkpt>
      <trkpt lat="45.12404" lon="0.68224">
        <ele>168.6</ele>
        <time>2025-05-25T07:38:49Z</time>
      </trkpt>
      <trkpt lat="45.12402" lon="0.68223">
        <ele>168.8</ele>
        <time>2025-05-25T07:38:50Z</time>
      </trkpt>
      <trkpt lat="45.12399" lon="0.68221">
        <ele>169</ele>
        <time>2025-05-25T07:38:51Z</time>
      </trkpt>
      <trkpt lat="45.12397" lon="0.6822">
        <ele>169.2</ele>
        <time>2025-05-25T07:38:52Z</time>
      </trkpt>
      <trkpt lat="45.12394" lon="0.68219">
        <ele>169.4</ele>
        <time>2025-05-25T07:38:53Z</time>
      </trkpt>
      <trkpt lat="45.12391" lon="0.68218">
        <ele>169.6</ele>
        <time>2025-05-25T07:38:54Z</time>
      </trkpt>
      <trkpt lat="45.12389" lon="0.68217">
        <ele>169.6</ele>
        <time>2025-05-25T07:38:55Z</time>
      </trkpt>
      <trkpt lat="45.12386" lon="0.68215">
        <ele>169.8</ele>
        <time>2025-05-25T07:38:56Z</time>
      </trkpt>
      <trkpt lat="45.12384" lon="0.68213">
        <ele>170</ele>
        <time>2025-05-25T07:38:57Z</time>
      </trkpt>
      <trkpt lat="45.12381" lon="0.68212">
        <ele>170</ele>
        <time>2025-05-25T07:38:58Z</time>
      </trkpt>
      <trkpt lat="45.12379" lon="0.68209">
        <ele>170</ele>
        <time>2025-05-25T07:38:59Z</time>
      </trkpt>
      <trkpt lat="45.12376" lon="0.68207">
        <ele>170.2</ele>
        <time>2025-05-25T07:39:00Z</time>
      </trkpt>
      <trkpt lat="45.12374" lon="0.68206">
        <ele>170.2</ele>
        <time>2025-05-25T07:39:01Z</time>
      </trkpt>
      <trkpt lat="45.12372" lon="0.68204">
        <ele>170.4</ele>
        <time>2025-05-25T07:39:02Z</time>
      </trkpt>
      <trkpt lat="45.1237" lon="0.68202">
        <ele>170.6</ele>
        <time>2025-05-25T07:39:03Z</time>
      </trkpt>
      <trkpt lat="45.12368" lon="0.682">
        <ele>170.8</ele>
        <time>2025-05-25T07:39:04Z</time>
      </trkpt>
      <trkpt lat="45.12366" lon="0.68198">
        <ele>171</ele>
        <time>2025-05-25T07:39:05Z</time>
      </trkpt>
      <trkpt lat="45.12364" lon="0.68196">
        <ele>171.2</ele>
        <time>2025-05-25T07:39:06Z</time>
      </trkpt>
      <trkpt lat="45.12362" lon="0.68195">
        <ele>171.4</ele>
        <time>2025-05-25T07:39:07Z</time>
      </trkpt>
      <trkpt lat="45.12361" lon="0.68193">
        <ele>171.6</ele>
        <time>2025-05-25T07:39:08Z</time>
      </trkpt>
      <trkpt lat="45.12359" lon="0.68192">
        <ele>171.8</ele>
        <time>2025-05-25T07:39:09Z</time>
      </trkpt>
      <trkpt lat="45.12357" lon="0.6819">
        <ele>172.2</ele>
        <time>2025-05-25T07:39:10Z</time>
      </trkpt>
      <trkpt lat="45.12356" lon="0.68188">
        <ele>172.4</ele>
        <time>2025-05-25T07:39:11Z</time>
      </trkpt>
      <trkpt lat="45.12354" lon="0.68187">
        <ele>172.6</ele>
        <time>2025-05-25T07:39:12Z</time>
      </trkpt>
      <trkpt lat="45.12352" lon="0.68186">
        <ele>172.8</ele>
        <time>2025-05-25T07:39:13Z</time>
      </trkpt>
      <trkpt lat="45.12351" lon="0.68185">
        <ele>173</ele>
        <time>2025-05-25T07:39:14Z</time>
      </trkpt>
      <trkpt lat="45.12349" lon="0.68183">
        <ele>173.2</ele>
        <time>2025-05-25T07:39:15Z</time>
      </trkpt>
      <trkpt lat="45.12347" lon="0.68182">
        <ele>173.4</ele>
        <time>2025-05-25T07:39:16Z</time>
      </trkpt>
      <trkpt lat="45.12346" lon="0.68181">
        <ele>173.6</ele>
        <time>2025-05-25T07:39:17Z</time>
      </trkpt>
      <trkpt lat="45.12345" lon="0.6818">
        <ele>173.8</ele>
        <time>2025-05-25T07:39:18Z</time>
      </trkpt>
      <trkpt lat="45.12343" lon="0.68179">
        <ele>174</ele>
        <time>2025-05-25T07:39:19Z</time>
      </trkpt>
      <trkpt lat="45.12342" lon="0.68178">
        <ele>174.2</ele>
        <time>2025-05-25T07:39:20Z</time>
      </trkpt>
      <trkpt lat="45.1234" lon="0.68177">
        <ele>174.4</ele>
        <time>2025-05-25T07:39:21Z</time>
      </trkpt>
      <trkpt lat="45.12339" lon="0.68176">
        <ele>174.4</ele>
        <time>2025-05-25T07:39:22Z</time>
      </trkpt>
      <trkpt lat="45.12337" lon="0.68175">
        <ele>174.6</ele>
        <time>2025-05-25T07:39:23Z</time>
      </trkpt>
      <trkpt lat="45.12335" lon="0.68175">
        <ele>174.8</ele>
        <time>2025-05-25T07:39:24Z</time>
      </trkpt>
      <trkpt lat="45.12334" lon="0.68174">
        <ele>175</ele>
        <time>2025-05-25T07:39:25Z</time>
      </trkpt>
      <trkpt lat="45.12332" lon="0.68173">
        <ele>175.2</ele>
        <time>2025-05-25T07:39:26Z</time>
      </trkpt>
      <trkpt lat="45.1233" lon="0.68172">
        <ele>175.4</ele>
        <time>2025-05-25T07:39:27Z</time>
      </trkpt>
      <trkpt lat="45.12329" lon="0.68171">
        <ele>175.6</ele>
        <time>2025-05-25T07:39:28Z</time>
      </trkpt>
      <trkpt lat="45.12327" lon="0.6817">
        <ele>175.8</ele>
        <time>2025-05-25T07:39:29Z</time>
      </trkpt>
      <trkpt lat="45.12325" lon="0.6817">
        <ele>176</ele>
        <time>2025-05-25T07:39:30Z</time>
      </trkpt>
      <trkpt lat="45.12324" lon="0.68169">
        <ele>176.4</ele>
        <time>2025-05-25T07:39:31Z</time>
      </trkpt>
      <trkpt lat="45.12322" lon="0.68168">
        <ele>176.6</ele>
        <time>2025-05-25T07:39:32Z</time>
      </trkpt>
      <trkpt lat="45.1232" lon="0.68168">
        <ele>176.8</ele>
        <time>2025-05-25T07:39:33Z</time>
      </trkpt>
      <trkpt lat="45.12319" lon="0.68167">
        <ele>176.8</ele>
        <time>2025-05-25T07:39:34Z</time>
      </trkpt>
      <trkpt lat="45.12317" lon="0.68167">
        <ele>177</ele>
        <time>2025-05-25T07:39:35Z</time>
      </trkpt>
      <trkpt lat="45.12315" lon="0.68166">
        <ele>177.2</ele>
        <time>2025-05-25T07:39:36Z</time>
      </trkpt>
      <trkpt lat="45.12313" lon="0.68165">
        <ele>177.4</ele>
        <time>2025-05-25T07:39:37Z</time>
      </trkpt>
      <trkpt lat="45.12311" lon="0.68164">
        <ele>177.4</ele>
        <time>2025-05-25T07:39:38Z</time>
      </trkpt>
      <trkpt lat="45.1231" lon="0.68163">
        <ele>177.6</ele>
        <time>2025-05-25T07:39:39Z</time>
      </trkpt>
      <trkpt lat="45.12308" lon="0.68162">
        <ele>177.8</ele>
        <time>2025-05-25T07:39:40Z</time>
      </trkpt>
      <trkpt lat="45.12307" lon="0.68161">
        <ele>177.8</ele>
        <time>2025-05-25T07:39:41Z</time>
      </trkpt>
      <trkpt lat="45.12305" lon="0.6816">
        <ele>178</ele>
        <time>2025-05-25T07:39:42Z</time>
      </trkpt>
      <trkpt lat="45.12304" lon="0.68159">
        <ele>178.2</ele>
        <time>2025-05-25T07:39:43Z</time>
      </trkpt>
      <trkpt lat="45.12302" lon="0.68157">
        <ele>178.4</ele>
        <time>2025-05-25T07:39:44Z</time>
      </trkpt>
      <trkpt lat="45.12301" lon="0.68156">
        <ele>178.6</ele>
        <time>2025-05-25T07:39:45Z</time>
      </trkpt>
      <trkpt lat="45.123" lon="0.68155">
        <ele>178.8</ele>
        <time>2025-05-25T07:39:46Z</time>
      </trkpt>
      <trkpt lat="45.12299" lon="0.68154">
        <ele>179.2</ele>
        <time>2025-05-25T07:39:47Z</time>
      </trkpt>
      <trkpt lat="45.12298" lon="0.68153">
        <ele>179.4</ele>
        <time>2025-05-25T07:39:48Z</time>
      </trkpt>
      <trkpt lat="45.12297" lon="0.68152">
        <ele>179.6</ele>
        <time>2025-05-25T07:39:49Z</time>
      </trkpt>
      <trkpt lat="45.12296" lon="0.68151">
        <ele>179.8</ele>
        <time>2025-05-25T07:39:50Z</time>
      </trkpt>
      <trkpt lat="45.12295" lon="0.68149">
        <ele>180</ele>
        <time>2025-05-25T07:39:51Z</time>
      </trkpt>
      <trkpt lat="45.12295" lon="0.68147">
        <ele>180.2</ele>
        <time>2025-05-25T07:39:52Z</time>
      </trkpt>
      <trkpt lat="45.12295" lon="0.68145">
        <ele>180.4</ele>
        <time>2025-05-25T07:39:53Z</time>
      </trkpt>
      <trkpt lat="45.12295" lon="0.68143">
        <ele>180.6</ele>
        <time>2025-05-25T07:39:54Z</time>
      </trkpt>
      <trkpt lat="45.12296" lon="0.68141">
        <ele>180.8</ele>
        <time>2025-05-25T07:39:55Z</time>
      </trkpt>
      <trkpt lat="45.12297" lon="0.6814">
        <ele>181.2</ele>
        <time>2025-05-25T07:39:56Z</time>
      </trkpt>
      <trkpt lat="45.12298" lon="0.68138">
        <ele>181.4</ele>
        <time>2025-05-25T07:39:57Z</time>
      </trkpt>
      <trkpt lat="45.12298" lon="0.68136">
        <ele>181.6</ele>
        <time>2025-05-25T07:39:58Z</time>
      </trkpt>
      <trkpt lat="45.12299" lon="0.68134">
        <ele>182</ele>
        <time>2025-05-25T07:39:59Z</time>
      </trkpt>
      <trkpt lat="45.123" lon="0.68133">
        <ele>182.2</ele>
        <time>2025-05-25T07:40:00Z</time>
      </trkpt>
      <trkpt lat="45.12301" lon="0.68131">
        <ele>182.4</ele>
        <time>2025-05-25T07:40:01Z</time>
      </trkpt>
      <trkpt lat="45.12302" lon="0.6813">
        <ele>182.6</ele>
        <time>2025-05-25T07:40:02Z</time>
      </trkpt>
      <trkpt lat="45.12303" lon="0.68128">
        <ele>182.8</ele>
        <time>2025-05-25T07:40:03Z</time>
      </trkpt>
      <trkpt lat="45.12304" lon="0.68126">
        <ele>183.2</ele>
        <time>2025-05-25T07:40:04Z</time>
      </trkpt>
      <trkpt lat="45.12304" lon="0.68125">
        <ele>183.2</ele>
        <time>2025-05-25T07:40:05Z</time>
      </trkpt>
      <trkpt lat="45.12305" lon="0.68122">
        <ele>183.4</ele>
        <time>2025-05-25T07:40:06Z</time>
      </trkpt>
      <trkpt lat="45.12306" lon="0.68121">
        <ele>183.6</ele>
        <time>2025-05-25T07:40:07Z</time>
      </trkpt>
      <trkpt lat="45.12308" lon="0.68119">
        <ele>183.6</ele>
        <time>2025-05-25T07:40:08Z</time>
      </trkpt>
      <trkpt lat="45.12309" lon="0.68116">
        <ele>183.8</ele>
        <time>2025-05-25T07:40:09Z</time>
      </trkpt>
      <trkpt lat="45.1231" lon="0.68114">
        <ele>183.8</ele>
        <time>2025-05-25T07:40:10Z</time>
      </trkpt>
      <trkpt lat="45.12312" lon="0.68111">
        <ele>184</ele>
        <time>2025-05-25T07:40:11Z</time>
      </trkpt>
      <trkpt lat="45.12313" lon="0.68109">
        <ele>184</ele>
        <time>2025-05-25T07:40:12Z</time>
      </trkpt>
      <trkpt lat="45.12314" lon="0.68106">
        <ele>184</ele>
        <time>2025-05-25T07:40:13Z</time>
      </trkpt>
      <trkpt lat="45.12315" lon="0.68103">
        <ele>184.2</ele>
        <time>2025-05-25T07:40:14Z</time>
      </trkpt>
      <trkpt lat="45.12316" lon="0.68101">
        <ele>184.2</ele>
        <time>2025-05-25T07:40:15Z</time>
      </trkpt>
      <trkpt lat="45.12316" lon="0.68098">
        <ele>184.2</ele>
        <time>2025-05-25T07:40:16Z</time>
      </trkpt>
      <trkpt lat="45.12317" lon="0.68095">
        <ele>184.4</ele>
        <time>2025-05-25T07:40:17Z</time>
      </trkpt>
      <trkpt lat="45.12317" lon="0.68092">
        <ele>184.4</ele>
        <time>2025-05-25T07:40:18Z</time>
      </trkpt>
      <trkpt lat="45.12317" lon="0.68089">
        <ele>184.4</ele>
        <time>2025-05-25T07:40:19Z</time>
      </trkpt>
      <trkpt lat="45.12317" lon="0.68086">
        <ele>184.4</ele>
        <time>2025-05-25T07:40:20Z</time>
      </trkpt>
      <trkpt lat="45.12316" lon="0.68083">
        <ele>184.6</ele>
        <time>2025-05-25T07:40:21Z</time>
      </trkpt>
      <trkpt lat="45.12315" lon="0.6808">
        <ele>184.6</ele>
        <time>2025-05-25T07:40:22Z</time>
      </trkpt>
      <trkpt lat="45.12314" lon="0.68078">
        <ele>184.6</ele>
        <time>2025-05-25T07:40:23Z</time>
      </trkpt>
      <trkpt lat="45.12312" lon="0.68076">
        <ele>184.8</ele>
        <time>2025-05-25T07:40:24Z</time>
      </trkpt>
      <trkpt lat="45.12311" lon="0.68075">
        <ele>184.8</ele>
        <time>2025-05-25T07:40:25Z</time>
      </trkpt>
      <trkpt lat="45.12309" lon="0.68073">
        <ele>185</ele>
        <time>2025-05-25T07:40:26Z</time>
      </trkpt>
      <trkpt lat="45.12308" lon="0.68072">
        <ele>185.2</ele>
        <time>2025-05-25T07:40:27Z</time>
      </trkpt>
      <trkpt lat="45.12306" lon="0.6807">
        <ele>185.4</ele>
        <time>2025-05-25T07:40:28Z</time>
      </trkpt>
      <trkpt lat="45.12304" lon="0.68069">
        <ele>185.4</ele>
        <time>2025-05-25T07:40:29Z</time>
      </trkpt>
      <trkpt lat="45.12302" lon="0.68068">
        <ele>185.6</ele>
        <time>2025-05-25T07:40:30Z</time>
      </trkpt>
      <trkpt lat="45.123" lon="0.68066">
        <ele>185.8</ele>
        <time>2025-05-25T07:40:31Z</time>
      </trkpt>
      <trkpt lat="45.12298" lon="0.68065">
        <ele>186</ele>
        <time>2025-05-25T07:40:32Z</time>
      </trkpt>
      <trkpt lat="45.12296" lon="0.68063">
        <ele>186</ele>
        <time>2025-05-25T07:40:33Z</time>
      </trkpt>
      <trkpt lat="45.12294" lon="0.68062">
        <ele>186.2</ele>
        <time>2025-05-25T07:40:34Z</time>
      </trkpt>
      <trkpt lat="45.12292" lon="0.6806">
        <ele>186.4</ele>
        <time>2025-05-25T07:40:35Z</time>
      </trkpt>
      <trkpt lat="45.12291" lon="0.68058">
        <ele>186.6</ele>
        <time>2025-05-25T07:40:36Z</time>
      </trkpt>
      <trkpt lat="45.12288" lon="0.68056">
        <ele>186.8</ele>
        <time>2025-05-25T07:40:37Z</time>
      </trkpt>
      <trkpt lat="45.12287" lon="0.68055">
        <ele>187</ele>
        <time>2025-05-25T07:40:38Z</time>
      </trkpt>
      <trkpt lat="45.12285" lon="0.68053">
        <ele>187.2</ele>
        <time>2025-05-25T07:40:39Z</time>
      </trkpt>
      <trkpt lat="45.12283" lon="0.68051">
        <ele>187.4</ele>
        <time>2025-05-25T07:40:40Z</time>
      </trkpt>
      <trkpt lat="45.12281" lon="0.6805">
        <ele>187.6</ele>
        <time>2025-05-25T07:40:41Z</time>
      </trkpt>
      <trkpt lat="45.1228" lon="0.68049">
        <ele>187.8</ele>
        <time>2025-05-25T07:40:42Z</time>
      </trkpt>
      <trkpt lat="45.12279" lon="0.68048">
        <ele>188.2</ele>
        <time>2025-05-25T07:40:43Z</time>
      </trkpt>
      <trkpt lat="45.12277" lon="0.68047">
        <ele>188.4</ele>
        <time>2025-05-25T07:40:44Z</time>
      </trkpt>
      <trkpt lat="45.12275" lon="0.68045">
        <ele>188.8</ele>
        <time>2025-05-25T07:40:45Z</time>
      </trkpt>
      <trkpt lat="45.12273" lon="0.68043">
        <ele>189</ele>
        <time>2025-05-25T07:40:46Z</time>
      </trkpt>
      <trkpt lat="45.12272" lon="0.68042">
        <ele>189.2</ele>
        <time>2025-05-25T07:40:47Z</time>
      </trkpt>
      <trkpt lat="45.1227" lon="0.6804">
        <ele>189.4</ele>
        <time>2025-05-25T07:40:48Z</time>
      </trkpt>
      <trkpt lat="45.12268" lon="0.68039">
        <ele>189.8</ele>
        <time>2025-05-25T07:40:49Z</time>
      </trkpt>
      <trkpt lat="45.12267" lon="0.68037">
        <ele>190.2</ele>
        <time>2025-05-25T07:40:50Z</time>
      </trkpt>
      <trkpt lat="45.12265" lon="0.68036">
        <ele>190.4</ele>
        <time>2025-05-25T07:40:51Z</time>
      </trkpt>
      <trkpt lat="45.12264" lon="0.68034">
        <ele>190.6</ele>
        <time>2025-05-25T07:40:52Z</time>
      </trkpt>
      <trkpt lat="45.12262" lon="0.68032">
        <ele>190.8</ele>
        <time>2025-05-25T07:40:53Z</time>
      </trkpt>
      <trkpt lat="45.1226" lon="0.6803">
        <ele>191</ele>
        <time>2025-05-25T07:40:54Z</time>
      </trkpt>
      <trkpt lat="45.12258" lon="0.68028">
        <ele>191</ele>
        <time>2025-05-25T07:40:55Z</time>
      </trkpt>
      <trkpt lat="45.12256" lon="0.68026">
        <ele>191.2</ele>
        <time>2025-05-25T07:40:56Z</time>
      </trkpt>
      <trkpt lat="45.12254" lon="0.68024">
        <ele>191.4</ele>
        <time>2025-05-25T07:40:57Z</time>
      </trkpt>
      <trkpt lat="45.12252" lon="0.68022">
        <ele>191.4</ele>
        <time>2025-05-25T07:40:58Z</time>
      </trkpt>
      <trkpt lat="45.12249" lon="0.6802">
        <ele>191.6</ele>
        <time>2025-05-25T07:40:59Z</time>
      </trkpt>
      <trkpt lat="45.12247" lon="0.68018">
        <ele>191.6</ele>
        <time>2025-05-25T07:41:00Z</time>
      </trkpt>
      <trkpt lat="45.12245" lon="0.68017">
        <ele>191.6</ele>
        <time>2025-05-25T07:41:01Z</time>
      </trkpt>
      <trkpt lat="45.12243" lon="0.68015">
        <ele>191.8</ele>
        <time>2025-05-25T07:41:02Z</time>
      </trkpt>
      <trkpt lat="45.12241" lon="0.68014">
        <ele>191.8</ele>
        <time>2025-05-25T07:41:03Z</time>
      </trkpt>
      <trkpt lat="45.12239" lon="0.68012">
        <ele>192</ele>
        <time>2025-05-25T07:41:04Z</time>
      </trkpt>
      <trkpt lat="45.12238" lon="0.68011">
        <ele>192</ele>
        <time>2025-05-25T07:41:05Z</time>
      </trkpt>
      <trkpt lat="45.12236" lon="0.68009">
        <ele>192.2</ele>
        <time>2025-05-25T07:41:06Z</time>
      </trkpt>
      <trkpt lat="45.12234" lon="0.68008">
        <ele>192.4</ele>
        <time>2025-05-25T07:41:07Z</time>
      </trkpt>
      <trkpt lat="45.12232" lon="0.68006">
        <ele>192.4</ele>
        <time>2025-05-25T07:41:08Z</time>
      </trkpt>
      <trkpt lat="45.1223" lon="0.68004">
        <ele>192.6</ele>
        <time>2025-05-25T07:41:09Z</time>
      </trkpt>
      <trkpt lat="45.12228" lon="0.68003">
        <ele>192.8</ele>
        <time>2025-05-25T07:41:10Z</time>
      </trkpt>
      <trkpt lat="45.12227" lon="0.68001">
        <ele>193</ele>
        <time>2025-05-25T07:41:11Z</time>
      </trkpt>
      <trkpt lat="45.12225" lon="0.67999">
        <ele>193.2</ele>
        <time>2025-05-25T07:41:12Z</time>
      </trkpt>
      <trkpt lat="45.12223" lon="0.67997">
        <ele>193.4</ele>
        <time>2025-05-25T07:41:13Z</time>
      </trkpt>
      <trkpt lat="45.12222" lon="0.67996">
        <ele>193.4</ele>
        <time>2025-05-25T07:41:14Z</time>
      </trkpt>
      <trkpt lat="45.1222" lon="0.67994">
        <ele>193.6</ele>
        <time>2025-05-25T07:41:15Z</time>
      </trkpt>
      <trkpt lat="45.12218" lon="0.67992">
        <ele>193.6</ele>
        <time>2025-05-25T07:41:16Z</time>
      </trkpt>
      <trkpt lat="45.12217" lon="0.6799">
        <ele>193.8</ele>
        <time>2025-05-25T07:41:17Z</time>
      </trkpt>
      <trkpt lat="45.12215" lon="0.67987">
        <ele>193.8</ele>
        <time>2025-05-25T07:41:18Z</time>
      </trkpt>
      <trkpt lat="45.12213" lon="0.67985">
        <ele>194</ele>
        <time>2025-05-25T07:41:19Z</time>
      </trkpt>
      <trkpt lat="45.12211" lon="0.67982">
        <ele>194.2</ele>
        <time>2025-05-25T07:41:20Z</time>
      </trkpt>
      <trkpt lat="45.12209" lon="0.6798">
        <ele>194.2</ele>
        <time>2025-05-25T07:41:21Z</time>
      </trkpt>
      <trkpt lat="45.12207" lon="0.67978">
        <ele>194.4</ele>
        <time>2025-05-25T07:41:22Z</time>
      </trkpt>
      <trkpt lat="45.12205" lon="0.67977">
        <ele>194.4</ele>
        <time>2025-05-25T07:41:23Z</time>
      </trkpt>
      <trkpt lat="45.12204" lon="0.67975">
        <ele>194.4</ele>
        <time>2025-05-25T07:41:24Z</time>
      </trkpt>
      <trkpt lat="45.12202" lon="0.67973">
        <ele>194.4</ele>
        <time>2025-05-25T07:41:25Z</time>
      </trkpt>
      <trkpt lat="45.122" lon="0.67971">
        <ele>194.4</ele>
        <time>2025-05-25T07:41:26Z</time>
      </trkpt>
      <trkpt lat="45.12199" lon="0.6797">
        <ele>194.8</ele>
        <time>2025-05-25T07:41:27Z</time>
      </trkpt>
      <trkpt lat="45.12197" lon="0.67969">
        <ele>195</ele>
        <time>2025-05-25T07:41:28Z</time>
      </trkpt>
      <trkpt lat="45.12195" lon="0.67968">
        <ele>195.2</ele>
        <time>2025-05-25T07:41:29Z</time>
      </trkpt>
      <trkpt lat="45.12192" lon="0.67967">
        <ele>195.4</ele>
        <time>2025-05-25T07:41:30Z</time>
      </trkpt>
      <trkpt lat="45.1219" lon="0.67965">
        <ele>195.6</ele>
        <time>2025-05-25T07:41:31Z</time>
      </trkpt>
      <trkpt lat="45.12188" lon="0.67964">
        <ele>195.8</ele>
        <time>2025-05-25T07:41:32Z</time>
      </trkpt>
      <trkpt lat="45.12186" lon="0.67963">
        <ele>196</ele>
        <time>2025-05-25T07:41:33Z</time>
      </trkpt>
      <trkpt lat="45.12183" lon="0.67962">
        <ele>196.2</ele>
        <time>2025-05-25T07:41:34Z</time>
      </trkpt>
      <trkpt lat="45.12181" lon="0.67961">
        <ele>196.6</ele>
        <time>2025-05-25T07:41:35Z</time>
      </trkpt>
      <trkpt lat="45.12179" lon="0.67959">
        <ele>196.8</ele>
        <time>2025-05-25T07:41:36Z</time>
      </trkpt>
      <trkpt lat="45.12176" lon="0.67958">
        <ele>197</ele>
        <time>2025-05-25T07:41:37Z</time>
      </trkpt>
      <trkpt lat="45.12174" lon="0.67957">
        <ele>197.2</ele>
        <time>2025-05-25T07:41:38Z</time>
      </trkpt>
      <trkpt lat="45.12172" lon="0.67955">
        <ele>197.2</ele>
        <time>2025-05-25T07:41:39Z</time>
      </trkpt>
      <trkpt lat="45.12169" lon="0.67953">
        <ele>197.2</ele>
        <time>2025-05-25T07:41:40Z</time>
      </trkpt>
      <trkpt lat="45.12167" lon="0.67951">
        <ele>197.2</ele>
        <time>2025-05-25T07:41:41Z</time>
      </trkpt>
      <trkpt lat="45.12164" lon="0.6795">
        <ele>197.2</ele>
        <time>2025-05-25T07:41:42Z</time>
      </trkpt>
      <trkpt lat="45.12162" lon="0.67948">
        <ele>197.2</ele>
        <time>2025-05-25T07:41:43Z</time>
      </trkpt>
      <trkpt lat="45.12159" lon="0.67947">
        <ele>197.2</ele>
        <time>2025-05-25T07:41:44Z</time>
      </trkpt>
      <trkpt lat="45.12157" lon="0.67945">
        <ele>197.2</ele>
        <time>2025-05-25T07:41:45Z</time>
      </trkpt>
      <trkpt lat="45.12154" lon="0.67944">
        <ele>197.2</ele>
        <time>2025-05-25T07:41:46Z</time>
      </trkpt>
      <trkpt lat="45.12152" lon="0.67942">
        <ele>197.2</ele>
        <time>2025-05-25T07:41:47Z</time>
      </trkpt>
      <trkpt lat="45.1215" lon="0.6794">
        <ele>197.4</ele>
        <time>2025-05-25T07:41:48Z</time>
      </trkpt>
      <trkpt lat="45.12147" lon="0.67938">
        <ele>197.6</ele>
        <time>2025-05-25T07:41:49Z</time>
      </trkpt>
      <trkpt lat="45.12144" lon="0.67937">
        <ele>197.6</ele>
        <time>2025-05-25T07:41:50Z</time>
      </trkpt>
      <trkpt lat="45.12141" lon="0.67935">
        <ele>197.8</ele>
        <time>2025-05-25T07:41:51Z</time>
      </trkpt>
      <trkpt lat="45.12138" lon="0.67935">
        <ele>198</ele>
        <time>2025-05-25T07:41:52Z</time>
      </trkpt>
      <trkpt lat="45.12135" lon="0.67933">
        <ele>198</ele>
        <time>2025-05-25T07:41:53Z</time>
      </trkpt>
      <trkpt lat="45.12132" lon="0.67932">
        <ele>198.2</ele>
        <time>2025-05-25T07:41:54Z</time>
      </trkpt>
      <trkpt lat="45.12128" lon="0.67932">
        <ele>198.2</ele>
        <time>2025-05-25T07:41:55Z</time>
      </trkpt>
      <trkpt lat="45.12125" lon="0.67931">
        <ele>198.2</ele>
        <time>2025-05-25T07:41:56Z</time>
      </trkpt>
      <trkpt lat="45.12122" lon="0.6793">
        <ele>198.2</ele>
        <time>2025-05-25T07:41:57Z</time>
      </trkpt>
      <trkpt lat="45.12119" lon="0.6793">
        <ele>198.4</ele>
        <time>2025-05-25T07:41:58Z</time>
      </trkpt>
      <trkpt lat="45.12115" lon="0.6793">
        <ele>198.2</ele>
        <time>2025-05-25T07:41:59Z</time>
      </trkpt>
      <trkpt lat="45.12112" lon="0.6793">
        <ele>198.2</ele>
        <time>2025-05-25T07:42:00Z</time>
      </trkpt>
      <trkpt lat="45.12109" lon="0.6793">
        <ele>198.2</ele>
        <time>2025-05-25T07:42:01Z</time>
      </trkpt>
      <trkpt lat="45.12105" lon="0.6793">
        <ele>198.4</ele>
        <time>2025-05-25T07:42:02Z</time>
      </trkpt>
      <trkpt lat="45.12101" lon="0.6793">
        <ele>198.4</ele>
        <time>2025-05-25T07:42:03Z</time>
      </trkpt>
      <trkpt lat="45.12097" lon="0.6793">
        <ele>198.2</ele>
        <time>2025-05-25T07:42:04Z</time>
      </trkpt>
      <trkpt lat="45.12093" lon="0.6793">
        <ele>198.2</ele>
        <time>2025-05-25T07:42:05Z</time>
      </trkpt>
      <trkpt lat="45.12088" lon="0.67929">
        <ele>198</ele>
        <time>2025-05-25T07:42:06Z</time>
      </trkpt>
      <trkpt lat="45.12084" lon="0.67929">
        <ele>197.8</ele>
        <time>2025-05-25T07:42:07Z</time>
      </trkpt>
      <trkpt lat="45.1208" lon="0.67929">
        <ele>197.6</ele>
        <time>2025-05-25T07:42:08Z</time>
      </trkpt>
      <trkpt lat="45.12076" lon="0.67929">
        <ele>197.6</ele>
        <time>2025-05-25T07:42:09Z</time>
      </trkpt>
      <trkpt lat="45.12071" lon="0.67929">
        <ele>197.6</ele>
        <time>2025-05-25T07:42:10Z</time>
      </trkpt>
      <trkpt lat="45.12067" lon="0.67929">
        <ele>197.8</ele>
        <time>2025-05-25T07:42:11Z</time>
      </trkpt>
      <trkpt lat="45.12062" lon="0.67929">
        <ele>198</ele>
        <time>2025-05-25T07:42:12Z</time>
      </trkpt>
      <trkpt lat="45.12058" lon="0.67929">
        <ele>198.2</ele>
        <time>2025-05-25T07:42:13Z</time>
      </trkpt>
      <trkpt lat="45.12053" lon="0.6793">
        <ele>198.2</ele>
        <time>2025-05-25T07:42:14Z</time>
      </trkpt>
      <trkpt lat="45.12048" lon="0.6793">
        <ele>198.4</ele>
        <time>2025-05-25T07:42:15Z</time>
      </trkpt>
      <trkpt lat="45.12044" lon="0.6793">
        <ele>198.6</ele>
        <time>2025-05-25T07:42:16Z</time>
      </trkpt>
      <trkpt lat="45.12039" lon="0.6793">
        <ele>198.8</ele>
        <time>2025-05-25T07:42:17Z</time>
      </trkpt>
      <trkpt lat="45.12035" lon="0.67929">
        <ele>198.8</ele>
        <time>2025-05-25T07:42:18Z</time>
      </trkpt>
      <trkpt lat="45.1203" lon="0.6793">
        <ele>198.8</ele>
        <time>2025-05-25T07:42:19Z</time>
      </trkpt>
      <trkpt lat="45.12025" lon="0.6793">
        <ele>198.8</ele>
        <time>2025-05-25T07:42:20Z</time>
      </trkpt>
      <trkpt lat="45.1202" lon="0.6793">
        <ele>198.8</ele>
        <time>2025-05-25T07:42:21Z</time>
      </trkpt>
      <trkpt lat="45.12016" lon="0.67929">
        <ele>198.8</ele>
        <time>2025-05-25T07:42:22Z</time>
      </trkpt>
      <trkpt lat="45.12011" lon="0.67929">
        <ele>198.8</ele>
        <time>2025-05-25T07:42:23Z</time>
      </trkpt>
      <trkpt lat="45.12006" lon="0.67929">
        <ele>198.6</ele>
        <time>2025-05-25T07:42:24Z</time>
      </trkpt>
      <trkpt lat="45.12001" lon="0.67929">
        <ele>198.6</ele>
        <time>2025-05-25T07:42:25Z</time>
      </trkpt>
      <trkpt lat="45.11996" lon="0.67929">
        <ele>198.6</ele>
        <time>2025-05-25T07:42:26Z</time>
      </trkpt>
      <trkpt lat="45.11991" lon="0.67929">
        <ele>198.6</ele>
        <time>2025-05-25T07:42:27Z</time>
      </trkpt>
      <trkpt lat="45.11986" lon="0.67929">
        <ele>198.4</ele>
        <time>2025-05-25T07:42:28Z</time>
      </trkpt>
      <trkpt lat="45.1198" lon="0.67929">
        <ele>198.4</ele>
        <time>2025-05-25T07:42:29Z</time>
      </trkpt>
      <trkpt lat="45.11975" lon="0.6793">
        <ele>198.2</ele>
        <time>2025-05-25T07:42:30Z</time>
      </trkpt>
      <trkpt lat="45.1197" lon="0.67931">
        <ele>198</ele>
        <time>2025-05-25T07:42:31Z</time>
      </trkpt>
      <trkpt lat="45.11964" lon="0.67933">
        <ele>198</ele>
        <time>2025-05-25T07:42:32Z</time>
      </trkpt>
      <trkpt lat="45.11959" lon="0.67936">
        <ele>197.8</ele>
        <time>2025-05-25T07:42:33Z</time>
      </trkpt>
      <trkpt lat="45.11955" lon="0.6794">
        <ele>197.8</ele>
        <time>2025-05-25T07:42:34Z</time>
      </trkpt>
      <trkpt lat="45.11951" lon="0.67945">
        <ele>197.6</ele>
        <time>2025-05-25T07:42:35Z</time>
      </trkpt>
      <trkpt lat="45.11947" lon="0.67949">
        <ele>197.6</ele>
        <time>2025-05-25T07:42:36Z</time>
      </trkpt>
      <trkpt lat="45.11943" lon="0.67955">
        <ele>197.6</ele>
        <time>2025-05-25T07:42:37Z</time>
      </trkpt>
      <trkpt lat="45.11939" lon="0.6796">
        <ele>197.6</ele>
        <time>2025-05-25T07:42:38Z</time>
      </trkpt>
      <trkpt lat="45.11935" lon="0.67965">
        <ele>197.4</ele>
        <time>2025-05-25T07:42:39Z</time>
      </trkpt>
      <trkpt lat="45.11931" lon="0.67971">
        <ele>197.4</ele>
        <time>2025-05-25T07:42:40Z</time>
      </trkpt>
      <trkpt lat="45.11927" lon="0.67976">
        <ele>197.4</ele>
        <time>2025-05-25T07:42:41Z</time>
      </trkpt>
      <trkpt lat="45.11924" lon="0.67981">
        <ele>197.4</ele>
        <time>2025-05-25T07:42:42Z</time>
      </trkpt>
      <trkpt lat="45.1192" lon="0.67987">
        <ele>197.4</ele>
        <time>2025-05-25T07:42:43Z</time>
      </trkpt>
      <trkpt lat="45.11917" lon="0.67994">
        <ele>197.4</ele>
        <time>2025-05-25T07:42:44Z</time>
      </trkpt>
      <trkpt lat="45.11913" lon="0.68">
        <ele>197.2</ele>
        <time>2025-05-25T07:42:45Z</time>
      </trkpt>
      <trkpt lat="45.1191" lon="0.68006">
        <ele>197.2</ele>
        <time>2025-05-25T07:42:46Z</time>
      </trkpt>
      <trkpt lat="45.11907" lon="0.68013">
        <ele>197.2</ele>
        <time>2025-05-25T07:42:47Z</time>
      </trkpt>
      <trkpt lat="45.11903" lon="0.68019">
        <ele>197.2</ele>
        <time>2025-05-25T07:42:48Z</time>
      </trkpt>
      <trkpt lat="45.119" lon="0.68025">
        <ele>197.2</ele>
        <time>2025-05-25T07:42:49Z</time>
      </trkpt>
      <trkpt lat="45.11896" lon="0.68031">
        <ele>197.2</ele>
        <time>2025-05-25T07:42:50Z</time>
      </trkpt>
      <trkpt lat="45.11892" lon="0.68037">
        <ele>197.2</ele>
        <time>2025-05-25T07:42:51Z</time>
      </trkpt>
      <trkpt lat="45.11888" lon="0.68042">
        <ele>197</ele>
        <time>2025-05-25T07:42:52Z</time>
      </trkpt>
      <trkpt lat="45.11885" lon="0.68048">
        <ele>197</ele>
        <time>2025-05-25T07:42:53Z</time>
      </trkpt>
      <trkpt lat="45.11881" lon="0.68053">
        <ele>197</ele>
        <time>2025-05-25T07:42:54Z</time>
      </trkpt>
      <trkpt lat="45.11877" lon="0.68058">
        <ele>197</ele>
        <time>2025-05-25T07:42:55Z</time>
      </trkpt>
      <trkpt lat="45.11873" lon="0.68062">
        <ele>196.8</ele>
        <time>2025-05-25T07:42:56Z</time>
      </trkpt>
      <trkpt lat="45.11869" lon="0.68066">
        <ele>196.8</ele>
        <time>2025-05-25T07:42:57Z</time>
      </trkpt>
      <trkpt lat="45.11865" lon="0.6807">
        <ele>196.8</ele>
        <time>2025-05-25T07:42:58Z</time>
      </trkpt>
      <trkpt lat="45.11862" lon="0.68074">
        <ele>196.8</ele>
        <time>2025-05-25T07:42:59Z</time>
      </trkpt>
      <trkpt lat="45.11857" lon="0.68077">
        <ele>197</ele>
        <time>2025-05-25T07:43:00Z</time>
      </trkpt>
      <trkpt lat="45.11853" lon="0.68081">
        <ele>197</ele>
        <time>2025-05-25T07:43:01Z</time>
      </trkpt>
      <trkpt lat="45.11848" lon="0.68084">
        <ele>197</ele>
        <time>2025-05-25T07:43:02Z</time>
      </trkpt>
      <trkpt lat="45.11844" lon="0.68088">
        <ele>197</ele>
        <time>2025-05-25T07:43:03Z</time>
      </trkpt>
      <trkpt lat="45.11839" lon="0.68092">
        <ele>197</ele>
        <time>2025-05-25T07:43:04Z</time>
      </trkpt>
      <trkpt lat="45.11834" lon="0.68095">
        <ele>196.8</ele>
        <time>2025-05-25T07:43:05Z</time>
      </trkpt>
      <trkpt lat="45.11828" lon="0.68098">
        <ele>196.6</ele>
        <time>2025-05-25T07:43:06Z</time>
      </trkpt>
      <trkpt lat="45.11823" lon="0.68102">
        <ele>196.4</ele>
        <time>2025-05-25T07:43:07Z</time>
      </trkpt>
      <trkpt lat="45.11817" lon="0.68105">
        <ele>196.2</ele>
        <time>2025-05-25T07:43:08Z</time>
      </trkpt>
      <trkpt lat="45.11811" lon="0.68109">
        <ele>196.2</ele>
        <time>2025-05-25T07:43:09Z</time>
      </trkpt>
      <trkpt lat="45.11804" lon="0.68112">
        <ele>196</ele>
        <time>2025-05-25T07:43:10Z</time>
      </trkpt>
      <trkpt lat="45.11799" lon="0.68115">
        <ele>196</ele>
        <time>2025-05-25T07:43:11Z</time>
      </trkpt>
      <trkpt lat="45.11793" lon="0.68117">
        <ele>195.8</ele>
        <time>2025-05-25T07:43:12Z</time>
      </trkpt>
      <trkpt lat="45.11788" lon="0.68119">
        <ele>196</ele>
        <time>2025-05-25T07:43:13Z</time>
      </trkpt>
      <trkpt lat="45.11783" lon="0.68122">
        <ele>196</ele>
        <time>2025-05-25T07:43:14Z</time>
      </trkpt>
      <trkpt lat="45.11778" lon="0.68125">
        <ele>196</ele>
        <time>2025-05-25T07:43:15Z</time>
      </trkpt>
      <trkpt lat="45.11773" lon="0.68128">
        <ele>196.2</ele>
        <time>2025-05-25T07:43:16Z</time>
      </trkpt>
      <trkpt lat="45.11767" lon="0.68131">
        <ele>196.4</ele>
        <time>2025-05-25T07:43:17Z</time>
      </trkpt>
      <trkpt lat="45.11762" lon="0.68133">
        <ele>196.6</ele>
        <time>2025-05-25T07:43:18Z</time>
      </trkpt>
      <trkpt lat="45.11757" lon="0.68135">
        <ele>196.8</ele>
        <time>2025-05-25T07:43:19Z</time>
      </trkpt>
      <trkpt lat="45.11752" lon="0.68137">
        <ele>197</ele>
        <time>2025-05-25T07:43:20Z</time>
      </trkpt>
      <trkpt lat="45.11747" lon="0.68139">
        <ele>197.2</ele>
        <time>2025-05-25T07:43:21Z</time>
      </trkpt>
      <trkpt lat="45.11743" lon="0.6814">
        <ele>197.4</ele>
        <time>2025-05-25T07:43:22Z</time>
      </trkpt>
      <trkpt lat="45.11738" lon="0.68141">
        <ele>197.6</ele>
        <time>2025-05-25T07:43:23Z</time>
      </trkpt>
      <trkpt lat="45.11734" lon="0.68141">
        <ele>197.8</ele>
        <time>2025-05-25T07:43:24Z</time>
      </trkpt>
      <trkpt lat="45.1173" lon="0.6814">
        <ele>198</ele>
        <time>2025-05-25T07:43:25Z</time>
      </trkpt>
      <trkpt lat="45.11727" lon="0.68138">
        <ele>198.2</ele>
        <time>2025-05-25T07:43:26Z</time>
      </trkpt>
      <trkpt lat="45.11725" lon="0.68135">
        <ele>198.6</ele>
        <time>2025-05-25T07:43:27Z</time>
      </trkpt>
      <trkpt lat="45.11723" lon="0.6813">
        <ele>198.8</ele>
        <time>2025-05-25T07:43:28Z</time>
      </trkpt>
      <trkpt lat="45.1172" lon="0.68126">
        <ele>199.2</ele>
        <time>2025-05-25T07:43:29Z</time>
      </trkpt>
      <trkpt lat="45.11719" lon="0.68122">
        <ele>199.2</ele>
        <time>2025-05-25T07:43:30Z</time>
      </trkpt>
      <trkpt lat="45.11718" lon="0.68117">
        <ele>199.4</ele>
        <time>2025-05-25T07:43:31Z</time>
      </trkpt>
      <trkpt lat="45.11716" lon="0.68113">
        <ele>199.6</ele>
        <time>2025-05-25T07:43:32Z</time>
      </trkpt>
      <trkpt lat="45.11713" lon="0.68108">
        <ele>199.8</ele>
        <time>2025-05-25T07:43:33Z</time>
      </trkpt>
      <trkpt lat="45.1171" lon="0.68104">
        <ele>200</ele>
        <time>2025-05-25T07:43:34Z</time>
      </trkpt>
      <trkpt lat="45.11708" lon="0.68099">
        <ele>200</ele>
        <time>2025-05-25T07:43:35Z</time>
      </trkpt>
      <trkpt lat="45.11705" lon="0.68095">
        <ele>200.2</ele>
        <time>2025-05-25T07:43:36Z</time>
      </trkpt>
      <trkpt lat="45.11701" lon="0.68093">
        <ele>200.4</ele>
        <time>2025-05-25T07:43:37Z</time>
      </trkpt>
      <trkpt lat="45.11698" lon="0.68092">
        <ele>200.4</ele>
        <time>2025-05-25T07:43:38Z</time>
      </trkpt>
      <trkpt lat="45.11693" lon="0.68091">
        <ele>200.4</ele>
        <time>2025-05-25T07:43:39Z</time>
      </trkpt>
      <trkpt lat="45.11689" lon="0.6809">
        <ele>200.6</ele>
        <time>2025-05-25T07:43:40Z</time>
      </trkpt>
      <trkpt lat="45.11685" lon="0.6809">
        <ele>200.6</ele>
        <time>2025-05-25T07:43:41Z</time>
      </trkpt>
      <trkpt lat="45.11682" lon="0.6809">
        <ele>200.6</ele>
        <time>2025-05-25T07:43:42Z</time>
      </trkpt>
      <trkpt lat="45.11679" lon="0.68089">
        <ele>200.6</ele>
        <time>2025-05-25T07:43:43Z</time>
      </trkpt>
      <trkpt lat="45.11677" lon="0.68089">
        <ele>200.6</ele>
        <time>2025-05-25T07:43:44Z</time>
      </trkpt>
      <trkpt lat="45.11676" lon="0.68088">
        <ele>200.8</ele>
        <time>2025-05-25T07:43:45Z</time>
      </trkpt>
      <trkpt lat="45.11675" lon="0.68088">
        <ele>200.8</ele>
        <time>2025-05-25T07:43:46Z</time>
      </trkpt>
      <trkpt lat="45.11673" lon="0.68087">
        <ele>200.8</ele>
        <time>2025-05-25T07:43:47Z</time>
      </trkpt>
      <trkpt lat="45.11672" lon="0.68086">
        <ele>200.8</ele>
        <time>2025-05-25T07:43:48Z</time>
      </trkpt>
      <trkpt lat="45.11672" lon="0.68086">
        <ele>200.8</ele>
        <time>2025-05-25T07:43:49Z</time>
      </trkpt>
      <trkpt lat="45.11672" lon="0.68086">
        <ele>200.8</ele>
        <time>2025-05-25T07:43:50Z</time>
      </trkpt>
      <trkpt lat="45.11662" lon="0.68086">
        <ele>200.6</ele>
        <time>2025-05-25T07:43:58Z</time>
      </trkpt>
      <trkpt lat="45.11659" lon="0.68086">
        <ele>200.4</ele>
        <time>2025-05-25T07:43:59Z</time>
      </trkpt>
      <trkpt lat="45.11655" lon="0.68086">
        <ele>200.2</ele>
        <time>2025-05-25T07:44:00Z</time>
      </trkpt>
      <trkpt lat="45.11652" lon="0.68087">
        <ele>200.2</ele>
        <time>2025-05-25T07:44:01Z</time>
      </trkpt>
      <trkpt lat="45.11647" lon="0.68088">
        <ele>199.8</ele>
        <time>2025-05-25T07:44:02Z</time>
      </trkpt>
      <trkpt lat="45.11644" lon="0.68089">
        <ele>199.6</ele>
        <time>2025-05-25T07:44:03Z</time>
      </trkpt>
      <trkpt lat="45.11639" lon="0.68091">
        <ele>199.4</ele>
        <time>2025-05-25T07:44:04Z</time>
      </trkpt>
      <trkpt lat="45.11634" lon="0.6809">
        <ele>199.2</ele>
        <time>2025-05-25T07:44:05Z</time>
      </trkpt>
      <trkpt lat="45.1163" lon="0.68088">
        <ele>198.8</ele>
        <time>2025-05-25T07:44:06Z</time>
      </trkpt>
      <trkpt lat="45.11627" lon="0.68084">
        <ele>198.4</ele>
        <time>2025-05-25T07:44:07Z</time>
      </trkpt>
      <trkpt lat="45.11624" lon="0.6808">
        <ele>198</ele>
        <time>2025-05-25T07:44:08Z</time>
      </trkpt>
      <trkpt lat="45.11622" lon="0.68074">
        <ele>197.8</ele>
        <time>2025-05-25T07:44:09Z</time>
      </trkpt>
      <trkpt lat="45.11619" lon="0.68068">
        <ele>197.6</ele>
        <time>2025-05-25T07:44:10Z</time>
      </trkpt>
      <trkpt lat="45.11616" lon="0.68062">
        <ele>197.4</ele>
        <time>2025-05-25T07:44:11Z</time>
      </trkpt>
      <trkpt lat="45.11613" lon="0.68056">
        <ele>197.2</ele>
        <time>2025-05-25T07:44:12Z</time>
      </trkpt>
      <trkpt lat="45.11611" lon="0.6805">
        <ele>197</ele>
        <time>2025-05-25T07:44:13Z</time>
      </trkpt>
      <trkpt lat="45.11608" lon="0.68044">
        <ele>196.8</ele>
        <time>2025-05-25T07:44:14Z</time>
      </trkpt>
      <trkpt lat="45.11605" lon="0.68037">
        <ele>196.6</ele>
        <time>2025-05-25T07:44:15Z</time>
      </trkpt>
      <trkpt lat="45.11602" lon="0.68031">
        <ele>196.2</ele>
        <time>2025-05-25T07:44:16Z</time>
      </trkpt>
      <trkpt lat="45.11599" lon="0.68025">
        <ele>196</ele>
        <time>2025-05-25T07:44:17Z</time>
      </trkpt>
      <trkpt lat="45.11595" lon="0.68019">
        <ele>195.8</ele>
        <time>2025-05-25T07:44:18Z</time>
      </trkpt>
      <trkpt lat="45.11591" lon="0.68013">
        <ele>195.6</ele>
        <time>2025-05-25T07:44:19Z</time>
      </trkpt>
      <trkpt lat="45.11587" lon="0.68006">
        <ele>195.4</ele>
        <time>2025-05-25T07:44:20Z</time>
      </trkpt>
      <trkpt lat="45.11583" lon="0.68001">
        <ele>195.2</ele>
        <time>2025-05-25T07:44:21Z</time>
      </trkpt>
      <trkpt lat="45.1158" lon="0.67996">
        <ele>194.8</ele>
        <time>2025-05-25T07:44:22Z</time>
      </trkpt>
      <trkpt lat="45.11576" lon="0.67991">
        <ele>194.6</ele>
        <time>2025-05-25T07:44:23Z</time>
      </trkpt>
      <trkpt lat="45.11571" lon="0.67986">
        <ele>194.4</ele>
        <time>2025-05-25T07:44:24Z</time>
      </trkpt>
      <trkpt lat="45.11566" lon="0.67981">
        <ele>194.2</ele>
        <time>2025-05-25T07:44:25Z</time>
      </trkpt>
      <trkpt lat="45.11561" lon="0.67977">
        <ele>194.2</ele>
        <time>2025-05-25T07:44:26Z</time>
      </trkpt>
      <trkpt lat="45.11555" lon="0.67972">
        <ele>194.2</ele>
        <time>2025-05-25T07:44:27Z</time>
      </trkpt>
      <trkpt lat="45.11549" lon="0.67968">
        <ele>194</ele>
        <time>2025-05-25T07:44:28Z</time>
      </trkpt>
      <trkpt lat="45.11544" lon="0.67962">
        <ele>194</ele>
        <time>2025-05-25T07:44:29Z</time>
      </trkpt>
      <trkpt lat="45.11538" lon="0.67958">
        <ele>194</ele>
        <time>2025-05-25T07:44:30Z</time>
      </trkpt>
      <trkpt lat="45.11533" lon="0.67952">
        <ele>193.8</ele>
        <time>2025-05-25T07:44:31Z</time>
      </trkpt>
      <trkpt lat="45.11528" lon="0.67948">
        <ele>193.8</ele>
        <time>2025-05-25T07:44:32Z</time>
      </trkpt>
      <trkpt lat="45.11523" lon="0.67944">
        <ele>193.6</ele>
        <time>2025-05-25T07:44:33Z</time>
      </trkpt>
      <trkpt lat="45.11518" lon="0.6794">
        <ele>193.6</ele>
        <time>2025-05-25T07:44:34Z</time>
      </trkpt>
      <trkpt lat="45.11512" lon="0.67937">
        <ele>193.6</ele>
        <time>2025-05-25T07:44:35Z</time>
      </trkpt>
      <trkpt lat="45.11506" lon="0.67935">
        <ele>193.6</ele>
        <time>2025-05-25T07:44:36Z</time>
      </trkpt>
      <trkpt lat="45.11501" lon="0.67932">
        <ele>193.6</ele>
        <time>2025-05-25T07:44:37Z</time>
      </trkpt>
      <trkpt lat="45.11496" lon="0.67931">
        <ele>193.8</ele>
        <time>2025-05-25T07:44:38Z</time>
      </trkpt>
      <trkpt lat="45.11491" lon="0.67929">
        <ele>194</ele>
        <time>2025-05-25T07:44:39Z</time>
      </trkpt>
      <trkpt lat="45.11486" lon="0.67927">
        <ele>194.2</ele>
        <time>2025-05-25T07:44:40Z</time>
      </trkpt>
      <trkpt lat="45.11481" lon="0.67925">
        <ele>194.4</ele>
        <time>2025-05-25T07:44:41Z</time>
      </trkpt>
      <trkpt lat="45.11475" lon="0.67923">
        <ele>194.4</ele>
        <time>2025-05-25T07:44:42Z</time>
      </trkpt>
      <trkpt lat="45.1147" lon="0.67921">
        <ele>194.6</ele>
        <time>2025-05-25T07:44:43Z</time>
      </trkpt>
      <trkpt lat="45.11465" lon="0.67919">
        <ele>194.8</ele>
        <time>2025-05-25T07:44:44Z</time>
      </trkpt>
      <trkpt lat="45.1146" lon="0.67918">
        <ele>195.2</ele>
        <time>2025-05-25T07:44:45Z</time>
      </trkpt>
      <trkpt lat="45.11455" lon="0.67916">
        <ele>195.6</ele>
        <time>2025-05-25T07:44:46Z</time>
      </trkpt>
      <trkpt lat="45.11451" lon="0.67915">
        <ele>195.8</ele>
        <time>2025-05-25T07:44:47Z</time>
      </trkpt>
      <trkpt lat="45.11446" lon="0.67914">
        <ele>196.2</ele>
        <time>2025-05-25T07:44:48Z</time>
      </trkpt>
      <trkpt lat="45.11441" lon="0.67913">
        <ele>196.4</ele>
        <time>2025-05-25T07:44:49Z</time>
      </trkpt>
      <trkpt lat="45.11437" lon="0.67912">
        <ele>196.8</ele>
        <time>2025-05-25T07:44:50Z</time>
      </trkpt>
      <trkpt lat="45.11432" lon="0.67912">
        <ele>196.8</ele>
        <time>2025-05-25T07:44:51Z</time>
      </trkpt>
      <trkpt lat="45.11428" lon="0.67912">
        <ele>197</ele>
        <time>2025-05-25T07:44:52Z</time>
      </trkpt>
      <trkpt lat="45.11423" lon="0.67911">
        <ele>197</ele>
        <time>2025-05-25T07:44:53Z</time>
      </trkpt>
      <trkpt lat="45.11418" lon="0.67911">
        <ele>197</ele>
        <time>2025-05-25T07:44:54Z</time>
      </trkpt>
      <trkpt lat="45.11413" lon="0.6791">
        <ele>197</ele>
        <time>2025-05-25T07:44:55Z</time>
      </trkpt>
      <trkpt lat="45.11409" lon="0.67909">
        <ele>197.2</ele>
        <time>2025-05-25T07:44:56Z</time>
      </trkpt>
      <trkpt lat="45.11404" lon="0.67908">
        <ele>197.2</ele>
        <time>2025-05-25T07:44:57Z</time>
      </trkpt>
      <trkpt lat="45.11399" lon="0.67907">
        <ele>197.4</ele>
        <time>2025-05-25T07:44:58Z</time>
      </trkpt>
      <trkpt lat="45.11395" lon="0.67905">
        <ele>197.4</ele>
        <time>2025-05-25T07:44:59Z</time>
      </trkpt>
      <trkpt lat="45.1139" lon="0.67904">
        <ele>197.6</ele>
        <time>2025-05-25T07:45:00Z</time>
      </trkpt>
      <trkpt lat="45.11386" lon="0.67902">
        <ele>197.6</ele>
        <time>2025-05-25T07:45:01Z</time>
      </trkpt>
      <trkpt lat="45.11382" lon="0.67899">
        <ele>197.6</ele>
        <time>2025-05-25T07:45:02Z</time>
      </trkpt>
      <trkpt lat="45.11377" lon="0.67896">
        <ele>197.6</ele>
        <time>2025-05-25T07:45:03Z</time>
      </trkpt>
      <trkpt lat="45.11373" lon="0.67893">
        <ele>197.8</ele>
        <time>2025-05-25T07:45:04Z</time>
      </trkpt>
      <trkpt lat="45.11369" lon="0.67889">
        <ele>197.8</ele>
        <time>2025-05-25T07:45:05Z</time>
      </trkpt>
      <trkpt lat="45.11365" lon="0.67886">
        <ele>197.8</ele>
        <time>2025-05-25T07:45:06Z</time>
      </trkpt>
      <trkpt lat="45.11362" lon="0.67883">
        <ele>198</ele>
        <time>2025-05-25T07:45:07Z</time>
      </trkpt>
      <trkpt lat="45.11358" lon="0.6788">
        <ele>198</ele>
        <time>2025-05-25T07:45:08Z</time>
      </trkpt>
      <trkpt lat="45.11354" lon="0.67876">
        <ele>198.2</ele>
        <time>2025-05-25T07:45:09Z</time>
      </trkpt>
      <trkpt lat="45.11351" lon="0.67873">
        <ele>198.2</ele>
        <time>2025-05-25T07:45:10Z</time>
      </trkpt>
      <trkpt lat="45.11348" lon="0.67869">
        <ele>198.4</ele>
        <time>2025-05-25T07:45:11Z</time>
      </trkpt>
      <trkpt lat="45.11345" lon="0.67865">
        <ele>198.6</ele>
        <time>2025-05-25T07:45:12Z</time>
      </trkpt>
      <trkpt lat="45.11341" lon="0.67862">
        <ele>198.8</ele>
        <time>2025-05-25T07:45:13Z</time>
      </trkpt>
      <trkpt lat="45.11338" lon="0.67858">
        <ele>199</ele>
        <time>2025-05-25T07:45:14Z</time>
      </trkpt>
      <trkpt lat="45.11335" lon="0.67855">
        <ele>199.2</ele>
        <time>2025-05-25T07:45:15Z</time>
      </trkpt>
      <trkpt lat="45.11332" lon="0.67852">
        <ele>199.4</ele>
        <time>2025-05-25T07:45:16Z</time>
      </trkpt>
      <trkpt lat="45.11329" lon="0.67849">
        <ele>199.6</ele>
        <time>2025-05-25T07:45:17Z</time>
      </trkpt>
      <trkpt lat="45.11326" lon="0.67846">
        <ele>199.8</ele>
        <time>2025-05-25T07:45:18Z</time>
      </trkpt>
      <trkpt lat="45.11323" lon="0.67843">
        <ele>200.2</ele>
        <time>2025-05-25T07:45:19Z</time>
      </trkpt>
      <trkpt lat="45.1132" lon="0.67841">
        <ele>200.4</ele>
        <time>2025-05-25T07:45:20Z</time>
      </trkpt>
      <trkpt lat="45.11316" lon="0.67839">
        <ele>200.6</ele>
        <time>2025-05-25T07:45:21Z</time>
      </trkpt>
      <trkpt lat="45.11313" lon="0.67838">
        <ele>200.8</ele>
        <time>2025-05-25T07:45:22Z</time>
      </trkpt>
      <trkpt lat="45.11309" lon="0.67837">
        <ele>201</ele>
        <time>2025-05-25T07:45:23Z</time>
      </trkpt>
      <trkpt lat="45.11306" lon="0.67836">
        <ele>201.4</ele>
        <time>2025-05-25T07:45:24Z</time>
      </trkpt>
      <trkpt lat="45.11303" lon="0.67835">
        <ele>201.6</ele>
        <time>2025-05-25T07:45:25Z</time>
      </trkpt>
      <trkpt lat="45.113" lon="0.67834">
        <ele>201.8</ele>
        <time>2025-05-25T07:45:26Z</time>
      </trkpt>
      <trkpt lat="45.11297" lon="0.67833">
        <ele>202</ele>
        <time>2025-05-25T07:45:27Z</time>
      </trkpt>
      <trkpt lat="45.11294" lon="0.67831">
        <ele>202.4</ele>
        <time>2025-05-25T07:45:28Z</time>
      </trkpt>
      <trkpt lat="45.11292" lon="0.6783">
        <ele>202.6</ele>
        <time>2025-05-25T07:45:29Z</time>
      </trkpt>
      <trkpt lat="45.11288" lon="0.67829">
        <ele>202.8</ele>
        <time>2025-05-25T07:45:30Z</time>
      </trkpt>
      <trkpt lat="45.11285" lon="0.67827">
        <ele>203</ele>
        <time>2025-05-25T07:45:31Z</time>
      </trkpt>
      <trkpt lat="45.11282" lon="0.67825">
        <ele>203.2</ele>
        <time>2025-05-25T07:45:32Z</time>
      </trkpt>
      <trkpt lat="45.1128" lon="0.67823">
        <ele>203.4</ele>
        <time>2025-05-25T07:45:33Z</time>
      </trkpt>
      <trkpt lat="45.11277" lon="0.67821">
        <ele>203.4</ele>
        <time>2025-05-25T07:45:34Z</time>
      </trkpt>
      <trkpt lat="45.11275" lon="0.67819">
        <ele>203.4</ele>
        <time>2025-05-25T07:45:35Z</time>
      </trkpt>
      <trkpt lat="45.11272" lon="0.67817">
        <ele>203.6</ele>
        <time>2025-05-25T07:45:36Z</time>
      </trkpt>
      <trkpt lat="45.11269" lon="0.67815">
        <ele>203.6</ele>
        <time>2025-05-25T07:45:37Z</time>
      </trkpt>
      <trkpt lat="45.11264" lon="0.67813">
        <ele>203.8</ele>
        <time>2025-05-25T07:45:38Z</time>
      </trkpt>
      <trkpt lat="45.11261" lon="0.6781">
        <ele>204</ele>
        <time>2025-05-25T07:45:39Z</time>
      </trkpt>
      <trkpt lat="45.11257" lon="0.67808">
        <ele>204.2</ele>
        <time>2025-05-25T07:45:40Z</time>
      </trkpt>
      <trkpt lat="45.11253" lon="0.67805">
        <ele>204.6</ele>
        <time>2025-05-25T07:45:41Z</time>
      </trkpt>
      <trkpt lat="45.1125" lon="0.67803">
        <ele>204.6</ele>
        <time>2025-05-25T07:45:42Z</time>
      </trkpt>
      <trkpt lat="45.11247" lon="0.67802">
        <ele>205</ele>
        <time>2025-05-25T07:45:43Z</time>
      </trkpt>
      <trkpt lat="45.11244" lon="0.67801">
        <ele>205.2</ele>
        <time>2025-05-25T07:45:44Z</time>
      </trkpt>
      <trkpt lat="45.11241" lon="0.67801">
        <ele>205.4</ele>
        <time>2025-05-25T07:45:45Z</time>
      </trkpt>
      <trkpt lat="45.11238" lon="0.67801">
        <ele>205.6</ele>
        <time>2025-05-25T07:45:46Z</time>
      </trkpt>
      <trkpt lat="45.11235" lon="0.67801">
        <ele>205.8</ele>
        <time>2025-05-25T07:45:47Z</time>
      </trkpt>
      <trkpt lat="45.11232" lon="0.67801">
        <ele>206</ele>
        <time>2025-05-25T07:45:48Z</time>
      </trkpt>
      <trkpt lat="45.11229" lon="0.67801">
        <ele>206</ele>
        <time>2025-05-25T07:45:49Z</time>
      </trkpt>
      <trkpt lat="45.11226" lon="0.67801">
        <ele>206</ele>
        <time>2025-05-25T07:45:50Z</time>
      </trkpt>
      <trkpt lat="45.11223" lon="0.67802">
        <ele>206</ele>
        <time>2025-05-25T07:45:51Z</time>
      </trkpt>
      <trkpt lat="45.1122" lon="0.67802">
        <ele>206.2</ele>
        <time>2025-05-25T07:45:52Z</time>
      </trkpt>
      <trkpt lat="45.11217" lon="0.67803">
        <ele>206.2</ele>
        <time>2025-05-25T07:45:53Z</time>
      </trkpt>
      <trkpt lat="45.11214" lon="0.67804">
        <ele>206.2</ele>
        <time>2025-05-25T07:45:54Z</time>
      </trkpt>
      <trkpt lat="45.11211" lon="0.67804">
        <ele>206.2</ele>
        <time>2025-05-25T07:45:55Z</time>
      </trkpt>
      <trkpt lat="45.11208" lon="0.67805">
        <ele>206.2</ele>
        <time>2025-05-25T07:45:56Z</time>
      </trkpt>
      <trkpt lat="45.11204" lon="0.67805">
        <ele>206.2</ele>
        <time>2025-05-25T07:45:57Z</time>
      </trkpt>
      <trkpt lat="45.112" lon="0.67805">
        <ele>206.2</ele>
        <time>2025-05-25T07:45:58Z</time>
      </trkpt>
      <trkpt lat="45.11196" lon="0.67805">
        <ele>206</ele>
        <time>2025-05-25T07:45:59Z</time>
      </trkpt>
      <trkpt lat="45.11192" lon="0.67805">
        <ele>206</ele>
        <time>2025-05-25T07:46:00Z</time>
      </trkpt>
      <trkpt lat="45.11188" lon="0.67805">
        <ele>205.8</ele>
        <time>2025-05-25T07:46:01Z</time>
      </trkpt>
      <trkpt lat="45.11184" lon="0.67805">
        <ele>205.8</ele>
        <time>2025-05-25T07:46:02Z</time>
      </trkpt>
      <trkpt lat="45.11179" lon="0.67805">
        <ele>205.6</ele>
        <time>2025-05-25T07:46:03Z</time>
      </trkpt>
      <trkpt lat="45.11175" lon="0.67804">
        <ele>205.6</ele>
        <time>2025-05-25T07:46:04Z</time>
      </trkpt>
      <trkpt lat="45.1117" lon="0.67805">
        <ele>205.4</ele>
        <time>2025-05-25T07:46:05Z</time>
      </trkpt>
      <trkpt lat="45.11166" lon="0.67805">
        <ele>205.4</ele>
        <time>2025-05-25T07:46:06Z</time>
      </trkpt>
      <trkpt lat="45.11162" lon="0.67806">
        <ele>205.4</ele>
        <time>2025-05-25T07:46:07Z</time>
      </trkpt>
      <trkpt lat="45.11157" lon="0.67807">
        <ele>205.4</ele>
        <time>2025-05-25T07:46:08Z</time>
      </trkpt>
      <trkpt lat="45.11152" lon="0.6781">
        <ele>205.2</ele>
        <time>2025-05-25T07:46:09Z</time>
      </trkpt>
      <trkpt lat="45.11149" lon="0.67813">
        <ele>205.4</ele>
        <time>2025-05-25T07:46:10Z</time>
      </trkpt>
      <trkpt lat="45.11145" lon="0.67817">
        <ele>205.4</ele>
        <time>2025-05-25T07:46:11Z</time>
      </trkpt>
      <trkpt lat="45.11142" lon="0.67821">
        <ele>205.6</ele>
        <time>2025-05-25T07:46:12Z</time>
      </trkpt>
      <trkpt lat="45.11138" lon="0.67825">
        <ele>205.8</ele>
        <time>2025-05-25T07:46:13Z</time>
      </trkpt>
      <trkpt lat="45.11135" lon="0.67829">
        <ele>206</ele>
        <time>2025-05-25T07:46:14Z</time>
      </trkpt>
      <trkpt lat="45.11132" lon="0.67833">
        <ele>206.2</ele>
        <time>2025-05-25T07:46:15Z</time>
      </trkpt>
      <trkpt lat="45.1113" lon="0.67836">
        <ele>206.4</ele>
        <time>2025-05-25T07:46:16Z</time>
      </trkpt>
      <trkpt lat="45.11126" lon="0.67839">
        <ele>206.6</ele>
        <time>2025-05-25T07:46:17Z</time>
      </trkpt>
      <trkpt lat="45.11124" lon="0.67843">
        <ele>206.8</ele>
        <time>2025-05-25T07:46:18Z</time>
      </trkpt>
      <trkpt lat="45.1112" lon="0.67846">
        <ele>207</ele>
        <time>2025-05-25T07:46:19Z</time>
      </trkpt>
      <trkpt lat="45.11117" lon="0.67848">
        <ele>207.2</ele>
        <time>2025-05-25T07:46:20Z</time>
      </trkpt>
      <trkpt lat="45.11113" lon="0.67848">
        <ele>207.4</ele>
        <time>2025-05-25T07:46:21Z</time>
      </trkpt>
      <trkpt lat="45.11109" lon="0.67848">
        <ele>207.6</ele>
        <time>2025-05-25T07:46:22Z</time>
      </trkpt>
      <trkpt lat="45.11106" lon="0.67848">
        <ele>207.6</ele>
        <time>2025-05-25T07:46:23Z</time>
      </trkpt>
      <trkpt lat="45.11102" lon="0.67848">
        <ele>207.8</ele>
        <time>2025-05-25T07:46:24Z</time>
      </trkpt>
      <trkpt lat="45.11098" lon="0.67848">
        <ele>208</ele>
        <time>2025-05-25T07:46:25Z</time>
      </trkpt>
      <trkpt lat="45.11094" lon="0.67848">
        <ele>208</ele>
        <time>2025-05-25T07:46:26Z</time>
      </trkpt>
      <trkpt lat="45.1109" lon="0.67848">
        <ele>208.2</ele>
        <time>2025-05-25T07:46:27Z</time>
      </trkpt>
      <trkpt lat="45.11086" lon="0.67849">
        <ele>208.2</ele>
        <time>2025-05-25T07:46:28Z</time>
      </trkpt>
      <trkpt lat="45.11081" lon="0.67849">
        <ele>208.4</ele>
        <time>2025-05-25T07:46:29Z</time>
      </trkpt>
      <trkpt lat="45.11077" lon="0.67849">
        <ele>208.6</ele>
        <time>2025-05-25T07:46:30Z</time>
      </trkpt>
      <trkpt lat="45.11073" lon="0.6785">
        <ele>209</ele>
        <time>2025-05-25T07:46:31Z</time>
      </trkpt>
      <trkpt lat="45.11069" lon="0.6785">
        <ele>209.2</ele>
        <time>2025-05-25T07:46:32Z</time>
      </trkpt>
      <trkpt lat="45.11065" lon="0.6785">
        <ele>209.4</ele>
        <time>2025-05-25T07:46:33Z</time>
      </trkpt>
      <trkpt lat="45.11061" lon="0.67849">
        <ele>209.6</ele>
        <time>2025-05-25T07:46:34Z</time>
      </trkpt>
      <trkpt lat="45.11057" lon="0.67849">
        <ele>209.8</ele>
        <time>2025-05-25T07:46:35Z</time>
      </trkpt>
      <trkpt lat="45.11054" lon="0.67849">
        <ele>210</ele>
        <time>2025-05-25T07:46:36Z</time>
      </trkpt>
      <trkpt lat="45.11049" lon="0.67848">
        <ele>210</ele>
        <time>2025-05-25T07:46:37Z</time>
      </trkpt>
      <trkpt lat="45.11046" lon="0.67846">
        <ele>210.2</ele>
        <time>2025-05-25T07:46:38Z</time>
      </trkpt>
      <trkpt lat="45.11042" lon="0.67844">
        <ele>210.2</ele>
        <time>2025-05-25T07:46:39Z</time>
      </trkpt>
      <trkpt lat="45.11038" lon="0.6784">
        <ele>210.4</ele>
        <time>2025-05-25T07:46:40Z</time>
      </trkpt>
      <trkpt lat="45.11035" lon="0.67837">
        <ele>210.4</ele>
        <time>2025-05-25T07:46:41Z</time>
      </trkpt>
      <trkpt lat="45.11031" lon="0.67834">
        <ele>210.6</ele>
        <time>2025-05-25T07:46:42Z</time>
      </trkpt>
      <trkpt lat="45.11028" lon="0.67829">
        <ele>210.6</ele>
        <time>2025-05-25T07:46:43Z</time>
      </trkpt>
      <trkpt lat="45.11026" lon="0.67825">
        <ele>210.8</ele>
        <time>2025-05-25T07:46:44Z</time>
      </trkpt>
      <trkpt lat="45.11025" lon="0.6782">
        <ele>210.8</ele>
        <time>2025-05-25T07:46:45Z</time>
      </trkpt>
      <trkpt lat="45.11024" lon="0.67815">
        <ele>210.8</ele>
        <time>2025-05-25T07:46:46Z</time>
      </trkpt>
      <trkpt lat="45.11023" lon="0.6781">
        <ele>211</ele>
        <time>2025-05-25T07:46:47Z</time>
      </trkpt>
      <trkpt lat="45.11022" lon="0.67804">
        <ele>211</ele>
        <time>2025-05-25T07:46:48Z</time>
      </trkpt>
      <trkpt lat="45.1102" lon="0.678">
        <ele>211.2</ele>
        <time>2025-05-25T07:46:49Z</time>
      </trkpt>
      <trkpt lat="45.11018" lon="0.67796">
        <ele>211.2</ele>
        <time>2025-05-25T07:46:50Z</time>
      </trkpt>
      <trkpt lat="45.11016" lon="0.67792">
        <ele>211.2</ele>
        <time>2025-05-25T07:46:51Z</time>
      </trkpt>
      <trkpt lat="45.11013" lon="0.67788">
        <ele>211.2</ele>
        <time>2025-05-25T07:46:52Z</time>
      </trkpt>
      <trkpt lat="45.1101" lon="0.67786">
        <ele>211.2</ele>
        <time>2025-05-25T07:46:53Z</time>
      </trkpt>
      <trkpt lat="45.11007" lon="0.67782">
        <ele>211.2</ele>
        <time>2025-05-25T07:46:54Z</time>
      </trkpt>
      <trkpt lat="45.11003" lon="0.67779">
        <ele>211.2</ele>
        <time>2025-05-25T07:46:55Z</time>
      </trkpt>
      <trkpt lat="45.10999" lon="0.67777">
        <ele>211.2</ele>
        <time>2025-05-25T07:46:56Z</time>
      </trkpt>
      <trkpt lat="45.10995" lon="0.67776">
        <ele>211.2</ele>
        <time>2025-05-25T07:46:57Z</time>
      </trkpt>
      <trkpt lat="45.10991" lon="0.67775">
        <ele>211.2</ele>
        <time>2025-05-25T07:46:58Z</time>
      </trkpt>
      <trkpt lat="45.10987" lon="0.67774">
        <ele>211.2</ele>
        <time>2025-05-25T07:46:59Z</time>
      </trkpt>
      <trkpt lat="45.10982" lon="0.67773">
        <ele>211</ele>
        <time>2025-05-25T07:47:00Z</time>
      </trkpt>
      <trkpt lat="45.10977" lon="0.67772">
        <ele>211</ele>
        <time>2025-05-25T07:47:01Z</time>
      </trkpt>
      <trkpt lat="45.10972" lon="0.67771">
        <ele>211</ele>
        <time>2025-05-25T07:47:02Z</time>
      </trkpt>
      <trkpt lat="45.10966" lon="0.67769">
        <ele>211</ele>
        <time>2025-05-25T07:47:03Z</time>
      </trkpt>
      <trkpt lat="45.1096" lon="0.67768">
        <ele>211</ele>
        <time>2025-05-25T07:47:04Z</time>
      </trkpt>
      <trkpt lat="45.10955" lon="0.67767">
        <ele>211</ele>
        <time>2025-05-25T07:47:05Z</time>
      </trkpt>
      <trkpt lat="45.10949" lon="0.67767">
        <ele>210.8</ele>
        <time>2025-05-25T07:47:06Z</time>
      </trkpt>
      <trkpt lat="45.10943" lon="0.67769">
        <ele>210.6</ele>
        <time>2025-05-25T07:47:07Z</time>
      </trkpt>
      <trkpt lat="45.10937" lon="0.67771">
        <ele>210.2</ele>
        <time>2025-05-25T07:47:08Z</time>
      </trkpt>
      <trkpt lat="45.10931" lon="0.67775">
        <ele>209.8</ele>
        <time>2025-05-25T07:47:09Z</time>
      </trkpt>
      <trkpt lat="45.10925" lon="0.67779">
        <ele>209.6</ele>
        <time>2025-05-25T07:47:10Z</time>
      </trkpt>
      <trkpt lat="45.1092" lon="0.67784">
        <ele>209.4</ele>
        <time>2025-05-25T07:47:11Z</time>
      </trkpt>
      <trkpt lat="45.10914" lon="0.67789">
        <ele>209.2</ele>
        <time>2025-05-25T07:47:12Z</time>
      </trkpt>
      <trkpt lat="45.10909" lon="0.67795">
        <ele>209.2</ele>
        <time>2025-05-25T07:47:13Z</time>
      </trkpt>
      <trkpt lat="45.10904" lon="0.678">
        <ele>209.2</ele>
        <time>2025-05-25T07:47:14Z</time>
      </trkpt>
      <trkpt lat="45.10898" lon="0.67804">
        <ele>209.2</ele>
        <time>2025-05-25T07:47:15Z</time>
      </trkpt>
      <trkpt lat="45.10894" lon="0.67808">
        <ele>209.2</ele>
        <time>2025-05-25T07:47:16Z</time>
      </trkpt>
      <trkpt lat="45.1089" lon="0.67813">
        <ele>209.4</ele>
        <time>2025-05-25T07:47:17Z</time>
      </trkpt>
      <trkpt lat="45.1089" lon="0.67818">
        <ele>209.8</ele>
        <time>2025-05-25T07:47:18Z</time>
      </trkpt>
      <trkpt lat="45.10891" lon="0.67822">
        <ele>210</ele>
        <time>2025-05-25T07:47:19Z</time>
      </trkpt>
      <trkpt lat="45.10895" lon="0.67823">
        <ele>210.2</ele>
        <time>2025-05-25T07:47:20Z</time>
      </trkpt>
      <trkpt lat="45.10899" lon="0.67826">
        <ele>210.2</ele>
        <time>2025-05-25T07:47:21Z</time>
      </trkpt>
      <trkpt lat="45.10902" lon="0.67832">
        <ele>210.2</ele>
        <time>2025-05-25T07:47:22Z</time>
      </trkpt>
      <trkpt lat="45.10903" lon="0.67839">
        <ele>209.8</ele>
        <time>2025-05-25T07:47:23Z</time>
      </trkpt>
      <trkpt lat="45.10904" lon="0.67846">
        <ele>209.6</ele>
        <time>2025-05-25T07:47:24Z</time>
      </trkpt>
      <trkpt lat="45.10905" lon="0.67853">
        <ele>209.2</ele>
        <time>2025-05-25T07:47:25Z</time>
      </trkpt>
      <trkpt lat="45.10905" lon="0.6786">
        <ele>209</ele>
        <time>2025-05-25T07:47:26Z</time>
      </trkpt>
      <trkpt lat="45.10906" lon="0.67869">
        <ele>208.6</ele>
        <time>2025-05-25T07:47:27Z</time>
      </trkpt>
      <trkpt lat="45.10908" lon="0.67877">
        <ele>208.4</ele>
        <time>2025-05-25T07:47:28Z</time>
      </trkpt>
      <trkpt lat="45.10909" lon="0.67887">
        <ele>208</ele>
        <time>2025-05-25T07:47:29Z</time>
      </trkpt>
      <trkpt lat="45.1091" lon="0.67897">
        <ele>207.8</ele>
        <time>2025-05-25T07:47:30Z</time>
      </trkpt>
      <trkpt lat="45.10911" lon="0.67907">
        <ele>207.2</ele>
        <time>2025-05-25T07:47:31Z</time>
      </trkpt>
      <trkpt lat="45.10911" lon="0.67916">
        <ele>206.8</ele>
        <time>2025-05-25T07:47:32Z</time>
      </trkpt>
      <trkpt lat="45.1091" lon="0.67926">
        <ele>206.4</ele>
        <time>2025-05-25T07:47:33Z</time>
      </trkpt>
      <trkpt lat="45.1091" lon="0.67935">
        <ele>206</ele>
        <time>2025-05-25T07:47:34Z</time>
      </trkpt>
      <trkpt lat="45.10911" lon="0.67945">
        <ele>205.8</ele>
        <time>2025-05-25T07:47:35Z</time>
      </trkpt>
      <trkpt lat="45.10911" lon="0.67954">
        <ele>205.8</ele>
        <time>2025-05-25T07:47:36Z</time>
      </trkpt>
      <trkpt lat="45.10912" lon="0.67963">
        <ele>205.8</ele>
        <time>2025-05-25T07:47:37Z</time>
      </trkpt>
      <trkpt lat="45.10913" lon="0.67972">
        <ele>205.8</ele>
        <time>2025-05-25T07:47:38Z</time>
      </trkpt>
      <trkpt lat="45.10915" lon="0.67982">
        <ele>205.8</ele>
        <time>2025-05-25T07:47:39Z</time>
      </trkpt>
      <trkpt lat="45.10916" lon="0.67992">
        <ele>205.8</ele>
        <time>2025-05-25T07:47:40Z</time>
      </trkpt>
      <trkpt lat="45.10917" lon="0.68002">
        <ele>205.6</ele>
        <time>2025-05-25T07:47:41Z</time>
      </trkpt>
      <trkpt lat="45.10919" lon="0.68012">
        <ele>205.6</ele>
        <time>2025-05-25T07:47:42Z</time>
      </trkpt>
      <trkpt lat="45.1092" lon="0.68021">
        <ele>205.6</ele>
        <time>2025-05-25T07:47:43Z</time>
      </trkpt>
      <trkpt lat="45.10922" lon="0.68031">
        <ele>205.6</ele>
        <time>2025-05-25T07:47:44Z</time>
      </trkpt>
      <trkpt lat="45.10925" lon="0.6804">
        <ele>205.4</ele>
        <time>2025-05-25T07:47:45Z</time>
      </trkpt>
      <trkpt lat="45.10928" lon="0.68049">
        <ele>205.2</ele>
        <time>2025-05-25T07:47:46Z</time>
      </trkpt>
      <trkpt lat="45.10931" lon="0.68058">
        <ele>205</ele>
        <time>2025-05-25T07:47:47Z</time>
      </trkpt>
      <trkpt lat="45.10933" lon="0.68067">
        <ele>204.8</ele>
        <time>2025-05-25T07:47:48Z</time>
      </trkpt>
      <trkpt lat="45.10936" lon="0.68076">
        <ele>204.4</ele>
        <time>2025-05-25T07:47:49Z</time>
      </trkpt>
      <trkpt lat="45.10938" lon="0.68086">
        <ele>204</ele>
        <time>2025-05-25T07:47:50Z</time>
      </trkpt>
      <trkpt lat="45.1094" lon="0.68097">
        <ele>203.8</ele>
        <time>2025-05-25T07:47:51Z</time>
      </trkpt>
      <trkpt lat="45.10942" lon="0.68107">
        <ele>203.4</ele>
        <time>2025-05-25T07:47:52Z</time>
      </trkpt>
      <trkpt lat="45.10944" lon="0.68118">
        <ele>203.2</ele>
        <time>2025-05-25T07:47:53Z</time>
      </trkpt>
      <trkpt lat="45.10944" lon="0.68128">
        <ele>203</ele>
        <time>2025-05-25T07:47:54Z</time>
      </trkpt>
      <trkpt lat="45.10945" lon="0.68137">
        <ele>203</ele>
        <time>2025-05-25T07:47:55Z</time>
      </trkpt>
      <trkpt lat="45.10948" lon="0.68147">
        <ele>202.6</ele>
        <time>2025-05-25T07:47:56Z</time>
      </trkpt>
      <trkpt lat="45.10949" lon="0.68157">
        <ele>202.4</ele>
        <time>2025-05-25T07:47:57Z</time>
      </trkpt>
      <trkpt lat="45.10951" lon="0.68168">
        <ele>202.4</ele>
        <time>2025-05-25T07:47:58Z</time>
      </trkpt>
      <trkpt lat="45.10952" lon="0.68179">
        <ele>202</ele>
        <time>2025-05-25T07:47:59Z</time>
      </trkpt>
      <trkpt lat="45.10956" lon="0.68189">
        <ele>201.6</ele>
        <time>2025-05-25T07:48:00Z</time>
      </trkpt>
      <trkpt lat="45.1096" lon="0.68198">
        <ele>201.6</ele>
        <time>2025-05-25T07:48:01Z</time>
      </trkpt>
      <trkpt lat="45.10965" lon="0.68207">
        <ele>201.4</ele>
        <time>2025-05-25T07:48:02Z</time>
      </trkpt>
      <trkpt lat="45.1097" lon="0.68216">
        <ele>201</ele>
        <time>2025-05-25T07:48:03Z</time>
      </trkpt>
      <trkpt lat="45.10973" lon="0.68226">
        <ele>200.4</ele>
        <time>2025-05-25T07:48:04Z</time>
      </trkpt>
      <trkpt lat="45.10976" lon="0.68236">
        <ele>200</ele>
        <time>2025-05-25T07:48:05Z</time>
      </trkpt>
      <trkpt lat="45.10979" lon="0.68245">
        <ele>199.4</ele>
        <time>2025-05-25T07:48:06Z</time>
      </trkpt>
      <trkpt lat="45.10981" lon="0.68253">
        <ele>199</ele>
        <time>2025-05-25T07:48:07Z</time>
      </trkpt>
      <trkpt lat="45.10982" lon="0.68261">
        <ele>198.6</ele>
        <time>2025-05-25T07:48:08Z</time>
      </trkpt>
      <trkpt lat="45.10983" lon="0.68269">
        <ele>198.2</ele>
        <time>2025-05-25T07:48:09Z</time>
      </trkpt>
      <trkpt lat="45.10985" lon="0.68276">
        <ele>197.6</ele>
        <time>2025-05-25T07:48:10Z</time>
      </trkpt>
      <trkpt lat="45.10984" lon="0.68281">
        <ele>197.4</ele>
        <time>2025-05-25T07:48:11Z</time>
      </trkpt>
      <trkpt lat="45.10983" lon="0.68282">
        <ele>197.2</ele>
        <time>2025-05-25T07:48:12Z</time>
      </trkpt>
      <trkpt lat="45.10983" lon="0.68282">
        <ele>197.2</ele>
        <time>2025-05-25T07:48:13Z</time>
      </trkpt>
      <trkpt lat="45.10983" lon="0.68283">
        <ele>197.4</ele>
        <time>2025-05-25T07:48:14Z</time>
      </trkpt>
      <trkpt lat="45.10979" lon="0.68287">
        <ele>197.6</ele>
        <time>2025-05-25T07:48:31Z</time>
      </trkpt>
      <trkpt lat="45.10977" lon="0.68287">
        <ele>197.4</ele>
        <time>2025-05-25T07:48:32Z</time>
      </trkpt>
      <trkpt lat="45.10975" lon="0.68287">
        <ele>197.4</ele>
        <time>2025-05-25T07:48:33Z</time>
      </trkpt>
      <trkpt lat="45.10972" lon="0.68287">
        <ele>197.2</ele>
        <time>2025-05-25T07:48:34Z</time>
      </trkpt>
      <trkpt lat="45.10969" lon="0.68288">
        <ele>197.2</ele>
        <time>2025-05-25T07:48:35Z</time>
      </trkpt>
      <trkpt lat="45.10965" lon="0.68288">
        <ele>197.2</ele>
        <time>2025-05-25T07:48:36Z</time>
      </trkpt>
      <trkpt lat="45.10961" lon="0.6829">
        <ele>197.2</ele>
        <time>2025-05-25T07:48:37Z</time>
      </trkpt>
      <trkpt lat="45.10956" lon="0.68291">
        <ele>197</ele>
        <time>2025-05-25T07:48:38Z</time>
      </trkpt>
      <trkpt lat="45.1095" lon="0.68292">
        <ele>196.6</ele>
        <time>2025-05-25T07:48:39Z</time>
      </trkpt>
      <trkpt lat="45.10944" lon="0.68292">
        <ele>196.4</ele>
        <time>2025-05-25T07:48:40Z</time>
      </trkpt>
      <trkpt lat="45.10938" lon="0.68292">
        <ele>196</ele>
        <time>2025-05-25T07:48:41Z</time>
      </trkpt>
      <trkpt lat="45.10933" lon="0.68291">
        <ele>195.8</ele>
        <time>2025-05-25T07:48:42Z</time>
      </trkpt>
      <trkpt lat="45.10929" lon="0.68291">
        <ele>195.6</ele>
        <time>2025-05-25T07:48:43Z</time>
      </trkpt>
      <trkpt lat="45.10929" lon="0.68291">
        <ele>195.8</ele>
        <time>2025-05-25T07:48:44Z</time>
      </trkpt>
      <trkpt lat="45.10929" lon="0.6829">
        <ele>196</ele>
        <time>2025-05-25T07:48:45Z</time>
      </trkpt>
      <trkpt lat="45.10924" lon="0.68291">
        <ele>196.6</ele>
        <time>2025-05-25T07:48:49Z</time>
      </trkpt>
      <trkpt lat="45.10922" lon="0.68291">
        <ele>196.6</ele>
        <time>2025-05-25T07:48:50Z</time>
      </trkpt>
      <trkpt lat="45.10919" lon="0.6829">
        <ele>196.4</ele>
        <time>2025-05-25T07:48:51Z</time>
      </trkpt>
      <trkpt lat="45.10915" lon="0.6829">
        <ele>196.2</ele>
        <time>2025-05-25T07:48:52Z</time>
      </trkpt>
      <trkpt lat="45.10911" lon="0.68291">
        <ele>196</ele>
        <time>2025-05-25T07:48:53Z</time>
      </trkpt>
      <trkpt lat="45.10906" lon="0.68291">
        <ele>195.8</ele>
        <time>2025-05-25T07:48:54Z</time>
      </trkpt>
      <trkpt lat="45.10902" lon="0.68291">
        <ele>195.4</ele>
        <time>2025-05-25T07:48:55Z</time>
      </trkpt>
      <trkpt lat="45.10897" lon="0.68291">
        <ele>195.2</ele>
        <time>2025-05-25T07:48:56Z</time>
      </trkpt>
      <trkpt lat="45.10893" lon="0.68291">
        <ele>195</ele>
        <time>2025-05-25T07:48:57Z</time>
      </trkpt>
      <trkpt lat="45.10888" lon="0.68292">
        <ele>194.6</ele>
        <time>2025-05-25T07:48:58Z</time>
      </trkpt>
      <trkpt lat="45.10883" lon="0.68292">
        <ele>194.4</ele>
        <time>2025-05-25T07:48:59Z</time>
      </trkpt>
      <trkpt lat="45.10878" lon="0.68291">
        <ele>194</ele>
        <time>2025-05-25T07:49:00Z</time>
      </trkpt>
      <trkpt lat="45.10873" lon="0.68292">
        <ele>194</ele>
        <time>2025-05-25T07:49:01Z</time>
      </trkpt>
      <trkpt lat="45.10868" lon="0.68292">
        <ele>193.8</ele>
        <time>2025-05-25T07:49:02Z</time>
      </trkpt>
      <trkpt lat="45.10863" lon="0.68292">
        <ele>193.6</ele>
        <time>2025-05-25T07:49:03Z</time>
      </trkpt>
      <trkpt lat="45.10857" lon="0.68291">
        <ele>193.6</ele>
        <time>2025-05-25T07:49:04Z</time>
      </trkpt>
      <trkpt lat="45.10853" lon="0.68291">
        <ele>193.6</ele>
        <time>2025-05-25T07:49:05Z</time>
      </trkpt>
      <trkpt lat="45.10848" lon="0.6829">
        <ele>193.6</ele>
        <time>2025-05-25T07:49:06Z</time>
      </trkpt>
      <trkpt lat="45.10843" lon="0.68289">
        <ele>193.6</ele>
        <time>2025-05-25T07:49:07Z</time>
      </trkpt>
      <trkpt lat="45.10838" lon="0.68289">
        <ele>193.8</ele>
        <time>2025-05-25T07:49:08Z</time>
      </trkpt>
      <trkpt lat="45.10834" lon="0.68288">
        <ele>193.8</ele>
        <time>2025-05-25T07:49:09Z</time>
      </trkpt>
      <trkpt lat="45.10829" lon="0.68288">
        <ele>194</ele>
        <time>2025-05-25T07:49:10Z</time>
      </trkpt>
      <trkpt lat="45.10824" lon="0.68287">
        <ele>194.2</ele>
        <time>2025-05-25T07:49:11Z</time>
      </trkpt>
      <trkpt lat="45.1082" lon="0.68287">
        <ele>194.4</ele>
        <time>2025-05-25T07:49:12Z</time>
      </trkpt>
      <trkpt lat="45.10816" lon="0.68286">
        <ele>194.6</ele>
        <time>2025-05-25T07:49:13Z</time>
      </trkpt>
      <trkpt lat="45.10812" lon="0.68286">
        <ele>194.8</ele>
        <time>2025-05-25T07:49:14Z</time>
      </trkpt>
      <trkpt lat="45.10809" lon="0.68285">
        <ele>195.2</ele>
        <time>2025-05-25T07:49:15Z</time>
      </trkpt>
      <trkpt lat="45.10806" lon="0.68284">
        <ele>195.4</ele>
        <time>2025-05-25T07:49:16Z</time>
      </trkpt>
      <trkpt lat="45.10803" lon="0.68284">
        <ele>195.8</ele>
        <time>2025-05-25T07:49:17Z</time>
      </trkpt>
      <trkpt lat="45.108" lon="0.68283">
        <ele>196</ele>
        <time>2025-05-25T07:49:18Z</time>
      </trkpt>
      <trkpt lat="45.10797" lon="0.68283">
        <ele>196.2</ele>
        <time>2025-05-25T07:49:19Z</time>
      </trkpt>
      <trkpt lat="45.10794" lon="0.68282">
        <ele>196.4</ele>
        <time>2025-05-25T07:49:20Z</time>
      </trkpt>
      <trkpt lat="45.10791" lon="0.68281">
        <ele>196.6</ele>
        <time>2025-05-25T07:49:21Z</time>
      </trkpt>
      <trkpt lat="45.10788" lon="0.6828">
        <ele>196.6</ele>
        <time>2025-05-25T07:49:22Z</time>
      </trkpt>
      <trkpt lat="45.10786" lon="0.68278">
        <ele>196.8</ele>
        <time>2025-05-25T07:49:23Z</time>
      </trkpt>
      <trkpt lat="45.10783" lon="0.68277">
        <ele>197</ele>
        <time>2025-05-25T07:49:24Z</time>
      </trkpt>
      <trkpt lat="45.1078" lon="0.68276">
        <ele>197.2</ele>
        <time>2025-05-25T07:49:25Z</time>
      </trkpt>
      <trkpt lat="45.10777" lon="0.68276">
        <ele>197.2</ele>
        <time>2025-05-25T07:49:26Z</time>
      </trkpt>
      <trkpt lat="45.10774" lon="0.68276">
        <ele>197.4</ele>
        <time>2025-05-25T07:49:27Z</time>
      </trkpt>
      <trkpt lat="45.10771" lon="0.68275">
        <ele>197.6</ele>
        <time>2025-05-25T07:49:28Z</time>
      </trkpt>
      <trkpt lat="45.10768" lon="0.68274">
        <ele>197.8</ele>
        <time>2025-05-25T07:49:29Z</time>
      </trkpt>
      <trkpt lat="45.10766" lon="0.68274">
        <ele>198</ele>
        <time>2025-05-25T07:49:30Z</time>
      </trkpt>
      <trkpt lat="45.10763" lon="0.68273">
        <ele>198.2</ele>
        <time>2025-05-25T07:49:31Z</time>
      </trkpt>
      <trkpt lat="45.1076" lon="0.68273">
        <ele>198.4</ele>
        <time>2025-05-25T07:49:32Z</time>
      </trkpt>
      <trkpt lat="45.10757" lon="0.68273">
        <ele>198.6</ele>
        <time>2025-05-25T07:49:33Z</time>
      </trkpt>
      <trkpt lat="45.10754" lon="0.68272">
        <ele>198.8</ele>
        <time>2025-05-25T07:49:34Z</time>
      </trkpt>
      <trkpt lat="45.10751" lon="0.68272">
        <ele>199</ele>
        <time>2025-05-25T07:49:35Z</time>
      </trkpt>
      <trkpt lat="45.10749" lon="0.68272">
        <ele>199</ele>
        <time>2025-05-25T07:49:36Z</time>
      </trkpt>
      <trkpt lat="45.10746" lon="0.68271">
        <ele>199.2</ele>
        <time>2025-05-25T07:49:37Z</time>
      </trkpt>
      <trkpt lat="45.10743" lon="0.68271">
        <ele>199.4</ele>
        <time>2025-05-25T07:49:38Z</time>
      </trkpt>
      <trkpt lat="45.1074" lon="0.6827">
        <ele>199.6</ele>
        <time>2025-05-25T07:49:39Z</time>
      </trkpt>
      <trkpt lat="45.10737" lon="0.6827">
        <ele>199.8</ele>
        <time>2025-05-25T07:49:40Z</time>
      </trkpt>
      <trkpt lat="45.10734" lon="0.6827">
        <ele>199.8</ele>
        <time>2025-05-25T07:49:41Z</time>
      </trkpt>
      <trkpt lat="45.10732" lon="0.6827">
        <ele>200</ele>
        <time>2025-05-25T07:49:42Z</time>
      </trkpt>
      <trkpt lat="45.10729" lon="0.6827">
        <ele>200.2</ele>
        <time>2025-05-25T07:49:43Z</time>
      </trkpt>
      <trkpt lat="45.10726" lon="0.6827">
        <ele>200.4</ele>
        <time>2025-05-25T07:49:44Z</time>
      </trkpt>
      <trkpt lat="45.10724" lon="0.6827">
        <ele>200.4</ele>
        <time>2025-05-25T07:49:45Z</time>
      </trkpt>
      <trkpt lat="45.10721" lon="0.6827">
        <ele>200.6</ele>
        <time>2025-05-25T07:49:46Z</time>
      </trkpt>
      <trkpt lat="45.10718" lon="0.6827">
        <ele>200.8</ele>
        <time>2025-05-25T07:49:47Z</time>
      </trkpt>
      <trkpt lat="45.10716" lon="0.6827">
        <ele>201</ele>
        <time>2025-05-25T07:49:48Z</time>
      </trkpt>
      <trkpt lat="45.10713" lon="0.6827">
        <ele>201</ele>
        <time>2025-05-25T07:49:49Z</time>
      </trkpt>
      <trkpt lat="45.10711" lon="0.6827">
        <ele>201.4</ele>
        <time>2025-05-25T07:49:50Z</time>
      </trkpt>
      <trkpt lat="45.10709" lon="0.68268">
        <ele>201.6</ele>
        <time>2025-05-25T07:49:51Z</time>
      </trkpt>
      <trkpt lat="45.10707" lon="0.68267">
        <ele>201.8</ele>
        <time>2025-05-25T07:49:52Z</time>
      </trkpt>
      <trkpt lat="45.10705" lon="0.68266">
        <ele>202</ele>
        <time>2025-05-25T07:49:53Z</time>
      </trkpt>
      <trkpt lat="45.10702" lon="0.68264">
        <ele>202</ele>
        <time>2025-05-25T07:49:54Z</time>
      </trkpt>
      <trkpt lat="45.10701" lon="0.68262">
        <ele>202.2</ele>
        <time>2025-05-25T07:49:55Z</time>
      </trkpt>
      <trkpt lat="45.10699" lon="0.6826">
        <ele>202.4</ele>
        <time>2025-05-25T07:49:56Z</time>
      </trkpt>
      <trkpt lat="45.10698" lon="0.68257">
        <ele>202.6</ele>
        <time>2025-05-25T07:49:57Z</time>
      </trkpt>
      <trkpt lat="45.10696" lon="0.68255">
        <ele>202.8</ele>
        <time>2025-05-25T07:49:58Z</time>
      </trkpt>
      <trkpt lat="45.10695" lon="0.68253">
        <ele>203</ele>
        <time>2025-05-25T07:49:59Z</time>
      </trkpt>
      <trkpt lat="45.10693" lon="0.68251">
        <ele>203.2</ele>
        <time>2025-05-25T07:50:00Z</time>
      </trkpt>
      <trkpt lat="45.10691" lon="0.68249">
        <ele>203.4</ele>
        <time>2025-05-25T07:50:01Z</time>
      </trkpt>
      <trkpt lat="45.1069" lon="0.68247">
        <ele>203.6</ele>
        <time>2025-05-25T07:50:02Z</time>
      </trkpt>
      <trkpt lat="45.10688" lon="0.68246">
        <ele>203.8</ele>
        <time>2025-05-25T07:50:03Z</time>
      </trkpt>
      <trkpt lat="45.10687" lon="0.68244">
        <ele>204</ele>
        <time>2025-05-25T07:50:04Z</time>
      </trkpt>
      <trkpt lat="45.10685" lon="0.68242">
        <ele>204.4</ele>
        <time>2025-05-25T07:50:05Z</time>
      </trkpt>
      <trkpt lat="45.10684" lon="0.6824">
        <ele>204.6</ele>
        <time>2025-05-25T07:50:06Z</time>
      </trkpt>
      <trkpt lat="45.10683" lon="0.68239">
        <ele>204.8</ele>
        <time>2025-05-25T07:50:07Z</time>
      </trkpt>
      <trkpt lat="45.10682" lon="0.68236">
        <ele>205</ele>
        <time>2025-05-25T07:50:08Z</time>
      </trkpt>
      <trkpt lat="45.1068" lon="0.68233">
        <ele>205.4</ele>
        <time>2025-05-25T07:50:09Z</time>
      </trkpt>
      <trkpt lat="45.10679" lon="0.68231">
        <ele>205.6</ele>
        <time>2025-05-25T07:50:10Z</time>
      </trkpt>
      <trkpt lat="45.10678" lon="0.68228">
        <ele>205.8</ele>
        <time>2025-05-25T07:50:11Z</time>
      </trkpt>
      <trkpt lat="45.10676" lon="0.68225">
        <ele>206.2</ele>
        <time>2025-05-25T07:50:12Z</time>
      </trkpt>
      <trkpt lat="45.10675" lon="0.68222">
        <ele>206.4</ele>
        <time>2025-05-25T07:50:13Z</time>
      </trkpt>
      <trkpt lat="45.10673" lon="0.6822">
        <ele>206.8</ele>
        <time>2025-05-25T07:50:14Z</time>
      </trkpt>
      <trkpt lat="45.10671" lon="0.68217">
        <ele>207</ele>
        <time>2025-05-25T07:50:15Z</time>
      </trkpt>
      <trkpt lat="45.1067" lon="0.68214">
        <ele>207.4</ele>
        <time>2025-05-25T07:50:16Z</time>
      </trkpt>
      <trkpt lat="45.10668" lon="0.68212">
        <ele>207.6</ele>
        <time>2025-05-25T07:50:17Z</time>
      </trkpt>
      <trkpt lat="45.10667" lon="0.68209">
        <ele>207.8</ele>
        <time>2025-05-25T07:50:18Z</time>
      </trkpt>
      <trkpt lat="45.10666" lon="0.68207">
        <ele>208</ele>
        <time>2025-05-25T07:50:19Z</time>
      </trkpt>
      <trkpt lat="45.10665" lon="0.68205">
        <ele>208.2</ele>
        <time>2025-05-25T07:50:20Z</time>
      </trkpt>
      <trkpt lat="45.10663" lon="0.68203">
        <ele>208.4</ele>
        <time>2025-05-25T07:50:21Z</time>
      </trkpt>
      <trkpt lat="45.10661" lon="0.68203">
        <ele>208.6</ele>
        <time>2025-05-25T07:50:22Z</time>
      </trkpt>
      <trkpt lat="45.10659" lon="0.68203">
        <ele>208.8</ele>
        <time>2025-05-25T07:50:23Z</time>
      </trkpt>
      <trkpt lat="45.10657" lon="0.68205">
        <ele>209</ele>
        <time>2025-05-25T07:50:24Z</time>
      </trkpt>
      <trkpt lat="45.10655" lon="0.68206">
        <ele>209</ele>
        <time>2025-05-25T07:50:25Z</time>
      </trkpt>
      <trkpt lat="45.10652" lon="0.68207">
        <ele>209</ele>
        <time>2025-05-25T07:50:26Z</time>
      </trkpt>
      <trkpt lat="45.10649" lon="0.68208">
        <ele>209</ele>
        <time>2025-05-25T07:50:27Z</time>
      </trkpt>
      <trkpt lat="45.10646" lon="0.68208">
        <ele>209</ele>
        <time>2025-05-25T07:50:28Z</time>
      </trkpt>
      <trkpt lat="45.10642" lon="0.68208">
        <ele>209</ele>
        <time>2025-05-25T07:50:29Z</time>
      </trkpt>
      <trkpt lat="45.10638" lon="0.68206">
        <ele>209</ele>
        <time>2025-05-25T07:50:30Z</time>
      </trkpt>
      <trkpt lat="45.10634" lon="0.68204">
        <ele>208.6</ele>
        <time>2025-05-25T07:50:31Z</time>
      </trkpt>
      <trkpt lat="45.10629" lon="0.68201">
        <ele>208.2</ele>
        <time>2025-05-25T07:50:32Z</time>
      </trkpt>
      <trkpt lat="45.10624" lon="0.68198">
        <ele>207.6</ele>
        <time>2025-05-25T07:50:33Z</time>
      </trkpt>
      <trkpt lat="45.10619" lon="0.68195">
        <ele>206.6</ele>
        <time>2025-05-25T07:50:34Z</time>
      </trkpt>
      <trkpt lat="45.10613" lon="0.6819">
        <ele>206.2</ele>
        <time>2025-05-25T07:50:35Z</time>
      </trkpt>
      <trkpt lat="45.10607" lon="0.68183">
        <ele>205.6</ele>
        <time>2025-05-25T07:50:36Z</time>
      </trkpt>
      <trkpt lat="45.10601" lon="0.68175">
        <ele>204.6</ele>
        <time>2025-05-25T07:50:37Z</time>
      </trkpt>
      <trkpt lat="45.10595" lon="0.68168">
        <ele>203.6</ele>
        <time>2025-05-25T07:50:38Z</time>
      </trkpt>
      <trkpt lat="45.10589" lon="0.6816">
        <ele>202.6</ele>
        <time>2025-05-25T07:50:39Z</time>
      </trkpt>
      <trkpt lat="45.10586" lon="0.68152">
        <ele>201.4</ele>
        <time>2025-05-25T07:50:40Z</time>
      </trkpt>
      <trkpt lat="45.10584" lon="0.68142">
        <ele>200</ele>
        <time>2025-05-25T07:50:41Z</time>
      </trkpt>
      <trkpt lat="45.10584" lon="0.68131">
        <ele>198.6</ele>
        <time>2025-05-25T07:50:42Z</time>
      </trkpt>
      <trkpt lat="45.10584" lon="0.6812">
        <ele>197.2</ele>
        <time>2025-05-25T07:50:43Z</time>
      </trkpt>
      <trkpt lat="45.10584" lon="0.68109">
        <ele>195.6</ele>
        <time>2025-05-25T07:50:44Z</time>
      </trkpt>
      <trkpt lat="45.10583" lon="0.681">
        <ele>194.6</ele>
        <time>2025-05-25T07:50:45Z</time>
      </trkpt>
      <trkpt lat="45.10581" lon="0.68091">
        <ele>193.6</ele>
        <time>2025-05-25T07:50:46Z</time>
      </trkpt>
      <trkpt lat="45.10578" lon="0.68081">
        <ele>192.6</ele>
        <time>2025-05-25T07:50:47Z</time>
      </trkpt>
      <trkpt lat="45.10575" lon="0.68072">
        <ele>191.8</ele>
        <time>2025-05-25T07:50:48Z</time>
      </trkpt>
      <trkpt lat="45.10573" lon="0.68063">
        <ele>191.2</ele>
        <time>2025-05-25T07:50:49Z</time>
      </trkpt>
      <trkpt lat="45.1057" lon="0.68053">
        <ele>189.8</ele>
        <time>2025-05-25T07:50:50Z</time>
      </trkpt>
      <trkpt lat="45.10566" lon="0.68043">
        <ele>188.6</ele>
        <time>2025-05-25T07:50:51Z</time>
      </trkpt>
      <trkpt lat="45.10562" lon="0.68033">
        <ele>187.2</ele>
        <time>2025-05-25T07:50:52Z</time>
      </trkpt>
      <trkpt lat="45.10557" lon="0.68023">
        <ele>185.8</ele>
        <time>2025-05-25T07:50:53Z</time>
      </trkpt>
      <trkpt lat="45.10552" lon="0.68012">
        <ele>184.4</ele>
        <time>2025-05-25T07:50:54Z</time>
      </trkpt>
      <trkpt lat="45.10548" lon="0.68003">
        <ele>183</ele>
        <time>2025-05-25T07:50:55Z</time>
      </trkpt>
      <trkpt lat="45.10544" lon="0.67993">
        <ele>181.6</ele>
        <time>2025-05-25T07:50:56Z</time>
      </trkpt>
      <trkpt lat="45.10539" lon="0.67983">
        <ele>180.8</ele>
        <time>2025-05-25T07:50:57Z</time>
      </trkpt>
      <trkpt lat="45.10536" lon="0.67975">
        <ele>179.8</ele>
        <time>2025-05-25T07:50:58Z</time>
      </trkpt>
      <trkpt lat="45.10534" lon="0.67966">
        <ele>178.8</ele>
        <time>2025-05-25T07:50:59Z</time>
      </trkpt>
      <trkpt lat="45.10532" lon="0.67956">
        <ele>178</ele>
        <time>2025-05-25T07:51:00Z</time>
      </trkpt>
      <trkpt lat="45.10531" lon="0.67948">
        <ele>177.4</ele>
        <time>2025-05-25T07:51:01Z</time>
      </trkpt>
      <trkpt lat="45.10529" lon="0.67944">
        <ele>176.8</ele>
        <time>2025-05-25T07:51:02Z</time>
      </trkpt>
      <trkpt lat="45.10526" lon="0.67942">
        <ele>176.4</ele>
        <time>2025-05-25T07:51:03Z</time>
      </trkpt>
      <trkpt lat="45.10524" lon="0.67943">
        <ele>176.2</ele>
        <time>2025-05-25T07:51:04Z</time>
      </trkpt>
      <trkpt lat="45.10523" lon="0.67946">
        <ele>176</ele>
        <time>2025-05-25T07:51:05Z</time>
      </trkpt>
      <trkpt lat="45.10523" lon="0.67949">
        <ele>175.6</ele>
        <time>2025-05-25T07:51:06Z</time>
      </trkpt>
      <trkpt lat="45.10524" lon="0.67953">
        <ele>175.4</ele>
        <time>2025-05-25T07:51:07Z</time>
      </trkpt>
      <trkpt lat="45.10524" lon="0.67957">
        <ele>175.2</ele>
        <time>2025-05-25T07:51:08Z</time>
      </trkpt>
      <trkpt lat="45.10525" lon="0.67962">
        <ele>175</ele>
        <time>2025-05-25T07:51:09Z</time>
      </trkpt>
      <trkpt lat="45.10525" lon="0.67967">
        <ele>175</ele>
        <time>2025-05-25T07:51:10Z</time>
      </trkpt>
      <trkpt lat="45.10525" lon="0.67971">
        <ele>175</ele>
        <time>2025-05-25T07:51:11Z</time>
      </trkpt>
      <trkpt lat="45.10524" lon="0.67976">
        <ele>175</ele>
        <time>2025-05-25T07:51:12Z</time>
      </trkpt>
      <trkpt lat="45.10521" lon="0.6798">
        <ele>174.8</ele>
        <time>2025-05-25T07:51:13Z</time>
      </trkpt>
      <trkpt lat="45.10518" lon="0.67985">
        <ele>174.8</ele>
        <time>2025-05-25T07:51:14Z</time>
      </trkpt>
      <trkpt lat="45.10514" lon="0.6799">
        <ele>174.4</ele>
        <time>2025-05-25T07:51:15Z</time>
      </trkpt>
      <trkpt lat="45.10509" lon="0.67996">
        <ele>174.2</ele>
        <time>2025-05-25T07:51:16Z</time>
      </trkpt>
      <trkpt lat="45.10504" lon="0.68002">
        <ele>173.8</ele>
        <time>2025-05-25T07:51:17Z</time>
      </trkpt>
      <trkpt lat="45.10501" lon="0.68008">
        <ele>173.6</ele>
        <time>2025-05-25T07:51:18Z</time>
      </trkpt>
      <trkpt lat="45.10497" lon="0.68015">
        <ele>173.4</ele>
        <time>2025-05-25T07:51:19Z</time>
      </trkpt>
      <trkpt lat="45.10493" lon="0.68021">
        <ele>173.4</ele>
        <time>2025-05-25T07:51:20Z</time>
      </trkpt>
      <trkpt lat="45.1049" lon="0.68026">
        <ele>173.4</ele>
        <time>2025-05-25T07:51:21Z</time>
      </trkpt>
      <trkpt lat="45.10486" lon="0.68031">
        <ele>173.8</ele>
        <time>2025-05-25T07:51:22Z</time>
      </trkpt>
      <trkpt lat="45.10482" lon="0.68036">
        <ele>174</ele>
        <time>2025-05-25T07:51:23Z</time>
      </trkpt>
      <trkpt lat="45.10479" lon="0.6804">
        <ele>174.2</ele>
        <time>2025-05-25T07:51:24Z</time>
      </trkpt>
      <trkpt lat="45.10476" lon="0.68044">
        <ele>174.6</ele>
        <time>2025-05-25T07:51:25Z</time>
      </trkpt>
      <trkpt lat="45.10473" lon="0.68047">
        <ele>175</ele>
        <time>2025-05-25T07:51:26Z</time>
      </trkpt>
      <trkpt lat="45.10469" lon="0.68051">
        <ele>175.4</ele>
        <time>2025-05-25T07:51:27Z</time>
      </trkpt>
      <trkpt lat="45.10466" lon="0.68053">
        <ele>175.8</ele>
        <time>2025-05-25T07:51:28Z</time>
      </trkpt>
      <trkpt lat="45.10463" lon="0.68056">
        <ele>176.2</ele>
        <time>2025-05-25T07:51:29Z</time>
      </trkpt>
      <trkpt lat="45.10461" lon="0.68059">
        <ele>176.6</ele>
        <time>2025-05-25T07:51:30Z</time>
      </trkpt>
      <trkpt lat="45.10459" lon="0.68061">
        <ele>176.8</ele>
        <time>2025-05-25T07:51:31Z</time>
      </trkpt>
      <trkpt lat="45.10456" lon="0.68063">
        <ele>177</ele>
        <time>2025-05-25T07:51:32Z</time>
      </trkpt>
      <trkpt lat="45.10454" lon="0.68064">
        <ele>177.4</ele>
        <time>2025-05-25T07:51:33Z</time>
      </trkpt>
      <trkpt lat="45.10452" lon="0.68066">
        <ele>177.8</ele>
        <time>2025-05-25T07:51:34Z</time>
      </trkpt>
      <trkpt lat="45.10451" lon="0.68068">
        <ele>178</ele>
        <time>2025-05-25T07:51:35Z</time>
      </trkpt>
      <trkpt lat="45.10449" lon="0.68069">
        <ele>178.4</ele>
        <time>2025-05-25T07:51:36Z</time>
      </trkpt>
      <trkpt lat="45.10447" lon="0.68071">
        <ele>178.6</ele>
        <time>2025-05-25T07:51:37Z</time>
      </trkpt>
      <trkpt lat="45.10445" lon="0.68073">
        <ele>178.8</ele>
        <time>2025-05-25T07:51:38Z</time>
      </trkpt>
      <trkpt lat="45.10444" lon="0.68075">
        <ele>179.2</ele>
        <time>2025-05-25T07:51:39Z</time>
      </trkpt>
      <trkpt lat="45.10442" lon="0.68076">
        <ele>179.4</ele>
        <time>2025-05-25T07:51:40Z</time>
      </trkpt>
      <trkpt lat="45.1044" lon="0.68078">
        <ele>179.8</ele>
        <time>2025-05-25T07:51:41Z</time>
      </trkpt>
      <trkpt lat="45.10439" lon="0.6808">
        <ele>180.2</ele>
        <time>2025-05-25T07:51:42Z</time>
      </trkpt>
      <trkpt lat="45.10437" lon="0.68081">
        <ele>180.6</ele>
        <time>2025-05-25T07:51:43Z</time>
      </trkpt>
      <trkpt lat="45.10435" lon="0.68082">
        <ele>181</ele>
        <time>2025-05-25T07:51:44Z</time>
      </trkpt>
      <trkpt lat="45.10434" lon="0.68084">
        <ele>181.4</ele>
        <time>2025-05-25T07:51:45Z</time>
      </trkpt>
      <trkpt lat="45.10432" lon="0.68085">
        <ele>181.8</ele>
        <time>2025-05-25T07:51:46Z</time>
      </trkpt>
      <trkpt lat="45.1043" lon="0.68087">
        <ele>182.2</ele>
        <time>2025-05-25T07:51:47Z</time>
      </trkpt>
      <trkpt lat="45.10428" lon="0.68088">
        <ele>182.6</ele>
        <time>2025-05-25T07:51:48Z</time>
      </trkpt>
      <trkpt lat="45.10426" lon="0.6809">
        <ele>183</ele>
        <time>2025-05-25T07:51:49Z</time>
      </trkpt>
      <trkpt lat="45.10424" lon="0.68091">
        <ele>183.2</ele>
        <time>2025-05-25T07:51:50Z</time>
      </trkpt>
      <trkpt lat="45.10422" lon="0.68092">
        <ele>183.6</ele>
        <time>2025-05-25T07:51:51Z</time>
      </trkpt>
      <trkpt lat="45.10419" lon="0.68093">
        <ele>183.8</ele>
        <time>2025-05-25T07:51:52Z</time>
      </trkpt>
      <trkpt lat="45.10417" lon="0.68094">
        <ele>184</ele>
        <time>2025-05-25T07:51:53Z</time>
      </trkpt>
      <trkpt lat="45.10415" lon="0.68095">
        <ele>184.2</ele>
        <time>2025-05-25T07:51:54Z</time>
      </trkpt>
      <trkpt lat="45.10413" lon="0.68096">
        <ele>184.4</ele>
        <time>2025-05-25T07:51:55Z</time>
      </trkpt>
      <trkpt lat="45.10411" lon="0.68098">
        <ele>184.8</ele>
        <time>2025-05-25T07:51:56Z</time>
      </trkpt>
      <trkpt lat="45.10409" lon="0.68098">
        <ele>185</ele>
        <time>2025-05-25T07:51:57Z</time>
      </trkpt>
      <trkpt lat="45.10408" lon="0.681">
        <ele>185.4</ele>
        <time>2025-05-25T07:51:58Z</time>
      </trkpt>
      <trkpt lat="45.10406" lon="0.68101">
        <ele>185.6</ele>
        <time>2025-05-25T07:51:59Z</time>
      </trkpt>
      <trkpt lat="45.10404" lon="0.68102">
        <ele>186</ele>
        <time>2025-05-25T07:52:00Z</time>
      </trkpt>
      <trkpt lat="45.10402" lon="0.68103">
        <ele>186.2</ele>
        <time>2025-05-25T07:52:01Z</time>
      </trkpt>
      <trkpt lat="45.10399" lon="0.68104">
        <ele>186.4</ele>
        <time>2025-05-25T07:52:02Z</time>
      </trkpt>
      <trkpt lat="45.10397" lon="0.68105">
        <ele>186.6</ele>
        <time>2025-05-25T07:52:03Z</time>
      </trkpt>
      <trkpt lat="45.10395" lon="0.68106">
        <ele>187</ele>
        <time>2025-05-25T07:52:04Z</time>
      </trkpt>
      <trkpt lat="45.10393" lon="0.68106">
        <ele>187.2</ele>
        <time>2025-05-25T07:52:05Z</time>
      </trkpt>
      <trkpt lat="45.10391" lon="0.68107">
        <ele>187.4</ele>
        <time>2025-05-25T07:52:06Z</time>
      </trkpt>
      <trkpt lat="45.10389" lon="0.68108">
        <ele>187.6</ele>
        <time>2025-05-25T07:52:07Z</time>
      </trkpt>
      <trkpt lat="45.10387" lon="0.68109">
        <ele>187.8</ele>
        <time>2025-05-25T07:52:08Z</time>
      </trkpt>
      <trkpt lat="45.10385" lon="0.6811">
        <ele>188</ele>
        <time>2025-05-25T07:52:09Z</time>
      </trkpt>
      <trkpt lat="45.10383" lon="0.68111">
        <ele>188.2</ele>
        <time>2025-05-25T07:52:10Z</time>
      </trkpt>
      <trkpt lat="45.10381" lon="0.68112">
        <ele>188.2</ele>
        <time>2025-05-25T07:52:11Z</time>
      </trkpt>
      <trkpt lat="45.10379" lon="0.68113">
        <ele>188.4</ele>
        <time>2025-05-25T07:52:12Z</time>
      </trkpt>
      <trkpt lat="45.10376" lon="0.68114">
        <ele>188.6</ele>
        <time>2025-05-25T07:52:13Z</time>
      </trkpt>
      <trkpt lat="45.10374" lon="0.68115">
        <ele>188.8</ele>
        <time>2025-05-25T07:52:14Z</time>
      </trkpt>
      <trkpt lat="45.10372" lon="0.68116">
        <ele>188.8</ele>
        <time>2025-05-25T07:52:15Z</time>
      </trkpt>
      <trkpt lat="45.1037" lon="0.68117">
        <ele>189</ele>
        <time>2025-05-25T07:52:16Z</time>
      </trkpt>
      <trkpt lat="45.10368" lon="0.68118">
        <ele>189.2</ele>
        <time>2025-05-25T07:52:17Z</time>
      </trkpt>
      <trkpt lat="45.10366" lon="0.6812">
        <ele>189.4</ele>
        <time>2025-05-25T07:52:18Z</time>
      </trkpt>
      <trkpt lat="45.10364" lon="0.68121">
        <ele>189.6</ele>
        <time>2025-05-25T07:52:19Z</time>
      </trkpt>
      <trkpt lat="45.10362" lon="0.68122">
        <ele>189.8</ele>
        <time>2025-05-25T07:52:20Z</time>
      </trkpt>
      <trkpt lat="45.1036" lon="0.68123">
        <ele>190</ele>
        <time>2025-05-25T07:52:21Z</time>
      </trkpt>
      <trkpt lat="45.10358" lon="0.68124">
        <ele>190.2</ele>
        <time>2025-05-25T07:52:22Z</time>
      </trkpt>
      <trkpt lat="45.10356" lon="0.68125">
        <ele>190.4</ele>
        <time>2025-05-25T07:52:23Z</time>
      </trkpt>
      <trkpt lat="45.10354" lon="0.68126">
        <ele>190.6</ele>
        <time>2025-05-25T07:52:24Z</time>
      </trkpt>
      <trkpt lat="45.10352" lon="0.68127">
        <ele>190.6</ele>
        <time>2025-05-25T07:52:25Z</time>
      </trkpt>
      <trkpt lat="45.10349" lon="0.68128">
        <ele>190.8</ele>
        <time>2025-05-25T07:52:26Z</time>
      </trkpt>
      <trkpt lat="45.10347" lon="0.68129">
        <ele>191</ele>
        <time>2025-05-25T07:52:27Z</time>
      </trkpt>
      <trkpt lat="45.10346" lon="0.6813">
        <ele>191.2</ele>
        <time>2025-05-25T07:52:28Z</time>
      </trkpt>
      <trkpt lat="45.10344" lon="0.68131">
        <ele>191.4</ele>
        <time>2025-05-25T07:52:29Z</time>
      </trkpt>
      <trkpt lat="45.10342" lon="0.68132">
        <ele>191.6</ele>
        <time>2025-05-25T07:52:30Z</time>
      </trkpt>
      <trkpt lat="45.10341" lon="0.68133">
        <ele>192</ele>
        <time>2025-05-25T07:52:31Z</time>
      </trkpt>
      <trkpt lat="45.10339" lon="0.68135">
        <ele>192</ele>
        <time>2025-05-25T07:52:32Z</time>
      </trkpt>
      <trkpt lat="45.10337" lon="0.68135">
        <ele>192.2</ele>
        <time>2025-05-25T07:52:33Z</time>
      </trkpt>
      <trkpt lat="45.10335" lon="0.68137">
        <ele>192.6</ele>
        <time>2025-05-25T07:52:34Z</time>
      </trkpt>
      <trkpt lat="45.10333" lon="0.68138">
        <ele>192.8</ele>
        <time>2025-05-25T07:52:35Z</time>
      </trkpt>
      <trkpt lat="45.10331" lon="0.68139">
        <ele>193</ele>
        <time>2025-05-25T07:52:36Z</time>
      </trkpt>
      <trkpt lat="45.1033" lon="0.6814">
        <ele>193.2</ele>
        <time>2025-05-25T07:52:37Z</time>
      </trkpt>
      <trkpt lat="45.10328" lon="0.68142">
        <ele>193.4</ele>
        <time>2025-05-25T07:52:38Z</time>
      </trkpt>
      <trkpt lat="45.10326" lon="0.68144">
        <ele>193.8</ele>
        <time>2025-05-25T07:52:39Z</time>
      </trkpt>
      <trkpt lat="45.10324" lon="0.68146">
        <ele>193.8</ele>
        <time>2025-05-25T07:52:40Z</time>
      </trkpt>
      <trkpt lat="45.10322" lon="0.68148">
        <ele>194</ele>
        <time>2025-05-25T07:52:41Z</time>
      </trkpt>
      <trkpt lat="45.1032" lon="0.68151">
        <ele>194.2</ele>
        <time>2025-05-25T07:52:42Z</time>
      </trkpt>
      <trkpt lat="45.10318" lon="0.68153">
        <ele>194.2</ele>
        <time>2025-05-25T07:52:43Z</time>
      </trkpt>
      <trkpt lat="45.10316" lon="0.68155">
        <ele>194.4</ele>
        <time>2025-05-25T07:52:44Z</time>
      </trkpt>
      <trkpt lat="45.10314" lon="0.68156">
        <ele>194.4</ele>
        <time>2025-05-25T07:52:45Z</time>
      </trkpt>
      <trkpt lat="45.10312" lon="0.68158">
        <ele>194.6</ele>
        <time>2025-05-25T07:52:46Z</time>
      </trkpt>
      <trkpt lat="45.1031" lon="0.6816">
        <ele>194.6</ele>
        <time>2025-05-25T07:52:47Z</time>
      </trkpt>
      <trkpt lat="45.10308" lon="0.68162">
        <ele>194.8</ele>
        <time>2025-05-25T07:52:48Z</time>
      </trkpt>
      <trkpt lat="45.10307" lon="0.68163">
        <ele>194.8</ele>
        <time>2025-05-25T07:52:49Z</time>
      </trkpt>
      <trkpt lat="45.10305" lon="0.68165">
        <ele>195</ele>
        <time>2025-05-25T07:52:50Z</time>
      </trkpt>
      <trkpt lat="45.10303" lon="0.68167">
        <ele>195</ele>
        <time>2025-05-25T07:52:51Z</time>
      </trkpt>
      <trkpt lat="45.10301" lon="0.68169">
        <ele>195.2</ele>
        <time>2025-05-25T07:52:52Z</time>
      </trkpt>
      <trkpt lat="45.10299" lon="0.6817">
        <ele>195.2</ele>
        <time>2025-05-25T07:52:53Z</time>
      </trkpt>
      <trkpt lat="45.10297" lon="0.68172">
        <ele>195.4</ele>
        <time>2025-05-25T07:52:54Z</time>
      </trkpt>
      <trkpt lat="45.10295" lon="0.68173">
        <ele>195.6</ele>
        <time>2025-05-25T07:52:55Z</time>
      </trkpt>
      <trkpt lat="45.10293" lon="0.68174">
        <ele>195.6</ele>
        <time>2025-05-25T07:52:56Z</time>
      </trkpt>
      <trkpt lat="45.10291" lon="0.68176">
        <ele>195.8</ele>
        <time>2025-05-25T07:52:57Z</time>
      </trkpt>
      <trkpt lat="45.10289" lon="0.68178">
        <ele>196</ele>
        <time>2025-05-25T07:52:58Z</time>
      </trkpt>
      <trkpt lat="45.10287" lon="0.68179">
        <ele>196</ele>
        <time>2025-05-25T07:52:59Z</time>
      </trkpt>
      <trkpt lat="45.10284" lon="0.6818">
        <ele>196.2</ele>
        <time>2025-05-25T07:53:00Z</time>
      </trkpt>
      <trkpt lat="45.10282" lon="0.68182">
        <ele>196.2</ele>
        <time>2025-05-25T07:53:01Z</time>
      </trkpt>
      <trkpt lat="45.1028" lon="0.68183">
        <ele>196.4</ele>
        <time>2025-05-25T07:53:02Z</time>
      </trkpt>
      <trkpt lat="45.10277" lon="0.68184">
        <ele>196.6</ele>
        <time>2025-05-25T07:53:03Z</time>
      </trkpt>
      <trkpt lat="45.10275" lon="0.68186">
        <ele>196.6</ele>
        <time>2025-05-25T07:53:04Z</time>
      </trkpt>
      <trkpt lat="45.10273" lon="0.68187">
        <ele>196.8</ele>
        <time>2025-05-25T07:53:05Z</time>
      </trkpt>
      <trkpt lat="45.10271" lon="0.68188">
        <ele>197</ele>
        <time>2025-05-25T07:53:06Z</time>
      </trkpt>
      <trkpt lat="45.10269" lon="0.6819">
        <ele>197</ele>
        <time>2025-05-25T07:53:07Z</time>
      </trkpt>
      <trkpt lat="45.10267" lon="0.68191">
        <ele>197.2</ele>
        <time>2025-05-25T07:53:08Z</time>
      </trkpt>
      <trkpt lat="45.10265" lon="0.68192">
        <ele>197.4</ele>
        <time>2025-05-25T07:53:09Z</time>
      </trkpt>
      <trkpt lat="45.10262" lon="0.68193">
        <ele>197.6</ele>
        <time>2025-05-25T07:53:10Z</time>
      </trkpt>
      <trkpt lat="45.1026" lon="0.68194">
        <ele>197.8</ele>
        <time>2025-05-25T07:53:11Z</time>
      </trkpt>
      <trkpt lat="45.10258" lon="0.68195">
        <ele>197.8</ele>
        <time>2025-05-25T07:53:12Z</time>
      </trkpt>
      <trkpt lat="45.10255" lon="0.68196">
        <ele>198</ele>
        <time>2025-05-25T07:53:13Z</time>
      </trkpt>
      <trkpt lat="45.10253" lon="0.68197">
        <ele>198</ele>
        <time>2025-05-25T07:53:14Z</time>
      </trkpt>
      <trkpt lat="45.1025" lon="0.68198">
        <ele>198.2</ele>
        <time>2025-05-25T07:53:15Z</time>
      </trkpt>
      <trkpt lat="45.10248" lon="0.68199">
        <ele>198.2</ele>
        <time>2025-05-25T07:53:16Z</time>
      </trkpt>
      <trkpt lat="45.10245" lon="0.682">
        <ele>198.4</ele>
        <time>2025-05-25T07:53:17Z</time>
      </trkpt>
      <trkpt lat="45.10242" lon="0.68202">
        <ele>198.4</ele>
        <time>2025-05-25T07:53:18Z</time>
      </trkpt>
      <trkpt lat="45.1024" lon="0.68203">
        <ele>198.4</ele>
        <time>2025-05-25T07:53:19Z</time>
      </trkpt>
      <trkpt lat="45.10237" lon="0.68204">
        <ele>198.6</ele>
        <time>2025-05-25T07:53:20Z</time>
      </trkpt>
      <trkpt lat="45.10234" lon="0.68205">
        <ele>198.6</ele>
        <time>2025-05-25T07:53:21Z</time>
      </trkpt>
      <trkpt lat="45.10231" lon="0.68207">
        <ele>198.6</ele>
        <time>2025-05-25T07:53:22Z</time>
      </trkpt>
      <trkpt lat="45.10229" lon="0.68208">
        <ele>198.8</ele>
        <time>2025-05-25T07:53:23Z</time>
      </trkpt>
      <trkpt lat="45.10226" lon="0.68209">
        <ele>198.8</ele>
        <time>2025-05-25T07:53:24Z</time>
      </trkpt>
      <trkpt lat="45.10223" lon="0.6821">
        <ele>198.8</ele>
        <time>2025-05-25T07:53:25Z</time>
      </trkpt>
      <trkpt lat="45.1022" lon="0.68212">
        <ele>198.8</ele>
        <time>2025-05-25T07:53:26Z</time>
      </trkpt>
      <trkpt lat="45.10217" lon="0.68214">
        <ele>199</ele>
        <time>2025-05-25T07:53:27Z</time>
      </trkpt>
      <trkpt lat="45.10214" lon="0.68216">
        <ele>199</ele>
        <time>2025-05-25T07:53:28Z</time>
      </trkpt>
      <trkpt lat="45.10211" lon="0.68218">
        <ele>199</ele>
        <time>2025-05-25T07:53:29Z</time>
      </trkpt>
      <trkpt lat="45.10207" lon="0.6822">
        <ele>199</ele>
        <time>2025-05-25T07:53:30Z</time>
      </trkpt>
      <trkpt lat="45.10204" lon="0.68221">
        <ele>199</ele>
        <time>2025-05-25T07:53:31Z</time>
      </trkpt>
      <trkpt lat="45.10201" lon="0.68223">
        <ele>199</ele>
        <time>2025-05-25T07:53:32Z</time>
      </trkpt>
      <trkpt lat="45.10199" lon="0.68225">
        <ele>199</ele>
        <time>2025-05-25T07:53:33Z</time>
      </trkpt>
      <trkpt lat="45.10196" lon="0.68227">
        <ele>199</ele>
        <time>2025-05-25T07:53:34Z</time>
      </trkpt>
      <trkpt lat="45.10193" lon="0.68229">
        <ele>199</ele>
        <time>2025-05-25T07:53:35Z</time>
      </trkpt>
      <trkpt lat="45.1019" lon="0.68231">
        <ele>199.2</ele>
        <time>2025-05-25T07:53:36Z</time>
      </trkpt>
      <trkpt lat="45.10188" lon="0.68234">
        <ele>199.2</ele>
        <time>2025-05-25T07:53:37Z</time>
      </trkpt>
      <trkpt lat="45.10185" lon="0.68237">
        <ele>199.2</ele>
        <time>2025-05-25T07:53:38Z</time>
      </trkpt>
      <trkpt lat="45.10183" lon="0.6824">
        <ele>199.4</ele>
        <time>2025-05-25T07:53:39Z</time>
      </trkpt>
      <trkpt lat="45.10181" lon="0.68243">
        <ele>199.6</ele>
        <time>2025-05-25T07:53:40Z</time>
      </trkpt>
      <trkpt lat="45.10179" lon="0.68246">
        <ele>199.8</ele>
        <time>2025-05-25T07:53:41Z</time>
      </trkpt>
      <trkpt lat="45.10177" lon="0.6825">
        <ele>200</ele>
        <time>2025-05-25T07:53:42Z</time>
      </trkpt>
      <trkpt lat="45.10175" lon="0.68254">
        <ele>200.2</ele>
        <time>2025-05-25T07:53:43Z</time>
      </trkpt>
      <trkpt lat="45.10173" lon="0.68257">
        <ele>200.4</ele>
        <time>2025-05-25T07:53:44Z</time>
      </trkpt>
      <trkpt lat="45.10171" lon="0.6826">
        <ele>200.8</ele>
        <time>2025-05-25T07:53:45Z</time>
      </trkpt>
      <trkpt lat="45.10168" lon="0.68263">
        <ele>201</ele>
        <time>2025-05-25T07:53:46Z</time>
      </trkpt>
      <trkpt lat="45.10166" lon="0.68265">
        <ele>201.2</ele>
        <time>2025-05-25T07:53:47Z</time>
      </trkpt>
      <trkpt lat="45.10164" lon="0.68267">
        <ele>201.4</ele>
        <time>2025-05-25T07:53:48Z</time>
      </trkpt>
      <trkpt lat="45.10162" lon="0.68269">
        <ele>201.6</ele>
        <time>2025-05-25T07:53:49Z</time>
      </trkpt>
      <trkpt lat="45.10161" lon="0.68271">
        <ele>201.8</ele>
        <time>2025-05-25T07:53:50Z</time>
      </trkpt>
      <trkpt lat="45.10159" lon="0.68272">
        <ele>202.2</ele>
        <time>2025-05-25T07:53:51Z</time>
      </trkpt>
      <trkpt lat="45.10157" lon="0.68273">
        <ele>202.6</ele>
        <time>2025-05-25T07:53:52Z</time>
      </trkpt>
      <trkpt lat="45.10155" lon="0.68274">
        <ele>202.8</ele>
        <time>2025-05-25T07:53:53Z</time>
      </trkpt>
      <trkpt lat="45.10154" lon="0.68275">
        <ele>203.2</ele>
        <time>2025-05-25T07:53:54Z</time>
      </trkpt>
      <trkpt lat="45.10152" lon="0.68276">
        <ele>203.6</ele>
        <time>2025-05-25T07:53:55Z</time>
      </trkpt>
      <trkpt lat="45.1015" lon="0.68278">
        <ele>204</ele>
        <time>2025-05-25T07:53:56Z</time>
      </trkpt>
      <trkpt lat="45.10148" lon="0.68279">
        <ele>204.2</ele>
        <time>2025-05-25T07:53:57Z</time>
      </trkpt>
      <trkpt lat="45.10147" lon="0.68281">
        <ele>204.6</ele>
        <time>2025-05-25T07:53:58Z</time>
      </trkpt>
      <trkpt lat="45.10145" lon="0.68282">
        <ele>204.8</ele>
        <time>2025-05-25T07:53:59Z</time>
      </trkpt>
      <trkpt lat="45.10143" lon="0.68284">
        <ele>205</ele>
        <time>2025-05-25T07:54:00Z</time>
      </trkpt>
      <trkpt lat="45.10141" lon="0.68285">
        <ele>205.2</ele>
        <time>2025-05-25T07:54:01Z</time>
      </trkpt>
      <trkpt lat="45.10139" lon="0.68286">
        <ele>205.4</ele>
        <time>2025-05-25T07:54:02Z</time>
      </trkpt>
      <trkpt lat="45.10137" lon="0.68287">
        <ele>205.6</ele>
        <time>2025-05-25T07:54:03Z</time>
      </trkpt>
      <trkpt lat="45.10136" lon="0.68288">
        <ele>206</ele>
        <time>2025-05-25T07:54:04Z</time>
      </trkpt>
      <trkpt lat="45.10134" lon="0.68289">
        <ele>206.2</ele>
        <time>2025-05-25T07:54:05Z</time>
      </trkpt>
      <trkpt lat="45.10132" lon="0.68289">
        <ele>206.6</ele>
        <time>2025-05-25T07:54:06Z</time>
      </trkpt>
      <trkpt lat="45.10129" lon="0.6829">
        <ele>206.8</ele>
        <time>2025-05-25T07:54:07Z</time>
      </trkpt>
      <trkpt lat="45.10127" lon="0.6829">
        <ele>207</ele>
        <time>2025-05-25T07:54:08Z</time>
      </trkpt>
      <trkpt lat="45.10125" lon="0.6829">
        <ele>207.4</ele>
        <time>2025-05-25T07:54:09Z</time>
      </trkpt>
      <trkpt lat="45.10123" lon="0.6829">
        <ele>207.4</ele>
        <time>2025-05-25T07:54:10Z</time>
      </trkpt>
      <trkpt lat="45.10121" lon="0.6829">
        <ele>207.8</ele>
        <time>2025-05-25T07:54:11Z</time>
      </trkpt>
      <trkpt lat="45.10119" lon="0.6829">
        <ele>207.8</ele>
        <time>2025-05-25T07:54:12Z</time>
      </trkpt>
      <trkpt lat="45.10117" lon="0.68291">
        <ele>208</ele>
        <time>2025-05-25T07:54:13Z</time>
      </trkpt>
      <trkpt lat="45.10115" lon="0.68292">
        <ele>208.2</ele>
        <time>2025-05-25T07:54:14Z</time>
      </trkpt>
      <trkpt lat="45.10113" lon="0.68294">
        <ele>208.2</ele>
        <time>2025-05-25T07:54:15Z</time>
      </trkpt>
      <trkpt lat="45.10111" lon="0.68296">
        <ele>208.4</ele>
        <time>2025-05-25T07:54:16Z</time>
      </trkpt>
      <trkpt lat="45.1011" lon="0.68297">
        <ele>208.6</ele>
        <time>2025-05-25T07:54:17Z</time>
      </trkpt>
      <trkpt lat="45.10108" lon="0.68299">
        <ele>208.8</ele>
        <time>2025-05-25T07:54:18Z</time>
      </trkpt>
      <trkpt lat="45.10106" lon="0.683">
        <ele>209</ele>
        <time>2025-05-25T07:54:19Z</time>
      </trkpt>
      <trkpt lat="45.10105" lon="0.68302">
        <ele>209.2</ele>
        <time>2025-05-25T07:54:20Z</time>
      </trkpt>
      <trkpt lat="45.10103" lon="0.68303">
        <ele>209.2</ele>
        <time>2025-05-25T07:54:21Z</time>
      </trkpt>
      <trkpt lat="45.10101" lon="0.68304">
        <ele>209.4</ele>
        <time>2025-05-25T07:54:22Z</time>
      </trkpt>
      <trkpt lat="45.10098" lon="0.68305">
        <ele>209.4</ele>
        <time>2025-05-25T07:54:23Z</time>
      </trkpt>
      <trkpt lat="45.10096" lon="0.68306">
        <ele>209.6</ele>
        <time>2025-05-25T07:54:24Z</time>
      </trkpt>
      <trkpt lat="45.10094" lon="0.68307">
        <ele>209.8</ele>
        <time>2025-05-25T07:54:25Z</time>
      </trkpt>
      <trkpt lat="45.10092" lon="0.68308">
        <ele>210</ele>
        <time>2025-05-25T07:54:26Z</time>
      </trkpt>
      <trkpt lat="45.10091" lon="0.68309">
        <ele>210.4</ele>
        <time>2025-05-25T07:54:27Z</time>
      </trkpt>
      <trkpt lat="45.10088" lon="0.68309">
        <ele>210.6</ele>
        <time>2025-05-25T07:54:28Z</time>
      </trkpt>
      <trkpt lat="45.10086" lon="0.6831">
        <ele>210.8</ele>
        <time>2025-05-25T07:54:29Z</time>
      </trkpt>
      <trkpt lat="45.10084" lon="0.68311">
        <ele>210.8</ele>
        <time>2025-05-25T07:54:30Z</time>
      </trkpt>
      <trkpt lat="45.10081" lon="0.68311">
        <ele>211</ele>
        <time>2025-05-25T07:54:31Z</time>
      </trkpt>
      <trkpt lat="45.10079" lon="0.68311">
        <ele>211</ele>
        <time>2025-05-25T07:54:32Z</time>
      </trkpt>
      <trkpt lat="45.10077" lon="0.68312">
        <ele>211.2</ele>
        <time>2025-05-25T07:54:33Z</time>
      </trkpt>
      <trkpt lat="45.10074" lon="0.68312">
        <ele>211.2</ele>
        <time>2025-05-25T07:54:34Z</time>
      </trkpt>
      <trkpt lat="45.10072" lon="0.68313">
        <ele>211.2</ele>
        <time>2025-05-25T07:54:35Z</time>
      </trkpt>
      <trkpt lat="45.10069" lon="0.68313">
        <ele>211.4</ele>
        <time>2025-05-25T07:54:36Z</time>
      </trkpt>
      <trkpt lat="45.10067" lon="0.68313">
        <ele>211.2</ele>
        <time>2025-05-25T07:54:37Z</time>
      </trkpt>
      <trkpt lat="45.10064" lon="0.68313">
        <ele>211.2</ele>
        <time>2025-05-25T07:54:38Z</time>
      </trkpt>
      <trkpt lat="45.10062" lon="0.68314">
        <ele>211.2</ele>
        <time>2025-05-25T07:54:39Z</time>
      </trkpt>
      <trkpt lat="45.10059" lon="0.68313">
        <ele>211.2</ele>
        <time>2025-05-25T07:54:40Z</time>
      </trkpt>
      <trkpt lat="45.10057" lon="0.68313">
        <ele>211.4</ele>
        <time>2025-05-25T07:54:41Z</time>
      </trkpt>
      <trkpt lat="45.10055" lon="0.68313">
        <ele>211.6</ele>
        <time>2025-05-25T07:54:42Z</time>
      </trkpt>
      <trkpt lat="45.10052" lon="0.68313">
        <ele>211.6</ele>
        <time>2025-05-25T07:54:43Z</time>
      </trkpt>
      <trkpt lat="45.1005" lon="0.68313">
        <ele>212</ele>
        <time>2025-05-25T07:54:44Z</time>
      </trkpt>
      <trkpt lat="45.10047" lon="0.68312">
        <ele>212.4</ele>
        <time>2025-05-25T07:54:45Z</time>
      </trkpt>
      <trkpt lat="45.10044" lon="0.68312">
        <ele>212.6</ele>
        <time>2025-05-25T07:54:46Z</time>
      </trkpt>
      <trkpt lat="45.10042" lon="0.68312">
        <ele>212.6</ele>
        <time>2025-05-25T07:54:47Z</time>
      </trkpt>
      <trkpt lat="45.10039" lon="0.68311">
        <ele>212.6</ele>
        <time>2025-05-25T07:54:48Z</time>
      </trkpt>
      <trkpt lat="45.10036" lon="0.68311">
        <ele>212.6</ele>
        <time>2025-05-25T07:54:49Z</time>
      </trkpt>
      <trkpt lat="45.10033" lon="0.68311">
        <ele>212.6</ele>
        <time>2025-05-25T07:54:50Z</time>
      </trkpt>
      <trkpt lat="45.1003" lon="0.6831">
        <ele>212.4</ele>
        <time>2025-05-25T07:54:51Z</time>
      </trkpt>
      <trkpt lat="45.10027" lon="0.6831">
        <ele>212.6</ele>
        <time>2025-05-25T07:54:52Z</time>
      </trkpt>
      <trkpt lat="45.10024" lon="0.68309">
        <ele>212.6</ele>
        <time>2025-05-25T07:54:53Z</time>
      </trkpt>
      <trkpt lat="45.10021" lon="0.68309">
        <ele>212.8</ele>
        <time>2025-05-25T07:54:54Z</time>
      </trkpt>
      <trkpt lat="45.10018" lon="0.6831">
        <ele>213</ele>
        <time>2025-05-25T07:54:55Z</time>
      </trkpt>
      <trkpt lat="45.10015" lon="0.6831">
        <ele>213.2</ele>
        <time>2025-05-25T07:54:56Z</time>
      </trkpt>
      <trkpt lat="45.10012" lon="0.6831">
        <ele>213.2</ele>
        <time>2025-05-25T07:54:57Z</time>
      </trkpt>
      <trkpt lat="45.10009" lon="0.6831">
        <ele>213.4</ele>
        <time>2025-05-25T07:54:58Z</time>
      </trkpt>
      <trkpt lat="45.10006" lon="0.68311">
        <ele>213.6</ele>
        <time>2025-05-25T07:54:59Z</time>
      </trkpt>
      <trkpt lat="45.10003" lon="0.68311">
        <ele>213.8</ele>
        <time>2025-05-25T07:55:00Z</time>
      </trkpt>
      <trkpt lat="45.1" lon="0.68312">
        <ele>214</ele>
        <time>2025-05-25T07:55:01Z</time>
      </trkpt>
      <trkpt lat="45.09997" lon="0.68313">
        <ele>214.2</ele>
        <time>2025-05-25T07:55:02Z</time>
      </trkpt>
      <trkpt lat="45.09994" lon="0.68313">
        <ele>214.2</ele>
        <time>2025-05-25T07:55:03Z</time>
      </trkpt>
      <trkpt lat="45.09991" lon="0.68312">
        <ele>214.4</ele>
        <time>2025-05-25T07:55:04Z</time>
      </trkpt>
      <trkpt lat="45.09989" lon="0.68311">
        <ele>214.6</ele>
        <time>2025-05-25T07:55:05Z</time>
      </trkpt>
      <trkpt lat="45.09986" lon="0.68309">
        <ele>214.6</ele>
        <time>2025-05-25T07:55:06Z</time>
      </trkpt>
      <trkpt lat="45.09984" lon="0.68307">
        <ele>214.6</ele>
        <time>2025-05-25T07:55:07Z</time>
      </trkpt>
      <trkpt lat="45.09982" lon="0.68304">
        <ele>214.6</ele>
        <time>2025-05-25T07:55:08Z</time>
      </trkpt>
      <trkpt lat="45.0998" lon="0.68301">
        <ele>214.6</ele>
        <time>2025-05-25T07:55:09Z</time>
      </trkpt>
      <trkpt lat="45.09978" lon="0.68298">
        <ele>214.4</ele>
        <time>2025-05-25T07:55:10Z</time>
      </trkpt>
      <trkpt lat="45.09976" lon="0.68295">
        <ele>214.4</ele>
        <time>2025-05-25T07:55:11Z</time>
      </trkpt>
      <trkpt lat="45.09974" lon="0.68291">
        <ele>214.4</ele>
        <time>2025-05-25T07:55:12Z</time>
      </trkpt>
      <trkpt lat="45.09972" lon="0.68287">
        <ele>214.4</ele>
        <time>2025-05-25T07:55:13Z</time>
      </trkpt>
      <trkpt lat="45.09971" lon="0.68284">
        <ele>214.4</ele>
        <time>2025-05-25T07:55:14Z</time>
      </trkpt>
      <trkpt lat="45.09969" lon="0.6828">
        <ele>214.6</ele>
        <time>2025-05-25T07:55:15Z</time>
      </trkpt>
      <trkpt lat="45.09966" lon="0.68276">
        <ele>214.6</ele>
        <time>2025-05-25T07:55:16Z</time>
      </trkpt>
      <trkpt lat="45.09964" lon="0.68273">
        <ele>214.8</ele>
        <time>2025-05-25T07:55:17Z</time>
      </trkpt>
      <trkpt lat="45.09961" lon="0.6827">
        <ele>215</ele>
        <time>2025-05-25T07:55:18Z</time>
      </trkpt>
      <trkpt lat="45.09958" lon="0.68268">
        <ele>215.2</ele>
        <time>2025-05-25T07:55:19Z</time>
      </trkpt>
      <trkpt lat="45.09954" lon="0.68267">
        <ele>215.4</ele>
        <time>2025-05-25T07:55:20Z</time>
      </trkpt>
      <trkpt lat="45.0995" lon="0.68268">
        <ele>215.6</ele>
        <time>2025-05-25T07:55:21Z</time>
      </trkpt>
      <trkpt lat="45.09946" lon="0.68269">
        <ele>215.6</ele>
        <time>2025-05-25T07:55:22Z</time>
      </trkpt>
      <trkpt lat="45.09942" lon="0.68271">
        <ele>215.6</ele>
        <time>2025-05-25T07:55:23Z</time>
      </trkpt>
      <trkpt lat="45.09939" lon="0.68272">
        <ele>215.6</ele>
        <time>2025-05-25T07:55:24Z</time>
      </trkpt>
      <trkpt lat="45.09935" lon="0.68273">
        <ele>215.6</ele>
        <time>2025-05-25T07:55:25Z</time>
      </trkpt>
      <trkpt lat="45.09931" lon="0.68275">
        <ele>215.6</ele>
        <time>2025-05-25T07:55:26Z</time>
      </trkpt>
      <trkpt lat="45.09927" lon="0.68276">
        <ele>215.6</ele>
        <time>2025-05-25T07:55:27Z</time>
      </trkpt>
      <trkpt lat="45.09923" lon="0.68278">
        <ele>215.6</ele>
        <time>2025-05-25T07:55:28Z</time>
      </trkpt>
      <trkpt lat="45.09919" lon="0.6828">
        <ele>215.6</ele>
        <time>2025-05-25T07:55:29Z</time>
      </trkpt>
      <trkpt lat="45.09915" lon="0.68281">
        <ele>215.6</ele>
        <time>2025-05-25T07:55:30Z</time>
      </trkpt>
      <trkpt lat="45.0991" lon="0.68282">
        <ele>215.6</ele>
        <time>2025-05-25T07:55:31Z</time>
      </trkpt>
      <trkpt lat="45.09906" lon="0.68284">
        <ele>215.6</ele>
        <time>2025-05-25T07:55:32Z</time>
      </trkpt>
      <trkpt lat="45.09902" lon="0.68286">
        <ele>215.6</ele>
        <time>2025-05-25T07:55:33Z</time>
      </trkpt>
      <trkpt lat="45.09898" lon="0.68288">
        <ele>215.6</ele>
        <time>2025-05-25T07:55:34Z</time>
      </trkpt>
      <trkpt lat="45.09894" lon="0.68291">
        <ele>215.6</ele>
        <time>2025-05-25T07:55:35Z</time>
      </trkpt>
      <trkpt lat="45.0989" lon="0.68293">
        <ele>215.8</ele>
        <time>2025-05-25T07:55:36Z</time>
      </trkpt>
      <trkpt lat="45.09887" lon="0.68296">
        <ele>216</ele>
        <time>2025-05-25T07:55:37Z</time>
      </trkpt>
      <trkpt lat="45.09883" lon="0.68298">
        <ele>216.2</ele>
        <time>2025-05-25T07:55:38Z</time>
      </trkpt>
      <trkpt lat="45.09879" lon="0.68301">
        <ele>216.4</ele>
        <time>2025-05-25T07:55:39Z</time>
      </trkpt>
      <trkpt lat="45.09875" lon="0.68304">
        <ele>216.6</ele>
        <time>2025-05-25T07:55:40Z</time>
      </trkpt>
      <trkpt lat="45.09871" lon="0.68307">
        <ele>216.6</ele>
        <time>2025-05-25T07:55:41Z</time>
      </trkpt>
      <trkpt lat="45.09867" lon="0.6831">
        <ele>216.6</ele>
        <time>2025-05-25T07:55:42Z</time>
      </trkpt>
      <trkpt lat="45.09863" lon="0.68313">
        <ele>216.6</ele>
        <time>2025-05-25T07:55:43Z</time>
      </trkpt>
      <trkpt lat="45.09859" lon="0.68316">
        <ele>216.8</ele>
        <time>2025-05-25T07:55:44Z</time>
      </trkpt>
      <trkpt lat="45.09855" lon="0.68319">
        <ele>217</ele>
        <time>2025-05-25T07:55:45Z</time>
      </trkpt>
      <trkpt lat="45.0985" lon="0.68322">
        <ele>217</ele>
        <time>2025-05-25T07:55:46Z</time>
      </trkpt>
      <trkpt lat="45.09846" lon="0.68325">
        <ele>217.2</ele>
        <time>2025-05-25T07:55:47Z</time>
      </trkpt>
      <trkpt lat="45.09842" lon="0.68328">
        <ele>217.4</ele>
        <time>2025-05-25T07:55:48Z</time>
      </trkpt>
      <trkpt lat="45.09838" lon="0.6833">
        <ele>217.6</ele>
        <time>2025-05-25T07:55:49Z</time>
      </trkpt>
      <trkpt lat="45.09834" lon="0.68333">
        <ele>217.8</ele>
        <time>2025-05-25T07:55:50Z</time>
      </trkpt>
      <trkpt lat="45.0983" lon="0.68335">
        <ele>217.8</ele>
        <time>2025-05-25T07:55:51Z</time>
      </trkpt>
      <trkpt lat="45.09826" lon="0.68337">
        <ele>217.8</ele>
        <time>2025-05-25T07:55:52Z</time>
      </trkpt>
      <trkpt lat="45.09822" lon="0.68339">
        <ele>217.8</ele>
        <time>2025-05-25T07:55:53Z</time>
      </trkpt>
      <trkpt lat="45.09818" lon="0.68341">
        <ele>217.8</ele>
        <time>2025-05-25T07:55:54Z</time>
      </trkpt>
      <trkpt lat="45.09813" lon="0.68343">
        <ele>217.8</ele>
        <time>2025-05-25T07:55:55Z</time>
      </trkpt>
      <trkpt lat="45.09809" lon="0.68344">
        <ele>218</ele>
        <time>2025-05-25T07:55:56Z</time>
      </trkpt>
      <trkpt lat="45.09804" lon="0.68346">
        <ele>218</ele>
        <time>2025-05-25T07:55:57Z</time>
      </trkpt>
      <trkpt lat="45.098" lon="0.68347">
        <ele>218.2</ele>
        <time>2025-05-25T07:55:58Z</time>
      </trkpt>
      <trkpt lat="45.09795" lon="0.68349">
        <ele>218.2</ele>
        <time>2025-05-25T07:55:59Z</time>
      </trkpt>
      <trkpt lat="45.0979" lon="0.68351">
        <ele>218.4</ele>
        <time>2025-05-25T07:56:00Z</time>
      </trkpt>
      <trkpt lat="45.09786" lon="0.68354">
        <ele>218.4</ele>
        <time>2025-05-25T07:56:01Z</time>
      </trkpt>
      <trkpt lat="45.09781" lon="0.68357">
        <ele>218.4</ele>
        <time>2025-05-25T07:56:02Z</time>
      </trkpt>
      <trkpt lat="45.09777" lon="0.68359">
        <ele>218.4</ele>
        <time>2025-05-25T07:56:03Z</time>
      </trkpt>
      <trkpt lat="45.09772" lon="0.68361">
        <ele>218.4</ele>
        <time>2025-05-25T07:56:04Z</time>
      </trkpt>
      <trkpt lat="45.09769" lon="0.68364">
        <ele>218.4</ele>
        <time>2025-05-25T07:56:05Z</time>
      </trkpt>
      <trkpt lat="45.09765" lon="0.68367">
        <ele>218.4</ele>
        <time>2025-05-25T07:56:06Z</time>
      </trkpt>
      <trkpt lat="45.09761" lon="0.6837">
        <ele>218.6</ele>
        <time>2025-05-25T07:56:07Z</time>
      </trkpt>
      <trkpt lat="45.09757" lon="0.68373">
        <ele>218.6</ele>
        <time>2025-05-25T07:56:08Z</time>
      </trkpt>
      <trkpt lat="45.09753" lon="0.68376">
        <ele>219</ele>
        <time>2025-05-25T07:56:09Z</time>
      </trkpt>
      <trkpt lat="45.09748" lon="0.68379">
        <ele>219</ele>
        <time>2025-05-25T07:56:10Z</time>
      </trkpt>
      <trkpt lat="45.09744" lon="0.68382">
        <ele>219.2</ele>
        <time>2025-05-25T07:56:11Z</time>
      </trkpt>
      <trkpt lat="45.0974" lon="0.68385">
        <ele>219.2</ele>
        <time>2025-05-25T07:56:12Z</time>
      </trkpt>
      <trkpt lat="45.09736" lon="0.68388">
        <ele>219.4</ele>
        <time>2025-05-25T07:56:13Z</time>
      </trkpt>
      <trkpt lat="45.09732" lon="0.68391">
        <ele>219.4</ele>
        <time>2025-05-25T07:56:14Z</time>
      </trkpt>
      <trkpt lat="45.09727" lon="0.68394">
        <ele>219.4</ele>
        <time>2025-05-25T07:56:15Z</time>
      </trkpt>
      <trkpt lat="45.09723" lon="0.68397">
        <ele>219.4</ele>
        <time>2025-05-25T07:56:16Z</time>
      </trkpt>
      <trkpt lat="45.09719" lon="0.68399">
        <ele>219.4</ele>
        <time>2025-05-25T07:56:17Z</time>
      </trkpt>
      <trkpt lat="45.09715" lon="0.68402">
        <ele>219.4</ele>
        <time>2025-05-25T07:56:18Z</time>
      </trkpt>
      <trkpt lat="45.0971" lon="0.68404">
        <ele>219.4</ele>
        <time>2025-05-25T07:56:19Z</time>
      </trkpt>
      <trkpt lat="45.09706" lon="0.68406">
        <ele>219.4</ele>
        <time>2025-05-25T07:56:20Z</time>
      </trkpt>
      <trkpt lat="45.09701" lon="0.68408">
        <ele>219.2</ele>
        <time>2025-05-25T07:56:21Z</time>
      </trkpt>
      <trkpt lat="45.09696" lon="0.68409">
        <ele>219.2</ele>
        <time>2025-05-25T07:56:22Z</time>
      </trkpt>
      <trkpt lat="45.09691" lon="0.68411">
        <ele>219.2</ele>
        <time>2025-05-25T07:56:23Z</time>
      </trkpt>
      <trkpt lat="45.09687" lon="0.68413">
        <ele>219.2</ele>
        <time>2025-05-25T07:56:24Z</time>
      </trkpt>
      <trkpt lat="45.09682" lon="0.68414">
        <ele>219.2</ele>
        <time>2025-05-25T07:56:25Z</time>
      </trkpt>
      <trkpt lat="45.09677" lon="0.68415">
        <ele>219.2</ele>
        <time>2025-05-25T07:56:26Z</time>
      </trkpt>
      <trkpt lat="45.09672" lon="0.68417">
        <ele>219.2</ele>
        <time>2025-05-25T07:56:27Z</time>
      </trkpt>
      <trkpt lat="45.09667" lon="0.68418">
        <ele>219.2</ele>
        <time>2025-05-25T07:56:28Z</time>
      </trkpt>
      <trkpt lat="45.09662" lon="0.68419">
        <ele>219.2</ele>
        <time>2025-05-25T07:56:29Z</time>
      </trkpt>
      <trkpt lat="45.09657" lon="0.68419">
        <ele>219.2</ele>
        <time>2025-05-25T07:56:30Z</time>
      </trkpt>
      <trkpt lat="45.09652" lon="0.68419">
        <ele>219.2</ele>
        <time>2025-05-25T07:56:31Z</time>
      </trkpt>
      <trkpt lat="45.09647" lon="0.6842">
        <ele>219</ele>
        <time>2025-05-25T07:56:32Z</time>
      </trkpt>
      <trkpt lat="45.09642" lon="0.68421">
        <ele>219</ele>
        <time>2025-05-25T07:56:33Z</time>
      </trkpt>
      <trkpt lat="45.09637" lon="0.68422">
        <ele>219</ele>
        <time>2025-05-25T07:56:34Z</time>
      </trkpt>
      <trkpt lat="45.09632" lon="0.68424">
        <ele>218.8</ele>
        <time>2025-05-25T07:56:35Z</time>
      </trkpt>
      <trkpt lat="45.09628" lon="0.68426">
        <ele>218.8</ele>
        <time>2025-05-25T07:56:36Z</time>
      </trkpt>
      <trkpt lat="45.09623" lon="0.68427">
        <ele>218.8</ele>
        <time>2025-05-25T07:56:37Z</time>
      </trkpt>
      <trkpt lat="45.09619" lon="0.68428">
        <ele>219</ele>
        <time>2025-05-25T07:56:38Z</time>
      </trkpt>
      <trkpt lat="45.09615" lon="0.6843">
        <ele>219.2</ele>
        <time>2025-05-25T07:56:39Z</time>
      </trkpt>
      <trkpt lat="45.0961" lon="0.68431">
        <ele>219.4</ele>
        <time>2025-05-25T07:56:40Z</time>
      </trkpt>
      <trkpt lat="45.09606" lon="0.68433">
        <ele>219.4</ele>
        <time>2025-05-25T07:56:41Z</time>
      </trkpt>
      <trkpt lat="45.09601" lon="0.68434">
        <ele>219.6</ele>
        <time>2025-05-25T07:56:42Z</time>
      </trkpt>
      <trkpt lat="45.09596" lon="0.68436">
        <ele>219.8</ele>
        <time>2025-05-25T07:56:43Z</time>
      </trkpt>
      <trkpt lat="45.09592" lon="0.68438">
        <ele>219.8</ele>
        <time>2025-05-25T07:56:44Z</time>
      </trkpt>
      <trkpt lat="45.09587" lon="0.68439">
        <ele>220</ele>
        <time>2025-05-25T07:56:45Z</time>
      </trkpt>
      <trkpt lat="45.09582" lon="0.68441">
        <ele>220.2</ele>
        <time>2025-05-25T07:56:46Z</time>
      </trkpt>
      <trkpt lat="45.09577" lon="0.68443">
        <ele>220.2</ele>
        <time>2025-05-25T07:56:47Z</time>
      </trkpt>
      <trkpt lat="45.09572" lon="0.68445">
        <ele>220.4</ele>
        <time>2025-05-25T07:56:48Z</time>
      </trkpt>
      <trkpt lat="45.09568" lon="0.68447">
        <ele>220.4</ele>
        <time>2025-05-25T07:56:49Z</time>
      </trkpt>
      <trkpt lat="45.09563" lon="0.68449">
        <ele>220.4</ele>
        <time>2025-05-25T07:56:50Z</time>
      </trkpt>
      <trkpt lat="45.09559" lon="0.68452">
        <ele>220.4</ele>
        <time>2025-05-25T07:56:51Z</time>
      </trkpt>
      <trkpt lat="45.09554" lon="0.68453">
        <ele>220.4</ele>
        <time>2025-05-25T07:56:52Z</time>
      </trkpt>
      <trkpt lat="45.09549" lon="0.68456">
        <ele>220.4</ele>
        <time>2025-05-25T07:56:53Z</time>
      </trkpt>
      <trkpt lat="45.09545" lon="0.68458">
        <ele>220.4</ele>
        <time>2025-05-25T07:56:54Z</time>
      </trkpt>
      <trkpt lat="45.09541" lon="0.6846">
        <ele>220.6</ele>
        <time>2025-05-25T07:56:55Z</time>
      </trkpt>
      <trkpt lat="45.09537" lon="0.68462">
        <ele>220.6</ele>
        <time>2025-05-25T07:56:56Z</time>
      </trkpt>
      <trkpt lat="45.09533" lon="0.68462">
        <ele>220.8</ele>
        <time>2025-05-25T07:56:57Z</time>
      </trkpt>
      <trkpt lat="45.09529" lon="0.68463">
        <ele>220.8</ele>
        <time>2025-05-25T07:56:58Z</time>
      </trkpt>
      <trkpt lat="45.09524" lon="0.68465">
        <ele>221</ele>
        <time>2025-05-25T07:56:59Z</time>
      </trkpt>
      <trkpt lat="45.09519" lon="0.68466">
        <ele>221</ele>
        <time>2025-05-25T07:57:00Z</time>
      </trkpt>
      <trkpt lat="45.09515" lon="0.68465">
        <ele>221</ele>
        <time>2025-05-25T07:57:01Z</time>
      </trkpt>
      <trkpt lat="45.09509" lon="0.68464">
        <ele>221.2</ele>
        <time>2025-05-25T07:57:02Z</time>
      </trkpt>
      <trkpt lat="45.09505" lon="0.68465">
        <ele>221.2</ele>
        <time>2025-05-25T07:57:03Z</time>
      </trkpt>
      <trkpt lat="45.09502" lon="0.68464">
        <ele>221.4</ele>
        <time>2025-05-25T07:57:04Z</time>
      </trkpt>
      <trkpt lat="45.09503" lon="0.68462">
        <ele>221.6</ele>
        <time>2025-05-25T07:57:05Z</time>
      </trkpt>
      <trkpt lat="45.09503" lon="0.68462">
        <ele>221.8</ele>
        <time>2025-05-25T07:57:06Z</time>
      </trkpt>
      <trkpt lat="45.09503" lon="0.68461">
        <ele>222</ele>
        <time>2025-05-25T07:57:07Z</time>
      </trkpt>
      <trkpt lat="45.09504" lon="0.6846">
        <ele>222.2</ele>
        <time>2025-05-25T07:57:08Z</time>
      </trkpt>
      <trkpt lat="45.09505" lon="0.68458">
        <ele>222.2</ele>
        <time>2025-05-25T07:57:09Z</time>
      </trkpt>
      <trkpt lat="45.09505" lon="0.68455">
        <ele>222.2</ele>
        <time>2025-05-25T07:57:10Z</time>
      </trkpt>
      <trkpt lat="45.09504" lon="0.68452">
        <ele>222</ele>
        <time>2025-05-25T07:57:11Z</time>
      </trkpt>
      <trkpt lat="45.09503" lon="0.68447">
        <ele>221.8</ele>
        <time>2025-05-25T07:57:12Z</time>
      </trkpt>
      <trkpt lat="45.09501" lon="0.68442">
        <ele>221.6</ele>
        <time>2025-05-25T07:57:13Z</time>
      </trkpt>
      <trkpt lat="45.09499" lon="0.68437">
        <ele>221.4</ele>
        <time>2025-05-25T07:57:14Z</time>
      </trkpt>
      <trkpt lat="45.09498" lon="0.68431">
        <ele>221.2</ele>
        <time>2025-05-25T07:57:15Z</time>
      </trkpt>
      <trkpt lat="45.09495" lon="0.68425">
        <ele>221</ele>
        <time>2025-05-25T07:57:16Z</time>
      </trkpt>
      <trkpt lat="45.09493" lon="0.68418">
        <ele>221</ele>
        <time>2025-05-25T07:57:17Z</time>
      </trkpt>
      <trkpt lat="45.09491" lon="0.68412">
        <ele>220.8</ele>
        <time>2025-05-25T07:57:18Z</time>
      </trkpt>
      <trkpt lat="45.0949" lon="0.68406">
        <ele>220.6</ele>
        <time>2025-05-25T07:57:19Z</time>
      </trkpt>
      <trkpt lat="45.09489" lon="0.684">
        <ele>220.6</ele>
        <time>2025-05-25T07:57:20Z</time>
      </trkpt>
      <trkpt lat="45.09486" lon="0.68394">
        <ele>220.4</ele>
        <time>2025-05-25T07:57:21Z</time>
      </trkpt>
      <trkpt lat="45.09484" lon="0.68387">
        <ele>220.2</ele>
        <time>2025-05-25T07:57:22Z</time>
      </trkpt>
      <trkpt lat="45.09482" lon="0.68381">
        <ele>220.2</ele>
        <time>2025-05-25T07:57:23Z</time>
      </trkpt>
      <trkpt lat="45.09481" lon="0.68375">
        <ele>220.2</ele>
        <time>2025-05-25T07:57:24Z</time>
      </trkpt>
      <trkpt lat="45.09479" lon="0.68368">
        <ele>220.4</ele>
        <time>2025-05-25T07:57:25Z</time>
      </trkpt>
      <trkpt lat="45.09477" lon="0.68362">
        <ele>220.4</ele>
        <time>2025-05-25T07:57:26Z</time>
      </trkpt>
      <trkpt lat="45.09475" lon="0.68356">
        <ele>220.6</ele>
        <time>2025-05-25T07:57:27Z</time>
      </trkpt>
      <trkpt lat="45.09473" lon="0.6835">
        <ele>220.8</ele>
        <time>2025-05-25T07:57:28Z</time>
      </trkpt>
      <trkpt lat="45.09469" lon="0.68345">
        <ele>220.8</ele>
        <time>2025-05-25T07:57:29Z</time>
      </trkpt>
      <trkpt lat="45.09468" lon="0.68339">
        <ele>221</ele>
        <time>2025-05-25T07:57:30Z</time>
      </trkpt>
      <trkpt lat="45.09466" lon="0.68335">
        <ele>221</ele>
        <time>2025-05-25T07:57:31Z</time>
      </trkpt>
      <trkpt lat="45.09464" lon="0.68329">
        <ele>221.2</ele>
        <time>2025-05-25T07:57:32Z</time>
      </trkpt>
      <trkpt lat="45.09462" lon="0.68324">
        <ele>221.4</ele>
        <time>2025-05-25T07:57:33Z</time>
      </trkpt>
      <trkpt lat="45.09461" lon="0.68318">
        <ele>221.4</ele>
        <time>2025-05-25T07:57:34Z</time>
      </trkpt>
      <trkpt lat="45.09459" lon="0.68313">
        <ele>221.6</ele>
        <time>2025-05-25T07:57:35Z</time>
      </trkpt>
      <trkpt lat="45.09458" lon="0.68308">
        <ele>221.6</ele>
        <time>2025-05-25T07:57:36Z</time>
      </trkpt>
      <trkpt lat="45.09457" lon="0.68302">
        <ele>222</ele>
        <time>2025-05-25T07:57:37Z</time>
      </trkpt>
      <trkpt lat="45.09456" lon="0.68296">
        <ele>222.2</ele>
        <time>2025-05-25T07:57:38Z</time>
      </trkpt>
      <trkpt lat="45.09456" lon="0.68291">
        <ele>222.2</ele>
        <time>2025-05-25T07:57:39Z</time>
      </trkpt>
      <trkpt lat="45.09455" lon="0.68284">
        <ele>222.4</ele>
        <time>2025-05-25T07:57:40Z</time>
      </trkpt>
      <trkpt lat="45.09455" lon="0.68279">
        <ele>222.4</ele>
        <time>2025-05-25T07:57:41Z</time>
      </trkpt>
      <trkpt lat="45.09455" lon="0.68272">
        <ele>222.4</ele>
        <time>2025-05-25T07:57:42Z</time>
      </trkpt>
      <trkpt lat="45.09454" lon="0.68266">
        <ele>222.4</ele>
        <time>2025-05-25T07:57:43Z</time>
      </trkpt>
      <trkpt lat="45.09453" lon="0.68261">
        <ele>222.4</ele>
        <time>2025-05-25T07:57:44Z</time>
      </trkpt>
      <trkpt lat="45.09452" lon="0.68256">
        <ele>222.6</ele>
        <time>2025-05-25T07:57:45Z</time>
      </trkpt>
      <trkpt lat="45.09451" lon="0.68251">
        <ele>222.8</ele>
        <time>2025-05-25T07:57:46Z</time>
      </trkpt>
      <trkpt lat="45.09451" lon="0.68246">
        <ele>222.8</ele>
        <time>2025-05-25T07:57:47Z</time>
      </trkpt>
      <trkpt lat="45.09451" lon="0.6824">
        <ele>223</ele>
        <time>2025-05-25T07:57:48Z</time>
      </trkpt>
      <trkpt lat="45.09451" lon="0.68234">
        <ele>223.2</ele>
        <time>2025-05-25T07:57:49Z</time>
      </trkpt>
      <trkpt lat="45.09452" lon="0.68228">
        <ele>223.2</ele>
        <time>2025-05-25T07:57:50Z</time>
      </trkpt>
      <trkpt lat="45.09452" lon="0.68222">
        <ele>223.2</ele>
        <time>2025-05-25T07:57:51Z</time>
      </trkpt>
      <trkpt lat="45.09453" lon="0.68216">
        <ele>223.2</ele>
        <time>2025-05-25T07:57:52Z</time>
      </trkpt>
      <trkpt lat="45.09453" lon="0.68209">
        <ele>223.2</ele>
        <time>2025-05-25T07:57:53Z</time>
      </trkpt>
      <trkpt lat="45.09453" lon="0.68203">
        <ele>223</ele>
        <time>2025-05-25T07:57:54Z</time>
      </trkpt>
      <trkpt lat="45.09453" lon="0.68197">
        <ele>223</ele>
        <time>2025-05-25T07:57:55Z</time>
      </trkpt>
      <trkpt lat="45.09452" lon="0.68191">
        <ele>222.8</ele>
        <time>2025-05-25T07:57:56Z</time>
      </trkpt>
      <trkpt lat="45.09453" lon="0.68184">
        <ele>222.8</ele>
        <time>2025-05-25T07:57:57Z</time>
      </trkpt>
      <trkpt lat="45.09453" lon="0.68177">
        <ele>222.6</ele>
        <time>2025-05-25T07:57:58Z</time>
      </trkpt>
      <trkpt lat="45.09453" lon="0.68169">
        <ele>222.4</ele>
        <time>2025-05-25T07:57:59Z</time>
      </trkpt>
      <trkpt lat="45.09453" lon="0.68161">
        <ele>222.4</ele>
        <time>2025-05-25T07:58:00Z</time>
      </trkpt>
      <trkpt lat="45.09454" lon="0.68154">
        <ele>222</ele>
        <time>2025-05-25T07:58:01Z</time>
      </trkpt>
      <trkpt lat="45.09454" lon="0.68146">
        <ele>221.8</ele>
        <time>2025-05-25T07:58:02Z</time>
      </trkpt>
      <trkpt lat="45.09454" lon="0.68139">
        <ele>221.6</ele>
        <time>2025-05-25T07:58:03Z</time>
      </trkpt>
      <trkpt lat="45.09455" lon="0.68131">
        <ele>221.4</ele>
        <time>2025-05-25T07:58:04Z</time>
      </trkpt>
      <trkpt lat="45.09455" lon="0.68124">
        <ele>221.4</ele>
        <time>2025-05-25T07:58:05Z</time>
      </trkpt>
      <trkpt lat="45.09455" lon="0.68116">
        <ele>221.2</ele>
        <time>2025-05-25T07:58:06Z</time>
      </trkpt>
      <trkpt lat="45.09456" lon="0.68109">
        <ele>221.2</ele>
        <time>2025-05-25T07:58:07Z</time>
      </trkpt>
      <trkpt lat="45.09456" lon="0.68101">
        <ele>221.2</ele>
        <time>2025-05-25T07:58:08Z</time>
      </trkpt>
      <trkpt lat="45.09457" lon="0.68093">
        <ele>221.2</ele>
        <time>2025-05-25T07:58:09Z</time>
      </trkpt>
      <trkpt lat="45.09457" lon="0.68084">
        <ele>221</ele>
        <time>2025-05-25T07:58:10Z</time>
      </trkpt>
      <trkpt lat="45.09458" lon="0.68076">
        <ele>221</ele>
        <time>2025-05-25T07:58:11Z</time>
      </trkpt>
      <trkpt lat="45.09458" lon="0.68068">
        <ele>221</ele>
        <time>2025-05-25T07:58:12Z</time>
      </trkpt>
      <trkpt lat="45.09458" lon="0.6806">
        <ele>220.8</ele>
        <time>2025-05-25T07:58:13Z</time>
      </trkpt>
      <trkpt lat="45.09458" lon="0.68051">
        <ele>220.6</ele>
        <time>2025-05-25T07:58:14Z</time>
      </trkpt>
      <trkpt lat="45.09458" lon="0.68043">
        <ele>220.6</ele>
        <time>2025-05-25T07:58:15Z</time>
      </trkpt>
      <trkpt lat="45.09459" lon="0.68035">
        <ele>220.4</ele>
        <time>2025-05-25T07:58:16Z</time>
      </trkpt>
      <trkpt lat="45.09459" lon="0.68027">
        <ele>220.2</ele>
        <time>2025-05-25T07:58:17Z</time>
      </trkpt>
      <trkpt lat="45.09458" lon="0.68019">
        <ele>220.2</ele>
        <time>2025-05-25T07:58:18Z</time>
      </trkpt>
      <trkpt lat="45.09457" lon="0.68011">
        <ele>220.2</ele>
        <time>2025-05-25T07:58:19Z</time>
      </trkpt>
      <trkpt lat="45.09456" lon="0.68003">
        <ele>220.2</ele>
        <time>2025-05-25T07:58:20Z</time>
      </trkpt>
      <trkpt lat="45.09455" lon="0.67994">
        <ele>220.2</ele>
        <time>2025-05-25T07:58:21Z</time>
      </trkpt>
      <trkpt lat="45.09454" lon="0.67986">
        <ele>220.2</ele>
        <time>2025-05-25T07:58:22Z</time>
      </trkpt>
      <trkpt lat="45.09452" lon="0.67978">
        <ele>220</ele>
        <time>2025-05-25T07:58:23Z</time>
      </trkpt>
      <trkpt lat="45.09449" lon="0.67971">
        <ele>220</ele>
        <time>2025-05-25T07:58:24Z</time>
      </trkpt>
      <trkpt lat="45.09446" lon="0.67964">
        <ele>219.8</ele>
        <time>2025-05-25T07:58:25Z</time>
      </trkpt>
      <trkpt lat="45.09441" lon="0.67959">
        <ele>219.6</ele>
        <time>2025-05-25T07:58:26Z</time>
      </trkpt>
      <trkpt lat="45.09436" lon="0.67953">
        <ele>219.4</ele>
        <time>2025-05-25T07:58:27Z</time>
      </trkpt>
      <trkpt lat="45.09431" lon="0.67948">
        <ele>219.4</ele>
        <time>2025-05-25T07:58:28Z</time>
      </trkpt>
      <trkpt lat="45.09426" lon="0.67943">
        <ele>219.2</ele>
        <time>2025-05-25T07:58:29Z</time>
      </trkpt>
      <trkpt lat="45.0942" lon="0.6794">
        <ele>219</ele>
        <time>2025-05-25T07:58:30Z</time>
      </trkpt>
      <trkpt lat="45.09414" lon="0.67935">
        <ele>219</ele>
        <time>2025-05-25T07:58:31Z</time>
      </trkpt>
      <trkpt lat="45.09409" lon="0.67931">
        <ele>219</ele>
        <time>2025-05-25T07:58:32Z</time>
      </trkpt>
      <trkpt lat="45.09403" lon="0.67927">
        <ele>219</ele>
        <time>2025-05-25T07:58:33Z</time>
      </trkpt>
      <trkpt lat="45.09398" lon="0.67922">
        <ele>219.2</ele>
        <time>2025-05-25T07:58:34Z</time>
      </trkpt>
      <trkpt lat="45.09393" lon="0.67918">
        <ele>219.2</ele>
        <time>2025-05-25T07:58:35Z</time>
      </trkpt>
      <trkpt lat="45.09388" lon="0.67914">
        <ele>219.4</ele>
        <time>2025-05-25T07:58:36Z</time>
      </trkpt>
      <trkpt lat="45.09383" lon="0.6791">
        <ele>219.6</ele>
        <time>2025-05-25T07:58:37Z</time>
      </trkpt>
      <trkpt lat="45.09378" lon="0.67905">
        <ele>219.8</ele>
        <time>2025-05-25T07:58:38Z</time>
      </trkpt>
      <trkpt lat="45.09374" lon="0.67901">
        <ele>219.8</ele>
        <time>2025-05-25T07:58:39Z</time>
      </trkpt>
      <trkpt lat="45.09369" lon="0.67896">
        <ele>219.8</ele>
        <time>2025-05-25T07:58:40Z</time>
      </trkpt>
      <trkpt lat="45.09364" lon="0.67891">
        <ele>219.8</ele>
        <time>2025-05-25T07:58:41Z</time>
      </trkpt>
      <trkpt lat="45.0936" lon="0.67887">
        <ele>220</ele>
        <time>2025-05-25T07:58:42Z</time>
      </trkpt>
      <trkpt lat="45.09355" lon="0.67882">
        <ele>220</ele>
        <time>2025-05-25T07:58:43Z</time>
      </trkpt>
      <trkpt lat="45.0935" lon="0.67877">
        <ele>220</ele>
        <time>2025-05-25T07:58:44Z</time>
      </trkpt>
      <trkpt lat="45.09346" lon="0.67871">
        <ele>220</ele>
        <time>2025-05-25T07:58:45Z</time>
      </trkpt>
      <trkpt lat="45.09342" lon="0.67866">
        <ele>220.2</ele>
        <time>2025-05-25T07:58:46Z</time>
      </trkpt>
      <trkpt lat="45.09338" lon="0.67861">
        <ele>220.2</ele>
        <time>2025-05-25T07:58:47Z</time>
      </trkpt>
      <trkpt lat="45.09333" lon="0.67856">
        <ele>220.4</ele>
        <time>2025-05-25T07:58:48Z</time>
      </trkpt>
      <trkpt lat="45.09329" lon="0.67851">
        <ele>220.6</ele>
        <time>2025-05-25T07:58:49Z</time>
      </trkpt>
      <trkpt lat="45.09325" lon="0.67846">
        <ele>221</ele>
        <time>2025-05-25T07:58:50Z</time>
      </trkpt>
      <trkpt lat="45.0932" lon="0.67841">
        <ele>221.2</ele>
        <time>2025-05-25T07:58:51Z</time>
      </trkpt>
      <trkpt lat="45.09315" lon="0.67836">
        <ele>221.4</ele>
        <time>2025-05-25T07:58:52Z</time>
      </trkpt>
      <trkpt lat="45.09311" lon="0.67831">
        <ele>221.4</ele>
        <time>2025-05-25T07:58:53Z</time>
      </trkpt>
      <trkpt lat="45.09306" lon="0.67826">
        <ele>221.4</ele>
        <time>2025-05-25T07:58:54Z</time>
      </trkpt>
      <trkpt lat="45.09301" lon="0.6782">
        <ele>221.2</ele>
        <time>2025-05-25T07:58:55Z</time>
      </trkpt>
      <trkpt lat="45.09296" lon="0.67814">
        <ele>221</ele>
        <time>2025-05-25T07:58:56Z</time>
      </trkpt>
      <trkpt lat="45.09291" lon="0.67808">
        <ele>220.6</ele>
        <time>2025-05-25T07:58:57Z</time>
      </trkpt>
      <trkpt lat="45.09285" lon="0.67803">
        <ele>220.2</ele>
        <time>2025-05-25T07:58:58Z</time>
      </trkpt>
      <trkpt lat="45.0928" lon="0.67797">
        <ele>219.8</ele>
        <time>2025-05-25T07:58:59Z</time>
      </trkpt>
      <trkpt lat="45.09274" lon="0.67791">
        <ele>219</ele>
        <time>2025-05-25T07:59:00Z</time>
      </trkpt>
      <trkpt lat="45.09268" lon="0.67785">
        <ele>218.4</ele>
        <time>2025-05-25T07:59:01Z</time>
      </trkpt>
      <trkpt lat="45.09262" lon="0.67778">
        <ele>217.8</ele>
        <time>2025-05-25T07:59:02Z</time>
      </trkpt>
      <trkpt lat="45.09257" lon="0.67772">
        <ele>217</ele>
        <time>2025-05-25T07:59:03Z</time>
      </trkpt>
      <trkpt lat="45.0925" lon="0.67765">
        <ele>216.2</ele>
        <time>2025-05-25T07:59:04Z</time>
      </trkpt>
      <trkpt lat="45.09244" lon="0.67758">
        <ele>215.6</ele>
        <time>2025-05-25T07:59:05Z</time>
      </trkpt>
      <trkpt lat="45.09237" lon="0.67754">
        <ele>215</ele>
        <time>2025-05-25T07:59:06Z</time>
      </trkpt>
      <trkpt lat="45.09232" lon="0.67752">
        <ele>214.6</ele>
        <time>2025-05-25T07:59:07Z</time>
      </trkpt>
      <trkpt lat="45.09228" lon="0.67751">
        <ele>214.2</ele>
        <time>2025-05-25T07:59:08Z</time>
      </trkpt>
      <trkpt lat="45.09225" lon="0.6775">
        <ele>214.2</ele>
        <time>2025-05-25T07:59:09Z</time>
      </trkpt>
      <trkpt lat="45.09224" lon="0.6775">
        <ele>214.6</ele>
        <time>2025-05-25T07:59:10Z</time>
      </trkpt>
      <trkpt lat="45.09222" lon="0.6775">
        <ele>215</ele>
        <time>2025-05-25T07:59:11Z</time>
      </trkpt>
      <trkpt lat="45.09221" lon="0.6775">
        <ele>215.4</ele>
        <time>2025-05-25T07:59:12Z</time>
      </trkpt>
      <trkpt lat="45.0922" lon="0.67751">
        <ele>215.8</ele>
        <time>2025-05-25T07:59:13Z</time>
      </trkpt>
      <trkpt lat="45.0922" lon="0.67753">
        <ele>216</ele>
        <time>2025-05-25T07:59:14Z</time>
      </trkpt>
      <trkpt lat="45.09221" lon="0.67755">
        <ele>216.2</ele>
        <time>2025-05-25T07:59:15Z</time>
      </trkpt>
      <trkpt lat="45.09222" lon="0.67756">
        <ele>216.2</ele>
        <time>2025-05-25T07:59:16Z</time>
      </trkpt>
      <trkpt lat="45.09223" lon="0.67757">
        <ele>216.2</ele>
        <time>2025-05-25T07:59:17Z</time>
      </trkpt>
      <trkpt lat="45.09224" lon="0.67758">
        <ele>216.2</ele>
        <time>2025-05-25T07:59:18Z</time>
      </trkpt>
      <trkpt lat="45.09225" lon="0.67759">
        <ele>216.2</ele>
        <time>2025-05-25T07:59:19Z</time>
      </trkpt>
      <trkpt lat="45.09226" lon="0.67759">
        <ele>216.4</ele>
        <time>2025-05-25T07:59:20Z</time>
      </trkpt>
      <trkpt lat="45.09227" lon="0.67759">
        <ele>216.4</ele>
        <time>2025-05-25T07:59:21Z</time>
      </trkpt>
      <trkpt lat="45.09227" lon="0.67759">
        <ele>216.4</ele>
        <time>2025-05-25T07:59:22Z</time>
      </trkpt>
      <trkpt lat="45.09227" lon="0.67759">
        <ele>216.4</ele>
        <time>2025-05-25T07:59:23Z</time>
      </trkpt>
      <trkpt lat="45.09225" lon="0.6775">
        <ele>216.6</ele>
        <time>2025-05-25T08:02:08Z</time>
      </trkpt>
      <trkpt lat="45.09224" lon="0.67746">
        <ele>216.6</ele>
        <time>2025-05-25T08:02:09Z</time>
      </trkpt>
      <trkpt lat="45.09223" lon="0.67743">
        <ele>216.6</ele>
        <time>2025-05-25T08:02:10Z</time>
      </trkpt>
      <trkpt lat="45.09221" lon="0.67741">
        <ele>216.4</ele>
        <time>2025-05-25T08:02:11Z</time>
      </trkpt>
      <trkpt lat="45.09218" lon="0.67738">
        <ele>216.2</ele>
        <time>2025-05-25T08:02:12Z</time>
      </trkpt>
      <trkpt lat="45.09214" lon="0.67735">
        <ele>216</ele>
        <time>2025-05-25T08:02:13Z</time>
      </trkpt>
      <trkpt lat="45.0921" lon="0.67731">
        <ele>215.8</ele>
        <time>2025-05-25T08:02:14Z</time>
      </trkpt>
      <trkpt lat="45.09205" lon="0.67727">
        <ele>215.6</ele>
        <time>2025-05-25T08:02:15Z</time>
      </trkpt>
      <trkpt lat="45.092" lon="0.67724">
        <ele>215.4</ele>
        <time>2025-05-25T08:02:16Z</time>
      </trkpt>
      <trkpt lat="45.09194" lon="0.6772">
        <ele>215.2</ele>
        <time>2025-05-25T08:02:17Z</time>
      </trkpt>
      <trkpt lat="45.09189" lon="0.67716">
        <ele>215</ele>
        <time>2025-05-25T08:02:18Z</time>
      </trkpt>
      <trkpt lat="45.09185" lon="0.67709">
        <ele>214.8</ele>
        <time>2025-05-25T08:02:19Z</time>
      </trkpt>
      <trkpt lat="45.09182" lon="0.67702">
        <ele>214.6</ele>
        <time>2025-05-25T08:02:20Z</time>
      </trkpt>
      <trkpt lat="45.0918" lon="0.67694">
        <ele>214.6</ele>
        <time>2025-05-25T08:02:21Z</time>
      </trkpt>
      <trkpt lat="45.09177" lon="0.67688">
        <ele>214.4</ele>
        <time>2025-05-25T08:02:22Z</time>
      </trkpt>
      <trkpt lat="45.09173" lon="0.67685">
        <ele>214.2</ele>
        <time>2025-05-25T08:02:23Z</time>
      </trkpt>
      <trkpt lat="45.09169" lon="0.67685">
        <ele>214</ele>
        <time>2025-05-25T08:02:24Z</time>
      </trkpt>
      <trkpt lat="45.09165" lon="0.67686">
        <ele>213.8</ele>
        <time>2025-05-25T08:02:25Z</time>
      </trkpt>
      <trkpt lat="45.09161" lon="0.67688">
        <ele>213.8</ele>
        <time>2025-05-25T08:02:26Z</time>
      </trkpt>
      <trkpt lat="45.09158" lon="0.67687">
        <ele>213.6</ele>
        <time>2025-05-25T08:02:27Z</time>
      </trkpt>
      <trkpt lat="45.09155" lon="0.67685">
        <ele>213.4</ele>
        <time>2025-05-25T08:02:28Z</time>
      </trkpt>
      <trkpt lat="45.09153" lon="0.67681">
        <ele>213.4</ele>
        <time>2025-05-25T08:02:29Z</time>
      </trkpt>
      <trkpt lat="45.09153" lon="0.67677">
        <ele>213.2</ele>
        <time>2025-05-25T08:02:30Z</time>
      </trkpt>
      <trkpt lat="45.09153" lon="0.67672">
        <ele>213</ele>
        <time>2025-05-25T08:02:31Z</time>
      </trkpt>
      <trkpt lat="45.09153" lon="0.67666">
        <ele>212.8</ele>
        <time>2025-05-25T08:02:32Z</time>
      </trkpt>
      <trkpt lat="45.09153" lon="0.6766">
        <ele>212.4</ele>
        <time>2025-05-25T08:02:33Z</time>
      </trkpt>
      <trkpt lat="45.09152" lon="0.67653">
        <ele>212.2</ele>
        <time>2025-05-25T08:02:34Z</time>
      </trkpt>
      <trkpt lat="45.09152" lon="0.67647">
        <ele>212</ele>
        <time>2025-05-25T08:02:35Z</time>
      </trkpt>
      <trkpt lat="45.09152" lon="0.6764">
        <ele>211.6</ele>
        <time>2025-05-25T08:02:36Z</time>
      </trkpt>
      <trkpt lat="45.09152" lon="0.67633">
        <ele>211.2</ele>
        <time>2025-05-25T08:02:37Z</time>
      </trkpt>
      <trkpt lat="45.09153" lon="0.67624">
        <ele>210.6</ele>
        <time>2025-05-25T08:02:38Z</time>
      </trkpt>
      <trkpt lat="45.09154" lon="0.67614">
        <ele>209.6</ele>
        <time>2025-05-25T08:02:39Z</time>
      </trkpt>
      <trkpt lat="45.09155" lon="0.67604">
        <ele>208.6</ele>
        <time>2025-05-25T08:02:40Z</time>
      </trkpt>
      <trkpt lat="45.09157" lon="0.67592">
        <ele>207.8</ele>
        <time>2025-05-25T08:02:41Z</time>
      </trkpt>
      <trkpt lat="45.09157" lon="0.6758">
        <ele>206.8</ele>
        <time>2025-05-25T08:02:42Z</time>
      </trkpt>
      <trkpt lat="45.09158" lon="0.67568">
        <ele>205.6</ele>
        <time>2025-05-25T08:02:43Z</time>
      </trkpt>
      <trkpt lat="45.0916" lon="0.67556">
        <ele>204.6</ele>
        <time>2025-05-25T08:02:44Z</time>
      </trkpt>
      <trkpt lat="45.09165" lon="0.67546">
        <ele>203.4</ele>
        <time>2025-05-25T08:02:45Z</time>
      </trkpt>
      <trkpt lat="45.09169" lon="0.67534">
        <ele>202.2</ele>
        <time>2025-05-25T08:02:46Z</time>
      </trkpt>
      <trkpt lat="45.09172" lon="0.67523">
        <ele>200.8</ele>
        <time>2025-05-25T08:02:47Z</time>
      </trkpt>
      <trkpt lat="45.09177" lon="0.67513">
        <ele>199.2</ele>
        <time>2025-05-25T08:02:48Z</time>
      </trkpt>
      <trkpt lat="45.09179" lon="0.67502">
        <ele>197.6</ele>
        <time>2025-05-25T08:02:49Z</time>
      </trkpt>
      <trkpt lat="45.09179" lon="0.67491">
        <ele>195</ele>
        <time>2025-05-25T08:02:50Z</time>
      </trkpt>
      <trkpt lat="45.09178" lon="0.67478">
        <ele>193.4</ele>
        <time>2025-05-25T08:02:51Z</time>
      </trkpt>
      <trkpt lat="45.09175" lon="0.67465">
        <ele>192</ele>
        <time>2025-05-25T08:02:52Z</time>
      </trkpt>
      <trkpt lat="45.09172" lon="0.67451">
        <ele>190.4</ele>
        <time>2025-05-25T08:02:53Z</time>
      </trkpt>
      <trkpt lat="45.09168" lon="0.67438">
        <ele>187.8</ele>
        <time>2025-05-25T08:02:54Z</time>
      </trkpt>
      <trkpt lat="45.09163" lon="0.67425">
        <ele>183.6</ele>
        <time>2025-05-25T08:02:55Z</time>
      </trkpt>
      <trkpt lat="45.09157" lon="0.67411">
        <ele>181.2</ele>
        <time>2025-05-25T08:02:56Z</time>
      </trkpt>
      <trkpt lat="45.09152" lon="0.674">
        <ele>179.2</ele>
        <time>2025-05-25T08:02:57Z</time>
      </trkpt>
      <trkpt lat="45.09147" lon="0.6739">
        <ele>177.8</ele>
        <time>2025-05-25T08:02:58Z</time>
      </trkpt>
      <trkpt lat="45.09141" lon="0.67385">
        <ele>176</ele>
        <time>2025-05-25T08:02:59Z</time>
      </trkpt>
      <trkpt lat="45.09135" lon="0.67383">
        <ele>174.6</ele>
        <time>2025-05-25T08:03:00Z</time>
      </trkpt>
      <trkpt lat="45.09128" lon="0.67385">
        <ele>173.2</ele>
        <time>2025-05-25T08:03:01Z</time>
      </trkpt>
      <trkpt lat="45.0912" lon="0.67388">
        <ele>171.8</ele>
        <time>2025-05-25T08:03:02Z</time>
      </trkpt>
      <trkpt lat="45.09111" lon="0.67391">
        <ele>170.2</ele>
        <time>2025-05-25T08:03:03Z</time>
      </trkpt>
      <trkpt lat="45.091" lon="0.67394">
        <ele>168.6</ele>
        <time>2025-05-25T08:03:04Z</time>
      </trkpt>
      <trkpt lat="45.09092" lon="0.67396">
        <ele>166.8</ele>
        <time>2025-05-25T08:03:05Z</time>
      </trkpt>
      <trkpt lat="45.09084" lon="0.67395">
        <ele>165.8</ele>
        <time>2025-05-25T08:03:06Z</time>
      </trkpt>
      <trkpt lat="45.09079" lon="0.67391">
        <ele>164.8</ele>
        <time>2025-05-25T08:03:07Z</time>
      </trkpt>
      <trkpt lat="45.09075" lon="0.67385">
        <ele>164.4</ele>
        <time>2025-05-25T08:03:08Z</time>
      </trkpt>
      <trkpt lat="45.09073" lon="0.67377">
        <ele>164.2</ele>
        <time>2025-05-25T08:03:09Z</time>
      </trkpt>
      <trkpt lat="45.09071" lon="0.6737">
        <ele>164.2</ele>
        <time>2025-05-25T08:03:10Z</time>
      </trkpt>
      <trkpt lat="45.09069" lon="0.67362">
        <ele>163.8</ele>
        <time>2025-05-25T08:03:11Z</time>
      </trkpt>
      <trkpt lat="45.09067" lon="0.67355">
        <ele>163.6</ele>
        <time>2025-05-25T08:03:12Z</time>
      </trkpt>
      <trkpt lat="45.09066" lon="0.67346">
        <ele>163.6</ele>
        <time>2025-05-25T08:03:13Z</time>
      </trkpt>
      <trkpt lat="45.09064" lon="0.67337">
        <ele>163.4</ele>
        <time>2025-05-25T08:03:14Z</time>
      </trkpt>
      <trkpt lat="45.09063" lon="0.67328">
        <ele>163.2</ele>
        <time>2025-05-25T08:03:15Z</time>
      </trkpt>
      <trkpt lat="45.09061" lon="0.67318">
        <ele>163</ele>
        <time>2025-05-25T08:03:16Z</time>
      </trkpt>
      <trkpt lat="45.09061" lon="0.6731">
        <ele>162.8</ele>
        <time>2025-05-25T08:03:17Z</time>
      </trkpt>
      <trkpt lat="45.09059" lon="0.67301">
        <ele>162.6</ele>
        <time>2025-05-25T08:03:18Z</time>
      </trkpt>
      <trkpt lat="45.09057" lon="0.67291">
        <ele>162.4</ele>
        <time>2025-05-25T08:03:19Z</time>
      </trkpt>
      <trkpt lat="45.09054" lon="0.67283">
        <ele>162.2</ele>
        <time>2025-05-25T08:03:20Z</time>
      </trkpt>
      <trkpt lat="45.09052" lon="0.67274">
        <ele>162.2</ele>
        <time>2025-05-25T08:03:21Z</time>
      </trkpt>
      <trkpt lat="45.09048" lon="0.67266">
        <ele>161.8</ele>
        <time>2025-05-25T08:03:22Z</time>
      </trkpt>
      <trkpt lat="45.09045" lon="0.67258">
        <ele>161.6</ele>
        <time>2025-05-25T08:03:23Z</time>
      </trkpt>
      <trkpt lat="45.09041" lon="0.67249">
        <ele>161.6</ele>
        <time>2025-05-25T08:03:24Z</time>
      </trkpt>
      <trkpt lat="45.09037" lon="0.67241">
        <ele>161.4</ele>
        <time>2025-05-25T08:03:25Z</time>
      </trkpt>
      <trkpt lat="45.09033" lon="0.67232">
        <ele>161.2</ele>
        <time>2025-05-25T08:03:26Z</time>
      </trkpt>
      <trkpt lat="45.09029" lon="0.67224">
        <ele>161.2</ele>
        <time>2025-05-25T08:03:27Z</time>
      </trkpt>
      <trkpt lat="45.09025" lon="0.67217">
        <ele>161</ele>
        <time>2025-05-25T08:03:28Z</time>
      </trkpt>
      <trkpt lat="45.09021" lon="0.67209">
        <ele>160.6</ele>
        <time>2025-05-25T08:03:29Z</time>
      </trkpt>
      <trkpt lat="45.09016" lon="0.67202">
        <ele>160.6</ele>
        <time>2025-05-25T08:03:30Z</time>
      </trkpt>
      <trkpt lat="45.09012" lon="0.67195">
        <ele>160.4</ele>
        <time>2025-05-25T08:03:31Z</time>
      </trkpt>
      <trkpt lat="45.09007" lon="0.67188">
        <ele>160.4</ele>
        <time>2025-05-25T08:03:32Z</time>
      </trkpt>
      <trkpt lat="45.09002" lon="0.67181">
        <ele>160.4</ele>
        <time>2025-05-25T08:03:33Z</time>
      </trkpt>
      <trkpt lat="45.08998" lon="0.67174">
        <ele>160.4</ele>
        <time>2025-05-25T08:03:34Z</time>
      </trkpt>
      <trkpt lat="45.08996" lon="0.67167">
        <ele>160.4</ele>
        <time>2025-05-25T08:03:35Z</time>
      </trkpt>
      <trkpt lat="45.08994" lon="0.67159">
        <ele>160.2</ele>
        <time>2025-05-25T08:03:36Z</time>
      </trkpt>
      <trkpt lat="45.08992" lon="0.67151">
        <ele>160</ele>
        <time>2025-05-25T08:03:37Z</time>
      </trkpt>
      <trkpt lat="45.0899" lon="0.67143">
        <ele>160</ele>
        <time>2025-05-25T08:03:38Z</time>
      </trkpt>
      <trkpt lat="45.08988" lon="0.67134">
        <ele>159.6</ele>
        <time>2025-05-25T08:03:39Z</time>
      </trkpt>
      <trkpt lat="45.08987" lon="0.67125">
        <ele>159.2</ele>
        <time>2025-05-25T08:03:40Z</time>
      </trkpt>
      <trkpt lat="45.08985" lon="0.67116">
        <ele>159</ele>
        <time>2025-05-25T08:03:41Z</time>
      </trkpt>
      <trkpt lat="45.08983" lon="0.67107">
        <ele>158.8</ele>
        <time>2025-05-25T08:03:42Z</time>
      </trkpt>
      <trkpt lat="45.08982" lon="0.67097">
        <ele>158.6</ele>
        <time>2025-05-25T08:03:43Z</time>
      </trkpt>
      <trkpt lat="45.08982" lon="0.67086">
        <ele>158.4</ele>
        <time>2025-05-25T08:03:44Z</time>
      </trkpt>
      <trkpt lat="45.08981" lon="0.67076">
        <ele>158.2</ele>
        <time>2025-05-25T08:03:45Z</time>
      </trkpt>
      <trkpt lat="45.08981" lon="0.67065">
        <ele>158</ele>
        <time>2025-05-25T08:03:46Z</time>
      </trkpt>
      <trkpt lat="45.08981" lon="0.67055">
        <ele>157.6</ele>
        <time>2025-05-25T08:03:47Z</time>
      </trkpt>
      <trkpt lat="45.08981" lon="0.67045">
        <ele>157.2</ele>
        <time>2025-05-25T08:03:48Z</time>
      </trkpt>
      <trkpt lat="45.08979" lon="0.67034">
        <ele>156.8</ele>
        <time>2025-05-25T08:03:49Z</time>
      </trkpt>
      <trkpt lat="45.08979" lon="0.67023">
        <ele>156.4</ele>
        <time>2025-05-25T08:03:50Z</time>
      </trkpt>
      <trkpt lat="45.08979" lon="0.67014">
        <ele>156</ele>
        <time>2025-05-25T08:03:51Z</time>
      </trkpt>
      <trkpt lat="45.08979" lon="0.67004">
        <ele>156</ele>
        <time>2025-05-25T08:03:52Z</time>
      </trkpt>
      <trkpt lat="45.08979" lon="0.66993">
        <ele>156</ele>
        <time>2025-05-25T08:03:53Z</time>
      </trkpt>
      <trkpt lat="45.08979" lon="0.66983">
        <ele>155.8</ele>
        <time>2025-05-25T08:03:54Z</time>
      </trkpt>
      <trkpt lat="45.0898" lon="0.66972">
        <ele>155.6</ele>
        <time>2025-05-25T08:03:55Z</time>
      </trkpt>
      <trkpt lat="45.08982" lon="0.66963">
        <ele>155.4</ele>
        <time>2025-05-25T08:03:56Z</time>
      </trkpt>
      <trkpt lat="45.08984" lon="0.66952">
        <ele>155</ele>
        <time>2025-05-25T08:03:57Z</time>
      </trkpt>
      <trkpt lat="45.08986" lon="0.66941">
        <ele>154.8</ele>
        <time>2025-05-25T08:03:58Z</time>
      </trkpt>
      <trkpt lat="45.08987" lon="0.66931">
        <ele>154.6</ele>
        <time>2025-05-25T08:03:59Z</time>
      </trkpt>
      <trkpt lat="45.08989" lon="0.6692">
        <ele>154.6</ele>
        <time>2025-05-25T08:04:00Z</time>
      </trkpt>
      <trkpt lat="45.0899" lon="0.6691">
        <ele>154.4</ele>
        <time>2025-05-25T08:04:01Z</time>
      </trkpt>
      <trkpt lat="45.08992" lon="0.669">
        <ele>154.2</ele>
        <time>2025-05-25T08:04:02Z</time>
      </trkpt>
      <trkpt lat="45.08993" lon="0.6689">
        <ele>154</ele>
        <time>2025-05-25T08:04:03Z</time>
      </trkpt>
      <trkpt lat="45.08993" lon="0.6688">
        <ele>153.8</ele>
        <time>2025-05-25T08:04:04Z</time>
      </trkpt>
      <trkpt lat="45.08993" lon="0.6687">
        <ele>153.6</ele>
        <time>2025-05-25T08:04:05Z</time>
      </trkpt>
      <trkpt lat="45.08993" lon="0.66861">
        <ele>153.6</ele>
        <time>2025-05-25T08:04:06Z</time>
      </trkpt>
      <trkpt lat="45.08993" lon="0.66851">
        <ele>153.4</ele>
        <time>2025-05-25T08:04:07Z</time>
      </trkpt>
      <trkpt lat="45.08993" lon="0.66842">
        <ele>153.2</ele>
        <time>2025-05-25T08:04:08Z</time>
      </trkpt>
      <trkpt lat="45.08992" lon="0.66833">
        <ele>153.2</ele>
        <time>2025-05-25T08:04:09Z</time>
      </trkpt>
      <trkpt lat="45.08991" lon="0.66824">
        <ele>153.2</ele>
        <time>2025-05-25T08:04:10Z</time>
      </trkpt>
      <trkpt lat="45.08991" lon="0.66815">
        <ele>153.2</ele>
        <time>2025-05-25T08:04:11Z</time>
      </trkpt>
      <trkpt lat="45.08989" lon="0.66806">
        <ele>153.2</ele>
        <time>2025-05-25T08:04:12Z</time>
      </trkpt>
      <trkpt lat="45.08987" lon="0.66798">
        <ele>153.4</ele>
        <time>2025-05-25T08:04:13Z</time>
      </trkpt>
      <trkpt lat="45.08985" lon="0.66789">
        <ele>153.6</ele>
        <time>2025-05-25T08:04:14Z</time>
      </trkpt>
      <trkpt lat="45.08983" lon="0.66781">
        <ele>153.8</ele>
        <time>2025-05-25T08:04:15Z</time>
      </trkpt>
      <trkpt lat="45.08981" lon="0.66772">
        <ele>153.8</ele>
        <time>2025-05-25T08:04:16Z</time>
      </trkpt>
      <trkpt lat="45.08978" lon="0.66762">
        <ele>153.8</ele>
        <time>2025-05-25T08:04:17Z</time>
      </trkpt>
      <trkpt lat="45.08975" lon="0.66752">
        <ele>153.6</ele>
        <time>2025-05-25T08:04:18Z</time>
      </trkpt>
      <trkpt lat="45.08971" lon="0.66742">
        <ele>153.2</ele>
        <time>2025-05-25T08:04:19Z</time>
      </trkpt>
      <trkpt lat="45.08967" lon="0.66732">
        <ele>153</ele>
        <time>2025-05-25T08:04:20Z</time>
      </trkpt>
      <trkpt lat="45.08963" lon="0.66722">
        <ele>152.8</ele>
        <time>2025-05-25T08:04:21Z</time>
      </trkpt>
      <trkpt lat="45.08959" lon="0.66713">
        <ele>152.6</ele>
        <time>2025-05-25T08:04:22Z</time>
      </trkpt>
      <trkpt lat="45.08955" lon="0.66703">
        <ele>152.6</ele>
        <time>2025-05-25T08:04:23Z</time>
      </trkpt>
      <trkpt lat="45.08951" lon="0.66694">
        <ele>152.4</ele>
        <time>2025-05-25T08:04:24Z</time>
      </trkpt>
      <trkpt lat="45.08947" lon="0.66685">
        <ele>152.2</ele>
        <time>2025-05-25T08:04:25Z</time>
      </trkpt>
      <trkpt lat="45.08942" lon="0.66675">
        <ele>152</ele>
        <time>2025-05-25T08:04:26Z</time>
      </trkpt>
      <trkpt lat="45.08938" lon="0.66666">
        <ele>151.6</ele>
        <time>2025-05-25T08:04:27Z</time>
      </trkpt>
      <trkpt lat="45.08934" lon="0.66657">
        <ele>151</ele>
        <time>2025-05-25T08:04:28Z</time>
      </trkpt>
      <trkpt lat="45.0893" lon="0.66648">
        <ele>150.4</ele>
        <time>2025-05-25T08:04:29Z</time>
      </trkpt>
      <trkpt lat="45.08926" lon="0.66639">
        <ele>149.6</ele>
        <time>2025-05-25T08:04:30Z</time>
      </trkpt>
      <trkpt lat="45.08923" lon="0.66629">
        <ele>149.2</ele>
        <time>2025-05-25T08:04:31Z</time>
      </trkpt>
      <trkpt lat="45.08919" lon="0.6662">
        <ele>149</ele>
        <time>2025-05-25T08:04:32Z</time>
      </trkpt>
      <trkpt lat="45.08915" lon="0.6661">
        <ele>148.6</ele>
        <time>2025-05-25T08:04:33Z</time>
      </trkpt>
      <trkpt lat="45.08911" lon="0.66601">
        <ele>148.2</ele>
        <time>2025-05-25T08:04:34Z</time>
      </trkpt>
      <trkpt lat="45.08907" lon="0.66592">
        <ele>147.8</ele>
        <time>2025-05-25T08:04:35Z</time>
      </trkpt>
      <trkpt lat="45.08903" lon="0.66582">
        <ele>147.4</ele>
        <time>2025-05-25T08:04:36Z</time>
      </trkpt>
      <trkpt lat="45.08898" lon="0.66573">
        <ele>147</ele>
        <time>2025-05-25T08:04:37Z</time>
      </trkpt>
      <trkpt lat="45.08893" lon="0.66564">
        <ele>146.4</ele>
        <time>2025-05-25T08:04:38Z</time>
      </trkpt>
      <trkpt lat="45.08887" lon="0.66556">
        <ele>146</ele>
        <time>2025-05-25T08:04:39Z</time>
      </trkpt>
      <trkpt lat="45.08881" lon="0.66548">
        <ele>145.4</ele>
        <time>2025-05-25T08:04:40Z</time>
      </trkpt>
      <trkpt lat="45.08875" lon="0.6654">
        <ele>144.8</ele>
        <time>2025-05-25T08:04:41Z</time>
      </trkpt>
      <trkpt lat="45.0887" lon="0.66531">
        <ele>144</ele>
        <time>2025-05-25T08:04:42Z</time>
      </trkpt>
      <trkpt lat="45.08867" lon="0.66523">
        <ele>143.4</ele>
        <time>2025-05-25T08:04:43Z</time>
      </trkpt>
      <trkpt lat="45.08866" lon="0.66516">
        <ele>143</ele>
        <time>2025-05-25T08:04:44Z</time>
      </trkpt>
      <trkpt lat="45.08865" lon="0.66511">
        <ele>142.8</ele>
        <time>2025-05-25T08:04:45Z</time>
      </trkpt>
      <trkpt lat="45.08866" lon="0.66506">
        <ele>142.8</ele>
        <time>2025-05-25T08:04:46Z</time>
      </trkpt>
      <trkpt lat="45.08869" lon="0.66504">
        <ele>142.8</ele>
        <time>2025-05-25T08:04:47Z</time>
      </trkpt>
      <trkpt lat="45.08872" lon="0.66502">
        <ele>143</ele>
        <time>2025-05-25T08:04:48Z</time>
      </trkpt>
      <trkpt lat="45.08875" lon="0.665">
        <ele>143</ele>
        <time>2025-05-25T08:04:49Z</time>
      </trkpt>
      <trkpt lat="45.08879" lon="0.66497">
        <ele>142.8</ele>
        <time>2025-05-25T08:04:50Z</time>
      </trkpt>
      <trkpt lat="45.08881" lon="0.66494">
        <ele>142.6</ele>
        <time>2025-05-25T08:04:51Z</time>
      </trkpt>
      <trkpt lat="45.08884" lon="0.66492">
        <ele>142.4</ele>
        <time>2025-05-25T08:04:52Z</time>
      </trkpt>
      <trkpt lat="45.08888" lon="0.66489">
        <ele>142.4</ele>
        <time>2025-05-25T08:04:53Z</time>
      </trkpt>
      <trkpt lat="45.08891" lon="0.66486">
        <ele>142.4</ele>
        <time>2025-05-25T08:04:54Z</time>
      </trkpt>
      <trkpt lat="45.08895" lon="0.66483">
        <ele>142.4</ele>
        <time>2025-05-25T08:04:55Z</time>
      </trkpt>
      <trkpt lat="45.08899" lon="0.6648">
        <ele>142.4</ele>
        <time>2025-05-25T08:04:56Z</time>
      </trkpt>
      <trkpt lat="45.08903" lon="0.66477">
        <ele>142.6</ele>
        <time>2025-05-25T08:04:57Z</time>
      </trkpt>
      <trkpt lat="45.08908" lon="0.66473">
        <ele>142.6</ele>
        <time>2025-05-25T08:04:58Z</time>
      </trkpt>
      <trkpt lat="45.08912" lon="0.6647">
        <ele>142.8</ele>
        <time>2025-05-25T08:04:59Z</time>
      </trkpt>
      <trkpt lat="45.08916" lon="0.66468">
        <ele>142.8</ele>
        <time>2025-05-25T08:05:00Z</time>
      </trkpt>
      <trkpt lat="45.0892" lon="0.66467">
        <ele>143</ele>
        <time>2025-05-25T08:05:01Z</time>
      </trkpt>
      <trkpt lat="45.08924" lon="0.66466">
        <ele>143.4</ele>
        <time>2025-05-25T08:05:02Z</time>
      </trkpt>
      <trkpt lat="45.08927" lon="0.66465">
        <ele>143.8</ele>
        <time>2025-05-25T08:05:03Z</time>
      </trkpt>
      <trkpt lat="45.0893" lon="0.66465">
        <ele>144.2</ele>
        <time>2025-05-25T08:05:04Z</time>
      </trkpt>
      <trkpt lat="45.08934" lon="0.66464">
        <ele>144.6</ele>
        <time>2025-05-25T08:05:05Z</time>
      </trkpt>
      <trkpt lat="45.08936" lon="0.66463">
        <ele>145</ele>
        <time>2025-05-25T08:05:06Z</time>
      </trkpt>
      <trkpt lat="45.08939" lon="0.66461">
        <ele>145.2</ele>
        <time>2025-05-25T08:05:07Z</time>
      </trkpt>
      <trkpt lat="45.08942" lon="0.6646">
        <ele>145.4</ele>
        <time>2025-05-25T08:05:08Z</time>
      </trkpt>
      <trkpt lat="45.08944" lon="0.66459">
        <ele>145.6</ele>
        <time>2025-05-25T08:05:09Z</time>
      </trkpt>
      <trkpt lat="45.08945" lon="0.66457">
        <ele>145.8</ele>
        <time>2025-05-25T08:05:10Z</time>
      </trkpt>
      <trkpt lat="45.08947" lon="0.66455">
        <ele>146</ele>
        <time>2025-05-25T08:05:11Z</time>
      </trkpt>
      <trkpt lat="45.08949" lon="0.66453">
        <ele>146.2</ele>
        <time>2025-05-25T08:05:12Z</time>
      </trkpt>
      <trkpt lat="45.0895" lon="0.66451">
        <ele>146.4</ele>
        <time>2025-05-25T08:05:13Z</time>
      </trkpt>
      <trkpt lat="45.08952" lon="0.66449">
        <ele>146.8</ele>
        <time>2025-05-25T08:05:14Z</time>
      </trkpt>
      <trkpt lat="45.08954" lon="0.66446">
        <ele>147</ele>
        <time>2025-05-25T08:05:15Z</time>
      </trkpt>
      <trkpt lat="45.08955" lon="0.66444">
        <ele>147.2</ele>
        <time>2025-05-25T08:05:16Z</time>
      </trkpt>
      <trkpt lat="45.08956" lon="0.66441">
        <ele>147.4</ele>
        <time>2025-05-25T08:05:17Z</time>
      </trkpt>
      <trkpt lat="45.08956" lon="0.66438">
        <ele>147.4</ele>
        <time>2025-05-25T08:05:18Z</time>
      </trkpt>
      <trkpt lat="45.08957" lon="0.66435">
        <ele>147.6</ele>
        <time>2025-05-25T08:05:19Z</time>
      </trkpt>
      <trkpt lat="45.08958" lon="0.66431">
        <ele>148</ele>
        <time>2025-05-25T08:05:20Z</time>
      </trkpt>
      <trkpt lat="45.08959" lon="0.66428">
        <ele>148.2</ele>
        <time>2025-05-25T08:05:21Z</time>
      </trkpt>
      <trkpt lat="45.08959" lon="0.66425">
        <ele>148.4</ele>
        <time>2025-05-25T08:05:22Z</time>
      </trkpt>
      <trkpt lat="45.0896" lon="0.66422">
        <ele>148.6</ele>
        <time>2025-05-25T08:05:23Z</time>
      </trkpt>
      <trkpt lat="45.08961" lon="0.66419">
        <ele>148.8</ele>
        <time>2025-05-25T08:05:24Z</time>
      </trkpt>
      <trkpt lat="45.08962" lon="0.66416">
        <ele>149.2</ele>
        <time>2025-05-25T08:05:25Z</time>
      </trkpt>
      <trkpt lat="45.08964" lon="0.66413">
        <ele>149.4</ele>
        <time>2025-05-25T08:05:26Z</time>
      </trkpt>
      <trkpt lat="45.08965" lon="0.66411">
        <ele>149.6</ele>
        <time>2025-05-25T08:05:27Z</time>
      </trkpt>
      <trkpt lat="45.08968" lon="0.66408">
        <ele>149.6</ele>
        <time>2025-05-25T08:05:28Z</time>
      </trkpt>
      <trkpt lat="45.0897" lon="0.66406">
        <ele>149.8</ele>
        <time>2025-05-25T08:05:29Z</time>
      </trkpt>
      <trkpt lat="45.08972" lon="0.66404">
        <ele>149.8</ele>
        <time>2025-05-25T08:05:30Z</time>
      </trkpt>
      <trkpt lat="45.08975" lon="0.66402">
        <ele>150</ele>
        <time>2025-05-25T08:05:31Z</time>
      </trkpt>
      <trkpt lat="45.08977" lon="0.664">
        <ele>150</ele>
        <time>2025-05-25T08:05:32Z</time>
      </trkpt>
      <trkpt lat="45.0898" lon="0.66398">
        <ele>150</ele>
        <time>2025-05-25T08:05:33Z</time>
      </trkpt>
      <trkpt lat="45.08983" lon="0.66396">
        <ele>150</ele>
        <time>2025-05-25T08:05:34Z</time>
      </trkpt>
      <trkpt lat="45.08985" lon="0.66395">
        <ele>150.2</ele>
        <time>2025-05-25T08:05:35Z</time>
      </trkpt>
      <trkpt lat="45.08988" lon="0.66393">
        <ele>150</ele>
        <time>2025-05-25T08:05:36Z</time>
      </trkpt>
      <trkpt lat="45.0899" lon="0.66392">
        <ele>150.2</ele>
        <time>2025-05-25T08:05:37Z</time>
      </trkpt>
      <trkpt lat="45.08992" lon="0.6639">
        <ele>150.2</ele>
        <time>2025-05-25T08:05:38Z</time>
      </trkpt>
      <trkpt lat="45.08993" lon="0.66387">
        <ele>150.2</ele>
        <time>2025-05-25T08:05:39Z</time>
      </trkpt>
      <trkpt lat="45.08994" lon="0.66384">
        <ele>150.2</ele>
        <time>2025-05-25T08:05:40Z</time>
      </trkpt>
      <trkpt lat="45.08995" lon="0.66379">
        <ele>150.2</ele>
        <time>2025-05-25T08:05:41Z</time>
      </trkpt>
      <trkpt lat="45.08995" lon="0.66374">
        <ele>150.2</ele>
        <time>2025-05-25T08:05:42Z</time>
      </trkpt>
      <trkpt lat="45.08994" lon="0.66369">
        <ele>150.2</ele>
        <time>2025-05-25T08:05:43Z</time>
      </trkpt>
      <trkpt lat="45.08993" lon="0.66364">
        <ele>150.2</ele>
        <time>2025-05-25T08:05:44Z</time>
      </trkpt>
      <trkpt lat="45.08991" lon="0.6636">
        <ele>150.2</ele>
        <time>2025-05-25T08:05:45Z</time>
      </trkpt>
      <trkpt lat="45.0899" lon="0.66355">
        <ele>150.2</ele>
        <time>2025-05-25T08:05:46Z</time>
      </trkpt>
      <trkpt lat="45.08988" lon="0.6635">
        <ele>150.2</ele>
        <time>2025-05-25T08:05:47Z</time>
      </trkpt>
      <trkpt lat="45.08986" lon="0.66345">
        <ele>150.2</ele>
        <time>2025-05-25T08:05:48Z</time>
      </trkpt>
      <trkpt lat="45.08985" lon="0.66341">
        <ele>150.2</ele>
        <time>2025-05-25T08:05:49Z</time>
      </trkpt>
      <trkpt lat="45.08983" lon="0.66336">
        <ele>150.2</ele>
        <time>2025-05-25T08:05:50Z</time>
      </trkpt>
      <trkpt lat="45.08981" lon="0.66331">
        <ele>150.2</ele>
        <time>2025-05-25T08:05:51Z</time>
      </trkpt>
      <trkpt lat="45.08978" lon="0.66326">
        <ele>150.2</ele>
        <time>2025-05-25T08:05:52Z</time>
      </trkpt>
      <trkpt lat="45.08976" lon="0.66321">
        <ele>150</ele>
        <time>2025-05-25T08:05:53Z</time>
      </trkpt>
      <trkpt lat="45.08974" lon="0.66316">
        <ele>150</ele>
        <time>2025-05-25T08:05:54Z</time>
      </trkpt>
      <trkpt lat="45.08971" lon="0.66312">
        <ele>150</ele>
        <time>2025-05-25T08:05:55Z</time>
      </trkpt>
      <trkpt lat="45.0897" lon="0.66309">
        <ele>150.2</ele>
        <time>2025-05-25T08:05:56Z</time>
      </trkpt>
      <trkpt lat="45.08968" lon="0.66307">
        <ele>150.4</ele>
        <time>2025-05-25T08:05:57Z</time>
      </trkpt>
      <trkpt lat="45.08967" lon="0.66305">
        <ele>150.6</ele>
        <time>2025-05-25T08:05:58Z</time>
      </trkpt>
      <trkpt lat="45.08966" lon="0.66303">
        <ele>151</ele>
        <time>2025-05-25T08:05:59Z</time>
      </trkpt>
      <trkpt lat="45.08965" lon="0.66301">
        <ele>151.2</ele>
        <time>2025-05-25T08:06:00Z</time>
      </trkpt>
      <trkpt lat="45.08964" lon="0.66298">
        <ele>151.4</ele>
        <time>2025-05-25T08:06:01Z</time>
      </trkpt>
      <trkpt lat="45.08964" lon="0.66296">
        <ele>151.6</ele>
        <time>2025-05-25T08:06:02Z</time>
      </trkpt>
      <trkpt lat="45.08965" lon="0.66295">
        <ele>151.8</ele>
        <time>2025-05-25T08:06:03Z</time>
      </trkpt>
      <trkpt lat="45.08966" lon="0.66293">
        <ele>152</ele>
        <time>2025-05-25T08:06:04Z</time>
      </trkpt>
      <trkpt lat="45.08967" lon="0.66291">
        <ele>152</ele>
        <time>2025-05-25T08:06:05Z</time>
      </trkpt>
      <trkpt lat="45.08968" lon="0.6629">
        <ele>152.2</ele>
        <time>2025-05-25T08:06:06Z</time>
      </trkpt>
      <trkpt lat="45.08969" lon="0.66289">
        <ele>152.4</ele>
        <time>2025-05-25T08:06:07Z</time>
      </trkpt>
      <trkpt lat="45.0897" lon="0.66288">
        <ele>152.6</ele>
        <time>2025-05-25T08:06:08Z</time>
      </trkpt>
      <trkpt lat="45.08972" lon="0.66288">
        <ele>152.8</ele>
        <time>2025-05-25T08:06:09Z</time>
      </trkpt>
      <trkpt lat="45.08973" lon="0.66288">
        <ele>153.2</ele>
        <time>2025-05-25T08:06:10Z</time>
      </trkpt>
      <trkpt lat="45.08975" lon="0.66287">
        <ele>153.4</ele>
        <time>2025-05-25T08:06:11Z</time>
      </trkpt>
      <trkpt lat="45.08977" lon="0.66286">
        <ele>153.6</ele>
        <time>2025-05-25T08:06:12Z</time>
      </trkpt>
      <trkpt lat="45.08978" lon="0.66286">
        <ele>154</ele>
        <time>2025-05-25T08:06:13Z</time>
      </trkpt>
      <trkpt lat="45.08979" lon="0.66285">
        <ele>154.2</ele>
        <time>2025-05-25T08:06:14Z</time>
      </trkpt>
      <trkpt lat="45.0898" lon="0.66284">
        <ele>154.6</ele>
        <time>2025-05-25T08:06:15Z</time>
      </trkpt>
      <trkpt lat="45.08982" lon="0.66283">
        <ele>155</ele>
        <time>2025-05-25T08:06:16Z</time>
      </trkpt>
      <trkpt lat="45.08983" lon="0.66283">
        <ele>155.2</ele>
        <time>2025-05-25T08:06:17Z</time>
      </trkpt>
      <trkpt lat="45.08984" lon="0.66282">
        <ele>155.6</ele>
        <time>2025-05-25T08:06:18Z</time>
      </trkpt>
      <trkpt lat="45.08985" lon="0.6628">
        <ele>155.8</ele>
        <time>2025-05-25T08:06:19Z</time>
      </trkpt>
      <trkpt lat="45.08986" lon="0.66279">
        <ele>156</ele>
        <time>2025-05-25T08:06:20Z</time>
      </trkpt>
      <trkpt lat="45.08987" lon="0.66278">
        <ele>156.4</ele>
        <time>2025-05-25T08:06:21Z</time>
      </trkpt>
      <trkpt lat="45.08988" lon="0.66277">
        <ele>156.6</ele>
        <time>2025-05-25T08:06:22Z</time>
      </trkpt>
      <trkpt lat="45.08989" lon="0.66277">
        <ele>156.8</ele>
        <time>2025-05-25T08:06:23Z</time>
      </trkpt>
      <trkpt lat="45.0899" lon="0.66277">
        <ele>157</ele>
        <time>2025-05-25T08:06:24Z</time>
      </trkpt>
      <trkpt lat="45.08991" lon="0.66276">
        <ele>157.4</ele>
        <time>2025-05-25T08:06:25Z</time>
      </trkpt>
      <trkpt lat="45.08992" lon="0.66276">
        <ele>157.6</ele>
        <time>2025-05-25T08:06:26Z</time>
      </trkpt>
      <trkpt lat="45.08993" lon="0.66276">
        <ele>158</ele>
        <time>2025-05-25T08:06:27Z</time>
      </trkpt>
      <trkpt lat="45.08994" lon="0.66276">
        <ele>158.2</ele>
        <time>2025-05-25T08:06:28Z</time>
      </trkpt>
      <trkpt lat="45.08995" lon="0.66275">
        <ele>158.4</ele>
        <time>2025-05-25T08:06:29Z</time>
      </trkpt>
      <trkpt lat="45.08996" lon="0.66274">
        <ele>158.6</ele>
        <time>2025-05-25T08:06:30Z</time>
      </trkpt>
      <trkpt lat="45.08997" lon="0.66273">
        <ele>158.8</ele>
        <time>2025-05-25T08:06:31Z</time>
      </trkpt>
      <trkpt lat="45.08998" lon="0.66272">
        <ele>159.2</ele>
        <time>2025-05-25T08:06:32Z</time>
      </trkpt>
      <trkpt lat="45.09" lon="0.66271">
        <ele>159.4</ele>
        <time>2025-05-25T08:06:33Z</time>
      </trkpt>
      <trkpt lat="45.09001" lon="0.66271">
        <ele>159.6</ele>
        <time>2025-05-25T08:06:34Z</time>
      </trkpt>
      <trkpt lat="45.09002" lon="0.6627">
        <ele>160</ele>
        <time>2025-05-25T08:06:35Z</time>
      </trkpt>
      <trkpt lat="45.09003" lon="0.66269">
        <ele>160.2</ele>
        <time>2025-05-25T08:06:36Z</time>
      </trkpt>
      <trkpt lat="45.09004" lon="0.66269">
        <ele>160.4</ele>
        <time>2025-05-25T08:06:37Z</time>
      </trkpt>
      <trkpt lat="45.09005" lon="0.66268">
        <ele>160.8</ele>
        <time>2025-05-25T08:06:38Z</time>
      </trkpt>
      <trkpt lat="45.09007" lon="0.66268">
        <ele>161</ele>
        <time>2025-05-25T08:06:39Z</time>
      </trkpt>
      <trkpt lat="45.09008" lon="0.66267">
        <ele>161.2</ele>
        <time>2025-05-25T08:06:40Z</time>
      </trkpt>
      <trkpt lat="45.09009" lon="0.66266">
        <ele>161.6</ele>
        <time>2025-05-25T08:06:41Z</time>
      </trkpt>
      <trkpt lat="45.0901" lon="0.66265">
        <ele>161.8</ele>
        <time>2025-05-25T08:06:42Z</time>
      </trkpt>
      <trkpt lat="45.09011" lon="0.66264">
        <ele>162</ele>
        <time>2025-05-25T08:06:43Z</time>
      </trkpt>
      <trkpt lat="45.09012" lon="0.66263">
        <ele>162.4</ele>
        <time>2025-05-25T08:06:44Z</time>
      </trkpt>
      <trkpt lat="45.09013" lon="0.66262">
        <ele>162.6</ele>
        <time>2025-05-25T08:06:45Z</time>
      </trkpt>
      <trkpt lat="45.09014" lon="0.66262">
        <ele>162.8</ele>
        <time>2025-05-25T08:06:46Z</time>
      </trkpt>
      <trkpt lat="45.09015" lon="0.66261">
        <ele>163</ele>
        <time>2025-05-25T08:06:47Z</time>
      </trkpt>
      <trkpt lat="45.09016" lon="0.6626">
        <ele>163.2</ele>
        <time>2025-05-25T08:06:48Z</time>
      </trkpt>
      <trkpt lat="45.09016" lon="0.6626">
        <ele>163.6</ele>
        <time>2025-05-25T08:06:49Z</time>
      </trkpt>
      <trkpt lat="45.09017" lon="0.66259">
        <ele>163.8</ele>
        <time>2025-05-25T08:06:50Z</time>
      </trkpt>
      <trkpt lat="45.09018" lon="0.66258">
        <ele>164</ele>
        <time>2025-05-25T08:06:51Z</time>
      </trkpt>
      <trkpt lat="45.09019" lon="0.66258">
        <ele>164.2</ele>
        <time>2025-05-25T08:06:52Z</time>
      </trkpt>
      <trkpt lat="45.09021" lon="0.66257">
        <ele>164.4</ele>
        <time>2025-05-25T08:06:53Z</time>
      </trkpt>
      <trkpt lat="45.09021" lon="0.66256">
        <ele>164.6</ele>
        <time>2025-05-25T08:06:54Z</time>
      </trkpt>
      <trkpt lat="45.09022" lon="0.66254">
        <ele>164.8</ele>
        <time>2025-05-25T08:06:55Z</time>
      </trkpt>
      <trkpt lat="45.09023" lon="0.66253">
        <ele>165</ele>
        <time>2025-05-25T08:06:56Z</time>
      </trkpt>
      <trkpt lat="45.09024" lon="0.66252">
        <ele>165.2</ele>
        <time>2025-05-25T08:06:57Z</time>
      </trkpt>
      <trkpt lat="45.09025" lon="0.66251">
        <ele>165.4</ele>
        <time>2025-05-25T08:06:58Z</time>
      </trkpt>
      <trkpt lat="45.09026" lon="0.6625">
        <ele>165.6</ele>
        <time>2025-05-25T08:06:59Z</time>
      </trkpt>
      <trkpt lat="45.09027" lon="0.6625">
        <ele>165.8</ele>
        <time>2025-05-25T08:07:00Z</time>
      </trkpt>
      <trkpt lat="45.09028" lon="0.66249">
        <ele>166</ele>
        <time>2025-05-25T08:07:01Z</time>
      </trkpt>
      <trkpt lat="45.09028" lon="0.66248">
        <ele>166.2</ele>
        <time>2025-05-25T08:07:02Z</time>
      </trkpt>
      <trkpt lat="45.09029" lon="0.66247">
        <ele>166.4</ele>
        <time>2025-05-25T08:07:03Z</time>
      </trkpt>
      <trkpt lat="45.0903" lon="0.66246">
        <ele>166.6</ele>
        <time>2025-05-25T08:07:04Z</time>
      </trkpt>
      <trkpt lat="45.09031" lon="0.66245">
        <ele>166.6</ele>
        <time>2025-05-25T08:07:05Z</time>
      </trkpt>
      <trkpt lat="45.09032" lon="0.66244">
        <ele>166.8</ele>
        <time>2025-05-25T08:07:06Z</time>
      </trkpt>
      <trkpt lat="45.09033" lon="0.66243">
        <ele>167</ele>
        <time>2025-05-25T08:07:07Z</time>
      </trkpt>
      <trkpt lat="45.09034" lon="0.66242">
        <ele>167.2</ele>
        <time>2025-05-25T08:07:08Z</time>
      </trkpt>
      <trkpt lat="45.09035" lon="0.6624">
        <ele>167.2</ele>
        <time>2025-05-25T08:07:09Z</time>
      </trkpt>
      <trkpt lat="45.09036" lon="0.66239">
        <ele>167.4</ele>
        <time>2025-05-25T08:07:10Z</time>
      </trkpt>
      <trkpt lat="45.09037" lon="0.66238">
        <ele>167.6</ele>
        <time>2025-05-25T08:07:11Z</time>
      </trkpt>
      <trkpt lat="45.09038" lon="0.66237">
        <ele>167.8</ele>
        <time>2025-05-25T08:07:12Z</time>
      </trkpt>
      <trkpt lat="45.09039" lon="0.66236">
        <ele>168</ele>
        <time>2025-05-25T08:07:13Z</time>
      </trkpt>
      <trkpt lat="45.0904" lon="0.66235">
        <ele>168.2</ele>
        <time>2025-05-25T08:07:14Z</time>
      </trkpt>
      <trkpt lat="45.09041" lon="0.66234">
        <ele>168.4</ele>
        <time>2025-05-25T08:07:15Z</time>
      </trkpt>
      <trkpt lat="45.09042" lon="0.66233">
        <ele>168.4</ele>
        <time>2025-05-25T08:07:16Z</time>
      </trkpt>
      <trkpt lat="45.09043" lon="0.66233">
        <ele>168.6</ele>
        <time>2025-05-25T08:07:17Z</time>
      </trkpt>
      <trkpt lat="45.09044" lon="0.66232">
        <ele>168.8</ele>
        <time>2025-05-25T08:07:18Z</time>
      </trkpt>
      <trkpt lat="45.09044" lon="0.66231">
        <ele>169</ele>
        <time>2025-05-25T08:07:19Z</time>
      </trkpt>
      <trkpt lat="45.09045" lon="0.6623">
        <ele>169.2</ele>
        <time>2025-05-25T08:07:20Z</time>
      </trkpt>
      <trkpt lat="45.09046" lon="0.66229">
        <ele>169.4</ele>
        <time>2025-05-25T08:07:21Z</time>
      </trkpt>
      <trkpt lat="45.09047" lon="0.66228">
        <ele>169.4</ele>
        <time>2025-05-25T08:07:22Z</time>
      </trkpt>
      <trkpt lat="45.09048" lon="0.66226">
        <ele>169.6</ele>
        <time>2025-05-25T08:07:23Z</time>
      </trkpt>
      <trkpt lat="45.09049" lon="0.66225">
        <ele>169.6</ele>
        <time>2025-05-25T08:07:24Z</time>
      </trkpt>
      <trkpt lat="45.09051" lon="0.66224">
        <ele>169.8</ele>
        <time>2025-05-25T08:07:25Z</time>
      </trkpt>
      <trkpt lat="45.09052" lon="0.66223">
        <ele>169.8</ele>
        <time>2025-05-25T08:07:26Z</time>
      </trkpt>
      <trkpt lat="45.09053" lon="0.66221">
        <ele>170</ele>
        <time>2025-05-25T08:07:27Z</time>
      </trkpt>
      <trkpt lat="45.09054" lon="0.6622">
        <ele>170.2</ele>
        <time>2025-05-25T08:07:28Z</time>
      </trkpt>
      <trkpt lat="45.09055" lon="0.66219">
        <ele>170.4</ele>
        <time>2025-05-25T08:07:29Z</time>
      </trkpt>
      <trkpt lat="45.09056" lon="0.66218">
        <ele>170.6</ele>
        <time>2025-05-25T08:07:30Z</time>
      </trkpt>
      <trkpt lat="45.09057" lon="0.66217">
        <ele>170.6</ele>
        <time>2025-05-25T08:07:31Z</time>
      </trkpt>
      <trkpt lat="45.09058" lon="0.66216">
        <ele>170.8</ele>
        <time>2025-05-25T08:07:32Z</time>
      </trkpt>
      <trkpt lat="45.09059" lon="0.66215">
        <ele>171</ele>
        <time>2025-05-25T08:07:33Z</time>
      </trkpt>
      <trkpt lat="45.0906" lon="0.66213">
        <ele>171.2</ele>
        <time>2025-05-25T08:07:34Z</time>
      </trkpt>
      <trkpt lat="45.09062" lon="0.66212">
        <ele>171.4</ele>
        <time>2025-05-25T08:07:35Z</time>
      </trkpt>
      <trkpt lat="45.09063" lon="0.66211">
        <ele>171.4</ele>
        <time>2025-05-25T08:07:36Z</time>
      </trkpt>
      <trkpt lat="45.09064" lon="0.6621">
        <ele>171.6</ele>
        <time>2025-05-25T08:07:37Z</time>
      </trkpt>
      <trkpt lat="45.09065" lon="0.66209">
        <ele>171.8</ele>
        <time>2025-05-25T08:07:38Z</time>
      </trkpt>
      <trkpt lat="45.09066" lon="0.66208">
        <ele>171.8</ele>
        <time>2025-05-25T08:07:39Z</time>
      </trkpt>
      <trkpt lat="45.09067" lon="0.66207">
        <ele>172</ele>
        <time>2025-05-25T08:07:40Z</time>
      </trkpt>
      <trkpt lat="45.09068" lon="0.66205">
        <ele>172.2</ele>
        <time>2025-05-25T08:07:41Z</time>
      </trkpt>
      <trkpt lat="45.09069" lon="0.66204">
        <ele>172.4</ele>
        <time>2025-05-25T08:07:42Z</time>
      </trkpt>
      <trkpt lat="45.0907" lon="0.66203">
        <ele>172.4</ele>
        <time>2025-05-25T08:07:43Z</time>
      </trkpt>
      <trkpt lat="45.09072" lon="0.66202">
        <ele>172.6</ele>
        <time>2025-05-25T08:07:44Z</time>
      </trkpt>
      <trkpt lat="45.09073" lon="0.66201">
        <ele>172.8</ele>
        <time>2025-05-25T08:07:45Z</time>
      </trkpt>
      <trkpt lat="45.09074" lon="0.662">
        <ele>173</ele>
        <time>2025-05-25T08:07:46Z</time>
      </trkpt>
      <trkpt lat="45.09074" lon="0.66198">
        <ele>173.2</ele>
        <time>2025-05-25T08:07:47Z</time>
      </trkpt>
      <trkpt lat="45.09074" lon="0.66197">
        <ele>173.4</ele>
        <time>2025-05-25T08:07:48Z</time>
      </trkpt>
      <trkpt lat="45.09076" lon="0.66196">
        <ele>173.6</ele>
        <time>2025-05-25T08:07:49Z</time>
      </trkpt>
      <trkpt lat="45.09076" lon="0.66195">
        <ele>173.8</ele>
        <time>2025-05-25T08:07:50Z</time>
      </trkpt>
      <trkpt lat="45.09077" lon="0.66194">
        <ele>174</ele>
        <time>2025-05-25T08:07:51Z</time>
      </trkpt>
      <trkpt lat="45.09079" lon="0.66192">
        <ele>174</ele>
        <time>2025-05-25T08:07:52Z</time>
      </trkpt>
      <trkpt lat="45.0908" lon="0.66192">
        <ele>174.2</ele>
        <time>2025-05-25T08:07:53Z</time>
      </trkpt>
      <trkpt lat="45.09081" lon="0.66191">
        <ele>174.4</ele>
        <time>2025-05-25T08:07:54Z</time>
      </trkpt>
      <trkpt lat="45.09083" lon="0.6619">
        <ele>174.6</ele>
        <time>2025-05-25T08:07:55Z</time>
      </trkpt>
      <trkpt lat="45.09084" lon="0.66188">
        <ele>174.8</ele>
        <time>2025-05-25T08:07:56Z</time>
      </trkpt>
      <trkpt lat="45.09085" lon="0.66187">
        <ele>175</ele>
        <time>2025-05-25T08:07:57Z</time>
      </trkpt>
      <trkpt lat="45.09087" lon="0.66186">
        <ele>175.2</ele>
        <time>2025-05-25T08:07:58Z</time>
      </trkpt>
      <trkpt lat="45.09088" lon="0.66186">
        <ele>175.4</ele>
        <time>2025-05-25T08:07:59Z</time>
      </trkpt>
      <trkpt lat="45.09089" lon="0.66185">
        <ele>175.4</ele>
        <time>2025-05-25T08:08:00Z</time>
      </trkpt>
      <trkpt lat="45.09091" lon="0.66184">
        <ele>175.6</ele>
        <time>2025-05-25T08:08:01Z</time>
      </trkpt>
      <trkpt lat="45.09092" lon="0.66183">
        <ele>175.8</ele>
        <time>2025-05-25T08:08:02Z</time>
      </trkpt>
      <trkpt lat="45.09093" lon="0.66182">
        <ele>176</ele>
        <time>2025-05-25T08:08:03Z</time>
      </trkpt>
      <trkpt lat="45.09094" lon="0.66181">
        <ele>176</ele>
        <time>2025-05-25T08:08:04Z</time>
      </trkpt>
      <trkpt lat="45.09096" lon="0.66179">
        <ele>176.2</ele>
        <time>2025-05-25T08:08:05Z</time>
      </trkpt>
      <trkpt lat="45.09097" lon="0.66178">
        <ele>176.4</ele>
        <time>2025-05-25T08:08:06Z</time>
      </trkpt>
      <trkpt lat="45.09098" lon="0.66176">
        <ele>176.6</ele>
        <time>2025-05-25T08:08:07Z</time>
      </trkpt>
      <trkpt lat="45.09099" lon="0.66176">
        <ele>176.6</ele>
        <time>2025-05-25T08:08:08Z</time>
      </trkpt>
      <trkpt lat="45.091" lon="0.66175">
        <ele>176.8</ele>
        <time>2025-05-25T08:08:09Z</time>
      </trkpt>
      <trkpt lat="45.09102" lon="0.66175">
        <ele>177</ele>
        <time>2025-05-25T08:08:10Z</time>
      </trkpt>
      <trkpt lat="45.09103" lon="0.66174">
        <ele>177.2</ele>
        <time>2025-05-25T08:08:11Z</time>
      </trkpt>
      <trkpt lat="45.09105" lon="0.66172">
        <ele>177.4</ele>
        <time>2025-05-25T08:08:12Z</time>
      </trkpt>
      <trkpt lat="45.09106" lon="0.66171">
        <ele>177.6</ele>
        <time>2025-05-25T08:08:13Z</time>
      </trkpt>
      <trkpt lat="45.09107" lon="0.6617">
        <ele>177.8</ele>
        <time>2025-05-25T08:08:14Z</time>
      </trkpt>
      <trkpt lat="45.09108" lon="0.66169">
        <ele>178</ele>
        <time>2025-05-25T08:08:15Z</time>
      </trkpt>
      <trkpt lat="45.09109" lon="0.66167">
        <ele>178.2</ele>
        <time>2025-05-25T08:08:16Z</time>
      </trkpt>
      <trkpt lat="45.0911" lon="0.66166">
        <ele>178.4</ele>
        <time>2025-05-25T08:08:17Z</time>
      </trkpt>
      <trkpt lat="45.09112" lon="0.66165">
        <ele>178.6</ele>
        <time>2025-05-25T08:08:18Z</time>
      </trkpt>
      <trkpt lat="45.09113" lon="0.66164">
        <ele>178.8</ele>
        <time>2025-05-25T08:08:19Z</time>
      </trkpt>
      <trkpt lat="45.09114" lon="0.66163">
        <ele>179</ele>
        <time>2025-05-25T08:08:20Z</time>
      </trkpt>
      <trkpt lat="45.09115" lon="0.66162">
        <ele>179.2</ele>
        <time>2025-05-25T08:08:21Z</time>
      </trkpt>
      <trkpt lat="45.09117" lon="0.66162">
        <ele>179.2</ele>
        <time>2025-05-25T08:08:22Z</time>
      </trkpt>
      <trkpt lat="45.09118" lon="0.66161">
        <ele>179.4</ele>
        <time>2025-05-25T08:08:23Z</time>
      </trkpt>
      <trkpt lat="45.0912" lon="0.6616">
        <ele>179.6</ele>
        <time>2025-05-25T08:08:24Z</time>
      </trkpt>
      <trkpt lat="45.09121" lon="0.66159">
        <ele>179.8</ele>
        <time>2025-05-25T08:08:25Z</time>
      </trkpt>
      <trkpt lat="45.09123" lon="0.66158">
        <ele>180</ele>
        <time>2025-05-25T08:08:26Z</time>
      </trkpt>
      <trkpt lat="45.09124" lon="0.66157">
        <ele>180</ele>
        <time>2025-05-25T08:08:27Z</time>
      </trkpt>
      <trkpt lat="45.09125" lon="0.66156">
        <ele>180.2</ele>
        <time>2025-05-25T08:08:28Z</time>
      </trkpt>
      <trkpt lat="45.09127" lon="0.66155">
        <ele>180.4</ele>
        <time>2025-05-25T08:08:29Z</time>
      </trkpt>
      <trkpt lat="45.09128" lon="0.66154">
        <ele>180.6</ele>
        <time>2025-05-25T08:08:30Z</time>
      </trkpt>
      <trkpt lat="45.0913" lon="0.66153">
        <ele>180.6</ele>
        <time>2025-05-25T08:08:31Z</time>
      </trkpt>
      <trkpt lat="45.09131" lon="0.66153">
        <ele>180.8</ele>
        <time>2025-05-25T08:08:32Z</time>
      </trkpt>
      <trkpt lat="45.09133" lon="0.66152">
        <ele>181</ele>
        <time>2025-05-25T08:08:33Z</time>
      </trkpt>
      <trkpt lat="45.09134" lon="0.66151">
        <ele>181</ele>
        <time>2025-05-25T08:08:34Z</time>
      </trkpt>
      <trkpt lat="45.09135" lon="0.6615">
        <ele>181.2</ele>
        <time>2025-05-25T08:08:35Z</time>
      </trkpt>
      <trkpt lat="45.09136" lon="0.6615">
        <ele>181.4</ele>
        <time>2025-05-25T08:08:36Z</time>
      </trkpt>
      <trkpt lat="45.09138" lon="0.66149">
        <ele>181.6</ele>
        <time>2025-05-25T08:08:37Z</time>
      </trkpt>
      <trkpt lat="45.09139" lon="0.66148">
        <ele>181.8</ele>
        <time>2025-05-25T08:08:38Z</time>
      </trkpt>
      <trkpt lat="45.0914" lon="0.66147">
        <ele>182</ele>
        <time>2025-05-25T08:08:39Z</time>
      </trkpt>
      <trkpt lat="45.09141" lon="0.66146">
        <ele>182.2</ele>
        <time>2025-05-25T08:08:40Z</time>
      </trkpt>
      <trkpt lat="45.09142" lon="0.66145">
        <ele>182.4</ele>
        <time>2025-05-25T08:08:41Z</time>
      </trkpt>
      <trkpt lat="45.09144" lon="0.66144">
        <ele>182.4</ele>
        <time>2025-05-25T08:08:42Z</time>
      </trkpt>
      <trkpt lat="45.09145" lon="0.66143">
        <ele>182.6</ele>
        <time>2025-05-25T08:08:43Z</time>
      </trkpt>
      <trkpt lat="45.09146" lon="0.66143">
        <ele>182.8</ele>
        <time>2025-05-25T08:08:44Z</time>
      </trkpt>
      <trkpt lat="45.09147" lon="0.66142">
        <ele>183</ele>
        <time>2025-05-25T08:08:45Z</time>
      </trkpt>
      <trkpt lat="45.09149" lon="0.66142">
        <ele>183.2</ele>
        <time>2025-05-25T08:08:46Z</time>
      </trkpt>
      <trkpt lat="45.0915" lon="0.66142">
        <ele>183.4</ele>
        <time>2025-05-25T08:08:47Z</time>
      </trkpt>
      <trkpt lat="45.09151" lon="0.66141">
        <ele>183.6</ele>
        <time>2025-05-25T08:08:48Z</time>
      </trkpt>
      <trkpt lat="45.09153" lon="0.66141">
        <ele>183.8</ele>
        <time>2025-05-25T08:08:49Z</time>
      </trkpt>
      <trkpt lat="45.09154" lon="0.66141">
        <ele>184</ele>
        <time>2025-05-25T08:08:50Z</time>
      </trkpt>
      <trkpt lat="45.09156" lon="0.6614">
        <ele>184.2</ele>
        <time>2025-05-25T08:08:51Z</time>
      </trkpt>
      <trkpt lat="45.09157" lon="0.6614">
        <ele>184.4</ele>
        <time>2025-05-25T08:08:52Z</time>
      </trkpt>
      <trkpt lat="45.09159" lon="0.6614">
        <ele>184.6</ele>
        <time>2025-05-25T08:08:53Z</time>
      </trkpt>
      <trkpt lat="45.0916" lon="0.6614">
        <ele>184.6</ele>
        <time>2025-05-25T08:08:54Z</time>
      </trkpt>
      <trkpt lat="45.09162" lon="0.66139">
        <ele>184.8</ele>
        <time>2025-05-25T08:08:55Z</time>
      </trkpt>
      <trkpt lat="45.09163" lon="0.66139">
        <ele>185</ele>
        <time>2025-05-25T08:08:56Z</time>
      </trkpt>
      <trkpt lat="45.09164" lon="0.66139">
        <ele>185.2</ele>
        <time>2025-05-25T08:08:57Z</time>
      </trkpt>
      <trkpt lat="45.09166" lon="0.66138">
        <ele>185.4</ele>
        <time>2025-05-25T08:08:58Z</time>
      </trkpt>
      <trkpt lat="45.09167" lon="0.66138">
        <ele>185.6</ele>
        <time>2025-05-25T08:08:59Z</time>
      </trkpt>
      <trkpt lat="45.09169" lon="0.66138">
        <ele>185.8</ele>
        <time>2025-05-25T08:09:00Z</time>
      </trkpt>
      <trkpt lat="45.09171" lon="0.66138">
        <ele>186</ele>
        <time>2025-05-25T08:09:01Z</time>
      </trkpt>
      <trkpt lat="45.09172" lon="0.66138">
        <ele>186</ele>
        <time>2025-05-25T08:09:02Z</time>
      </trkpt>
      <trkpt lat="45.09173" lon="0.66138">
        <ele>186.2</ele>
        <time>2025-05-25T08:09:03Z</time>
      </trkpt>
      <trkpt lat="45.09174" lon="0.66137">
        <ele>186.4</ele>
        <time>2025-05-25T08:09:04Z</time>
      </trkpt>
      <trkpt lat="45.09175" lon="0.66137">
        <ele>186.6</ele>
        <time>2025-05-25T08:09:05Z</time>
      </trkpt>
      <trkpt lat="45.09177" lon="0.66136">
        <ele>186.8</ele>
        <time>2025-05-25T08:09:06Z</time>
      </trkpt>
      <trkpt lat="45.09177" lon="0.66135">
        <ele>186.8</ele>
        <time>2025-05-25T08:09:07Z</time>
      </trkpt>
      <trkpt lat="45.09179" lon="0.66135">
        <ele>187</ele>
        <time>2025-05-25T08:09:08Z</time>
      </trkpt>
      <trkpt lat="45.0918" lon="0.66134">
        <ele>187.2</ele>
        <time>2025-05-25T08:09:09Z</time>
      </trkpt>
      <trkpt lat="45.09181" lon="0.66133">
        <ele>187.4</ele>
        <time>2025-05-25T08:09:10Z</time>
      </trkpt>
      <trkpt lat="45.09183" lon="0.66133">
        <ele>187.6</ele>
        <time>2025-05-25T08:09:11Z</time>
      </trkpt>
      <trkpt lat="45.09184" lon="0.66132">
        <ele>187.8</ele>
        <time>2025-05-25T08:09:12Z</time>
      </trkpt>
      <trkpt lat="45.09186" lon="0.66131">
        <ele>188</ele>
        <time>2025-05-25T08:09:13Z</time>
      </trkpt>
      <trkpt lat="45.09187" lon="0.6613">
        <ele>188.4</ele>
        <time>2025-05-25T08:09:14Z</time>
      </trkpt>
      <trkpt lat="45.09188" lon="0.66129">
        <ele>188.6</ele>
        <time>2025-05-25T08:09:15Z</time>
      </trkpt>
      <trkpt lat="45.09189" lon="0.66128">
        <ele>188.8</ele>
        <time>2025-05-25T08:09:16Z</time>
      </trkpt>
      <trkpt lat="45.0919" lon="0.66128">
        <ele>189</ele>
        <time>2025-05-25T08:09:17Z</time>
      </trkpt>
      <trkpt lat="45.09192" lon="0.66127">
        <ele>189.2</ele>
        <time>2025-05-25T08:09:18Z</time>
      </trkpt>
      <trkpt lat="45.09193" lon="0.66126">
        <ele>189.6</ele>
        <time>2025-05-25T08:09:19Z</time>
      </trkpt>
      <trkpt lat="45.09194" lon="0.66126">
        <ele>189.8</ele>
        <time>2025-05-25T08:09:20Z</time>
      </trkpt>
      <trkpt lat="45.09195" lon="0.66125">
        <ele>190</ele>
        <time>2025-05-25T08:09:21Z</time>
      </trkpt>
      <trkpt lat="45.09196" lon="0.66124">
        <ele>190.2</ele>
        <time>2025-05-25T08:09:22Z</time>
      </trkpt>
      <trkpt lat="45.09197" lon="0.66123">
        <ele>190.4</ele>
        <time>2025-05-25T08:09:23Z</time>
      </trkpt>
      <trkpt lat="45.09198" lon="0.66123">
        <ele>190.6</ele>
        <time>2025-05-25T08:09:24Z</time>
      </trkpt>
      <trkpt lat="45.09199" lon="0.66122">
        <ele>191</ele>
        <time>2025-05-25T08:09:25Z</time>
      </trkpt>
      <trkpt lat="45.092" lon="0.66122">
        <ele>191.2</ele>
        <time>2025-05-25T08:09:26Z</time>
      </trkpt>
      <trkpt lat="45.09201" lon="0.66121">
        <ele>191.4</ele>
        <time>2025-05-25T08:09:27Z</time>
      </trkpt>
      <trkpt lat="45.09202" lon="0.66121">
        <ele>191.8</ele>
        <time>2025-05-25T08:09:28Z</time>
      </trkpt>
      <trkpt lat="45.09203" lon="0.6612">
        <ele>192</ele>
        <time>2025-05-25T08:09:29Z</time>
      </trkpt>
      <trkpt lat="45.09204" lon="0.66119">
        <ele>192.4</ele>
        <time>2025-05-25T08:09:30Z</time>
      </trkpt>
      <trkpt lat="45.09205" lon="0.66118">
        <ele>192.6</ele>
        <time>2025-05-25T08:09:31Z</time>
      </trkpt>
      <trkpt lat="45.09206" lon="0.66117">
        <ele>193</ele>
        <time>2025-05-25T08:09:32Z</time>
      </trkpt>
      <trkpt lat="45.09207" lon="0.66117">
        <ele>193.2</ele>
        <time>2025-05-25T08:09:33Z</time>
      </trkpt>
      <trkpt lat="45.09209" lon="0.66116">
        <ele>193.4</ele>
        <time>2025-05-25T08:09:34Z</time>
      </trkpt>
      <trkpt lat="45.0921" lon="0.66116">
        <ele>193.6</ele>
        <time>2025-05-25T08:09:35Z</time>
      </trkpt>
      <trkpt lat="45.09211" lon="0.66115">
        <ele>193.8</ele>
        <time>2025-05-25T08:09:36Z</time>
      </trkpt>
      <trkpt lat="45.09213" lon="0.66114">
        <ele>194</ele>
        <time>2025-05-25T08:09:37Z</time>
      </trkpt>
      <trkpt lat="45.09214" lon="0.66114">
        <ele>194.2</ele>
        <time>2025-05-25T08:09:38Z</time>
      </trkpt>
      <trkpt lat="45.09215" lon="0.66113">
        <ele>194.4</ele>
        <time>2025-05-25T08:09:39Z</time>
      </trkpt>
      <trkpt lat="45.09217" lon="0.66113">
        <ele>194.4</ele>
        <time>2025-05-25T08:09:40Z</time>
      </trkpt>
      <trkpt lat="45.09218" lon="0.66113">
        <ele>194.6</ele>
        <time>2025-05-25T08:09:41Z</time>
      </trkpt>
      <trkpt lat="45.0922" lon="0.66112">
        <ele>195</ele>
        <time>2025-05-25T08:09:42Z</time>
      </trkpt>
      <trkpt lat="45.09221" lon="0.66112">
        <ele>195.2</ele>
        <time>2025-05-25T08:09:43Z</time>
      </trkpt>
      <trkpt lat="45.09222" lon="0.66111">
        <ele>195.4</ele>
        <time>2025-05-25T08:09:44Z</time>
      </trkpt>
      <trkpt lat="45.09223" lon="0.66111">
        <ele>195.6</ele>
        <time>2025-05-25T08:09:45Z</time>
      </trkpt>
      <trkpt lat="45.09224" lon="0.6611">
        <ele>195.8</ele>
        <time>2025-05-25T08:09:46Z</time>
      </trkpt>
      <trkpt lat="45.09225" lon="0.6611">
        <ele>196</ele>
        <time>2025-05-25T08:09:47Z</time>
      </trkpt>
      <trkpt lat="45.09226" lon="0.6611">
        <ele>196.2</ele>
        <time>2025-05-25T08:09:48Z</time>
      </trkpt>
      <trkpt lat="45.09228" lon="0.66109">
        <ele>196.4</ele>
        <time>2025-05-25T08:09:49Z</time>
      </trkpt>
      <trkpt lat="45.09229" lon="0.6611">
        <ele>196.6</ele>
        <time>2025-05-25T08:09:50Z</time>
      </trkpt>
      <trkpt lat="45.0923" lon="0.6611">
        <ele>196.8</ele>
        <time>2025-05-25T08:09:51Z</time>
      </trkpt>
      <trkpt lat="45.09231" lon="0.6611">
        <ele>197</ele>
        <time>2025-05-25T08:09:52Z</time>
      </trkpt>
      <trkpt lat="45.09232" lon="0.6611">
        <ele>197.2</ele>
        <time>2025-05-25T08:09:53Z</time>
      </trkpt>
      <trkpt lat="45.09234" lon="0.66109">
        <ele>197.4</ele>
        <time>2025-05-25T08:09:54Z</time>
      </trkpt>
      <trkpt lat="45.09235" lon="0.66109">
        <ele>197.6</ele>
        <time>2025-05-25T08:09:55Z</time>
      </trkpt>
      <trkpt lat="45.09237" lon="0.66108">
        <ele>197.8</ele>
        <time>2025-05-25T08:09:56Z</time>
      </trkpt>
      <trkpt lat="45.09238" lon="0.66108">
        <ele>198</ele>
        <time>2025-05-25T08:09:57Z</time>
      </trkpt>
      <trkpt lat="45.0924" lon="0.66108">
        <ele>198.2</ele>
        <time>2025-05-25T08:09:58Z</time>
      </trkpt>
      <trkpt lat="45.09241" lon="0.66107">
        <ele>198.4</ele>
        <time>2025-05-25T08:09:59Z</time>
      </trkpt>
      <trkpt lat="45.09242" lon="0.66107">
        <ele>198.8</ele>
        <time>2025-05-25T08:10:00Z</time>
      </trkpt>
      <trkpt lat="45.09243" lon="0.66106">
        <ele>199</ele>
        <time>2025-05-25T08:10:01Z</time>
      </trkpt>
      <trkpt lat="45.09244" lon="0.66105">
        <ele>199.2</ele>
        <time>2025-05-25T08:10:02Z</time>
      </trkpt>
      <trkpt lat="45.09245" lon="0.66105">
        <ele>199.4</ele>
        <time>2025-05-25T08:10:03Z</time>
      </trkpt>
      <trkpt lat="45.09246" lon="0.66104">
        <ele>199.6</ele>
        <time>2025-05-25T08:10:04Z</time>
      </trkpt>
      <trkpt lat="45.09247" lon="0.66103">
        <ele>199.8</ele>
        <time>2025-05-25T08:10:05Z</time>
      </trkpt>
      <trkpt lat="45.09248" lon="0.66102">
        <ele>200</ele>
        <time>2025-05-25T08:10:06Z</time>
      </trkpt>
      <trkpt lat="45.0925" lon="0.66101">
        <ele>200.2</ele>
        <time>2025-05-25T08:10:07Z</time>
      </trkpt>
      <trkpt lat="45.09251" lon="0.661">
        <ele>200.4</ele>
        <time>2025-05-25T08:10:08Z</time>
      </trkpt>
      <trkpt lat="45.09252" lon="0.66099">
        <ele>200.4</ele>
        <time>2025-05-25T08:10:09Z</time>
      </trkpt>
      <trkpt lat="45.09253" lon="0.66097">
        <ele>200.8</ele>
        <time>2025-05-25T08:10:10Z</time>
      </trkpt>
      <trkpt lat="45.09254" lon="0.66096">
        <ele>201</ele>
        <time>2025-05-25T08:10:11Z</time>
      </trkpt>
      <trkpt lat="45.09256" lon="0.66095">
        <ele>201.2</ele>
        <time>2025-05-25T08:10:12Z</time>
      </trkpt>
      <trkpt lat="45.09257" lon="0.66094">
        <ele>201.4</ele>
        <time>2025-05-25T08:10:13Z</time>
      </trkpt>
      <trkpt lat="45.09258" lon="0.66093">
        <ele>201.6</ele>
        <time>2025-05-25T08:10:14Z</time>
      </trkpt>
      <trkpt lat="45.09259" lon="0.66092">
        <ele>201.8</ele>
        <time>2025-05-25T08:10:15Z</time>
      </trkpt>
      <trkpt lat="45.09259" lon="0.66091">
        <ele>202</ele>
        <time>2025-05-25T08:10:16Z</time>
      </trkpt>
      <trkpt lat="45.0926" lon="0.66089">
        <ele>202.2</ele>
        <time>2025-05-25T08:10:17Z</time>
      </trkpt>
      <trkpt lat="45.09261" lon="0.66088">
        <ele>202.4</ele>
        <time>2025-05-25T08:10:18Z</time>
      </trkpt>
      <trkpt lat="45.09262" lon="0.66087">
        <ele>202.6</ele>
        <time>2025-05-25T08:10:19Z</time>
      </trkpt>
      <trkpt lat="45.09263" lon="0.66085">
        <ele>202.8</ele>
        <time>2025-05-25T08:10:20Z</time>
      </trkpt>
      <trkpt lat="45.09265" lon="0.66084">
        <ele>203</ele>
        <time>2025-05-25T08:10:21Z</time>
      </trkpt>
      <trkpt lat="45.09266" lon="0.66083">
        <ele>203</ele>
        <time>2025-05-25T08:10:22Z</time>
      </trkpt>
      <trkpt lat="45.09267" lon="0.66082">
        <ele>203.2</ele>
        <time>2025-05-25T08:10:23Z</time>
      </trkpt>
      <trkpt lat="45.09269" lon="0.66081">
        <ele>203.4</ele>
        <time>2025-05-25T08:10:24Z</time>
      </trkpt>
      <trkpt lat="45.0927" lon="0.6608">
        <ele>203.6</ele>
        <time>2025-05-25T08:10:25Z</time>
      </trkpt>
      <trkpt lat="45.09271" lon="0.6608">
        <ele>204</ele>
        <time>2025-05-25T08:10:26Z</time>
      </trkpt>
      <trkpt lat="45.09272" lon="0.66078">
        <ele>204</ele>
        <time>2025-05-25T08:10:27Z</time>
      </trkpt>
      <trkpt lat="45.09274" lon="0.66077">
        <ele>204</ele>
        <time>2025-05-25T08:10:28Z</time>
      </trkpt>
      <trkpt lat="45.09275" lon="0.66076">
        <ele>204.2</ele>
        <time>2025-05-25T08:10:29Z</time>
      </trkpt>
      <trkpt lat="45.09277" lon="0.66075">
        <ele>204.2</ele>
        <time>2025-05-25T08:10:30Z</time>
      </trkpt>
      <trkpt lat="45.09278" lon="0.66074">
        <ele>204.4</ele>
        <time>2025-05-25T08:10:31Z</time>
      </trkpt>
      <trkpt lat="45.09279" lon="0.66074">
        <ele>204.6</ele>
        <time>2025-05-25T08:10:32Z</time>
      </trkpt>
      <trkpt lat="45.09281" lon="0.66072">
        <ele>204.8</ele>
        <time>2025-05-25T08:10:33Z</time>
      </trkpt>
      <trkpt lat="45.09283" lon="0.66072">
        <ele>205</ele>
        <time>2025-05-25T08:10:34Z</time>
      </trkpt>
      <trkpt lat="45.09285" lon="0.66071">
        <ele>205</ele>
        <time>2025-05-25T08:10:35Z</time>
      </trkpt>
      <trkpt lat="45.09286" lon="0.6607">
        <ele>205.2</ele>
        <time>2025-05-25T08:10:36Z</time>
      </trkpt>
      <trkpt lat="45.09288" lon="0.66068">
        <ele>205.2</ele>
        <time>2025-05-25T08:10:37Z</time>
      </trkpt>
      <trkpt lat="45.09289" lon="0.66068">
        <ele>205.4</ele>
        <time>2025-05-25T08:10:38Z</time>
      </trkpt>
      <trkpt lat="45.09291" lon="0.66067">
        <ele>205.4</ele>
        <time>2025-05-25T08:10:39Z</time>
      </trkpt>
      <trkpt lat="45.09292" lon="0.66066">
        <ele>205.6</ele>
        <time>2025-05-25T08:10:40Z</time>
      </trkpt>
      <trkpt lat="45.09294" lon="0.66065">
        <ele>205.6</ele>
        <time>2025-05-25T08:10:41Z</time>
      </trkpt>
      <trkpt lat="45.09296" lon="0.66065">
        <ele>205.8</ele>
        <time>2025-05-25T08:10:42Z</time>
      </trkpt>
      <trkpt lat="45.09298" lon="0.66064">
        <ele>206</ele>
        <time>2025-05-25T08:10:43Z</time>
      </trkpt>
      <trkpt lat="45.093" lon="0.66063">
        <ele>206.2</ele>
        <time>2025-05-25T08:10:44Z</time>
      </trkpt>
      <trkpt lat="45.09302" lon="0.66062">
        <ele>206.4</ele>
        <time>2025-05-25T08:10:45Z</time>
      </trkpt>
      <trkpt lat="45.09304" lon="0.66062">
        <ele>206.4</ele>
        <time>2025-05-25T08:10:46Z</time>
      </trkpt>
      <trkpt lat="45.09305" lon="0.66061">
        <ele>206.6</ele>
        <time>2025-05-25T08:10:47Z</time>
      </trkpt>
      <trkpt lat="45.09307" lon="0.6606">
        <ele>206.8</ele>
        <time>2025-05-25T08:10:48Z</time>
      </trkpt>
      <trkpt lat="45.09309" lon="0.66059">
        <ele>207</ele>
        <time>2025-05-25T08:10:49Z</time>
      </trkpt>
      <trkpt lat="45.0931" lon="0.66059">
        <ele>207</ele>
        <time>2025-05-25T08:10:50Z</time>
      </trkpt>
      <trkpt lat="45.09313" lon="0.66059">
        <ele>207.2</ele>
        <time>2025-05-25T08:10:51Z</time>
      </trkpt>
      <trkpt lat="45.09314" lon="0.66058">
        <ele>207.4</ele>
        <time>2025-05-25T08:10:52Z</time>
      </trkpt>
      <trkpt lat="45.09316" lon="0.66057">
        <ele>207.6</ele>
        <time>2025-05-25T08:10:53Z</time>
      </trkpt>
      <trkpt lat="45.09319" lon="0.66056">
        <ele>207.8</ele>
        <time>2025-05-25T08:10:54Z</time>
      </trkpt>
      <trkpt lat="45.09321" lon="0.66055">
        <ele>207.8</ele>
        <time>2025-05-25T08:10:55Z</time>
      </trkpt>
      <trkpt lat="45.09323" lon="0.66054">
        <ele>208</ele>
        <time>2025-05-25T08:10:56Z</time>
      </trkpt>
      <trkpt lat="45.09325" lon="0.66053">
        <ele>208</ele>
        <time>2025-05-25T08:10:57Z</time>
      </trkpt>
      <trkpt lat="45.09327" lon="0.66052">
        <ele>208.2</ele>
        <time>2025-05-25T08:10:58Z</time>
      </trkpt>
      <trkpt lat="45.09329" lon="0.66052">
        <ele>208.2</ele>
        <time>2025-05-25T08:10:59Z</time>
      </trkpt>
      <trkpt lat="45.09332" lon="0.66051">
        <ele>208.4</ele>
        <time>2025-05-25T08:11:00Z</time>
      </trkpt>
      <trkpt lat="45.09334" lon="0.66051">
        <ele>208.4</ele>
        <time>2025-05-25T08:11:01Z</time>
      </trkpt>
      <trkpt lat="45.09337" lon="0.6605">
        <ele>208.6</ele>
        <time>2025-05-25T08:11:02Z</time>
      </trkpt>
      <trkpt lat="45.09339" lon="0.6605">
        <ele>208.8</ele>
        <time>2025-05-25T08:11:03Z</time>
      </trkpt>
      <trkpt lat="45.09341" lon="0.6605">
        <ele>208.8</ele>
        <time>2025-05-25T08:11:04Z</time>
      </trkpt>
      <trkpt lat="45.09344" lon="0.66049">
        <ele>208.8</ele>
        <time>2025-05-25T08:11:05Z</time>
      </trkpt>
      <trkpt lat="45.09346" lon="0.66048">
        <ele>208.8</ele>
        <time>2025-05-25T08:11:06Z</time>
      </trkpt>
      <trkpt lat="45.09349" lon="0.66047">
        <ele>208.8</ele>
        <time>2025-05-25T08:11:07Z</time>
      </trkpt>
      <trkpt lat="45.09351" lon="0.66046">
        <ele>208.8</ele>
        <time>2025-05-25T08:11:08Z</time>
      </trkpt>
      <trkpt lat="45.09353" lon="0.66046">
        <ele>209</ele>
        <time>2025-05-25T08:11:09Z</time>
      </trkpt>
      <trkpt lat="45.09355" lon="0.66045">
        <ele>209</ele>
        <time>2025-05-25T08:11:10Z</time>
      </trkpt>
      <trkpt lat="45.09358" lon="0.66044">
        <ele>209.2</ele>
        <time>2025-05-25T08:11:11Z</time>
      </trkpt>
      <trkpt lat="45.09361" lon="0.66044">
        <ele>209.4</ele>
        <time>2025-05-25T08:11:12Z</time>
      </trkpt>
      <trkpt lat="45.09364" lon="0.66043">
        <ele>209.4</ele>
        <time>2025-05-25T08:11:13Z</time>
      </trkpt>
      <trkpt lat="45.09366" lon="0.66043">
        <ele>209.4</ele>
        <time>2025-05-25T08:11:14Z</time>
      </trkpt>
      <trkpt lat="45.09369" lon="0.66042">
        <ele>209.4</ele>
        <time>2025-05-25T08:11:15Z</time>
      </trkpt>
      <trkpt lat="45.09372" lon="0.66042">
        <ele>209.4</ele>
        <time>2025-05-25T08:11:16Z</time>
      </trkpt>
      <trkpt lat="45.09376" lon="0.66041">
        <ele>209.6</ele>
        <time>2025-05-25T08:11:17Z</time>
      </trkpt>
      <trkpt lat="45.09379" lon="0.66041">
        <ele>209.6</ele>
        <time>2025-05-25T08:11:18Z</time>
      </trkpt>
      <trkpt lat="45.09382" lon="0.66041">
        <ele>209.6</ele>
        <time>2025-05-25T08:11:19Z</time>
      </trkpt>
      <trkpt lat="45.09385" lon="0.66041">
        <ele>209.6</ele>
        <time>2025-05-25T08:11:20Z</time>
      </trkpt>
      <trkpt lat="45.09389" lon="0.66041">
        <ele>209.6</ele>
        <time>2025-05-25T08:11:21Z</time>
      </trkpt>
      <trkpt lat="45.09392" lon="0.66041">
        <ele>209.8</ele>
        <time>2025-05-25T08:11:22Z</time>
      </trkpt>
      <trkpt lat="45.09395" lon="0.66041">
        <ele>209.8</ele>
        <time>2025-05-25T08:11:23Z</time>
      </trkpt>
      <trkpt lat="45.09399" lon="0.66041">
        <ele>209.8</ele>
        <time>2025-05-25T08:11:24Z</time>
      </trkpt>
      <trkpt lat="45.09403" lon="0.66041">
        <ele>209.8</ele>
        <time>2025-05-25T08:11:25Z</time>
      </trkpt>
      <trkpt lat="45.09406" lon="0.66041">
        <ele>210</ele>
        <time>2025-05-25T08:11:26Z</time>
      </trkpt>
      <trkpt lat="45.09409" lon="0.66041">
        <ele>210</ele>
        <time>2025-05-25T08:11:27Z</time>
      </trkpt>
      <trkpt lat="45.09413" lon="0.66041">
        <ele>210.2</ele>
        <time>2025-05-25T08:11:28Z</time>
      </trkpt>
      <trkpt lat="45.09416" lon="0.66042">
        <ele>210.2</ele>
        <time>2025-05-25T08:11:29Z</time>
      </trkpt>
      <trkpt lat="45.0942" lon="0.66043">
        <ele>210.4</ele>
        <time>2025-05-25T08:11:30Z</time>
      </trkpt>
      <trkpt lat="45.09423" lon="0.66043">
        <ele>210.4</ele>
        <time>2025-05-25T08:11:31Z</time>
      </trkpt>
      <trkpt lat="45.09426" lon="0.66045">
        <ele>210.4</ele>
        <time>2025-05-25T08:11:32Z</time>
      </trkpt>
      <trkpt lat="45.09429" lon="0.66046">
        <ele>210.6</ele>
        <time>2025-05-25T08:11:33Z</time>
      </trkpt>
      <trkpt lat="45.09433" lon="0.66048">
        <ele>210.6</ele>
        <time>2025-05-25T08:11:34Z</time>
      </trkpt>
      <trkpt lat="45.09436" lon="0.6605">
        <ele>210.6</ele>
        <time>2025-05-25T08:11:35Z</time>
      </trkpt>
      <trkpt lat="45.0944" lon="0.66052">
        <ele>210.6</ele>
        <time>2025-05-25T08:11:36Z</time>
      </trkpt>
      <trkpt lat="45.09443" lon="0.66054">
        <ele>210.6</ele>
        <time>2025-05-25T08:11:37Z</time>
      </trkpt>
      <trkpt lat="45.09447" lon="0.66055">
        <ele>210.6</ele>
        <time>2025-05-25T08:11:38Z</time>
      </trkpt>
      <trkpt lat="45.09451" lon="0.66056">
        <ele>210.4</ele>
        <time>2025-05-25T08:11:39Z</time>
      </trkpt>
      <trkpt lat="45.09454" lon="0.66056">
        <ele>210.4</ele>
        <time>2025-05-25T08:11:40Z</time>
      </trkpt>
      <trkpt lat="45.09458" lon="0.66057">
        <ele>210.4</ele>
        <time>2025-05-25T08:11:41Z</time>
      </trkpt>
      <trkpt lat="45.09461" lon="0.66059">
        <ele>210.2</ele>
        <time>2025-05-25T08:11:42Z</time>
      </trkpt>
      <trkpt lat="45.09464" lon="0.66062">
        <ele>210.2</ele>
        <time>2025-05-25T08:11:43Z</time>
      </trkpt>
      <trkpt lat="45.09467" lon="0.66066">
        <ele>210.2</ele>
        <time>2025-05-25T08:11:44Z</time>
      </trkpt>
      <trkpt lat="45.0947" lon="0.66069">
        <ele>210.2</ele>
        <time>2025-05-25T08:11:45Z</time>
      </trkpt>
      <trkpt lat="45.09473" lon="0.66074">
        <ele>210.2</ele>
        <time>2025-05-25T08:11:46Z</time>
      </trkpt>
      <trkpt lat="45.09476" lon="0.66078">
        <ele>210.2</ele>
        <time>2025-05-25T08:11:47Z</time>
      </trkpt>
      <trkpt lat="45.09479" lon="0.66083">
        <ele>210.2</ele>
        <time>2025-05-25T08:11:48Z</time>
      </trkpt>
      <trkpt lat="45.09482" lon="0.66088">
        <ele>210</ele>
        <time>2025-05-25T08:11:49Z</time>
      </trkpt>
      <trkpt lat="45.09485" lon="0.66093">
        <ele>210</ele>
        <time>2025-05-25T08:11:50Z</time>
      </trkpt>
      <trkpt lat="45.09489" lon="0.66097">
        <ele>209.8</ele>
        <time>2025-05-25T08:11:51Z</time>
      </trkpt>
      <trkpt lat="45.09492" lon="0.66102">
        <ele>210</ele>
        <time>2025-05-25T08:11:52Z</time>
      </trkpt>
      <trkpt lat="45.09495" lon="0.66107">
        <ele>209.8</ele>
        <time>2025-05-25T08:11:53Z</time>
      </trkpt>
      <trkpt lat="45.09499" lon="0.66112">
        <ele>209.8</ele>
        <time>2025-05-25T08:11:54Z</time>
      </trkpt>
      <trkpt lat="45.09502" lon="0.66117">
        <ele>210</ele>
        <time>2025-05-25T08:11:55Z</time>
      </trkpt>
      <trkpt lat="45.09505" lon="0.66122">
        <ele>209.8</ele>
        <time>2025-05-25T08:11:56Z</time>
      </trkpt>
      <trkpt lat="45.09509" lon="0.66127">
        <ele>209.8</ele>
        <time>2025-05-25T08:11:57Z</time>
      </trkpt>
      <trkpt lat="45.09513" lon="0.6613">
        <ele>209.8</ele>
        <time>2025-05-25T08:11:58Z</time>
      </trkpt>
      <trkpt lat="45.09518" lon="0.66129">
        <ele>209.8</ele>
        <time>2025-05-25T08:11:59Z</time>
      </trkpt>
      <trkpt lat="45.09521" lon="0.66126">
        <ele>209.8</ele>
        <time>2025-05-25T08:12:00Z</time>
      </trkpt>
      <trkpt lat="45.09524" lon="0.66121">
        <ele>209.8</ele>
        <time>2025-05-25T08:12:01Z</time>
      </trkpt>
      <trkpt lat="45.09527" lon="0.66116">
        <ele>209.8</ele>
        <time>2025-05-25T08:12:02Z</time>
      </trkpt>
      <trkpt lat="45.09529" lon="0.6611">
        <ele>209.8</ele>
        <time>2025-05-25T08:12:03Z</time>
      </trkpt>
      <trkpt lat="45.09532" lon="0.66104">
        <ele>209.8</ele>
        <time>2025-05-25T08:12:04Z</time>
      </trkpt>
      <trkpt lat="45.09535" lon="0.66098">
        <ele>209.8</ele>
        <time>2025-05-25T08:12:05Z</time>
      </trkpt>
      <trkpt lat="45.09537" lon="0.66091">
        <ele>209.6</ele>
        <time>2025-05-25T08:12:06Z</time>
      </trkpt>
      <trkpt lat="45.0954" lon="0.66086">
        <ele>209.4</ele>
        <time>2025-05-25T08:12:07Z</time>
      </trkpt>
      <trkpt lat="45.09543" lon="0.66082">
        <ele>209.2</ele>
        <time>2025-05-25T08:12:08Z</time>
      </trkpt>
      <trkpt lat="45.09545" lon="0.66079">
        <ele>209.2</ele>
        <time>2025-05-25T08:12:09Z</time>
      </trkpt>
      <trkpt lat="45.09547" lon="0.66077">
        <ele>209.2</ele>
        <time>2025-05-25T08:12:10Z</time>
      </trkpt>
      <trkpt lat="45.09548" lon="0.66074">
        <ele>209.4</ele>
        <time>2025-05-25T08:12:11Z</time>
      </trkpt>
      <trkpt lat="45.0955" lon="0.6607">
        <ele>209.8</ele>
        <time>2025-05-25T08:12:12Z</time>
      </trkpt>
      <trkpt lat="45.09553" lon="0.66068">
        <ele>209.8</ele>
        <time>2025-05-25T08:12:13Z</time>
      </trkpt>
      <trkpt lat="45.09557" lon="0.66064">
        <ele>209.8</ele>
        <time>2025-05-25T08:12:14Z</time>
      </trkpt>
      <trkpt lat="45.09561" lon="0.6606">
        <ele>209.6</ele>
        <time>2025-05-25T08:12:15Z</time>
      </trkpt>
      <trkpt lat="45.09565" lon="0.66054">
        <ele>209.2</ele>
        <time>2025-05-25T08:12:16Z</time>
      </trkpt>
      <trkpt lat="45.09568" lon="0.66046">
        <ele>208.6</ele>
        <time>2025-05-25T08:12:17Z</time>
      </trkpt>
      <trkpt lat="45.0957" lon="0.66036">
        <ele>208</ele>
        <time>2025-05-25T08:12:18Z</time>
      </trkpt>
      <trkpt lat="45.09571" lon="0.66026">
        <ele>207.2</ele>
        <time>2025-05-25T08:12:19Z</time>
      </trkpt>
      <trkpt lat="45.09571" lon="0.66014">
        <ele>206.2</ele>
        <time>2025-05-25T08:12:20Z</time>
      </trkpt>
      <trkpt lat="45.09571" lon="0.66001">
        <ele>205.4</ele>
        <time>2025-05-25T08:12:21Z</time>
      </trkpt>
      <trkpt lat="45.09572" lon="0.65989">
        <ele>204.2</ele>
        <time>2025-05-25T08:12:22Z</time>
      </trkpt>
      <trkpt lat="45.09575" lon="0.65977">
        <ele>202.8</ele>
        <time>2025-05-25T08:12:23Z</time>
      </trkpt>
      <trkpt lat="45.09579" lon="0.65967">
        <ele>201.8</ele>
        <time>2025-05-25T08:12:24Z</time>
      </trkpt>
      <trkpt lat="45.09584" lon="0.65956">
        <ele>200.8</ele>
        <time>2025-05-25T08:12:25Z</time>
      </trkpt>
      <trkpt lat="45.09589" lon="0.65945">
        <ele>199.8</ele>
        <time>2025-05-25T08:12:26Z</time>
      </trkpt>
      <trkpt lat="45.09595" lon="0.65934">
        <ele>199.2</ele>
        <time>2025-05-25T08:12:27Z</time>
      </trkpt>
      <trkpt lat="45.096" lon="0.65923">
        <ele>198.6</ele>
        <time>2025-05-25T08:12:28Z</time>
      </trkpt>
      <trkpt lat="45.09605" lon="0.65912">
        <ele>198</ele>
        <time>2025-05-25T08:12:29Z</time>
      </trkpt>
      <trkpt lat="45.0961" lon="0.65902">
        <ele>197.6</ele>
        <time>2025-05-25T08:12:30Z</time>
      </trkpt>
      <trkpt lat="45.09615" lon="0.65893">
        <ele>197.4</ele>
        <time>2025-05-25T08:12:31Z</time>
      </trkpt>
      <trkpt lat="45.09621" lon="0.65885">
        <ele>197.2</ele>
        <time>2025-05-25T08:12:32Z</time>
      </trkpt>
      <trkpt lat="45.09624" lon="0.65876">
        <ele>197</ele>
        <time>2025-05-25T08:12:33Z</time>
      </trkpt>
      <trkpt lat="45.09625" lon="0.65865">
        <ele>197</ele>
        <time>2025-05-25T08:12:34Z</time>
      </trkpt>
      <trkpt lat="45.09625" lon="0.65855">
        <ele>197</ele>
        <time>2025-05-25T08:12:35Z</time>
      </trkpt>
      <trkpt lat="45.09626" lon="0.65845">
        <ele>197.2</ele>
        <time>2025-05-25T08:12:36Z</time>
      </trkpt>
      <trkpt lat="45.09626" lon="0.65837">
        <ele>197.6</ele>
        <time>2025-05-25T08:12:37Z</time>
      </trkpt>
      <trkpt lat="45.09626" lon="0.65828">
        <ele>197.8</ele>
        <time>2025-05-25T08:12:38Z</time>
      </trkpt>
      <trkpt lat="45.09627" lon="0.65819">
        <ele>198.2</ele>
        <time>2025-05-25T08:12:39Z</time>
      </trkpt>
      <trkpt lat="45.09627" lon="0.6581">
        <ele>198.6</ele>
        <time>2025-05-25T08:12:40Z</time>
      </trkpt>
      <trkpt lat="45.09628" lon="0.65802">
        <ele>198.8</ele>
        <time>2025-05-25T08:12:41Z</time>
      </trkpt>
      <trkpt lat="45.09628" lon="0.65793">
        <ele>199</ele>
        <time>2025-05-25T08:12:42Z</time>
      </trkpt>
      <trkpt lat="45.09629" lon="0.65785">
        <ele>199</ele>
        <time>2025-05-25T08:12:43Z</time>
      </trkpt>
      <trkpt lat="45.09629" lon="0.65775">
        <ele>199.2</ele>
        <time>2025-05-25T08:12:44Z</time>
      </trkpt>
      <trkpt lat="45.09628" lon="0.65766">
        <ele>199.2</ele>
        <time>2025-05-25T08:12:45Z</time>
      </trkpt>
      <trkpt lat="45.09628" lon="0.65758">
        <ele>199</ele>
        <time>2025-05-25T08:12:46Z</time>
      </trkpt>
      <trkpt lat="45.09627" lon="0.65748">
        <ele>199</ele>
        <time>2025-05-25T08:12:47Z</time>
      </trkpt>
      <trkpt lat="45.09627" lon="0.65738">
        <ele>198.8</ele>
        <time>2025-05-25T08:12:48Z</time>
      </trkpt>
      <trkpt lat="45.09625" lon="0.65729">
        <ele>198.6</ele>
        <time>2025-05-25T08:12:49Z</time>
      </trkpt>
      <trkpt lat="45.09624" lon="0.6572">
        <ele>198.4</ele>
        <time>2025-05-25T08:12:50Z</time>
      </trkpt>
      <trkpt lat="45.09624" lon="0.6571">
        <ele>198.2</ele>
        <time>2025-05-25T08:12:51Z</time>
      </trkpt>
      <trkpt lat="45.09624" lon="0.657">
        <ele>198</ele>
        <time>2025-05-25T08:12:52Z</time>
      </trkpt>
      <trkpt lat="45.09624" lon="0.65691">
        <ele>198</ele>
        <time>2025-05-25T08:12:53Z</time>
      </trkpt>
      <trkpt lat="45.09624" lon="0.6568">
        <ele>198.2</ele>
        <time>2025-05-25T08:12:54Z</time>
      </trkpt>
      <trkpt lat="45.09624" lon="0.65672">
        <ele>198.2</ele>
        <time>2025-05-25T08:12:55Z</time>
      </trkpt>
      <trkpt lat="45.09623" lon="0.65663">
        <ele>198.4</ele>
        <time>2025-05-25T08:12:56Z</time>
      </trkpt>
      <trkpt lat="45.09622" lon="0.65654">
        <ele>198.4</ele>
        <time>2025-05-25T08:12:57Z</time>
      </trkpt>
      <trkpt lat="45.09622" lon="0.65646">
        <ele>198.6</ele>
        <time>2025-05-25T08:12:58Z</time>
      </trkpt>
      <trkpt lat="45.09621" lon="0.65637">
        <ele>198.8</ele>
        <time>2025-05-25T08:12:59Z</time>
      </trkpt>
      <trkpt lat="45.09621" lon="0.6563">
        <ele>199</ele>
        <time>2025-05-25T08:13:00Z</time>
      </trkpt>
      <trkpt lat="45.0962" lon="0.65623">
        <ele>199.4</ele>
        <time>2025-05-25T08:13:01Z</time>
      </trkpt>
      <trkpt lat="45.09619" lon="0.65616">
        <ele>199.6</ele>
        <time>2025-05-25T08:13:02Z</time>
      </trkpt>
      <trkpt lat="45.09619" lon="0.65609">
        <ele>200</ele>
        <time>2025-05-25T08:13:03Z</time>
      </trkpt>
      <trkpt lat="45.09618" lon="0.65602">
        <ele>200</ele>
        <time>2025-05-25T08:13:04Z</time>
      </trkpt>
      <trkpt lat="45.09617" lon="0.65595">
        <ele>200.2</ele>
        <time>2025-05-25T08:13:05Z</time>
      </trkpt>
      <trkpt lat="45.09616" lon="0.65587">
        <ele>200.6</ele>
        <time>2025-05-25T08:13:06Z</time>
      </trkpt>
      <trkpt lat="45.09616" lon="0.65581">
        <ele>200.8</ele>
        <time>2025-05-25T08:13:07Z</time>
      </trkpt>
      <trkpt lat="45.09615" lon="0.65574">
        <ele>201</ele>
        <time>2025-05-25T08:13:08Z</time>
      </trkpt>
      <trkpt lat="45.09614" lon="0.65569">
        <ele>201.4</ele>
        <time>2025-05-25T08:13:09Z</time>
      </trkpt>
      <trkpt lat="45.09613" lon="0.65563">
        <ele>201.6</ele>
        <time>2025-05-25T08:13:10Z</time>
      </trkpt>
      <trkpt lat="45.09613" lon="0.65557">
        <ele>201.8</ele>
        <time>2025-05-25T08:13:11Z</time>
      </trkpt>
      <trkpt lat="45.09612" lon="0.65551">
        <ele>202.2</ele>
        <time>2025-05-25T08:13:12Z</time>
      </trkpt>
      <trkpt lat="45.09612" lon="0.65544">
        <ele>202.4</ele>
        <time>2025-05-25T08:13:13Z</time>
      </trkpt>
      <trkpt lat="45.09612" lon="0.65538">
        <ele>202.6</ele>
        <time>2025-05-25T08:13:14Z</time>
      </trkpt>
      <trkpt lat="45.09612" lon="0.65531">
        <ele>202.8</ele>
        <time>2025-05-25T08:13:15Z</time>
      </trkpt>
      <trkpt lat="45.09612" lon="0.65524">
        <ele>202.8</ele>
        <time>2025-05-25T08:13:16Z</time>
      </trkpt>
      <trkpt lat="45.09612" lon="0.65517">
        <ele>202.6</ele>
        <time>2025-05-25T08:13:17Z</time>
      </trkpt>
      <trkpt lat="45.09611" lon="0.6551">
        <ele>202.4</ele>
        <time>2025-05-25T08:13:18Z</time>
      </trkpt>
      <trkpt lat="45.09611" lon="0.65503">
        <ele>202.2</ele>
        <time>2025-05-25T08:13:19Z</time>
      </trkpt>
      <trkpt lat="45.0961" lon="0.65494">
        <ele>202</ele>
        <time>2025-05-25T08:13:20Z</time>
      </trkpt>
      <trkpt lat="45.0961" lon="0.65486">
        <ele>201.8</ele>
        <time>2025-05-25T08:13:21Z</time>
      </trkpt>
      <trkpt lat="45.09608" lon="0.65476">
        <ele>201.4</ele>
        <time>2025-05-25T08:13:22Z</time>
      </trkpt>
      <trkpt lat="45.09607" lon="0.65467">
        <ele>201</ele>
        <time>2025-05-25T08:13:23Z</time>
      </trkpt>
      <trkpt lat="45.09607" lon="0.65458">
        <ele>200.6</ele>
        <time>2025-05-25T08:13:24Z</time>
      </trkpt>
      <trkpt lat="45.09604" lon="0.65447">
        <ele>200</ele>
        <time>2025-05-25T08:13:25Z</time>
      </trkpt>
      <trkpt lat="45.09602" lon="0.65438">
        <ele>199.4</ele>
        <time>2025-05-25T08:13:26Z</time>
      </trkpt>
      <trkpt lat="45.09601" lon="0.65428">
        <ele>199</ele>
        <time>2025-05-25T08:13:27Z</time>
      </trkpt>
      <trkpt lat="45.09599" lon="0.65418">
        <ele>198.4</ele>
        <time>2025-05-25T08:13:28Z</time>
      </trkpt>
      <trkpt lat="45.09597" lon="0.65408">
        <ele>198</ele>
        <time>2025-05-25T08:13:29Z</time>
      </trkpt>
      <trkpt lat="45.09596" lon="0.65398">
        <ele>197.2</ele>
        <time>2025-05-25T08:13:30Z</time>
      </trkpt>
      <trkpt lat="45.09594" lon="0.65387">
        <ele>196.6</ele>
        <time>2025-05-25T08:13:31Z</time>
      </trkpt>
      <trkpt lat="45.09592" lon="0.65376">
        <ele>195.8</ele>
        <time>2025-05-25T08:13:32Z</time>
      </trkpt>
      <trkpt lat="45.09592" lon="0.65365">
        <ele>194.8</ele>
        <time>2025-05-25T08:13:33Z</time>
      </trkpt>
      <trkpt lat="45.09593" lon="0.65353">
        <ele>193.8</ele>
        <time>2025-05-25T08:13:34Z</time>
      </trkpt>
      <trkpt lat="45.09592" lon="0.6534">
        <ele>193</ele>
        <time>2025-05-25T08:13:35Z</time>
      </trkpt>
      <trkpt lat="45.09594" lon="0.65328">
        <ele>192.2</ele>
        <time>2025-05-25T08:13:36Z</time>
      </trkpt>
      <trkpt lat="45.09596" lon="0.65316">
        <ele>191.4</ele>
        <time>2025-05-25T08:13:37Z</time>
      </trkpt>
      <trkpt lat="45.09598" lon="0.65305">
        <ele>190.8</ele>
        <time>2025-05-25T08:13:38Z</time>
      </trkpt>
      <trkpt lat="45.09599" lon="0.65294">
        <ele>190.6</ele>
        <time>2025-05-25T08:13:39Z</time>
      </trkpt>
      <trkpt lat="45.09599" lon="0.65283">
        <ele>190.4</ele>
        <time>2025-05-25T08:13:40Z</time>
      </trkpt>
      <trkpt lat="45.09599" lon="0.65276">
        <ele>190.6</ele>
        <time>2025-05-25T08:13:41Z</time>
      </trkpt>
      <trkpt lat="45.09598" lon="0.6527">
        <ele>191.4</ele>
        <time>2025-05-25T08:13:42Z</time>
      </trkpt>
      <trkpt lat="45.09598" lon="0.65265">
        <ele>192.4</ele>
        <time>2025-05-25T08:13:43Z</time>
      </trkpt>
      <trkpt lat="45.09597" lon="0.65261">
        <ele>193.2</ele>
        <time>2025-05-25T08:13:44Z</time>
      </trkpt>
      <trkpt lat="45.09597" lon="0.65258">
        <ele>194.2</ele>
        <time>2025-05-25T08:13:45Z</time>
      </trkpt>
      <trkpt lat="45.09597" lon="0.65254">
        <ele>195</ele>
        <time>2025-05-25T08:13:46Z</time>
      </trkpt>
      <trkpt lat="45.09596" lon="0.65251">
        <ele>195.8</ele>
        <time>2025-05-25T08:13:47Z</time>
      </trkpt>
      <trkpt lat="45.09595" lon="0.65247">
        <ele>196.2</ele>
        <time>2025-05-25T08:13:48Z</time>
      </trkpt>
      <trkpt lat="45.09594" lon="0.65243">
        <ele>196.6</ele>
        <time>2025-05-25T08:13:49Z</time>
      </trkpt>
      <trkpt lat="45.09593" lon="0.6524">
        <ele>197</ele>
        <time>2025-05-25T08:13:50Z</time>
      </trkpt>
      <trkpt lat="45.09593" lon="0.65238">
        <ele>197.2</ele>
        <time>2025-05-25T08:13:51Z</time>
      </trkpt>
      <trkpt lat="45.09593" lon="0.65235">
        <ele>197.6</ele>
        <time>2025-05-25T08:13:52Z</time>
      </trkpt>
      <trkpt lat="45.09592" lon="0.65232">
        <ele>198</ele>
        <time>2025-05-25T08:13:53Z</time>
      </trkpt>
      <trkpt lat="45.09592" lon="0.6523">
        <ele>198.2</ele>
        <time>2025-05-25T08:13:54Z</time>
      </trkpt>
      <trkpt lat="45.09591" lon="0.65227">
        <ele>198.6</ele>
        <time>2025-05-25T08:13:55Z</time>
      </trkpt>
      <trkpt lat="45.09591" lon="0.65225">
        <ele>199</ele>
        <time>2025-05-25T08:13:56Z</time>
      </trkpt>
      <trkpt lat="45.09591" lon="0.65222">
        <ele>199.2</ele>
        <time>2025-05-25T08:13:57Z</time>
      </trkpt>
      <trkpt lat="45.0959" lon="0.6522">
        <ele>199.6</ele>
        <time>2025-05-25T08:13:58Z</time>
      </trkpt>
      <trkpt lat="45.0959" lon="0.65217">
        <ele>199.8</ele>
        <time>2025-05-25T08:13:59Z</time>
      </trkpt>
      <trkpt lat="45.0959" lon="0.65215">
        <ele>200.2</ele>
        <time>2025-05-25T08:14:00Z</time>
      </trkpt>
      <trkpt lat="45.0959" lon="0.65212">
        <ele>200.4</ele>
        <time>2025-05-25T08:14:01Z</time>
      </trkpt>
      <trkpt lat="45.09589" lon="0.6521">
        <ele>200.8</ele>
        <time>2025-05-25T08:14:02Z</time>
      </trkpt>
      <trkpt lat="45.09589" lon="0.65206">
        <ele>201</ele>
        <time>2025-05-25T08:14:03Z</time>
      </trkpt>
      <trkpt lat="45.09588" lon="0.65204">
        <ele>201.2</ele>
        <time>2025-05-25T08:14:04Z</time>
      </trkpt>
      <trkpt lat="45.09588" lon="0.65201">
        <ele>201.6</ele>
        <time>2025-05-25T08:14:05Z</time>
      </trkpt>
      <trkpt lat="45.09588" lon="0.65198">
        <ele>201.8</ele>
        <time>2025-05-25T08:14:06Z</time>
      </trkpt>
      <trkpt lat="45.09587" lon="0.65196">
        <ele>202</ele>
        <time>2025-05-25T08:14:07Z</time>
      </trkpt>
      <trkpt lat="45.09587" lon="0.65193">
        <ele>202.2</ele>
        <time>2025-05-25T08:14:08Z</time>
      </trkpt>
      <trkpt lat="45.09587" lon="0.6519">
        <ele>202.4</ele>
        <time>2025-05-25T08:14:09Z</time>
      </trkpt>
      <trkpt lat="45.09587" lon="0.65188">
        <ele>202.6</ele>
        <time>2025-05-25T08:14:10Z</time>
      </trkpt>
      <trkpt lat="45.09586" lon="0.65185">
        <ele>202.8</ele>
        <time>2025-05-25T08:14:11Z</time>
      </trkpt>
      <trkpt lat="45.09586" lon="0.65182">
        <ele>203</ele>
        <time>2025-05-25T08:14:12Z</time>
      </trkpt>
      <trkpt lat="45.09585" lon="0.65179">
        <ele>203.2</ele>
        <time>2025-05-25T08:14:13Z</time>
      </trkpt>
      <trkpt lat="45.09585" lon="0.65176">
        <ele>203.4</ele>
        <time>2025-05-25T08:14:14Z</time>
      </trkpt>
      <trkpt lat="45.09585" lon="0.65174">
        <ele>203.6</ele>
        <time>2025-05-25T08:14:15Z</time>
      </trkpt>
      <trkpt lat="45.09585" lon="0.6517">
        <ele>203.8</ele>
        <time>2025-05-25T08:14:16Z</time>
      </trkpt>
      <trkpt lat="45.09584" lon="0.65168">
        <ele>203.8</ele>
        <time>2025-05-25T08:14:17Z</time>
      </trkpt>
      <trkpt lat="45.09584" lon="0.65165">
        <ele>204</ele>
        <time>2025-05-25T08:14:18Z</time>
      </trkpt>
      <trkpt lat="45.09583" lon="0.65164">
        <ele>204.2</ele>
        <time>2025-05-25T08:14:19Z</time>
      </trkpt>
      <trkpt lat="45.09581" lon="0.65162">
        <ele>204.4</ele>
        <time>2025-05-25T08:14:20Z</time>
      </trkpt>
      <trkpt lat="45.0958" lon="0.6516">
        <ele>204.6</ele>
        <time>2025-05-25T08:14:21Z</time>
      </trkpt>
      <trkpt lat="45.09578" lon="0.65158">
        <ele>204.8</ele>
        <time>2025-05-25T08:14:22Z</time>
      </trkpt>
      <trkpt lat="45.09577" lon="0.65157">
        <ele>204.8</ele>
        <time>2025-05-25T08:14:23Z</time>
      </trkpt>
      <trkpt lat="45.09575" lon="0.65156">
        <ele>205</ele>
        <time>2025-05-25T08:14:24Z</time>
      </trkpt>
      <trkpt lat="45.09573" lon="0.65155">
        <ele>205</ele>
        <time>2025-05-25T08:14:25Z</time>
      </trkpt>
      <trkpt lat="45.0957" lon="0.65154">
        <ele>205</ele>
        <time>2025-05-25T08:14:26Z</time>
      </trkpt>
      <trkpt lat="45.09567" lon="0.65154">
        <ele>205</ele>
        <time>2025-05-25T08:14:27Z</time>
      </trkpt>
      <trkpt lat="45.09565" lon="0.65154">
        <ele>205</ele>
        <time>2025-05-25T08:14:28Z</time>
      </trkpt>
      <trkpt lat="45.09562" lon="0.65154">
        <ele>205</ele>
        <time>2025-05-25T08:14:29Z</time>
      </trkpt>
      <trkpt lat="45.09559" lon="0.65153">
        <ele>205</ele>
        <time>2025-05-25T08:14:30Z</time>
      </trkpt>
      <trkpt lat="45.09555" lon="0.65152">
        <ele>205</ele>
        <time>2025-05-25T08:14:31Z</time>
      </trkpt>
      <trkpt lat="45.09551" lon="0.65153">
        <ele>204.8</ele>
        <time>2025-05-25T08:14:32Z</time>
      </trkpt>
      <trkpt lat="45.09547" lon="0.65152">
        <ele>204.8</ele>
        <time>2025-05-25T08:14:33Z</time>
      </trkpt>
      <trkpt lat="45.09544" lon="0.65152">
        <ele>204.8</ele>
        <time>2025-05-25T08:14:34Z</time>
      </trkpt>
      <trkpt lat="45.0954" lon="0.65152">
        <ele>204.8</ele>
        <time>2025-05-25T08:14:35Z</time>
      </trkpt>
      <trkpt lat="45.09536" lon="0.65152">
        <ele>204.6</ele>
        <time>2025-05-25T08:14:36Z</time>
      </trkpt>
      <trkpt lat="45.09532" lon="0.65152">
        <ele>204.6</ele>
        <time>2025-05-25T08:14:37Z</time>
      </trkpt>
      <trkpt lat="45.09528" lon="0.65152">
        <ele>204.6</ele>
        <time>2025-05-25T08:14:38Z</time>
      </trkpt>
      <trkpt lat="45.09524" lon="0.65152">
        <ele>204.6</ele>
        <time>2025-05-25T08:14:39Z</time>
      </trkpt>
      <trkpt lat="45.0952" lon="0.65152">
        <ele>204.6</ele>
        <time>2025-05-25T08:14:40Z</time>
      </trkpt>
      <trkpt lat="45.09516" lon="0.65153">
        <ele>204.8</ele>
        <time>2025-05-25T08:14:41Z</time>
      </trkpt>
      <trkpt lat="45.09513" lon="0.65153">
        <ele>205</ele>
        <time>2025-05-25T08:14:42Z</time>
      </trkpt>
      <trkpt lat="45.09508" lon="0.65154">
        <ele>205.2</ele>
        <time>2025-05-25T08:14:43Z</time>
      </trkpt>
      <trkpt lat="45.09505" lon="0.65153">
        <ele>205.4</ele>
        <time>2025-05-25T08:14:44Z</time>
      </trkpt>
      <trkpt lat="45.09502" lon="0.65151">
        <ele>205.6</ele>
        <time>2025-05-25T08:14:45Z</time>
      </trkpt>
      <trkpt lat="45.095" lon="0.65147">
        <ele>205.8</ele>
        <time>2025-05-25T08:14:46Z</time>
      </trkpt>
      <trkpt lat="45.09497" lon="0.65144">
        <ele>206</ele>
        <time>2025-05-25T08:14:47Z</time>
      </trkpt>
      <trkpt lat="45.09495" lon="0.6514">
        <ele>206.2</ele>
        <time>2025-05-25T08:14:48Z</time>
      </trkpt>
      <trkpt lat="45.09493" lon="0.65135">
        <ele>206.2</ele>
        <time>2025-05-25T08:14:49Z</time>
      </trkpt>
      <trkpt lat="45.0949" lon="0.65129">
        <ele>206.4</ele>
        <time>2025-05-25T08:14:50Z</time>
      </trkpt>
      <trkpt lat="45.09488" lon="0.65124">
        <ele>206.2</ele>
        <time>2025-05-25T08:14:51Z</time>
      </trkpt>
      <trkpt lat="45.09485" lon="0.65117">
        <ele>206.2</ele>
        <time>2025-05-25T08:14:52Z</time>
      </trkpt>
      <trkpt lat="45.09483" lon="0.65111">
        <ele>206</ele>
        <time>2025-05-25T08:14:53Z</time>
      </trkpt>
      <trkpt lat="45.09479" lon="0.65105">
        <ele>205.8</ele>
        <time>2025-05-25T08:14:54Z</time>
      </trkpt>
      <trkpt lat="45.09476" lon="0.65099">
        <ele>205.4</ele>
        <time>2025-05-25T08:14:55Z</time>
      </trkpt>
      <trkpt lat="45.09471" lon="0.65092">
        <ele>205</ele>
        <time>2025-05-25T08:14:56Z</time>
      </trkpt>
      <trkpt lat="45.09467" lon="0.65085">
        <ele>204.8</ele>
        <time>2025-05-25T08:14:57Z</time>
      </trkpt>
      <trkpt lat="45.09463" lon="0.65078">
        <ele>204.2</ele>
        <time>2025-05-25T08:14:58Z</time>
      </trkpt>
      <trkpt lat="45.0946" lon="0.65069">
        <ele>203.8</ele>
        <time>2025-05-25T08:14:59Z</time>
      </trkpt>
      <trkpt lat="45.09455" lon="0.6506">
        <ele>203</ele>
        <time>2025-05-25T08:15:00Z</time>
      </trkpt>
      <trkpt lat="45.09449" lon="0.65052">
        <ele>202.2</ele>
        <time>2025-05-25T08:15:01Z</time>
      </trkpt>
      <trkpt lat="45.09441" lon="0.65047">
        <ele>201.2</ele>
        <time>2025-05-25T08:15:02Z</time>
      </trkpt>
      <trkpt lat="45.09435" lon="0.6504">
        <ele>200.6</ele>
        <time>2025-05-25T08:15:03Z</time>
      </trkpt>
      <trkpt lat="45.0943" lon="0.65032">
        <ele>200</ele>
        <time>2025-05-25T08:15:04Z</time>
      </trkpt>
      <trkpt lat="45.09426" lon="0.65026">
        <ele>199.8</ele>
        <time>2025-05-25T08:15:05Z</time>
      </trkpt>
      <trkpt lat="45.09422" lon="0.65019">
        <ele>199.6</ele>
        <time>2025-05-25T08:15:06Z</time>
      </trkpt>
      <trkpt lat="45.09418" lon="0.65012">
        <ele>199.8</ele>
        <time>2025-05-25T08:15:07Z</time>
      </trkpt>
      <trkpt lat="45.09414" lon="0.65005">
        <ele>200</ele>
        <time>2025-05-25T08:15:08Z</time>
      </trkpt>
      <trkpt lat="45.09411" lon="0.64999">
        <ele>200.4</ele>
        <time>2025-05-25T08:15:09Z</time>
      </trkpt>
      <trkpt lat="45.09408" lon="0.64992">
        <ele>200.6</ele>
        <time>2025-05-25T08:15:10Z</time>
      </trkpt>
      <trkpt lat="45.09405" lon="0.64984">
        <ele>200.8</ele>
        <time>2025-05-25T08:15:11Z</time>
      </trkpt>
      <trkpt lat="45.09403" lon="0.64977">
        <ele>201.2</ele>
        <time>2025-05-25T08:15:12Z</time>
      </trkpt>
      <trkpt lat="45.09401" lon="0.64969">
        <ele>201.4</ele>
        <time>2025-05-25T08:15:13Z</time>
      </trkpt>
      <trkpt lat="45.09399" lon="0.64962">
        <ele>201.8</ele>
        <time>2025-05-25T08:15:14Z</time>
      </trkpt>
      <trkpt lat="45.09397" lon="0.64955">
        <ele>202</ele>
        <time>2025-05-25T08:15:15Z</time>
      </trkpt>
      <trkpt lat="45.09396" lon="0.64948">
        <ele>202.2</ele>
        <time>2025-05-25T08:15:16Z</time>
      </trkpt>
      <trkpt lat="45.09395" lon="0.64941">
        <ele>202.4</ele>
        <time>2025-05-25T08:15:17Z</time>
      </trkpt>
      <trkpt lat="45.09394" lon="0.64937">
        <ele>202.8</ele>
        <time>2025-05-25T08:15:18Z</time>
      </trkpt>
      <trkpt lat="45.09393" lon="0.6493">
        <ele>203</ele>
        <time>2025-05-25T08:15:19Z</time>
      </trkpt>
      <trkpt lat="45.09392" lon="0.64924">
        <ele>203.4</ele>
        <time>2025-05-25T08:15:20Z</time>
      </trkpt>
      <trkpt lat="45.0939" lon="0.64917">
        <ele>203.6</ele>
        <time>2025-05-25T08:15:21Z</time>
      </trkpt>
      <trkpt lat="45.09388" lon="0.64911">
        <ele>204</ele>
        <time>2025-05-25T08:15:22Z</time>
      </trkpt>
      <trkpt lat="45.09386" lon="0.64906">
        <ele>204.4</ele>
        <time>2025-05-25T08:15:23Z</time>
      </trkpt>
      <trkpt lat="45.09385" lon="0.649">
        <ele>204.6</ele>
        <time>2025-05-25T08:15:24Z</time>
      </trkpt>
      <trkpt lat="45.09383" lon="0.64894">
        <ele>204.8</ele>
        <time>2025-05-25T08:15:25Z</time>
      </trkpt>
      <trkpt lat="45.09383" lon="0.64887">
        <ele>205</ele>
        <time>2025-05-25T08:15:26Z</time>
      </trkpt>
      <trkpt lat="45.09382" lon="0.64881">
        <ele>205.4</ele>
        <time>2025-05-25T08:15:27Z</time>
      </trkpt>
      <trkpt lat="45.0938" lon="0.64874">
        <ele>205.6</ele>
        <time>2025-05-25T08:15:28Z</time>
      </trkpt>
      <trkpt lat="45.09379" lon="0.64869">
        <ele>205.8</ele>
        <time>2025-05-25T08:15:29Z</time>
      </trkpt>
      <trkpt lat="45.09378" lon="0.64863">
        <ele>205.8</ele>
        <time>2025-05-25T08:15:30Z</time>
      </trkpt>
      <trkpt lat="45.09376" lon="0.64857">
        <ele>206</ele>
        <time>2025-05-25T08:15:31Z</time>
      </trkpt>
      <trkpt lat="45.09375" lon="0.64851">
        <ele>206</ele>
        <time>2025-05-25T08:15:32Z</time>
      </trkpt>
      <trkpt lat="45.09374" lon="0.64845">
        <ele>206.2</ele>
        <time>2025-05-25T08:15:33Z</time>
      </trkpt>
      <trkpt lat="45.09374" lon="0.6484">
        <ele>206.4</ele>
        <time>2025-05-25T08:15:34Z</time>
      </trkpt>
      <trkpt lat="45.09375" lon="0.64834">
        <ele>206.4</ele>
        <time>2025-05-25T08:15:35Z</time>
      </trkpt>
      <trkpt lat="45.09377" lon="0.64829">
        <ele>206.4</ele>
        <time>2025-05-25T08:15:36Z</time>
      </trkpt>
      <trkpt lat="45.09379" lon="0.64824">
        <ele>206.4</ele>
        <time>2025-05-25T08:15:37Z</time>
      </trkpt>
      <trkpt lat="45.09379" lon="0.64817">
        <ele>206.4</ele>
        <time>2025-05-25T08:15:38Z</time>
      </trkpt>
      <trkpt lat="45.0938" lon="0.6481">
        <ele>206.2</ele>
        <time>2025-05-25T08:15:39Z</time>
      </trkpt>
      <trkpt lat="45.0938" lon="0.64803">
        <ele>206</ele>
        <time>2025-05-25T08:15:40Z</time>
      </trkpt>
      <trkpt lat="45.09381" lon="0.64795">
        <ele>205.8</ele>
        <time>2025-05-25T08:15:41Z</time>
      </trkpt>
      <trkpt lat="45.09383" lon="0.64787">
        <ele>205.6</ele>
        <time>2025-05-25T08:15:42Z</time>
      </trkpt>
      <trkpt lat="45.09384" lon="0.64779">
        <ele>205.4</ele>
        <time>2025-05-25T08:15:43Z</time>
      </trkpt>
      <trkpt lat="45.09387" lon="0.64772">
        <ele>205.2</ele>
        <time>2025-05-25T08:15:44Z</time>
      </trkpt>
      <trkpt lat="45.09389" lon="0.64764">
        <ele>204.8</ele>
        <time>2025-05-25T08:15:45Z</time>
      </trkpt>
      <trkpt lat="45.09391" lon="0.64755">
        <ele>204.6</ele>
        <time>2025-05-25T08:15:46Z</time>
      </trkpt>
      <trkpt lat="45.09393" lon="0.64747">
        <ele>204.6</ele>
        <time>2025-05-25T08:15:47Z</time>
      </trkpt>
      <trkpt lat="45.09394" lon="0.64739">
        <ele>204.4</ele>
        <time>2025-05-25T08:15:48Z</time>
      </trkpt>
      <trkpt lat="45.09395" lon="0.6473">
        <ele>204.4</ele>
        <time>2025-05-25T08:15:49Z</time>
      </trkpt>
      <trkpt lat="45.09395" lon="0.64722">
        <ele>204.2</ele>
        <time>2025-05-25T08:15:50Z</time>
      </trkpt>
      <trkpt lat="45.09396" lon="0.64713">
        <ele>204</ele>
        <time>2025-05-25T08:15:51Z</time>
      </trkpt>
      <trkpt lat="45.09397" lon="0.64706">
        <ele>203.8</ele>
        <time>2025-05-25T08:15:52Z</time>
      </trkpt>
      <trkpt lat="45.09399" lon="0.647">
        <ele>203.8</ele>
        <time>2025-05-25T08:15:53Z</time>
      </trkpt>
      <trkpt lat="45.09402" lon="0.64695">
        <ele>203.6</ele>
        <time>2025-05-25T08:15:54Z</time>
      </trkpt>
      <trkpt lat="45.09406" lon="0.64689">
        <ele>203.4</ele>
        <time>2025-05-25T08:15:55Z</time>
      </trkpt>
      <trkpt lat="45.0941" lon="0.64683">
        <ele>203.2</ele>
        <time>2025-05-25T08:15:56Z</time>
      </trkpt>
      <trkpt lat="45.09415" lon="0.64677">
        <ele>203</ele>
        <time>2025-05-25T08:15:57Z</time>
      </trkpt>
      <trkpt lat="45.09419" lon="0.64671">
        <ele>202.6</ele>
        <time>2025-05-25T08:15:58Z</time>
      </trkpt>
      <trkpt lat="45.09423" lon="0.64665">
        <ele>202.2</ele>
        <time>2025-05-25T08:15:59Z</time>
      </trkpt>
      <trkpt lat="45.09425" lon="0.6466">
        <ele>202</ele>
        <time>2025-05-25T08:16:00Z</time>
      </trkpt>
      <trkpt lat="45.09426" lon="0.64653">
        <ele>201.8</ele>
        <time>2025-05-25T08:16:01Z</time>
      </trkpt>
      <trkpt lat="45.09423" lon="0.64649">
        <ele>201.4</ele>
        <time>2025-05-25T08:16:02Z</time>
      </trkpt>
      <trkpt lat="45.0942" lon="0.64646">
        <ele>201.2</ele>
        <time>2025-05-25T08:16:03Z</time>
      </trkpt>
      <trkpt lat="45.09416" lon="0.64643">
        <ele>201</ele>
        <time>2025-05-25T08:16:04Z</time>
      </trkpt>
      <trkpt lat="45.09413" lon="0.64639">
        <ele>200.8</ele>
        <time>2025-05-25T08:16:05Z</time>
      </trkpt>
      <trkpt lat="45.0941" lon="0.64635">
        <ele>200.6</ele>
        <time>2025-05-25T08:16:06Z</time>
      </trkpt>
      <trkpt lat="45.09408" lon="0.64629">
        <ele>200.6</ele>
        <time>2025-05-25T08:16:07Z</time>
      </trkpt>
      <trkpt lat="45.09407" lon="0.64623">
        <ele>201</ele>
        <time>2025-05-25T08:16:08Z</time>
      </trkpt>
      <trkpt lat="45.09407" lon="0.64616">
        <ele>201.4</ele>
        <time>2025-05-25T08:16:09Z</time>
      </trkpt>
      <trkpt lat="45.09407" lon="0.6461">
        <ele>201.8</ele>
        <time>2025-05-25T08:16:10Z</time>
      </trkpt>
      <trkpt lat="45.09408" lon="0.64605">
        <ele>202.2</ele>
        <time>2025-05-25T08:16:11Z</time>
      </trkpt>
      <trkpt lat="45.09408" lon="0.64599">
        <ele>202.6</ele>
        <time>2025-05-25T08:16:12Z</time>
      </trkpt>
      <trkpt lat="45.09408" lon="0.64595">
        <ele>203</ele>
        <time>2025-05-25T08:16:13Z</time>
      </trkpt>
      <trkpt lat="45.09408" lon="0.64591">
        <ele>203.4</ele>
        <time>2025-05-25T08:16:14Z</time>
      </trkpt>
      <trkpt lat="45.09408" lon="0.64587">
        <ele>203.8</ele>
        <time>2025-05-25T08:16:15Z</time>
      </trkpt>
      <trkpt lat="45.09407" lon="0.64583">
        <ele>204.2</ele>
        <time>2025-05-25T08:16:16Z</time>
      </trkpt>
      <trkpt lat="45.09407" lon="0.64579">
        <ele>204.4</ele>
        <time>2025-05-25T08:16:17Z</time>
      </trkpt>
      <trkpt lat="45.09407" lon="0.64576">
        <ele>204.6</ele>
        <time>2025-05-25T08:16:18Z</time>
      </trkpt>
      <trkpt lat="45.09407" lon="0.64571">
        <ele>205</ele>
        <time>2025-05-25T08:16:19Z</time>
      </trkpt>
      <trkpt lat="45.09408" lon="0.64568">
        <ele>205</ele>
        <time>2025-05-25T08:16:20Z</time>
      </trkpt>
      <trkpt lat="45.09408" lon="0.64564">
        <ele>205.4</ele>
        <time>2025-05-25T08:16:21Z</time>
      </trkpt>
      <trkpt lat="45.09408" lon="0.64561">
        <ele>205.6</ele>
        <time>2025-05-25T08:16:22Z</time>
      </trkpt>
      <trkpt lat="45.09408" lon="0.64557">
        <ele>205.8</ele>
        <time>2025-05-25T08:16:23Z</time>
      </trkpt>
      <trkpt lat="45.09408" lon="0.64553">
        <ele>206</ele>
        <time>2025-05-25T08:16:24Z</time>
      </trkpt>
      <trkpt lat="45.09408" lon="0.6455">
        <ele>206.2</ele>
        <time>2025-05-25T08:16:25Z</time>
      </trkpt>
      <trkpt lat="45.09409" lon="0.64547">
        <ele>206.4</ele>
        <time>2025-05-25T08:16:26Z</time>
      </trkpt>
      <trkpt lat="45.0941" lon="0.64545">
        <ele>206.6</ele>
        <time>2025-05-25T08:16:27Z</time>
      </trkpt>
      <trkpt lat="45.09412" lon="0.64544">
        <ele>206.8</ele>
        <time>2025-05-25T08:16:28Z</time>
      </trkpt>
      <trkpt lat="45.09415" lon="0.64545">
        <ele>207</ele>
        <time>2025-05-25T08:16:29Z</time>
      </trkpt>
      <trkpt lat="45.09417" lon="0.64545">
        <ele>207.2</ele>
        <time>2025-05-25T08:16:30Z</time>
      </trkpt>
      <trkpt lat="45.0942" lon="0.64545">
        <ele>207.2</ele>
        <time>2025-05-25T08:16:31Z</time>
      </trkpt>
      <trkpt lat="45.09424" lon="0.64546">
        <ele>207.4</ele>
        <time>2025-05-25T08:16:32Z</time>
      </trkpt>
      <trkpt lat="45.09427" lon="0.64546">
        <ele>207.4</ele>
        <time>2025-05-25T08:16:33Z</time>
      </trkpt>
      <trkpt lat="45.0943" lon="0.64547">
        <ele>207.2</ele>
        <time>2025-05-25T08:16:34Z</time>
      </trkpt>
      <trkpt lat="45.09433" lon="0.64549">
        <ele>207.2</ele>
        <time>2025-05-25T08:16:35Z</time>
      </trkpt>
      <trkpt lat="45.09437" lon="0.6455">
        <ele>207.2</ele>
        <time>2025-05-25T08:16:36Z</time>
      </trkpt>
      <trkpt lat="45.0944" lon="0.64551">
        <ele>207.2</ele>
        <time>2025-05-25T08:16:37Z</time>
      </trkpt>
      <trkpt lat="45.09444" lon="0.64552">
        <ele>207.4</ele>
        <time>2025-05-25T08:16:38Z</time>
      </trkpt>
      <trkpt lat="45.09448" lon="0.64553">
        <ele>207.4</ele>
        <time>2025-05-25T08:16:39Z</time>
      </trkpt>
      <trkpt lat="45.09451" lon="0.64554">
        <ele>207.4</ele>
        <time>2025-05-25T08:16:40Z</time>
      </trkpt>
      <trkpt lat="45.09455" lon="0.64554">
        <ele>207.4</ele>
        <time>2025-05-25T08:16:41Z</time>
      </trkpt>
      <trkpt lat="45.09459" lon="0.64554">
        <ele>207.4</ele>
        <time>2025-05-25T08:16:42Z</time>
      </trkpt>
      <trkpt lat="45.09463" lon="0.64553">
        <ele>207.4</ele>
        <time>2025-05-25T08:16:43Z</time>
      </trkpt>
      <trkpt lat="45.09467" lon="0.64553">
        <ele>207.4</ele>
        <time>2025-05-25T08:16:44Z</time>
      </trkpt>
      <trkpt lat="45.0947" lon="0.64552">
        <ele>207.4</ele>
        <time>2025-05-25T08:16:45Z</time>
      </trkpt>
      <trkpt lat="45.09474" lon="0.64551">
        <ele>207.2</ele>
        <time>2025-05-25T08:16:46Z</time>
      </trkpt>
      <trkpt lat="45.09478" lon="0.6455">
        <ele>207.4</ele>
        <time>2025-05-25T08:16:47Z</time>
      </trkpt>
      <trkpt lat="45.09482" lon="0.64549">
        <ele>207.4</ele>
        <time>2025-05-25T08:16:48Z</time>
      </trkpt>
      <trkpt lat="45.09485" lon="0.64547">
        <ele>207.6</ele>
        <time>2025-05-25T08:16:49Z</time>
      </trkpt>
      <trkpt lat="45.09489" lon="0.64545">
        <ele>207.6</ele>
        <time>2025-05-25T08:16:50Z</time>
      </trkpt>
      <trkpt lat="45.09492" lon="0.64543">
        <ele>207.8</ele>
        <time>2025-05-25T08:16:51Z</time>
      </trkpt>
      <trkpt lat="45.09496" lon="0.6454">
        <ele>207.8</ele>
        <time>2025-05-25T08:16:52Z</time>
      </trkpt>
      <trkpt lat="45.095" lon="0.64537">
        <ele>207.8</ele>
        <time>2025-05-25T08:16:53Z</time>
      </trkpt>
      <trkpt lat="45.09503" lon="0.64535">
        <ele>208</ele>
        <time>2025-05-25T08:16:54Z</time>
      </trkpt>
      <trkpt lat="45.09506" lon="0.64532">
        <ele>208.2</ele>
        <time>2025-05-25T08:16:55Z</time>
      </trkpt>
      <trkpt lat="45.0951" lon="0.64529">
        <ele>208.2</ele>
        <time>2025-05-25T08:16:56Z</time>
      </trkpt>
      <trkpt lat="45.09514" lon="0.64526">
        <ele>208.4</ele>
        <time>2025-05-25T08:16:57Z</time>
      </trkpt>
      <trkpt lat="45.09518" lon="0.64523">
        <ele>208.6</ele>
        <time>2025-05-25T08:16:58Z</time>
      </trkpt>
      <trkpt lat="45.09521" lon="0.6452">
        <ele>208.8</ele>
        <time>2025-05-25T08:16:59Z</time>
      </trkpt>
      <trkpt lat="45.09526" lon="0.64519">
        <ele>209</ele>
        <time>2025-05-25T08:17:00Z</time>
      </trkpt>
      <trkpt lat="45.0953" lon="0.64516">
        <ele>209</ele>
        <time>2025-05-25T08:17:01Z</time>
      </trkpt>
      <trkpt lat="45.09535" lon="0.64513">
        <ele>209</ele>
        <time>2025-05-25T08:17:02Z</time>
      </trkpt>
      <trkpt lat="45.09539" lon="0.64511">
        <ele>209</ele>
        <time>2025-05-25T08:17:03Z</time>
      </trkpt>
      <trkpt lat="45.09544" lon="0.64508">
        <ele>209</ele>
        <time>2025-05-25T08:17:04Z</time>
      </trkpt>
      <trkpt lat="45.0955" lon="0.64505">
        <ele>209</ele>
        <time>2025-05-25T08:17:05Z</time>
      </trkpt>
      <trkpt lat="45.09555" lon="0.64502">
        <ele>209</ele>
        <time>2025-05-25T08:17:06Z</time>
      </trkpt>
      <trkpt lat="45.0956" lon="0.64498">
        <ele>208.8</ele>
        <time>2025-05-25T08:17:07Z</time>
      </trkpt>
      <trkpt lat="45.09565" lon="0.64493">
        <ele>208.8</ele>
        <time>2025-05-25T08:17:08Z</time>
      </trkpt>
      <trkpt lat="45.0957" lon="0.64488">
        <ele>208.6</ele>
        <time>2025-05-25T08:17:09Z</time>
      </trkpt>
      <trkpt lat="45.09575" lon="0.64483">
        <ele>208.2</ele>
        <time>2025-05-25T08:17:10Z</time>
      </trkpt>
      <trkpt lat="45.09581" lon="0.64477">
        <ele>208</ele>
        <time>2025-05-25T08:17:11Z</time>
      </trkpt>
      <trkpt lat="45.09586" lon="0.64472">
        <ele>207.8</ele>
        <time>2025-05-25T08:17:12Z</time>
      </trkpt>
      <trkpt lat="45.09591" lon="0.64468">
        <ele>207.4</ele>
        <time>2025-05-25T08:17:13Z</time>
      </trkpt>
      <trkpt lat="45.09597" lon="0.64465">
        <ele>207.2</ele>
        <time>2025-05-25T08:17:14Z</time>
      </trkpt>
      <trkpt lat="45.09603" lon="0.64461">
        <ele>207.2</ele>
        <time>2025-05-25T08:17:15Z</time>
      </trkpt>
      <trkpt lat="45.09609" lon="0.64459">
        <ele>207</ele>
        <time>2025-05-25T08:17:16Z</time>
      </trkpt>
      <trkpt lat="45.09615" lon="0.64457">
        <ele>207</ele>
        <time>2025-05-25T08:17:17Z</time>
      </trkpt>
      <trkpt lat="45.09621" lon="0.64455">
        <ele>206.6</ele>
        <time>2025-05-25T08:17:18Z</time>
      </trkpt>
      <trkpt lat="45.09628" lon="0.64454">
        <ele>206.4</ele>
        <time>2025-05-25T08:17:19Z</time>
      </trkpt>
      <trkpt lat="45.09634" lon="0.64454">
        <ele>206.2</ele>
        <time>2025-05-25T08:17:20Z</time>
      </trkpt>
      <trkpt lat="45.09641" lon="0.64456">
        <ele>205.8</ele>
        <time>2025-05-25T08:17:21Z</time>
      </trkpt>
      <trkpt lat="45.09647" lon="0.6446">
        <ele>205.2</ele>
        <time>2025-05-25T08:17:22Z</time>
      </trkpt>
      <trkpt lat="45.09651" lon="0.64466">
        <ele>204.8</ele>
        <time>2025-05-25T08:17:23Z</time>
      </trkpt>
      <trkpt lat="45.09653" lon="0.64476">
        <ele>204.4</ele>
        <time>2025-05-25T08:17:24Z</time>
      </trkpt>
      <trkpt lat="45.09653" lon="0.64486">
        <ele>204</ele>
        <time>2025-05-25T08:17:25Z</time>
      </trkpt>
      <trkpt lat="45.09652" lon="0.64496">
        <ele>203.4</ele>
        <time>2025-05-25T08:17:26Z</time>
      </trkpt>
      <trkpt lat="45.0965" lon="0.64507">
        <ele>203</ele>
        <time>2025-05-25T08:17:27Z</time>
      </trkpt>
      <trkpt lat="45.09651" lon="0.64518">
        <ele>202.2</ele>
        <time>2025-05-25T08:17:28Z</time>
      </trkpt>
      <trkpt lat="45.09654" lon="0.64528">
        <ele>201.6</ele>
        <time>2025-05-25T08:17:29Z</time>
      </trkpt>
      <trkpt lat="45.09659" lon="0.64533">
        <ele>201</ele>
        <time>2025-05-25T08:17:30Z</time>
      </trkpt>
      <trkpt lat="45.09664" lon="0.64535">
        <ele>200.4</ele>
        <time>2025-05-25T08:17:31Z</time>
      </trkpt>
      <trkpt lat="45.09668" lon="0.64533">
        <ele>199.6</ele>
        <time>2025-05-25T08:17:32Z</time>
      </trkpt>
      <trkpt lat="45.09673" lon="0.64531">
        <ele>199</ele>
        <time>2025-05-25T08:17:33Z</time>
      </trkpt>
      <trkpt lat="45.09677" lon="0.64528">
        <ele>198.6</ele>
        <time>2025-05-25T08:17:34Z</time>
      </trkpt>
      <trkpt lat="45.09683" lon="0.64525">
        <ele>198</ele>
        <time>2025-05-25T08:17:35Z</time>
      </trkpt>
      <trkpt lat="45.0969" lon="0.64523">
        <ele>197.4</ele>
        <time>2025-05-25T08:17:36Z</time>
      </trkpt>
      <trkpt lat="45.09698" lon="0.64524">
        <ele>196.6</ele>
        <time>2025-05-25T08:17:37Z</time>
      </trkpt>
      <trkpt lat="45.09705" lon="0.64525">
        <ele>195.8</ele>
        <time>2025-05-25T08:17:38Z</time>
      </trkpt>
      <trkpt lat="45.09712" lon="0.64529">
        <ele>194.8</ele>
        <time>2025-05-25T08:17:39Z</time>
      </trkpt>
      <trkpt lat="45.09718" lon="0.64535">
        <ele>193.8</ele>
        <time>2025-05-25T08:17:40Z</time>
      </trkpt>
      <trkpt lat="45.0972" lon="0.64546">
        <ele>192.8</ele>
        <time>2025-05-25T08:17:41Z</time>
      </trkpt>
      <trkpt lat="45.09719" lon="0.64558">
        <ele>191.8</ele>
        <time>2025-05-25T08:17:42Z</time>
      </trkpt>
      <trkpt lat="45.09719" lon="0.64571">
        <ele>190.2</ele>
        <time>2025-05-25T08:17:43Z</time>
      </trkpt>
      <trkpt lat="45.09721" lon="0.64584">
        <ele>189</ele>
        <time>2025-05-25T08:17:44Z</time>
      </trkpt>
      <trkpt lat="45.09723" lon="0.64595">
        <ele>187.8</ele>
        <time>2025-05-25T08:17:45Z</time>
      </trkpt>
      <trkpt lat="45.09726" lon="0.64603">
        <ele>186.8</ele>
        <time>2025-05-25T08:17:46Z</time>
      </trkpt>
      <trkpt lat="45.09731" lon="0.64608">
        <ele>186</ele>
        <time>2025-05-25T08:17:47Z</time>
      </trkpt>
      <trkpt lat="45.09737" lon="0.64608">
        <ele>185.6</ele>
        <time>2025-05-25T08:17:48Z</time>
      </trkpt>
      <trkpt lat="45.09744" lon="0.64605">
        <ele>184.8</ele>
        <time>2025-05-25T08:17:49Z</time>
      </trkpt>
      <trkpt lat="45.09751" lon="0.64603">
        <ele>184</ele>
        <time>2025-05-25T08:17:50Z</time>
      </trkpt>
      <trkpt lat="45.09758" lon="0.64605">
        <ele>183.2</ele>
        <time>2025-05-25T08:17:51Z</time>
      </trkpt>
      <trkpt lat="45.09765" lon="0.64609">
        <ele>182.4</ele>
        <time>2025-05-25T08:17:52Z</time>
      </trkpt>
      <trkpt lat="45.09772" lon="0.64616">
        <ele>181.4</ele>
        <time>2025-05-25T08:17:53Z</time>
      </trkpt>
      <trkpt lat="45.09779" lon="0.64622">
        <ele>180.6</ele>
        <time>2025-05-25T08:17:54Z</time>
      </trkpt>
      <trkpt lat="45.09786" lon="0.6463">
        <ele>179.6</ele>
        <time>2025-05-25T08:17:55Z</time>
      </trkpt>
      <trkpt lat="45.09793" lon="0.64638">
        <ele>179.2</ele>
        <time>2025-05-25T08:17:56Z</time>
      </trkpt>
      <trkpt lat="45.098" lon="0.64646">
        <ele>178.6</ele>
        <time>2025-05-25T08:17:57Z</time>
      </trkpt>
      <trkpt lat="45.09807" lon="0.64652">
        <ele>178.2</ele>
        <time>2025-05-25T08:17:58Z</time>
      </trkpt>
      <trkpt lat="45.09814" lon="0.6466">
        <ele>177.8</ele>
        <time>2025-05-25T08:17:59Z</time>
      </trkpt>
      <trkpt lat="45.09821" lon="0.64667">
        <ele>177.4</ele>
        <time>2025-05-25T08:18:00Z</time>
      </trkpt>
      <trkpt lat="45.0983" lon="0.64673">
        <ele>176.8</ele>
        <time>2025-05-25T08:18:01Z</time>
      </trkpt>
      <trkpt lat="45.09841" lon="0.64678">
        <ele>176</ele>
        <time>2025-05-25T08:18:02Z</time>
      </trkpt>
      <trkpt lat="45.09851" lon="0.64681">
        <ele>175</ele>
        <time>2025-05-25T08:18:03Z</time>
      </trkpt>
      <trkpt lat="45.09861" lon="0.64684">
        <ele>174</ele>
        <time>2025-05-25T08:18:04Z</time>
      </trkpt>
      <trkpt lat="45.09869" lon="0.64687">
        <ele>172.8</ele>
        <time>2025-05-25T08:18:05Z</time>
      </trkpt>
      <trkpt lat="45.09877" lon="0.6469">
        <ele>171.8</ele>
        <time>2025-05-25T08:18:06Z</time>
      </trkpt>
      <trkpt lat="45.09885" lon="0.64692">
        <ele>171</ele>
        <time>2025-05-25T08:18:07Z</time>
      </trkpt>
      <trkpt lat="45.09893" lon="0.64695">
        <ele>170</ele>
        <time>2025-05-25T08:18:08Z</time>
      </trkpt>
      <trkpt lat="45.09901" lon="0.64696">
        <ele>169</ele>
        <time>2025-05-25T08:18:09Z</time>
      </trkpt>
      <trkpt lat="45.09909" lon="0.64697">
        <ele>168</ele>
        <time>2025-05-25T08:18:10Z</time>
      </trkpt>
      <trkpt lat="45.09918" lon="0.64696">
        <ele>167.2</ele>
        <time>2025-05-25T08:18:11Z</time>
      </trkpt>
      <trkpt lat="45.09926" lon="0.64697">
        <ele>165.6</ele>
        <time>2025-05-25T08:18:12Z</time>
      </trkpt>
      <trkpt lat="45.09935" lon="0.64697">
        <ele>164.6</ele>
        <time>2025-05-25T08:18:13Z</time>
      </trkpt>
      <trkpt lat="45.09944" lon="0.64698">
        <ele>163.6</ele>
        <time>2025-05-25T08:18:14Z</time>
      </trkpt>
      <trkpt lat="45.09954" lon="0.64698">
        <ele>162.4</ele>
        <time>2025-05-25T08:18:15Z</time>
      </trkpt>
      <trkpt lat="45.09964" lon="0.64697">
        <ele>161.2</ele>
        <time>2025-05-25T08:18:16Z</time>
      </trkpt>
      <trkpt lat="45.09973" lon="0.64696">
        <ele>159.6</ele>
        <time>2025-05-25T08:18:17Z</time>
      </trkpt>
      <trkpt lat="45.09983" lon="0.64694">
        <ele>158.6</ele>
        <time>2025-05-25T08:18:18Z</time>
      </trkpt>
      <trkpt lat="45.09992" lon="0.64692">
        <ele>158.2</ele>
        <time>2025-05-25T08:18:19Z</time>
      </trkpt>
      <trkpt lat="45.10001" lon="0.6469">
        <ele>157.6</ele>
        <time>2025-05-25T08:18:20Z</time>
      </trkpt>
      <trkpt lat="45.10009" lon="0.64688">
        <ele>157.2</ele>
        <time>2025-05-25T08:18:21Z</time>
      </trkpt>
      <trkpt lat="45.10017" lon="0.64685">
        <ele>157</ele>
        <time>2025-05-25T08:18:22Z</time>
      </trkpt>
      <trkpt lat="45.10024" lon="0.64682">
        <ele>157</ele>
        <time>2025-05-25T08:18:23Z</time>
      </trkpt>
      <trkpt lat="45.10029" lon="0.64679">
        <ele>156.8</ele>
        <time>2025-05-25T08:18:24Z</time>
      </trkpt>
      <trkpt lat="45.10034" lon="0.64677">
        <ele>156.6</ele>
        <time>2025-05-25T08:18:25Z</time>
      </trkpt>
      <trkpt lat="45.10038" lon="0.64675">
        <ele>156.6</ele>
        <time>2025-05-25T08:18:26Z</time>
      </trkpt>
      <trkpt lat="45.10043" lon="0.64674">
        <ele>156.4</ele>
        <time>2025-05-25T08:18:27Z</time>
      </trkpt>
      <trkpt lat="45.10047" lon="0.64673">
        <ele>156.2</ele>
        <time>2025-05-25T08:18:28Z</time>
      </trkpt>
      <trkpt lat="45.10051" lon="0.64672">
        <ele>156.2</ele>
        <time>2025-05-25T08:18:29Z</time>
      </trkpt>
      <trkpt lat="45.10055" lon="0.64671">
        <ele>156</ele>
        <time>2025-05-25T08:18:30Z</time>
      </trkpt>
      <trkpt lat="45.10059" lon="0.6467">
        <ele>155.8</ele>
        <time>2025-05-25T08:18:31Z</time>
      </trkpt>
      <trkpt lat="45.10064" lon="0.64668">
        <ele>155.6</ele>
        <time>2025-05-25T08:18:32Z</time>
      </trkpt>
      <trkpt lat="45.10068" lon="0.64666">
        <ele>155.4</ele>
        <time>2025-05-25T08:18:33Z</time>
      </trkpt>
      <trkpt lat="45.10073" lon="0.64664">
        <ele>155</ele>
        <time>2025-05-25T08:18:34Z</time>
      </trkpt>
      <trkpt lat="45.10078" lon="0.64662">
        <ele>154.6</ele>
        <time>2025-05-25T08:18:35Z</time>
      </trkpt>
      <trkpt lat="45.10083" lon="0.6466">
        <ele>153.8</ele>
        <time>2025-05-25T08:18:36Z</time>
      </trkpt>
      <trkpt lat="45.10089" lon="0.64658">
        <ele>153</ele>
        <time>2025-05-25T08:18:37Z</time>
      </trkpt>
      <trkpt lat="45.10095" lon="0.64656">
        <ele>152.2</ele>
        <time>2025-05-25T08:18:38Z</time>
      </trkpt>
      <trkpt lat="45.10101" lon="0.64653">
        <ele>151</ele>
        <time>2025-05-25T08:18:39Z</time>
      </trkpt>
      <trkpt lat="45.10107" lon="0.64651">
        <ele>148.8</ele>
        <time>2025-05-25T08:18:40Z</time>
      </trkpt>
      <trkpt lat="45.10113" lon="0.64651">
        <ele>147.4</ele>
        <time>2025-05-25T08:18:41Z</time>
      </trkpt>
      <trkpt lat="45.10119" lon="0.64652">
        <ele>145.8</ele>
        <time>2025-05-25T08:18:42Z</time>
      </trkpt>
      <trkpt lat="45.10124" lon="0.64656">
        <ele>144.4</ele>
        <time>2025-05-25T08:18:43Z</time>
      </trkpt>
      <trkpt lat="45.1013" lon="0.64663">
        <ele>143</ele>
        <time>2025-05-25T08:18:44Z</time>
      </trkpt>
      <trkpt lat="45.10135" lon="0.6467">
        <ele>141.6</ele>
        <time>2025-05-25T08:18:45Z</time>
      </trkpt>
      <trkpt lat="45.10141" lon="0.64677">
        <ele>140.4</ele>
        <time>2025-05-25T08:18:46Z</time>
      </trkpt>
      <trkpt lat="45.10148" lon="0.64684">
        <ele>139.6</ele>
        <time>2025-05-25T08:18:47Z</time>
      </trkpt>
      <trkpt lat="45.10154" lon="0.64693">
        <ele>138.6</ele>
        <time>2025-05-25T08:18:48Z</time>
      </trkpt>
      <trkpt lat="45.10161" lon="0.64701">
        <ele>137.8</ele>
        <time>2025-05-25T08:18:49Z</time>
      </trkpt>
      <trkpt lat="45.10167" lon="0.64709">
        <ele>137</ele>
        <time>2025-05-25T08:18:50Z</time>
      </trkpt>
      <trkpt lat="45.10174" lon="0.64718">
        <ele>136.2</ele>
        <time>2025-05-25T08:18:51Z</time>
      </trkpt>
      <trkpt lat="45.10182" lon="0.64727">
        <ele>135.6</ele>
        <time>2025-05-25T08:18:52Z</time>
      </trkpt>
      <trkpt lat="45.10189" lon="0.64736">
        <ele>134.8</ele>
        <time>2025-05-25T08:18:53Z</time>
      </trkpt>
      <trkpt lat="45.10196" lon="0.64745">
        <ele>134</ele>
        <time>2025-05-25T08:18:54Z</time>
      </trkpt>
      <trkpt lat="45.10204" lon="0.64754">
        <ele>133.2</ele>
        <time>2025-05-25T08:18:55Z</time>
      </trkpt>
      <trkpt lat="45.1021" lon="0.64763">
        <ele>132.4</ele>
        <time>2025-05-25T08:18:56Z</time>
      </trkpt>
      <trkpt lat="45.10215" lon="0.6477">
        <ele>132</ele>
        <time>2025-05-25T08:18:57Z</time>
      </trkpt>
      <trkpt lat="45.1022" lon="0.64774">
        <ele>131.8</ele>
        <time>2025-05-25T08:18:58Z</time>
      </trkpt>
      <trkpt lat="45.10226" lon="0.64778">
        <ele>131.8</ele>
        <time>2025-05-25T08:18:59Z</time>
      </trkpt>
      <trkpt lat="45.10232" lon="0.64781">
        <ele>131.8</ele>
        <time>2025-05-25T08:19:00Z</time>
      </trkpt>
      <trkpt lat="45.10238" lon="0.64782">
        <ele>132</ele>
        <time>2025-05-25T08:19:01Z</time>
      </trkpt>
      <trkpt lat="45.10244" lon="0.64783">
        <ele>132.2</ele>
        <time>2025-05-25T08:19:02Z</time>
      </trkpt>
      <trkpt lat="45.1025" lon="0.64783">
        <ele>132.2</ele>
        <time>2025-05-25T08:19:03Z</time>
      </trkpt>
      <trkpt lat="45.10256" lon="0.64783">
        <ele>132.4</ele>
        <time>2025-05-25T08:19:04Z</time>
      </trkpt>
      <trkpt lat="45.10261" lon="0.64782">
        <ele>132.8</ele>
        <time>2025-05-25T08:19:05Z</time>
      </trkpt>
      <trkpt lat="45.10267" lon="0.64781">
        <ele>133</ele>
        <time>2025-05-25T08:19:06Z</time>
      </trkpt>
      <trkpt lat="45.10272" lon="0.64779">
        <ele>133.2</ele>
        <time>2025-05-25T08:19:07Z</time>
      </trkpt>
      <trkpt lat="45.10277" lon="0.64777">
        <ele>133.6</ele>
        <time>2025-05-25T08:19:08Z</time>
      </trkpt>
      <trkpt lat="45.10281" lon="0.64774">
        <ele>133.8</ele>
        <time>2025-05-25T08:19:09Z</time>
      </trkpt>
      <trkpt lat="45.10285" lon="0.64771">
        <ele>134.2</ele>
        <time>2025-05-25T08:19:10Z</time>
      </trkpt>
      <trkpt lat="45.10288" lon="0.64768">
        <ele>134.6</ele>
        <time>2025-05-25T08:19:11Z</time>
      </trkpt>
      <trkpt lat="45.10291" lon="0.64765">
        <ele>135</ele>
        <time>2025-05-25T08:19:12Z</time>
      </trkpt>
      <trkpt lat="45.10294" lon="0.64761">
        <ele>135.6</ele>
        <time>2025-05-25T08:19:13Z</time>
      </trkpt>
      <trkpt lat="45.10297" lon="0.64757">
        <ele>136</ele>
        <time>2025-05-25T08:19:14Z</time>
      </trkpt>
      <trkpt lat="45.10299" lon="0.64753">
        <ele>136.4</ele>
        <time>2025-05-25T08:19:15Z</time>
      </trkpt>
      <trkpt lat="45.10302" lon="0.64748">
        <ele>136.8</ele>
        <time>2025-05-25T08:19:16Z</time>
      </trkpt>
      <trkpt lat="45.10304" lon="0.64744">
        <ele>137</ele>
        <time>2025-05-25T08:19:17Z</time>
      </trkpt>
      <trkpt lat="45.10306" lon="0.64738">
        <ele>137.2</ele>
        <time>2025-05-25T08:19:18Z</time>
      </trkpt>
      <trkpt lat="45.10308" lon="0.64733">
        <ele>137.4</ele>
        <time>2025-05-25T08:19:19Z</time>
      </trkpt>
      <trkpt lat="45.1031" lon="0.64727">
        <ele>137.6</ele>
        <time>2025-05-25T08:19:20Z</time>
      </trkpt>
      <trkpt lat="45.10311" lon="0.64722">
        <ele>137.8</ele>
        <time>2025-05-25T08:19:21Z</time>
      </trkpt>
      <trkpt lat="45.10312" lon="0.64716">
        <ele>138</ele>
        <time>2025-05-25T08:19:22Z</time>
      </trkpt>
      <trkpt lat="45.10313" lon="0.6471">
        <ele>138</ele>
        <time>2025-05-25T08:19:23Z</time>
      </trkpt>
      <trkpt lat="45.10314" lon="0.64704">
        <ele>138</ele>
        <time>2025-05-25T08:19:24Z</time>
      </trkpt>
      <trkpt lat="45.10315" lon="0.64698">
        <ele>138.2</ele>
        <time>2025-05-25T08:19:25Z</time>
      </trkpt>
      <trkpt lat="45.10315" lon="0.64692">
        <ele>138.2</ele>
        <time>2025-05-25T08:19:26Z</time>
      </trkpt>
      <trkpt lat="45.10316" lon="0.64686">
        <ele>138.2</ele>
        <time>2025-05-25T08:19:27Z</time>
      </trkpt>
      <trkpt lat="45.10316" lon="0.6468">
        <ele>138.2</ele>
        <time>2025-05-25T08:19:28Z</time>
      </trkpt>
      <trkpt lat="45.10317" lon="0.64674">
        <ele>138.4</ele>
        <time>2025-05-25T08:19:29Z</time>
      </trkpt>
      <trkpt lat="45.10317" lon="0.64668">
        <ele>138.4</ele>
        <time>2025-05-25T08:19:30Z</time>
      </trkpt>
      <trkpt lat="45.10317" lon="0.64662">
        <ele>138.6</ele>
        <time>2025-05-25T08:19:31Z</time>
      </trkpt>
      <trkpt lat="45.10318" lon="0.64656">
        <ele>138.6</ele>
        <time>2025-05-25T08:19:32Z</time>
      </trkpt>
      <trkpt lat="45.10318" lon="0.64649">
        <ele>138.8</ele>
        <time>2025-05-25T08:19:33Z</time>
      </trkpt>
      <trkpt lat="45.10318" lon="0.64643">
        <ele>138.8</ele>
        <time>2025-05-25T08:19:34Z</time>
      </trkpt>
      <trkpt lat="45.10318" lon="0.64636">
        <ele>138.6</ele>
        <time>2025-05-25T08:19:35Z</time>
      </trkpt>
      <trkpt lat="45.10319" lon="0.6463">
        <ele>138.6</ele>
        <time>2025-05-25T08:19:36Z</time>
      </trkpt>
      <trkpt lat="45.10319" lon="0.64623">
        <ele>138.4</ele>
        <time>2025-05-25T08:19:37Z</time>
      </trkpt>
      <trkpt lat="45.1032" lon="0.64617">
        <ele>138.4</ele>
        <time>2025-05-25T08:19:38Z</time>
      </trkpt>
      <trkpt lat="45.10321" lon="0.64611">
        <ele>138.4</ele>
        <time>2025-05-25T08:19:39Z</time>
      </trkpt>
      <trkpt lat="45.10322" lon="0.64605">
        <ele>138.6</ele>
        <time>2025-05-25T08:19:40Z</time>
      </trkpt>
      <trkpt lat="45.10322" lon="0.64598">
        <ele>138.6</ele>
        <time>2025-05-25T08:19:41Z</time>
      </trkpt>
      <trkpt lat="45.10323" lon="0.64592">
        <ele>138.8</ele>
        <time>2025-05-25T08:19:42Z</time>
      </trkpt>
      <trkpt lat="45.10324" lon="0.64586">
        <ele>139</ele>
        <time>2025-05-25T08:19:43Z</time>
      </trkpt>
      <trkpt lat="45.10325" lon="0.6458">
        <ele>139</ele>
        <time>2025-05-25T08:19:44Z</time>
      </trkpt>
      <trkpt lat="45.10327" lon="0.64575">
        <ele>139.2</ele>
        <time>2025-05-25T08:19:45Z</time>
      </trkpt>
      <trkpt lat="45.1033" lon="0.6457">
        <ele>139.4</ele>
        <time>2025-05-25T08:19:46Z</time>
      </trkpt>
      <trkpt lat="45.10334" lon="0.64565">
        <ele>139.4</ele>
        <time>2025-05-25T08:19:47Z</time>
      </trkpt>
      <trkpt lat="45.10338" lon="0.64561">
        <ele>139.4</ele>
        <time>2025-05-25T08:19:48Z</time>
      </trkpt>
      <trkpt lat="45.10342" lon="0.64557">
        <ele>139.4</ele>
        <time>2025-05-25T08:19:49Z</time>
      </trkpt>
      <trkpt lat="45.10347" lon="0.64554">
        <ele>139.4</ele>
        <time>2025-05-25T08:19:50Z</time>
      </trkpt>
      <trkpt lat="45.10352" lon="0.64552">
        <ele>139.4</ele>
        <time>2025-05-25T08:19:51Z</time>
      </trkpt>
      <trkpt lat="45.10358" lon="0.64551">
        <ele>139.4</ele>
        <time>2025-05-25T08:19:52Z</time>
      </trkpt>
      <trkpt lat="45.10364" lon="0.6455">
        <ele>139.6</ele>
        <time>2025-05-25T08:19:53Z</time>
      </trkpt>
      <trkpt lat="45.10369" lon="0.64549">
        <ele>139.6</ele>
        <time>2025-05-25T08:19:54Z</time>
      </trkpt>
      <trkpt lat="45.10375" lon="0.6455">
        <ele>139.6</ele>
        <time>2025-05-25T08:19:55Z</time>
      </trkpt>
      <trkpt lat="45.10381" lon="0.6455">
        <ele>139.6</ele>
        <time>2025-05-25T08:19:56Z</time>
      </trkpt>
      <trkpt lat="45.10386" lon="0.6455">
        <ele>139.6</ele>
        <time>2025-05-25T08:19:57Z</time>
      </trkpt>
      <trkpt lat="45.10392" lon="0.64551">
        <ele>139.6</ele>
        <time>2025-05-25T08:19:58Z</time>
      </trkpt>
      <trkpt lat="45.10398" lon="0.64551">
        <ele>139.4</ele>
        <time>2025-05-25T08:19:59Z</time>
      </trkpt>
      <trkpt lat="45.10404" lon="0.64552">
        <ele>139.2</ele>
        <time>2025-05-25T08:20:00Z</time>
      </trkpt>
      <trkpt lat="45.1041" lon="0.64553">
        <ele>139.2</ele>
        <time>2025-05-25T08:20:01Z</time>
      </trkpt>
      <trkpt lat="45.10417" lon="0.64555">
        <ele>139</ele>
        <time>2025-05-25T08:20:02Z</time>
      </trkpt>
      <trkpt lat="45.10423" lon="0.64556">
        <ele>138.8</ele>
        <time>2025-05-25T08:20:03Z</time>
      </trkpt>
      <trkpt lat="45.1043" lon="0.64557">
        <ele>138.2</ele>
        <time>2025-05-25T08:20:04Z</time>
      </trkpt>
      <trkpt lat="45.10437" lon="0.64558">
        <ele>138</ele>
        <time>2025-05-25T08:20:05Z</time>
      </trkpt>
      <trkpt lat="45.10443" lon="0.6456">
        <ele>137.6</ele>
        <time>2025-05-25T08:20:06Z</time>
      </trkpt>
      <trkpt lat="45.1045" lon="0.64561">
        <ele>137.2</ele>
        <time>2025-05-25T08:20:07Z</time>
      </trkpt>
      <trkpt lat="45.10456" lon="0.64563">
        <ele>137</ele>
        <time>2025-05-25T08:20:08Z</time>
      </trkpt>
      <trkpt lat="45.10463" lon="0.64564">
        <ele>136.8</ele>
        <time>2025-05-25T08:20:09Z</time>
      </trkpt>
      <trkpt lat="45.1047" lon="0.64565">
        <ele>136.8</ele>
        <time>2025-05-25T08:20:10Z</time>
      </trkpt>
      <trkpt lat="45.10477" lon="0.64566">
        <ele>137</ele>
        <time>2025-05-25T08:20:11Z</time>
      </trkpt>
      <trkpt lat="45.10484" lon="0.64566">
        <ele>137.2</ele>
        <time>2025-05-25T08:20:12Z</time>
      </trkpt>
      <trkpt lat="45.1049" lon="0.64567">
        <ele>137.4</ele>
        <time>2025-05-25T08:20:13Z</time>
      </trkpt>
      <trkpt lat="45.10497" lon="0.64566">
        <ele>137.6</ele>
        <time>2025-05-25T08:20:14Z</time>
      </trkpt>
      <trkpt lat="45.10504" lon="0.64566">
        <ele>137.6</ele>
        <time>2025-05-25T08:20:15Z</time>
      </trkpt>
      <trkpt lat="45.1051" lon="0.64566">
        <ele>137.6</ele>
        <time>2025-05-25T08:20:16Z</time>
      </trkpt>
      <trkpt lat="45.10517" lon="0.64564">
        <ele>137.6</ele>
        <time>2025-05-25T08:20:17Z</time>
      </trkpt>
      <trkpt lat="45.10523" lon="0.64563">
        <ele>137.4</ele>
        <time>2025-05-25T08:20:18Z</time>
      </trkpt>
      <trkpt lat="45.1053" lon="0.64561">
        <ele>137.4</ele>
        <time>2025-05-25T08:20:19Z</time>
      </trkpt>
      <trkpt lat="45.10536" lon="0.64559">
        <ele>137.2</ele>
        <time>2025-05-25T08:20:20Z</time>
      </trkpt>
      <trkpt lat="45.10543" lon="0.64555">
        <ele>137</ele>
        <time>2025-05-25T08:20:21Z</time>
      </trkpt>
      <trkpt lat="45.10549" lon="0.64552">
        <ele>137</ele>
        <time>2025-05-25T08:20:22Z</time>
      </trkpt>
      <trkpt lat="45.10556" lon="0.64547">
        <ele>137</ele>
        <time>2025-05-25T08:20:23Z</time>
      </trkpt>
      <trkpt lat="45.10562" lon="0.64544">
        <ele>137</ele>
        <time>2025-05-25T08:20:24Z</time>
      </trkpt>
      <trkpt lat="45.10569" lon="0.6454">
        <ele>137</ele>
        <time>2025-05-25T08:20:25Z</time>
      </trkpt>
      <trkpt lat="45.10575" lon="0.64536">
        <ele>137</ele>
        <time>2025-05-25T08:20:26Z</time>
      </trkpt>
      <trkpt lat="45.10581" lon="0.64532">
        <ele>137</ele>
        <time>2025-05-25T08:20:27Z</time>
      </trkpt>
      <trkpt lat="45.10588" lon="0.64528">
        <ele>136.8</ele>
        <time>2025-05-25T08:20:28Z</time>
      </trkpt>
      <trkpt lat="45.10594" lon="0.64525">
        <ele>136.8</ele>
        <time>2025-05-25T08:20:29Z</time>
      </trkpt>
      <trkpt lat="45.106" lon="0.64521">
        <ele>136.8</ele>
        <time>2025-05-25T08:20:30Z</time>
      </trkpt>
      <trkpt lat="45.10607" lon="0.64519">
        <ele>136.8</ele>
        <time>2025-05-25T08:20:31Z</time>
      </trkpt>
      <trkpt lat="45.10614" lon="0.64516">
        <ele>137</ele>
        <time>2025-05-25T08:20:32Z</time>
      </trkpt>
      <trkpt lat="45.10621" lon="0.64515">
        <ele>137.2</ele>
        <time>2025-05-25T08:20:33Z</time>
      </trkpt>
      <trkpt lat="45.10628" lon="0.64513">
        <ele>137.4</ele>
        <time>2025-05-25T08:20:34Z</time>
      </trkpt>
      <trkpt lat="45.10634" lon="0.64512">
        <ele>137.6</ele>
        <time>2025-05-25T08:20:35Z</time>
      </trkpt>
      <trkpt lat="45.1064" lon="0.64511">
        <ele>137.8</ele>
        <time>2025-05-25T08:20:36Z</time>
      </trkpt>
      <trkpt lat="45.10646" lon="0.64511">
        <ele>138</ele>
        <time>2025-05-25T08:20:37Z</time>
      </trkpt>
      <trkpt lat="45.10651" lon="0.64512">
        <ele>138.2</ele>
        <time>2025-05-25T08:20:38Z</time>
      </trkpt>
      <trkpt lat="45.10656" lon="0.64513">
        <ele>138.6</ele>
        <time>2025-05-25T08:20:39Z</time>
      </trkpt>
      <trkpt lat="45.10661" lon="0.64515">
        <ele>139</ele>
        <time>2025-05-25T08:20:40Z</time>
      </trkpt>
      <trkpt lat="45.10666" lon="0.64516">
        <ele>139.4</ele>
        <time>2025-05-25T08:20:41Z</time>
      </trkpt>
      <trkpt lat="45.10669" lon="0.64518">
        <ele>139.8</ele>
        <time>2025-05-25T08:20:42Z</time>
      </trkpt>
      <trkpt lat="45.10673" lon="0.64519">
        <ele>140.4</ele>
        <time>2025-05-25T08:20:43Z</time>
      </trkpt>
      <trkpt lat="45.10677" lon="0.64521">
        <ele>140.8</ele>
        <time>2025-05-25T08:20:44Z</time>
      </trkpt>
      <trkpt lat="45.1068" lon="0.64522">
        <ele>141.2</ele>
        <time>2025-05-25T08:20:45Z</time>
      </trkpt>
      <trkpt lat="45.10683" lon="0.64524">
        <ele>141.6</ele>
        <time>2025-05-25T08:20:46Z</time>
      </trkpt>
      <trkpt lat="45.10687" lon="0.64526">
        <ele>141.8</ele>
        <time>2025-05-25T08:20:47Z</time>
      </trkpt>
      <trkpt lat="45.1069" lon="0.64529">
        <ele>142</ele>
        <time>2025-05-25T08:20:48Z</time>
      </trkpt>
      <trkpt lat="45.10693" lon="0.64531">
        <ele>142.2</ele>
        <time>2025-05-25T08:20:49Z</time>
      </trkpt>
      <trkpt lat="45.10696" lon="0.64533">
        <ele>142.4</ele>
        <time>2025-05-25T08:20:50Z</time>
      </trkpt>
      <trkpt lat="45.10699" lon="0.64536">
        <ele>142.6</ele>
        <time>2025-05-25T08:20:51Z</time>
      </trkpt>
      <trkpt lat="45.10701" lon="0.64538">
        <ele>142.8</ele>
        <time>2025-05-25T08:20:52Z</time>
      </trkpt>
      <trkpt lat="45.10704" lon="0.64541">
        <ele>143</ele>
        <time>2025-05-25T08:20:53Z</time>
      </trkpt>
      <trkpt lat="45.10707" lon="0.64543">
        <ele>143.4</ele>
        <time>2025-05-25T08:20:54Z</time>
      </trkpt>
      <trkpt lat="45.10711" lon="0.64545">
        <ele>143.6</ele>
        <time>2025-05-25T08:20:55Z</time>
      </trkpt>
      <trkpt lat="45.10714" lon="0.64547">
        <ele>143.8</ele>
        <time>2025-05-25T08:20:56Z</time>
      </trkpt>
      <trkpt lat="45.10716" lon="0.6455">
        <ele>144</ele>
        <time>2025-05-25T08:20:57Z</time>
      </trkpt>
      <trkpt lat="45.1072" lon="0.64551">
        <ele>144.2</ele>
        <time>2025-05-25T08:20:58Z</time>
      </trkpt>
      <trkpt lat="45.10723" lon="0.64552">
        <ele>144.4</ele>
        <time>2025-05-25T08:20:59Z</time>
      </trkpt>
      <trkpt lat="45.10726" lon="0.6455">
        <ele>144.6</ele>
        <time>2025-05-25T08:21:00Z</time>
      </trkpt>
      <trkpt lat="45.10728" lon="0.64546">
        <ele>144.8</ele>
        <time>2025-05-25T08:21:01Z</time>
      </trkpt>
      <trkpt lat="45.10729" lon="0.64542">
        <ele>144.8</ele>
        <time>2025-05-25T08:21:02Z</time>
      </trkpt>
      <trkpt lat="45.1073" lon="0.64538">
        <ele>145</ele>
        <time>2025-05-25T08:21:03Z</time>
      </trkpt>
      <trkpt lat="45.10731" lon="0.64534">
        <ele>145.2</ele>
        <time>2025-05-25T08:21:04Z</time>
      </trkpt>
      <trkpt lat="45.10732" lon="0.6453">
        <ele>145.4</ele>
        <time>2025-05-25T08:21:05Z</time>
      </trkpt>
      <trkpt lat="45.10732" lon="0.64527">
        <ele>145.8</ele>
        <time>2025-05-25T08:21:06Z</time>
      </trkpt>
      <trkpt lat="45.10734" lon="0.64523">
        <ele>146</ele>
        <time>2025-05-25T08:21:07Z</time>
      </trkpt>
      <trkpt lat="45.10735" lon="0.6452">
        <ele>146.2</ele>
        <time>2025-05-25T08:21:08Z</time>
      </trkpt>
      <trkpt lat="45.10735" lon="0.64517">
        <ele>146.2</ele>
        <time>2025-05-25T08:21:09Z</time>
      </trkpt>
      <trkpt lat="45.10736" lon="0.64514">
        <ele>146.6</ele>
        <time>2025-05-25T08:21:10Z</time>
      </trkpt>
      <trkpt lat="45.10736" lon="0.64511">
        <ele>146.8</ele>
        <time>2025-05-25T08:21:11Z</time>
      </trkpt>
      <trkpt lat="45.10737" lon="0.64508">
        <ele>147</ele>
        <time>2025-05-25T08:21:12Z</time>
      </trkpt>
      <trkpt lat="45.10737" lon="0.64506">
        <ele>147.2</ele>
        <time>2025-05-25T08:21:13Z</time>
      </trkpt>
      <trkpt lat="45.10738" lon="0.64503">
        <ele>147.4</ele>
        <time>2025-05-25T08:21:14Z</time>
      </trkpt>
      <trkpt lat="45.10739" lon="0.64501">
        <ele>147.6</ele>
        <time>2025-05-25T08:21:15Z</time>
      </trkpt>
      <trkpt lat="45.1074" lon="0.64498">
        <ele>147.8</ele>
        <time>2025-05-25T08:21:16Z</time>
      </trkpt>
      <trkpt lat="45.10741" lon="0.64495">
        <ele>147.8</ele>
        <time>2025-05-25T08:21:17Z</time>
      </trkpt>
      <trkpt lat="45.1074" lon="0.64492">
        <ele>148</ele>
        <time>2025-05-25T08:21:18Z</time>
      </trkpt>
      <trkpt lat="45.1074" lon="0.64489">
        <ele>148.2</ele>
        <time>2025-05-25T08:21:19Z</time>
      </trkpt>
      <trkpt lat="45.10738" lon="0.64486">
        <ele>148.2</ele>
        <time>2025-05-25T08:21:20Z</time>
      </trkpt>
      <trkpt lat="45.10735" lon="0.64484">
        <ele>148.2</ele>
        <time>2025-05-25T08:21:21Z</time>
      </trkpt>
      <trkpt lat="45.10732" lon="0.64481">
        <ele>148</ele>
        <time>2025-05-25T08:21:22Z</time>
      </trkpt>
      <trkpt lat="45.10729" lon="0.64479">
        <ele>147.8</ele>
        <time>2025-05-25T08:21:23Z</time>
      </trkpt>
      <trkpt lat="45.10725" lon="0.64476">
        <ele>147.8</ele>
        <time>2025-05-25T08:21:24Z</time>
      </trkpt>
      <trkpt lat="45.10722" lon="0.64473">
        <ele>147.6</ele>
        <time>2025-05-25T08:21:25Z</time>
      </trkpt>
      <trkpt lat="45.10719" lon="0.64471">
        <ele>147.6</ele>
        <time>2025-05-25T08:21:26Z</time>
      </trkpt>
      <trkpt lat="45.10716" lon="0.64468">
        <ele>147.6</ele>
        <time>2025-05-25T08:21:27Z</time>
      </trkpt>
      <trkpt lat="45.10714" lon="0.64466">
        <ele>147.6</ele>
        <time>2025-05-25T08:21:28Z</time>
      </trkpt>
      <trkpt lat="45.10712" lon="0.64464">
        <ele>147.8</ele>
        <time>2025-05-25T08:21:29Z</time>
      </trkpt>
      <trkpt lat="45.10711" lon="0.64462">
        <ele>147.8</ele>
        <time>2025-05-25T08:21:30Z</time>
      </trkpt>
      <trkpt lat="45.10709" lon="0.6446">
        <ele>148</ele>
        <time>2025-05-25T08:21:31Z</time>
      </trkpt>
      <trkpt lat="45.10708" lon="0.64458">
        <ele>148.2</ele>
        <time>2025-05-25T08:21:32Z</time>
      </trkpt>
      <trkpt lat="45.10706" lon="0.64457">
        <ele>148.6</ele>
        <time>2025-05-25T08:21:33Z</time>
      </trkpt>
      <trkpt lat="45.10704" lon="0.64456">
        <ele>148.8</ele>
        <time>2025-05-25T08:21:34Z</time>
      </trkpt>
      <trkpt lat="45.10703" lon="0.64456">
        <ele>149.2</ele>
        <time>2025-05-25T08:21:35Z</time>
      </trkpt>
      <trkpt lat="45.10701" lon="0.64455">
        <ele>149.4</ele>
        <time>2025-05-25T08:21:36Z</time>
      </trkpt>
      <trkpt lat="45.107" lon="0.64453">
        <ele>149.8</ele>
        <time>2025-05-25T08:21:37Z</time>
      </trkpt>
      <trkpt lat="45.10699" lon="0.64452">
        <ele>150.2</ele>
        <time>2025-05-25T08:21:38Z</time>
      </trkpt>
      <trkpt lat="45.10697" lon="0.64451">
        <ele>150.6</ele>
        <time>2025-05-25T08:21:39Z</time>
      </trkpt>
      <trkpt lat="45.10696" lon="0.6445">
        <ele>151</ele>
        <time>2025-05-25T08:21:40Z</time>
      </trkpt>
      <trkpt lat="45.10694" lon="0.64449">
        <ele>151.2</ele>
        <time>2025-05-25T08:21:41Z</time>
      </trkpt>
      <trkpt lat="45.10693" lon="0.64448">
        <ele>151.6</ele>
        <time>2025-05-25T08:21:42Z</time>
      </trkpt>
      <trkpt lat="45.10692" lon="0.64446">
        <ele>151.8</ele>
        <time>2025-05-25T08:21:43Z</time>
      </trkpt>
      <trkpt lat="45.1069" lon="0.64445">
        <ele>152.2</ele>
        <time>2025-05-25T08:21:44Z</time>
      </trkpt>
      <trkpt lat="45.10689" lon="0.64443">
        <ele>152.4</ele>
        <time>2025-05-25T08:21:45Z</time>
      </trkpt>
      <trkpt lat="45.10687" lon="0.64441">
        <ele>152.6</ele>
        <time>2025-05-25T08:21:46Z</time>
      </trkpt>
      <trkpt lat="45.10685" lon="0.6444">
        <ele>152.8</ele>
        <time>2025-05-25T08:21:47Z</time>
      </trkpt>
      <trkpt lat="45.10684" lon="0.64438">
        <ele>153</ele>
        <time>2025-05-25T08:21:48Z</time>
      </trkpt>
      <trkpt lat="45.10682" lon="0.64437">
        <ele>153.2</ele>
        <time>2025-05-25T08:21:49Z</time>
      </trkpt>
      <trkpt lat="45.1068" lon="0.64435">
        <ele>153.6</ele>
        <time>2025-05-25T08:21:50Z</time>
      </trkpt>
      <trkpt lat="45.10678" lon="0.64433">
        <ele>153.8</ele>
        <time>2025-05-25T08:21:51Z</time>
      </trkpt>
      <trkpt lat="45.10676" lon="0.64432">
        <ele>154</ele>
        <time>2025-05-25T08:21:52Z</time>
      </trkpt>
      <trkpt lat="45.10674" lon="0.6443">
        <ele>154.2</ele>
        <time>2025-05-25T08:21:53Z</time>
      </trkpt>
      <trkpt lat="45.10672" lon="0.64429">
        <ele>154.4</ele>
        <time>2025-05-25T08:21:54Z</time>
      </trkpt>
      <trkpt lat="45.10671" lon="0.64427">
        <ele>154.6</ele>
        <time>2025-05-25T08:21:55Z</time>
      </trkpt>
      <trkpt lat="45.10669" lon="0.64426">
        <ele>154.6</ele>
        <time>2025-05-25T08:21:56Z</time>
      </trkpt>
      <trkpt lat="45.10667" lon="0.64424">
        <ele>154.8</ele>
        <time>2025-05-25T08:21:57Z</time>
      </trkpt>
      <trkpt lat="45.10665" lon="0.64422">
        <ele>154.8</ele>
        <time>2025-05-25T08:21:58Z</time>
      </trkpt>
      <trkpt lat="45.10663" lon="0.6442">
        <ele>155</ele>
        <time>2025-05-25T08:21:59Z</time>
      </trkpt>
      <trkpt lat="45.10661" lon="0.64418">
        <ele>155</ele>
        <time>2025-05-25T08:22:00Z</time>
      </trkpt>
      <trkpt lat="45.10658" lon="0.64416">
        <ele>155.2</ele>
        <time>2025-05-25T08:22:01Z</time>
      </trkpt>
      <trkpt lat="45.10656" lon="0.64414">
        <ele>155.2</ele>
        <time>2025-05-25T08:22:02Z</time>
      </trkpt>
      <trkpt lat="45.10653" lon="0.64412">
        <ele>155.2</ele>
        <time>2025-05-25T08:22:03Z</time>
      </trkpt>
      <trkpt lat="45.10651" lon="0.6441">
        <ele>155.4</ele>
        <time>2025-05-25T08:22:04Z</time>
      </trkpt>
      <trkpt lat="45.10649" lon="0.64407">
        <ele>155.2</ele>
        <time>2025-05-25T08:22:05Z</time>
      </trkpt>
      <trkpt lat="45.10646" lon="0.64405">
        <ele>155.2</ele>
        <time>2025-05-25T08:22:06Z</time>
      </trkpt>
      <trkpt lat="45.10643" lon="0.64403">
        <ele>155.4</ele>
        <time>2025-05-25T08:22:07Z</time>
      </trkpt>
      <trkpt lat="45.1064" lon="0.64401">
        <ele>155.4</ele>
        <time>2025-05-25T08:22:08Z</time>
      </trkpt>
      <trkpt lat="45.10637" lon="0.64398">
        <ele>155.2</ele>
        <time>2025-05-25T08:22:09Z</time>
      </trkpt>
      <trkpt lat="45.10634" lon="0.64396">
        <ele>155.2</ele>
        <time>2025-05-25T08:22:10Z</time>
      </trkpt>
      <trkpt lat="45.10631" lon="0.64393">
        <ele>155.2</ele>
        <time>2025-05-25T08:22:11Z</time>
      </trkpt>
      <trkpt lat="45.10628" lon="0.6439">
        <ele>155.2</ele>
        <time>2025-05-25T08:22:12Z</time>
      </trkpt>
      <trkpt lat="45.10625" lon="0.64388">
        <ele>155.2</ele>
        <time>2025-05-25T08:22:13Z</time>
      </trkpt>
      <trkpt lat="45.10622" lon="0.64386">
        <ele>155.4</ele>
        <time>2025-05-25T08:22:14Z</time>
      </trkpt>
      <trkpt lat="45.10619" lon="0.64384">
        <ele>155.4</ele>
        <time>2025-05-25T08:22:15Z</time>
      </trkpt>
      <trkpt lat="45.10616" lon="0.64381">
        <ele>155.6</ele>
        <time>2025-05-25T08:22:16Z</time>
      </trkpt>
      <trkpt lat="45.10613" lon="0.64378">
        <ele>155.6</ele>
        <time>2025-05-25T08:22:17Z</time>
      </trkpt>
      <trkpt lat="45.10609" lon="0.64376">
        <ele>155.6</ele>
        <time>2025-05-25T08:22:18Z</time>
      </trkpt>
      <trkpt lat="45.10606" lon="0.64373">
        <ele>155.6</ele>
        <time>2025-05-25T08:22:19Z</time>
      </trkpt>
      <trkpt lat="45.10603" lon="0.64371">
        <ele>155.6</ele>
        <time>2025-05-25T08:22:20Z</time>
      </trkpt>
      <trkpt lat="45.10599" lon="0.64369">
        <ele>155.6</ele>
        <time>2025-05-25T08:22:21Z</time>
      </trkpt>
      <trkpt lat="45.10596" lon="0.64367">
        <ele>155.6</ele>
        <time>2025-05-25T08:22:22Z</time>
      </trkpt>
      <trkpt lat="45.10592" lon="0.64363">
        <ele>155.6</ele>
        <time>2025-05-25T08:22:23Z</time>
      </trkpt>
      <trkpt lat="45.10589" lon="0.64359">
        <ele>155.6</ele>
        <time>2025-05-25T08:22:24Z</time>
      </trkpt>
      <trkpt lat="45.10585" lon="0.64357">
        <ele>155.6</ele>
        <time>2025-05-25T08:22:25Z</time>
      </trkpt>
      <trkpt lat="45.10581" lon="0.64354">
        <ele>155.8</ele>
        <time>2025-05-25T08:22:26Z</time>
      </trkpt>
      <trkpt lat="45.10577" lon="0.64351">
        <ele>155.8</ele>
        <time>2025-05-25T08:22:27Z</time>
      </trkpt>
      <trkpt lat="45.10573" lon="0.64349">
        <ele>155.8</ele>
        <time>2025-05-25T08:22:28Z</time>
      </trkpt>
      <trkpt lat="45.10569" lon="0.64346">
        <ele>155.6</ele>
        <time>2025-05-25T08:22:29Z</time>
      </trkpt>
      <trkpt lat="45.10564" lon="0.64343">
        <ele>155.6</ele>
        <time>2025-05-25T08:22:30Z</time>
      </trkpt>
      <trkpt lat="45.1056" lon="0.64341">
        <ele>155.4</ele>
        <time>2025-05-25T08:22:31Z</time>
      </trkpt>
      <trkpt lat="45.10555" lon="0.64338">
        <ele>155.4</ele>
        <time>2025-05-25T08:22:32Z</time>
      </trkpt>
      <trkpt lat="45.1055" lon="0.64335">
        <ele>155.4</ele>
        <time>2025-05-25T08:22:33Z</time>
      </trkpt>
      <trkpt lat="45.10545" lon="0.64332">
        <ele>155.2</ele>
        <time>2025-05-25T08:22:34Z</time>
      </trkpt>
      <trkpt lat="45.1054" lon="0.64329">
        <ele>155.2</ele>
        <time>2025-05-25T08:22:35Z</time>
      </trkpt>
      <trkpt lat="45.10536" lon="0.64327">
        <ele>155.2</ele>
        <time>2025-05-25T08:22:36Z</time>
      </trkpt>
      <trkpt lat="45.10531" lon="0.64325">
        <ele>155</ele>
        <time>2025-05-25T08:22:37Z</time>
      </trkpt>
      <trkpt lat="45.10527" lon="0.64322">
        <ele>155</ele>
        <time>2025-05-25T08:22:38Z</time>
      </trkpt>
      <trkpt lat="45.10521" lon="0.64319">
        <ele>154.8</ele>
        <time>2025-05-25T08:22:39Z</time>
      </trkpt>
      <trkpt lat="45.10517" lon="0.64316">
        <ele>154.8</ele>
        <time>2025-05-25T08:22:40Z</time>
      </trkpt>
      <trkpt lat="45.10511" lon="0.64313">
        <ele>154.6</ele>
        <time>2025-05-25T08:22:41Z</time>
      </trkpt>
      <trkpt lat="45.10506" lon="0.64309">
        <ele>154.6</ele>
        <time>2025-05-25T08:22:42Z</time>
      </trkpt>
      <trkpt lat="45.10501" lon="0.64306">
        <ele>154.4</ele>
        <time>2025-05-25T08:22:43Z</time>
      </trkpt>
      <trkpt lat="45.10495" lon="0.64303">
        <ele>154.4</ele>
        <time>2025-05-25T08:22:44Z</time>
      </trkpt>
      <trkpt lat="45.1049" lon="0.64299">
        <ele>154.4</ele>
        <time>2025-05-25T08:22:45Z</time>
      </trkpt>
      <trkpt lat="45.10486" lon="0.64296">
        <ele>154.4</ele>
        <time>2025-05-25T08:22:46Z</time>
      </trkpt>
      <trkpt lat="45.10481" lon="0.64293">
        <ele>154.6</ele>
        <time>2025-05-25T08:22:47Z</time>
      </trkpt>
      <trkpt lat="45.10478" lon="0.64289">
        <ele>154.6</ele>
        <time>2025-05-25T08:22:48Z</time>
      </trkpt>
      <trkpt lat="45.10475" lon="0.64285">
        <ele>155</ele>
        <time>2025-05-25T08:22:49Z</time>
      </trkpt>
      <trkpt lat="45.10472" lon="0.64282">
        <ele>155.4</ele>
        <time>2025-05-25T08:22:50Z</time>
      </trkpt>
      <trkpt lat="45.10469" lon="0.64279">
        <ele>155.8</ele>
        <time>2025-05-25T08:22:51Z</time>
      </trkpt>
      <trkpt lat="45.10467" lon="0.64275">
        <ele>156.2</ele>
        <time>2025-05-25T08:22:52Z</time>
      </trkpt>
      <trkpt lat="45.10465" lon="0.64272">
        <ele>156.8</ele>
        <time>2025-05-25T08:22:53Z</time>
      </trkpt>
      <trkpt lat="45.10463" lon="0.64269">
        <ele>157.2</ele>
        <time>2025-05-25T08:22:54Z</time>
      </trkpt>
      <trkpt lat="45.1046" lon="0.64266">
        <ele>157.4</ele>
        <time>2025-05-25T08:22:55Z</time>
      </trkpt>
      <trkpt lat="45.10458" lon="0.64263">
        <ele>158</ele>
        <time>2025-05-25T08:22:56Z</time>
      </trkpt>
      <trkpt lat="45.10455" lon="0.6426">
        <ele>158.2</ele>
        <time>2025-05-25T08:22:57Z</time>
      </trkpt>
      <trkpt lat="45.10453" lon="0.64257">
        <ele>158.6</ele>
        <time>2025-05-25T08:22:58Z</time>
      </trkpt>
      <trkpt lat="45.10451" lon="0.64254">
        <ele>158.8</ele>
        <time>2025-05-25T08:22:59Z</time>
      </trkpt>
      <trkpt lat="45.10448" lon="0.64252">
        <ele>159</ele>
        <time>2025-05-25T08:23:00Z</time>
      </trkpt>
      <trkpt lat="45.10446" lon="0.64249">
        <ele>159.4</ele>
        <time>2025-05-25T08:23:01Z</time>
      </trkpt>
      <trkpt lat="45.10444" lon="0.64246">
        <ele>159.8</ele>
        <time>2025-05-25T08:23:02Z</time>
      </trkpt>
      <trkpt lat="45.10442" lon="0.64243">
        <ele>160</ele>
        <time>2025-05-25T08:23:03Z</time>
      </trkpt>
      <trkpt lat="45.1044" lon="0.6424">
        <ele>160.4</ele>
        <time>2025-05-25T08:23:04Z</time>
      </trkpt>
      <trkpt lat="45.10438" lon="0.64238">
        <ele>160.6</ele>
        <time>2025-05-25T08:23:05Z</time>
      </trkpt>
      <trkpt lat="45.10435" lon="0.64235">
        <ele>161</ele>
        <time>2025-05-25T08:23:06Z</time>
      </trkpt>
      <trkpt lat="45.10433" lon="0.64232">
        <ele>161.2</ele>
        <time>2025-05-25T08:23:07Z</time>
      </trkpt>
      <trkpt lat="45.10431" lon="0.64229">
        <ele>161.4</ele>
        <time>2025-05-25T08:23:08Z</time>
      </trkpt>
      <trkpt lat="45.10428" lon="0.64226">
        <ele>161.8</ele>
        <time>2025-05-25T08:23:09Z</time>
      </trkpt>
      <trkpt lat="45.10425" lon="0.64223">
        <ele>162</ele>
        <time>2025-05-25T08:23:10Z</time>
      </trkpt>
      <trkpt lat="45.10423" lon="0.6422">
        <ele>162.2</ele>
        <time>2025-05-25T08:23:11Z</time>
      </trkpt>
      <trkpt lat="45.10421" lon="0.64217">
        <ele>162.2</ele>
        <time>2025-05-25T08:23:12Z</time>
      </trkpt>
      <trkpt lat="45.10419" lon="0.64214">
        <ele>162.4</ele>
        <time>2025-05-25T08:23:13Z</time>
      </trkpt>
      <trkpt lat="45.10416" lon="0.64211">
        <ele>162.4</ele>
        <time>2025-05-25T08:23:14Z</time>
      </trkpt>
      <trkpt lat="45.10414" lon="0.64208">
        <ele>162.6</ele>
        <time>2025-05-25T08:23:15Z</time>
      </trkpt>
      <trkpt lat="45.10411" lon="0.64205">
        <ele>162.6</ele>
        <time>2025-05-25T08:23:16Z</time>
      </trkpt>
      <trkpt lat="45.10409" lon="0.64202">
        <ele>162.8</ele>
        <time>2025-05-25T08:23:17Z</time>
      </trkpt>
      <trkpt lat="45.10406" lon="0.64199">
        <ele>162.8</ele>
        <time>2025-05-25T08:23:18Z</time>
      </trkpt>
      <trkpt lat="45.10404" lon="0.64195">
        <ele>162.8</ele>
        <time>2025-05-25T08:23:19Z</time>
      </trkpt>
      <trkpt lat="45.10402" lon="0.64191">
        <ele>162.6</ele>
        <time>2025-05-25T08:23:20Z</time>
      </trkpt>
      <trkpt lat="45.10399" lon="0.64187">
        <ele>162.6</ele>
        <time>2025-05-25T08:23:21Z</time>
      </trkpt>
      <trkpt lat="45.10395" lon="0.64184">
        <ele>162.4</ele>
        <time>2025-05-25T08:23:22Z</time>
      </trkpt>
      <trkpt lat="45.1039" lon="0.64183">
        <ele>162</ele>
        <time>2025-05-25T08:23:23Z</time>
      </trkpt>
      <trkpt lat="45.10384" lon="0.64184">
        <ele>161.6</ele>
        <time>2025-05-25T08:23:24Z</time>
      </trkpt>
      <trkpt lat="45.10378" lon="0.64187">
        <ele>161</ele>
        <time>2025-05-25T08:23:25Z</time>
      </trkpt>
      <trkpt lat="45.10371" lon="0.64189">
        <ele>160.2</ele>
        <time>2025-05-25T08:23:26Z</time>
      </trkpt>
      <trkpt lat="45.10364" lon="0.64191">
        <ele>159.4</ele>
        <time>2025-05-25T08:23:27Z</time>
      </trkpt>
      <trkpt lat="45.10356" lon="0.64194">
        <ele>158.2</ele>
        <time>2025-05-25T08:23:28Z</time>
      </trkpt>
      <trkpt lat="45.10349" lon="0.64196">
        <ele>157</ele>
        <time>2025-05-25T08:23:29Z</time>
      </trkpt>
      <trkpt lat="45.10342" lon="0.642">
        <ele>155.8</ele>
        <time>2025-05-25T08:23:30Z</time>
      </trkpt>
      <trkpt lat="45.10334" lon="0.64204">
        <ele>154.6</ele>
        <time>2025-05-25T08:23:31Z</time>
      </trkpt>
      <trkpt lat="45.10327" lon="0.64206">
        <ele>153.8</ele>
        <time>2025-05-25T08:23:32Z</time>
      </trkpt>
      <trkpt lat="45.10321" lon="0.64208">
        <ele>152.4</ele>
        <time>2025-05-25T08:23:33Z</time>
      </trkpt>
      <trkpt lat="45.10315" lon="0.64208">
        <ele>150.6</ele>
        <time>2025-05-25T08:23:34Z</time>
      </trkpt>
      <trkpt lat="45.10309" lon="0.64208">
        <ele>149.2</ele>
        <time>2025-05-25T08:23:35Z</time>
      </trkpt>
      <trkpt lat="45.10303" lon="0.64207">
        <ele>148</ele>
        <time>2025-05-25T08:23:36Z</time>
      </trkpt>
      <trkpt lat="45.10296" lon="0.64206">
        <ele>147</ele>
        <time>2025-05-25T08:23:37Z</time>
      </trkpt>
      <trkpt lat="45.1029" lon="0.64203">
        <ele>146</ele>
        <time>2025-05-25T08:23:38Z</time>
      </trkpt>
      <trkpt lat="45.10284" lon="0.642">
        <ele>144.8</ele>
        <time>2025-05-25T08:23:39Z</time>
      </trkpt>
      <trkpt lat="45.10277" lon="0.64196">
        <ele>143.4</ele>
        <time>2025-05-25T08:23:40Z</time>
      </trkpt>
      <trkpt lat="45.10273" lon="0.6419">
        <ele>142.2</ele>
        <time>2025-05-25T08:23:41Z</time>
      </trkpt>
      <trkpt lat="45.1027" lon="0.64182">
        <ele>141.4</ele>
        <time>2025-05-25T08:23:42Z</time>
      </trkpt>
      <trkpt lat="45.10269" lon="0.64173">
        <ele>140.8</ele>
        <time>2025-05-25T08:23:43Z</time>
      </trkpt>
      <trkpt lat="45.10269" lon="0.64165">
        <ele>140.4</ele>
        <time>2025-05-25T08:23:44Z</time>
      </trkpt>
      <trkpt lat="45.1027" lon="0.64156">
        <ele>140</ele>
        <time>2025-05-25T08:23:45Z</time>
      </trkpt>
      <trkpt lat="45.10271" lon="0.64148">
        <ele>139.6</ele>
        <time>2025-05-25T08:23:46Z</time>
      </trkpt>
      <trkpt lat="45.10271" lon="0.64139">
        <ele>139</ele>
        <time>2025-05-25T08:23:47Z</time>
      </trkpt>
      <trkpt lat="45.10271" lon="0.64128">
        <ele>138.4</ele>
        <time>2025-05-25T08:23:48Z</time>
      </trkpt>
      <trkpt lat="45.1027" lon="0.64117">
        <ele>137.6</ele>
        <time>2025-05-25T08:23:49Z</time>
      </trkpt>
      <trkpt lat="45.10267" lon="0.64108">
        <ele>136.4</ele>
        <time>2025-05-25T08:23:50Z</time>
      </trkpt>
      <trkpt lat="45.10263" lon="0.64097">
        <ele>135.2</ele>
        <time>2025-05-25T08:23:51Z</time>
      </trkpt>
      <trkpt lat="45.10258" lon="0.64087">
        <ele>134.2</ele>
        <time>2025-05-25T08:23:52Z</time>
      </trkpt>
      <trkpt lat="45.10254" lon="0.64076">
        <ele>133.2</ele>
        <time>2025-05-25T08:23:53Z</time>
      </trkpt>
      <trkpt lat="45.1025" lon="0.64066">
        <ele>132.4</ele>
        <time>2025-05-25T08:23:54Z</time>
      </trkpt>
      <trkpt lat="45.10246" lon="0.64057">
        <ele>131.8</ele>
        <time>2025-05-25T08:23:55Z</time>
      </trkpt>
      <trkpt lat="45.10241" lon="0.64049">
        <ele>131.4</ele>
        <time>2025-05-25T08:23:56Z</time>
      </trkpt>
      <trkpt lat="45.10238" lon="0.64042">
        <ele>131.6</ele>
        <time>2025-05-25T08:23:57Z</time>
      </trkpt>
      <trkpt lat="45.10235" lon="0.64036">
        <ele>132</ele>
        <time>2025-05-25T08:23:58Z</time>
      </trkpt>
      <trkpt lat="45.10233" lon="0.64032">
        <ele>132.6</ele>
        <time>2025-05-25T08:23:59Z</time>
      </trkpt>
      <trkpt lat="45.10232" lon="0.64029">
        <ele>133.2</ele>
        <time>2025-05-25T08:24:00Z</time>
      </trkpt>
      <trkpt lat="45.10231" lon="0.64026">
        <ele>134</ele>
        <time>2025-05-25T08:24:01Z</time>
      </trkpt>
      <trkpt lat="45.1023" lon="0.64024">
        <ele>134.8</ele>
        <time>2025-05-25T08:24:02Z</time>
      </trkpt>
      <trkpt lat="45.10229" lon="0.64022">
        <ele>135.2</ele>
        <time>2025-05-25T08:24:03Z</time>
      </trkpt>
      <trkpt lat="45.10228" lon="0.6402">
        <ele>135.6</ele>
        <time>2025-05-25T08:24:04Z</time>
      </trkpt>
      <trkpt lat="45.10227" lon="0.64017">
        <ele>135.8</ele>
        <time>2025-05-25T08:24:05Z</time>
      </trkpt>
      <trkpt lat="45.10226" lon="0.64015">
        <ele>136</ele>
        <time>2025-05-25T08:24:06Z</time>
      </trkpt>
      <trkpt lat="45.10225" lon="0.64012">
        <ele>136</ele>
        <time>2025-05-25T08:24:07Z</time>
      </trkpt>
      <trkpt lat="45.10225" lon="0.64008">
        <ele>136.2</ele>
        <time>2025-05-25T08:24:08Z</time>
      </trkpt>
      <trkpt lat="45.10224" lon="0.64005">
        <ele>136.2</ele>
        <time>2025-05-25T08:24:09Z</time>
      </trkpt>
      <trkpt lat="45.10224" lon="0.64002">
        <ele>136.2</ele>
        <time>2025-05-25T08:24:10Z</time>
      </trkpt>
      <trkpt lat="45.10223" lon="0.63997">
        <ele>136.2</ele>
        <time>2025-05-25T08:24:11Z</time>
      </trkpt>
      <trkpt lat="45.10223" lon="0.63993">
        <ele>136.2</ele>
        <time>2025-05-25T08:24:12Z</time>
      </trkpt>
      <trkpt lat="45.10222" lon="0.63988">
        <ele>136.2</ele>
        <time>2025-05-25T08:24:13Z</time>
      </trkpt>
      <trkpt lat="45.10222" lon="0.63984">
        <ele>136.2</ele>
        <time>2025-05-25T08:24:14Z</time>
      </trkpt>
      <trkpt lat="45.10222" lon="0.63979">
        <ele>136.2</ele>
        <time>2025-05-25T08:24:15Z</time>
      </trkpt>
      <trkpt lat="45.10222" lon="0.63976">
        <ele>136.2</ele>
        <time>2025-05-25T08:24:16Z</time>
      </trkpt>
      <trkpt lat="45.10222" lon="0.63972">
        <ele>136.4</ele>
        <time>2025-05-25T08:24:17Z</time>
      </trkpt>
      <trkpt lat="45.10221" lon="0.63968">
        <ele>136.4</ele>
        <time>2025-05-25T08:24:18Z</time>
      </trkpt>
      <trkpt lat="45.10221" lon="0.63964">
        <ele>136.6</ele>
        <time>2025-05-25T08:24:19Z</time>
      </trkpt>
      <trkpt lat="45.10221" lon="0.6396">
        <ele>136.8</ele>
        <time>2025-05-25T08:24:20Z</time>
      </trkpt>
      <trkpt lat="45.10221" lon="0.63956">
        <ele>136.8</ele>
        <time>2025-05-25T08:24:21Z</time>
      </trkpt>
      <trkpt lat="45.1022" lon="0.63951">
        <ele>137</ele>
        <time>2025-05-25T08:24:22Z</time>
      </trkpt>
      <trkpt lat="45.1022" lon="0.63947">
        <ele>137.2</ele>
        <time>2025-05-25T08:24:23Z</time>
      </trkpt>
      <trkpt lat="45.1022" lon="0.63942">
        <ele>137.4</ele>
        <time>2025-05-25T08:24:24Z</time>
      </trkpt>
      <trkpt lat="45.1022" lon="0.63937">
        <ele>137.4</ele>
        <time>2025-05-25T08:24:25Z</time>
      </trkpt>
      <trkpt lat="45.10219" lon="0.63932">
        <ele>137.6</ele>
        <time>2025-05-25T08:24:26Z</time>
      </trkpt>
      <trkpt lat="45.10219" lon="0.63927">
        <ele>137.6</ele>
        <time>2025-05-25T08:24:27Z</time>
      </trkpt>
      <trkpt lat="45.10219" lon="0.63922">
        <ele>137.6</ele>
        <time>2025-05-25T08:24:28Z</time>
      </trkpt>
      <trkpt lat="45.10219" lon="0.63917">
        <ele>137.6</ele>
        <time>2025-05-25T08:24:29Z</time>
      </trkpt>
      <trkpt lat="45.10218" lon="0.63911">
        <ele>137.4</ele>
        <time>2025-05-25T08:24:30Z</time>
      </trkpt>
      <trkpt lat="45.10218" lon="0.63905">
        <ele>137.4</ele>
        <time>2025-05-25T08:24:31Z</time>
      </trkpt>
      <trkpt lat="45.10217" lon="0.63898">
        <ele>137.4</ele>
        <time>2025-05-25T08:24:32Z</time>
      </trkpt>
      <trkpt lat="45.10217" lon="0.63892">
        <ele>137.2</ele>
        <time>2025-05-25T08:24:33Z</time>
      </trkpt>
      <trkpt lat="45.10217" lon="0.63886">
        <ele>137</ele>
        <time>2025-05-25T08:24:34Z</time>
      </trkpt>
      <trkpt lat="45.10216" lon="0.63879">
        <ele>137</ele>
        <time>2025-05-25T08:24:35Z</time>
      </trkpt>
      <trkpt lat="45.10216" lon="0.63871">
        <ele>136.8</ele>
        <time>2025-05-25T08:24:36Z</time>
      </trkpt>
      <trkpt lat="45.10216" lon="0.63863">
        <ele>136.8</ele>
        <time>2025-05-25T08:24:37Z</time>
      </trkpt>
      <trkpt lat="45.10216" lon="0.63856">
        <ele>136.6</ele>
        <time>2025-05-25T08:24:38Z</time>
      </trkpt>
      <trkpt lat="45.10215" lon="0.63849">
        <ele>136.4</ele>
        <time>2025-05-25T08:24:39Z</time>
      </trkpt>
      <trkpt lat="45.10212" lon="0.63843">
        <ele>136.2</ele>
        <time>2025-05-25T08:24:40Z</time>
      </trkpt>
      <trkpt lat="45.10208" lon="0.63839">
        <ele>136</ele>
        <time>2025-05-25T08:24:41Z</time>
      </trkpt>
      <trkpt lat="45.10203" lon="0.63833">
        <ele>135.2</ele>
        <time>2025-05-25T08:24:42Z</time>
      </trkpt>
      <trkpt lat="45.10196" lon="0.63828">
        <ele>134</ele>
        <time>2025-05-25T08:24:43Z</time>
      </trkpt>
      <trkpt lat="45.10189" lon="0.63821">
        <ele>132.6</ele>
        <time>2025-05-25T08:24:44Z</time>
      </trkpt>
      <trkpt lat="45.10183" lon="0.63815">
        <ele>131</ele>
        <time>2025-05-25T08:24:45Z</time>
      </trkpt>
      <trkpt lat="45.10177" lon="0.63808">
        <ele>130</ele>
        <time>2025-05-25T08:24:46Z</time>
      </trkpt>
      <trkpt lat="45.10171" lon="0.63801">
        <ele>129</ele>
        <time>2025-05-25T08:24:47Z</time>
      </trkpt>
      <trkpt lat="45.10165" lon="0.63796">
        <ele>127.8</ele>
        <time>2025-05-25T08:24:48Z</time>
      </trkpt>
      <trkpt lat="45.10159" lon="0.63793">
        <ele>127</ele>
        <time>2025-05-25T08:24:49Z</time>
      </trkpt>
      <trkpt lat="45.10153" lon="0.63794">
        <ele>126.2</ele>
        <time>2025-05-25T08:24:50Z</time>
      </trkpt>
      <trkpt lat="45.10147" lon="0.63795">
        <ele>125.4</ele>
        <time>2025-05-25T08:24:51Z</time>
      </trkpt>
      <trkpt lat="45.10141" lon="0.63796">
        <ele>124.8</ele>
        <time>2025-05-25T08:24:52Z</time>
      </trkpt>
      <trkpt lat="45.10135" lon="0.63798">
        <ele>124.2</ele>
        <time>2025-05-25T08:24:53Z</time>
      </trkpt>
      <trkpt lat="45.1013" lon="0.638">
        <ele>123.8</ele>
        <time>2025-05-25T08:24:54Z</time>
      </trkpt>
      <trkpt lat="45.10125" lon="0.63803">
        <ele>123.4</ele>
        <time>2025-05-25T08:24:55Z</time>
      </trkpt>
      <trkpt lat="45.10122" lon="0.63802">
        <ele>123.2</ele>
        <time>2025-05-25T08:24:56Z</time>
      </trkpt>
      <trkpt lat="45.10119" lon="0.63799">
        <ele>123</ele>
        <time>2025-05-25T08:24:57Z</time>
      </trkpt>
      <trkpt lat="45.10118" lon="0.63795">
        <ele>123</ele>
        <time>2025-05-25T08:24:58Z</time>
      </trkpt>
      <trkpt lat="45.10117" lon="0.6379">
        <ele>122.8</ele>
        <time>2025-05-25T08:24:59Z</time>
      </trkpt>
      <trkpt lat="45.10116" lon="0.63785">
        <ele>122.8</ele>
        <time>2025-05-25T08:25:00Z</time>
      </trkpt>
      <trkpt lat="45.10114" lon="0.63779">
        <ele>122.8</ele>
        <time>2025-05-25T08:25:01Z</time>
      </trkpt>
      <trkpt lat="45.10113" lon="0.63774">
        <ele>122.8</ele>
        <time>2025-05-25T08:25:02Z</time>
      </trkpt>
      <trkpt lat="45.10112" lon="0.63768">
        <ele>122.8</ele>
        <time>2025-05-25T08:25:03Z</time>
      </trkpt>
      <trkpt lat="45.10112" lon="0.63762">
        <ele>122.8</ele>
        <time>2025-05-25T08:25:04Z</time>
      </trkpt>
      <trkpt lat="45.10112" lon="0.63755">
        <ele>122.8</ele>
        <time>2025-05-25T08:25:05Z</time>
      </trkpt>
      <trkpt lat="45.10111" lon="0.63748">
        <ele>122.6</ele>
        <time>2025-05-25T08:25:06Z</time>
      </trkpt>
      <trkpt lat="45.1011" lon="0.63744">
        <ele>122.4</ele>
        <time>2025-05-25T08:25:07Z</time>
      </trkpt>
      <trkpt lat="45.1011" lon="0.63739">
        <ele>122.4</ele>
        <time>2025-05-25T08:25:08Z</time>
      </trkpt>
      <trkpt lat="45.10109" lon="0.63736">
        <ele>122.4</ele>
        <time>2025-05-25T08:25:09Z</time>
      </trkpt>
      <trkpt lat="45.10108" lon="0.63733">
        <ele>122.4</ele>
        <time>2025-05-25T08:25:10Z</time>
      </trkpt>
      <trkpt lat="45.10107" lon="0.6373">
        <ele>122.6</ele>
        <time>2025-05-25T08:25:11Z</time>
      </trkpt>
      <trkpt lat="45.10105" lon="0.63726">
        <ele>122.6</ele>
        <time>2025-05-25T08:25:12Z</time>
      </trkpt>
      <trkpt lat="45.10103" lon="0.63721">
        <ele>122.8</ele>
        <time>2025-05-25T08:25:13Z</time>
      </trkpt>
      <trkpt lat="45.10101" lon="0.63716">
        <ele>122.6</ele>
        <time>2025-05-25T08:25:14Z</time>
      </trkpt>
      <trkpt lat="45.10099" lon="0.63711">
        <ele>122.4</ele>
        <time>2025-05-25T08:25:15Z</time>
      </trkpt>
      <trkpt lat="45.10097" lon="0.63705">
        <ele>122.2</ele>
        <time>2025-05-25T08:25:16Z</time>
      </trkpt>
      <trkpt lat="45.10095" lon="0.637">
        <ele>122</ele>
        <time>2025-05-25T08:25:17Z</time>
      </trkpt>
      <trkpt lat="45.10093" lon="0.63695">
        <ele>122</ele>
        <time>2025-05-25T08:25:18Z</time>
      </trkpt>
      <trkpt lat="45.10092" lon="0.6369">
        <ele>122</ele>
        <time>2025-05-25T08:25:19Z</time>
      </trkpt>
      <trkpt lat="45.10091" lon="0.63686">
        <ele>122.2</ele>
        <time>2025-05-25T08:25:20Z</time>
      </trkpt>
      <trkpt lat="45.10089" lon="0.63681">
        <ele>122.4</ele>
        <time>2025-05-25T08:25:21Z</time>
      </trkpt>
      <trkpt lat="45.10088" lon="0.63676">
        <ele>122.6</ele>
        <time>2025-05-25T08:25:22Z</time>
      </trkpt>
      <trkpt lat="45.10087" lon="0.63671">
        <ele>122.6</ele>
        <time>2025-05-25T08:25:23Z</time>
      </trkpt>
      <trkpt lat="45.10085" lon="0.63667">
        <ele>122.6</ele>
        <time>2025-05-25T08:25:24Z</time>
      </trkpt>
      <trkpt lat="45.10084" lon="0.63663">
        <ele>122.6</ele>
        <time>2025-05-25T08:25:25Z</time>
      </trkpt>
      <trkpt lat="45.10082" lon="0.63658">
        <ele>122.6</ele>
        <time>2025-05-25T08:25:26Z</time>
      </trkpt>
      <trkpt lat="45.10081" lon="0.63652">
        <ele>122.6</ele>
        <time>2025-05-25T08:25:27Z</time>
      </trkpt>
      <trkpt lat="45.10079" lon="0.63646">
        <ele>122.6</ele>
        <time>2025-05-25T08:25:28Z</time>
      </trkpt>
      <trkpt lat="45.10077" lon="0.63642">
        <ele>122.4</ele>
        <time>2025-05-25T08:25:29Z</time>
      </trkpt>
      <trkpt lat="45.10074" lon="0.63638">
        <ele>122.4</ele>
        <time>2025-05-25T08:25:30Z</time>
      </trkpt>
      <trkpt lat="45.10072" lon="0.63633">
        <ele>122.4</ele>
        <time>2025-05-25T08:25:31Z</time>
      </trkpt>
      <trkpt lat="45.10071" lon="0.63627">
        <ele>122.2</ele>
        <time>2025-05-25T08:25:32Z</time>
      </trkpt>
      <trkpt lat="45.1007" lon="0.63622">
        <ele>122.2</ele>
        <time>2025-05-25T08:25:33Z</time>
      </trkpt>
      <trkpt lat="45.10068" lon="0.63615">
        <ele>122</ele>
        <time>2025-05-25T08:25:34Z</time>
      </trkpt>
      <trkpt lat="45.10067" lon="0.63609">
        <ele>121.8</ele>
        <time>2025-05-25T08:25:35Z</time>
      </trkpt>
      <trkpt lat="45.10064" lon="0.63602">
        <ele>121.6</ele>
        <time>2025-05-25T08:25:36Z</time>
      </trkpt>
      <trkpt lat="45.10063" lon="0.63597">
        <ele>121.4</ele>
        <time>2025-05-25T08:25:37Z</time>
      </trkpt>
      <trkpt lat="45.10061" lon="0.63592">
        <ele>121.4</ele>
        <time>2025-05-25T08:25:38Z</time>
      </trkpt>
      <trkpt lat="45.1006" lon="0.63588">
        <ele>121.4</ele>
        <time>2025-05-25T08:25:39Z</time>
      </trkpt>
      <trkpt lat="45.10058" lon="0.63584">
        <ele>121.4</ele>
        <time>2025-05-25T08:25:40Z</time>
      </trkpt>
      <trkpt lat="45.10057" lon="0.6358">
        <ele>121.6</ele>
        <time>2025-05-25T08:25:41Z</time>
      </trkpt>
      <trkpt lat="45.10056" lon="0.63576">
        <ele>121.4</ele>
        <time>2025-05-25T08:25:42Z</time>
      </trkpt>
      <trkpt lat="45.10055" lon="0.63571">
        <ele>121.4</ele>
        <time>2025-05-25T08:25:43Z</time>
      </trkpt>
      <trkpt lat="45.10053" lon="0.63567">
        <ele>121.2</ele>
        <time>2025-05-25T08:25:44Z</time>
      </trkpt>
      <trkpt lat="45.10052" lon="0.63563">
        <ele>121</ele>
        <time>2025-05-25T08:25:45Z</time>
      </trkpt>
      <trkpt lat="45.10051" lon="0.63559">
        <ele>121</ele>
        <time>2025-05-25T08:25:46Z</time>
      </trkpt>
      <trkpt lat="45.1005" lon="0.63555">
        <ele>120.8</ele>
        <time>2025-05-25T08:25:47Z</time>
      </trkpt>
      <trkpt lat="45.10048" lon="0.63551">
        <ele>120.6</ele>
        <time>2025-05-25T08:25:48Z</time>
      </trkpt>
      <trkpt lat="45.10047" lon="0.63547">
        <ele>120.6</ele>
        <time>2025-05-25T08:25:49Z</time>
      </trkpt>
      <trkpt lat="45.10046" lon="0.63543">
        <ele>120.6</ele>
        <time>2025-05-25T08:25:50Z</time>
      </trkpt>
      <trkpt lat="45.10045" lon="0.6354">
        <ele>120.4</ele>
        <time>2025-05-25T08:25:51Z</time>
      </trkpt>
      <trkpt lat="45.10044" lon="0.63536">
        <ele>120.4</ele>
        <time>2025-05-25T08:25:52Z</time>
      </trkpt>
      <trkpt lat="45.10043" lon="0.63532">
        <ele>120.4</ele>
        <time>2025-05-25T08:25:53Z</time>
      </trkpt>
      <trkpt lat="45.10041" lon="0.63528">
        <ele>120.4</ele>
        <time>2025-05-25T08:25:54Z</time>
      </trkpt>
      <trkpt lat="45.1004" lon="0.63523">
        <ele>120.4</ele>
        <time>2025-05-25T08:25:55Z</time>
      </trkpt>
      <trkpt lat="45.10039" lon="0.63519">
        <ele>120.4</ele>
        <time>2025-05-25T08:25:56Z</time>
      </trkpt>
      <trkpt lat="45.10037" lon="0.63514">
        <ele>120.2</ele>
        <time>2025-05-25T08:25:57Z</time>
      </trkpt>
      <trkpt lat="45.10036" lon="0.6351">
        <ele>120.2</ele>
        <time>2025-05-25T08:25:58Z</time>
      </trkpt>
      <trkpt lat="45.10035" lon="0.63506">
        <ele>120.2</ele>
        <time>2025-05-25T08:25:59Z</time>
      </trkpt>
      <trkpt lat="45.10033" lon="0.63502">
        <ele>120.2</ele>
        <time>2025-05-25T08:26:00Z</time>
      </trkpt>
      <trkpt lat="45.10032" lon="0.63497">
        <ele>120.2</ele>
        <time>2025-05-25T08:26:01Z</time>
      </trkpt>
      <trkpt lat="45.10031" lon="0.63491">
        <ele>120</ele>
        <time>2025-05-25T08:26:02Z</time>
      </trkpt>
      <trkpt lat="45.10031" lon="0.63485">
        <ele>119.8</ele>
        <time>2025-05-25T08:26:03Z</time>
      </trkpt>
      <trkpt lat="45.10029" lon="0.6348">
        <ele>119.8</ele>
        <time>2025-05-25T08:26:04Z</time>
      </trkpt>
      <trkpt lat="45.10027" lon="0.63475">
        <ele>119.6</ele>
        <time>2025-05-25T08:26:05Z</time>
      </trkpt>
      <trkpt lat="45.10026" lon="0.6347">
        <ele>119.6</ele>
        <time>2025-05-25T08:26:06Z</time>
      </trkpt>
      <trkpt lat="45.10024" lon="0.63465">
        <ele>119.4</ele>
        <time>2025-05-25T08:26:07Z</time>
      </trkpt>
      <trkpt lat="45.10022" lon="0.6346">
        <ele>119.4</ele>
        <time>2025-05-25T08:26:08Z</time>
      </trkpt>
      <trkpt lat="45.10021" lon="0.63455">
        <ele>119.4</ele>
        <time>2025-05-25T08:26:09Z</time>
      </trkpt>
      <trkpt lat="45.10019" lon="0.6345">
        <ele>119.4</ele>
        <time>2025-05-25T08:26:10Z</time>
      </trkpt>
      <trkpt lat="45.10018" lon="0.63445">
        <ele>119.4</ele>
        <time>2025-05-25T08:26:11Z</time>
      </trkpt>
      <trkpt lat="45.10016" lon="0.6344">
        <ele>119.4</ele>
        <time>2025-05-25T08:26:12Z</time>
      </trkpt>
      <trkpt lat="45.10014" lon="0.63434">
        <ele>119.6</ele>
        <time>2025-05-25T08:26:13Z</time>
      </trkpt>
      <trkpt lat="45.10012" lon="0.63429">
        <ele>119.8</ele>
        <time>2025-05-25T08:26:14Z</time>
      </trkpt>
      <trkpt lat="45.1001" lon="0.63423">
        <ele>119.8</ele>
        <time>2025-05-25T08:26:15Z</time>
      </trkpt>
      <trkpt lat="45.10008" lon="0.63417">
        <ele>120</ele>
        <time>2025-05-25T08:26:16Z</time>
      </trkpt>
      <trkpt lat="45.10006" lon="0.63411">
        <ele>120</ele>
        <time>2025-05-25T08:26:17Z</time>
      </trkpt>
      <trkpt lat="45.10004" lon="0.63405">
        <ele>120.2</ele>
        <time>2025-05-25T08:26:18Z</time>
      </trkpt>
      <trkpt lat="45.10002" lon="0.63399">
        <ele>120.2</ele>
        <time>2025-05-25T08:26:19Z</time>
      </trkpt>
      <trkpt lat="45.1" lon="0.63393">
        <ele>120.2</ele>
        <time>2025-05-25T08:26:20Z</time>
      </trkpt>
      <trkpt lat="45.09997" lon="0.63387">
        <ele>120.2</ele>
        <time>2025-05-25T08:26:21Z</time>
      </trkpt>
      <trkpt lat="45.09994" lon="0.63381">
        <ele>120</ele>
        <time>2025-05-25T08:26:22Z</time>
      </trkpt>
      <trkpt lat="45.09992" lon="0.63374">
        <ele>119.6</ele>
        <time>2025-05-25T08:26:23Z</time>
      </trkpt>
      <trkpt lat="45.0999" lon="0.63368">
        <ele>119.4</ele>
        <time>2025-05-25T08:26:24Z</time>
      </trkpt>
      <trkpt lat="45.09988" lon="0.63362">
        <ele>119.2</ele>
        <time>2025-05-25T08:26:25Z</time>
      </trkpt>
      <trkpt lat="45.09985" lon="0.63357">
        <ele>119.2</ele>
        <time>2025-05-25T08:26:26Z</time>
      </trkpt>
      <trkpt lat="45.09984" lon="0.63351">
        <ele>119.2</ele>
        <time>2025-05-25T08:26:27Z</time>
      </trkpt>
      <trkpt lat="45.09983" lon="0.63347">
        <ele>119.2</ele>
        <time>2025-05-25T08:26:28Z</time>
      </trkpt>
      <trkpt lat="45.09982" lon="0.63343">
        <ele>119.2</ele>
        <time>2025-05-25T08:26:29Z</time>
      </trkpt>
      <trkpt lat="45.09981" lon="0.63339">
        <ele>119.4</ele>
        <time>2025-05-25T08:26:30Z</time>
      </trkpt>
      <trkpt lat="45.09981" lon="0.63334">
        <ele>119.6</ele>
        <time>2025-05-25T08:26:31Z</time>
      </trkpt>
      <trkpt lat="45.09982" lon="0.6333">
        <ele>119.8</ele>
        <time>2025-05-25T08:26:32Z</time>
      </trkpt>
      <trkpt lat="45.09984" lon="0.63325">
        <ele>120</ele>
        <time>2025-05-25T08:26:33Z</time>
      </trkpt>
      <trkpt lat="45.09985" lon="0.6332">
        <ele>120</ele>
        <time>2025-05-25T08:26:34Z</time>
      </trkpt>
      <trkpt lat="45.09986" lon="0.63315">
        <ele>120.2</ele>
        <time>2025-05-25T08:26:35Z</time>
      </trkpt>
      <trkpt lat="45.09988" lon="0.63311">
        <ele>120.4</ele>
        <time>2025-05-25T08:26:36Z</time>
      </trkpt>
      <trkpt lat="45.09989" lon="0.63306">
        <ele>120.6</ele>
        <time>2025-05-25T08:26:37Z</time>
      </trkpt>
      <trkpt lat="45.0999" lon="0.63302">
        <ele>121</ele>
        <time>2025-05-25T08:26:38Z</time>
      </trkpt>
      <trkpt lat="45.09991" lon="0.63299">
        <ele>121.4</ele>
        <time>2025-05-25T08:26:39Z</time>
      </trkpt>
      <trkpt lat="45.09992" lon="0.63296">
        <ele>121.6</ele>
        <time>2025-05-25T08:26:40Z</time>
      </trkpt>
      <trkpt lat="45.09993" lon="0.63292">
        <ele>122</ele>
        <time>2025-05-25T08:26:41Z</time>
      </trkpt>
      <trkpt lat="45.09994" lon="0.63289">
        <ele>122.4</ele>
        <time>2025-05-25T08:26:42Z</time>
      </trkpt>
      <trkpt lat="45.09995" lon="0.63286">
        <ele>122.8</ele>
        <time>2025-05-25T08:26:43Z</time>
      </trkpt>
      <trkpt lat="45.09996" lon="0.63284">
        <ele>123.2</ele>
        <time>2025-05-25T08:26:44Z</time>
      </trkpt>
      <trkpt lat="45.09997" lon="0.63281">
        <ele>123.4</ele>
        <time>2025-05-25T08:26:45Z</time>
      </trkpt>
      <trkpt lat="45.09998" lon="0.63277">
        <ele>123.8</ele>
        <time>2025-05-25T08:26:46Z</time>
      </trkpt>
      <trkpt lat="45.09999" lon="0.63275">
        <ele>124.2</ele>
        <time>2025-05-25T08:26:47Z</time>
      </trkpt>
      <trkpt lat="45.09999" lon="0.63272">
        <ele>124.4</ele>
        <time>2025-05-25T08:26:48Z</time>
      </trkpt>
      <trkpt lat="45.1" lon="0.6327">
        <ele>124.8</ele>
        <time>2025-05-25T08:26:49Z</time>
      </trkpt>
      <trkpt lat="45.1" lon="0.63268">
        <ele>125.2</ele>
        <time>2025-05-25T08:26:50Z</time>
      </trkpt>
      <trkpt lat="45.1" lon="0.63266">
        <ele>125.6</ele>
        <time>2025-05-25T08:26:51Z</time>
      </trkpt>
      <trkpt lat="45.1" lon="0.63264">
        <ele>125.8</ele>
        <time>2025-05-25T08:26:52Z</time>
      </trkpt>
      <trkpt lat="45.09999" lon="0.63262">
        <ele>126</ele>
        <time>2025-05-25T08:26:53Z</time>
      </trkpt>
      <trkpt lat="45.1" lon="0.63261">
        <ele>126.2</ele>
        <time>2025-05-25T08:26:54Z</time>
      </trkpt>
      <trkpt lat="45.1" lon="0.63261">
        <ele>126.4</ele>
        <time>2025-05-25T08:26:55Z</time>
      </trkpt>
      <trkpt lat="45.09998" lon="0.63255">
        <ele>127.4</ele>
        <time>2025-05-25T08:28:22Z</time>
      </trkpt>
      <trkpt lat="45.09995" lon="0.63254">
        <ele>127</ele>
        <time>2025-05-25T08:28:23Z</time>
      </trkpt>
      <trkpt lat="45.09992" lon="0.63251">
        <ele>126.6</ele>
        <time>2025-05-25T08:28:24Z</time>
      </trkpt>
      <trkpt lat="45.09989" lon="0.63247">
        <ele>126.2</ele>
        <time>2025-05-25T08:28:25Z</time>
      </trkpt>
      <trkpt lat="45.09987" lon="0.63242">
        <ele>125.6</ele>
        <time>2025-05-25T08:28:26Z</time>
      </trkpt>
      <trkpt lat="45.09984" lon="0.63236">
        <ele>124.8</ele>
        <time>2025-05-25T08:28:27Z</time>
      </trkpt>
      <trkpt lat="45.0998" lon="0.63228">
        <ele>124</ele>
        <time>2025-05-25T08:28:28Z</time>
      </trkpt>
      <trkpt lat="45.09976" lon="0.63222">
        <ele>123.2</ele>
        <time>2025-05-25T08:28:29Z</time>
      </trkpt>
      <trkpt lat="45.09971" lon="0.63215">
        <ele>122.6</ele>
        <time>2025-05-25T08:28:30Z</time>
      </trkpt>
      <trkpt lat="45.09966" lon="0.63209">
        <ele>122</ele>
        <time>2025-05-25T08:28:31Z</time>
      </trkpt>
      <trkpt lat="45.09962" lon="0.63204">
        <ele>121.6</ele>
        <time>2025-05-25T08:28:32Z</time>
      </trkpt>
      <trkpt lat="45.09958" lon="0.63199">
        <ele>121.4</ele>
        <time>2025-05-25T08:28:33Z</time>
      </trkpt>
      <trkpt lat="45.09956" lon="0.63193">
        <ele>121.4</ele>
        <time>2025-05-25T08:28:34Z</time>
      </trkpt>
      <trkpt lat="45.09952" lon="0.63189">
        <ele>121.4</ele>
        <time>2025-05-25T08:28:35Z</time>
      </trkpt>
      <trkpt lat="45.09949" lon="0.63189">
        <ele>121.8</ele>
        <time>2025-05-25T08:28:36Z</time>
      </trkpt>
      <trkpt lat="45.09945" lon="0.63189">
        <ele>122.2</ele>
        <time>2025-05-25T08:28:37Z</time>
      </trkpt>
      <trkpt lat="45.09942" lon="0.6319">
        <ele>122.6</ele>
        <time>2025-05-25T08:28:38Z</time>
      </trkpt>
      <trkpt lat="45.09937" lon="0.6319">
        <ele>122.8</ele>
        <time>2025-05-25T08:28:39Z</time>
      </trkpt>
      <trkpt lat="45.09933" lon="0.63189">
        <ele>122.8</ele>
        <time>2025-05-25T08:28:40Z</time>
      </trkpt>
      <trkpt lat="45.09929" lon="0.6319">
        <ele>122.8</ele>
        <time>2025-05-25T08:28:41Z</time>
      </trkpt>
      <trkpt lat="45.09924" lon="0.63189">
        <ele>122.8</ele>
        <time>2025-05-25T08:28:42Z</time>
      </trkpt>
      <trkpt lat="45.09919" lon="0.63188">
        <ele>122.8</ele>
        <time>2025-05-25T08:28:43Z</time>
      </trkpt>
      <trkpt lat="45.09914" lon="0.63186">
        <ele>122.8</ele>
        <time>2025-05-25T08:28:44Z</time>
      </trkpt>
      <trkpt lat="45.09909" lon="0.63184">
        <ele>122.4</ele>
        <time>2025-05-25T08:28:45Z</time>
      </trkpt>
      <trkpt lat="45.09905" lon="0.63181">
        <ele>122.2</ele>
        <time>2025-05-25T08:28:46Z</time>
      </trkpt>
      <trkpt lat="45.099" lon="0.63178">
        <ele>122</ele>
        <time>2025-05-25T08:28:47Z</time>
      </trkpt>
      <trkpt lat="45.09895" lon="0.63174">
        <ele>121.8</ele>
        <time>2025-05-25T08:28:48Z</time>
      </trkpt>
      <trkpt lat="45.0989" lon="0.63169">
        <ele>121.4</ele>
        <time>2025-05-25T08:28:49Z</time>
      </trkpt>
      <trkpt lat="45.09885" lon="0.63164">
        <ele>121.2</ele>
        <time>2025-05-25T08:28:50Z</time>
      </trkpt>
      <trkpt lat="45.09879" lon="0.63159">
        <ele>120.8</ele>
        <time>2025-05-25T08:28:51Z</time>
      </trkpt>
      <trkpt lat="45.09874" lon="0.63153">
        <ele>120.6</ele>
        <time>2025-05-25T08:28:52Z</time>
      </trkpt>
      <trkpt lat="45.09868" lon="0.63147">
        <ele>120</ele>
        <time>2025-05-25T08:28:53Z</time>
      </trkpt>
      <trkpt lat="45.09862" lon="0.63141">
        <ele>119.6</ele>
        <time>2025-05-25T08:28:54Z</time>
      </trkpt>
      <trkpt lat="45.09857" lon="0.63134">
        <ele>119.2</ele>
        <time>2025-05-25T08:28:55Z</time>
      </trkpt>
      <trkpt lat="45.09851" lon="0.63127">
        <ele>118.4</ele>
        <time>2025-05-25T08:28:56Z</time>
      </trkpt>
      <trkpt lat="45.09844" lon="0.63121">
        <ele>118</ele>
        <time>2025-05-25T08:28:57Z</time>
      </trkpt>
      <trkpt lat="45.09838" lon="0.63114">
        <ele>117.6</ele>
        <time>2025-05-25T08:28:58Z</time>
      </trkpt>
      <trkpt lat="45.09832" lon="0.63107">
        <ele>117</ele>
        <time>2025-05-25T08:28:59Z</time>
      </trkpt>
      <trkpt lat="45.09826" lon="0.63099">
        <ele>116.8</ele>
        <time>2025-05-25T08:29:00Z</time>
      </trkpt>
      <trkpt lat="45.09821" lon="0.63091">
        <ele>116.6</ele>
        <time>2025-05-25T08:29:01Z</time>
      </trkpt>
      <trkpt lat="45.09815" lon="0.63083">
        <ele>116.2</ele>
        <time>2025-05-25T08:29:02Z</time>
      </trkpt>
      <trkpt lat="45.0981" lon="0.63075">
        <ele>116</ele>
        <time>2025-05-25T08:29:03Z</time>
      </trkpt>
      <trkpt lat="45.09804" lon="0.63068">
        <ele>116</ele>
        <time>2025-05-25T08:29:04Z</time>
      </trkpt>
      <trkpt lat="45.09798" lon="0.6306">
        <ele>115.8</ele>
        <time>2025-05-25T08:29:05Z</time>
      </trkpt>
      <trkpt lat="45.09793" lon="0.63053">
        <ele>115.8</ele>
        <time>2025-05-25T08:29:06Z</time>
      </trkpt>
      <trkpt lat="45.09788" lon="0.63046">
        <ele>115.6</ele>
        <time>2025-05-25T08:29:07Z</time>
      </trkpt>
      <trkpt lat="45.09782" lon="0.63038">
        <ele>115.8</ele>
        <time>2025-05-25T08:29:08Z</time>
      </trkpt>
      <trkpt lat="45.09776" lon="0.63032">
        <ele>115.8</ele>
        <time>2025-05-25T08:29:09Z</time>
      </trkpt>
      <trkpt lat="45.0977" lon="0.63027">
        <ele>115.8</ele>
        <time>2025-05-25T08:29:10Z</time>
      </trkpt>
      <trkpt lat="45.09765" lon="0.63019">
        <ele>115.8</ele>
        <time>2025-05-25T08:29:11Z</time>
      </trkpt>
      <trkpt lat="45.0976" lon="0.63013">
        <ele>115.8</ele>
        <time>2025-05-25T08:29:12Z</time>
      </trkpt>
      <trkpt lat="45.09757" lon="0.63006">
        <ele>115.8</ele>
        <time>2025-05-25T08:29:13Z</time>
      </trkpt>
      <trkpt lat="45.09753" lon="0.62999">
        <ele>116</ele>
        <time>2025-05-25T08:29:14Z</time>
      </trkpt>
      <trkpt lat="45.09748" lon="0.62992">
        <ele>116.2</ele>
        <time>2025-05-25T08:29:15Z</time>
      </trkpt>
      <trkpt lat="45.09743" lon="0.62985">
        <ele>116.2</ele>
        <time>2025-05-25T08:29:16Z</time>
      </trkpt>
      <trkpt lat="45.09738" lon="0.62979">
        <ele>116.4</ele>
        <time>2025-05-25T08:29:17Z</time>
      </trkpt>
      <trkpt lat="45.09734" lon="0.62972">
        <ele>116.2</ele>
        <time>2025-05-25T08:29:18Z</time>
      </trkpt>
      <trkpt lat="45.09729" lon="0.62965">
        <ele>116.2</ele>
        <time>2025-05-25T08:29:19Z</time>
      </trkpt>
      <trkpt lat="45.09724" lon="0.62959">
        <ele>116.2</ele>
        <time>2025-05-25T08:29:20Z</time>
      </trkpt>
      <trkpt lat="45.09719" lon="0.62953">
        <ele>116.2</ele>
        <time>2025-05-25T08:29:21Z</time>
      </trkpt>
      <trkpt lat="45.09714" lon="0.62946">
        <ele>116.2</ele>
        <time>2025-05-25T08:29:22Z</time>
      </trkpt>
      <trkpt lat="45.0971" lon="0.62939">
        <ele>116.2</ele>
        <time>2025-05-25T08:29:23Z</time>
      </trkpt>
      <trkpt lat="45.09705" lon="0.62932">
        <ele>116.4</ele>
        <time>2025-05-25T08:29:24Z</time>
      </trkpt>
      <trkpt lat="45.09701" lon="0.62926">
        <ele>116.4</ele>
        <time>2025-05-25T08:29:25Z</time>
      </trkpt>
      <trkpt lat="45.09697" lon="0.6292">
        <ele>116.6</ele>
        <time>2025-05-25T08:29:26Z</time>
      </trkpt>
      <trkpt lat="45.09693" lon="0.62914">
        <ele>116.8</ele>
        <time>2025-05-25T08:29:27Z</time>
      </trkpt>
      <trkpt lat="45.09689" lon="0.62908">
        <ele>117</ele>
        <time>2025-05-25T08:29:28Z</time>
      </trkpt>
      <trkpt lat="45.09685" lon="0.62901">
        <ele>117</ele>
        <time>2025-05-25T08:29:29Z</time>
      </trkpt>
      <trkpt lat="45.09681" lon="0.62895">
        <ele>117.2</ele>
        <time>2025-05-25T08:29:30Z</time>
      </trkpt>
      <trkpt lat="45.09676" lon="0.62889">
        <ele>117</ele>
        <time>2025-05-25T08:29:31Z</time>
      </trkpt>
      <trkpt lat="45.09669" lon="0.62885">
        <ele>116.6</ele>
        <time>2025-05-25T08:29:32Z</time>
      </trkpt>
      <trkpt lat="45.09662" lon="0.62884">
        <ele>116.4</ele>
        <time>2025-05-25T08:29:33Z</time>
      </trkpt>
      <trkpt lat="45.09655" lon="0.62879">
        <ele>115.8</ele>
        <time>2025-05-25T08:29:34Z</time>
      </trkpt>
      <trkpt lat="45.09648" lon="0.62873">
        <ele>115.2</ele>
        <time>2025-05-25T08:29:35Z</time>
      </trkpt>
      <trkpt lat="45.09642" lon="0.62865">
        <ele>114.8</ele>
        <time>2025-05-25T08:29:36Z</time>
      </trkpt>
      <trkpt lat="45.09636" lon="0.62858">
        <ele>114.6</ele>
        <time>2025-05-25T08:29:37Z</time>
      </trkpt>
      <trkpt lat="45.09632" lon="0.62852">
        <ele>114.2</ele>
        <time>2025-05-25T08:29:38Z</time>
      </trkpt>
      <trkpt lat="45.09627" lon="0.62845">
        <ele>114</ele>
        <time>2025-05-25T08:29:39Z</time>
      </trkpt>
      <trkpt lat="45.09622" lon="0.62839">
        <ele>114.2</ele>
        <time>2025-05-25T08:29:40Z</time>
      </trkpt>
      <trkpt lat="45.09617" lon="0.62832">
        <ele>114.2</ele>
        <time>2025-05-25T08:29:41Z</time>
      </trkpt>
      <trkpt lat="45.09612" lon="0.62826">
        <ele>114</ele>
        <time>2025-05-25T08:29:42Z</time>
      </trkpt>
      <trkpt lat="45.09608" lon="0.62819">
        <ele>114</ele>
        <time>2025-05-25T08:29:43Z</time>
      </trkpt>
      <trkpt lat="45.09603" lon="0.62813">
        <ele>114</ele>
        <time>2025-05-25T08:29:44Z</time>
      </trkpt>
      <trkpt lat="45.09598" lon="0.62807">
        <ele>114</ele>
        <time>2025-05-25T08:29:45Z</time>
      </trkpt>
      <trkpt lat="45.09594" lon="0.62802">
        <ele>114.2</ele>
        <time>2025-05-25T08:29:46Z</time>
      </trkpt>
      <trkpt lat="45.09591" lon="0.62796">
        <ele>114.2</ele>
        <time>2025-05-25T08:29:47Z</time>
      </trkpt>
      <trkpt lat="45.09587" lon="0.62791">
        <ele>114.4</ele>
        <time>2025-05-25T08:29:48Z</time>
      </trkpt>
      <trkpt lat="45.09584" lon="0.62785">
        <ele>114.6</ele>
        <time>2025-05-25T08:29:49Z</time>
      </trkpt>
      <trkpt lat="45.0958" lon="0.62781">
        <ele>114.6</ele>
        <time>2025-05-25T08:29:50Z</time>
      </trkpt>
      <trkpt lat="45.09576" lon="0.62777">
        <ele>114.6</ele>
        <time>2025-05-25T08:29:51Z</time>
      </trkpt>
      <trkpt lat="45.09572" lon="0.62772">
        <ele>114.8</ele>
        <time>2025-05-25T08:29:52Z</time>
      </trkpt>
      <trkpt lat="45.09568" lon="0.62766">
        <ele>114.6</ele>
        <time>2025-05-25T08:29:53Z</time>
      </trkpt>
      <trkpt lat="45.09565" lon="0.62759">
        <ele>114.6</ele>
        <time>2025-05-25T08:29:54Z</time>
      </trkpt>
      <trkpt lat="45.09561" lon="0.62753">
        <ele>114.8</ele>
        <time>2025-05-25T08:29:55Z</time>
      </trkpt>
      <trkpt lat="45.09558" lon="0.62746">
        <ele>114.6</ele>
        <time>2025-05-25T08:29:56Z</time>
      </trkpt>
      <trkpt lat="45.09555" lon="0.62739">
        <ele>114.6</ele>
        <time>2025-05-25T08:29:57Z</time>
      </trkpt>
      <trkpt lat="45.09551" lon="0.62733">
        <ele>114.6</ele>
        <time>2025-05-25T08:29:58Z</time>
      </trkpt>
      <trkpt lat="45.09547" lon="0.62726">
        <ele>114.6</ele>
        <time>2025-05-25T08:29:59Z</time>
      </trkpt>
      <trkpt lat="45.09543" lon="0.6272">
        <ele>114.8</ele>
        <time>2025-05-25T08:30:00Z</time>
      </trkpt>
      <trkpt lat="45.0954" lon="0.62714">
        <ele>114.8</ele>
        <time>2025-05-25T08:30:01Z</time>
      </trkpt>
      <trkpt lat="45.09536" lon="0.62709">
        <ele>115</ele>
        <time>2025-05-25T08:30:02Z</time>
      </trkpt>
      <trkpt lat="45.09533" lon="0.62704">
        <ele>115.2</ele>
        <time>2025-05-25T08:30:03Z</time>
      </trkpt>
      <trkpt lat="45.09529" lon="0.62699">
        <ele>115.4</ele>
        <time>2025-05-25T08:30:04Z</time>
      </trkpt>
      <trkpt lat="45.09526" lon="0.62694">
        <ele>115.4</ele>
        <time>2025-05-25T08:30:05Z</time>
      </trkpt>
      <trkpt lat="45.09523" lon="0.62689">
        <ele>115.6</ele>
        <time>2025-05-25T08:30:06Z</time>
      </trkpt>
      <trkpt lat="45.0952" lon="0.62684">
        <ele>116</ele>
        <time>2025-05-25T08:30:07Z</time>
      </trkpt>
      <trkpt lat="45.09517" lon="0.62681">
        <ele>116.2</ele>
        <time>2025-05-25T08:30:08Z</time>
      </trkpt>
      <trkpt lat="45.09514" lon="0.62677">
        <ele>116.6</ele>
        <time>2025-05-25T08:30:09Z</time>
      </trkpt>
      <trkpt lat="45.09513" lon="0.62671">
        <ele>116.8</ele>
        <time>2025-05-25T08:30:10Z</time>
      </trkpt>
      <trkpt lat="45.09514" lon="0.62666">
        <ele>117</ele>
        <time>2025-05-25T08:30:11Z</time>
      </trkpt>
      <trkpt lat="45.09514" lon="0.62662">
        <ele>117.2</ele>
        <time>2025-05-25T08:30:12Z</time>
      </trkpt>
      <trkpt lat="45.09515" lon="0.62659">
        <ele>117.6</ele>
        <time>2025-05-25T08:30:13Z</time>
      </trkpt>
      <trkpt lat="45.09514" lon="0.62658">
        <ele>117.8</ele>
        <time>2025-05-25T08:30:14Z</time>
      </trkpt>
      <trkpt lat="45.09514" lon="0.62655">
        <ele>118.2</ele>
        <time>2025-05-25T08:30:15Z</time>
      </trkpt>
      <trkpt lat="45.09514" lon="0.62655">
        <ele>118.4</ele>
        <time>2025-05-25T08:30:16Z</time>
      </trkpt>
      <trkpt lat="45.09515" lon="0.62655">
        <ele>118.6</ele>
        <time>2025-05-25T08:30:17Z</time>
      </trkpt>
      <trkpt lat="45.09514" lon="0.6266">
        <ele>118.4</ele>
        <time>2025-05-25T08:30:30Z</time>
      </trkpt>
      <trkpt lat="45.09514" lon="0.62664">
        <ele>118.2</ele>
        <time>2025-05-25T08:30:31Z</time>
      </trkpt>
      <trkpt lat="45.09514" lon="0.62668">
        <ele>118</ele>
        <time>2025-05-25T08:30:32Z</time>
      </trkpt>
      <trkpt lat="45.09513" lon="0.62672">
        <ele>117.8</ele>
        <time>2025-05-25T08:30:33Z</time>
      </trkpt>
      <trkpt lat="45.09511" lon="0.62674">
        <ele>117.6</ele>
        <time>2025-05-25T08:30:34Z</time>
      </trkpt>
      <trkpt lat="45.09507" lon="0.62673">
        <ele>117.4</ele>
        <time>2025-05-25T08:30:35Z</time>
      </trkpt>
      <trkpt lat="45.09503" lon="0.62671">
        <ele>117.2</ele>
        <time>2025-05-25T08:30:36Z</time>
      </trkpt>
      <trkpt lat="45.09499" lon="0.62669">
        <ele>116.8</ele>
        <time>2025-05-25T08:30:37Z</time>
      </trkpt>
      <trkpt lat="45.09496" lon="0.62666">
        <ele>116.4</ele>
        <time>2025-05-25T08:30:38Z</time>
      </trkpt>
      <trkpt lat="45.09492" lon="0.62662">
        <ele>116.2</ele>
        <time>2025-05-25T08:30:39Z</time>
      </trkpt>
      <trkpt lat="45.09488" lon="0.62657">
        <ele>115.8</ele>
        <time>2025-05-25T08:30:40Z</time>
      </trkpt>
      <trkpt lat="45.09484" lon="0.62652">
        <ele>115.6</ele>
        <time>2025-05-25T08:30:41Z</time>
      </trkpt>
      <trkpt lat="45.0948" lon="0.62647">
        <ele>115.6</ele>
        <time>2025-05-25T08:30:42Z</time>
      </trkpt>
      <trkpt lat="45.09475" lon="0.62641">
        <ele>115.6</ele>
        <time>2025-05-25T08:30:43Z</time>
      </trkpt>
      <trkpt lat="45.09471" lon="0.62635">
        <ele>115.4</ele>
        <time>2025-05-25T08:30:44Z</time>
      </trkpt>
      <trkpt lat="45.09467" lon="0.6263">
        <ele>115.2</ele>
        <time>2025-05-25T08:30:45Z</time>
      </trkpt>
      <trkpt lat="45.09463" lon="0.62624">
        <ele>115.2</ele>
        <time>2025-05-25T08:30:46Z</time>
      </trkpt>
      <trkpt lat="45.09459" lon="0.62618">
        <ele>115</ele>
        <time>2025-05-25T08:30:47Z</time>
      </trkpt>
      <trkpt lat="45.09456" lon="0.62612">
        <ele>115</ele>
        <time>2025-05-25T08:30:48Z</time>
      </trkpt>
      <trkpt lat="45.09453" lon="0.62606">
        <ele>115.2</ele>
        <time>2025-05-25T08:30:49Z</time>
      </trkpt>
      <trkpt lat="45.09449" lon="0.62601">
        <ele>115.4</ele>
        <time>2025-05-25T08:30:50Z</time>
      </trkpt>
      <trkpt lat="45.09446" lon="0.62594">
        <ele>115.4</ele>
        <time>2025-05-25T08:30:51Z</time>
      </trkpt>
      <trkpt lat="45.09442" lon="0.62588">
        <ele>115.6</ele>
        <time>2025-05-25T08:30:52Z</time>
      </trkpt>
      <trkpt lat="45.09439" lon="0.62582">
        <ele>115.6</ele>
        <time>2025-05-25T08:30:53Z</time>
      </trkpt>
      <trkpt lat="45.09435" lon="0.62574">
        <ele>115.4</ele>
        <time>2025-05-25T08:30:54Z</time>
      </trkpt>
      <trkpt lat="45.09431" lon="0.62567">
        <ele>115.4</ele>
        <time>2025-05-25T08:30:55Z</time>
      </trkpt>
      <trkpt lat="45.09427" lon="0.62559">
        <ele>115.2</ele>
        <time>2025-05-25T08:30:56Z</time>
      </trkpt>
      <trkpt lat="45.09424" lon="0.62552">
        <ele>115</ele>
        <time>2025-05-25T08:30:57Z</time>
      </trkpt>
      <trkpt lat="45.09421" lon="0.62544">
        <ele>114.8</ele>
        <time>2025-05-25T08:30:58Z</time>
      </trkpt>
      <trkpt lat="45.09417" lon="0.62537">
        <ele>114.6</ele>
        <time>2025-05-25T08:30:59Z</time>
      </trkpt>
      <trkpt lat="45.09414" lon="0.6253">
        <ele>114.4</ele>
        <time>2025-05-25T08:31:00Z</time>
      </trkpt>
      <trkpt lat="45.0941" lon="0.62522">
        <ele>114.4</ele>
        <time>2025-05-25T08:31:01Z</time>
      </trkpt>
      <trkpt lat="45.09406" lon="0.62514">
        <ele>114.2</ele>
        <time>2025-05-25T08:31:02Z</time>
      </trkpt>
      <trkpt lat="45.09403" lon="0.62506">
        <ele>114.2</ele>
        <time>2025-05-25T08:31:03Z</time>
      </trkpt>
      <trkpt lat="45.09399" lon="0.62499">
        <ele>114.4</ele>
        <time>2025-05-25T08:31:04Z</time>
      </trkpt>
      <trkpt lat="45.09395" lon="0.62493">
        <ele>114.4</ele>
        <time>2025-05-25T08:31:05Z</time>
      </trkpt>
      <trkpt lat="45.0939" lon="0.62487">
        <ele>114.4</ele>
        <time>2025-05-25T08:31:06Z</time>
      </trkpt>
      <trkpt lat="45.09385" lon="0.62482">
        <ele>114.2</ele>
        <time>2025-05-25T08:31:07Z</time>
      </trkpt>
      <trkpt lat="45.0938" lon="0.62479">
        <ele>114.2</ele>
        <time>2025-05-25T08:31:08Z</time>
      </trkpt>
      <trkpt lat="45.09373" lon="0.62479">
        <ele>113.8</ele>
        <time>2025-05-25T08:31:09Z</time>
      </trkpt>
      <trkpt lat="45.09366" lon="0.62481">
        <ele>113.4</ele>
        <time>2025-05-25T08:31:10Z</time>
      </trkpt>
      <trkpt lat="45.09359" lon="0.62481">
        <ele>112.8</ele>
        <time>2025-05-25T08:31:11Z</time>
      </trkpt>
      <trkpt lat="45.09352" lon="0.62481">
        <ele>112.2</ele>
        <time>2025-05-25T08:31:12Z</time>
      </trkpt>
      <trkpt lat="45.09344" lon="0.6248">
        <ele>111.4</ele>
        <time>2025-05-25T08:31:13Z</time>
      </trkpt>
      <trkpt lat="45.09336" lon="0.62482">
        <ele>110.6</ele>
        <time>2025-05-25T08:31:14Z</time>
      </trkpt>
      <trkpt lat="45.09329" lon="0.62485">
        <ele>110</ele>
        <time>2025-05-25T08:31:15Z</time>
      </trkpt>
      <trkpt lat="45.09322" lon="0.62489">
        <ele>109.6</ele>
        <time>2025-05-25T08:31:16Z</time>
      </trkpt>
      <trkpt lat="45.09316" lon="0.62494">
        <ele>109.4</ele>
        <time>2025-05-25T08:31:17Z</time>
      </trkpt>
      <trkpt lat="45.09309" lon="0.62497">
        <ele>109.4</ele>
        <time>2025-05-25T08:31:18Z</time>
      </trkpt>
      <trkpt lat="45.09303" lon="0.62501">
        <ele>109.4</ele>
        <time>2025-05-25T08:31:19Z</time>
      </trkpt>
      <trkpt lat="45.09296" lon="0.62504">
        <ele>109.4</ele>
        <time>2025-05-25T08:31:20Z</time>
      </trkpt>
      <trkpt lat="45.09288" lon="0.6251">
        <ele>109.4</ele>
        <time>2025-05-25T08:31:21Z</time>
      </trkpt>
      <trkpt lat="45.09281" lon="0.62515">
        <ele>109.6</ele>
        <time>2025-05-25T08:31:22Z</time>
      </trkpt>
      <trkpt lat="45.09275" lon="0.6252">
        <ele>109.6</ele>
        <time>2025-05-25T08:31:23Z</time>
      </trkpt>
      <trkpt lat="45.09269" lon="0.62526">
        <ele>110</ele>
        <time>2025-05-25T08:31:24Z</time>
      </trkpt>
      <trkpt lat="45.09264" lon="0.62531">
        <ele>110.4</ele>
        <time>2025-05-25T08:31:25Z</time>
      </trkpt>
      <trkpt lat="45.09261" lon="0.62538">
        <ele>111</ele>
        <time>2025-05-25T08:31:26Z</time>
      </trkpt>
      <trkpt lat="45.0926" lon="0.62543">
        <ele>111.6</ele>
        <time>2025-05-25T08:31:27Z</time>
      </trkpt>
      <trkpt lat="45.0926" lon="0.62548">
        <ele>112.2</ele>
        <time>2025-05-25T08:31:28Z</time>
      </trkpt>
      <trkpt lat="45.0926" lon="0.62553">
        <ele>112.6</ele>
        <time>2025-05-25T08:31:29Z</time>
      </trkpt>
      <trkpt lat="45.0926" lon="0.62559">
        <ele>113.2</ele>
        <time>2025-05-25T08:31:30Z</time>
      </trkpt>
      <trkpt lat="45.09261" lon="0.62565">
        <ele>113.8</ele>
        <time>2025-05-25T08:31:31Z</time>
      </trkpt>
      <trkpt lat="45.09261" lon="0.6257">
        <ele>114.2</ele>
        <time>2025-05-25T08:31:32Z</time>
      </trkpt>
      <trkpt lat="45.09261" lon="0.62575">
        <ele>114.4</ele>
        <time>2025-05-25T08:31:33Z</time>
      </trkpt>
      <trkpt lat="45.09261" lon="0.62579">
        <ele>114.8</ele>
        <time>2025-05-25T08:31:34Z</time>
      </trkpt>
      <trkpt lat="45.09259" lon="0.62582">
        <ele>115.4</ele>
        <time>2025-05-25T08:31:35Z</time>
      </trkpt>
      <trkpt lat="45.09258" lon="0.62583">
        <ele>115.8</ele>
        <time>2025-05-25T08:31:36Z</time>
      </trkpt>
      <trkpt lat="45.09257" lon="0.62584">
        <ele>116.4</ele>
        <time>2025-05-25T08:31:37Z</time>
      </trkpt>
      <trkpt lat="45.09255" lon="0.62584">
        <ele>116.8</ele>
        <time>2025-05-25T08:31:38Z</time>
      </trkpt>
      <trkpt lat="45.09254" lon="0.62584">
        <ele>117.4</ele>
        <time>2025-05-25T08:31:39Z</time>
      </trkpt>
      <trkpt lat="45.09253" lon="0.62584">
        <ele>117.8</ele>
        <time>2025-05-25T08:31:40Z</time>
      </trkpt>
      <trkpt lat="45.09251" lon="0.62583">
        <ele>118</ele>
        <time>2025-05-25T08:31:41Z</time>
      </trkpt>
      <trkpt lat="45.09249" lon="0.62583">
        <ele>118.4</ele>
        <time>2025-05-25T08:31:42Z</time>
      </trkpt>
      <trkpt lat="45.09248" lon="0.62582">
        <ele>118.8</ele>
        <time>2025-05-25T08:31:43Z</time>
      </trkpt>
      <trkpt lat="45.09247" lon="0.62581">
        <ele>119</ele>
        <time>2025-05-25T08:31:44Z</time>
      </trkpt>
      <trkpt lat="45.09245" lon="0.6258">
        <ele>119.2</ele>
        <time>2025-05-25T08:31:45Z</time>
      </trkpt>
      <trkpt lat="45.09245" lon="0.62579">
        <ele>119.6</ele>
        <time>2025-05-25T08:31:46Z</time>
      </trkpt>
      <trkpt lat="45.09244" lon="0.62579">
        <ele>119.8</ele>
        <time>2025-05-25T08:31:47Z</time>
      </trkpt>
      <trkpt lat="45.09243" lon="0.62578">
        <ele>120.2</ele>
        <time>2025-05-25T08:31:48Z</time>
      </trkpt>
      <trkpt lat="45.09241" lon="0.62577">
        <ele>120.4</ele>
        <time>2025-05-25T08:31:49Z</time>
      </trkpt>
      <trkpt lat="45.09241" lon="0.62576">
        <ele>120.8</ele>
        <time>2025-05-25T08:31:50Z</time>
      </trkpt>
      <trkpt lat="45.09239" lon="0.62576">
        <ele>121.2</ele>
        <time>2025-05-25T08:31:51Z</time>
      </trkpt>
      <trkpt lat="45.09238" lon="0.62575">
        <ele>121.4</ele>
        <time>2025-05-25T08:31:52Z</time>
      </trkpt>
      <trkpt lat="45.09236" lon="0.62574">
        <ele>121.8</ele>
        <time>2025-05-25T08:31:53Z</time>
      </trkpt>
      <trkpt lat="45.09235" lon="0.62573">
        <ele>122</ele>
        <time>2025-05-25T08:31:54Z</time>
      </trkpt>
      <trkpt lat="45.09234" lon="0.62572">
        <ele>122.4</ele>
        <time>2025-05-25T08:31:55Z</time>
      </trkpt>
      <trkpt lat="45.09232" lon="0.62572">
        <ele>122.6</ele>
        <time>2025-05-25T08:31:56Z</time>
      </trkpt>
      <trkpt lat="45.09231" lon="0.62571">
        <ele>122.8</ele>
        <time>2025-05-25T08:31:57Z</time>
      </trkpt>
      <trkpt lat="45.09229" lon="0.62571">
        <ele>123.2</ele>
        <time>2025-05-25T08:31:58Z</time>
      </trkpt>
      <trkpt lat="45.09227" lon="0.6257">
        <ele>123.4</ele>
        <time>2025-05-25T08:31:59Z</time>
      </trkpt>
      <trkpt lat="45.09226" lon="0.6257">
        <ele>123.8</ele>
        <time>2025-05-25T08:32:00Z</time>
      </trkpt>
      <trkpt lat="45.09224" lon="0.6257">
        <ele>124</ele>
        <time>2025-05-25T08:32:01Z</time>
      </trkpt>
      <trkpt lat="45.09223" lon="0.6257">
        <ele>124.2</ele>
        <time>2025-05-25T08:32:02Z</time>
      </trkpt>
      <trkpt lat="45.09222" lon="0.6257">
        <ele>124.6</ele>
        <time>2025-05-25T08:32:03Z</time>
      </trkpt>
      <trkpt lat="45.09221" lon="0.6257">
        <ele>124.8</ele>
        <time>2025-05-25T08:32:04Z</time>
      </trkpt>
      <trkpt lat="45.09219" lon="0.6257">
        <ele>125.2</ele>
        <time>2025-05-25T08:32:05Z</time>
      </trkpt>
      <trkpt lat="45.09218" lon="0.6257">
        <ele>125.4</ele>
        <time>2025-05-25T08:32:06Z</time>
      </trkpt>
      <trkpt lat="45.09217" lon="0.6257">
        <ele>125.8</ele>
        <time>2025-05-25T08:32:07Z</time>
      </trkpt>
      <trkpt lat="45.09216" lon="0.62571">
        <ele>126</ele>
        <time>2025-05-25T08:32:08Z</time>
      </trkpt>
      <trkpt lat="45.09214" lon="0.62571">
        <ele>126.4</ele>
        <time>2025-05-25T08:32:09Z</time>
      </trkpt>
      <trkpt lat="45.09213" lon="0.62571">
        <ele>126.8</ele>
        <time>2025-05-25T08:32:10Z</time>
      </trkpt>
      <trkpt lat="45.09211" lon="0.62572">
        <ele>127</ele>
        <time>2025-05-25T08:32:11Z</time>
      </trkpt>
      <trkpt lat="45.0921" lon="0.62572">
        <ele>127.2</ele>
        <time>2025-05-25T08:32:12Z</time>
      </trkpt>
      <trkpt lat="45.09209" lon="0.62572">
        <ele>127.6</ele>
        <time>2025-05-25T08:32:13Z</time>
      </trkpt>
      <trkpt lat="45.09208" lon="0.62572">
        <ele>127.8</ele>
        <time>2025-05-25T08:32:14Z</time>
      </trkpt>
      <trkpt lat="45.09206" lon="0.62572">
        <ele>128</ele>
        <time>2025-05-25T08:32:15Z</time>
      </trkpt>
      <trkpt lat="45.09205" lon="0.62573">
        <ele>128.2</ele>
        <time>2025-05-25T08:32:16Z</time>
      </trkpt>
      <trkpt lat="45.09204" lon="0.62573">
        <ele>128.6</ele>
        <time>2025-05-25T08:32:17Z</time>
      </trkpt>
      <trkpt lat="45.09203" lon="0.62573">
        <ele>128.8</ele>
        <time>2025-05-25T08:32:18Z</time>
      </trkpt>
      <trkpt lat="45.09202" lon="0.62574">
        <ele>129</ele>
        <time>2025-05-25T08:32:19Z</time>
      </trkpt>
      <trkpt lat="45.09201" lon="0.62574">
        <ele>129.2</ele>
        <time>2025-05-25T08:32:20Z</time>
      </trkpt>
      <trkpt lat="45.092" lon="0.62574">
        <ele>129.4</ele>
        <time>2025-05-25T08:32:21Z</time>
      </trkpt>
      <trkpt lat="45.09199" lon="0.62575">
        <ele>129.6</ele>
        <time>2025-05-25T08:32:22Z</time>
      </trkpt>
      <trkpt lat="45.09198" lon="0.62576">
        <ele>129.8</ele>
        <time>2025-05-25T08:32:23Z</time>
      </trkpt>
      <trkpt lat="45.09197" lon="0.62576">
        <ele>130.2</ele>
        <time>2025-05-25T08:32:24Z</time>
      </trkpt>
      <trkpt lat="45.09196" lon="0.62577">
        <ele>130.4</ele>
        <time>2025-05-25T08:32:25Z</time>
      </trkpt>
      <trkpt lat="45.09195" lon="0.62577">
        <ele>130.6</ele>
        <time>2025-05-25T08:32:26Z</time>
      </trkpt>
      <trkpt lat="45.09194" lon="0.62577">
        <ele>130.8</ele>
        <time>2025-05-25T08:32:27Z</time>
      </trkpt>
      <trkpt lat="45.09193" lon="0.62578">
        <ele>131</ele>
        <time>2025-05-25T08:32:28Z</time>
      </trkpt>
      <trkpt lat="45.09192" lon="0.62578">
        <ele>131.4</ele>
        <time>2025-05-25T08:32:29Z</time>
      </trkpt>
      <trkpt lat="45.09191" lon="0.62578">
        <ele>131.6</ele>
        <time>2025-05-25T08:32:30Z</time>
      </trkpt>
      <trkpt lat="45.0919" lon="0.62578">
        <ele>131.8</ele>
        <time>2025-05-25T08:32:31Z</time>
      </trkpt>
      <trkpt lat="45.09189" lon="0.62578">
        <ele>132</ele>
        <time>2025-05-25T08:32:32Z</time>
      </trkpt>
      <trkpt lat="45.09188" lon="0.62579">
        <ele>132.2</ele>
        <time>2025-05-25T08:32:33Z</time>
      </trkpt>
      <trkpt lat="45.09187" lon="0.62579">
        <ele>132.4</ele>
        <time>2025-05-25T08:32:34Z</time>
      </trkpt>
      <trkpt lat="45.09185" lon="0.6258">
        <ele>132.6</ele>
        <time>2025-05-25T08:32:35Z</time>
      </trkpt>
      <trkpt lat="45.09184" lon="0.62581">
        <ele>132.8</ele>
        <time>2025-05-25T08:32:36Z</time>
      </trkpt>
      <trkpt lat="45.09182" lon="0.62582">
        <ele>133</ele>
        <time>2025-05-25T08:32:37Z</time>
      </trkpt>
      <trkpt lat="45.09181" lon="0.62582">
        <ele>133.4</ele>
        <time>2025-05-25T08:32:38Z</time>
      </trkpt>
      <trkpt lat="45.0918" lon="0.62582">
        <ele>133.6</ele>
        <time>2025-05-25T08:32:39Z</time>
      </trkpt>
      <trkpt lat="45.09179" lon="0.62582">
        <ele>133.8</ele>
        <time>2025-05-25T08:32:40Z</time>
      </trkpt>
      <trkpt lat="45.09177" lon="0.62582">
        <ele>134</ele>
        <time>2025-05-25T08:32:41Z</time>
      </trkpt>
      <trkpt lat="45.09176" lon="0.62582">
        <ele>134.2</ele>
        <time>2025-05-25T08:32:42Z</time>
      </trkpt>
      <trkpt lat="45.09175" lon="0.62583">
        <ele>134.4</ele>
        <time>2025-05-25T08:32:43Z</time>
      </trkpt>
      <trkpt lat="45.09174" lon="0.62585">
        <ele>134.6</ele>
        <time>2025-05-25T08:32:44Z</time>
      </trkpt>
      <trkpt lat="45.09173" lon="0.62586">
        <ele>134.8</ele>
        <time>2025-05-25T08:32:45Z</time>
      </trkpt>
      <trkpt lat="45.09172" lon="0.62588">
        <ele>135.2</ele>
        <time>2025-05-25T08:32:46Z</time>
      </trkpt>
      <trkpt lat="45.09172" lon="0.62589">
        <ele>135.4</ele>
        <time>2025-05-25T08:32:47Z</time>
      </trkpt>
      <trkpt lat="45.09171" lon="0.62591">
        <ele>135.6</ele>
        <time>2025-05-25T08:32:48Z</time>
      </trkpt>
      <trkpt lat="45.09171" lon="0.62592">
        <ele>135.8</ele>
        <time>2025-05-25T08:32:49Z</time>
      </trkpt>
      <trkpt lat="45.09171" lon="0.62593">
        <ele>136</ele>
        <time>2025-05-25T08:32:50Z</time>
      </trkpt>
      <trkpt lat="45.09171" lon="0.62595">
        <ele>136</ele>
        <time>2025-05-25T08:32:51Z</time>
      </trkpt>
      <trkpt lat="45.09171" lon="0.62597">
        <ele>136.2</ele>
        <time>2025-05-25T08:32:52Z</time>
      </trkpt>
      <trkpt lat="45.09172" lon="0.62599">
        <ele>136.4</ele>
        <time>2025-05-25T08:32:53Z</time>
      </trkpt>
      <trkpt lat="45.09172" lon="0.62601">
        <ele>136.6</ele>
        <time>2025-05-25T08:32:54Z</time>
      </trkpt>
      <trkpt lat="45.09172" lon="0.62603">
        <ele>136.8</ele>
        <time>2025-05-25T08:32:55Z</time>
      </trkpt>
      <trkpt lat="45.09173" lon="0.62605">
        <ele>137</ele>
        <time>2025-05-25T08:32:56Z</time>
      </trkpt>
      <trkpt lat="45.09174" lon="0.62607">
        <ele>137.2</ele>
        <time>2025-05-25T08:32:57Z</time>
      </trkpt>
      <trkpt lat="45.09174" lon="0.62608">
        <ele>137.2</ele>
        <time>2025-05-25T08:32:58Z</time>
      </trkpt>
      <trkpt lat="45.09175" lon="0.6261">
        <ele>137.4</ele>
        <time>2025-05-25T08:32:59Z</time>
      </trkpt>
      <trkpt lat="45.09176" lon="0.62612">
        <ele>137.6</ele>
        <time>2025-05-25T08:33:00Z</time>
      </trkpt>
      <trkpt lat="45.09177" lon="0.62614">
        <ele>137.6</ele>
        <time>2025-05-25T08:33:01Z</time>
      </trkpt>
      <trkpt lat="45.09177" lon="0.62616">
        <ele>137.8</ele>
        <time>2025-05-25T08:33:02Z</time>
      </trkpt>
      <trkpt lat="45.09178" lon="0.62617">
        <ele>138</ele>
        <time>2025-05-25T08:33:03Z</time>
      </trkpt>
      <trkpt lat="45.09179" lon="0.62619">
        <ele>138</ele>
        <time>2025-05-25T08:33:04Z</time>
      </trkpt>
      <trkpt lat="45.09179" lon="0.6262">
        <ele>138.2</ele>
        <time>2025-05-25T08:33:05Z</time>
      </trkpt>
      <trkpt lat="45.0918" lon="0.62621">
        <ele>138.4</ele>
        <time>2025-05-25T08:33:06Z</time>
      </trkpt>
      <trkpt lat="45.0918" lon="0.62623">
        <ele>138.6</ele>
        <time>2025-05-25T08:33:07Z</time>
      </trkpt>
      <trkpt lat="45.09181" lon="0.62624">
        <ele>138.8</ele>
        <time>2025-05-25T08:33:08Z</time>
      </trkpt>
      <trkpt lat="45.09181" lon="0.62626">
        <ele>139</ele>
        <time>2025-05-25T08:33:09Z</time>
      </trkpt>
      <trkpt lat="45.09182" lon="0.62628">
        <ele>139.2</ele>
        <time>2025-05-25T08:33:10Z</time>
      </trkpt>
      <trkpt lat="45.09181" lon="0.6263">
        <ele>139.4</ele>
        <time>2025-05-25T08:33:11Z</time>
      </trkpt>
      <trkpt lat="45.09181" lon="0.62632">
        <ele>139.6</ele>
        <time>2025-05-25T08:33:12Z</time>
      </trkpt>
      <trkpt lat="45.09181" lon="0.62634">
        <ele>139.8</ele>
        <time>2025-05-25T08:33:13Z</time>
      </trkpt>
      <trkpt lat="45.09181" lon="0.62635">
        <ele>140</ele>
        <time>2025-05-25T08:33:14Z</time>
      </trkpt>
      <trkpt lat="45.09181" lon="0.62636">
        <ele>140.2</ele>
        <time>2025-05-25T08:33:15Z</time>
      </trkpt>
      <trkpt lat="45.09181" lon="0.62638">
        <ele>140.4</ele>
        <time>2025-05-25T08:33:16Z</time>
      </trkpt>
      <trkpt lat="45.0918" lon="0.6264">
        <ele>140.6</ele>
        <time>2025-05-25T08:33:17Z</time>
      </trkpt>
      <trkpt lat="45.0918" lon="0.62641">
        <ele>140.8</ele>
        <time>2025-05-25T08:33:18Z</time>
      </trkpt>
      <trkpt lat="45.0918" lon="0.62643">
        <ele>141</ele>
        <time>2025-05-25T08:33:19Z</time>
      </trkpt>
      <trkpt lat="45.09179" lon="0.62645">
        <ele>141.4</ele>
        <time>2025-05-25T08:33:20Z</time>
      </trkpt>
      <trkpt lat="45.09179" lon="0.62647">
        <ele>141.6</ele>
        <time>2025-05-25T08:33:21Z</time>
      </trkpt>
      <trkpt lat="45.09178" lon="0.62648">
        <ele>141.8</ele>
        <time>2025-05-25T08:33:22Z</time>
      </trkpt>
      <trkpt lat="45.09177" lon="0.6265">
        <ele>142</ele>
        <time>2025-05-25T08:33:23Z</time>
      </trkpt>
      <trkpt lat="45.09176" lon="0.62651">
        <ele>142.2</ele>
        <time>2025-05-25T08:33:24Z</time>
      </trkpt>
      <trkpt lat="45.09176" lon="0.62653">
        <ele>142.4</ele>
        <time>2025-05-25T08:33:25Z</time>
      </trkpt>
      <trkpt lat="45.09175" lon="0.62654">
        <ele>142.6</ele>
        <time>2025-05-25T08:33:26Z</time>
      </trkpt>
      <trkpt lat="45.09175" lon="0.62656">
        <ele>143</ele>
        <time>2025-05-25T08:33:27Z</time>
      </trkpt>
      <trkpt lat="45.09174" lon="0.62657">
        <ele>143.2</ele>
        <time>2025-05-25T08:33:28Z</time>
      </trkpt>
      <trkpt lat="45.09174" lon="0.62658">
        <ele>143.4</ele>
        <time>2025-05-25T08:33:29Z</time>
      </trkpt>
      <trkpt lat="45.09173" lon="0.6266">
        <ele>143.6</ele>
        <time>2025-05-25T08:33:30Z</time>
      </trkpt>
      <trkpt lat="45.09173" lon="0.62662">
        <ele>143.8</ele>
        <time>2025-05-25T08:33:31Z</time>
      </trkpt>
      <trkpt lat="45.09172" lon="0.62664">
        <ele>144</ele>
        <time>2025-05-25T08:33:32Z</time>
      </trkpt>
      <trkpt lat="45.09171" lon="0.62665">
        <ele>144.2</ele>
        <time>2025-05-25T08:33:33Z</time>
      </trkpt>
      <trkpt lat="45.09171" lon="0.62667">
        <ele>144.4</ele>
        <time>2025-05-25T08:33:34Z</time>
      </trkpt>
      <trkpt lat="45.09171" lon="0.62668">
        <ele>144.8</ele>
        <time>2025-05-25T08:33:35Z</time>
      </trkpt>
      <trkpt lat="45.0917" lon="0.6267">
        <ele>144.8</ele>
        <time>2025-05-25T08:33:36Z</time>
      </trkpt>
      <trkpt lat="45.0917" lon="0.62672">
        <ele>145</ele>
        <time>2025-05-25T08:33:37Z</time>
      </trkpt>
      <trkpt lat="45.09169" lon="0.62674">
        <ele>145.2</ele>
        <time>2025-05-25T08:33:38Z</time>
      </trkpt>
      <trkpt lat="45.09169" lon="0.62675">
        <ele>145.6</ele>
        <time>2025-05-25T08:33:39Z</time>
      </trkpt>
      <trkpt lat="45.09169" lon="0.62677">
        <ele>145.8</ele>
        <time>2025-05-25T08:33:40Z</time>
      </trkpt>
      <trkpt lat="45.09168" lon="0.62679">
        <ele>146</ele>
        <time>2025-05-25T08:33:41Z</time>
      </trkpt>
      <trkpt lat="45.09168" lon="0.6268">
        <ele>146.2</ele>
        <time>2025-05-25T08:33:42Z</time>
      </trkpt>
      <trkpt lat="45.09167" lon="0.62682">
        <ele>146.4</ele>
        <time>2025-05-25T08:33:43Z</time>
      </trkpt>
      <trkpt lat="45.09167" lon="0.62683">
        <ele>146.6</ele>
        <time>2025-05-25T08:33:44Z</time>
      </trkpt>
      <trkpt lat="45.09166" lon="0.62686">
        <ele>146.8</ele>
        <time>2025-05-25T08:33:45Z</time>
      </trkpt>
      <trkpt lat="45.09166" lon="0.62688">
        <ele>147</ele>
        <time>2025-05-25T08:33:46Z</time>
      </trkpt>
      <trkpt lat="45.09165" lon="0.6269">
        <ele>147.2</ele>
        <time>2025-05-25T08:33:47Z</time>
      </trkpt>
      <trkpt lat="45.09165" lon="0.62691">
        <ele>147.4</ele>
        <time>2025-05-25T08:33:48Z</time>
      </trkpt>
      <trkpt lat="45.09164" lon="0.62693">
        <ele>147.6</ele>
        <time>2025-05-25T08:33:49Z</time>
      </trkpt>
      <trkpt lat="45.09164" lon="0.62695">
        <ele>147.8</ele>
        <time>2025-05-25T08:33:50Z</time>
      </trkpt>
      <trkpt lat="45.09164" lon="0.62697">
        <ele>148</ele>
        <time>2025-05-25T08:33:51Z</time>
      </trkpt>
      <trkpt lat="45.09164" lon="0.62699">
        <ele>148.2</ele>
        <time>2025-05-25T08:33:52Z</time>
      </trkpt>
      <trkpt lat="45.09165" lon="0.62701">
        <ele>148.4</ele>
        <time>2025-05-25T08:33:53Z</time>
      </trkpt>
      <trkpt lat="45.09165" lon="0.62703">
        <ele>148.6</ele>
        <time>2025-05-25T08:33:54Z</time>
      </trkpt>
      <trkpt lat="45.09164" lon="0.62704">
        <ele>148.8</ele>
        <time>2025-05-25T08:33:55Z</time>
      </trkpt>
      <trkpt lat="45.09164" lon="0.62706">
        <ele>149</ele>
        <time>2025-05-25T08:33:56Z</time>
      </trkpt>
      <trkpt lat="45.09164" lon="0.62709">
        <ele>149.2</ele>
        <time>2025-05-25T08:33:57Z</time>
      </trkpt>
      <trkpt lat="45.09164" lon="0.62711">
        <ele>149.4</ele>
        <time>2025-05-25T08:33:58Z</time>
      </trkpt>
      <trkpt lat="45.09164" lon="0.62713">
        <ele>149.4</ele>
        <time>2025-05-25T08:33:59Z</time>
      </trkpt>
      <trkpt lat="45.09164" lon="0.62716">
        <ele>149.6</ele>
        <time>2025-05-25T08:34:00Z</time>
      </trkpt>
      <trkpt lat="45.09163" lon="0.62717">
        <ele>149.8</ele>
        <time>2025-05-25T08:34:01Z</time>
      </trkpt>
      <trkpt lat="45.09163" lon="0.62719">
        <ele>150</ele>
        <time>2025-05-25T08:34:02Z</time>
      </trkpt>
      <trkpt lat="45.09163" lon="0.62721">
        <ele>150</ele>
        <time>2025-05-25T08:34:03Z</time>
      </trkpt>
      <trkpt lat="45.09163" lon="0.62723">
        <ele>150.2</ele>
        <time>2025-05-25T08:34:04Z</time>
      </trkpt>
      <trkpt lat="45.09163" lon="0.62726">
        <ele>150.4</ele>
        <time>2025-05-25T08:34:05Z</time>
      </trkpt>
      <trkpt lat="45.09163" lon="0.62729">
        <ele>150.4</ele>
        <time>2025-05-25T08:34:06Z</time>
      </trkpt>
      <trkpt lat="45.09162" lon="0.62732">
        <ele>150.6</ele>
        <time>2025-05-25T08:34:07Z</time>
      </trkpt>
      <trkpt lat="45.09162" lon="0.62734">
        <ele>150.8</ele>
        <time>2025-05-25T08:34:08Z</time>
      </trkpt>
      <trkpt lat="45.09162" lon="0.62737">
        <ele>150.8</ele>
        <time>2025-05-25T08:34:09Z</time>
      </trkpt>
      <trkpt lat="45.09161" lon="0.6274">
        <ele>151</ele>
        <time>2025-05-25T08:34:10Z</time>
      </trkpt>
      <trkpt lat="45.09161" lon="0.62742">
        <ele>151.2</ele>
        <time>2025-05-25T08:34:11Z</time>
      </trkpt>
      <trkpt lat="45.0916" lon="0.62745">
        <ele>151.4</ele>
        <time>2025-05-25T08:34:12Z</time>
      </trkpt>
      <trkpt lat="45.0916" lon="0.62748">
        <ele>151.6</ele>
        <time>2025-05-25T08:34:13Z</time>
      </trkpt>
      <trkpt lat="45.0916" lon="0.62751">
        <ele>151.6</ele>
        <time>2025-05-25T08:34:14Z</time>
      </trkpt>
      <trkpt lat="45.09159" lon="0.62754">
        <ele>151.8</ele>
        <time>2025-05-25T08:34:15Z</time>
      </trkpt>
      <trkpt lat="45.09159" lon="0.62757">
        <ele>151.8</ele>
        <time>2025-05-25T08:34:16Z</time>
      </trkpt>
      <trkpt lat="45.09158" lon="0.62759">
        <ele>152</ele>
        <time>2025-05-25T08:34:17Z</time>
      </trkpt>
      <trkpt lat="45.09158" lon="0.62762">
        <ele>152</ele>
        <time>2025-05-25T08:34:18Z</time>
      </trkpt>
      <trkpt lat="45.09158" lon="0.62764">
        <ele>152.2</ele>
        <time>2025-05-25T08:34:19Z</time>
      </trkpt>
      <trkpt lat="45.09158" lon="0.62767">
        <ele>152.4</ele>
        <time>2025-05-25T08:34:20Z</time>
      </trkpt>
      <trkpt lat="45.09157" lon="0.6277">
        <ele>152.4</ele>
        <time>2025-05-25T08:34:21Z</time>
      </trkpt>
      <trkpt lat="45.09157" lon="0.62773">
        <ele>152.6</ele>
        <time>2025-05-25T08:34:22Z</time>
      </trkpt>
      <trkpt lat="45.09157" lon="0.62776">
        <ele>152.8</ele>
        <time>2025-05-25T08:34:23Z</time>
      </trkpt>
      <trkpt lat="45.09157" lon="0.62779">
        <ele>152.8</ele>
        <time>2025-05-25T08:34:24Z</time>
      </trkpt>
      <trkpt lat="45.09157" lon="0.62783">
        <ele>153</ele>
        <time>2025-05-25T08:34:25Z</time>
      </trkpt>
      <trkpt lat="45.09157" lon="0.62786">
        <ele>153</ele>
        <time>2025-05-25T08:34:26Z</time>
      </trkpt>
      <trkpt lat="45.09156" lon="0.62789">
        <ele>153.2</ele>
        <time>2025-05-25T08:34:27Z</time>
      </trkpt>
      <trkpt lat="45.09156" lon="0.62793">
        <ele>153.2</ele>
        <time>2025-05-25T08:34:28Z</time>
      </trkpt>
      <trkpt lat="45.09156" lon="0.62796">
        <ele>153.2</ele>
        <time>2025-05-25T08:34:29Z</time>
      </trkpt>
      <trkpt lat="45.09155" lon="0.62799">
        <ele>153.4</ele>
        <time>2025-05-25T08:34:30Z</time>
      </trkpt>
      <trkpt lat="45.09155" lon="0.62803">
        <ele>153.4</ele>
        <time>2025-05-25T08:34:31Z</time>
      </trkpt>
      <trkpt lat="45.09155" lon="0.62806">
        <ele>153.6</ele>
        <time>2025-05-25T08:34:32Z</time>
      </trkpt>
      <trkpt lat="45.09155" lon="0.62809">
        <ele>153.6</ele>
        <time>2025-05-25T08:34:33Z</time>
      </trkpt>
      <trkpt lat="45.09154" lon="0.62812">
        <ele>153.6</ele>
        <time>2025-05-25T08:34:34Z</time>
      </trkpt>
      <trkpt lat="45.09153" lon="0.62815">
        <ele>153.8</ele>
        <time>2025-05-25T08:34:35Z</time>
      </trkpt>
      <trkpt lat="45.09152" lon="0.62819">
        <ele>153.8</ele>
        <time>2025-05-25T08:34:36Z</time>
      </trkpt>
      <trkpt lat="45.09152" lon="0.62823">
        <ele>154</ele>
        <time>2025-05-25T08:34:37Z</time>
      </trkpt>
      <trkpt lat="45.09151" lon="0.62827">
        <ele>154</ele>
        <time>2025-05-25T08:34:38Z</time>
      </trkpt>
      <trkpt lat="45.09151" lon="0.62831">
        <ele>154.2</ele>
        <time>2025-05-25T08:34:39Z</time>
      </trkpt>
      <trkpt lat="45.0915" lon="0.62834">
        <ele>154.4</ele>
        <time>2025-05-25T08:34:40Z</time>
      </trkpt>
      <trkpt lat="45.0915" lon="0.62837">
        <ele>154.6</ele>
        <time>2025-05-25T08:34:41Z</time>
      </trkpt>
      <trkpt lat="45.0915" lon="0.6284">
        <ele>154.6</ele>
        <time>2025-05-25T08:34:42Z</time>
      </trkpt>
      <trkpt lat="45.09149" lon="0.62843">
        <ele>154.8</ele>
        <time>2025-05-25T08:34:43Z</time>
      </trkpt>
      <trkpt lat="45.09149" lon="0.62846">
        <ele>155</ele>
        <time>2025-05-25T08:34:44Z</time>
      </trkpt>
      <trkpt lat="45.09149" lon="0.62849">
        <ele>155.2</ele>
        <time>2025-05-25T08:34:45Z</time>
      </trkpt>
      <trkpt lat="45.09149" lon="0.62852">
        <ele>155.4</ele>
        <time>2025-05-25T08:34:46Z</time>
      </trkpt>
      <trkpt lat="45.09147" lon="0.62855">
        <ele>155.6</ele>
        <time>2025-05-25T08:34:47Z</time>
      </trkpt>
      <trkpt lat="45.09147" lon="0.62858">
        <ele>155.8</ele>
        <time>2025-05-25T08:34:48Z</time>
      </trkpt>
      <trkpt lat="45.09147" lon="0.62861">
        <ele>156</ele>
        <time>2025-05-25T08:34:49Z</time>
      </trkpt>
      <trkpt lat="45.09147" lon="0.62864">
        <ele>156.2</ele>
        <time>2025-05-25T08:34:50Z</time>
      </trkpt>
      <trkpt lat="45.09147" lon="0.62866">
        <ele>156.6</ele>
        <time>2025-05-25T08:34:51Z</time>
      </trkpt>
      <trkpt lat="45.09147" lon="0.62869">
        <ele>156.8</ele>
        <time>2025-05-25T08:34:52Z</time>
      </trkpt>
      <trkpt lat="45.09147" lon="0.62871">
        <ele>157</ele>
        <time>2025-05-25T08:34:53Z</time>
      </trkpt>
      <trkpt lat="45.09147" lon="0.62874">
        <ele>157.4</ele>
        <time>2025-05-25T08:34:54Z</time>
      </trkpt>
      <trkpt lat="45.09147" lon="0.62875">
        <ele>157.6</ele>
        <time>2025-05-25T08:34:55Z</time>
      </trkpt>
      <trkpt lat="45.09147" lon="0.62877">
        <ele>157.8</ele>
        <time>2025-05-25T08:34:56Z</time>
      </trkpt>
      <trkpt lat="45.09147" lon="0.62879">
        <ele>158</ele>
        <time>2025-05-25T08:34:57Z</time>
      </trkpt>
      <trkpt lat="45.09147" lon="0.62882">
        <ele>158.4</ele>
        <time>2025-05-25T08:34:58Z</time>
      </trkpt>
      <trkpt lat="45.09147" lon="0.62884">
        <ele>158.6</ele>
        <time>2025-05-25T08:34:59Z</time>
      </trkpt>
      <trkpt lat="45.09147" lon="0.62885">
        <ele>158.8</ele>
        <time>2025-05-25T08:35:00Z</time>
      </trkpt>
      <trkpt lat="45.09147" lon="0.62887">
        <ele>159</ele>
        <time>2025-05-25T08:35:01Z</time>
      </trkpt>
      <trkpt lat="45.09147" lon="0.62889">
        <ele>159.2</ele>
        <time>2025-05-25T08:35:02Z</time>
      </trkpt>
      <trkpt lat="45.09147" lon="0.62891">
        <ele>159.6</ele>
        <time>2025-05-25T08:35:03Z</time>
      </trkpt>
      <trkpt lat="45.09147" lon="0.62893">
        <ele>159.8</ele>
        <time>2025-05-25T08:35:04Z</time>
      </trkpt>
      <trkpt lat="45.09147" lon="0.62895">
        <ele>160</ele>
        <time>2025-05-25T08:35:05Z</time>
      </trkpt>
      <trkpt lat="45.09147" lon="0.62897">
        <ele>160.2</ele>
        <time>2025-05-25T08:35:06Z</time>
      </trkpt>
      <trkpt lat="45.09147" lon="0.62899">
        <ele>160.4</ele>
        <time>2025-05-25T08:35:07Z</time>
      </trkpt>
      <trkpt lat="45.09147" lon="0.629">
        <ele>160.6</ele>
        <time>2025-05-25T08:35:08Z</time>
      </trkpt>
      <trkpt lat="45.09147" lon="0.62903">
        <ele>161</ele>
        <time>2025-05-25T08:35:09Z</time>
      </trkpt>
      <trkpt lat="45.09147" lon="0.62905">
        <ele>161.2</ele>
        <time>2025-05-25T08:35:10Z</time>
      </trkpt>
      <trkpt lat="45.09147" lon="0.62906">
        <ele>161.6</ele>
        <time>2025-05-25T08:35:11Z</time>
      </trkpt>
      <trkpt lat="45.09147" lon="0.62908">
        <ele>161.8</ele>
        <time>2025-05-25T08:35:12Z</time>
      </trkpt>
      <trkpt lat="45.09146" lon="0.6291">
        <ele>162</ele>
        <time>2025-05-25T08:35:13Z</time>
      </trkpt>
      <trkpt lat="45.09146" lon="0.62912">
        <ele>162.4</ele>
        <time>2025-05-25T08:35:14Z</time>
      </trkpt>
      <trkpt lat="45.09146" lon="0.62914">
        <ele>162.6</ele>
        <time>2025-05-25T08:35:15Z</time>
      </trkpt>
      <trkpt lat="45.09145" lon="0.62916">
        <ele>162.8</ele>
        <time>2025-05-25T08:35:16Z</time>
      </trkpt>
      <trkpt lat="45.09144" lon="0.62918">
        <ele>163</ele>
        <time>2025-05-25T08:35:17Z</time>
      </trkpt>
      <trkpt lat="45.09144" lon="0.6292">
        <ele>163.2</ele>
        <time>2025-05-25T08:35:18Z</time>
      </trkpt>
      <trkpt lat="45.09144" lon="0.62921">
        <ele>163.4</ele>
        <time>2025-05-25T08:35:19Z</time>
      </trkpt>
      <trkpt lat="45.09143" lon="0.62923">
        <ele>163.8</ele>
        <time>2025-05-25T08:35:20Z</time>
      </trkpt>
      <trkpt lat="45.09142" lon="0.62925">
        <ele>163.8</ele>
        <time>2025-05-25T08:35:21Z</time>
      </trkpt>
      <trkpt lat="45.09141" lon="0.62927">
        <ele>164</ele>
        <time>2025-05-25T08:35:22Z</time>
      </trkpt>
      <trkpt lat="45.0914" lon="0.62928">
        <ele>164.2</ele>
        <time>2025-05-25T08:35:23Z</time>
      </trkpt>
      <trkpt lat="45.09139" lon="0.6293">
        <ele>164.4</ele>
        <time>2025-05-25T08:35:24Z</time>
      </trkpt>
      <trkpt lat="45.09139" lon="0.62932">
        <ele>164.6</ele>
        <time>2025-05-25T08:35:25Z</time>
      </trkpt>
      <trkpt lat="45.09138" lon="0.62934">
        <ele>164.8</ele>
        <time>2025-05-25T08:35:26Z</time>
      </trkpt>
      <trkpt lat="45.09137" lon="0.62935">
        <ele>165</ele>
        <time>2025-05-25T08:35:27Z</time>
      </trkpt>
      <trkpt lat="45.09137" lon="0.62937">
        <ele>165.2</ele>
        <time>2025-05-25T08:35:28Z</time>
      </trkpt>
      <trkpt lat="45.09136" lon="0.62939">
        <ele>165.4</ele>
        <time>2025-05-25T08:35:29Z</time>
      </trkpt>
      <trkpt lat="45.09135" lon="0.6294">
        <ele>165.6</ele>
        <time>2025-05-25T08:35:30Z</time>
      </trkpt>
      <trkpt lat="45.09134" lon="0.62942">
        <ele>166</ele>
        <time>2025-05-25T08:35:31Z</time>
      </trkpt>
      <trkpt lat="45.09133" lon="0.62943">
        <ele>166</ele>
        <time>2025-05-25T08:35:32Z</time>
      </trkpt>
      <trkpt lat="45.09132" lon="0.62944">
        <ele>166.2</ele>
        <time>2025-05-25T08:35:33Z</time>
      </trkpt>
      <trkpt lat="45.09132" lon="0.62945">
        <ele>166.4</ele>
        <time>2025-05-25T08:35:34Z</time>
      </trkpt>
      <trkpt lat="45.09131" lon="0.62947">
        <ele>166.6</ele>
        <time>2025-05-25T08:35:35Z</time>
      </trkpt>
      <trkpt lat="45.0913" lon="0.62949">
        <ele>166.8</ele>
        <time>2025-05-25T08:35:36Z</time>
      </trkpt>
      <trkpt lat="45.09129" lon="0.6295">
        <ele>167</ele>
        <time>2025-05-25T08:35:37Z</time>
      </trkpt>
      <trkpt lat="45.09128" lon="0.62952">
        <ele>167.2</ele>
        <time>2025-05-25T08:35:38Z</time>
      </trkpt>
      <trkpt lat="45.09127" lon="0.62953">
        <ele>167.4</ele>
        <time>2025-05-25T08:35:39Z</time>
      </trkpt>
      <trkpt lat="45.09126" lon="0.62955">
        <ele>167.6</ele>
        <time>2025-05-25T08:35:40Z</time>
      </trkpt>
      <trkpt lat="45.09126" lon="0.62956">
        <ele>167.8</ele>
        <time>2025-05-25T08:35:41Z</time>
      </trkpt>
      <trkpt lat="45.09124" lon="0.62957">
        <ele>168.2</ele>
        <time>2025-05-25T08:35:42Z</time>
      </trkpt>
      <trkpt lat="45.09123" lon="0.62959">
        <ele>168.4</ele>
        <time>2025-05-25T08:35:43Z</time>
      </trkpt>
      <trkpt lat="45.09123" lon="0.6296">
        <ele>168.6</ele>
        <time>2025-05-25T08:35:44Z</time>
      </trkpt>
      <trkpt lat="45.09121" lon="0.62961">
        <ele>168.8</ele>
        <time>2025-05-25T08:35:45Z</time>
      </trkpt>
      <trkpt lat="45.09121" lon="0.62962">
        <ele>169</ele>
        <time>2025-05-25T08:35:46Z</time>
      </trkpt>
      <trkpt lat="45.0912" lon="0.62964">
        <ele>169.2</ele>
        <time>2025-05-25T08:35:47Z</time>
      </trkpt>
      <trkpt lat="45.09119" lon="0.62966">
        <ele>169.4</ele>
        <time>2025-05-25T08:35:48Z</time>
      </trkpt>
      <trkpt lat="45.09119" lon="0.62967">
        <ele>169.6</ele>
        <time>2025-05-25T08:35:49Z</time>
      </trkpt>
      <trkpt lat="45.09118" lon="0.62969">
        <ele>169.6</ele>
        <time>2025-05-25T08:35:50Z</time>
      </trkpt>
      <trkpt lat="45.09118" lon="0.6297">
        <ele>169.8</ele>
        <time>2025-05-25T08:35:51Z</time>
      </trkpt>
      <trkpt lat="45.09118" lon="0.62972">
        <ele>170</ele>
        <time>2025-05-25T08:35:52Z</time>
      </trkpt>
      <trkpt lat="45.09119" lon="0.62974">
        <ele>170.2</ele>
        <time>2025-05-25T08:35:53Z</time>
      </trkpt>
      <trkpt lat="45.09119" lon="0.62976">
        <ele>170.4</ele>
        <time>2025-05-25T08:35:54Z</time>
      </trkpt>
      <trkpt lat="45.09119" lon="0.62978">
        <ele>170.6</ele>
        <time>2025-05-25T08:35:55Z</time>
      </trkpt>
      <trkpt lat="45.0912" lon="0.6298">
        <ele>170.8</ele>
        <time>2025-05-25T08:35:56Z</time>
      </trkpt>
      <trkpt lat="45.0912" lon="0.62982">
        <ele>171.2</ele>
        <time>2025-05-25T08:35:57Z</time>
      </trkpt>
      <trkpt lat="45.0912" lon="0.62984">
        <ele>171.4</ele>
        <time>2025-05-25T08:35:58Z</time>
      </trkpt>
      <trkpt lat="45.0912" lon="0.62986">
        <ele>171.6</ele>
        <time>2025-05-25T08:35:59Z</time>
      </trkpt>
      <trkpt lat="45.0912" lon="0.62988">
        <ele>172</ele>
        <time>2025-05-25T08:36:00Z</time>
      </trkpt>
      <trkpt lat="45.09121" lon="0.62989">
        <ele>172.2</ele>
        <time>2025-05-25T08:36:01Z</time>
      </trkpt>
      <trkpt lat="45.09121" lon="0.62991">
        <ele>172.4</ele>
        <time>2025-05-25T08:36:02Z</time>
      </trkpt>
      <trkpt lat="45.09122" lon="0.62993">
        <ele>172.6</ele>
        <time>2025-05-25T08:36:03Z</time>
      </trkpt>
      <trkpt lat="45.09122" lon="0.62995">
        <ele>172.8</ele>
        <time>2025-05-25T08:36:04Z</time>
      </trkpt>
      <trkpt lat="45.09123" lon="0.62997">
        <ele>173</ele>
        <time>2025-05-25T08:36:05Z</time>
      </trkpt>
      <trkpt lat="45.09123" lon="0.62999">
        <ele>173.2</ele>
        <time>2025-05-25T08:36:06Z</time>
      </trkpt>
      <trkpt lat="45.09124" lon="0.63002">
        <ele>173.4</ele>
        <time>2025-05-25T08:36:07Z</time>
      </trkpt>
      <trkpt lat="45.09124" lon="0.63004">
        <ele>173.6</ele>
        <time>2025-05-25T08:36:08Z</time>
      </trkpt>
      <trkpt lat="45.09124" lon="0.63005">
        <ele>173.8</ele>
        <time>2025-05-25T08:36:09Z</time>
      </trkpt>
      <trkpt lat="45.09125" lon="0.63007">
        <ele>174</ele>
        <time>2025-05-25T08:36:10Z</time>
      </trkpt>
      <trkpt lat="45.09125" lon="0.63009">
        <ele>174</ele>
        <time>2025-05-25T08:36:11Z</time>
      </trkpt>
      <trkpt lat="45.09125" lon="0.63011">
        <ele>174.2</ele>
        <time>2025-05-25T08:36:12Z</time>
      </trkpt>
      <trkpt lat="45.09125" lon="0.63013">
        <ele>174.4</ele>
        <time>2025-05-25T08:36:13Z</time>
      </trkpt>
      <trkpt lat="45.09125" lon="0.63015">
        <ele>174.6</ele>
        <time>2025-05-25T08:36:14Z</time>
      </trkpt>
      <trkpt lat="45.09124" lon="0.63017">
        <ele>175</ele>
        <time>2025-05-25T08:36:15Z</time>
      </trkpt>
      <trkpt lat="45.09124" lon="0.63019">
        <ele>175.2</ele>
        <time>2025-05-25T08:36:16Z</time>
      </trkpt>
      <trkpt lat="45.09124" lon="0.63021">
        <ele>175.4</ele>
        <time>2025-05-25T08:36:17Z</time>
      </trkpt>
      <trkpt lat="45.09124" lon="0.63023">
        <ele>175.6</ele>
        <time>2025-05-25T08:36:18Z</time>
      </trkpt>
      <trkpt lat="45.09125" lon="0.63025">
        <ele>175.8</ele>
        <time>2025-05-25T08:36:19Z</time>
      </trkpt>
      <trkpt lat="45.09125" lon="0.63028">
        <ele>176</ele>
        <time>2025-05-25T08:36:20Z</time>
      </trkpt>
      <trkpt lat="45.09125" lon="0.6303">
        <ele>176.2</ele>
        <time>2025-05-25T08:36:21Z</time>
      </trkpt>
      <trkpt lat="45.09125" lon="0.63032">
        <ele>176.4</ele>
        <time>2025-05-25T08:36:22Z</time>
      </trkpt>
      <trkpt lat="45.09125" lon="0.63034">
        <ele>176.6</ele>
        <time>2025-05-25T08:36:23Z</time>
      </trkpt>
      <trkpt lat="45.09125" lon="0.63036">
        <ele>176.8</ele>
        <time>2025-05-25T08:36:24Z</time>
      </trkpt>
      <trkpt lat="45.09125" lon="0.63038">
        <ele>177</ele>
        <time>2025-05-25T08:36:25Z</time>
      </trkpt>
      <trkpt lat="45.09125" lon="0.6304">
        <ele>177.2</ele>
        <time>2025-05-25T08:36:26Z</time>
      </trkpt>
      <trkpt lat="45.09124" lon="0.63041">
        <ele>177.4</ele>
        <time>2025-05-25T08:36:27Z</time>
      </trkpt>
      <trkpt lat="45.09123" lon="0.63042">
        <ele>177.8</ele>
        <time>2025-05-25T08:36:28Z</time>
      </trkpt>
      <trkpt lat="45.09121" lon="0.63041">
        <ele>177.8</ele>
        <time>2025-05-25T08:36:29Z</time>
      </trkpt>
      <trkpt lat="45.09119" lon="0.63039">
        <ele>178</ele>
        <time>2025-05-25T08:36:30Z</time>
      </trkpt>
      <trkpt lat="45.09116" lon="0.63037">
        <ele>178</ele>
        <time>2025-05-25T08:36:31Z</time>
      </trkpt>
      <trkpt lat="45.09114" lon="0.63034">
        <ele>177.6</ele>
        <time>2025-05-25T08:36:32Z</time>
      </trkpt>
      <trkpt lat="45.09111" lon="0.6303">
        <ele>177.4</ele>
        <time>2025-05-25T08:36:33Z</time>
      </trkpt>
      <trkpt lat="45.09108" lon="0.63025">
        <ele>177</ele>
        <time>2025-05-25T08:36:34Z</time>
      </trkpt>
      <trkpt lat="45.09104" lon="0.63019">
        <ele>176.4</ele>
        <time>2025-05-25T08:36:35Z</time>
      </trkpt>
      <trkpt lat="45.09101" lon="0.63012">
        <ele>176</ele>
        <time>2025-05-25T08:36:36Z</time>
      </trkpt>
      <trkpt lat="45.09097" lon="0.63004">
        <ele>175.4</ele>
        <time>2025-05-25T08:36:37Z</time>
      </trkpt>
      <trkpt lat="45.09093" lon="0.62995">
        <ele>174.6</ele>
        <time>2025-05-25T08:36:38Z</time>
      </trkpt>
      <trkpt lat="45.09089" lon="0.62986">
        <ele>174</ele>
        <time>2025-05-25T08:36:39Z</time>
      </trkpt>
      <trkpt lat="45.09084" lon="0.62978">
        <ele>173.4</ele>
        <time>2025-05-25T08:36:40Z</time>
      </trkpt>
      <trkpt lat="45.0908" lon="0.62969">
        <ele>172.8</ele>
        <time>2025-05-25T08:36:41Z</time>
      </trkpt>
      <trkpt lat="45.09076" lon="0.6296">
        <ele>172.4</ele>
        <time>2025-05-25T08:36:42Z</time>
      </trkpt>
      <trkpt lat="45.09073" lon="0.62952">
        <ele>172</ele>
        <time>2025-05-25T08:36:43Z</time>
      </trkpt>
      <trkpt lat="45.0907" lon="0.62944">
        <ele>172</ele>
        <time>2025-05-25T08:36:44Z</time>
      </trkpt>
      <trkpt lat="45.09068" lon="0.62938">
        <ele>172.2</ele>
        <time>2025-05-25T08:36:45Z</time>
      </trkpt>
      <trkpt lat="45.09065" lon="0.62934">
        <ele>172.4</ele>
        <time>2025-05-25T08:36:46Z</time>
      </trkpt>
      <trkpt lat="45.09062" lon="0.62931">
        <ele>173</ele>
        <time>2025-05-25T08:36:47Z</time>
      </trkpt>
      <trkpt lat="45.09059" lon="0.62931">
        <ele>173.6</ele>
        <time>2025-05-25T08:36:48Z</time>
      </trkpt>
      <trkpt lat="45.09056" lon="0.62932">
        <ele>174.2</ele>
        <time>2025-05-25T08:36:49Z</time>
      </trkpt>
      <trkpt lat="45.09053" lon="0.62933">
        <ele>174.8</ele>
        <time>2025-05-25T08:36:50Z</time>
      </trkpt>
      <trkpt lat="45.09051" lon="0.62935">
        <ele>175</ele>
        <time>2025-05-25T08:36:51Z</time>
      </trkpt>
      <trkpt lat="45.09048" lon="0.62937">
        <ele>175.4</ele>
        <time>2025-05-25T08:36:52Z</time>
      </trkpt>
      <trkpt lat="45.09045" lon="0.62941">
        <ele>175.6</ele>
        <time>2025-05-25T08:36:53Z</time>
      </trkpt>
      <trkpt lat="45.09043" lon="0.62945">
        <ele>175.6</ele>
        <time>2025-05-25T08:36:54Z</time>
      </trkpt>
      <trkpt lat="45.09043" lon="0.62949">
        <ele>175.6</ele>
        <time>2025-05-25T08:36:55Z</time>
      </trkpt>
      <trkpt lat="45.09043" lon="0.62954">
        <ele>175.4</ele>
        <time>2025-05-25T08:36:56Z</time>
      </trkpt>
      <trkpt lat="45.09043" lon="0.62959">
        <ele>175.4</ele>
        <time>2025-05-25T08:36:57Z</time>
      </trkpt>
      <trkpt lat="45.09042" lon="0.62965">
        <ele>175.2</ele>
        <time>2025-05-25T08:36:58Z</time>
      </trkpt>
      <trkpt lat="45.09042" lon="0.62971">
        <ele>175</ele>
        <time>2025-05-25T08:36:59Z</time>
      </trkpt>
      <trkpt lat="45.0904" lon="0.62977">
        <ele>174.8</ele>
        <time>2025-05-25T08:37:00Z</time>
      </trkpt>
      <trkpt lat="45.09037" lon="0.62981">
        <ele>174.8</ele>
        <time>2025-05-25T08:37:01Z</time>
      </trkpt>
      <trkpt lat="45.09033" lon="0.62984">
        <ele>174.6</ele>
        <time>2025-05-25T08:37:02Z</time>
      </trkpt>
      <trkpt lat="45.09032" lon="0.62988">
        <ele>174.4</ele>
        <time>2025-05-25T08:37:03Z</time>
      </trkpt>
      <trkpt lat="45.09032" lon="0.62991">
        <ele>174.2</ele>
        <time>2025-05-25T08:37:04Z</time>
      </trkpt>
      <trkpt lat="45.09034" lon="0.62995">
        <ele>174.2</ele>
        <time>2025-05-25T08:37:05Z</time>
      </trkpt>
      <trkpt lat="45.09036" lon="0.62998">
        <ele>174.2</ele>
        <time>2025-05-25T08:37:06Z</time>
      </trkpt>
      <trkpt lat="45.09038" lon="0.63003">
        <ele>174</ele>
        <time>2025-05-25T08:37:07Z</time>
      </trkpt>
      <trkpt lat="45.0904" lon="0.63008">
        <ele>174</ele>
        <time>2025-05-25T08:37:08Z</time>
      </trkpt>
      <trkpt lat="45.09041" lon="0.63013">
        <ele>174.2</ele>
        <time>2025-05-25T08:37:09Z</time>
      </trkpt>
      <trkpt lat="45.09042" lon="0.63018">
        <ele>174.2</ele>
        <time>2025-05-25T08:37:10Z</time>
      </trkpt>
      <trkpt lat="45.09044" lon="0.63023">
        <ele>174.4</ele>
        <time>2025-05-25T08:37:11Z</time>
      </trkpt>
      <trkpt lat="45.09045" lon="0.63027">
        <ele>174.6</ele>
        <time>2025-05-25T08:37:12Z</time>
      </trkpt>
      <trkpt lat="45.09046" lon="0.6303">
        <ele>174.8</ele>
        <time>2025-05-25T08:37:13Z</time>
      </trkpt>
      <trkpt lat="45.09046" lon="0.63034">
        <ele>175</ele>
        <time>2025-05-25T08:37:14Z</time>
      </trkpt>
      <trkpt lat="45.09046" lon="0.63037">
        <ele>175.2</ele>
        <time>2025-05-25T08:37:15Z</time>
      </trkpt>
      <trkpt lat="45.09046" lon="0.6304">
        <ele>175.2</ele>
        <time>2025-05-25T08:37:16Z</time>
      </trkpt>
      <trkpt lat="45.09047" lon="0.63045">
        <ele>175.4</ele>
        <time>2025-05-25T08:37:17Z</time>
      </trkpt>
      <trkpt lat="45.09047" lon="0.63049">
        <ele>175.6</ele>
        <time>2025-05-25T08:37:18Z</time>
      </trkpt>
      <trkpt lat="45.09048" lon="0.63053">
        <ele>175.6</ele>
        <time>2025-05-25T08:37:19Z</time>
      </trkpt>
      <trkpt lat="45.09049" lon="0.63058">
        <ele>175.8</ele>
        <time>2025-05-25T08:37:20Z</time>
      </trkpt>
      <trkpt lat="45.0905" lon="0.63064">
        <ele>175.8</ele>
        <time>2025-05-25T08:37:21Z</time>
      </trkpt>
      <trkpt lat="45.09051" lon="0.63069">
        <ele>176</ele>
        <time>2025-05-25T08:37:22Z</time>
      </trkpt>
      <trkpt lat="45.09051" lon="0.63073">
        <ele>176</ele>
        <time>2025-05-25T08:37:23Z</time>
      </trkpt>
      <trkpt lat="45.09052" lon="0.63078">
        <ele>176.2</ele>
        <time>2025-05-25T08:37:24Z</time>
      </trkpt>
      <trkpt lat="45.09053" lon="0.63083">
        <ele>176.4</ele>
        <time>2025-05-25T08:37:25Z</time>
      </trkpt>
      <trkpt lat="45.09054" lon="0.63087">
        <ele>176.6</ele>
        <time>2025-05-25T08:37:26Z</time>
      </trkpt>
      <trkpt lat="45.09055" lon="0.63091">
        <ele>176.8</ele>
        <time>2025-05-25T08:37:27Z</time>
      </trkpt>
      <trkpt lat="45.09056" lon="0.63096">
        <ele>177.2</ele>
        <time>2025-05-25T08:37:28Z</time>
      </trkpt>
      <trkpt lat="45.09057" lon="0.631">
        <ele>177.4</ele>
        <time>2025-05-25T08:37:29Z</time>
      </trkpt>
      <trkpt lat="45.09057" lon="0.63104">
        <ele>177.6</ele>
        <time>2025-05-25T08:37:30Z</time>
      </trkpt>
      <trkpt lat="45.09058" lon="0.63108">
        <ele>177.8</ele>
        <time>2025-05-25T08:37:31Z</time>
      </trkpt>
      <trkpt lat="45.09059" lon="0.63111">
        <ele>178</ele>
        <time>2025-05-25T08:37:32Z</time>
      </trkpt>
      <trkpt lat="45.0906" lon="0.63115">
        <ele>178.2</ele>
        <time>2025-05-25T08:37:33Z</time>
      </trkpt>
      <trkpt lat="45.09061" lon="0.63118">
        <ele>178.6</ele>
        <time>2025-05-25T08:37:34Z</time>
      </trkpt>
      <trkpt lat="45.09062" lon="0.63122">
        <ele>178.8</ele>
        <time>2025-05-25T08:37:35Z</time>
      </trkpt>
      <trkpt lat="45.09063" lon="0.63125">
        <ele>179</ele>
        <time>2025-05-25T08:37:36Z</time>
      </trkpt>
      <trkpt lat="45.09062" lon="0.6313">
        <ele>179.2</ele>
        <time>2025-05-25T08:37:37Z</time>
      </trkpt>
      <trkpt lat="45.09062" lon="0.63133">
        <ele>179.2</ele>
        <time>2025-05-25T08:37:38Z</time>
      </trkpt>
      <trkpt lat="45.09062" lon="0.63137">
        <ele>179.6</ele>
        <time>2025-05-25T08:37:39Z</time>
      </trkpt>
      <trkpt lat="45.09062" lon="0.63142">
        <ele>179.6</ele>
        <time>2025-05-25T08:37:40Z</time>
      </trkpt>
      <trkpt lat="45.09063" lon="0.63146">
        <ele>179.8</ele>
        <time>2025-05-25T08:37:41Z</time>
      </trkpt>
      <trkpt lat="45.09064" lon="0.63149">
        <ele>180</ele>
        <time>2025-05-25T08:37:42Z</time>
      </trkpt>
      <trkpt lat="45.09064" lon="0.63152">
        <ele>180.2</ele>
        <time>2025-05-25T08:37:43Z</time>
      </trkpt>
      <trkpt lat="45.09065" lon="0.63155">
        <ele>180.4</ele>
        <time>2025-05-25T08:37:44Z</time>
      </trkpt>
      <trkpt lat="45.09066" lon="0.63158">
        <ele>180.6</ele>
        <time>2025-05-25T08:37:45Z</time>
      </trkpt>
      <trkpt lat="45.09067" lon="0.63161">
        <ele>180.8</ele>
        <time>2025-05-25T08:37:46Z</time>
      </trkpt>
      <trkpt lat="45.09068" lon="0.63164">
        <ele>181</ele>
        <time>2025-05-25T08:37:47Z</time>
      </trkpt>
      <trkpt lat="45.09069" lon="0.63167">
        <ele>181.2</ele>
        <time>2025-05-25T08:37:48Z</time>
      </trkpt>
      <trkpt lat="45.0907" lon="0.63171">
        <ele>181.4</ele>
        <time>2025-05-25T08:37:49Z</time>
      </trkpt>
      <trkpt lat="45.0907" lon="0.63174">
        <ele>181.6</ele>
        <time>2025-05-25T08:37:50Z</time>
      </trkpt>
      <trkpt lat="45.0907" lon="0.63177">
        <ele>181.8</ele>
        <time>2025-05-25T08:37:51Z</time>
      </trkpt>
      <trkpt lat="45.09071" lon="0.63181">
        <ele>182</ele>
        <time>2025-05-25T08:37:52Z</time>
      </trkpt>
      <trkpt lat="45.09071" lon="0.63185">
        <ele>182</ele>
        <time>2025-05-25T08:37:53Z</time>
      </trkpt>
      <trkpt lat="45.09072" lon="0.63189">
        <ele>182.2</ele>
        <time>2025-05-25T08:37:54Z</time>
      </trkpt>
      <trkpt lat="45.09074" lon="0.63192">
        <ele>182.4</ele>
        <time>2025-05-25T08:37:55Z</time>
      </trkpt>
      <trkpt lat="45.09074" lon="0.63196">
        <ele>182.6</ele>
        <time>2025-05-25T08:37:56Z</time>
      </trkpt>
      <trkpt lat="45.09075" lon="0.63199">
        <ele>182.8</ele>
        <time>2025-05-25T08:37:57Z</time>
      </trkpt>
      <trkpt lat="45.09075" lon="0.63202">
        <ele>183</ele>
        <time>2025-05-25T08:37:58Z</time>
      </trkpt>
      <trkpt lat="45.09074" lon="0.63204">
        <ele>183.2</ele>
        <time>2025-05-25T08:37:59Z</time>
      </trkpt>
      <trkpt lat="45.09073" lon="0.63207">
        <ele>183.2</ele>
        <time>2025-05-25T08:38:00Z</time>
      </trkpt>
      <trkpt lat="45.09071" lon="0.63209">
        <ele>183.2</ele>
        <time>2025-05-25T08:38:01Z</time>
      </trkpt>
      <trkpt lat="45.09068" lon="0.63213">
        <ele>183</ele>
        <time>2025-05-25T08:38:02Z</time>
      </trkpt>
      <trkpt lat="45.09065" lon="0.63218">
        <ele>182.6</ele>
        <time>2025-05-25T08:38:03Z</time>
      </trkpt>
      <trkpt lat="45.09062" lon="0.63224">
        <ele>182.2</ele>
        <time>2025-05-25T08:38:04Z</time>
      </trkpt>
      <trkpt lat="45.0906" lon="0.63232">
        <ele>181.6</ele>
        <time>2025-05-25T08:38:05Z</time>
      </trkpt>
      <trkpt lat="45.09056" lon="0.6324">
        <ele>180.6</ele>
        <time>2025-05-25T08:38:06Z</time>
      </trkpt>
      <trkpt lat="45.09053" lon="0.63248">
        <ele>179.8</ele>
        <time>2025-05-25T08:38:07Z</time>
      </trkpt>
      <trkpt lat="45.09051" lon="0.63257">
        <ele>178.8</ele>
        <time>2025-05-25T08:38:08Z</time>
      </trkpt>
      <trkpt lat="45.0905" lon="0.63266">
        <ele>178</ele>
        <time>2025-05-25T08:38:09Z</time>
      </trkpt>
      <trkpt lat="45.09048" lon="0.63275">
        <ele>177</ele>
        <time>2025-05-25T08:38:10Z</time>
      </trkpt>
      <trkpt lat="45.09046" lon="0.63285">
        <ele>176.2</ele>
        <time>2025-05-25T08:38:11Z</time>
      </trkpt>
      <trkpt lat="45.09045" lon="0.63295">
        <ele>175.4</ele>
        <time>2025-05-25T08:38:12Z</time>
      </trkpt>
      <trkpt lat="45.09043" lon="0.63305">
        <ele>174.4</ele>
        <time>2025-05-25T08:38:13Z</time>
      </trkpt>
      <trkpt lat="45.09041" lon="0.63317">
        <ele>173.4</ele>
        <time>2025-05-25T08:38:14Z</time>
      </trkpt>
      <trkpt lat="45.09039" lon="0.63328">
        <ele>172.4</ele>
        <time>2025-05-25T08:38:15Z</time>
      </trkpt>
      <trkpt lat="45.09037" lon="0.63341">
        <ele>171</ele>
        <time>2025-05-25T08:38:16Z</time>
      </trkpt>
      <trkpt lat="45.09035" lon="0.63355">
        <ele>169.4</ele>
        <time>2025-05-25T08:38:17Z</time>
      </trkpt>
      <trkpt lat="45.09032" lon="0.63369">
        <ele>167.8</ele>
        <time>2025-05-25T08:38:18Z</time>
      </trkpt>
      <trkpt lat="45.09031" lon="0.63383">
        <ele>166.6</ele>
        <time>2025-05-25T08:38:19Z</time>
      </trkpt>
      <trkpt lat="45.0903" lon="0.63397">
        <ele>165.4</ele>
        <time>2025-05-25T08:38:20Z</time>
      </trkpt>
      <trkpt lat="45.09029" lon="0.63412">
        <ele>163.8</ele>
        <time>2025-05-25T08:38:21Z</time>
      </trkpt>
      <trkpt lat="45.09028" lon="0.63428">
        <ele>162.6</ele>
        <time>2025-05-25T08:38:22Z</time>
      </trkpt>
      <trkpt lat="45.09028" lon="0.63443">
        <ele>161.4</ele>
        <time>2025-05-25T08:38:23Z</time>
      </trkpt>
      <trkpt lat="45.09027" lon="0.63457">
        <ele>160</ele>
        <time>2025-05-25T08:38:24Z</time>
      </trkpt>
      <trkpt lat="45.09026" lon="0.63469">
        <ele>159</ele>
        <time>2025-05-25T08:38:25Z</time>
      </trkpt>
      <trkpt lat="45.09026" lon="0.63479">
        <ele>158.6</ele>
        <time>2025-05-25T08:38:26Z</time>
      </trkpt>
      <trkpt lat="45.09026" lon="0.63488">
        <ele>158.2</ele>
        <time>2025-05-25T08:38:27Z</time>
      </trkpt>
      <trkpt lat="45.09026" lon="0.63497">
        <ele>158</ele>
        <time>2025-05-25T08:38:28Z</time>
      </trkpt>
      <trkpt lat="45.09027" lon="0.63506">
        <ele>157.6</ele>
        <time>2025-05-25T08:38:29Z</time>
      </trkpt>
      <trkpt lat="45.09028" lon="0.63515">
        <ele>157.2</ele>
        <time>2025-05-25T08:38:30Z</time>
      </trkpt>
      <trkpt lat="45.09029" lon="0.63524">
        <ele>156.6</ele>
        <time>2025-05-25T08:38:31Z</time>
      </trkpt>
      <trkpt lat="45.09029" lon="0.63534">
        <ele>156</ele>
        <time>2025-05-25T08:38:32Z</time>
      </trkpt>
      <trkpt lat="45.09029" lon="0.63545">
        <ele>155.2</ele>
        <time>2025-05-25T08:38:33Z</time>
      </trkpt>
      <trkpt lat="45.09029" lon="0.63557">
        <ele>154.6</ele>
        <time>2025-05-25T08:38:34Z</time>
      </trkpt>
      <trkpt lat="45.09027" lon="0.63569">
        <ele>153.4</ele>
        <time>2025-05-25T08:38:35Z</time>
      </trkpt>
      <trkpt lat="45.09026" lon="0.63581">
        <ele>152.6</ele>
        <time>2025-05-25T08:38:36Z</time>
      </trkpt>
      <trkpt lat="45.09022" lon="0.63592">
        <ele>151.8</ele>
        <time>2025-05-25T08:38:37Z</time>
      </trkpt>
      <trkpt lat="45.09018" lon="0.63602">
        <ele>151.2</ele>
        <time>2025-05-25T08:38:38Z</time>
      </trkpt>
      <trkpt lat="45.09014" lon="0.63608">
        <ele>150.6</ele>
        <time>2025-05-25T08:38:39Z</time>
      </trkpt>
      <trkpt lat="45.09011" lon="0.6361">
        <ele>150.4</ele>
        <time>2025-05-25T08:38:40Z</time>
      </trkpt>
      <trkpt lat="45.09008" lon="0.63607">
        <ele>150.2</ele>
        <time>2025-05-25T08:38:41Z</time>
      </trkpt>
      <trkpt lat="45.09004" lon="0.63604">
        <ele>149.8</ele>
        <time>2025-05-25T08:38:42Z</time>
      </trkpt>
      <trkpt lat="45.08999" lon="0.63601">
        <ele>149.4</ele>
        <time>2025-05-25T08:38:43Z</time>
      </trkpt>
      <trkpt lat="45.08992" lon="0.63598">
        <ele>149</ele>
        <time>2025-05-25T08:38:44Z</time>
      </trkpt>
      <trkpt lat="45.08985" lon="0.63597">
        <ele>147.2</ele>
        <time>2025-05-25T08:38:45Z</time>
      </trkpt>
      <trkpt lat="45.08977" lon="0.63597">
        <ele>144.6</ele>
        <time>2025-05-25T08:38:46Z</time>
      </trkpt>
      <trkpt lat="45.08969" lon="0.636">
        <ele>142.8</ele>
        <time>2025-05-25T08:38:47Z</time>
      </trkpt>
      <trkpt lat="45.08961" lon="0.63603">
        <ele>142.2</ele>
        <time>2025-05-25T08:38:48Z</time>
      </trkpt>
      <trkpt lat="45.08953" lon="0.63606">
        <ele>141.2</ele>
        <time>2025-05-25T08:38:49Z</time>
      </trkpt>
      <trkpt lat="45.08945" lon="0.63611">
        <ele>139.8</ele>
        <time>2025-05-25T08:38:50Z</time>
      </trkpt>
      <trkpt lat="45.08938" lon="0.63617">
        <ele>138.4</ele>
        <time>2025-05-25T08:38:51Z</time>
      </trkpt>
      <trkpt lat="45.08932" lon="0.63624">
        <ele>136.8</ele>
        <time>2025-05-25T08:38:52Z</time>
      </trkpt>
      <trkpt lat="45.08926" lon="0.63632">
        <ele>135.4</ele>
        <time>2025-05-25T08:38:53Z</time>
      </trkpt>
      <trkpt lat="45.0892" lon="0.6364">
        <ele>134.4</ele>
        <time>2025-05-25T08:38:54Z</time>
      </trkpt>
      <trkpt lat="45.08913" lon="0.63644">
        <ele>133.2</ele>
        <time>2025-05-25T08:38:55Z</time>
      </trkpt>
      <trkpt lat="45.08904" lon="0.63646">
        <ele>132</ele>
        <time>2025-05-25T08:38:56Z</time>
      </trkpt>
      <trkpt lat="45.08895" lon="0.63647">
        <ele>130.4</ele>
        <time>2025-05-25T08:38:57Z</time>
      </trkpt>
      <trkpt lat="45.08888" lon="0.63647">
        <ele>129.2</ele>
        <time>2025-05-25T08:38:58Z</time>
      </trkpt>
      <trkpt lat="45.08881" lon="0.63646">
        <ele>127.8</ele>
        <time>2025-05-25T08:38:59Z</time>
      </trkpt>
      <trkpt lat="45.08874" lon="0.63646">
        <ele>126.6</ele>
        <time>2025-05-25T08:39:00Z</time>
      </trkpt>
      <trkpt lat="45.08869" lon="0.63644">
        <ele>125.4</ele>
        <time>2025-05-25T08:39:01Z</time>
      </trkpt>
      <trkpt lat="45.08864" lon="0.63642">
        <ele>124.4</ele>
        <time>2025-05-25T08:39:02Z</time>
      </trkpt>
      <trkpt lat="45.0886" lon="0.63641">
        <ele>123.2</ele>
        <time>2025-05-25T08:39:03Z</time>
      </trkpt>
      <trkpt lat="45.08858" lon="0.63641">
        <ele>122.6</ele>
        <time>2025-05-25T08:39:04Z</time>
      </trkpt>
      <trkpt lat="45.08855" lon="0.63641">
        <ele>122.2</ele>
        <time>2025-05-25T08:39:05Z</time>
      </trkpt>
      <trkpt lat="45.08853" lon="0.63643">
        <ele>122</ele>
        <time>2025-05-25T08:39:06Z</time>
      </trkpt>
      <trkpt lat="45.08852" lon="0.63646">
        <ele>121.8</ele>
        <time>2025-05-25T08:39:07Z</time>
      </trkpt>
      <trkpt lat="45.08853" lon="0.63649">
        <ele>121.8</ele>
        <time>2025-05-25T08:39:08Z</time>
      </trkpt>
      <trkpt lat="45.08853" lon="0.63654">
        <ele>121.8</ele>
        <time>2025-05-25T08:39:09Z</time>
      </trkpt>
      <trkpt lat="45.08853" lon="0.63658">
        <ele>121.8</ele>
        <time>2025-05-25T08:39:10Z</time>
      </trkpt>
      <trkpt lat="45.08853" lon="0.63663">
        <ele>121.8</ele>
        <time>2025-05-25T08:39:11Z</time>
      </trkpt>
      <trkpt lat="45.08854" lon="0.63668">
        <ele>121.8</ele>
        <time>2025-05-25T08:39:12Z</time>
      </trkpt>
      <trkpt lat="45.08854" lon="0.63673">
        <ele>121.8</ele>
        <time>2025-05-25T08:39:13Z</time>
      </trkpt>
      <trkpt lat="45.08855" lon="0.63678">
        <ele>121.8</ele>
        <time>2025-05-25T08:39:14Z</time>
      </trkpt>
      <trkpt lat="45.08855" lon="0.63684">
        <ele>121.8</ele>
        <time>2025-05-25T08:39:15Z</time>
      </trkpt>
      <trkpt lat="45.08856" lon="0.63689">
        <ele>121.8</ele>
        <time>2025-05-25T08:39:16Z</time>
      </trkpt>
      <trkpt lat="45.08857" lon="0.63694">
        <ele>121.8</ele>
        <time>2025-05-25T08:39:17Z</time>
      </trkpt>
      <trkpt lat="45.08858" lon="0.63699">
        <ele>121.8</ele>
        <time>2025-05-25T08:39:18Z</time>
      </trkpt>
      <trkpt lat="45.08859" lon="0.63705">
        <ele>121.8</ele>
        <time>2025-05-25T08:39:19Z</time>
      </trkpt>
      <trkpt lat="45.0886" lon="0.6371">
        <ele>122</ele>
        <time>2025-05-25T08:39:20Z</time>
      </trkpt>
      <trkpt lat="45.08862" lon="0.63716">
        <ele>122</ele>
        <time>2025-05-25T08:39:21Z</time>
      </trkpt>
      <trkpt lat="45.08863" lon="0.6372">
        <ele>122</ele>
        <time>2025-05-25T08:39:22Z</time>
      </trkpt>
      <trkpt lat="45.08863" lon="0.63725">
        <ele>122</ele>
        <time>2025-05-25T08:39:23Z</time>
      </trkpt>
      <trkpt lat="45.08864" lon="0.63731">
        <ele>122</ele>
        <time>2025-05-25T08:39:24Z</time>
      </trkpt>
      <trkpt lat="45.08864" lon="0.63736">
        <ele>122</ele>
        <time>2025-05-25T08:39:25Z</time>
      </trkpt>
      <trkpt lat="45.08865" lon="0.63741">
        <ele>122.2</ele>
        <time>2025-05-25T08:39:26Z</time>
      </trkpt>
      <trkpt lat="45.08865" lon="0.63745">
        <ele>122.2</ele>
        <time>2025-05-25T08:39:27Z</time>
      </trkpt>
      <trkpt lat="45.08866" lon="0.6375">
        <ele>122.2</ele>
        <time>2025-05-25T08:39:28Z</time>
      </trkpt>
      <trkpt lat="45.08866" lon="0.63755">
        <ele>122.4</ele>
        <time>2025-05-25T08:39:29Z</time>
      </trkpt>
      <trkpt lat="45.08866" lon="0.6376">
        <ele>122.4</ele>
        <time>2025-05-25T08:39:30Z</time>
      </trkpt>
      <trkpt lat="45.08866" lon="0.63765">
        <ele>122.6</ele>
        <time>2025-05-25T08:39:31Z</time>
      </trkpt>
      <trkpt lat="45.08865" lon="0.6377">
        <ele>122.6</ele>
        <time>2025-05-25T08:39:32Z</time>
      </trkpt>
      <trkpt lat="45.08865" lon="0.63775">
        <ele>122.8</ele>
        <time>2025-05-25T08:39:33Z</time>
      </trkpt>
      <trkpt lat="45.08865" lon="0.6378">
        <ele>123</ele>
        <time>2025-05-25T08:39:34Z</time>
      </trkpt>
      <trkpt lat="45.08865" lon="0.63785">
        <ele>123</ele>
        <time>2025-05-25T08:39:35Z</time>
      </trkpt>
      <trkpt lat="45.08864" lon="0.6379">
        <ele>123.2</ele>
        <time>2025-05-25T08:39:36Z</time>
      </trkpt>
      <trkpt lat="45.08863" lon="0.63795">
        <ele>123.4</ele>
        <time>2025-05-25T08:39:37Z</time>
      </trkpt>
      <trkpt lat="45.08862" lon="0.638">
        <ele>123.4</ele>
        <time>2025-05-25T08:39:38Z</time>
      </trkpt>
      <trkpt lat="45.0886" lon="0.63805">
        <ele>123.4</ele>
        <time>2025-05-25T08:39:39Z</time>
      </trkpt>
      <trkpt lat="45.08858" lon="0.63811">
        <ele>123.4</ele>
        <time>2025-05-25T08:39:40Z</time>
      </trkpt>
      <trkpt lat="45.08856" lon="0.63817">
        <ele>123.4</ele>
        <time>2025-05-25T08:39:41Z</time>
      </trkpt>
      <trkpt lat="45.08854" lon="0.63824">
        <ele>123</ele>
        <time>2025-05-25T08:39:42Z</time>
      </trkpt>
      <trkpt lat="45.08851" lon="0.6383">
        <ele>122.6</ele>
        <time>2025-05-25T08:39:43Z</time>
      </trkpt>
      <trkpt lat="45.08847" lon="0.63837">
        <ele>122</ele>
        <time>2025-05-25T08:39:44Z</time>
      </trkpt>
      <trkpt lat="45.08843" lon="0.63843">
        <ele>121.6</ele>
        <time>2025-05-25T08:39:45Z</time>
      </trkpt>
      <trkpt lat="45.08839" lon="0.6385">
        <ele>121.2</ele>
        <time>2025-05-25T08:39:46Z</time>
      </trkpt>
      <trkpt lat="45.08835" lon="0.63857">
        <ele>120.6</ele>
        <time>2025-05-25T08:39:47Z</time>
      </trkpt>
      <trkpt lat="45.08829" lon="0.63862">
        <ele>120</ele>
        <time>2025-05-25T08:39:48Z</time>
      </trkpt>
      <trkpt lat="45.08823" lon="0.63865">
        <ele>119.6</ele>
        <time>2025-05-25T08:39:49Z</time>
      </trkpt>
      <trkpt lat="45.08817" lon="0.63867">
        <ele>119.2</ele>
        <time>2025-05-25T08:39:50Z</time>
      </trkpt>
      <trkpt lat="45.0881" lon="0.63867">
        <ele>118.6</ele>
        <time>2025-05-25T08:39:51Z</time>
      </trkpt>
      <trkpt lat="45.08804" lon="0.63869">
        <ele>118.4</ele>
        <time>2025-05-25T08:39:52Z</time>
      </trkpt>
      <trkpt lat="45.08798" lon="0.6387">
        <ele>118</ele>
        <time>2025-05-25T08:39:53Z</time>
      </trkpt>
      <trkpt lat="45.08792" lon="0.63871">
        <ele>117.8</ele>
        <time>2025-05-25T08:39:54Z</time>
      </trkpt>
      <trkpt lat="45.08787" lon="0.63872">
        <ele>117.8</ele>
        <time>2025-05-25T08:39:55Z</time>
      </trkpt>
      <trkpt lat="45.08781" lon="0.63874">
        <ele>117.8</ele>
        <time>2025-05-25T08:39:56Z</time>
      </trkpt>
      <trkpt lat="45.08775" lon="0.63875">
        <ele>117.8</ele>
        <time>2025-05-25T08:39:57Z</time>
      </trkpt>
      <trkpt lat="45.0877" lon="0.63876">
        <ele>118</ele>
        <time>2025-05-25T08:39:58Z</time>
      </trkpt>
      <trkpt lat="45.08765" lon="0.63878">
        <ele>118</ele>
        <time>2025-05-25T08:39:59Z</time>
      </trkpt>
      <trkpt lat="45.0876" lon="0.63879">
        <ele>118</ele>
        <time>2025-05-25T08:40:00Z</time>
      </trkpt>
      <trkpt lat="45.08756" lon="0.6388">
        <ele>117.8</ele>
        <time>2025-05-25T08:40:01Z</time>
      </trkpt>
      <trkpt lat="45.08751" lon="0.63881">
        <ele>117.6</ele>
        <time>2025-05-25T08:40:02Z</time>
      </trkpt>
      <trkpt lat="45.08746" lon="0.63883">
        <ele>117.4</ele>
        <time>2025-05-25T08:40:03Z</time>
      </trkpt>
      <trkpt lat="45.08741" lon="0.63883">
        <ele>117.2</ele>
        <time>2025-05-25T08:40:04Z</time>
      </trkpt>
      <trkpt lat="45.08736" lon="0.63884">
        <ele>117</ele>
        <time>2025-05-25T08:40:05Z</time>
      </trkpt>
      <trkpt lat="45.08733" lon="0.63886">
        <ele>117</ele>
        <time>2025-05-25T08:40:06Z</time>
      </trkpt>
      <trkpt lat="45.08728" lon="0.63887">
        <ele>117</ele>
        <time>2025-05-25T08:40:07Z</time>
      </trkpt>
      <trkpt lat="45.08725" lon="0.63889">
        <ele>117</ele>
        <time>2025-05-25T08:40:08Z</time>
      </trkpt>
      <trkpt lat="45.08721" lon="0.63891">
        <ele>117</ele>
        <time>2025-05-25T08:40:09Z</time>
      </trkpt>
      <trkpt lat="45.08717" lon="0.63893">
        <ele>117.2</ele>
        <time>2025-05-25T08:40:10Z</time>
      </trkpt>
      <trkpt lat="45.08715" lon="0.63894">
        <ele>117.4</ele>
        <time>2025-05-25T08:40:11Z</time>
      </trkpt>
      <trkpt lat="45.08712" lon="0.63896">
        <ele>117.6</ele>
        <time>2025-05-25T08:40:12Z</time>
      </trkpt>
      <trkpt lat="45.0871" lon="0.63897">
        <ele>117.8</ele>
        <time>2025-05-25T08:40:13Z</time>
      </trkpt>
      <trkpt lat="45.08707" lon="0.63899">
        <ele>118</ele>
        <time>2025-05-25T08:40:14Z</time>
      </trkpt>
      <trkpt lat="45.08705" lon="0.63902">
        <ele>118.2</ele>
        <time>2025-05-25T08:40:15Z</time>
      </trkpt>
      <trkpt lat="45.08702" lon="0.63904">
        <ele>118.6</ele>
        <time>2025-05-25T08:40:16Z</time>
      </trkpt>
      <trkpt lat="45.08699" lon="0.63906">
        <ele>118.8</ele>
        <time>2025-05-25T08:40:17Z</time>
      </trkpt>
      <trkpt lat="45.08697" lon="0.63909">
        <ele>119</ele>
        <time>2025-05-25T08:40:18Z</time>
      </trkpt>
      <trkpt lat="45.08695" lon="0.63912">
        <ele>119.4</ele>
        <time>2025-05-25T08:40:19Z</time>
      </trkpt>
      <trkpt lat="45.08694" lon="0.63915">
        <ele>119.8</ele>
        <time>2025-05-25T08:40:20Z</time>
      </trkpt>
      <trkpt lat="45.08693" lon="0.63917">
        <ele>120.2</ele>
        <time>2025-05-25T08:40:21Z</time>
      </trkpt>
      <trkpt lat="45.08692" lon="0.63919">
        <ele>120.6</ele>
        <time>2025-05-25T08:40:22Z</time>
      </trkpt>
      <trkpt lat="45.08691" lon="0.63922">
        <ele>121</ele>
        <time>2025-05-25T08:40:23Z</time>
      </trkpt>
      <trkpt lat="45.0869" lon="0.63924">
        <ele>121.4</ele>
        <time>2025-05-25T08:40:24Z</time>
      </trkpt>
      <trkpt lat="45.08689" lon="0.63926">
        <ele>121.6</ele>
        <time>2025-05-25T08:40:25Z</time>
      </trkpt>
      <trkpt lat="45.08688" lon="0.63928">
        <ele>122</ele>
        <time>2025-05-25T08:40:26Z</time>
      </trkpt>
      <trkpt lat="45.08687" lon="0.63929">
        <ele>122.2</ele>
        <time>2025-05-25T08:40:27Z</time>
      </trkpt>
      <trkpt lat="45.08686" lon="0.63931">
        <ele>122.6</ele>
        <time>2025-05-25T08:40:28Z</time>
      </trkpt>
      <trkpt lat="45.08684" lon="0.63933">
        <ele>123</ele>
        <time>2025-05-25T08:40:29Z</time>
      </trkpt>
      <trkpt lat="45.08683" lon="0.63935">
        <ele>123.2</ele>
        <time>2025-05-25T08:40:30Z</time>
      </trkpt>
      <trkpt lat="45.08682" lon="0.63937">
        <ele>123.4</ele>
        <time>2025-05-25T08:40:31Z</time>
      </trkpt>
      <trkpt lat="45.08681" lon="0.63938">
        <ele>123.8</ele>
        <time>2025-05-25T08:40:32Z</time>
      </trkpt>
      <trkpt lat="45.08679" lon="0.6394">
        <ele>124</ele>
        <time>2025-05-25T08:40:33Z</time>
      </trkpt>
      <trkpt lat="45.08678" lon="0.63941">
        <ele>124.2</ele>
        <time>2025-05-25T08:40:34Z</time>
      </trkpt>
      <trkpt lat="45.08677" lon="0.63941">
        <ele>124.4</ele>
        <time>2025-05-25T08:40:35Z</time>
      </trkpt>
      <trkpt lat="45.08675" lon="0.63941">
        <ele>124.8</ele>
        <time>2025-05-25T08:40:36Z</time>
      </trkpt>
      <trkpt lat="45.08674" lon="0.63941">
        <ele>125</ele>
        <time>2025-05-25T08:40:37Z</time>
      </trkpt>
      <trkpt lat="45.08672" lon="0.63941">
        <ele>125.2</ele>
        <time>2025-05-25T08:40:38Z</time>
      </trkpt>
      <trkpt lat="45.08671" lon="0.6394">
        <ele>125.4</ele>
        <time>2025-05-25T08:40:39Z</time>
      </trkpt>
      <trkpt lat="45.08669" lon="0.6394">
        <ele>125.6</ele>
        <time>2025-05-25T08:40:40Z</time>
      </trkpt>
      <trkpt lat="45.08668" lon="0.63939">
        <ele>125.8</ele>
        <time>2025-05-25T08:40:41Z</time>
      </trkpt>
      <trkpt lat="45.08666" lon="0.63939">
        <ele>126</ele>
        <time>2025-05-25T08:40:42Z</time>
      </trkpt>
      <trkpt lat="45.08665" lon="0.63939">
        <ele>126.4</ele>
        <time>2025-05-25T08:40:43Z</time>
      </trkpt>
      <trkpt lat="45.08663" lon="0.63939">
        <ele>126.6</ele>
        <time>2025-05-25T08:40:44Z</time>
      </trkpt>
      <trkpt lat="45.08662" lon="0.63938">
        <ele>126.8</ele>
        <time>2025-05-25T08:40:45Z</time>
      </trkpt>
      <trkpt lat="45.08661" lon="0.63938">
        <ele>127</ele>
        <time>2025-05-25T08:40:46Z</time>
      </trkpt>
      <trkpt lat="45.08659" lon="0.63938">
        <ele>127.2</ele>
        <time>2025-05-25T08:40:47Z</time>
      </trkpt>
      <trkpt lat="45.08658" lon="0.63938">
        <ele>127.4</ele>
        <time>2025-05-25T08:40:48Z</time>
      </trkpt>
      <trkpt lat="45.08657" lon="0.63938">
        <ele>127.8</ele>
        <time>2025-05-25T08:40:49Z</time>
      </trkpt>
      <trkpt lat="45.08656" lon="0.63937">
        <ele>128</ele>
        <time>2025-05-25T08:40:50Z</time>
      </trkpt>
      <trkpt lat="45.08655" lon="0.63936">
        <ele>128.2</ele>
        <time>2025-05-25T08:40:51Z</time>
      </trkpt>
      <trkpt lat="45.08654" lon="0.63935">
        <ele>128.4</ele>
        <time>2025-05-25T08:40:52Z</time>
      </trkpt>
      <trkpt lat="45.08653" lon="0.63933">
        <ele>128.6</ele>
        <time>2025-05-25T08:40:53Z</time>
      </trkpt>
      <trkpt lat="45.08652" lon="0.63932">
        <ele>128.6</ele>
        <time>2025-05-25T08:40:54Z</time>
      </trkpt>
      <trkpt lat="45.08651" lon="0.63931">
        <ele>128.8</ele>
        <time>2025-05-25T08:40:55Z</time>
      </trkpt>
      <trkpt lat="45.0865" lon="0.63929">
        <ele>129</ele>
        <time>2025-05-25T08:40:56Z</time>
      </trkpt>
      <trkpt lat="45.0865" lon="0.63927">
        <ele>129</ele>
        <time>2025-05-25T08:40:57Z</time>
      </trkpt>
      <trkpt lat="45.08649" lon="0.63926">
        <ele>129.2</ele>
        <time>2025-05-25T08:40:58Z</time>
      </trkpt>
      <trkpt lat="45.08648" lon="0.63925">
        <ele>129.2</ele>
        <time>2025-05-25T08:40:59Z</time>
      </trkpt>
      <trkpt lat="45.08647" lon="0.63924">
        <ele>129.4</ele>
        <time>2025-05-25T08:41:00Z</time>
      </trkpt>
      <trkpt lat="45.08646" lon="0.63924">
        <ele>129.6</ele>
        <time>2025-05-25T08:41:01Z</time>
      </trkpt>
      <trkpt lat="45.08644" lon="0.63924">
        <ele>129.6</ele>
        <time>2025-05-25T08:41:02Z</time>
      </trkpt>
      <trkpt lat="45.08643" lon="0.63925">
        <ele>129.8</ele>
        <time>2025-05-25T08:41:03Z</time>
      </trkpt>
      <trkpt lat="45.08642" lon="0.63926">
        <ele>130</ele>
        <time>2025-05-25T08:41:04Z</time>
      </trkpt>
      <trkpt lat="45.08642" lon="0.63927">
        <ele>130.2</ele>
        <time>2025-05-25T08:41:05Z</time>
      </trkpt>
      <trkpt lat="45.08641" lon="0.63929">
        <ele>130.6</ele>
        <time>2025-05-25T08:41:06Z</time>
      </trkpt>
      <trkpt lat="45.08641" lon="0.6393">
        <ele>130.8</ele>
        <time>2025-05-25T08:41:07Z</time>
      </trkpt>
      <trkpt lat="45.08641" lon="0.63932">
        <ele>131</ele>
        <time>2025-05-25T08:41:08Z</time>
      </trkpt>
      <trkpt lat="45.0864" lon="0.63933">
        <ele>131.2</ele>
        <time>2025-05-25T08:41:09Z</time>
      </trkpt>
      <trkpt lat="45.0864" lon="0.63934">
        <ele>131.4</ele>
        <time>2025-05-25T08:41:10Z</time>
      </trkpt>
      <trkpt lat="45.0864" lon="0.63936">
        <ele>131.8</ele>
        <time>2025-05-25T08:41:11Z</time>
      </trkpt>
      <trkpt lat="45.08639" lon="0.63937">
        <ele>132</ele>
        <time>2025-05-25T08:41:12Z</time>
      </trkpt>
      <trkpt lat="45.08639" lon="0.63938">
        <ele>132.2</ele>
        <time>2025-05-25T08:41:13Z</time>
      </trkpt>
      <trkpt lat="45.08638" lon="0.6394">
        <ele>132.4</ele>
        <time>2025-05-25T08:41:14Z</time>
      </trkpt>
      <trkpt lat="45.08638" lon="0.63941">
        <ele>132.6</ele>
        <time>2025-05-25T08:41:15Z</time>
      </trkpt>
      <trkpt lat="45.08638" lon="0.63943">
        <ele>132.8</ele>
        <time>2025-05-25T08:41:16Z</time>
      </trkpt>
      <trkpt lat="45.08637" lon="0.63944">
        <ele>133</ele>
        <time>2025-05-25T08:41:17Z</time>
      </trkpt>
      <trkpt lat="45.08637" lon="0.63946">
        <ele>133.2</ele>
        <time>2025-05-25T08:41:18Z</time>
      </trkpt>
      <trkpt lat="45.08636" lon="0.63947">
        <ele>133.4</ele>
        <time>2025-05-25T08:41:19Z</time>
      </trkpt>
      <trkpt lat="45.08636" lon="0.63948">
        <ele>133.8</ele>
        <time>2025-05-25T08:41:20Z</time>
      </trkpt>
      <trkpt lat="45.08635" lon="0.63948">
        <ele>134</ele>
        <time>2025-05-25T08:41:21Z</time>
      </trkpt>
      <trkpt lat="45.08635" lon="0.6395">
        <ele>134.2</ele>
        <time>2025-05-25T08:41:22Z</time>
      </trkpt>
      <trkpt lat="45.08635" lon="0.63951">
        <ele>134.4</ele>
        <time>2025-05-25T08:41:23Z</time>
      </trkpt>
      <trkpt lat="45.08634" lon="0.63953">
        <ele>134.6</ele>
        <time>2025-05-25T08:41:24Z</time>
      </trkpt>
      <trkpt lat="45.08633" lon="0.63955">
        <ele>134.8</ele>
        <time>2025-05-25T08:41:25Z</time>
      </trkpt>
      <trkpt lat="45.08633" lon="0.63957">
        <ele>135</ele>
        <time>2025-05-25T08:41:26Z</time>
      </trkpt>
      <trkpt lat="45.08632" lon="0.63958">
        <ele>135.2</ele>
        <time>2025-05-25T08:41:27Z</time>
      </trkpt>
      <trkpt lat="45.08631" lon="0.6396">
        <ele>135.6</ele>
        <time>2025-05-25T08:41:28Z</time>
      </trkpt>
      <trkpt lat="45.08631" lon="0.63962">
        <ele>135.8</ele>
        <time>2025-05-25T08:41:29Z</time>
      </trkpt>
      <trkpt lat="45.0863" lon="0.63963">
        <ele>136</ele>
        <time>2025-05-25T08:41:30Z</time>
      </trkpt>
      <trkpt lat="45.08629" lon="0.63965">
        <ele>136.2</ele>
        <time>2025-05-25T08:41:31Z</time>
      </trkpt>
      <trkpt lat="45.08629" lon="0.63966">
        <ele>136.4</ele>
        <time>2025-05-25T08:41:32Z</time>
      </trkpt>
      <trkpt lat="45.08628" lon="0.63968">
        <ele>136.6</ele>
        <time>2025-05-25T08:41:33Z</time>
      </trkpt>
      <trkpt lat="45.08627" lon="0.63969">
        <ele>136.8</ele>
        <time>2025-05-25T08:41:34Z</time>
      </trkpt>
      <trkpt lat="45.08626" lon="0.6397">
        <ele>137</ele>
        <time>2025-05-25T08:41:35Z</time>
      </trkpt>
      <trkpt lat="45.08625" lon="0.63972">
        <ele>137.2</ele>
        <time>2025-05-25T08:41:36Z</time>
      </trkpt>
      <trkpt lat="45.08624" lon="0.63973">
        <ele>137.4</ele>
        <time>2025-05-25T08:41:37Z</time>
      </trkpt>
      <trkpt lat="45.08623" lon="0.63975">
        <ele>137.6</ele>
        <time>2025-05-25T08:41:38Z</time>
      </trkpt>
      <trkpt lat="45.08623" lon="0.63976">
        <ele>138</ele>
        <time>2025-05-25T08:41:39Z</time>
      </trkpt>
      <trkpt lat="45.08621" lon="0.63977">
        <ele>138.2</ele>
        <time>2025-05-25T08:41:40Z</time>
      </trkpt>
      <trkpt lat="45.08621" lon="0.63978">
        <ele>138.4</ele>
        <time>2025-05-25T08:41:41Z</time>
      </trkpt>
      <trkpt lat="45.0862" lon="0.63979">
        <ele>138.6</ele>
        <time>2025-05-25T08:41:42Z</time>
      </trkpt>
      <trkpt lat="45.08619" lon="0.63981">
        <ele>138.8</ele>
        <time>2025-05-25T08:41:43Z</time>
      </trkpt>
      <trkpt lat="45.08618" lon="0.63982">
        <ele>139</ele>
        <time>2025-05-25T08:41:44Z</time>
      </trkpt>
      <trkpt lat="45.08617" lon="0.63983">
        <ele>139.2</ele>
        <time>2025-05-25T08:41:45Z</time>
      </trkpt>
      <trkpt lat="45.08616" lon="0.63985">
        <ele>139.4</ele>
        <time>2025-05-25T08:41:46Z</time>
      </trkpt>
      <trkpt lat="45.08616" lon="0.63985">
        <ele>139.6</ele>
        <time>2025-05-25T08:41:47Z</time>
      </trkpt>
      <trkpt lat="45.08615" lon="0.63987">
        <ele>139.8</ele>
        <time>2025-05-25T08:41:48Z</time>
      </trkpt>
      <trkpt lat="45.08615" lon="0.63988">
        <ele>140</ele>
        <time>2025-05-25T08:41:49Z</time>
      </trkpt>
      <trkpt lat="45.08614" lon="0.6399">
        <ele>140.2</ele>
        <time>2025-05-25T08:41:50Z</time>
      </trkpt>
      <trkpt lat="45.08613" lon="0.63991">
        <ele>140.4</ele>
        <time>2025-05-25T08:41:51Z</time>
      </trkpt>
      <trkpt lat="45.08611" lon="0.63991">
        <ele>140.6</ele>
        <time>2025-05-25T08:41:52Z</time>
      </trkpt>
      <trkpt lat="45.0861" lon="0.63991">
        <ele>140.8</ele>
        <time>2025-05-25T08:41:53Z</time>
      </trkpt>
      <trkpt lat="45.08609" lon="0.63992">
        <ele>141</ele>
        <time>2025-05-25T08:41:54Z</time>
      </trkpt>
      <trkpt lat="45.08608" lon="0.63993">
        <ele>141.2</ele>
        <time>2025-05-25T08:41:55Z</time>
      </trkpt>
      <trkpt lat="45.08607" lon="0.63994">
        <ele>141.6</ele>
        <time>2025-05-25T08:41:56Z</time>
      </trkpt>
      <trkpt lat="45.08606" lon="0.63994">
        <ele>141.8</ele>
        <time>2025-05-25T08:41:57Z</time>
      </trkpt>
      <trkpt lat="45.08605" lon="0.63994">
        <ele>142</ele>
        <time>2025-05-25T08:41:58Z</time>
      </trkpt>
      <trkpt lat="45.08604" lon="0.63995">
        <ele>142.2</ele>
        <time>2025-05-25T08:41:59Z</time>
      </trkpt>
      <trkpt lat="45.08603" lon="0.63995">
        <ele>142.4</ele>
        <time>2025-05-25T08:42:00Z</time>
      </trkpt>
      <trkpt lat="45.08602" lon="0.63995">
        <ele>142.6</ele>
        <time>2025-05-25T08:42:01Z</time>
      </trkpt>
      <trkpt lat="45.08601" lon="0.63996">
        <ele>142.8</ele>
        <time>2025-05-25T08:42:02Z</time>
      </trkpt>
      <trkpt lat="45.08599" lon="0.63998">
        <ele>143</ele>
        <time>2025-05-25T08:42:03Z</time>
      </trkpt>
      <trkpt lat="45.08598" lon="0.63998">
        <ele>143.2</ele>
        <time>2025-05-25T08:42:04Z</time>
      </trkpt>
      <trkpt lat="45.08597" lon="0.63999">
        <ele>143.4</ele>
        <time>2025-05-25T08:42:05Z</time>
      </trkpt>
      <trkpt lat="45.08597" lon="0.64">
        <ele>143.8</ele>
        <time>2025-05-25T08:42:06Z</time>
      </trkpt>
      <trkpt lat="45.08596" lon="0.64">
        <ele>144</ele>
        <time>2025-05-25T08:42:07Z</time>
      </trkpt>
      <trkpt lat="45.08595" lon="0.64001">
        <ele>144.2</ele>
        <time>2025-05-25T08:42:08Z</time>
      </trkpt>
      <trkpt lat="45.08594" lon="0.64002">
        <ele>144.4</ele>
        <time>2025-05-25T08:42:09Z</time>
      </trkpt>
      <trkpt lat="45.08593" lon="0.64002">
        <ele>144.6</ele>
        <time>2025-05-25T08:42:10Z</time>
      </trkpt>
      <trkpt lat="45.08592" lon="0.64003">
        <ele>144.8</ele>
        <time>2025-05-25T08:42:11Z</time>
      </trkpt>
      <trkpt lat="45.08591" lon="0.64004">
        <ele>145</ele>
        <time>2025-05-25T08:42:12Z</time>
      </trkpt>
      <trkpt lat="45.0859" lon="0.64004">
        <ele>145.2</ele>
        <time>2025-05-25T08:42:13Z</time>
      </trkpt>
      <trkpt lat="45.08589" lon="0.64005">
        <ele>145.4</ele>
        <time>2025-05-25T08:42:14Z</time>
      </trkpt>
      <trkpt lat="45.08588" lon="0.64005">
        <ele>145.6</ele>
        <time>2025-05-25T08:42:15Z</time>
      </trkpt>
      <trkpt lat="45.08587" lon="0.64006">
        <ele>145.8</ele>
        <time>2025-05-25T08:42:16Z</time>
      </trkpt>
      <trkpt lat="45.08586" lon="0.64006">
        <ele>146</ele>
        <time>2025-05-25T08:42:17Z</time>
      </trkpt>
      <trkpt lat="45.08585" lon="0.64007">
        <ele>146.2</ele>
        <time>2025-05-25T08:42:18Z</time>
      </trkpt>
      <trkpt lat="45.08584" lon="0.64007">
        <ele>146.4</ele>
        <time>2025-05-25T08:42:19Z</time>
      </trkpt>
      <trkpt lat="45.08583" lon="0.64007">
        <ele>146.6</ele>
        <time>2025-05-25T08:42:20Z</time>
      </trkpt>
      <trkpt lat="45.08581" lon="0.64007">
        <ele>146.8</ele>
        <time>2025-05-25T08:42:21Z</time>
      </trkpt>
      <trkpt lat="45.0858" lon="0.64007">
        <ele>147</ele>
        <time>2025-05-25T08:42:22Z</time>
      </trkpt>
      <trkpt lat="45.08579" lon="0.64007">
        <ele>147.2</ele>
        <time>2025-05-25T08:42:23Z</time>
      </trkpt>
      <trkpt lat="45.08578" lon="0.64007">
        <ele>147.6</ele>
        <time>2025-05-25T08:42:24Z</time>
      </trkpt>
      <trkpt lat="45.08577" lon="0.64007">
        <ele>147.8</ele>
        <time>2025-05-25T08:42:25Z</time>
      </trkpt>
      <trkpt lat="45.08575" lon="0.64007">
        <ele>148</ele>
        <time>2025-05-25T08:42:26Z</time>
      </trkpt>
      <trkpt lat="45.08574" lon="0.64007">
        <ele>148.2</ele>
        <time>2025-05-25T08:42:27Z</time>
      </trkpt>
      <trkpt lat="45.08573" lon="0.64007">
        <ele>148.4</ele>
        <time>2025-05-25T08:42:28Z</time>
      </trkpt>
      <trkpt lat="45.08572" lon="0.64006">
        <ele>148.6</ele>
        <time>2025-05-25T08:42:29Z</time>
      </trkpt>
      <trkpt lat="45.08571" lon="0.64005">
        <ele>148.8</ele>
        <time>2025-05-25T08:42:30Z</time>
      </trkpt>
      <trkpt lat="45.0857" lon="0.64005">
        <ele>149</ele>
        <time>2025-05-25T08:42:31Z</time>
      </trkpt>
      <trkpt lat="45.08569" lon="0.64005">
        <ele>149.2</ele>
        <time>2025-05-25T08:42:32Z</time>
      </trkpt>
      <trkpt lat="45.08568" lon="0.64005">
        <ele>149.4</ele>
        <time>2025-05-25T08:42:33Z</time>
      </trkpt>
      <trkpt lat="45.08566" lon="0.64004">
        <ele>149.6</ele>
        <time>2025-05-25T08:42:34Z</time>
      </trkpt>
      <trkpt lat="45.08565" lon="0.64004">
        <ele>149.8</ele>
        <time>2025-05-25T08:42:35Z</time>
      </trkpt>
      <trkpt lat="45.08564" lon="0.64004">
        <ele>150</ele>
        <time>2025-05-25T08:42:36Z</time>
      </trkpt>
      <trkpt lat="45.08562" lon="0.64004">
        <ele>150</ele>
        <time>2025-05-25T08:42:37Z</time>
      </trkpt>
      <trkpt lat="45.08561" lon="0.64004">
        <ele>150.2</ele>
        <time>2025-05-25T08:42:38Z</time>
      </trkpt>
      <trkpt lat="45.0856" lon="0.64004">
        <ele>150.4</ele>
        <time>2025-05-25T08:42:39Z</time>
      </trkpt>
      <trkpt lat="45.08558" lon="0.64003">
        <ele>150.6</ele>
        <time>2025-05-25T08:42:40Z</time>
      </trkpt>
      <trkpt lat="45.08557" lon="0.64003">
        <ele>150.8</ele>
        <time>2025-05-25T08:42:41Z</time>
      </trkpt>
      <trkpt lat="45.08556" lon="0.64003">
        <ele>151</ele>
        <time>2025-05-25T08:42:42Z</time>
      </trkpt>
      <trkpt lat="45.08554" lon="0.64004">
        <ele>151.2</ele>
        <time>2025-05-25T08:42:43Z</time>
      </trkpt>
      <trkpt lat="45.08553" lon="0.64004">
        <ele>151.4</ele>
        <time>2025-05-25T08:42:44Z</time>
      </trkpt>
      <trkpt lat="45.08551" lon="0.64004">
        <ele>151.6</ele>
        <time>2025-05-25T08:42:45Z</time>
      </trkpt>
      <trkpt lat="45.0855" lon="0.64004">
        <ele>151.8</ele>
        <time>2025-05-25T08:42:46Z</time>
      </trkpt>
      <trkpt lat="45.08549" lon="0.64005">
        <ele>152</ele>
        <time>2025-05-25T08:42:47Z</time>
      </trkpt>
      <trkpt lat="45.08548" lon="0.64005">
        <ele>152.2</ele>
        <time>2025-05-25T08:42:48Z</time>
      </trkpt>
      <trkpt lat="45.08547" lon="0.64005">
        <ele>152.4</ele>
        <time>2025-05-25T08:42:49Z</time>
      </trkpt>
      <trkpt lat="45.08546" lon="0.64005">
        <ele>152.6</ele>
        <time>2025-05-25T08:42:50Z</time>
      </trkpt>
      <trkpt lat="45.08544" lon="0.64005">
        <ele>152.8</ele>
        <time>2025-05-25T08:42:51Z</time>
      </trkpt>
      <trkpt lat="45.08543" lon="0.64006">
        <ele>153</ele>
        <time>2025-05-25T08:42:52Z</time>
      </trkpt>
      <trkpt lat="45.08542" lon="0.64006">
        <ele>153.2</ele>
        <time>2025-05-25T08:42:53Z</time>
      </trkpt>
      <trkpt lat="45.08541" lon="0.64007">
        <ele>153.4</ele>
        <time>2025-05-25T08:42:54Z</time>
      </trkpt>
      <trkpt lat="45.0854" lon="0.64007">
        <ele>153.6</ele>
        <time>2025-05-25T08:42:55Z</time>
      </trkpt>
      <trkpt lat="45.08539" lon="0.64007">
        <ele>153.8</ele>
        <time>2025-05-25T08:42:56Z</time>
      </trkpt>
      <trkpt lat="45.08538" lon="0.64007">
        <ele>154.2</ele>
        <time>2025-05-25T08:42:57Z</time>
      </trkpt>
      <trkpt lat="45.08536" lon="0.64007">
        <ele>154.4</ele>
        <time>2025-05-25T08:42:58Z</time>
      </trkpt>
      <trkpt lat="45.08535" lon="0.64007">
        <ele>154.8</ele>
        <time>2025-05-25T08:42:59Z</time>
      </trkpt>
      <trkpt lat="45.08534" lon="0.64007">
        <ele>155</ele>
        <time>2025-05-25T08:43:00Z</time>
      </trkpt>
      <trkpt lat="45.08533" lon="0.64007">
        <ele>155.2</ele>
        <time>2025-05-25T08:43:01Z</time>
      </trkpt>
      <trkpt lat="45.08531" lon="0.64007">
        <ele>155.6</ele>
        <time>2025-05-25T08:43:02Z</time>
      </trkpt>
      <trkpt lat="45.0853" lon="0.64007">
        <ele>155.8</ele>
        <time>2025-05-25T08:43:03Z</time>
      </trkpt>
      <trkpt lat="45.08529" lon="0.64007">
        <ele>156</ele>
        <time>2025-05-25T08:43:04Z</time>
      </trkpt>
      <trkpt lat="45.08528" lon="0.64007">
        <ele>156.2</ele>
        <time>2025-05-25T08:43:05Z</time>
      </trkpt>
      <trkpt lat="45.08527" lon="0.64007">
        <ele>156.4</ele>
        <time>2025-05-25T08:43:06Z</time>
      </trkpt>
      <trkpt lat="45.08526" lon="0.64008">
        <ele>156.6</ele>
        <time>2025-05-25T08:43:07Z</time>
      </trkpt>
      <trkpt lat="45.08524" lon="0.64008">
        <ele>157</ele>
        <time>2025-05-25T08:43:08Z</time>
      </trkpt>
      <trkpt lat="45.08523" lon="0.64009">
        <ele>157.2</ele>
        <time>2025-05-25T08:43:09Z</time>
      </trkpt>
      <trkpt lat="45.08522" lon="0.64009">
        <ele>157.4</ele>
        <time>2025-05-25T08:43:10Z</time>
      </trkpt>
      <trkpt lat="45.08521" lon="0.64009">
        <ele>157.6</ele>
        <time>2025-05-25T08:43:11Z</time>
      </trkpt>
      <trkpt lat="45.0852" lon="0.64009">
        <ele>157.8</ele>
        <time>2025-05-25T08:43:12Z</time>
      </trkpt>
      <trkpt lat="45.08519" lon="0.64009">
        <ele>158</ele>
        <time>2025-05-25T08:43:13Z</time>
      </trkpt>
      <trkpt lat="45.08518" lon="0.64009">
        <ele>158.4</ele>
        <time>2025-05-25T08:43:14Z</time>
      </trkpt>
      <trkpt lat="45.08517" lon="0.64009">
        <ele>158.6</ele>
        <time>2025-05-25T08:43:15Z</time>
      </trkpt>
      <trkpt lat="45.08516" lon="0.64009">
        <ele>158.8</ele>
        <time>2025-05-25T08:43:16Z</time>
      </trkpt>
      <trkpt lat="45.08515" lon="0.64009">
        <ele>159</ele>
        <time>2025-05-25T08:43:17Z</time>
      </trkpt>
      <trkpt lat="45.08514" lon="0.6401">
        <ele>159.2</ele>
        <time>2025-05-25T08:43:18Z</time>
      </trkpt>
      <trkpt lat="45.08513" lon="0.64009">
        <ele>159.4</ele>
        <time>2025-05-25T08:43:19Z</time>
      </trkpt>
      <trkpt lat="45.08511" lon="0.64009">
        <ele>159.6</ele>
        <time>2025-05-25T08:43:20Z</time>
      </trkpt>
      <trkpt lat="45.0851" lon="0.6401">
        <ele>159.8</ele>
        <time>2025-05-25T08:43:21Z</time>
      </trkpt>
      <trkpt lat="45.08509" lon="0.6401">
        <ele>160</ele>
        <time>2025-05-25T08:43:22Z</time>
      </trkpt>
      <trkpt lat="45.08508" lon="0.6401">
        <ele>160.2</ele>
        <time>2025-05-25T08:43:23Z</time>
      </trkpt>
      <trkpt lat="45.08507" lon="0.64009">
        <ele>160.4</ele>
        <time>2025-05-25T08:43:24Z</time>
      </trkpt>
      <trkpt lat="45.08506" lon="0.64009">
        <ele>160.6</ele>
        <time>2025-05-25T08:43:25Z</time>
      </trkpt>
      <trkpt lat="45.08505" lon="0.64009">
        <ele>160.8</ele>
        <time>2025-05-25T08:43:26Z</time>
      </trkpt>
      <trkpt lat="45.08504" lon="0.64008">
        <ele>161</ele>
        <time>2025-05-25T08:43:27Z</time>
      </trkpt>
      <trkpt lat="45.08502" lon="0.64008">
        <ele>161.2</ele>
        <time>2025-05-25T08:43:28Z</time>
      </trkpt>
      <trkpt lat="45.08501" lon="0.64008">
        <ele>161.4</ele>
        <time>2025-05-25T08:43:29Z</time>
      </trkpt>
      <trkpt lat="45.085" lon="0.64008">
        <ele>161.8</ele>
        <time>2025-05-25T08:43:30Z</time>
      </trkpt>
      <trkpt lat="45.08498" lon="0.64008">
        <ele>161.8</ele>
        <time>2025-05-25T08:43:31Z</time>
      </trkpt>
      <trkpt lat="45.08497" lon="0.64008">
        <ele>162</ele>
        <time>2025-05-25T08:43:32Z</time>
      </trkpt>
      <trkpt lat="45.08496" lon="0.64008">
        <ele>162.2</ele>
        <time>2025-05-25T08:43:33Z</time>
      </trkpt>
      <trkpt lat="45.08495" lon="0.64008">
        <ele>162.4</ele>
        <time>2025-05-25T08:43:34Z</time>
      </trkpt>
      <trkpt lat="45.08495" lon="0.64008">
        <ele>162.6</ele>
        <time>2025-05-25T08:43:35Z</time>
      </trkpt>
      <trkpt lat="45.08495" lon="0.64008">
        <ele>162.8</ele>
        <time>2025-05-25T08:43:36Z</time>
      </trkpt>
      <trkpt lat="45.08489" lon="0.6401">
        <ele>163.2</ele>
        <time>2025-05-25T08:43:45Z</time>
      </trkpt>
      <trkpt lat="45.08488" lon="0.6401">
        <ele>163.4</ele>
        <time>2025-05-25T08:43:46Z</time>
      </trkpt>
      <trkpt lat="45.08487" lon="0.6401">
        <ele>163.6</ele>
        <time>2025-05-25T08:43:47Z</time>
      </trkpt>
      <trkpt lat="45.08486" lon="0.6401">
        <ele>163.6</ele>
        <time>2025-05-25T08:43:48Z</time>
      </trkpt>
      <trkpt lat="45.08485" lon="0.6401">
        <ele>163.8</ele>
        <time>2025-05-25T08:43:49Z</time>
      </trkpt>
      <trkpt lat="45.08484" lon="0.64011">
        <ele>164</ele>
        <time>2025-05-25T08:43:50Z</time>
      </trkpt>
      <trkpt lat="45.08483" lon="0.64011">
        <ele>164.2</ele>
        <time>2025-05-25T08:43:51Z</time>
      </trkpt>
      <trkpt lat="45.08482" lon="0.64011">
        <ele>164.6</ele>
        <time>2025-05-25T08:43:52Z</time>
      </trkpt>
      <trkpt lat="45.0848" lon="0.64012">
        <ele>164.8</ele>
        <time>2025-05-25T08:43:53Z</time>
      </trkpt>
      <trkpt lat="45.08479" lon="0.64012">
        <ele>165</ele>
        <time>2025-05-25T08:43:54Z</time>
      </trkpt>
      <trkpt lat="45.08478" lon="0.64012">
        <ele>165.2</ele>
        <time>2025-05-25T08:43:55Z</time>
      </trkpt>
      <trkpt lat="45.08477" lon="0.64013">
        <ele>165.4</ele>
        <time>2025-05-25T08:43:56Z</time>
      </trkpt>
      <trkpt lat="45.08475" lon="0.64013">
        <ele>165.6</ele>
        <time>2025-05-25T08:43:57Z</time>
      </trkpt>
      <trkpt lat="45.08474" lon="0.64013">
        <ele>165.8</ele>
        <time>2025-05-25T08:43:58Z</time>
      </trkpt>
      <trkpt lat="45.08473" lon="0.64014">
        <ele>166</ele>
        <time>2025-05-25T08:43:59Z</time>
      </trkpt>
      <trkpt lat="45.08472" lon="0.64014">
        <ele>166.2</ele>
        <time>2025-05-25T08:44:00Z</time>
      </trkpt>
      <trkpt lat="45.08471" lon="0.64015">
        <ele>166.6</ele>
        <time>2025-05-25T08:44:01Z</time>
      </trkpt>
      <trkpt lat="45.0847" lon="0.64015">
        <ele>166.8</ele>
        <time>2025-05-25T08:44:02Z</time>
      </trkpt>
      <trkpt lat="45.08468" lon="0.64016">
        <ele>167</ele>
        <time>2025-05-25T08:44:03Z</time>
      </trkpt>
      <trkpt lat="45.08467" lon="0.64016">
        <ele>167.2</ele>
        <time>2025-05-25T08:44:04Z</time>
      </trkpt>
      <trkpt lat="45.08467" lon="0.64017">
        <ele>167.4</ele>
        <time>2025-05-25T08:44:05Z</time>
      </trkpt>
      <trkpt lat="45.08465" lon="0.64017">
        <ele>167.6</ele>
        <time>2025-05-25T08:44:06Z</time>
      </trkpt>
      <trkpt lat="45.08464" lon="0.64017">
        <ele>167.6</ele>
        <time>2025-05-25T08:44:07Z</time>
      </trkpt>
      <trkpt lat="45.08463" lon="0.64017">
        <ele>167.8</ele>
        <time>2025-05-25T08:44:08Z</time>
      </trkpt>
      <trkpt lat="45.08462" lon="0.64018">
        <ele>168</ele>
        <time>2025-05-25T08:44:09Z</time>
      </trkpt>
      <trkpt lat="45.08461" lon="0.64018">
        <ele>168.2</ele>
        <time>2025-05-25T08:44:10Z</time>
      </trkpt>
      <trkpt lat="45.0846" lon="0.64018">
        <ele>168.4</ele>
        <time>2025-05-25T08:44:11Z</time>
      </trkpt>
      <trkpt lat="45.08459" lon="0.64018">
        <ele>168.6</ele>
        <time>2025-05-25T08:44:12Z</time>
      </trkpt>
      <trkpt lat="45.08458" lon="0.64019">
        <ele>168.8</ele>
        <time>2025-05-25T08:44:13Z</time>
      </trkpt>
      <trkpt lat="45.08457" lon="0.64019">
        <ele>169</ele>
        <time>2025-05-25T08:44:14Z</time>
      </trkpt>
      <trkpt lat="45.08455" lon="0.64019">
        <ele>169.2</ele>
        <time>2025-05-25T08:44:15Z</time>
      </trkpt>
      <trkpt lat="45.08454" lon="0.64019">
        <ele>169.4</ele>
        <time>2025-05-25T08:44:16Z</time>
      </trkpt>
      <trkpt lat="45.08453" lon="0.6402">
        <ele>169.6</ele>
        <time>2025-05-25T08:44:17Z</time>
      </trkpt>
      <trkpt lat="45.08452" lon="0.6402">
        <ele>169.6</ele>
        <time>2025-05-25T08:44:18Z</time>
      </trkpt>
      <trkpt lat="45.08451" lon="0.6402">
        <ele>169.8</ele>
        <time>2025-05-25T08:44:19Z</time>
      </trkpt>
      <trkpt lat="45.0845" lon="0.64021">
        <ele>170</ele>
        <time>2025-05-25T08:44:20Z</time>
      </trkpt>
      <trkpt lat="45.08449" lon="0.64021">
        <ele>170.2</ele>
        <time>2025-05-25T08:44:21Z</time>
      </trkpt>
      <trkpt lat="45.08448" lon="0.64021">
        <ele>170.4</ele>
        <time>2025-05-25T08:44:22Z</time>
      </trkpt>
      <trkpt lat="45.08448" lon="0.64021">
        <ele>170.4</ele>
        <time>2025-05-25T08:44:23Z</time>
      </trkpt>
      <trkpt lat="45.08447" lon="0.64021">
        <ele>170.6</ele>
        <time>2025-05-25T08:44:24Z</time>
      </trkpt>
      <trkpt lat="45.08445" lon="0.64022">
        <ele>170.6</ele>
        <time>2025-05-25T08:44:25Z</time>
      </trkpt>
      <trkpt lat="45.08444" lon="0.64022">
        <ele>171</ele>
        <time>2025-05-25T08:44:26Z</time>
      </trkpt>
      <trkpt lat="45.08443" lon="0.64023">
        <ele>171</ele>
        <time>2025-05-25T08:44:27Z</time>
      </trkpt>
      <trkpt lat="45.08441" lon="0.64023">
        <ele>171.2</ele>
        <time>2025-05-25T08:44:28Z</time>
      </trkpt>
      <trkpt lat="45.0844" lon="0.64023">
        <ele>171.4</ele>
        <time>2025-05-25T08:44:29Z</time>
      </trkpt>
      <trkpt lat="45.08439" lon="0.64022">
        <ele>171.6</ele>
        <time>2025-05-25T08:44:30Z</time>
      </trkpt>
      <trkpt lat="45.08438" lon="0.64022">
        <ele>172</ele>
        <time>2025-05-25T08:44:31Z</time>
      </trkpt>
      <trkpt lat="45.08436" lon="0.64023">
        <ele>172.2</ele>
        <time>2025-05-25T08:44:32Z</time>
      </trkpt>
      <trkpt lat="45.08435" lon="0.64023">
        <ele>172.4</ele>
        <time>2025-05-25T08:44:33Z</time>
      </trkpt>
      <trkpt lat="45.08433" lon="0.64023">
        <ele>172.6</ele>
        <time>2025-05-25T08:44:34Z</time>
      </trkpt>
      <trkpt lat="45.08432" lon="0.64022">
        <ele>172.6</ele>
        <time>2025-05-25T08:44:35Z</time>
      </trkpt>
      <trkpt lat="45.08431" lon="0.64022">
        <ele>172.8</ele>
        <time>2025-05-25T08:44:36Z</time>
      </trkpt>
      <trkpt lat="45.08429" lon="0.64022">
        <ele>173</ele>
        <time>2025-05-25T08:44:37Z</time>
      </trkpt>
      <trkpt lat="45.08428" lon="0.64022">
        <ele>173</ele>
        <time>2025-05-25T08:44:38Z</time>
      </trkpt>
      <trkpt lat="45.08426" lon="0.64022">
        <ele>173.2</ele>
        <time>2025-05-25T08:44:39Z</time>
      </trkpt>
      <trkpt lat="45.08425" lon="0.64022">
        <ele>173.4</ele>
        <time>2025-05-25T08:44:40Z</time>
      </trkpt>
      <trkpt lat="45.08423" lon="0.64022">
        <ele>173.4</ele>
        <time>2025-05-25T08:44:41Z</time>
      </trkpt>
      <trkpt lat="45.08422" lon="0.64022">
        <ele>173.6</ele>
        <time>2025-05-25T08:44:42Z</time>
      </trkpt>
      <trkpt lat="45.08421" lon="0.64023">
        <ele>173.8</ele>
        <time>2025-05-25T08:44:43Z</time>
      </trkpt>
      <trkpt lat="45.0842" lon="0.64023">
        <ele>173.8</ele>
        <time>2025-05-25T08:44:44Z</time>
      </trkpt>
      <trkpt lat="45.08418" lon="0.64023">
        <ele>174</ele>
        <time>2025-05-25T08:44:45Z</time>
      </trkpt>
      <trkpt lat="45.08416" lon="0.64023">
        <ele>174.2</ele>
        <time>2025-05-25T08:44:46Z</time>
      </trkpt>
      <trkpt lat="45.08415" lon="0.64024">
        <ele>174.2</ele>
        <time>2025-05-25T08:44:47Z</time>
      </trkpt>
      <trkpt lat="45.08413" lon="0.64024">
        <ele>174.4</ele>
        <time>2025-05-25T08:44:48Z</time>
      </trkpt>
      <trkpt lat="45.08412" lon="0.64024">
        <ele>174.4</ele>
        <time>2025-05-25T08:44:49Z</time>
      </trkpt>
      <trkpt lat="45.0841" lon="0.64025">
        <ele>174.6</ele>
        <time>2025-05-25T08:44:50Z</time>
      </trkpt>
      <trkpt lat="45.08409" lon="0.64026">
        <ele>174.8</ele>
        <time>2025-05-25T08:44:51Z</time>
      </trkpt>
      <trkpt lat="45.08408" lon="0.64026">
        <ele>174.8</ele>
        <time>2025-05-25T08:44:52Z</time>
      </trkpt>
      <trkpt lat="45.08406" lon="0.64027">
        <ele>175</ele>
        <time>2025-05-25T08:44:53Z</time>
      </trkpt>
      <trkpt lat="45.08405" lon="0.64028">
        <ele>175.2</ele>
        <time>2025-05-25T08:44:54Z</time>
      </trkpt>
      <trkpt lat="45.08404" lon="0.64027">
        <ele>175.2</ele>
        <time>2025-05-25T08:44:55Z</time>
      </trkpt>
      <trkpt lat="45.08402" lon="0.64027">
        <ele>175.4</ele>
        <time>2025-05-25T08:44:56Z</time>
      </trkpt>
      <trkpt lat="45.08401" lon="0.64028">
        <ele>175.6</ele>
        <time>2025-05-25T08:44:57Z</time>
      </trkpt>
      <trkpt lat="45.084" lon="0.64027">
        <ele>175.8</ele>
        <time>2025-05-25T08:44:58Z</time>
      </trkpt>
      <trkpt lat="45.08399" lon="0.64027">
        <ele>176</ele>
        <time>2025-05-25T08:44:59Z</time>
      </trkpt>
      <trkpt lat="45.08398" lon="0.64027">
        <ele>176.2</ele>
        <time>2025-05-25T08:45:00Z</time>
      </trkpt>
      <trkpt lat="45.08396" lon="0.64027">
        <ele>176.4</ele>
        <time>2025-05-25T08:45:01Z</time>
      </trkpt>
      <trkpt lat="45.08395" lon="0.64027">
        <ele>176.6</ele>
        <time>2025-05-25T08:45:02Z</time>
      </trkpt>
      <trkpt lat="45.08394" lon="0.64027">
        <ele>176.8</ele>
        <time>2025-05-25T08:45:03Z</time>
      </trkpt>
      <trkpt lat="45.08392" lon="0.64028">
        <ele>177.2</ele>
        <time>2025-05-25T08:45:04Z</time>
      </trkpt>
      <trkpt lat="45.08391" lon="0.64029">
        <ele>177.4</ele>
        <time>2025-05-25T08:45:05Z</time>
      </trkpt>
      <trkpt lat="45.0839" lon="0.6403">
        <ele>177.4</ele>
        <time>2025-05-25T08:45:06Z</time>
      </trkpt>
      <trkpt lat="45.08388" lon="0.64032">
        <ele>177.6</ele>
        <time>2025-05-25T08:45:07Z</time>
      </trkpt>
      <trkpt lat="45.08387" lon="0.64034">
        <ele>177.6</ele>
        <time>2025-05-25T08:45:08Z</time>
      </trkpt>
      <trkpt lat="45.08385" lon="0.64036">
        <ele>177.6</ele>
        <time>2025-05-25T08:45:09Z</time>
      </trkpt>
      <trkpt lat="45.08384" lon="0.64037">
        <ele>177.6</ele>
        <time>2025-05-25T08:45:10Z</time>
      </trkpt>
      <trkpt lat="45.08382" lon="0.64039">
        <ele>177.6</ele>
        <time>2025-05-25T08:45:11Z</time>
      </trkpt>
      <trkpt lat="45.0838" lon="0.6404">
        <ele>177.4</ele>
        <time>2025-05-25T08:45:12Z</time>
      </trkpt>
      <trkpt lat="45.08378" lon="0.64041">
        <ele>177.4</ele>
        <time>2025-05-25T08:45:13Z</time>
      </trkpt>
      <trkpt lat="45.08376" lon="0.64042">
        <ele>177.4</ele>
        <time>2025-05-25T08:45:14Z</time>
      </trkpt>
      <trkpt lat="45.08374" lon="0.64043">
        <ele>177.4</ele>
        <time>2025-05-25T08:45:15Z</time>
      </trkpt>
      <trkpt lat="45.08373" lon="0.64045">
        <ele>177.4</ele>
        <time>2025-05-25T08:45:16Z</time>
      </trkpt>
      <trkpt lat="45.08371" lon="0.64046">
        <ele>177.4</ele>
        <time>2025-05-25T08:45:17Z</time>
      </trkpt>
      <trkpt lat="45.08369" lon="0.64047">
        <ele>177.6</ele>
        <time>2025-05-25T08:45:18Z</time>
      </trkpt>
      <trkpt lat="45.08367" lon="0.64047">
        <ele>177.6</ele>
        <time>2025-05-25T08:45:19Z</time>
      </trkpt>
      <trkpt lat="45.08365" lon="0.64048">
        <ele>177.8</ele>
        <time>2025-05-25T08:45:20Z</time>
      </trkpt>
      <trkpt lat="45.08363" lon="0.64049">
        <ele>177.8</ele>
        <time>2025-05-25T08:45:21Z</time>
      </trkpt>
      <trkpt lat="45.08361" lon="0.6405">
        <ele>178</ele>
        <time>2025-05-25T08:45:22Z</time>
      </trkpt>
      <trkpt lat="45.08359" lon="0.64051">
        <ele>178</ele>
        <time>2025-05-25T08:45:23Z</time>
      </trkpt>
      <trkpt lat="45.08357" lon="0.64052">
        <ele>178.2</ele>
        <time>2025-05-25T08:45:24Z</time>
      </trkpt>
      <trkpt lat="45.08355" lon="0.64052">
        <ele>178.2</ele>
        <time>2025-05-25T08:45:25Z</time>
      </trkpt>
      <trkpt lat="45.08353" lon="0.64054">
        <ele>178.4</ele>
        <time>2025-05-25T08:45:26Z</time>
      </trkpt>
      <trkpt lat="45.08351" lon="0.64054">
        <ele>178.6</ele>
        <time>2025-05-25T08:45:27Z</time>
      </trkpt>
      <trkpt lat="45.0835" lon="0.64055">
        <ele>178.8</ele>
        <time>2025-05-25T08:45:28Z</time>
      </trkpt>
      <trkpt lat="45.08348" lon="0.64056">
        <ele>179</ele>
        <time>2025-05-25T08:45:29Z</time>
      </trkpt>
      <trkpt lat="45.08347" lon="0.64056">
        <ele>179.2</ele>
        <time>2025-05-25T08:45:30Z</time>
      </trkpt>
      <trkpt lat="45.08345" lon="0.64057">
        <ele>179.4</ele>
        <time>2025-05-25T08:45:31Z</time>
      </trkpt>
      <trkpt lat="45.08344" lon="0.64057">
        <ele>179.6</ele>
        <time>2025-05-25T08:45:32Z</time>
      </trkpt>
      <trkpt lat="45.08342" lon="0.64058">
        <ele>179.8</ele>
        <time>2025-05-25T08:45:33Z</time>
      </trkpt>
      <trkpt lat="45.08341" lon="0.64058">
        <ele>180</ele>
        <time>2025-05-25T08:45:34Z</time>
      </trkpt>
      <trkpt lat="45.08339" lon="0.64059">
        <ele>180</ele>
        <time>2025-05-25T08:45:35Z</time>
      </trkpt>
      <trkpt lat="45.08337" lon="0.6406">
        <ele>180.2</ele>
        <time>2025-05-25T08:45:36Z</time>
      </trkpt>
      <trkpt lat="45.08335" lon="0.6406">
        <ele>180.2</ele>
        <time>2025-05-25T08:45:37Z</time>
      </trkpt>
      <trkpt lat="45.08334" lon="0.64061">
        <ele>180.2</ele>
        <time>2025-05-25T08:45:38Z</time>
      </trkpt>
      <trkpt lat="45.08332" lon="0.64062">
        <ele>180.4</ele>
        <time>2025-05-25T08:45:39Z</time>
      </trkpt>
      <trkpt lat="45.08331" lon="0.64063">
        <ele>180.6</ele>
        <time>2025-05-25T08:45:40Z</time>
      </trkpt>
      <trkpt lat="45.08329" lon="0.64064">
        <ele>180.8</ele>
        <time>2025-05-25T08:45:41Z</time>
      </trkpt>
      <trkpt lat="45.08328" lon="0.64065">
        <ele>181</ele>
        <time>2025-05-25T08:45:42Z</time>
      </trkpt>
      <trkpt lat="45.08326" lon="0.64066">
        <ele>181.2</ele>
        <time>2025-05-25T08:45:43Z</time>
      </trkpt>
      <trkpt lat="45.08325" lon="0.64066">
        <ele>181.2</ele>
        <time>2025-05-25T08:45:44Z</time>
      </trkpt>
      <trkpt lat="45.08323" lon="0.64067">
        <ele>181.6</ele>
        <time>2025-05-25T08:45:45Z</time>
      </trkpt>
      <trkpt lat="45.08321" lon="0.64067">
        <ele>181.6</ele>
        <time>2025-05-25T08:45:46Z</time>
      </trkpt>
      <trkpt lat="45.08319" lon="0.64068">
        <ele>181.8</ele>
        <time>2025-05-25T08:45:47Z</time>
      </trkpt>
      <trkpt lat="45.08318" lon="0.64068">
        <ele>182</ele>
        <time>2025-05-25T08:45:48Z</time>
      </trkpt>
      <trkpt lat="45.08316" lon="0.64069">
        <ele>182</ele>
        <time>2025-05-25T08:45:49Z</time>
      </trkpt>
      <trkpt lat="45.08315" lon="0.64069">
        <ele>182.2</ele>
        <time>2025-05-25T08:45:50Z</time>
      </trkpt>
      <trkpt lat="45.08313" lon="0.6407">
        <ele>182.4</ele>
        <time>2025-05-25T08:45:51Z</time>
      </trkpt>
      <trkpt lat="45.08311" lon="0.64071">
        <ele>182.4</ele>
        <time>2025-05-25T08:45:52Z</time>
      </trkpt>
      <trkpt lat="45.0831" lon="0.64072">
        <ele>182.6</ele>
        <time>2025-05-25T08:45:53Z</time>
      </trkpt>
      <trkpt lat="45.08308" lon="0.64072">
        <ele>182.8</ele>
        <time>2025-05-25T08:45:54Z</time>
      </trkpt>
      <trkpt lat="45.08306" lon="0.64073">
        <ele>182.8</ele>
        <time>2025-05-25T08:45:55Z</time>
      </trkpt>
      <trkpt lat="45.08305" lon="0.64074">
        <ele>183</ele>
        <time>2025-05-25T08:45:56Z</time>
      </trkpt>
      <trkpt lat="45.08303" lon="0.64075">
        <ele>183.2</ele>
        <time>2025-05-25T08:45:57Z</time>
      </trkpt>
      <trkpt lat="45.08302" lon="0.64076">
        <ele>183.4</ele>
        <time>2025-05-25T08:45:58Z</time>
      </trkpt>
      <trkpt lat="45.083" lon="0.64076">
        <ele>183.4</ele>
        <time>2025-05-25T08:45:59Z</time>
      </trkpt>
      <trkpt lat="45.08298" lon="0.64077">
        <ele>183.6</ele>
        <time>2025-05-25T08:46:00Z</time>
      </trkpt>
      <trkpt lat="45.08297" lon="0.64078">
        <ele>183.8</ele>
        <time>2025-05-25T08:46:01Z</time>
      </trkpt>
      <trkpt lat="45.08295" lon="0.64078">
        <ele>184</ele>
        <time>2025-05-25T08:46:02Z</time>
      </trkpt>
      <trkpt lat="45.08293" lon="0.64078">
        <ele>184.2</ele>
        <time>2025-05-25T08:46:03Z</time>
      </trkpt>
      <trkpt lat="45.08292" lon="0.64079">
        <ele>184.2</ele>
        <time>2025-05-25T08:46:04Z</time>
      </trkpt>
      <trkpt lat="45.0829" lon="0.6408">
        <ele>184.4</ele>
        <time>2025-05-25T08:46:05Z</time>
      </trkpt>
      <trkpt lat="45.08288" lon="0.6408">
        <ele>184.6</ele>
        <time>2025-05-25T08:46:06Z</time>
      </trkpt>
      <trkpt lat="45.08287" lon="0.64081">
        <ele>184.8</ele>
        <time>2025-05-25T08:46:07Z</time>
      </trkpt>
      <trkpt lat="45.08285" lon="0.64082">
        <ele>185</ele>
        <time>2025-05-25T08:46:08Z</time>
      </trkpt>
      <trkpt lat="45.08283" lon="0.64083">
        <ele>185</ele>
        <time>2025-05-25T08:46:09Z</time>
      </trkpt>
      <trkpt lat="45.08281" lon="0.64084">
        <ele>185.2</ele>
        <time>2025-05-25T08:46:10Z</time>
      </trkpt>
      <trkpt lat="45.08279" lon="0.64085">
        <ele>185.2</ele>
        <time>2025-05-25T08:46:11Z</time>
      </trkpt>
      <trkpt lat="45.08277" lon="0.64085">
        <ele>185.4</ele>
        <time>2025-05-25T08:46:12Z</time>
      </trkpt>
      <trkpt lat="45.08276" lon="0.64085">
        <ele>185.6</ele>
        <time>2025-05-25T08:46:13Z</time>
      </trkpt>
      <trkpt lat="45.08274" lon="0.64086">
        <ele>185.6</ele>
        <time>2025-05-25T08:46:14Z</time>
      </trkpt>
      <trkpt lat="45.08273" lon="0.64087">
        <ele>185.8</ele>
        <time>2025-05-25T08:46:15Z</time>
      </trkpt>
      <trkpt lat="45.08271" lon="0.64087">
        <ele>186</ele>
        <time>2025-05-25T08:46:16Z</time>
      </trkpt>
      <trkpt lat="45.0827" lon="0.64088">
        <ele>186</ele>
        <time>2025-05-25T08:46:17Z</time>
      </trkpt>
      <trkpt lat="45.08268" lon="0.64088">
        <ele>186.2</ele>
        <time>2025-05-25T08:46:18Z</time>
      </trkpt>
      <trkpt lat="45.08267" lon="0.64089">
        <ele>186.4</ele>
        <time>2025-05-25T08:46:19Z</time>
      </trkpt>
      <trkpt lat="45.08265" lon="0.64089">
        <ele>186.6</ele>
        <time>2025-05-25T08:46:20Z</time>
      </trkpt>
      <trkpt lat="45.08263" lon="0.6409">
        <ele>186.8</ele>
        <time>2025-05-25T08:46:21Z</time>
      </trkpt>
      <trkpt lat="45.08262" lon="0.64091">
        <ele>187</ele>
        <time>2025-05-25T08:46:22Z</time>
      </trkpt>
      <trkpt lat="45.0826" lon="0.64091">
        <ele>187.2</ele>
        <time>2025-05-25T08:46:23Z</time>
      </trkpt>
      <trkpt lat="45.08258" lon="0.64092">
        <ele>187.4</ele>
        <time>2025-05-25T08:46:24Z</time>
      </trkpt>
      <trkpt lat="45.08257" lon="0.64093">
        <ele>187.6</ele>
        <time>2025-05-25T08:46:25Z</time>
      </trkpt>
      <trkpt lat="45.08255" lon="0.64093">
        <ele>187.8</ele>
        <time>2025-05-25T08:46:26Z</time>
      </trkpt>
      <trkpt lat="45.08254" lon="0.64094">
        <ele>187.8</ele>
        <time>2025-05-25T08:46:27Z</time>
      </trkpt>
      <trkpt lat="45.08252" lon="0.64095">
        <ele>188</ele>
        <time>2025-05-25T08:46:28Z</time>
      </trkpt>
      <trkpt lat="45.0825" lon="0.64095">
        <ele>188.2</ele>
        <time>2025-05-25T08:46:29Z</time>
      </trkpt>
      <trkpt lat="45.08248" lon="0.64096">
        <ele>188.4</ele>
        <time>2025-05-25T08:46:30Z</time>
      </trkpt>
      <trkpt lat="45.08247" lon="0.64097">
        <ele>188.6</ele>
        <time>2025-05-25T08:46:31Z</time>
      </trkpt>
      <trkpt lat="45.08245" lon="0.64098">
        <ele>188.8</ele>
        <time>2025-05-25T08:46:32Z</time>
      </trkpt>
      <trkpt lat="45.08244" lon="0.64099">
        <ele>188.8</ele>
        <time>2025-05-25T08:46:33Z</time>
      </trkpt>
      <trkpt lat="45.08242" lon="0.64099">
        <ele>189</ele>
        <time>2025-05-25T08:46:34Z</time>
      </trkpt>
      <trkpt lat="45.08241" lon="0.641">
        <ele>189.2</ele>
        <time>2025-05-25T08:46:35Z</time>
      </trkpt>
      <trkpt lat="45.08239" lon="0.64101">
        <ele>189.4</ele>
        <time>2025-05-25T08:46:36Z</time>
      </trkpt>
      <trkpt lat="45.08237" lon="0.64102">
        <ele>189.6</ele>
        <time>2025-05-25T08:46:37Z</time>
      </trkpt>
      <trkpt lat="45.08236" lon="0.64103">
        <ele>189.8</ele>
        <time>2025-05-25T08:46:38Z</time>
      </trkpt>
      <trkpt lat="45.08234" lon="0.64105">
        <ele>190</ele>
        <time>2025-05-25T08:46:39Z</time>
      </trkpt>
      <trkpt lat="45.08232" lon="0.64106">
        <ele>190</ele>
        <time>2025-05-25T08:46:40Z</time>
      </trkpt>
      <trkpt lat="45.0823" lon="0.64107">
        <ele>190.2</ele>
        <time>2025-05-25T08:46:41Z</time>
      </trkpt>
      <trkpt lat="45.08229" lon="0.64108">
        <ele>190.4</ele>
        <time>2025-05-25T08:46:42Z</time>
      </trkpt>
      <trkpt lat="45.08227" lon="0.64109">
        <ele>190.6</ele>
        <time>2025-05-25T08:46:43Z</time>
      </trkpt>
      <trkpt lat="45.08226" lon="0.6411">
        <ele>190.8</ele>
        <time>2025-05-25T08:46:44Z</time>
      </trkpt>
      <trkpt lat="45.08224" lon="0.64111">
        <ele>190.8</ele>
        <time>2025-05-25T08:46:45Z</time>
      </trkpt>
      <trkpt lat="45.08223" lon="0.64112">
        <ele>191</ele>
        <time>2025-05-25T08:46:46Z</time>
      </trkpt>
      <trkpt lat="45.08221" lon="0.64113">
        <ele>191.2</ele>
        <time>2025-05-25T08:46:47Z</time>
      </trkpt>
      <trkpt lat="45.08219" lon="0.64115">
        <ele>191.4</ele>
        <time>2025-05-25T08:46:48Z</time>
      </trkpt>
      <trkpt lat="45.08217" lon="0.64117">
        <ele>191.4</ele>
        <time>2025-05-25T08:46:49Z</time>
      </trkpt>
      <trkpt lat="45.08216" lon="0.64118">
        <ele>191.6</ele>
        <time>2025-05-25T08:46:50Z</time>
      </trkpt>
      <trkpt lat="45.08214" lon="0.6412">
        <ele>191.8</ele>
        <time>2025-05-25T08:46:51Z</time>
      </trkpt>
      <trkpt lat="45.08213" lon="0.64122">
        <ele>191.8</ele>
        <time>2025-05-25T08:46:52Z</time>
      </trkpt>
      <trkpt lat="45.08212" lon="0.64125">
        <ele>192</ele>
        <time>2025-05-25T08:46:53Z</time>
      </trkpt>
      <trkpt lat="45.08211" lon="0.64126">
        <ele>192.2</ele>
        <time>2025-05-25T08:46:54Z</time>
      </trkpt>
      <trkpt lat="45.0821" lon="0.64128">
        <ele>192.2</ele>
        <time>2025-05-25T08:46:55Z</time>
      </trkpt>
      <trkpt lat="45.08209" lon="0.6413">
        <ele>192.4</ele>
        <time>2025-05-25T08:46:56Z</time>
      </trkpt>
      <trkpt lat="45.08208" lon="0.64132">
        <ele>192.6</ele>
        <time>2025-05-25T08:46:57Z</time>
      </trkpt>
      <trkpt lat="45.08207" lon="0.64134">
        <ele>192.8</ele>
        <time>2025-05-25T08:46:58Z</time>
      </trkpt>
      <trkpt lat="45.08206" lon="0.64137">
        <ele>193</ele>
        <time>2025-05-25T08:46:59Z</time>
      </trkpt>
      <trkpt lat="45.08206" lon="0.64139">
        <ele>193</ele>
        <time>2025-05-25T08:47:00Z</time>
      </trkpt>
      <trkpt lat="45.08205" lon="0.64141">
        <ele>193.2</ele>
        <time>2025-05-25T08:47:01Z</time>
      </trkpt>
      <trkpt lat="45.08205" lon="0.64143">
        <ele>193.4</ele>
        <time>2025-05-25T08:47:02Z</time>
      </trkpt>
      <trkpt lat="45.08204" lon="0.64144">
        <ele>193.6</ele>
        <time>2025-05-25T08:47:03Z</time>
      </trkpt>
      <trkpt lat="45.08204" lon="0.64146">
        <ele>193.6</ele>
        <time>2025-05-25T08:47:04Z</time>
      </trkpt>
      <trkpt lat="45.08204" lon="0.64148">
        <ele>193.8</ele>
        <time>2025-05-25T08:47:05Z</time>
      </trkpt>
      <trkpt lat="45.08204" lon="0.64149">
        <ele>193.8</ele>
        <time>2025-05-25T08:47:06Z</time>
      </trkpt>
      <trkpt lat="45.08204" lon="0.64151">
        <ele>194</ele>
        <time>2025-05-25T08:47:07Z</time>
      </trkpt>
      <trkpt lat="45.08205" lon="0.64152">
        <ele>194</ele>
        <time>2025-05-25T08:47:08Z</time>
      </trkpt>
      <trkpt lat="45.08205" lon="0.64152">
        <ele>194.2</ele>
        <time>2025-05-25T08:47:09Z</time>
      </trkpt>
      <trkpt lat="45.08204" lon="0.64152">
        <ele>194.2</ele>
        <time>2025-05-25T08:47:10Z</time>
      </trkpt>
      <trkpt lat="45.08206" lon="0.64147">
        <ele>194</ele>
        <time>2025-05-25T08:47:22Z</time>
      </trkpt>
      <trkpt lat="45.08206" lon="0.64145">
        <ele>194</ele>
        <time>2025-05-25T08:47:23Z</time>
      </trkpt>
      <trkpt lat="45.08205" lon="0.64142">
        <ele>193.8</ele>
        <time>2025-05-25T08:47:24Z</time>
      </trkpt>
      <trkpt lat="45.08204" lon="0.6414">
        <ele>193.8</ele>
        <time>2025-05-25T08:47:25Z</time>
      </trkpt>
      <trkpt lat="45.08202" lon="0.64139">
        <ele>193.6</ele>
        <time>2025-05-25T08:47:26Z</time>
      </trkpt>
      <trkpt lat="45.082" lon="0.64138">
        <ele>193.8</ele>
        <time>2025-05-25T08:47:27Z</time>
      </trkpt>
      <trkpt lat="45.08198" lon="0.64138">
        <ele>194</ele>
        <time>2025-05-25T08:47:28Z</time>
      </trkpt>
      <trkpt lat="45.08197" lon="0.64138">
        <ele>194.2</ele>
        <time>2025-05-25T08:47:29Z</time>
      </trkpt>
      <trkpt lat="45.08195" lon="0.64138">
        <ele>194.4</ele>
        <time>2025-05-25T08:47:30Z</time>
      </trkpt>
      <trkpt lat="45.08194" lon="0.64138">
        <ele>194.8</ele>
        <time>2025-05-25T08:47:31Z</time>
      </trkpt>
      <trkpt lat="45.08192" lon="0.64139">
        <ele>195</ele>
        <time>2025-05-25T08:47:32Z</time>
      </trkpt>
      <trkpt lat="45.0819" lon="0.64139">
        <ele>195.2</ele>
        <time>2025-05-25T08:47:33Z</time>
      </trkpt>
      <trkpt lat="45.08188" lon="0.6414">
        <ele>195.6</ele>
        <time>2025-05-25T08:47:34Z</time>
      </trkpt>
      <trkpt lat="45.08187" lon="0.6414">
        <ele>195.8</ele>
        <time>2025-05-25T08:47:35Z</time>
      </trkpt>
      <trkpt lat="45.08185" lon="0.64141">
        <ele>196</ele>
        <time>2025-05-25T08:47:36Z</time>
      </trkpt>
      <trkpt lat="45.08183" lon="0.64141">
        <ele>196.2</ele>
        <time>2025-05-25T08:47:37Z</time>
      </trkpt>
      <trkpt lat="45.08181" lon="0.64141">
        <ele>196.6</ele>
        <time>2025-05-25T08:47:38Z</time>
      </trkpt>
      <trkpt lat="45.08179" lon="0.64142">
        <ele>196.8</ele>
        <time>2025-05-25T08:47:39Z</time>
      </trkpt>
      <trkpt lat="45.08177" lon="0.64142">
        <ele>197</ele>
        <time>2025-05-25T08:47:40Z</time>
      </trkpt>
      <trkpt lat="45.08175" lon="0.64143">
        <ele>197.2</ele>
        <time>2025-05-25T08:47:41Z</time>
      </trkpt>
      <trkpt lat="45.08172" lon="0.64143">
        <ele>197.4</ele>
        <time>2025-05-25T08:47:42Z</time>
      </trkpt>
      <trkpt lat="45.0817" lon="0.64144">
        <ele>197.6</ele>
        <time>2025-05-25T08:47:43Z</time>
      </trkpt>
      <trkpt lat="45.08167" lon="0.64144">
        <ele>197.8</ele>
        <time>2025-05-25T08:47:44Z</time>
      </trkpt>
      <trkpt lat="45.08165" lon="0.64144">
        <ele>197.8</ele>
        <time>2025-05-25T08:47:45Z</time>
      </trkpt>
      <trkpt lat="45.08162" lon="0.64145">
        <ele>198</ele>
        <time>2025-05-25T08:47:46Z</time>
      </trkpt>
      <trkpt lat="45.0816" lon="0.64145">
        <ele>198</ele>
        <time>2025-05-25T08:47:47Z</time>
      </trkpt>
      <trkpt lat="45.08157" lon="0.64146">
        <ele>198.2</ele>
        <time>2025-05-25T08:47:48Z</time>
      </trkpt>
      <trkpt lat="45.08154" lon="0.64146">
        <ele>198.2</ele>
        <time>2025-05-25T08:47:49Z</time>
      </trkpt>
      <trkpt lat="45.08151" lon="0.64146">
        <ele>198.4</ele>
        <time>2025-05-25T08:47:50Z</time>
      </trkpt>
      <trkpt lat="45.08148" lon="0.64146">
        <ele>198.4</ele>
        <time>2025-05-25T08:47:51Z</time>
      </trkpt>
      <trkpt lat="45.08145" lon="0.64147">
        <ele>198.6</ele>
        <time>2025-05-25T08:47:52Z</time>
      </trkpt>
      <trkpt lat="45.08142" lon="0.64147">
        <ele>198.6</ele>
        <time>2025-05-25T08:47:53Z</time>
      </trkpt>
      <trkpt lat="45.08139" lon="0.64146">
        <ele>198.8</ele>
        <time>2025-05-25T08:47:54Z</time>
      </trkpt>
      <trkpt lat="45.08135" lon="0.64146">
        <ele>198.8</ele>
        <time>2025-05-25T08:47:55Z</time>
      </trkpt>
      <trkpt lat="45.08132" lon="0.64144">
        <ele>198.8</ele>
        <time>2025-05-25T08:47:56Z</time>
      </trkpt>
      <trkpt lat="45.08129" lon="0.64143">
        <ele>198.8</ele>
        <time>2025-05-25T08:47:57Z</time>
      </trkpt>
      <trkpt lat="45.08126" lon="0.6414">
        <ele>198.8</ele>
        <time>2025-05-25T08:47:58Z</time>
      </trkpt>
      <trkpt lat="45.08124" lon="0.64136">
        <ele>198.6</ele>
        <time>2025-05-25T08:47:59Z</time>
      </trkpt>
      <trkpt lat="45.08123" lon="0.64131">
        <ele>198.4</ele>
        <time>2025-05-25T08:48:00Z</time>
      </trkpt>
      <trkpt lat="45.08122" lon="0.64126">
        <ele>198.2</ele>
        <time>2025-05-25T08:48:01Z</time>
      </trkpt>
      <trkpt lat="45.0812" lon="0.64122">
        <ele>198</ele>
        <time>2025-05-25T08:48:02Z</time>
      </trkpt>
      <trkpt lat="45.08119" lon="0.64116">
        <ele>198</ele>
        <time>2025-05-25T08:48:03Z</time>
      </trkpt>
      <trkpt lat="45.08117" lon="0.64111">
        <ele>198</ele>
        <time>2025-05-25T08:48:04Z</time>
      </trkpt>
      <trkpt lat="45.08116" lon="0.64106">
        <ele>198</ele>
        <time>2025-05-25T08:48:05Z</time>
      </trkpt>
      <trkpt lat="45.08115" lon="0.641">
        <ele>198</ele>
        <time>2025-05-25T08:48:06Z</time>
      </trkpt>
      <trkpt lat="45.08113" lon="0.64095">
        <ele>198</ele>
        <time>2025-05-25T08:48:07Z</time>
      </trkpt>
      <trkpt lat="45.08112" lon="0.6409">
        <ele>198.2</ele>
        <time>2025-05-25T08:48:08Z</time>
      </trkpt>
      <trkpt lat="45.08111" lon="0.64085">
        <ele>198.4</ele>
        <time>2025-05-25T08:48:09Z</time>
      </trkpt>
      <trkpt lat="45.0811" lon="0.64079">
        <ele>198.4</ele>
        <time>2025-05-25T08:48:10Z</time>
      </trkpt>
      <trkpt lat="45.08109" lon="0.64074">
        <ele>198.6</ele>
        <time>2025-05-25T08:48:11Z</time>
      </trkpt>
      <trkpt lat="45.08107" lon="0.64069">
        <ele>198.6</ele>
        <time>2025-05-25T08:48:12Z</time>
      </trkpt>
      <trkpt lat="45.08106" lon="0.64064">
        <ele>198.6</ele>
        <time>2025-05-25T08:48:13Z</time>
      </trkpt>
      <trkpt lat="45.08105" lon="0.64058">
        <ele>198.6</ele>
        <time>2025-05-25T08:48:14Z</time>
      </trkpt>
      <trkpt lat="45.08103" lon="0.64053">
        <ele>198.6</ele>
        <time>2025-05-25T08:48:15Z</time>
      </trkpt>
      <trkpt lat="45.08102" lon="0.64048">
        <ele>198.6</ele>
        <time>2025-05-25T08:48:16Z</time>
      </trkpt>
      <trkpt lat="45.08101" lon="0.64043">
        <ele>198.4</ele>
        <time>2025-05-25T08:48:17Z</time>
      </trkpt>
      <trkpt lat="45.081" lon="0.64038">
        <ele>198.6</ele>
        <time>2025-05-25T08:48:18Z</time>
      </trkpt>
      <trkpt lat="45.08099" lon="0.64032">
        <ele>198.6</ele>
        <time>2025-05-25T08:48:19Z</time>
      </trkpt>
      <trkpt lat="45.08097" lon="0.64027">
        <ele>198.6</ele>
        <time>2025-05-25T08:48:20Z</time>
      </trkpt>
      <trkpt lat="45.08096" lon="0.64022">
        <ele>198.8</ele>
        <time>2025-05-25T08:48:21Z</time>
      </trkpt>
      <trkpt lat="45.08095" lon="0.64016">
        <ele>199</ele>
        <time>2025-05-25T08:48:22Z</time>
      </trkpt>
      <trkpt lat="45.08093" lon="0.64011">
        <ele>199.2</ele>
        <time>2025-05-25T08:48:23Z</time>
      </trkpt>
      <trkpt lat="45.08092" lon="0.64005">
        <ele>199.2</ele>
        <time>2025-05-25T08:48:24Z</time>
      </trkpt>
      <trkpt lat="45.08091" lon="0.63999">
        <ele>199.4</ele>
        <time>2025-05-25T08:48:25Z</time>
      </trkpt>
      <trkpt lat="45.0809" lon="0.63993">
        <ele>199.4</ele>
        <time>2025-05-25T08:48:26Z</time>
      </trkpt>
      <trkpt lat="45.08089" lon="0.63988">
        <ele>199.2</ele>
        <time>2025-05-25T08:48:27Z</time>
      </trkpt>
      <trkpt lat="45.08088" lon="0.63983">
        <ele>199.2</ele>
        <time>2025-05-25T08:48:28Z</time>
      </trkpt>
      <trkpt lat="45.08086" lon="0.63978">
        <ele>199.4</ele>
        <time>2025-05-25T08:48:29Z</time>
      </trkpt>
      <trkpt lat="45.08085" lon="0.63973">
        <ele>199.4</ele>
        <time>2025-05-25T08:48:30Z</time>
      </trkpt>
      <trkpt lat="45.08084" lon="0.63968">
        <ele>199.6</ele>
        <time>2025-05-25T08:48:31Z</time>
      </trkpt>
      <trkpt lat="45.08083" lon="0.63962">
        <ele>199.8</ele>
        <time>2025-05-25T08:48:32Z</time>
      </trkpt>
      <trkpt lat="45.08082" lon="0.63956">
        <ele>199.8</ele>
        <time>2025-05-25T08:48:33Z</time>
      </trkpt>
      <trkpt lat="45.08081" lon="0.6395">
        <ele>200</ele>
        <time>2025-05-25T08:48:34Z</time>
      </trkpt>
      <trkpt lat="45.08079" lon="0.63944">
        <ele>199.8</ele>
        <time>2025-05-25T08:48:35Z</time>
      </trkpt>
      <trkpt lat="45.08077" lon="0.63937">
        <ele>199.8</ele>
        <time>2025-05-25T08:48:36Z</time>
      </trkpt>
      <trkpt lat="45.08076" lon="0.63931">
        <ele>199.8</ele>
        <time>2025-05-25T08:48:37Z</time>
      </trkpt>
      <trkpt lat="45.08075" lon="0.63925">
        <ele>199.8</ele>
        <time>2025-05-25T08:48:38Z</time>
      </trkpt>
      <trkpt lat="45.08072" lon="0.63919">
        <ele>199.8</ele>
        <time>2025-05-25T08:48:39Z</time>
      </trkpt>
      <trkpt lat="45.08071" lon="0.63913">
        <ele>199.8</ele>
        <time>2025-05-25T08:48:40Z</time>
      </trkpt>
      <trkpt lat="45.08069" lon="0.63906">
        <ele>199.8</ele>
        <time>2025-05-25T08:48:41Z</time>
      </trkpt>
      <trkpt lat="45.08067" lon="0.639">
        <ele>199.8</ele>
        <time>2025-05-25T08:48:42Z</time>
      </trkpt>
      <trkpt lat="45.08066" lon="0.63894">
        <ele>199.8</ele>
        <time>2025-05-25T08:48:43Z</time>
      </trkpt>
      <trkpt lat="45.08064" lon="0.63887">
        <ele>199.6</ele>
        <time>2025-05-25T08:48:44Z</time>
      </trkpt>
      <trkpt lat="45.08062" lon="0.63881">
        <ele>199.8</ele>
        <time>2025-05-25T08:48:45Z</time>
      </trkpt>
      <trkpt lat="45.0806" lon="0.63875">
        <ele>199.6</ele>
        <time>2025-05-25T08:48:46Z</time>
      </trkpt>
      <trkpt lat="45.08059" lon="0.63868">
        <ele>199.6</ele>
        <time>2025-05-25T08:48:47Z</time>
      </trkpt>
      <trkpt lat="45.08058" lon="0.63862">
        <ele>199.6</ele>
        <time>2025-05-25T08:48:48Z</time>
      </trkpt>
      <trkpt lat="45.08057" lon="0.63856">
        <ele>199.4</ele>
        <time>2025-05-25T08:48:49Z</time>
      </trkpt>
      <trkpt lat="45.08056" lon="0.63849">
        <ele>199.4</ele>
        <time>2025-05-25T08:48:50Z</time>
      </trkpt>
      <trkpt lat="45.08056" lon="0.63843">
        <ele>199.2</ele>
        <time>2025-05-25T08:48:51Z</time>
      </trkpt>
      <trkpt lat="45.08056" lon="0.63836">
        <ele>199.2</ele>
        <time>2025-05-25T08:48:52Z</time>
      </trkpt>
      <trkpt lat="45.08055" lon="0.63828">
        <ele>199.2</ele>
        <time>2025-05-25T08:48:53Z</time>
      </trkpt>
      <trkpt lat="45.08055" lon="0.63821">
        <ele>199.2</ele>
        <time>2025-05-25T08:48:54Z</time>
      </trkpt>
      <trkpt lat="45.08055" lon="0.63813">
        <ele>199.2</ele>
        <time>2025-05-25T08:48:55Z</time>
      </trkpt>
      <trkpt lat="45.08055" lon="0.63806">
        <ele>199</ele>
        <time>2025-05-25T08:48:56Z</time>
      </trkpt>
      <trkpt lat="45.08055" lon="0.63798">
        <ele>198.8</ele>
        <time>2025-05-25T08:48:57Z</time>
      </trkpt>
      <trkpt lat="45.08055" lon="0.6379">
        <ele>198.6</ele>
        <time>2025-05-25T08:48:58Z</time>
      </trkpt>
      <trkpt lat="45.08055" lon="0.63783">
        <ele>198.4</ele>
        <time>2025-05-25T08:48:59Z</time>
      </trkpt>
      <trkpt lat="45.08054" lon="0.63775">
        <ele>198.4</ele>
        <time>2025-05-25T08:49:00Z</time>
      </trkpt>
      <trkpt lat="45.08053" lon="0.63767">
        <ele>198.2</ele>
        <time>2025-05-25T08:49:01Z</time>
      </trkpt>
      <trkpt lat="45.08053" lon="0.63759">
        <ele>198</ele>
        <time>2025-05-25T08:49:02Z</time>
      </trkpt>
      <trkpt lat="45.08052" lon="0.63751">
        <ele>198</ele>
        <time>2025-05-25T08:49:03Z</time>
      </trkpt>
      <trkpt lat="45.08051" lon="0.63744">
        <ele>198</ele>
        <time>2025-05-25T08:49:04Z</time>
      </trkpt>
      <trkpt lat="45.08049" lon="0.63737">
        <ele>197.8</ele>
        <time>2025-05-25T08:49:05Z</time>
      </trkpt>
      <trkpt lat="45.08049" lon="0.63729">
        <ele>197.8</ele>
        <time>2025-05-25T08:49:06Z</time>
      </trkpt>
      <trkpt lat="45.08048" lon="0.63721">
        <ele>197.6</ele>
        <time>2025-05-25T08:49:07Z</time>
      </trkpt>
      <trkpt lat="45.08048" lon="0.63712">
        <ele>197.4</ele>
        <time>2025-05-25T08:49:08Z</time>
      </trkpt>
      <trkpt lat="45.08048" lon="0.63704">
        <ele>197.2</ele>
        <time>2025-05-25T08:49:09Z</time>
      </trkpt>
      <trkpt lat="45.08048" lon="0.63696">
        <ele>197</ele>
        <time>2025-05-25T08:49:10Z</time>
      </trkpt>
      <trkpt lat="45.08048" lon="0.63688">
        <ele>197</ele>
        <time>2025-05-25T08:49:11Z</time>
      </trkpt>
      <trkpt lat="45.08049" lon="0.6368">
        <ele>197</ele>
        <time>2025-05-25T08:49:12Z</time>
      </trkpt>
      <trkpt lat="45.0805" lon="0.63671">
        <ele>197</ele>
        <time>2025-05-25T08:49:13Z</time>
      </trkpt>
      <trkpt lat="45.08052" lon="0.63663">
        <ele>197.2</ele>
        <time>2025-05-25T08:49:14Z</time>
      </trkpt>
      <trkpt lat="45.08053" lon="0.63655">
        <ele>197.2</ele>
        <time>2025-05-25T08:49:15Z</time>
      </trkpt>
      <trkpt lat="45.08055" lon="0.63647">
        <ele>197.4</ele>
        <time>2025-05-25T08:49:16Z</time>
      </trkpt>
      <trkpt lat="45.08056" lon="0.63639">
        <ele>197.4</ele>
        <time>2025-05-25T08:49:17Z</time>
      </trkpt>
      <trkpt lat="45.08058" lon="0.63631">
        <ele>197.4</ele>
        <time>2025-05-25T08:49:18Z</time>
      </trkpt>
      <trkpt lat="45.0806" lon="0.63624">
        <ele>197.4</ele>
        <time>2025-05-25T08:49:19Z</time>
      </trkpt>
      <trkpt lat="45.08062" lon="0.63617">
        <ele>197.4</ele>
        <time>2025-05-25T08:49:20Z</time>
      </trkpt>
      <trkpt lat="45.08063" lon="0.63609">
        <ele>197.6</ele>
        <time>2025-05-25T08:49:21Z</time>
      </trkpt>
      <trkpt lat="45.08064" lon="0.63602">
        <ele>197.6</ele>
        <time>2025-05-25T08:49:22Z</time>
      </trkpt>
      <trkpt lat="45.08066" lon="0.63596">
        <ele>197.6</ele>
        <time>2025-05-25T08:49:23Z</time>
      </trkpt>
      <trkpt lat="45.08067" lon="0.63589">
        <ele>197.6</ele>
        <time>2025-05-25T08:49:24Z</time>
      </trkpt>
      <trkpt lat="45.08068" lon="0.63583">
        <ele>197.8</ele>
        <time>2025-05-25T08:49:25Z</time>
      </trkpt>
      <trkpt lat="45.0807" lon="0.63576">
        <ele>197.8</ele>
        <time>2025-05-25T08:49:26Z</time>
      </trkpt>
      <trkpt lat="45.08071" lon="0.63569">
        <ele>197.8</ele>
        <time>2025-05-25T08:49:27Z</time>
      </trkpt>
      <trkpt lat="45.08074" lon="0.63563">
        <ele>197.8</ele>
        <time>2025-05-25T08:49:28Z</time>
      </trkpt>
      <trkpt lat="45.08079" lon="0.63559">
        <ele>197.6</ele>
        <time>2025-05-25T08:49:29Z</time>
      </trkpt>
      <trkpt lat="45.08083" lon="0.63554">
        <ele>197.4</ele>
        <time>2025-05-25T08:49:30Z</time>
      </trkpt>
      <trkpt lat="45.08086" lon="0.63548">
        <ele>197.2</ele>
        <time>2025-05-25T08:49:31Z</time>
      </trkpt>
      <trkpt lat="45.08087" lon="0.63542">
        <ele>197.2</ele>
        <time>2025-05-25T08:49:32Z</time>
      </trkpt>
      <trkpt lat="45.08089" lon="0.63536">
        <ele>197</ele>
        <time>2025-05-25T08:49:33Z</time>
      </trkpt>
      <trkpt lat="45.08092" lon="0.63531">
        <ele>196.8</ele>
        <time>2025-05-25T08:49:34Z</time>
      </trkpt>
      <trkpt lat="45.08096" lon="0.63529">
        <ele>196.8</ele>
        <time>2025-05-25T08:49:35Z</time>
      </trkpt>
      <trkpt lat="45.081" lon="0.63529">
        <ele>196.4</ele>
        <time>2025-05-25T08:49:36Z</time>
      </trkpt>
      <trkpt lat="45.08105" lon="0.63531">
        <ele>196</ele>
        <time>2025-05-25T08:49:37Z</time>
      </trkpt>
      <trkpt lat="45.08111" lon="0.63533">
        <ele>195.6</ele>
        <time>2025-05-25T08:49:38Z</time>
      </trkpt>
      <trkpt lat="45.08118" lon="0.63536">
        <ele>195</ele>
        <time>2025-05-25T08:49:39Z</time>
      </trkpt>
      <trkpt lat="45.08126" lon="0.63534">
        <ele>193.8</ele>
        <time>2025-05-25T08:49:40Z</time>
      </trkpt>
      <trkpt lat="45.08134" lon="0.6353">
        <ele>192.8</ele>
        <time>2025-05-25T08:49:41Z</time>
      </trkpt>
      <trkpt lat="45.08141" lon="0.63526">
        <ele>191.8</ele>
        <time>2025-05-25T08:49:42Z</time>
      </trkpt>
      <trkpt lat="45.08149" lon="0.63521">
        <ele>190.8</ele>
        <time>2025-05-25T08:49:43Z</time>
      </trkpt>
      <trkpt lat="45.08157" lon="0.63516">
        <ele>189.6</ele>
        <time>2025-05-25T08:49:44Z</time>
      </trkpt>
      <trkpt lat="45.08165" lon="0.63511">
        <ele>188.4</ele>
        <time>2025-05-25T08:49:45Z</time>
      </trkpt>
      <trkpt lat="45.08174" lon="0.63504">
        <ele>186.8</ele>
        <time>2025-05-25T08:49:46Z</time>
      </trkpt>
      <trkpt lat="45.08182" lon="0.635">
        <ele>185.8</ele>
        <time>2025-05-25T08:49:47Z</time>
      </trkpt>
      <trkpt lat="45.0819" lon="0.63493">
        <ele>184.6</ele>
        <time>2025-05-25T08:49:48Z</time>
      </trkpt>
      <trkpt lat="45.08198" lon="0.63488">
        <ele>183.6</ele>
        <time>2025-05-25T08:49:49Z</time>
      </trkpt>
      <trkpt lat="45.08204" lon="0.63481">
        <ele>182.4</ele>
        <time>2025-05-25T08:49:50Z</time>
      </trkpt>
      <trkpt lat="45.0821" lon="0.63473">
        <ele>181</ele>
        <time>2025-05-25T08:49:51Z</time>
      </trkpt>
      <trkpt lat="45.08215" lon="0.63463">
        <ele>179.8</ele>
        <time>2025-05-25T08:49:52Z</time>
      </trkpt>
      <trkpt lat="45.08219" lon="0.63452">
        <ele>178.4</ele>
        <time>2025-05-25T08:49:53Z</time>
      </trkpt>
      <trkpt lat="45.08221" lon="0.6344">
        <ele>177.6</ele>
        <time>2025-05-25T08:49:54Z</time>
      </trkpt>
      <trkpt lat="45.08223" lon="0.63428">
        <ele>176</ele>
        <time>2025-05-25T08:49:55Z</time>
      </trkpt>
      <trkpt lat="45.08224" lon="0.63418">
        <ele>174.8</ele>
        <time>2025-05-25T08:49:56Z</time>
      </trkpt>
      <trkpt lat="45.08224" lon="0.63409">
        <ele>173.4</ele>
        <time>2025-05-25T08:49:57Z</time>
      </trkpt>
      <trkpt lat="45.08225" lon="0.63402">
        <ele>172.4</ele>
        <time>2025-05-25T08:49:58Z</time>
      </trkpt>
      <trkpt lat="45.08226" lon="0.63396">
        <ele>172</ele>
        <time>2025-05-25T08:49:59Z</time>
      </trkpt>
      <trkpt lat="45.08226" lon="0.63389">
        <ele>171.4</ele>
        <time>2025-05-25T08:50:00Z</time>
      </trkpt>
      <trkpt lat="45.08226" lon="0.63381">
        <ele>170.8</ele>
        <time>2025-05-25T08:50:01Z</time>
      </trkpt>
      <trkpt lat="45.08227" lon="0.63372">
        <ele>170.2</ele>
        <time>2025-05-25T08:50:02Z</time>
      </trkpt>
      <trkpt lat="45.08229" lon="0.63362">
        <ele>168.8</ele>
        <time>2025-05-25T08:50:03Z</time>
      </trkpt>
      <trkpt lat="45.08231" lon="0.63351">
        <ele>167.6</ele>
        <time>2025-05-25T08:50:04Z</time>
      </trkpt>
      <trkpt lat="45.08236" lon="0.63342">
        <ele>166.2</ele>
        <time>2025-05-25T08:50:05Z</time>
      </trkpt>
      <trkpt lat="45.08241" lon="0.63335">
        <ele>165</ele>
        <time>2025-05-25T08:50:06Z</time>
      </trkpt>
      <trkpt lat="45.08247" lon="0.63331">
        <ele>163.8</ele>
        <time>2025-05-25T08:50:07Z</time>
      </trkpt>
      <trkpt lat="45.08254" lon="0.63329">
        <ele>162.2</ele>
        <time>2025-05-25T08:50:08Z</time>
      </trkpt>
      <trkpt lat="45.08262" lon="0.63327">
        <ele>160.8</ele>
        <time>2025-05-25T08:50:09Z</time>
      </trkpt>
      <trkpt lat="45.08271" lon="0.63328">
        <ele>159.4</ele>
        <time>2025-05-25T08:50:10Z</time>
      </trkpt>
      <trkpt lat="45.0828" lon="0.63328">
        <ele>158</ele>
        <time>2025-05-25T08:50:11Z</time>
      </trkpt>
      <trkpt lat="45.08288" lon="0.63329">
        <ele>156.8</ele>
        <time>2025-05-25T08:50:12Z</time>
      </trkpt>
      <trkpt lat="45.08296" lon="0.63333">
        <ele>155.4</ele>
        <time>2025-05-25T08:50:13Z</time>
      </trkpt>
      <trkpt lat="45.08302" lon="0.63336">
        <ele>154</ele>
        <time>2025-05-25T08:50:14Z</time>
      </trkpt>
      <trkpt lat="45.08307" lon="0.63338">
        <ele>153.2</ele>
        <time>2025-05-25T08:50:15Z</time>
      </trkpt>
      <trkpt lat="45.08311" lon="0.6334">
        <ele>152.8</ele>
        <time>2025-05-25T08:50:16Z</time>
      </trkpt>
      <trkpt lat="45.08314" lon="0.63341">
        <ele>152.4</ele>
        <time>2025-05-25T08:50:17Z</time>
      </trkpt>
      <trkpt lat="45.08318" lon="0.63342">
        <ele>152.2</ele>
        <time>2025-05-25T08:50:18Z</time>
      </trkpt>
      <trkpt lat="45.08322" lon="0.63342">
        <ele>152</ele>
        <time>2025-05-25T08:50:19Z</time>
      </trkpt>
      <trkpt lat="45.08326" lon="0.63344">
        <ele>151.6</ele>
        <time>2025-05-25T08:50:20Z</time>
      </trkpt>
      <trkpt lat="45.08331" lon="0.63345">
        <ele>151.2</ele>
        <time>2025-05-25T08:50:21Z</time>
      </trkpt>
      <trkpt lat="45.08337" lon="0.63347">
        <ele>150.6</ele>
        <time>2025-05-25T08:50:22Z</time>
      </trkpt>
      <trkpt lat="45.08342" lon="0.63349">
        <ele>150</ele>
        <time>2025-05-25T08:50:23Z</time>
      </trkpt>
      <trkpt lat="45.08347" lon="0.63351">
        <ele>149.4</ele>
        <time>2025-05-25T08:50:24Z</time>
      </trkpt>
      <trkpt lat="45.08353" lon="0.63353">
        <ele>148.6</ele>
        <time>2025-05-25T08:50:25Z</time>
      </trkpt>
      <trkpt lat="45.08361" lon="0.63355">
        <ele>148</ele>
        <time>2025-05-25T08:50:26Z</time>
      </trkpt>
      <trkpt lat="45.08367" lon="0.63357">
        <ele>147.2</ele>
        <time>2025-05-25T08:50:27Z</time>
      </trkpt>
      <trkpt lat="45.08374" lon="0.6336">
        <ele>146.4</ele>
        <time>2025-05-25T08:50:28Z</time>
      </trkpt>
      <trkpt lat="45.08381" lon="0.63361">
        <ele>145.8</ele>
        <time>2025-05-25T08:50:29Z</time>
      </trkpt>
      <trkpt lat="45.08388" lon="0.63359">
        <ele>145</ele>
        <time>2025-05-25T08:50:30Z</time>
      </trkpt>
      <trkpt lat="45.08393" lon="0.63356">
        <ele>144.6</ele>
        <time>2025-05-25T08:50:31Z</time>
      </trkpt>
      <trkpt lat="45.08398" lon="0.63352">
        <ele>144.6</ele>
        <time>2025-05-25T08:50:32Z</time>
      </trkpt>
      <trkpt lat="45.08402" lon="0.63349">
        <ele>144.8</ele>
        <time>2025-05-25T08:50:33Z</time>
      </trkpt>
      <trkpt lat="45.08407" lon="0.63347">
        <ele>145</ele>
        <time>2025-05-25T08:50:34Z</time>
      </trkpt>
      <trkpt lat="45.08411" lon="0.63344">
        <ele>145.2</ele>
        <time>2025-05-25T08:50:35Z</time>
      </trkpt>
      <trkpt lat="45.08416" lon="0.63342">
        <ele>145.6</ele>
        <time>2025-05-25T08:50:36Z</time>
      </trkpt>
      <trkpt lat="45.08422" lon="0.63339">
        <ele>145.8</ele>
        <time>2025-05-25T08:50:37Z</time>
      </trkpt>
      <trkpt lat="45.08427" lon="0.63336">
        <ele>145.8</ele>
        <time>2025-05-25T08:50:38Z</time>
      </trkpt>
      <trkpt lat="45.08432" lon="0.63333">
        <ele>146</ele>
        <time>2025-05-25T08:50:39Z</time>
      </trkpt>
      <trkpt lat="45.08437" lon="0.63331">
        <ele>146</ele>
        <time>2025-05-25T08:50:40Z</time>
      </trkpt>
      <trkpt lat="45.08442" lon="0.63328">
        <ele>146.2</ele>
        <time>2025-05-25T08:50:41Z</time>
      </trkpt>
      <trkpt lat="45.08446" lon="0.63325">
        <ele>146.6</ele>
        <time>2025-05-25T08:50:42Z</time>
      </trkpt>
      <trkpt lat="45.08449" lon="0.63323">
        <ele>146.8</ele>
        <time>2025-05-25T08:50:43Z</time>
      </trkpt>
      <trkpt lat="45.08453" lon="0.6332">
        <ele>147</ele>
        <time>2025-05-25T08:50:44Z</time>
      </trkpt>
      <trkpt lat="45.08456" lon="0.63318">
        <ele>147.6</ele>
        <time>2025-05-25T08:50:45Z</time>
      </trkpt>
      <trkpt lat="45.08459" lon="0.63316">
        <ele>148</ele>
        <time>2025-05-25T08:50:46Z</time>
      </trkpt>
      <trkpt lat="45.08462" lon="0.63315">
        <ele>148.2</ele>
        <time>2025-05-25T08:50:47Z</time>
      </trkpt>
      <trkpt lat="45.08466" lon="0.63313">
        <ele>148.6</ele>
        <time>2025-05-25T08:50:48Z</time>
      </trkpt>
      <trkpt lat="45.0847" lon="0.63311">
        <ele>148.8</ele>
        <time>2025-05-25T08:50:49Z</time>
      </trkpt>
      <trkpt lat="45.08476" lon="0.6331">
        <ele>148.6</ele>
        <time>2025-05-25T08:50:50Z</time>
      </trkpt>
      <trkpt lat="45.08483" lon="0.63309">
        <ele>148</ele>
        <time>2025-05-25T08:50:51Z</time>
      </trkpt>
      <trkpt lat="45.0849" lon="0.63308">
        <ele>147.4</ele>
        <time>2025-05-25T08:50:52Z</time>
      </trkpt>
      <trkpt lat="45.08497" lon="0.63306">
        <ele>146.2</ele>
        <time>2025-05-25T08:50:53Z</time>
      </trkpt>
      <trkpt lat="45.08505" lon="0.63305">
        <ele>145.2</ele>
        <time>2025-05-25T08:50:54Z</time>
      </trkpt>
      <trkpt lat="45.08514" lon="0.63304">
        <ele>144</ele>
        <time>2025-05-25T08:50:55Z</time>
      </trkpt>
      <trkpt lat="45.08522" lon="0.63303">
        <ele>142.8</ele>
        <time>2025-05-25T08:50:56Z</time>
      </trkpt>
      <trkpt lat="45.08531" lon="0.63302">
        <ele>141.8</ele>
        <time>2025-05-25T08:50:57Z</time>
      </trkpt>
      <trkpt lat="45.0854" lon="0.63301">
        <ele>140.4</ele>
        <time>2025-05-25T08:50:58Z</time>
      </trkpt>
      <trkpt lat="45.08549" lon="0.633">
        <ele>139</ele>
        <time>2025-05-25T08:50:59Z</time>
      </trkpt>
      <trkpt lat="45.08558" lon="0.63299">
        <ele>137.8</ele>
        <time>2025-05-25T08:51:00Z</time>
      </trkpt>
      <trkpt lat="45.08568" lon="0.63298">
        <ele>136.6</ele>
        <time>2025-05-25T08:51:01Z</time>
      </trkpt>
      <trkpt lat="45.08577" lon="0.63297">
        <ele>135.4</ele>
        <time>2025-05-25T08:51:02Z</time>
      </trkpt>
      <trkpt lat="45.08587" lon="0.63296">
        <ele>134.4</ele>
        <time>2025-05-25T08:51:03Z</time>
      </trkpt>
      <trkpt lat="45.08597" lon="0.63296">
        <ele>133.4</ele>
        <time>2025-05-25T08:51:04Z</time>
      </trkpt>
      <trkpt lat="45.08606" lon="0.63295">
        <ele>132.2</ele>
        <time>2025-05-25T08:51:05Z</time>
      </trkpt>
      <trkpt lat="45.08614" lon="0.63295">
        <ele>131.4</ele>
        <time>2025-05-25T08:51:06Z</time>
      </trkpt>
      <trkpt lat="45.08623" lon="0.63295">
        <ele>130.4</ele>
        <time>2025-05-25T08:51:07Z</time>
      </trkpt>
      <trkpt lat="45.08631" lon="0.63295">
        <ele>129.6</ele>
        <time>2025-05-25T08:51:08Z</time>
      </trkpt>
      <trkpt lat="45.08639" lon="0.63296">
        <ele>128.8</ele>
        <time>2025-05-25T08:51:09Z</time>
      </trkpt>
      <trkpt lat="45.08646" lon="0.63297">
        <ele>127.8</ele>
        <time>2025-05-25T08:51:10Z</time>
      </trkpt>
      <trkpt lat="45.08654" lon="0.63298">
        <ele>127.2</ele>
        <time>2025-05-25T08:51:11Z</time>
      </trkpt>
      <trkpt lat="45.08663" lon="0.633">
        <ele>126.4</ele>
        <time>2025-05-25T08:51:12Z</time>
      </trkpt>
      <trkpt lat="45.08671" lon="0.63302">
        <ele>125.4</ele>
        <time>2025-05-25T08:51:13Z</time>
      </trkpt>
      <trkpt lat="45.08679" lon="0.63305">
        <ele>124.4</ele>
        <time>2025-05-25T08:51:14Z</time>
      </trkpt>
      <trkpt lat="45.08687" lon="0.63307">
        <ele>123.4</ele>
        <time>2025-05-25T08:51:15Z</time>
      </trkpt>
      <trkpt lat="45.08695" lon="0.6331">
        <ele>122.6</ele>
        <time>2025-05-25T08:51:16Z</time>
      </trkpt>
      <trkpt lat="45.08703" lon="0.63313">
        <ele>121.8</ele>
        <time>2025-05-25T08:51:17Z</time>
      </trkpt>
      <trkpt lat="45.0871" lon="0.63316">
        <ele>121.2</ele>
        <time>2025-05-25T08:51:18Z</time>
      </trkpt>
      <trkpt lat="45.08716" lon="0.63319">
        <ele>120.6</ele>
        <time>2025-05-25T08:51:19Z</time>
      </trkpt>
      <trkpt lat="45.0872" lon="0.63321">
        <ele>120</ele>
        <time>2025-05-25T08:51:20Z</time>
      </trkpt>
      <trkpt lat="45.08723" lon="0.63323">
        <ele>119.8</ele>
        <time>2025-05-25T08:51:21Z</time>
      </trkpt>
      <trkpt lat="45.08725" lon="0.63324">
        <ele>119.4</ele>
        <time>2025-05-25T08:51:22Z</time>
      </trkpt>
      <trkpt lat="45.08727" lon="0.63325">
        <ele>119.2</ele>
        <time>2025-05-25T08:51:23Z</time>
      </trkpt>
      <trkpt lat="45.08729" lon="0.63324">
        <ele>119</ele>
        <time>2025-05-25T08:51:24Z</time>
      </trkpt>
      <trkpt lat="45.08731" lon="0.63321">
        <ele>118.8</ele>
        <time>2025-05-25T08:51:25Z</time>
      </trkpt>
      <trkpt lat="45.08733" lon="0.63317">
        <ele>118.6</ele>
        <time>2025-05-25T08:51:26Z</time>
      </trkpt>
      <trkpt lat="45.08733" lon="0.63313">
        <ele>118.6</ele>
        <time>2025-05-25T08:51:27Z</time>
      </trkpt>
      <trkpt lat="45.08733" lon="0.63309">
        <ele>118.4</ele>
        <time>2025-05-25T08:51:28Z</time>
      </trkpt>
      <trkpt lat="45.08733" lon="0.63304">
        <ele>118.4</ele>
        <time>2025-05-25T08:51:29Z</time>
      </trkpt>
      <trkpt lat="45.08733" lon="0.633">
        <ele>118.4</ele>
        <time>2025-05-25T08:51:30Z</time>
      </trkpt>
      <trkpt lat="45.08733" lon="0.63295">
        <ele>118.4</ele>
        <time>2025-05-25T08:51:31Z</time>
      </trkpt>
      <trkpt lat="45.08733" lon="0.6329">
        <ele>118.4</ele>
        <time>2025-05-25T08:51:32Z</time>
      </trkpt>
      <trkpt lat="45.08733" lon="0.63285">
        <ele>118.6</ele>
        <time>2025-05-25T08:51:33Z</time>
      </trkpt>
      <trkpt lat="45.08733" lon="0.6328">
        <ele>118.6</ele>
        <time>2025-05-25T08:51:34Z</time>
      </trkpt>
      <trkpt lat="45.08733" lon="0.63275">
        <ele>118.4</ele>
        <time>2025-05-25T08:51:35Z</time>
      </trkpt>
      <trkpt lat="45.08733" lon="0.6327">
        <ele>118.4</ele>
        <time>2025-05-25T08:51:36Z</time>
      </trkpt>
      <trkpt lat="45.08733" lon="0.63265">
        <ele>118.4</ele>
        <time>2025-05-25T08:51:37Z</time>
      </trkpt>
      <trkpt lat="45.08732" lon="0.6326">
        <ele>118.4</ele>
        <time>2025-05-25T08:51:38Z</time>
      </trkpt>
      <trkpt lat="45.08731" lon="0.63254">
        <ele>118.4</ele>
        <time>2025-05-25T08:51:39Z</time>
      </trkpt>
      <trkpt lat="45.08731" lon="0.63249">
        <ele>118.4</ele>
        <time>2025-05-25T08:51:40Z</time>
      </trkpt>
      <trkpt lat="45.08731" lon="0.63243">
        <ele>118.6</ele>
        <time>2025-05-25T08:51:41Z</time>
      </trkpt>
      <trkpt lat="45.0873" lon="0.63236">
        <ele>118.6</ele>
        <time>2025-05-25T08:51:42Z</time>
      </trkpt>
      <trkpt lat="45.08729" lon="0.6323">
        <ele>118.6</ele>
        <time>2025-05-25T08:51:43Z</time>
      </trkpt>
      <trkpt lat="45.08729" lon="0.63225">
        <ele>118.6</ele>
        <time>2025-05-25T08:51:44Z</time>
      </trkpt>
      <trkpt lat="45.08728" lon="0.63219">
        <ele>118.6</ele>
        <time>2025-05-25T08:51:45Z</time>
      </trkpt>
      <trkpt lat="45.08727" lon="0.63214">
        <ele>118.6</ele>
        <time>2025-05-25T08:51:46Z</time>
      </trkpt>
      <trkpt lat="45.08726" lon="0.63207">
        <ele>118.8</ele>
        <time>2025-05-25T08:51:47Z</time>
      </trkpt>
      <trkpt lat="45.08726" lon="0.63201">
        <ele>118.8</ele>
        <time>2025-05-25T08:51:48Z</time>
      </trkpt>
      <trkpt lat="45.08724" lon="0.63195">
        <ele>118.8</ele>
        <time>2025-05-25T08:51:49Z</time>
      </trkpt>
      <trkpt lat="45.08723" lon="0.63189">
        <ele>119</ele>
        <time>2025-05-25T08:51:50Z</time>
      </trkpt>
      <trkpt lat="45.08722" lon="0.63183">
        <ele>119</ele>
        <time>2025-05-25T08:51:51Z</time>
      </trkpt>
      <trkpt lat="45.08721" lon="0.63178">
        <ele>119</ele>
        <time>2025-05-25T08:51:52Z</time>
      </trkpt>
      <trkpt lat="45.0872" lon="0.63172">
        <ele>119.2</ele>
        <time>2025-05-25T08:51:53Z</time>
      </trkpt>
      <trkpt lat="45.08719" lon="0.63166">
        <ele>119.2</ele>
        <time>2025-05-25T08:51:54Z</time>
      </trkpt>
      <trkpt lat="45.08718" lon="0.63161">
        <ele>119.2</ele>
        <time>2025-05-25T08:51:55Z</time>
      </trkpt>
      <trkpt lat="45.08717" lon="0.63155">
        <ele>119.4</ele>
        <time>2025-05-25T08:51:56Z</time>
      </trkpt>
      <trkpt lat="45.08716" lon="0.6315">
        <ele>119.6</ele>
        <time>2025-05-25T08:51:57Z</time>
      </trkpt>
      <trkpt lat="45.08715" lon="0.63145">
        <ele>119.8</ele>
        <time>2025-05-25T08:51:58Z</time>
      </trkpt>
      <trkpt lat="45.08714" lon="0.63139">
        <ele>120</ele>
        <time>2025-05-25T08:51:59Z</time>
      </trkpt>
      <trkpt lat="45.08713" lon="0.63134">
        <ele>120.4</ele>
        <time>2025-05-25T08:52:00Z</time>
      </trkpt>
      <trkpt lat="45.08712" lon="0.6313">
        <ele>121</ele>
        <time>2025-05-25T08:52:01Z</time>
      </trkpt>
      <trkpt lat="45.08711" lon="0.63125">
        <ele>121.4</ele>
        <time>2025-05-25T08:52:02Z</time>
      </trkpt>
      <trkpt lat="45.0871" lon="0.63119">
        <ele>121.6</ele>
        <time>2025-05-25T08:52:03Z</time>
      </trkpt>
      <trkpt lat="45.08709" lon="0.63114">
        <ele>121.8</ele>
        <time>2025-05-25T08:52:04Z</time>
      </trkpt>
      <trkpt lat="45.08708" lon="0.63109">
        <ele>122</ele>
        <time>2025-05-25T08:52:05Z</time>
      </trkpt>
      <trkpt lat="45.08707" lon="0.63104">
        <ele>122.2</ele>
        <time>2025-05-25T08:52:06Z</time>
      </trkpt>
      <trkpt lat="45.08706" lon="0.63099">
        <ele>122.2</ele>
        <time>2025-05-25T08:52:07Z</time>
      </trkpt>
      <trkpt lat="45.08705" lon="0.63093">
        <ele>122.2</ele>
        <time>2025-05-25T08:52:08Z</time>
      </trkpt>
      <trkpt lat="45.08705" lon="0.63089">
        <ele>122.4</ele>
        <time>2025-05-25T08:52:09Z</time>
      </trkpt>
      <trkpt lat="45.08704" lon="0.63085">
        <ele>122.6</ele>
        <time>2025-05-25T08:52:10Z</time>
      </trkpt>
      <trkpt lat="45.08703" lon="0.63081">
        <ele>122.6</ele>
        <time>2025-05-25T08:52:11Z</time>
      </trkpt>
      <trkpt lat="45.08702" lon="0.63076">
        <ele>123</ele>
        <time>2025-05-25T08:52:12Z</time>
      </trkpt>
      <trkpt lat="45.08701" lon="0.63072">
        <ele>123</ele>
        <time>2025-05-25T08:52:13Z</time>
      </trkpt>
      <trkpt lat="45.087" lon="0.63067">
        <ele>123.2</ele>
        <time>2025-05-25T08:52:14Z</time>
      </trkpt>
      <trkpt lat="45.08699" lon="0.63063">
        <ele>123.4</ele>
        <time>2025-05-25T08:52:15Z</time>
      </trkpt>
      <trkpt lat="45.08698" lon="0.63058">
        <ele>123.4</ele>
        <time>2025-05-25T08:52:16Z</time>
      </trkpt>
      <trkpt lat="45.08696" lon="0.63054">
        <ele>123.6</ele>
        <time>2025-05-25T08:52:17Z</time>
      </trkpt>
      <trkpt lat="45.08695" lon="0.63049">
        <ele>123.6</ele>
        <time>2025-05-25T08:52:18Z</time>
      </trkpt>
      <trkpt lat="45.08694" lon="0.63044">
        <ele>123.8</ele>
        <time>2025-05-25T08:52:19Z</time>
      </trkpt>
      <trkpt lat="45.08693" lon="0.6304">
        <ele>123.8</ele>
        <time>2025-05-25T08:52:20Z</time>
      </trkpt>
      <trkpt lat="45.08692" lon="0.63035">
        <ele>124</ele>
        <time>2025-05-25T08:52:21Z</time>
      </trkpt>
      <trkpt lat="45.08691" lon="0.6303">
        <ele>124</ele>
        <time>2025-05-25T08:52:22Z</time>
      </trkpt>
      <trkpt lat="45.08689" lon="0.63026">
        <ele>124</ele>
        <time>2025-05-25T08:52:23Z</time>
      </trkpt>
      <trkpt lat="45.08688" lon="0.63021">
        <ele>124</ele>
        <time>2025-05-25T08:52:24Z</time>
      </trkpt>
      <trkpt lat="45.08687" lon="0.63016">
        <ele>124.2</ele>
        <time>2025-05-25T08:52:25Z</time>
      </trkpt>
      <trkpt lat="45.08686" lon="0.63011">
        <ele>124.2</ele>
        <time>2025-05-25T08:52:26Z</time>
      </trkpt>
      <trkpt lat="45.08685" lon="0.63006">
        <ele>124.2</ele>
        <time>2025-05-25T08:52:27Z</time>
      </trkpt>
      <trkpt lat="45.08683" lon="0.63002">
        <ele>124.4</ele>
        <time>2025-05-25T08:52:28Z</time>
      </trkpt>
      <trkpt lat="45.08681" lon="0.62997">
        <ele>124.4</ele>
        <time>2025-05-25T08:52:29Z</time>
      </trkpt>
      <trkpt lat="45.0868" lon="0.62993">
        <ele>124.6</ele>
        <time>2025-05-25T08:52:30Z</time>
      </trkpt>
      <trkpt lat="45.08678" lon="0.62989">
        <ele>124.8</ele>
        <time>2025-05-25T08:52:31Z</time>
      </trkpt>
      <trkpt lat="45.08677" lon="0.62986">
        <ele>125</ele>
        <time>2025-05-25T08:52:32Z</time>
      </trkpt>
      <trkpt lat="45.08676" lon="0.62983">
        <ele>125.2</ele>
        <time>2025-05-25T08:52:33Z</time>
      </trkpt>
      <trkpt lat="45.08674" lon="0.62979">
        <ele>125.4</ele>
        <time>2025-05-25T08:52:34Z</time>
      </trkpt>
      <trkpt lat="45.08673" lon="0.62974">
        <ele>125.6</ele>
        <time>2025-05-25T08:52:35Z</time>
      </trkpt>
      <trkpt lat="45.08672" lon="0.62969">
        <ele>125.6</ele>
        <time>2025-05-25T08:52:36Z</time>
      </trkpt>
      <trkpt lat="45.0867" lon="0.62964">
        <ele>125.4</ele>
        <time>2025-05-25T08:52:37Z</time>
      </trkpt>
      <trkpt lat="45.08668" lon="0.62958">
        <ele>125.2</ele>
        <time>2025-05-25T08:52:38Z</time>
      </trkpt>
      <trkpt lat="45.08667" lon="0.62952">
        <ele>125</ele>
        <time>2025-05-25T08:52:39Z</time>
      </trkpt>
      <trkpt lat="45.08665" lon="0.62945">
        <ele>124.6</ele>
        <time>2025-05-25T08:52:40Z</time>
      </trkpt>
      <trkpt lat="45.08664" lon="0.62938">
        <ele>124</ele>
        <time>2025-05-25T08:52:41Z</time>
      </trkpt>
      <trkpt lat="45.08663" lon="0.62931">
        <ele>123.6</ele>
        <time>2025-05-25T08:52:42Z</time>
      </trkpt>
      <trkpt lat="45.08662" lon="0.62923">
        <ele>123.2</ele>
        <time>2025-05-25T08:52:43Z</time>
      </trkpt>
      <trkpt lat="45.0866" lon="0.62914">
        <ele>122.6</ele>
        <time>2025-05-25T08:52:44Z</time>
      </trkpt>
      <trkpt lat="45.08659" lon="0.62906">
        <ele>122.2</ele>
        <time>2025-05-25T08:52:45Z</time>
      </trkpt>
      <trkpt lat="45.08658" lon="0.62898">
        <ele>121.8</ele>
        <time>2025-05-25T08:52:46Z</time>
      </trkpt>
      <trkpt lat="45.08656" lon="0.6289">
        <ele>121.6</ele>
        <time>2025-05-25T08:52:47Z</time>
      </trkpt>
      <trkpt lat="45.08655" lon="0.62882">
        <ele>121.2</ele>
        <time>2025-05-25T08:52:48Z</time>
      </trkpt>
      <trkpt lat="45.08654" lon="0.62875">
        <ele>120.8</ele>
        <time>2025-05-25T08:52:49Z</time>
      </trkpt>
      <trkpt lat="45.08653" lon="0.62867">
        <ele>120.6</ele>
        <time>2025-05-25T08:52:50Z</time>
      </trkpt>
      <trkpt lat="45.08651" lon="0.6286">
        <ele>120.4</ele>
        <time>2025-05-25T08:52:51Z</time>
      </trkpt>
      <trkpt lat="45.0865" lon="0.62853">
        <ele>120.4</ele>
        <time>2025-05-25T08:52:52Z</time>
      </trkpt>
      <trkpt lat="45.08648" lon="0.62847">
        <ele>120.2</ele>
        <time>2025-05-25T08:52:53Z</time>
      </trkpt>
      <trkpt lat="45.08646" lon="0.62841">
        <ele>120.2</ele>
        <time>2025-05-25T08:52:54Z</time>
      </trkpt>
      <trkpt lat="45.08644" lon="0.62835">
        <ele>120.2</ele>
        <time>2025-05-25T08:52:55Z</time>
      </trkpt>
      <trkpt lat="45.08642" lon="0.62829">
        <ele>120.2</ele>
        <time>2025-05-25T08:52:56Z</time>
      </trkpt>
      <trkpt lat="45.0864" lon="0.62824">
        <ele>120.4</ele>
        <time>2025-05-25T08:52:57Z</time>
      </trkpt>
      <trkpt lat="45.08638" lon="0.62819">
        <ele>120.6</ele>
        <time>2025-05-25T08:52:58Z</time>
      </trkpt>
      <trkpt lat="45.08635" lon="0.62814">
        <ele>120.6</ele>
        <time>2025-05-25T08:52:59Z</time>
      </trkpt>
      <trkpt lat="45.08633" lon="0.62809">
        <ele>120.8</ele>
        <time>2025-05-25T08:53:00Z</time>
      </trkpt>
      <trkpt lat="45.08631" lon="0.62804">
        <ele>120.8</ele>
        <time>2025-05-25T08:53:01Z</time>
      </trkpt>
      <trkpt lat="45.08628" lon="0.628">
        <ele>121</ele>
        <time>2025-05-25T08:53:02Z</time>
      </trkpt>
      <trkpt lat="45.08626" lon="0.62796">
        <ele>121.2</ele>
        <time>2025-05-25T08:53:03Z</time>
      </trkpt>
      <trkpt lat="45.08624" lon="0.62791">
        <ele>121.4</ele>
        <time>2025-05-25T08:53:04Z</time>
      </trkpt>
      <trkpt lat="45.08622" lon="0.62787">
        <ele>121.6</ele>
        <time>2025-05-25T08:53:05Z</time>
      </trkpt>
      <trkpt lat="45.0862" lon="0.62782">
        <ele>121.8</ele>
        <time>2025-05-25T08:53:06Z</time>
      </trkpt>
      <trkpt lat="45.08618" lon="0.62777">
        <ele>121.8</ele>
        <time>2025-05-25T08:53:07Z</time>
      </trkpt>
      <trkpt lat="45.08616" lon="0.62773">
        <ele>121.8</ele>
        <time>2025-05-25T08:53:08Z</time>
      </trkpt>
      <trkpt lat="45.08614" lon="0.62769">
        <ele>121.8</ele>
        <time>2025-05-25T08:53:09Z</time>
      </trkpt>
      <trkpt lat="45.08613" lon="0.62765">
        <ele>122</ele>
        <time>2025-05-25T08:53:10Z</time>
      </trkpt>
      <trkpt lat="45.08611" lon="0.62761">
        <ele>122</ele>
        <time>2025-05-25T08:53:11Z</time>
      </trkpt>
      <trkpt lat="45.08609" lon="0.62757">
        <ele>122</ele>
        <time>2025-05-25T08:53:12Z</time>
      </trkpt>
      <trkpt lat="45.08608" lon="0.62753">
        <ele>122.2</ele>
        <time>2025-05-25T08:53:13Z</time>
      </trkpt>
      <trkpt lat="45.08606" lon="0.62749">
        <ele>122.4</ele>
        <time>2025-05-25T08:53:14Z</time>
      </trkpt>
      <trkpt lat="45.08604" lon="0.62744">
        <ele>122.6</ele>
        <time>2025-05-25T08:53:15Z</time>
      </trkpt>
      <trkpt lat="45.08602" lon="0.6274">
        <ele>122.6</ele>
        <time>2025-05-25T08:53:16Z</time>
      </trkpt>
      <trkpt lat="45.086" lon="0.62736">
        <ele>122.6</ele>
        <time>2025-05-25T08:53:17Z</time>
      </trkpt>
      <trkpt lat="45.08598" lon="0.62732">
        <ele>122.6</ele>
        <time>2025-05-25T08:53:18Z</time>
      </trkpt>
      <trkpt lat="45.08596" lon="0.62728">
        <ele>122.6</ele>
        <time>2025-05-25T08:53:19Z</time>
      </trkpt>
      <trkpt lat="45.08594" lon="0.62724">
        <ele>122.6</ele>
        <time>2025-05-25T08:53:20Z</time>
      </trkpt>
      <trkpt lat="45.08592" lon="0.6272">
        <ele>122.6</ele>
        <time>2025-05-25T08:53:21Z</time>
      </trkpt>
      <trkpt lat="45.0859" lon="0.62716">
        <ele>122.6</ele>
        <time>2025-05-25T08:53:22Z</time>
      </trkpt>
      <trkpt lat="45.08588" lon="0.62713">
        <ele>122.6</ele>
        <time>2025-05-25T08:53:23Z</time>
      </trkpt>
      <trkpt lat="45.08585" lon="0.62709">
        <ele>122.4</ele>
        <time>2025-05-25T08:53:24Z</time>
      </trkpt>
      <trkpt lat="45.08583" lon="0.62706">
        <ele>122.4</ele>
        <time>2025-05-25T08:53:25Z</time>
      </trkpt>
      <trkpt lat="45.08581" lon="0.62702">
        <ele>122.4</ele>
        <time>2025-05-25T08:53:26Z</time>
      </trkpt>
      <trkpt lat="45.08578" lon="0.62699">
        <ele>122.4</ele>
        <time>2025-05-25T08:53:27Z</time>
      </trkpt>
      <trkpt lat="45.08575" lon="0.62696">
        <ele>122.4</ele>
        <time>2025-05-25T08:53:28Z</time>
      </trkpt>
      <trkpt lat="45.08572" lon="0.62692">
        <ele>122.2</ele>
        <time>2025-05-25T08:53:29Z</time>
      </trkpt>
      <trkpt lat="45.08569" lon="0.62688">
        <ele>122.2</ele>
        <time>2025-05-25T08:53:30Z</time>
      </trkpt>
      <trkpt lat="45.08566" lon="0.62684">
        <ele>122</ele>
        <time>2025-05-25T08:53:31Z</time>
      </trkpt>
      <trkpt lat="45.08563" lon="0.6268">
        <ele>121.6</ele>
        <time>2025-05-25T08:53:32Z</time>
      </trkpt>
      <trkpt lat="45.08559" lon="0.62677">
        <ele>121.4</ele>
        <time>2025-05-25T08:53:33Z</time>
      </trkpt>
      <trkpt lat="45.08556" lon="0.62673">
        <ele>121.2</ele>
        <time>2025-05-25T08:53:34Z</time>
      </trkpt>
      <trkpt lat="45.08553" lon="0.6267">
        <ele>121</ele>
        <time>2025-05-25T08:53:35Z</time>
      </trkpt>
      <trkpt lat="45.0855" lon="0.62666">
        <ele>121</ele>
        <time>2025-05-25T08:53:36Z</time>
      </trkpt>
      <trkpt lat="45.08548" lon="0.62663">
        <ele>121.2</ele>
        <time>2025-05-25T08:53:37Z</time>
      </trkpt>
      <trkpt lat="45.08545" lon="0.6266">
        <ele>121.2</ele>
        <time>2025-05-25T08:53:38Z</time>
      </trkpt>
      <trkpt lat="45.08542" lon="0.62657">
        <ele>121.2</ele>
        <time>2025-05-25T08:53:39Z</time>
      </trkpt>
      <trkpt lat="45.0854" lon="0.62654">
        <ele>121.4</ele>
        <time>2025-05-25T08:53:40Z</time>
      </trkpt>
      <trkpt lat="45.08537" lon="0.62651">
        <ele>121.6</ele>
        <time>2025-05-25T08:53:41Z</time>
      </trkpt>
      <trkpt lat="45.08534" lon="0.62648">
        <ele>121.6</ele>
        <time>2025-05-25T08:53:42Z</time>
      </trkpt>
      <trkpt lat="45.08532" lon="0.62644">
        <ele>121.8</ele>
        <time>2025-05-25T08:53:43Z</time>
      </trkpt>
      <trkpt lat="45.0853" lon="0.62641">
        <ele>121.8</ele>
        <time>2025-05-25T08:53:44Z</time>
      </trkpt>
      <trkpt lat="45.08528" lon="0.62638">
        <ele>122</ele>
        <time>2025-05-25T08:53:45Z</time>
      </trkpt>
      <trkpt lat="45.08526" lon="0.62635">
        <ele>122.2</ele>
        <time>2025-05-25T08:53:46Z</time>
      </trkpt>
      <trkpt lat="45.08524" lon="0.62633">
        <ele>122.4</ele>
        <time>2025-05-25T08:53:47Z</time>
      </trkpt>
      <trkpt lat="45.08523" lon="0.6263">
        <ele>122.6</ele>
        <time>2025-05-25T08:53:48Z</time>
      </trkpt>
      <trkpt lat="45.08522" lon="0.62627">
        <ele>123</ele>
        <time>2025-05-25T08:53:49Z</time>
      </trkpt>
      <trkpt lat="45.0852" lon="0.62625">
        <ele>123.2</ele>
        <time>2025-05-25T08:53:50Z</time>
      </trkpt>
      <trkpt lat="45.08519" lon="0.62623">
        <ele>123.6</ele>
        <time>2025-05-25T08:53:51Z</time>
      </trkpt>
      <trkpt lat="45.08518" lon="0.6262">
        <ele>123.8</ele>
        <time>2025-05-25T08:53:52Z</time>
      </trkpt>
      <trkpt lat="45.08517" lon="0.62618">
        <ele>124</ele>
        <time>2025-05-25T08:53:53Z</time>
      </trkpt>
      <trkpt lat="45.08516" lon="0.62616">
        <ele>124.4</ele>
        <time>2025-05-25T08:53:54Z</time>
      </trkpt>
      <trkpt lat="45.08514" lon="0.62614">
        <ele>124.6</ele>
        <time>2025-05-25T08:53:55Z</time>
      </trkpt>
      <trkpt lat="45.08513" lon="0.62612">
        <ele>125</ele>
        <time>2025-05-25T08:53:56Z</time>
      </trkpt>
      <trkpt lat="45.08512" lon="0.6261">
        <ele>125.2</ele>
        <time>2025-05-25T08:53:57Z</time>
      </trkpt>
      <trkpt lat="45.08511" lon="0.62608">
        <ele>125.4</ele>
        <time>2025-05-25T08:53:58Z</time>
      </trkpt>
      <trkpt lat="45.0851" lon="0.62606">
        <ele>125.6</ele>
        <time>2025-05-25T08:53:59Z</time>
      </trkpt>
      <trkpt lat="45.08509" lon="0.62604">
        <ele>125.8</ele>
        <time>2025-05-25T08:54:00Z</time>
      </trkpt>
      <trkpt lat="45.08508" lon="0.62602">
        <ele>126</ele>
        <time>2025-05-25T08:54:01Z</time>
      </trkpt>
      <trkpt lat="45.08507" lon="0.626">
        <ele>126.2</ele>
        <time>2025-05-25T08:54:02Z</time>
      </trkpt>
      <trkpt lat="45.08505" lon="0.62598">
        <ele>126.4</ele>
        <time>2025-05-25T08:54:03Z</time>
      </trkpt>
      <trkpt lat="45.08504" lon="0.62596">
        <ele>126.6</ele>
        <time>2025-05-25T08:54:04Z</time>
      </trkpt>
      <trkpt lat="45.08503" lon="0.62595">
        <ele>126.8</ele>
        <time>2025-05-25T08:54:05Z</time>
      </trkpt>
      <trkpt lat="45.08502" lon="0.62593">
        <ele>127</ele>
        <time>2025-05-25T08:54:06Z</time>
      </trkpt>
      <trkpt lat="45.085" lon="0.62591">
        <ele>127.2</ele>
        <time>2025-05-25T08:54:07Z</time>
      </trkpt>
      <trkpt lat="45.08499" lon="0.62589">
        <ele>127.4</ele>
        <time>2025-05-25T08:54:08Z</time>
      </trkpt>
      <trkpt lat="45.08497" lon="0.62588">
        <ele>127.6</ele>
        <time>2025-05-25T08:54:09Z</time>
      </trkpt>
      <trkpt lat="45.08496" lon="0.62587">
        <ele>127.8</ele>
        <time>2025-05-25T08:54:10Z</time>
      </trkpt>
      <trkpt lat="45.08494" lon="0.62586">
        <ele>128</ele>
        <time>2025-05-25T08:54:11Z</time>
      </trkpt>
      <trkpt lat="45.08493" lon="0.62585">
        <ele>128.2</ele>
        <time>2025-05-25T08:54:12Z</time>
      </trkpt>
      <trkpt lat="45.08492" lon="0.62584">
        <ele>128.4</ele>
        <time>2025-05-25T08:54:13Z</time>
      </trkpt>
      <trkpt lat="45.0849" lon="0.62583">
        <ele>128.6</ele>
        <time>2025-05-25T08:54:14Z</time>
      </trkpt>
      <trkpt lat="45.08489" lon="0.62582">
        <ele>128.8</ele>
        <time>2025-05-25T08:54:15Z</time>
      </trkpt>
      <trkpt lat="45.08488" lon="0.62581">
        <ele>129</ele>
        <time>2025-05-25T08:54:16Z</time>
      </trkpt>
      <trkpt lat="45.08486" lon="0.62581">
        <ele>129.2</ele>
        <time>2025-05-25T08:54:17Z</time>
      </trkpt>
      <trkpt lat="45.08485" lon="0.6258">
        <ele>129.2</ele>
        <time>2025-05-25T08:54:18Z</time>
      </trkpt>
      <trkpt lat="45.08484" lon="0.62579">
        <ele>129.4</ele>
        <time>2025-05-25T08:54:19Z</time>
      </trkpt>
      <trkpt lat="45.08483" lon="0.62578">
        <ele>129.6</ele>
        <time>2025-05-25T08:54:20Z</time>
      </trkpt>
      <trkpt lat="45.08482" lon="0.62577">
        <ele>129.8</ele>
        <time>2025-05-25T08:54:21Z</time>
      </trkpt>
      <trkpt lat="45.08481" lon="0.62576">
        <ele>130</ele>
        <time>2025-05-25T08:54:22Z</time>
      </trkpt>
      <trkpt lat="45.08479" lon="0.62576">
        <ele>130.2</ele>
        <time>2025-05-25T08:54:23Z</time>
      </trkpt>
      <trkpt lat="45.08478" lon="0.62575">
        <ele>130.4</ele>
        <time>2025-05-25T08:54:24Z</time>
      </trkpt>
      <trkpt lat="45.08476" lon="0.62575">
        <ele>130.6</ele>
        <time>2025-05-25T08:54:25Z</time>
      </trkpt>
      <trkpt lat="45.08475" lon="0.62574">
        <ele>130.8</ele>
        <time>2025-05-25T08:54:26Z</time>
      </trkpt>
      <trkpt lat="45.08474" lon="0.62574">
        <ele>131</ele>
        <time>2025-05-25T08:54:27Z</time>
      </trkpt>
      <trkpt lat="45.08473" lon="0.62574">
        <ele>131.2</ele>
        <time>2025-05-25T08:54:28Z</time>
      </trkpt>
      <trkpt lat="45.08471" lon="0.62574">
        <ele>131.6</ele>
        <time>2025-05-25T08:54:29Z</time>
      </trkpt>
      <trkpt lat="45.0847" lon="0.62574">
        <ele>131.8</ele>
        <time>2025-05-25T08:54:30Z</time>
      </trkpt>
      <trkpt lat="45.08469" lon="0.62574">
        <ele>132</ele>
        <time>2025-05-25T08:54:31Z</time>
      </trkpt>
      <trkpt lat="45.08468" lon="0.62574">
        <ele>132.2</ele>
        <time>2025-05-25T08:54:32Z</time>
      </trkpt>
      <trkpt lat="45.08466" lon="0.62573">
        <ele>132.6</ele>
        <time>2025-05-25T08:54:33Z</time>
      </trkpt>
      <trkpt lat="45.08466" lon="0.62573">
        <ele>132.8</ele>
        <time>2025-05-25T08:54:34Z</time>
      </trkpt>
      <trkpt lat="45.08465" lon="0.62572">
        <ele>133</ele>
        <time>2025-05-25T08:54:35Z</time>
      </trkpt>
      <trkpt lat="45.08464" lon="0.62571">
        <ele>133.4</ele>
        <time>2025-05-25T08:54:36Z</time>
      </trkpt>
      <trkpt lat="45.08463" lon="0.62571">
        <ele>133.6</ele>
        <time>2025-05-25T08:54:37Z</time>
      </trkpt>
      <trkpt lat="45.08462" lon="0.6257">
        <ele>133.8</ele>
        <time>2025-05-25T08:54:38Z</time>
      </trkpt>
      <trkpt lat="45.08461" lon="0.62568">
        <ele>134</ele>
        <time>2025-05-25T08:54:39Z</time>
      </trkpt>
      <trkpt lat="45.0846" lon="0.62566">
        <ele>134.2</ele>
        <time>2025-05-25T08:54:40Z</time>
      </trkpt>
      <trkpt lat="45.08459" lon="0.62565">
        <ele>134.4</ele>
        <time>2025-05-25T08:54:41Z</time>
      </trkpt>
      <trkpt lat="45.08458" lon="0.62563">
        <ele>134.6</ele>
        <time>2025-05-25T08:54:42Z</time>
      </trkpt>
      <trkpt lat="45.08457" lon="0.62561">
        <ele>134.8</ele>
        <time>2025-05-25T08:54:43Z</time>
      </trkpt>
      <trkpt lat="45.08456" lon="0.62559">
        <ele>135</ele>
        <time>2025-05-25T08:54:44Z</time>
      </trkpt>
      <trkpt lat="45.08455" lon="0.62557">
        <ele>135.2</ele>
        <time>2025-05-25T08:54:45Z</time>
      </trkpt>
      <trkpt lat="45.08455" lon="0.62555">
        <ele>135.4</ele>
        <time>2025-05-25T08:54:46Z</time>
      </trkpt>
      <trkpt lat="45.08454" lon="0.62553">
        <ele>135.6</ele>
        <time>2025-05-25T08:54:47Z</time>
      </trkpt>
      <trkpt lat="45.08454" lon="0.62551">
        <ele>135.6</ele>
        <time>2025-05-25T08:54:48Z</time>
      </trkpt>
      <trkpt lat="45.08454" lon="0.62549">
        <ele>135.8</ele>
        <time>2025-05-25T08:54:49Z</time>
      </trkpt>
      <trkpt lat="45.08454" lon="0.62547">
        <ele>136</ele>
        <time>2025-05-25T08:54:50Z</time>
      </trkpt>
      <trkpt lat="45.08454" lon="0.62545">
        <ele>136.2</ele>
        <time>2025-05-25T08:54:51Z</time>
      </trkpt>
      <trkpt lat="45.08454" lon="0.62543">
        <ele>136.2</ele>
        <time>2025-05-25T08:54:52Z</time>
      </trkpt>
      <trkpt lat="45.08454" lon="0.6254">
        <ele>136.4</ele>
        <time>2025-05-25T08:54:53Z</time>
      </trkpt>
      <trkpt lat="45.08454" lon="0.62537">
        <ele>136.6</ele>
        <time>2025-05-25T08:54:54Z</time>
      </trkpt>
      <trkpt lat="45.08454" lon="0.62535">
        <ele>136.6</ele>
        <time>2025-05-25T08:54:55Z</time>
      </trkpt>
      <trkpt lat="45.08453" lon="0.62533">
        <ele>136.8</ele>
        <time>2025-05-25T08:54:56Z</time>
      </trkpt>
      <trkpt lat="45.08453" lon="0.6253">
        <ele>137</ele>
        <time>2025-05-25T08:54:57Z</time>
      </trkpt>
      <trkpt lat="45.08453" lon="0.62527">
        <ele>137</ele>
        <time>2025-05-25T08:54:58Z</time>
      </trkpt>
      <trkpt lat="45.08453" lon="0.62524">
        <ele>137.2</ele>
        <time>2025-05-25T08:54:59Z</time>
      </trkpt>
      <trkpt lat="45.08453" lon="0.62522">
        <ele>137.4</ele>
        <time>2025-05-25T08:55:00Z</time>
      </trkpt>
      <trkpt lat="45.08453" lon="0.6252">
        <ele>137.6</ele>
        <time>2025-05-25T08:55:01Z</time>
      </trkpt>
      <trkpt lat="45.08452" lon="0.62518">
        <ele>137.8</ele>
        <time>2025-05-25T08:55:02Z</time>
      </trkpt>
      <trkpt lat="45.08452" lon="0.62516">
        <ele>137.8</ele>
        <time>2025-05-25T08:55:03Z</time>
      </trkpt>
      <trkpt lat="45.08452" lon="0.62513">
        <ele>138</ele>
        <time>2025-05-25T08:55:04Z</time>
      </trkpt>
      <trkpt lat="45.08452" lon="0.62511">
        <ele>138.2</ele>
        <time>2025-05-25T08:55:05Z</time>
      </trkpt>
      <trkpt lat="45.08452" lon="0.62509">
        <ele>138.4</ele>
        <time>2025-05-25T08:55:06Z</time>
      </trkpt>
      <trkpt lat="45.08452" lon="0.62506">
        <ele>138.6</ele>
        <time>2025-05-25T08:55:07Z</time>
      </trkpt>
      <trkpt lat="45.08451" lon="0.62504">
        <ele>138.8</ele>
        <time>2025-05-25T08:55:08Z</time>
      </trkpt>
      <trkpt lat="45.08451" lon="0.62501">
        <ele>139</ele>
        <time>2025-05-25T08:55:09Z</time>
      </trkpt>
      <trkpt lat="45.08451" lon="0.62499">
        <ele>139.2</ele>
        <time>2025-05-25T08:55:10Z</time>
      </trkpt>
      <trkpt lat="45.08451" lon="0.62496">
        <ele>139.4</ele>
        <time>2025-05-25T08:55:11Z</time>
      </trkpt>
      <trkpt lat="45.08451" lon="0.62494">
        <ele>139.4</ele>
        <time>2025-05-25T08:55:12Z</time>
      </trkpt>
      <trkpt lat="45.08451" lon="0.62491">
        <ele>139.6</ele>
        <time>2025-05-25T08:55:13Z</time>
      </trkpt>
      <trkpt lat="45.08451" lon="0.62488">
        <ele>139.8</ele>
        <time>2025-05-25T08:55:14Z</time>
      </trkpt>
      <trkpt lat="45.08451" lon="0.62486">
        <ele>139.8</ele>
        <time>2025-05-25T08:55:15Z</time>
      </trkpt>
      <trkpt lat="45.08451" lon="0.62483">
        <ele>140</ele>
        <time>2025-05-25T08:55:16Z</time>
      </trkpt>
      <trkpt lat="45.0845" lon="0.6248">
        <ele>140.2</ele>
        <time>2025-05-25T08:55:17Z</time>
      </trkpt>
      <trkpt lat="45.0845" lon="0.62477">
        <ele>140.2</ele>
        <time>2025-05-25T08:55:18Z</time>
      </trkpt>
      <trkpt lat="45.0845" lon="0.62475">
        <ele>140.4</ele>
        <time>2025-05-25T08:55:19Z</time>
      </trkpt>
      <trkpt lat="45.08449" lon="0.62472">
        <ele>140.4</ele>
        <time>2025-05-25T08:55:20Z</time>
      </trkpt>
      <trkpt lat="45.08449" lon="0.6247">
        <ele>140.6</ele>
        <time>2025-05-25T08:55:21Z</time>
      </trkpt>
      <trkpt lat="45.08449" lon="0.62468">
        <ele>140.6</ele>
        <time>2025-05-25T08:55:22Z</time>
      </trkpt>
      <trkpt lat="45.08448" lon="0.62465">
        <ele>140.8</ele>
        <time>2025-05-25T08:55:23Z</time>
      </trkpt>
      <trkpt lat="45.08448" lon="0.62462">
        <ele>140.8</ele>
        <time>2025-05-25T08:55:24Z</time>
      </trkpt>
      <trkpt lat="45.08448" lon="0.6246">
        <ele>141</ele>
        <time>2025-05-25T08:55:25Z</time>
      </trkpt>
      <trkpt lat="45.08448" lon="0.62457">
        <ele>141</ele>
        <time>2025-05-25T08:55:26Z</time>
      </trkpt>
      <trkpt lat="45.08447" lon="0.62454">
        <ele>141</ele>
        <time>2025-05-25T08:55:27Z</time>
      </trkpt>
      <trkpt lat="45.08446" lon="0.62452">
        <ele>141.2</ele>
        <time>2025-05-25T08:55:28Z</time>
      </trkpt>
      <trkpt lat="45.08446" lon="0.62449">
        <ele>141.2</ele>
        <time>2025-05-25T08:55:29Z</time>
      </trkpt>
      <trkpt lat="45.08446" lon="0.62446">
        <ele>141.4</ele>
        <time>2025-05-25T08:55:30Z</time>
      </trkpt>
      <trkpt lat="45.08446" lon="0.62444">
        <ele>141.4</ele>
        <time>2025-05-25T08:55:31Z</time>
      </trkpt>
      <trkpt lat="45.08445" lon="0.62441">
        <ele>141.4</ele>
        <time>2025-05-25T08:55:32Z</time>
      </trkpt>
      <trkpt lat="45.08445" lon="0.62439">
        <ele>141.6</ele>
        <time>2025-05-25T08:55:33Z</time>
      </trkpt>
      <trkpt lat="45.08444" lon="0.62436">
        <ele>141.6</ele>
        <time>2025-05-25T08:55:34Z</time>
      </trkpt>
      <trkpt lat="45.08444" lon="0.62434">
        <ele>141.6</ele>
        <time>2025-05-25T08:55:35Z</time>
      </trkpt>
      <trkpt lat="45.08443" lon="0.62432">
        <ele>141.8</ele>
        <time>2025-05-25T08:55:36Z</time>
      </trkpt>
      <trkpt lat="45.08442" lon="0.62429">
        <ele>141.8</ele>
        <time>2025-05-25T08:55:37Z</time>
      </trkpt>
      <trkpt lat="45.08442" lon="0.62427">
        <ele>142</ele>
        <time>2025-05-25T08:55:38Z</time>
      </trkpt>
      <trkpt lat="45.08441" lon="0.62425">
        <ele>142.2</ele>
        <time>2025-05-25T08:55:39Z</time>
      </trkpt>
      <trkpt lat="45.0844" lon="0.62422">
        <ele>142.2</ele>
        <time>2025-05-25T08:55:40Z</time>
      </trkpt>
      <trkpt lat="45.08439" lon="0.62419">
        <ele>142.4</ele>
        <time>2025-05-25T08:55:41Z</time>
      </trkpt>
      <trkpt lat="45.08438" lon="0.62417">
        <ele>142.6</ele>
        <time>2025-05-25T08:55:42Z</time>
      </trkpt>
      <trkpt lat="45.08438" lon="0.62415">
        <ele>142.8</ele>
        <time>2025-05-25T08:55:43Z</time>
      </trkpt>
      <trkpt lat="45.08437" lon="0.62413">
        <ele>142.8</ele>
        <time>2025-05-25T08:55:44Z</time>
      </trkpt>
      <trkpt lat="45.08436" lon="0.6241">
        <ele>143</ele>
        <time>2025-05-25T08:55:45Z</time>
      </trkpt>
      <trkpt lat="45.08435" lon="0.62409">
        <ele>143.2</ele>
        <time>2025-05-25T08:55:46Z</time>
      </trkpt>
      <trkpt lat="45.08434" lon="0.62406">
        <ele>143.4</ele>
        <time>2025-05-25T08:55:47Z</time>
      </trkpt>
      <trkpt lat="45.08433" lon="0.62404">
        <ele>143.4</ele>
        <time>2025-05-25T08:55:48Z</time>
      </trkpt>
      <trkpt lat="45.08432" lon="0.62402">
        <ele>143.6</ele>
        <time>2025-05-25T08:55:49Z</time>
      </trkpt>
      <trkpt lat="45.08432" lon="0.624">
        <ele>143.8</ele>
        <time>2025-05-25T08:55:50Z</time>
      </trkpt>
      <trkpt lat="45.08431" lon="0.62398">
        <ele>144</ele>
        <time>2025-05-25T08:55:51Z</time>
      </trkpt>
      <trkpt lat="45.0843" lon="0.62396">
        <ele>144.2</ele>
        <time>2025-05-25T08:55:52Z</time>
      </trkpt>
      <trkpt lat="45.08429" lon="0.62394">
        <ele>144.4</ele>
        <time>2025-05-25T08:55:53Z</time>
      </trkpt>
      <trkpt lat="45.08428" lon="0.62391">
        <ele>144.6</ele>
        <time>2025-05-25T08:55:54Z</time>
      </trkpt>
      <trkpt lat="45.08427" lon="0.62389">
        <ele>144.8</ele>
        <time>2025-05-25T08:55:55Z</time>
      </trkpt>
      <trkpt lat="45.08426" lon="0.62387">
        <ele>145</ele>
        <time>2025-05-25T08:55:56Z</time>
      </trkpt>
      <trkpt lat="45.08425" lon="0.62384">
        <ele>145.2</ele>
        <time>2025-05-25T08:55:57Z</time>
      </trkpt>
      <trkpt lat="45.08424" lon="0.62382">
        <ele>145.4</ele>
        <time>2025-05-25T08:55:58Z</time>
      </trkpt>
      <trkpt lat="45.08423" lon="0.6238">
        <ele>145.6</ele>
        <time>2025-05-25T08:55:59Z</time>
      </trkpt>
      <trkpt lat="45.08422" lon="0.62377">
        <ele>145.6</ele>
        <time>2025-05-25T08:56:00Z</time>
      </trkpt>
      <trkpt lat="45.08421" lon="0.62375">
        <ele>145.8</ele>
        <time>2025-05-25T08:56:01Z</time>
      </trkpt>
      <trkpt lat="45.0842" lon="0.62372">
        <ele>146</ele>
        <time>2025-05-25T08:56:02Z</time>
      </trkpt>
      <trkpt lat="45.08419" lon="0.6237">
        <ele>146.2</ele>
        <time>2025-05-25T08:56:03Z</time>
      </trkpt>
      <trkpt lat="45.08418" lon="0.62367">
        <ele>146.4</ele>
        <time>2025-05-25T08:56:04Z</time>
      </trkpt>
      <trkpt lat="45.08417" lon="0.62365">
        <ele>146.6</ele>
        <time>2025-05-25T08:56:05Z</time>
      </trkpt>
      <trkpt lat="45.08416" lon="0.62363">
        <ele>146.8</ele>
        <time>2025-05-25T08:56:06Z</time>
      </trkpt>
      <trkpt lat="45.08416" lon="0.62361">
        <ele>146.8</ele>
        <time>2025-05-25T08:56:07Z</time>
      </trkpt>
      <trkpt lat="45.08415" lon="0.62358">
        <ele>147</ele>
        <time>2025-05-25T08:56:08Z</time>
      </trkpt>
      <trkpt lat="45.08414" lon="0.62356">
        <ele>147.2</ele>
        <time>2025-05-25T08:56:09Z</time>
      </trkpt>
      <trkpt lat="45.08414" lon="0.62354">
        <ele>147.4</ele>
        <time>2025-05-25T08:56:10Z</time>
      </trkpt>
      <trkpt lat="45.08413" lon="0.62352">
        <ele>147.4</ele>
        <time>2025-05-25T08:56:11Z</time>
      </trkpt>
      <trkpt lat="45.08412" lon="0.62349">
        <ele>147.6</ele>
        <time>2025-05-25T08:56:12Z</time>
      </trkpt>
      <trkpt lat="45.08411" lon="0.62347">
        <ele>147.8</ele>
        <time>2025-05-25T08:56:13Z</time>
      </trkpt>
      <trkpt lat="45.0841" lon="0.62344">
        <ele>148</ele>
        <time>2025-05-25T08:56:14Z</time>
      </trkpt>
      <trkpt lat="45.0841" lon="0.62342">
        <ele>148.2</ele>
        <time>2025-05-25T08:56:15Z</time>
      </trkpt>
      <trkpt lat="45.08409" lon="0.6234">
        <ele>148.4</ele>
        <time>2025-05-25T08:56:16Z</time>
      </trkpt>
      <trkpt lat="45.08408" lon="0.62338">
        <ele>148.6</ele>
        <time>2025-05-25T08:56:17Z</time>
      </trkpt>
      <trkpt lat="45.08407" lon="0.62336">
        <ele>148.8</ele>
        <time>2025-05-25T08:56:18Z</time>
      </trkpt>
      <trkpt lat="45.08406" lon="0.62334">
        <ele>149</ele>
        <time>2025-05-25T08:56:19Z</time>
      </trkpt>
      <trkpt lat="45.08405" lon="0.62332">
        <ele>149</ele>
        <time>2025-05-25T08:56:20Z</time>
      </trkpt>
      <trkpt lat="45.08404" lon="0.6233">
        <ele>149.2</ele>
        <time>2025-05-25T08:56:21Z</time>
      </trkpt>
      <trkpt lat="45.08404" lon="0.62328">
        <ele>149.4</ele>
        <time>2025-05-25T08:56:22Z</time>
      </trkpt>
      <trkpt lat="45.08403" lon="0.62327">
        <ele>149.4</ele>
        <time>2025-05-25T08:56:23Z</time>
      </trkpt>
      <trkpt lat="45.08402" lon="0.62325">
        <ele>149.4</ele>
        <time>2025-05-25T08:56:24Z</time>
      </trkpt>
      <trkpt lat="45.08401" lon="0.62323">
        <ele>149.6</ele>
        <time>2025-05-25T08:56:25Z</time>
      </trkpt>
      <trkpt lat="45.084" lon="0.6232">
        <ele>149.8</ele>
        <time>2025-05-25T08:56:26Z</time>
      </trkpt>
      <trkpt lat="45.08399" lon="0.62318">
        <ele>150</ele>
        <time>2025-05-25T08:56:27Z</time>
      </trkpt>
      <trkpt lat="45.08399" lon="0.62315">
        <ele>150.2</ele>
        <time>2025-05-25T08:56:28Z</time>
      </trkpt>
      <trkpt lat="45.08398" lon="0.62313">
        <ele>150.2</ele>
        <time>2025-05-25T08:56:29Z</time>
      </trkpt>
      <trkpt lat="45.08397" lon="0.62311">
        <ele>150.4</ele>
        <time>2025-05-25T08:56:30Z</time>
      </trkpt>
      <trkpt lat="45.08396" lon="0.62308">
        <ele>150.6</ele>
        <time>2025-05-25T08:56:31Z</time>
      </trkpt>
      <trkpt lat="45.08395" lon="0.62306">
        <ele>150.8</ele>
        <time>2025-05-25T08:56:32Z</time>
      </trkpt>
      <trkpt lat="45.08394" lon="0.62304">
        <ele>151</ele>
        <time>2025-05-25T08:56:33Z</time>
      </trkpt>
      <trkpt lat="45.08393" lon="0.62301">
        <ele>151</ele>
        <time>2025-05-25T08:56:34Z</time>
      </trkpt>
      <trkpt lat="45.08392" lon="0.62299">
        <ele>151.2</ele>
        <time>2025-05-25T08:56:35Z</time>
      </trkpt>
      <trkpt lat="45.08391" lon="0.62296">
        <ele>151.2</ele>
        <time>2025-05-25T08:56:36Z</time>
      </trkpt>
      <trkpt lat="45.0839" lon="0.62294">
        <ele>151.4</ele>
        <time>2025-05-25T08:56:37Z</time>
      </trkpt>
      <trkpt lat="45.08389" lon="0.62292">
        <ele>151.4</ele>
        <time>2025-05-25T08:56:38Z</time>
      </trkpt>
      <trkpt lat="45.08388" lon="0.6229">
        <ele>151.6</ele>
        <time>2025-05-25T08:56:39Z</time>
      </trkpt>
      <trkpt lat="45.08387" lon="0.62288">
        <ele>151.6</ele>
        <time>2025-05-25T08:56:40Z</time>
      </trkpt>
      <trkpt lat="45.08385" lon="0.62286">
        <ele>151.8</ele>
        <time>2025-05-25T08:56:41Z</time>
      </trkpt>
      <trkpt lat="45.08385" lon="0.62285">
        <ele>151.8</ele>
        <time>2025-05-25T08:56:42Z</time>
      </trkpt>
      <trkpt lat="45.08383" lon="0.62283">
        <ele>152</ele>
        <time>2025-05-25T08:56:43Z</time>
      </trkpt>
      <trkpt lat="45.08381" lon="0.62282">
        <ele>152.2</ele>
        <time>2025-05-25T08:56:44Z</time>
      </trkpt>
      <trkpt lat="45.0838" lon="0.62281">
        <ele>152.2</ele>
        <time>2025-05-25T08:56:45Z</time>
      </trkpt>
      <trkpt lat="45.08379" lon="0.62279">
        <ele>152.4</ele>
        <time>2025-05-25T08:56:46Z</time>
      </trkpt>
      <trkpt lat="45.08377" lon="0.62278">
        <ele>152.6</ele>
        <time>2025-05-25T08:56:47Z</time>
      </trkpt>
      <trkpt lat="45.08375" lon="0.62276">
        <ele>152.6</ele>
        <time>2025-05-25T08:56:48Z</time>
      </trkpt>
      <trkpt lat="45.08373" lon="0.62275">
        <ele>152.8</ele>
        <time>2025-05-25T08:56:49Z</time>
      </trkpt>
      <trkpt lat="45.08372" lon="0.62273">
        <ele>152.8</ele>
        <time>2025-05-25T08:56:50Z</time>
      </trkpt>
      <trkpt lat="45.0837" lon="0.62271">
        <ele>153</ele>
        <time>2025-05-25T08:56:51Z</time>
      </trkpt>
      <trkpt lat="45.08369" lon="0.6227">
        <ele>153</ele>
        <time>2025-05-25T08:56:52Z</time>
      </trkpt>
      <trkpt lat="45.08367" lon="0.62268">
        <ele>153.2</ele>
        <time>2025-05-25T08:56:53Z</time>
      </trkpt>
      <trkpt lat="45.08366" lon="0.62267">
        <ele>153.2</ele>
        <time>2025-05-25T08:56:54Z</time>
      </trkpt>
      <trkpt lat="45.08364" lon="0.62266">
        <ele>153.4</ele>
        <time>2025-05-25T08:56:55Z</time>
      </trkpt>
      <trkpt lat="45.08362" lon="0.62265">
        <ele>153.4</ele>
        <time>2025-05-25T08:56:56Z</time>
      </trkpt>
      <trkpt lat="45.08361" lon="0.62264">
        <ele>153.6</ele>
        <time>2025-05-25T08:56:57Z</time>
      </trkpt>
      <trkpt lat="45.08359" lon="0.62264">
        <ele>154</ele>
        <time>2025-05-25T08:56:58Z</time>
      </trkpt>
      <trkpt lat="45.08357" lon="0.62264">
        <ele>154.2</ele>
        <time>2025-05-25T08:56:59Z</time>
      </trkpt>
      <trkpt lat="45.08355" lon="0.62264">
        <ele>154.6</ele>
        <time>2025-05-25T08:57:00Z</time>
      </trkpt>
      <trkpt lat="45.08353" lon="0.62263">
        <ele>154.8</ele>
        <time>2025-05-25T08:57:01Z</time>
      </trkpt>
      <trkpt lat="45.08351" lon="0.62263">
        <ele>155</ele>
        <time>2025-05-25T08:57:02Z</time>
      </trkpt>
      <trkpt lat="45.08349" lon="0.62263">
        <ele>155.2</ele>
        <time>2025-05-25T08:57:03Z</time>
      </trkpt>
      <trkpt lat="45.08347" lon="0.62263">
        <ele>155.4</ele>
        <time>2025-05-25T08:57:04Z</time>
      </trkpt>
      <trkpt lat="45.08345" lon="0.62262">
        <ele>155.6</ele>
        <time>2025-05-25T08:57:05Z</time>
      </trkpt>
      <trkpt lat="45.08344" lon="0.62261">
        <ele>155.8</ele>
        <time>2025-05-25T08:57:06Z</time>
      </trkpt>
      <trkpt lat="45.08342" lon="0.6226">
        <ele>156</ele>
        <time>2025-05-25T08:57:07Z</time>
      </trkpt>
      <trkpt lat="45.0834" lon="0.62259">
        <ele>156.2</ele>
        <time>2025-05-25T08:57:08Z</time>
      </trkpt>
      <trkpt lat="45.08338" lon="0.62259">
        <ele>156.4</ele>
        <time>2025-05-25T08:57:09Z</time>
      </trkpt>
      <trkpt lat="45.08337" lon="0.62258">
        <ele>156.6</ele>
        <time>2025-05-25T08:57:10Z</time>
      </trkpt>
      <trkpt lat="45.08335" lon="0.62256">
        <ele>157</ele>
        <time>2025-05-25T08:57:11Z</time>
      </trkpt>
      <trkpt lat="45.08334" lon="0.62255">
        <ele>157.2</ele>
        <time>2025-05-25T08:57:12Z</time>
      </trkpt>
      <trkpt lat="45.08332" lon="0.62253">
        <ele>157.4</ele>
        <time>2025-05-25T08:57:13Z</time>
      </trkpt>
      <trkpt lat="45.08331" lon="0.62251">
        <ele>157.6</ele>
        <time>2025-05-25T08:57:14Z</time>
      </trkpt>
      <trkpt lat="45.0833" lon="0.62249">
        <ele>157.8</ele>
        <time>2025-05-25T08:57:15Z</time>
      </trkpt>
      <trkpt lat="45.08329" lon="0.62246">
        <ele>158</ele>
        <time>2025-05-25T08:57:16Z</time>
      </trkpt>
      <trkpt lat="45.08328" lon="0.62243">
        <ele>158</ele>
        <time>2025-05-25T08:57:17Z</time>
      </trkpt>
      <trkpt lat="45.08327" lon="0.6224">
        <ele>158</ele>
        <time>2025-05-25T08:57:18Z</time>
      </trkpt>
      <trkpt lat="45.08326" lon="0.62237">
        <ele>158</ele>
        <time>2025-05-25T08:57:19Z</time>
      </trkpt>
      <trkpt lat="45.08325" lon="0.62234">
        <ele>158</ele>
        <time>2025-05-25T08:57:20Z</time>
      </trkpt>
      <trkpt lat="45.08324" lon="0.62232">
        <ele>158.2</ele>
        <time>2025-05-25T08:57:21Z</time>
      </trkpt>
      <trkpt lat="45.08323" lon="0.62228">
        <ele>158.2</ele>
        <time>2025-05-25T08:57:22Z</time>
      </trkpt>
      <trkpt lat="45.08322" lon="0.62225">
        <ele>158.2</ele>
        <time>2025-05-25T08:57:23Z</time>
      </trkpt>
      <trkpt lat="45.0832" lon="0.62221">
        <ele>158.4</ele>
        <time>2025-05-25T08:57:24Z</time>
      </trkpt>
      <trkpt lat="45.08319" lon="0.62218">
        <ele>158.4</ele>
        <time>2025-05-25T08:57:25Z</time>
      </trkpt>
      <trkpt lat="45.08318" lon="0.62214">
        <ele>158.4</ele>
        <time>2025-05-25T08:57:26Z</time>
      </trkpt>
      <trkpt lat="45.08317" lon="0.62211">
        <ele>158.4</ele>
        <time>2025-05-25T08:57:27Z</time>
      </trkpt>
      <trkpt lat="45.08316" lon="0.62207">
        <ele>158.4</ele>
        <time>2025-05-25T08:57:28Z</time>
      </trkpt>
      <trkpt lat="45.08315" lon="0.62204">
        <ele>158.4</ele>
        <time>2025-05-25T08:57:29Z</time>
      </trkpt>
      <trkpt lat="45.08314" lon="0.622">
        <ele>158.4</ele>
        <time>2025-05-25T08:57:30Z</time>
      </trkpt>
      <trkpt lat="45.08312" lon="0.62197">
        <ele>158.4</ele>
        <time>2025-05-25T08:57:31Z</time>
      </trkpt>
      <trkpt lat="45.08311" lon="0.62193">
        <ele>158.4</ele>
        <time>2025-05-25T08:57:32Z</time>
      </trkpt>
      <trkpt lat="45.08309" lon="0.62189">
        <ele>158.4</ele>
        <time>2025-05-25T08:57:33Z</time>
      </trkpt>
      <trkpt lat="45.08307" lon="0.62184">
        <ele>158.2</ele>
        <time>2025-05-25T08:57:34Z</time>
      </trkpt>
      <trkpt lat="45.08305" lon="0.6218">
        <ele>158</ele>
        <time>2025-05-25T08:57:35Z</time>
      </trkpt>
      <trkpt lat="45.08304" lon="0.62175">
        <ele>157.8</ele>
        <time>2025-05-25T08:57:36Z</time>
      </trkpt>
      <trkpt lat="45.08302" lon="0.62171">
        <ele>157.8</ele>
        <time>2025-05-25T08:57:37Z</time>
      </trkpt>
      <trkpt lat="45.083" lon="0.62166">
        <ele>157.6</ele>
        <time>2025-05-25T08:57:38Z</time>
      </trkpt>
      <trkpt lat="45.08298" lon="0.62161">
        <ele>157.6</ele>
        <time>2025-05-25T08:57:39Z</time>
      </trkpt>
      <trkpt lat="45.08296" lon="0.62156">
        <ele>157.6</ele>
        <time>2025-05-25T08:57:40Z</time>
      </trkpt>
      <trkpt lat="45.08293" lon="0.62151">
        <ele>157.4</ele>
        <time>2025-05-25T08:57:41Z</time>
      </trkpt>
      <trkpt lat="45.08291" lon="0.62145">
        <ele>157.4</ele>
        <time>2025-05-25T08:57:42Z</time>
      </trkpt>
      <trkpt lat="45.08289" lon="0.6214">
        <ele>157.6</ele>
        <time>2025-05-25T08:57:43Z</time>
      </trkpt>
      <trkpt lat="45.08287" lon="0.62135">
        <ele>157.6</ele>
        <time>2025-05-25T08:57:44Z</time>
      </trkpt>
      <trkpt lat="45.08285" lon="0.62131">
        <ele>157.6</ele>
        <time>2025-05-25T08:57:45Z</time>
      </trkpt>
      <trkpt lat="45.08283" lon="0.62126">
        <ele>157.6</ele>
        <time>2025-05-25T08:57:46Z</time>
      </trkpt>
      <trkpt lat="45.08281" lon="0.62121">
        <ele>157.8</ele>
        <time>2025-05-25T08:57:47Z</time>
      </trkpt>
      <trkpt lat="45.08278" lon="0.62117">
        <ele>158</ele>
        <time>2025-05-25T08:57:48Z</time>
      </trkpt>
      <trkpt lat="45.08276" lon="0.62113">
        <ele>158.2</ele>
        <time>2025-05-25T08:57:49Z</time>
      </trkpt>
      <trkpt lat="45.08274" lon="0.62108">
        <ele>158.2</ele>
        <time>2025-05-25T08:57:50Z</time>
      </trkpt>
      <trkpt lat="45.08272" lon="0.62103">
        <ele>158.4</ele>
        <time>2025-05-25T08:57:51Z</time>
      </trkpt>
      <trkpt lat="45.0827" lon="0.62097">
        <ele>158.4</ele>
        <time>2025-05-25T08:57:52Z</time>
      </trkpt>
      <trkpt lat="45.08267" lon="0.62092">
        <ele>158.6</ele>
        <time>2025-05-25T08:57:53Z</time>
      </trkpt>
      <trkpt lat="45.08265" lon="0.62088">
        <ele>158.4</ele>
        <time>2025-05-25T08:57:54Z</time>
      </trkpt>
      <trkpt lat="45.08263" lon="0.62083">
        <ele>158.6</ele>
        <time>2025-05-25T08:57:55Z</time>
      </trkpt>
      <trkpt lat="45.0826" lon="0.62078">
        <ele>158.6</ele>
        <time>2025-05-25T08:57:56Z</time>
      </trkpt>
      <trkpt lat="45.08257" lon="0.62073">
        <ele>158.8</ele>
        <time>2025-05-25T08:57:57Z</time>
      </trkpt>
      <trkpt lat="45.08254" lon="0.62068">
        <ele>158.8</ele>
        <time>2025-05-25T08:57:58Z</time>
      </trkpt>
      <trkpt lat="45.08252" lon="0.62064">
        <ele>159.2</ele>
        <time>2025-05-25T08:57:59Z</time>
      </trkpt>
      <trkpt lat="45.08249" lon="0.62059">
        <ele>159.4</ele>
        <time>2025-05-25T08:58:00Z</time>
      </trkpt>
      <trkpt lat="45.08247" lon="0.62055">
        <ele>159.6</ele>
        <time>2025-05-25T08:58:01Z</time>
      </trkpt>
      <trkpt lat="45.08246" lon="0.62052">
        <ele>160</ele>
        <time>2025-05-25T08:58:02Z</time>
      </trkpt>
      <trkpt lat="45.08244" lon="0.62049">
        <ele>160.4</ele>
        <time>2025-05-25T08:58:03Z</time>
      </trkpt>
      <trkpt lat="45.08242" lon="0.62045">
        <ele>160.6</ele>
        <time>2025-05-25T08:58:04Z</time>
      </trkpt>
      <trkpt lat="45.08241" lon="0.62042">
        <ele>161</ele>
        <time>2025-05-25T08:58:05Z</time>
      </trkpt>
      <trkpt lat="45.08239" lon="0.6204">
        <ele>161.2</ele>
        <time>2025-05-25T08:58:06Z</time>
      </trkpt>
      <trkpt lat="45.08237" lon="0.62036">
        <ele>161.6</ele>
        <time>2025-05-25T08:58:07Z</time>
      </trkpt>
      <trkpt lat="45.08234" lon="0.62032">
        <ele>161.8</ele>
        <time>2025-05-25T08:58:08Z</time>
      </trkpt>
      <trkpt lat="45.08232" lon="0.62029">
        <ele>162.2</ele>
        <time>2025-05-25T08:58:09Z</time>
      </trkpt>
      <trkpt lat="45.08231" lon="0.62026">
        <ele>162.4</ele>
        <time>2025-05-25T08:58:10Z</time>
      </trkpt>
      <trkpt lat="45.08231" lon="0.62021">
        <ele>162.6</ele>
        <time>2025-05-25T08:58:11Z</time>
      </trkpt>
      <trkpt lat="45.08232" lon="0.62017">
        <ele>162.8</ele>
        <time>2025-05-25T08:58:12Z</time>
      </trkpt>
      <trkpt lat="45.08236" lon="0.62015">
        <ele>162.8</ele>
        <time>2025-05-25T08:58:13Z</time>
      </trkpt>
      <trkpt lat="45.08241" lon="0.62012">
        <ele>162.2</ele>
        <time>2025-05-25T08:58:14Z</time>
      </trkpt>
      <trkpt lat="45.08247" lon="0.6201">
        <ele>161.6</ele>
        <time>2025-05-25T08:58:15Z</time>
      </trkpt>
      <trkpt lat="45.08254" lon="0.62007">
        <ele>160.4</ele>
        <time>2025-05-25T08:58:16Z</time>
      </trkpt>
      <trkpt lat="45.08262" lon="0.62004">
        <ele>159.2</ele>
        <time>2025-05-25T08:58:17Z</time>
      </trkpt>
      <trkpt lat="45.08271" lon="0.62001">
        <ele>157.4</ele>
        <time>2025-05-25T08:58:18Z</time>
      </trkpt>
      <trkpt lat="45.08281" lon="0.61999">
        <ele>155.2</ele>
        <time>2025-05-25T08:58:19Z</time>
      </trkpt>
      <trkpt lat="45.08292" lon="0.61997">
        <ele>153.2</ele>
        <time>2025-05-25T08:58:20Z</time>
      </trkpt>
      <trkpt lat="45.08303" lon="0.61994">
        <ele>150.8</ele>
        <time>2025-05-25T08:58:21Z</time>
      </trkpt>
      <trkpt lat="45.08315" lon="0.61991">
        <ele>148.8</ele>
        <time>2025-05-25T08:58:22Z</time>
      </trkpt>
      <trkpt lat="45.08327" lon="0.61986">
        <ele>146.2</ele>
        <time>2025-05-25T08:58:23Z</time>
      </trkpt>
      <trkpt lat="45.08339" lon="0.61981">
        <ele>143.4</ele>
        <time>2025-05-25T08:58:24Z</time>
      </trkpt>
      <trkpt lat="45.08352" lon="0.61975">
        <ele>140.2</ele>
        <time>2025-05-25T08:58:25Z</time>
      </trkpt>
      <trkpt lat="45.08364" lon="0.61968">
        <ele>137.2</ele>
        <time>2025-05-25T08:58:26Z</time>
      </trkpt>
      <trkpt lat="45.08376" lon="0.61962">
        <ele>134.6</ele>
        <time>2025-05-25T08:58:27Z</time>
      </trkpt>
      <trkpt lat="45.08389" lon="0.61956">
        <ele>131.6</ele>
        <time>2025-05-25T08:58:28Z</time>
      </trkpt>
      <trkpt lat="45.08402" lon="0.61951">
        <ele>129</ele>
        <time>2025-05-25T08:58:29Z</time>
      </trkpt>
      <trkpt lat="45.08416" lon="0.61946">
        <ele>126</ele>
        <time>2025-05-25T08:58:30Z</time>
      </trkpt>
      <trkpt lat="45.0843" lon="0.61943">
        <ele>123.6</ele>
        <time>2025-05-25T08:58:31Z</time>
      </trkpt>
      <trkpt lat="45.08444" lon="0.6194">
        <ele>121</ele>
        <time>2025-05-25T08:58:32Z</time>
      </trkpt>
      <trkpt lat="45.08459" lon="0.61936">
        <ele>118.2</ele>
        <time>2025-05-25T08:58:33Z</time>
      </trkpt>
      <trkpt lat="45.08473" lon="0.61932">
        <ele>115.8</ele>
        <time>2025-05-25T08:58:34Z</time>
      </trkpt>
      <trkpt lat="45.08486" lon="0.61929">
        <ele>113.2</ele>
        <time>2025-05-25T08:58:35Z</time>
      </trkpt>
      <trkpt lat="45.08499" lon="0.61926">
        <ele>110.4</ele>
        <time>2025-05-25T08:58:36Z</time>
      </trkpt>
      <trkpt lat="45.08512" lon="0.61924">
        <ele>108.8</ele>
        <time>2025-05-25T08:58:37Z</time>
      </trkpt>
      <trkpt lat="45.08522" lon="0.61922">
        <ele>107.8</ele>
        <time>2025-05-25T08:58:38Z</time>
      </trkpt>
      <trkpt lat="45.08531" lon="0.6192">
        <ele>107.8</ele>
        <time>2025-05-25T08:58:39Z</time>
      </trkpt>
      <trkpt lat="45.08538" lon="0.61916">
        <ele>107.8</ele>
        <time>2025-05-25T08:58:40Z</time>
      </trkpt>
      <trkpt lat="45.08541" lon="0.61909">
        <ele>108.2</ele>
        <time>2025-05-25T08:58:41Z</time>
      </trkpt>
      <trkpt lat="45.08543" lon="0.61901">
        <ele>108.6</ele>
        <time>2025-05-25T08:58:42Z</time>
      </trkpt>
      <trkpt lat="45.08543" lon="0.61893">
        <ele>109</ele>
        <time>2025-05-25T08:58:43Z</time>
      </trkpt>
      <trkpt lat="45.08542" lon="0.61885">
        <ele>109.2</ele>
        <time>2025-05-25T08:58:44Z</time>
      </trkpt>
      <trkpt lat="45.08541" lon="0.61877">
        <ele>109.4</ele>
        <time>2025-05-25T08:58:45Z</time>
      </trkpt>
      <trkpt lat="45.0854" lon="0.6187">
        <ele>109.2</ele>
        <time>2025-05-25T08:58:46Z</time>
      </trkpt>
      <trkpt lat="45.0854" lon="0.61862">
        <ele>109</ele>
        <time>2025-05-25T08:58:47Z</time>
      </trkpt>
      <trkpt lat="45.08539" lon="0.61854">
        <ele>108.8</ele>
        <time>2025-05-25T08:58:48Z</time>
      </trkpt>
      <trkpt lat="45.08538" lon="0.61846">
        <ele>108.6</ele>
        <time>2025-05-25T08:58:49Z</time>
      </trkpt>
      <trkpt lat="45.08537" lon="0.61839">
        <ele>108.4</ele>
        <time>2025-05-25T08:58:50Z</time>
      </trkpt>
      <trkpt lat="45.08536" lon="0.61831">
        <ele>108.4</ele>
        <time>2025-05-25T08:58:51Z</time>
      </trkpt>
      <trkpt lat="45.08535" lon="0.61824">
        <ele>108.4</ele>
        <time>2025-05-25T08:58:52Z</time>
      </trkpt>
      <trkpt lat="45.08535" lon="0.61816">
        <ele>108.4</ele>
        <time>2025-05-25T08:58:53Z</time>
      </trkpt>
      <trkpt lat="45.08534" lon="0.61808">
        <ele>108.4</ele>
        <time>2025-05-25T08:58:54Z</time>
      </trkpt>
      <trkpt lat="45.08534" lon="0.618">
        <ele>108.4</ele>
        <time>2025-05-25T08:58:55Z</time>
      </trkpt>
      <trkpt lat="45.08533" lon="0.61792">
        <ele>108.2</ele>
        <time>2025-05-25T08:58:56Z</time>
      </trkpt>
      <trkpt lat="45.08532" lon="0.61784">
        <ele>108</ele>
        <time>2025-05-25T08:58:57Z</time>
      </trkpt>
      <trkpt lat="45.08532" lon="0.61777">
        <ele>108</ele>
        <time>2025-05-25T08:58:58Z</time>
      </trkpt>
      <trkpt lat="45.08531" lon="0.6177">
        <ele>108</ele>
        <time>2025-05-25T08:58:59Z</time>
      </trkpt>
      <trkpt lat="45.0853" lon="0.61763">
        <ele>108</ele>
        <time>2025-05-25T08:59:00Z</time>
      </trkpt>
      <trkpt lat="45.08529" lon="0.61755">
        <ele>108</ele>
        <time>2025-05-25T08:59:01Z</time>
      </trkpt>
      <trkpt lat="45.08528" lon="0.61748">
        <ele>108.2</ele>
        <time>2025-05-25T08:59:02Z</time>
      </trkpt>
      <trkpt lat="45.08527" lon="0.6174">
        <ele>108.2</ele>
        <time>2025-05-25T08:59:03Z</time>
      </trkpt>
      <trkpt lat="45.08526" lon="0.61733">
        <ele>108.2</ele>
        <time>2025-05-25T08:59:04Z</time>
      </trkpt>
      <trkpt lat="45.08525" lon="0.61725">
        <ele>108.4</ele>
        <time>2025-05-25T08:59:05Z</time>
      </trkpt>
      <trkpt lat="45.08524" lon="0.61718">
        <ele>108.2</ele>
        <time>2025-05-25T08:59:06Z</time>
      </trkpt>
      <trkpt lat="45.08523" lon="0.6171">
        <ele>108.2</ele>
        <time>2025-05-25T08:59:07Z</time>
      </trkpt>
      <trkpt lat="45.08521" lon="0.61703">
        <ele>108</ele>
        <time>2025-05-25T08:59:08Z</time>
      </trkpt>
      <trkpt lat="45.0852" lon="0.61696">
        <ele>108</ele>
        <time>2025-05-25T08:59:09Z</time>
      </trkpt>
      <trkpt lat="45.08519" lon="0.61689">
        <ele>108</ele>
        <time>2025-05-25T08:59:10Z</time>
      </trkpt>
      <trkpt lat="45.08517" lon="0.61682">
        <ele>108.2</ele>
        <time>2025-05-25T08:59:11Z</time>
      </trkpt>
      <trkpt lat="45.08515" lon="0.61675">
        <ele>108.4</ele>
        <time>2025-05-25T08:59:12Z</time>
      </trkpt>
      <trkpt lat="45.08513" lon="0.61668">
        <ele>108.6</ele>
        <time>2025-05-25T08:59:13Z</time>
      </trkpt>
      <trkpt lat="45.08512" lon="0.61661">
        <ele>108.8</ele>
        <time>2025-05-25T08:59:14Z</time>
      </trkpt>
      <trkpt lat="45.08511" lon="0.61654">
        <ele>109</ele>
        <time>2025-05-25T08:59:15Z</time>
      </trkpt>
      <trkpt lat="45.0851" lon="0.61648">
        <ele>109.2</ele>
        <time>2025-05-25T08:59:16Z</time>
      </trkpt>
      <trkpt lat="45.08509" lon="0.61641">
        <ele>109.2</ele>
        <time>2025-05-25T08:59:17Z</time>
      </trkpt>
      <trkpt lat="45.08508" lon="0.61635">
        <ele>109.4</ele>
        <time>2025-05-25T08:59:18Z</time>
      </trkpt>
      <trkpt lat="45.08507" lon="0.6163">
        <ele>109.6</ele>
        <time>2025-05-25T08:59:19Z</time>
      </trkpt>
      <trkpt lat="45.08506" lon="0.61624">
        <ele>109.6</ele>
        <time>2025-05-25T08:59:20Z</time>
      </trkpt>
      <trkpt lat="45.08505" lon="0.61618">
        <ele>109.8</ele>
        <time>2025-05-25T08:59:21Z</time>
      </trkpt>
      <trkpt lat="45.08505" lon="0.61612">
        <ele>110</ele>
        <time>2025-05-25T08:59:22Z</time>
      </trkpt>
      <trkpt lat="45.08504" lon="0.61607">
        <ele>110.2</ele>
        <time>2025-05-25T08:59:23Z</time>
      </trkpt>
      <trkpt lat="45.08503" lon="0.61602">
        <ele>110.4</ele>
        <time>2025-05-25T08:59:24Z</time>
      </trkpt>
      <trkpt lat="45.08502" lon="0.61597">
        <ele>110.6</ele>
        <time>2025-05-25T08:59:25Z</time>
      </trkpt>
      <trkpt lat="45.08502" lon="0.61592">
        <ele>110.6</ele>
        <time>2025-05-25T08:59:26Z</time>
      </trkpt>
      <trkpt lat="45.085" lon="0.61587">
        <ele>110.8</ele>
        <time>2025-05-25T08:59:27Z</time>
      </trkpt>
      <trkpt lat="45.08499" lon="0.61581">
        <ele>110.8</ele>
        <time>2025-05-25T08:59:28Z</time>
      </trkpt>
      <trkpt lat="45.085" lon="0.61574">
        <ele>110.8</ele>
        <time>2025-05-25T08:59:29Z</time>
      </trkpt>
      <trkpt lat="45.08502" lon="0.6157">
        <ele>110.8</ele>
        <time>2025-05-25T08:59:30Z</time>
      </trkpt>
      <trkpt lat="45.08505" lon="0.61567">
        <ele>110.8</ele>
        <time>2025-05-25T08:59:31Z</time>
      </trkpt>
      <trkpt lat="45.08511" lon="0.61566">
        <ele>110.4</ele>
        <time>2025-05-25T08:59:32Z</time>
      </trkpt>
      <trkpt lat="45.08517" lon="0.61565">
        <ele>110.2</ele>
        <time>2025-05-25T08:59:33Z</time>
      </trkpt>
      <trkpt lat="45.08524" lon="0.61565">
        <ele>109.6</ele>
        <time>2025-05-25T08:59:34Z</time>
      </trkpt>
      <trkpt lat="45.08531" lon="0.61564">
        <ele>108.8</ele>
        <time>2025-05-25T08:59:35Z</time>
      </trkpt>
      <trkpt lat="45.08539" lon="0.61563">
        <ele>107.8</ele>
        <time>2025-05-25T08:59:36Z</time>
      </trkpt>
      <trkpt lat="45.08547" lon="0.61563">
        <ele>107</ele>
        <time>2025-05-25T08:59:37Z</time>
      </trkpt>
      <trkpt lat="45.08555" lon="0.61562">
        <ele>105.8</ele>
        <time>2025-05-25T08:59:38Z</time>
      </trkpt>
      <trkpt lat="45.08563" lon="0.61561">
        <ele>105</ele>
        <time>2025-05-25T08:59:39Z</time>
      </trkpt>
      <trkpt lat="45.08572" lon="0.6156">
        <ele>104.4</ele>
        <time>2025-05-25T08:59:40Z</time>
      </trkpt>
      <trkpt lat="45.0858" lon="0.61559">
        <ele>103.8</ele>
        <time>2025-05-25T08:59:41Z</time>
      </trkpt>
      <trkpt lat="45.08589" lon="0.61559">
        <ele>103.2</ele>
        <time>2025-05-25T08:59:42Z</time>
      </trkpt>
      <trkpt lat="45.08598" lon="0.61558">
        <ele>102.8</ele>
        <time>2025-05-25T08:59:43Z</time>
      </trkpt>
      <trkpt lat="45.08606" lon="0.6156">
        <ele>102</ele>
        <time>2025-05-25T08:59:44Z</time>
      </trkpt>
      <trkpt lat="45.08613" lon="0.61565">
        <ele>101.6</ele>
        <time>2025-05-25T08:59:45Z</time>
      </trkpt>
      <trkpt lat="45.08619" lon="0.61572">
        <ele>101.2</ele>
        <time>2025-05-25T08:59:46Z</time>
      </trkpt>
      <trkpt lat="45.08624" lon="0.61579">
        <ele>101.4</ele>
        <time>2025-05-25T08:59:47Z</time>
      </trkpt>
      <trkpt lat="45.0863" lon="0.61583">
        <ele>101.4</ele>
        <time>2025-05-25T08:59:48Z</time>
      </trkpt>
      <trkpt lat="45.08637" lon="0.61586">
        <ele>101.6</ele>
        <time>2025-05-25T08:59:49Z</time>
      </trkpt>
      <trkpt lat="45.08643" lon="0.61586">
        <ele>101.8</ele>
        <time>2025-05-25T08:59:50Z</time>
      </trkpt>
      <trkpt lat="45.08649" lon="0.61584">
        <ele>101.8</ele>
        <time>2025-05-25T08:59:51Z</time>
      </trkpt>
      <trkpt lat="45.08655" lon="0.61583">
        <ele>101.6</ele>
        <time>2025-05-25T08:59:52Z</time>
      </trkpt>
      <trkpt lat="45.08659" lon="0.61581">
        <ele>101.4</ele>
        <time>2025-05-25T08:59:53Z</time>
      </trkpt>
      <trkpt lat="45.08663" lon="0.61579">
        <ele>101.4</ele>
        <time>2025-05-25T08:59:54Z</time>
      </trkpt>
      <trkpt lat="45.08667" lon="0.61578">
        <ele>101.6</ele>
        <time>2025-05-25T08:59:55Z</time>
      </trkpt>
      <trkpt lat="45.08671" lon="0.61577">
        <ele>101.6</ele>
        <time>2025-05-25T08:59:56Z</time>
      </trkpt>
      <trkpt lat="45.08674" lon="0.61576">
        <ele>102</ele>
        <time>2025-05-25T08:59:57Z</time>
      </trkpt>
      <trkpt lat="45.08676" lon="0.61576">
        <ele>102.2</ele>
        <time>2025-05-25T08:59:58Z</time>
      </trkpt>
      <trkpt lat="45.0868" lon="0.61575">
        <ele>102.4</ele>
        <time>2025-05-25T08:59:59Z</time>
      </trkpt>
      <trkpt lat="45.08683" lon="0.61575">
        <ele>102.6</ele>
        <time>2025-05-25T09:00:00Z</time>
      </trkpt>
      <trkpt lat="45.08686" lon="0.61574">
        <ele>102.6</ele>
        <time>2025-05-25T09:00:01Z</time>
      </trkpt>
      <trkpt lat="45.0869" lon="0.61574">
        <ele>102.6</ele>
        <time>2025-05-25T09:00:02Z</time>
      </trkpt>
      <trkpt lat="45.08694" lon="0.61573">
        <ele>102.6</ele>
        <time>2025-05-25T09:00:03Z</time>
      </trkpt>
      <trkpt lat="45.08698" lon="0.61573">
        <ele>102.4</ele>
        <time>2025-05-25T09:00:04Z</time>
      </trkpt>
      <trkpt lat="45.08701" lon="0.61573">
        <ele>102.4</ele>
        <time>2025-05-25T09:00:05Z</time>
      </trkpt>
      <trkpt lat="45.08705" lon="0.61573">
        <ele>102.4</ele>
        <time>2025-05-25T09:00:06Z</time>
      </trkpt>
      <trkpt lat="45.08709" lon="0.61573">
        <ele>102.6</ele>
        <time>2025-05-25T09:00:07Z</time>
      </trkpt>
      <trkpt lat="45.08712" lon="0.61573">
        <ele>102.6</ele>
        <time>2025-05-25T09:00:08Z</time>
      </trkpt>
      <trkpt lat="45.08716" lon="0.61573">
        <ele>102.8</ele>
        <time>2025-05-25T09:00:09Z</time>
      </trkpt>
      <trkpt lat="45.08719" lon="0.61573">
        <ele>103</ele>
        <time>2025-05-25T09:00:10Z</time>
      </trkpt>
      <trkpt lat="45.08721" lon="0.61573">
        <ele>103.4</ele>
        <time>2025-05-25T09:00:11Z</time>
      </trkpt>
      <trkpt lat="45.08724" lon="0.61573">
        <ele>103.8</ele>
        <time>2025-05-25T09:00:12Z</time>
      </trkpt>
      <trkpt lat="45.08726" lon="0.61573">
        <ele>104</ele>
        <time>2025-05-25T09:00:13Z</time>
      </trkpt>
      <trkpt lat="45.08727" lon="0.61573">
        <ele>104.4</ele>
        <time>2025-05-25T09:00:14Z</time>
      </trkpt>
      <trkpt lat="45.08729" lon="0.61573">
        <ele>104.6</ele>
        <time>2025-05-25T09:00:15Z</time>
      </trkpt>
      <trkpt lat="45.08731" lon="0.61574">
        <ele>104.8</ele>
        <time>2025-05-25T09:00:16Z</time>
      </trkpt>
      <trkpt lat="45.08733" lon="0.61574">
        <ele>105.2</ele>
        <time>2025-05-25T09:00:17Z</time>
      </trkpt>
      <trkpt lat="45.08735" lon="0.61573">
        <ele>105.2</ele>
        <time>2025-05-25T09:00:18Z</time>
      </trkpt>
      <trkpt lat="45.08737" lon="0.61573">
        <ele>105.4</ele>
        <time>2025-05-25T09:00:19Z</time>
      </trkpt>
      <trkpt lat="45.08738" lon="0.61574">
        <ele>105.6</ele>
        <time>2025-05-25T09:00:20Z</time>
      </trkpt>
      <trkpt lat="45.08738" lon="0.61574">
        <ele>105.6</ele>
        <time>2025-05-25T09:00:21Z</time>
      </trkpt>
      <trkpt lat="45.08738" lon="0.61575">
        <ele>105.8</ele>
        <time>2025-05-25T09:00:22Z</time>
      </trkpt>
      <trkpt lat="45.08739" lon="0.61574">
        <ele>106</ele>
        <time>2025-05-25T09:00:23Z</time>
      </trkpt>
      <trkpt lat="45.0874" lon="0.61574">
        <ele>106.2</ele>
        <time>2025-05-25T09:00:24Z</time>
      </trkpt>
      <trkpt lat="45.08741" lon="0.61574">
        <ele>106.4</ele>
        <time>2025-05-25T09:00:25Z</time>
      </trkpt>
      <trkpt lat="45.08742" lon="0.61574">
        <ele>106.6</ele>
        <time>2025-05-25T09:00:26Z</time>
      </trkpt>
      <trkpt lat="45.08742" lon="0.61574">
        <ele>107</ele>
        <time>2025-05-25T09:00:27Z</time>
      </trkpt>
      <trkpt lat="45.08743" lon="0.61574">
        <ele>107.2</ele>
        <time>2025-05-25T09:00:28Z</time>
      </trkpt>
      <trkpt lat="45.08743" lon="0.61573">
        <ele>107.6</ele>
        <time>2025-05-25T09:00:29Z</time>
      </trkpt>
      <trkpt lat="45.08743" lon="0.61573">
        <ele>107.8</ele>
        <time>2025-05-25T09:00:30Z</time>
      </trkpt>
      <trkpt lat="45.08744" lon="0.61573">
        <ele>108</ele>
        <time>2025-05-25T09:00:31Z</time>
      </trkpt>
      <trkpt lat="45.08745" lon="0.61573">
        <ele>108.2</ele>
        <time>2025-05-25T09:00:32Z</time>
      </trkpt>
      <trkpt lat="45.08745" lon="0.61573">
        <ele>108.2</ele>
        <time>2025-05-25T09:00:33Z</time>
      </trkpt>
      <trkpt lat="45.08745" lon="0.61573">
        <ele>108.2</ele>
        <time>2025-05-25T09:00:34Z</time>
      </trkpt>
      <trkpt lat="45.08745" lon="0.61573">
        <ele>108.2</ele>
        <time>2025-05-25T09:00:35Z</time>
      </trkpt>
      <trkpt lat="45.08746" lon="0.61567">
        <ele>108.8</ele>
        <time>2025-05-25T09:00:50Z</time>
      </trkpt>
      <trkpt lat="45.08746" lon="0.61564">
        <ele>108.6</ele>
        <time>2025-05-25T09:00:51Z</time>
      </trkpt>
      <trkpt lat="45.08745" lon="0.61561">
        <ele>108.4</ele>
        <time>2025-05-25T09:00:52Z</time>
      </trkpt>
      <trkpt lat="45.08745" lon="0.61558">
        <ele>108.2</ele>
        <time>2025-05-25T09:00:53Z</time>
      </trkpt>
      <trkpt lat="45.08744" lon="0.61554">
        <ele>108</ele>
        <time>2025-05-25T09:00:54Z</time>
      </trkpt>
      <trkpt lat="45.08744" lon="0.61551">
        <ele>108</ele>
        <time>2025-05-25T09:00:55Z</time>
      </trkpt>
      <trkpt lat="45.08744" lon="0.61547">
        <ele>107.8</ele>
        <time>2025-05-25T09:00:56Z</time>
      </trkpt>
      <trkpt lat="45.08744" lon="0.61543">
        <ele>107.8</ele>
        <time>2025-05-25T09:00:57Z</time>
      </trkpt>
      <trkpt lat="45.08743" lon="0.61539">
        <ele>107.8</ele>
        <time>2025-05-25T09:00:58Z</time>
      </trkpt>
      <trkpt lat="45.08743" lon="0.61535">
        <ele>107.8</ele>
        <time>2025-05-25T09:00:59Z</time>
      </trkpt>
      <trkpt lat="45.08742" lon="0.61531">
        <ele>107.8</ele>
        <time>2025-05-25T09:01:00Z</time>
      </trkpt>
      <trkpt lat="45.08742" lon="0.61527">
        <ele>107.8</ele>
        <time>2025-05-25T09:01:01Z</time>
      </trkpt>
      <trkpt lat="45.08741" lon="0.61523">
        <ele>107.8</ele>
        <time>2025-05-25T09:01:02Z</time>
      </trkpt>
      <trkpt lat="45.08741" lon="0.61518">
        <ele>107.6</ele>
        <time>2025-05-25T09:01:03Z</time>
      </trkpt>
      <trkpt lat="45.0874" lon="0.61514">
        <ele>107.6</ele>
        <time>2025-05-25T09:01:04Z</time>
      </trkpt>
      <trkpt lat="45.0874" lon="0.61509">
        <ele>107.4</ele>
        <time>2025-05-25T09:01:05Z</time>
      </trkpt>
      <trkpt lat="45.08739" lon="0.61504">
        <ele>107.2</ele>
        <time>2025-05-25T09:01:06Z</time>
      </trkpt>
      <trkpt lat="45.08739" lon="0.61499">
        <ele>107</ele>
        <time>2025-05-25T09:01:07Z</time>
      </trkpt>
      <trkpt lat="45.08738" lon="0.61493">
        <ele>107</ele>
        <time>2025-05-25T09:01:08Z</time>
      </trkpt>
      <trkpt lat="45.08738" lon="0.61488">
        <ele>106.8</ele>
        <time>2025-05-25T09:01:09Z</time>
      </trkpt>
      <trkpt lat="45.08738" lon="0.61482">
        <ele>106.6</ele>
        <time>2025-05-25T09:01:10Z</time>
      </trkpt>
      <trkpt lat="45.08737" lon="0.61476">
        <ele>106.4</ele>
        <time>2025-05-25T09:01:11Z</time>
      </trkpt>
      <trkpt lat="45.08737" lon="0.61471">
        <ele>106.2</ele>
        <time>2025-05-25T09:01:12Z</time>
      </trkpt>
      <trkpt lat="45.08737" lon="0.61465">
        <ele>106</ele>
        <time>2025-05-25T09:01:13Z</time>
      </trkpt>
      <trkpt lat="45.08737" lon="0.61459">
        <ele>105.8</ele>
        <time>2025-05-25T09:01:14Z</time>
      </trkpt>
      <trkpt lat="45.08736" lon="0.61453">
        <ele>106</ele>
        <time>2025-05-25T09:01:15Z</time>
      </trkpt>
      <trkpt lat="45.08737" lon="0.61447">
        <ele>106</ele>
        <time>2025-05-25T09:01:16Z</time>
      </trkpt>
      <trkpt lat="45.08737" lon="0.61441">
        <ele>106.2</ele>
        <time>2025-05-25T09:01:17Z</time>
      </trkpt>
      <trkpt lat="45.08737" lon="0.61434">
        <ele>106</ele>
        <time>2025-05-25T09:01:18Z</time>
      </trkpt>
      <trkpt lat="45.08738" lon="0.61427">
        <ele>105.8</ele>
        <time>2025-05-25T09:01:19Z</time>
      </trkpt>
      <trkpt lat="45.08738" lon="0.6142">
        <ele>105.6</ele>
        <time>2025-05-25T09:01:20Z</time>
      </trkpt>
      <trkpt lat="45.08739" lon="0.61412">
        <ele>105.4</ele>
        <time>2025-05-25T09:01:21Z</time>
      </trkpt>
      <trkpt lat="45.0874" lon="0.61405">
        <ele>105</ele>
        <time>2025-05-25T09:01:22Z</time>
      </trkpt>
      <trkpt lat="45.0874" lon="0.61397">
        <ele>104.6</ele>
        <time>2025-05-25T09:01:23Z</time>
      </trkpt>
      <trkpt lat="45.08741" lon="0.6139">
        <ele>104.4</ele>
        <time>2025-05-25T09:01:24Z</time>
      </trkpt>
      <trkpt lat="45.08742" lon="0.61382">
        <ele>104.2</ele>
        <time>2025-05-25T09:01:25Z</time>
      </trkpt>
      <trkpt lat="45.08742" lon="0.61375">
        <ele>104.2</ele>
        <time>2025-05-25T09:01:26Z</time>
      </trkpt>
      <trkpt lat="45.08743" lon="0.61367">
        <ele>104.4</ele>
        <time>2025-05-25T09:01:27Z</time>
      </trkpt>
      <trkpt lat="45.08744" lon="0.61359">
        <ele>104.4</ele>
        <time>2025-05-25T09:01:28Z</time>
      </trkpt>
      <trkpt lat="45.08745" lon="0.6135">
        <ele>104.4</ele>
        <time>2025-05-25T09:01:29Z</time>
      </trkpt>
      <trkpt lat="45.08745" lon="0.61342">
        <ele>104.2</ele>
        <time>2025-05-25T09:01:30Z</time>
      </trkpt>
      <trkpt lat="45.08746" lon="0.61333">
        <ele>104</ele>
        <time>2025-05-25T09:01:31Z</time>
      </trkpt>
      <trkpt lat="45.08747" lon="0.61325">
        <ele>103.6</ele>
        <time>2025-05-25T09:01:32Z</time>
      </trkpt>
      <trkpt lat="45.08748" lon="0.61317">
        <ele>103.4</ele>
        <time>2025-05-25T09:01:33Z</time>
      </trkpt>
      <trkpt lat="45.08749" lon="0.61308">
        <ele>103.2</ele>
        <time>2025-05-25T09:01:34Z</time>
      </trkpt>
      <trkpt lat="45.08749" lon="0.613">
        <ele>103.2</ele>
        <time>2025-05-25T09:01:35Z</time>
      </trkpt>
      <trkpt lat="45.0875" lon="0.61292">
        <ele>103</ele>
        <time>2025-05-25T09:01:36Z</time>
      </trkpt>
      <trkpt lat="45.08751" lon="0.61283">
        <ele>103</ele>
        <time>2025-05-25T09:01:37Z</time>
      </trkpt>
      <trkpt lat="45.08752" lon="0.61275">
        <ele>103</ele>
        <time>2025-05-25T09:01:38Z</time>
      </trkpt>
      <trkpt lat="45.08753" lon="0.61266">
        <ele>102.8</ele>
        <time>2025-05-25T09:01:39Z</time>
      </trkpt>
      <trkpt lat="45.08754" lon="0.61258">
        <ele>102.8</ele>
        <time>2025-05-25T09:01:40Z</time>
      </trkpt>
      <trkpt lat="45.08756" lon="0.61249">
        <ele>103</ele>
        <time>2025-05-25T09:01:41Z</time>
      </trkpt>
      <trkpt lat="45.08757" lon="0.61241">
        <ele>103</ele>
        <time>2025-05-25T09:01:42Z</time>
      </trkpt>
      <trkpt lat="45.08759" lon="0.61232">
        <ele>103.2</ele>
        <time>2025-05-25T09:01:43Z</time>
      </trkpt>
      <trkpt lat="45.08761" lon="0.61224">
        <ele>103.4</ele>
        <time>2025-05-25T09:01:44Z</time>
      </trkpt>
      <trkpt lat="45.08764" lon="0.61215">
        <ele>103.4</ele>
        <time>2025-05-25T09:01:45Z</time>
      </trkpt>
      <trkpt lat="45.08766" lon="0.61206">
        <ele>103.6</ele>
        <time>2025-05-25T09:01:46Z</time>
      </trkpt>
      <trkpt lat="45.08769" lon="0.61197">
        <ele>103.6</ele>
        <time>2025-05-25T09:01:47Z</time>
      </trkpt>
      <trkpt lat="45.08772" lon="0.61188">
        <ele>103.4</ele>
        <time>2025-05-25T09:01:48Z</time>
      </trkpt>
      <trkpt lat="45.08776" lon="0.61179">
        <ele>103.2</ele>
        <time>2025-05-25T09:01:49Z</time>
      </trkpt>
      <trkpt lat="45.08779" lon="0.6117">
        <ele>103</ele>
        <time>2025-05-25T09:01:50Z</time>
      </trkpt>
      <trkpt lat="45.08783" lon="0.6116">
        <ele>102.6</ele>
        <time>2025-05-25T09:01:51Z</time>
      </trkpt>
      <trkpt lat="45.08787" lon="0.6115">
        <ele>102</ele>
        <time>2025-05-25T09:01:52Z</time>
      </trkpt>
      <trkpt lat="45.08791" lon="0.61139">
        <ele>101.2</ele>
        <time>2025-05-25T09:01:53Z</time>
      </trkpt>
      <trkpt lat="45.08795" lon="0.6113">
        <ele>100.6</ele>
        <time>2025-05-25T09:01:54Z</time>
      </trkpt>
      <trkpt lat="45.08798" lon="0.61119">
        <ele>100</ele>
        <time>2025-05-25T09:01:55Z</time>
      </trkpt>
      <trkpt lat="45.08801" lon="0.61109">
        <ele>99.4</ele>
        <time>2025-05-25T09:01:56Z</time>
      </trkpt>
      <trkpt lat="45.08803" lon="0.611">
        <ele>99</ele>
        <time>2025-05-25T09:01:57Z</time>
      </trkpt>
      <trkpt lat="45.08805" lon="0.6109">
        <ele>98.6</ele>
        <time>2025-05-25T09:01:58Z</time>
      </trkpt>
      <trkpt lat="45.08807" lon="0.61081">
        <ele>98.6</ele>
        <time>2025-05-25T09:01:59Z</time>
      </trkpt>
      <trkpt lat="45.0881" lon="0.61073">
        <ele>98.8</ele>
        <time>2025-05-25T09:02:00Z</time>
      </trkpt>
      <trkpt lat="45.08814" lon="0.61066">
        <ele>99</ele>
        <time>2025-05-25T09:02:01Z</time>
      </trkpt>
      <trkpt lat="45.08818" lon="0.6106">
        <ele>99.2</ele>
        <time>2025-05-25T09:02:02Z</time>
      </trkpt>
      <trkpt lat="45.08823" lon="0.61055">
        <ele>99.4</ele>
        <time>2025-05-25T09:02:03Z</time>
      </trkpt>
      <trkpt lat="45.08827" lon="0.6105">
        <ele>99.8</ele>
        <time>2025-05-25T09:02:04Z</time>
      </trkpt>
      <trkpt lat="45.08831" lon="0.61046">
        <ele>100</ele>
        <time>2025-05-25T09:02:05Z</time>
      </trkpt>
      <trkpt lat="45.08834" lon="0.61042">
        <ele>100.4</ele>
        <time>2025-05-25T09:02:06Z</time>
      </trkpt>
      <trkpt lat="45.08837" lon="0.61039">
        <ele>100.8</ele>
        <time>2025-05-25T09:02:07Z</time>
      </trkpt>
      <trkpt lat="45.0884" lon="0.61038">
        <ele>101.4</ele>
        <time>2025-05-25T09:02:08Z</time>
      </trkpt>
      <trkpt lat="45.08842" lon="0.61036">
        <ele>101.8</ele>
        <time>2025-05-25T09:02:09Z</time>
      </trkpt>
      <trkpt lat="45.08844" lon="0.61035">
        <ele>102.4</ele>
        <time>2025-05-25T09:02:10Z</time>
      </trkpt>
      <trkpt lat="45.08846" lon="0.61034">
        <ele>102.6</ele>
        <time>2025-05-25T09:02:11Z</time>
      </trkpt>
      <trkpt lat="45.08848" lon="0.61032">
        <ele>103</ele>
        <time>2025-05-25T09:02:12Z</time>
      </trkpt>
      <trkpt lat="45.08849" lon="0.61032">
        <ele>103.2</ele>
        <time>2025-05-25T09:02:13Z</time>
      </trkpt>
      <trkpt lat="45.0885" lon="0.61032">
        <ele>103.4</ele>
        <time>2025-05-25T09:02:14Z</time>
      </trkpt>
      <trkpt lat="45.08851" lon="0.61032">
        <ele>103.6</ele>
        <time>2025-05-25T09:02:15Z</time>
      </trkpt>
      <trkpt lat="45.08853" lon="0.61031">
        <ele>103.8</ele>
        <time>2025-05-25T09:02:16Z</time>
      </trkpt>
      <trkpt lat="45.08854" lon="0.61031">
        <ele>104</ele>
        <time>2025-05-25T09:02:17Z</time>
      </trkpt>
      <trkpt lat="45.08854" lon="0.61029">
        <ele>104</ele>
        <time>2025-05-25T09:02:18Z</time>
      </trkpt>
      <trkpt lat="45.08854" lon="0.61029">
        <ele>104.2</ele>
        <time>2025-05-25T09:02:19Z</time>
      </trkpt>
      <trkpt lat="45.08854" lon="0.61029">
        <ele>104.4</ele>
        <time>2025-05-25T09:02:20Z</time>
      </trkpt>
      <trkpt lat="45.08857" lon="0.61035">
        <ele>102.8</ele>
        <time>2025-05-25T09:09:10Z</time>
      </trkpt>
      <trkpt lat="45.08859" lon="0.61035">
        <ele>102.8</ele>
        <time>2025-05-25T09:09:11Z</time>
      </trkpt>
      <trkpt lat="45.0886" lon="0.61033">
        <ele>103</ele>
        <time>2025-05-25T09:09:12Z</time>
      </trkpt>
      <trkpt lat="45.0886" lon="0.6103">
        <ele>103</ele>
        <time>2025-05-25T09:09:13Z</time>
      </trkpt>
      <trkpt lat="45.08861" lon="0.61028">
        <ele>103.2</ele>
        <time>2025-05-25T09:09:14Z</time>
      </trkpt>
      <trkpt lat="45.08861" lon="0.61025">
        <ele>103.2</ele>
        <time>2025-05-25T09:09:15Z</time>
      </trkpt>
      <trkpt lat="45.0886" lon="0.61023">
        <ele>103.2</ele>
        <time>2025-05-25T09:09:16Z</time>
      </trkpt>
      <trkpt lat="45.0886" lon="0.6102">
        <ele>103.4</ele>
        <time>2025-05-25T09:09:17Z</time>
      </trkpt>
      <trkpt lat="45.08859" lon="0.61017">
        <ele>103.2</ele>
        <time>2025-05-25T09:09:18Z</time>
      </trkpt>
      <trkpt lat="45.0886" lon="0.61014">
        <ele>103.2</ele>
        <time>2025-05-25T09:09:19Z</time>
      </trkpt>
      <trkpt lat="45.08861" lon="0.61011">
        <ele>103.2</ele>
        <time>2025-05-25T09:09:20Z</time>
      </trkpt>
      <trkpt lat="45.08863" lon="0.61009">
        <ele>103.4</ele>
        <time>2025-05-25T09:09:21Z</time>
      </trkpt>
      <trkpt lat="45.08865" lon="0.61006">
        <ele>103.4</ele>
        <time>2025-05-25T09:09:22Z</time>
      </trkpt>
      <trkpt lat="45.08867" lon="0.61004">
        <ele>103.4</ele>
        <time>2025-05-25T09:09:23Z</time>
      </trkpt>
      <trkpt lat="45.08869" lon="0.61002">
        <ele>103.6</ele>
        <time>2025-05-25T09:09:24Z</time>
      </trkpt>
      <trkpt lat="45.08872" lon="0.61">
        <ele>103.6</ele>
        <time>2025-05-25T09:09:25Z</time>
      </trkpt>
      <trkpt lat="45.08874" lon="0.60998">
        <ele>103.8</ele>
        <time>2025-05-25T09:09:26Z</time>
      </trkpt>
      <trkpt lat="45.08876" lon="0.60996">
        <ele>103.8</ele>
        <time>2025-05-25T09:09:27Z</time>
      </trkpt>
      <trkpt lat="45.08878" lon="0.60995">
        <ele>104</ele>
        <time>2025-05-25T09:09:28Z</time>
      </trkpt>
      <trkpt lat="45.0888" lon="0.60993">
        <ele>104.2</ele>
        <time>2025-05-25T09:09:29Z</time>
      </trkpt>
      <trkpt lat="45.08882" lon="0.60991">
        <ele>104.4</ele>
        <time>2025-05-25T09:09:30Z</time>
      </trkpt>
      <trkpt lat="45.08884" lon="0.60989">
        <ele>104.6</ele>
        <time>2025-05-25T09:09:31Z</time>
      </trkpt>
      <trkpt lat="45.08886" lon="0.60986">
        <ele>104.8</ele>
        <time>2025-05-25T09:09:32Z</time>
      </trkpt>
      <trkpt lat="45.08888" lon="0.60984">
        <ele>104.8</ele>
        <time>2025-05-25T09:09:33Z</time>
      </trkpt>
      <trkpt lat="45.0889" lon="0.60983">
        <ele>105</ele>
        <time>2025-05-25T09:09:34Z</time>
      </trkpt>
      <trkpt lat="45.08893" lon="0.6098">
        <ele>105.2</ele>
        <time>2025-05-25T09:09:35Z</time>
      </trkpt>
      <trkpt lat="45.08895" lon="0.60978">
        <ele>105.2</ele>
        <time>2025-05-25T09:09:36Z</time>
      </trkpt>
      <trkpt lat="45.08897" lon="0.60976">
        <ele>105.2</ele>
        <time>2025-05-25T09:09:37Z</time>
      </trkpt>
      <trkpt lat="45.08899" lon="0.60975">
        <ele>105.4</ele>
        <time>2025-05-25T09:09:38Z</time>
      </trkpt>
      <trkpt lat="45.08901" lon="0.60973">
        <ele>105.6</ele>
        <time>2025-05-25T09:09:39Z</time>
      </trkpt>
      <trkpt lat="45.08903" lon="0.60971">
        <ele>105.8</ele>
        <time>2025-05-25T09:09:40Z</time>
      </trkpt>
      <trkpt lat="45.08905" lon="0.60969">
        <ele>106</ele>
        <time>2025-05-25T09:09:41Z</time>
      </trkpt>
      <trkpt lat="45.08907" lon="0.60967">
        <ele>106</ele>
        <time>2025-05-25T09:09:42Z</time>
      </trkpt>
      <trkpt lat="45.08909" lon="0.60965">
        <ele>106.2</ele>
        <time>2025-05-25T09:09:43Z</time>
      </trkpt>
      <trkpt lat="45.08911" lon="0.60963">
        <ele>106.4</ele>
        <time>2025-05-25T09:09:44Z</time>
      </trkpt>
      <trkpt lat="45.08913" lon="0.60961">
        <ele>106.6</ele>
        <time>2025-05-25T09:09:45Z</time>
      </trkpt>
      <trkpt lat="45.08915" lon="0.60959">
        <ele>106.8</ele>
        <time>2025-05-25T09:09:46Z</time>
      </trkpt>
      <trkpt lat="45.08916" lon="0.60957">
        <ele>107</ele>
        <time>2025-05-25T09:09:47Z</time>
      </trkpt>
      <trkpt lat="45.08918" lon="0.60956">
        <ele>107.2</ele>
        <time>2025-05-25T09:09:48Z</time>
      </trkpt>
      <trkpt lat="45.0892" lon="0.60954">
        <ele>107.4</ele>
        <time>2025-05-25T09:09:49Z</time>
      </trkpt>
      <trkpt lat="45.08922" lon="0.60953">
        <ele>107.6</ele>
        <time>2025-05-25T09:09:50Z</time>
      </trkpt>
      <trkpt lat="45.08923" lon="0.60951">
        <ele>108</ele>
        <time>2025-05-25T09:09:51Z</time>
      </trkpt>
      <trkpt lat="45.08925" lon="0.60949">
        <ele>108.2</ele>
        <time>2025-05-25T09:09:52Z</time>
      </trkpt>
      <trkpt lat="45.08926" lon="0.60948">
        <ele>108.6</ele>
        <time>2025-05-25T09:09:53Z</time>
      </trkpt>
      <trkpt lat="45.08928" lon="0.60947">
        <ele>108.8</ele>
        <time>2025-05-25T09:09:54Z</time>
      </trkpt>
      <trkpt lat="45.0893" lon="0.60945">
        <ele>109.2</ele>
        <time>2025-05-25T09:09:55Z</time>
      </trkpt>
      <trkpt lat="45.08933" lon="0.60944">
        <ele>109.4</ele>
        <time>2025-05-25T09:09:56Z</time>
      </trkpt>
      <trkpt lat="45.08935" lon="0.60942">
        <ele>109.6</ele>
        <time>2025-05-25T09:09:57Z</time>
      </trkpt>
      <trkpt lat="45.08936" lon="0.6094">
        <ele>109.8</ele>
        <time>2025-05-25T09:09:58Z</time>
      </trkpt>
      <trkpt lat="45.08938" lon="0.60938">
        <ele>110</ele>
        <time>2025-05-25T09:09:59Z</time>
      </trkpt>
      <trkpt lat="45.0894" lon="0.60936">
        <ele>110.4</ele>
        <time>2025-05-25T09:10:00Z</time>
      </trkpt>
      <trkpt lat="45.08942" lon="0.60935">
        <ele>110.6</ele>
        <time>2025-05-25T09:10:01Z</time>
      </trkpt>
      <trkpt lat="45.08943" lon="0.60934">
        <ele>110.8</ele>
        <time>2025-05-25T09:10:02Z</time>
      </trkpt>
      <trkpt lat="45.08945" lon="0.60932">
        <ele>111.2</ele>
        <time>2025-05-25T09:10:03Z</time>
      </trkpt>
      <trkpt lat="45.08947" lon="0.60931">
        <ele>111.4</ele>
        <time>2025-05-25T09:10:04Z</time>
      </trkpt>
      <trkpt lat="45.08949" lon="0.60929">
        <ele>111.6</ele>
        <time>2025-05-25T09:10:05Z</time>
      </trkpt>
      <trkpt lat="45.08951" lon="0.60927">
        <ele>111.8</ele>
        <time>2025-05-25T09:10:06Z</time>
      </trkpt>
      <trkpt lat="45.08953" lon="0.60926">
        <ele>112</ele>
        <time>2025-05-25T09:10:07Z</time>
      </trkpt>
      <trkpt lat="45.08955" lon="0.60924">
        <ele>112.2</ele>
        <time>2025-05-25T09:10:08Z</time>
      </trkpt>
      <trkpt lat="45.08957" lon="0.60922">
        <ele>112.6</ele>
        <time>2025-05-25T09:10:09Z</time>
      </trkpt>
      <trkpt lat="45.08958" lon="0.60921">
        <ele>112.8</ele>
        <time>2025-05-25T09:10:10Z</time>
      </trkpt>
      <trkpt lat="45.0896" lon="0.60919">
        <ele>113</ele>
        <time>2025-05-25T09:10:11Z</time>
      </trkpt>
      <trkpt lat="45.08962" lon="0.60917">
        <ele>113.2</ele>
        <time>2025-05-25T09:10:12Z</time>
      </trkpt>
      <trkpt lat="45.08965" lon="0.60916">
        <ele>113.6</ele>
        <time>2025-05-25T09:10:13Z</time>
      </trkpt>
      <trkpt lat="45.08966" lon="0.60915">
        <ele>113.8</ele>
        <time>2025-05-25T09:10:14Z</time>
      </trkpt>
      <trkpt lat="45.08968" lon="0.60913">
        <ele>114</ele>
        <time>2025-05-25T09:10:15Z</time>
      </trkpt>
      <trkpt lat="45.0897" lon="0.60912">
        <ele>114.2</ele>
        <time>2025-05-25T09:10:16Z</time>
      </trkpt>
      <trkpt lat="45.08972" lon="0.6091">
        <ele>114.4</ele>
        <time>2025-05-25T09:10:17Z</time>
      </trkpt>
      <trkpt lat="45.08974" lon="0.60908">
        <ele>114.6</ele>
        <time>2025-05-25T09:10:18Z</time>
      </trkpt>
      <trkpt lat="45.08976" lon="0.60906">
        <ele>114.8</ele>
        <time>2025-05-25T09:10:19Z</time>
      </trkpt>
      <trkpt lat="45.08977" lon="0.60905">
        <ele>115</ele>
        <time>2025-05-25T09:10:20Z</time>
      </trkpt>
      <trkpt lat="45.08979" lon="0.60904">
        <ele>115.2</ele>
        <time>2025-05-25T09:10:21Z</time>
      </trkpt>
      <trkpt lat="45.08981" lon="0.60902">
        <ele>115.4</ele>
        <time>2025-05-25T09:10:22Z</time>
      </trkpt>
      <trkpt lat="45.08984" lon="0.609">
        <ele>115.6</ele>
        <time>2025-05-25T09:10:23Z</time>
      </trkpt>
      <trkpt lat="45.08986" lon="0.60898">
        <ele>115.8</ele>
        <time>2025-05-25T09:10:24Z</time>
      </trkpt>
      <trkpt lat="45.08988" lon="0.60896">
        <ele>116</ele>
        <time>2025-05-25T09:10:25Z</time>
      </trkpt>
      <trkpt lat="45.0899" lon="0.60894">
        <ele>116.2</ele>
        <time>2025-05-25T09:10:26Z</time>
      </trkpt>
      <trkpt lat="45.08992" lon="0.60893">
        <ele>116.4</ele>
        <time>2025-05-25T09:10:27Z</time>
      </trkpt>
      <trkpt lat="45.08993" lon="0.60891">
        <ele>116.6</ele>
        <time>2025-05-25T09:10:28Z</time>
      </trkpt>
      <trkpt lat="45.08995" lon="0.6089">
        <ele>116.8</ele>
        <time>2025-05-25T09:10:29Z</time>
      </trkpt>
      <trkpt lat="45.08997" lon="0.60888">
        <ele>117</ele>
        <time>2025-05-25T09:10:30Z</time>
      </trkpt>
      <trkpt lat="45.08999" lon="0.60886">
        <ele>117.2</ele>
        <time>2025-05-25T09:10:31Z</time>
      </trkpt>
      <trkpt lat="45.09001" lon="0.60885">
        <ele>117.4</ele>
        <time>2025-05-25T09:10:32Z</time>
      </trkpt>
      <trkpt lat="45.09003" lon="0.60883">
        <ele>117.6</ele>
        <time>2025-05-25T09:10:33Z</time>
      </trkpt>
      <trkpt lat="45.09004" lon="0.60881">
        <ele>117.8</ele>
        <time>2025-05-25T09:10:34Z</time>
      </trkpt>
      <trkpt lat="45.09006" lon="0.60879">
        <ele>118</ele>
        <time>2025-05-25T09:10:35Z</time>
      </trkpt>
      <trkpt lat="45.09008" lon="0.60877">
        <ele>118</ele>
        <time>2025-05-25T09:10:36Z</time>
      </trkpt>
      <trkpt lat="45.0901" lon="0.60875">
        <ele>118.2</ele>
        <time>2025-05-25T09:10:37Z</time>
      </trkpt>
      <trkpt lat="45.09012" lon="0.60873">
        <ele>118.2</ele>
        <time>2025-05-25T09:10:38Z</time>
      </trkpt>
      <trkpt lat="45.09014" lon="0.60871">
        <ele>118.4</ele>
        <time>2025-05-25T09:10:39Z</time>
      </trkpt>
      <trkpt lat="45.09016" lon="0.60869">
        <ele>118.6</ele>
        <time>2025-05-25T09:10:40Z</time>
      </trkpt>
      <trkpt lat="45.09018" lon="0.60867">
        <ele>118.6</ele>
        <time>2025-05-25T09:10:41Z</time>
      </trkpt>
      <trkpt lat="45.0902" lon="0.60865">
        <ele>118.8</ele>
        <time>2025-05-25T09:10:42Z</time>
      </trkpt>
      <trkpt lat="45.09022" lon="0.60863">
        <ele>119</ele>
        <time>2025-05-25T09:10:43Z</time>
      </trkpt>
      <trkpt lat="45.09024" lon="0.60861">
        <ele>119.2</ele>
        <time>2025-05-25T09:10:44Z</time>
      </trkpt>
      <trkpt lat="45.09026" lon="0.60859">
        <ele>119.4</ele>
        <time>2025-05-25T09:10:45Z</time>
      </trkpt>
      <trkpt lat="45.09028" lon="0.60857">
        <ele>119.6</ele>
        <time>2025-05-25T09:10:46Z</time>
      </trkpt>
      <trkpt lat="45.0903" lon="0.60855">
        <ele>119.6</ele>
        <time>2025-05-25T09:10:47Z</time>
      </trkpt>
      <trkpt lat="45.09032" lon="0.60853">
        <ele>119.8</ele>
        <time>2025-05-25T09:10:48Z</time>
      </trkpt>
      <trkpt lat="45.09035" lon="0.60851">
        <ele>120</ele>
        <time>2025-05-25T09:10:49Z</time>
      </trkpt>
      <trkpt lat="45.09037" lon="0.60848">
        <ele>120.2</ele>
        <time>2025-05-25T09:10:50Z</time>
      </trkpt>
      <trkpt lat="45.09039" lon="0.60847">
        <ele>120.4</ele>
        <time>2025-05-25T09:10:51Z</time>
      </trkpt>
      <trkpt lat="45.09041" lon="0.60845">
        <ele>120.4</ele>
        <time>2025-05-25T09:10:52Z</time>
      </trkpt>
      <trkpt lat="45.09043" lon="0.60843">
        <ele>120.6</ele>
        <time>2025-05-25T09:10:53Z</time>
      </trkpt>
      <trkpt lat="45.09045" lon="0.60841">
        <ele>120.8</ele>
        <time>2025-05-25T09:10:54Z</time>
      </trkpt>
      <trkpt lat="45.09046" lon="0.60839">
        <ele>121</ele>
        <time>2025-05-25T09:10:55Z</time>
      </trkpt>
      <trkpt lat="45.09048" lon="0.60837">
        <ele>121.2</ele>
        <time>2025-05-25T09:10:56Z</time>
      </trkpt>
      <trkpt lat="45.0905" lon="0.60836">
        <ele>121.4</ele>
        <time>2025-05-25T09:10:57Z</time>
      </trkpt>
      <trkpt lat="45.09053" lon="0.60834">
        <ele>121.6</ele>
        <time>2025-05-25T09:10:58Z</time>
      </trkpt>
      <trkpt lat="45.09055" lon="0.60831">
        <ele>121.8</ele>
        <time>2025-05-25T09:10:59Z</time>
      </trkpt>
      <trkpt lat="45.09057" lon="0.60829">
        <ele>122</ele>
        <time>2025-05-25T09:11:00Z</time>
      </trkpt>
      <trkpt lat="45.09059" lon="0.60826">
        <ele>122</ele>
        <time>2025-05-25T09:11:01Z</time>
      </trkpt>
      <trkpt lat="45.09061" lon="0.60824">
        <ele>122.2</ele>
        <time>2025-05-25T09:11:02Z</time>
      </trkpt>
      <trkpt lat="45.09063" lon="0.60822">
        <ele>122.4</ele>
        <time>2025-05-25T09:11:03Z</time>
      </trkpt>
      <trkpt lat="45.09064" lon="0.6082">
        <ele>122.6</ele>
        <time>2025-05-25T09:11:04Z</time>
      </trkpt>
      <trkpt lat="45.09067" lon="0.60818">
        <ele>122.8</ele>
        <time>2025-05-25T09:11:05Z</time>
      </trkpt>
      <trkpt lat="45.09068" lon="0.60817">
        <ele>123</ele>
        <time>2025-05-25T09:11:06Z</time>
      </trkpt>
      <trkpt lat="45.0907" lon="0.60815">
        <ele>123.2</ele>
        <time>2025-05-25T09:11:07Z</time>
      </trkpt>
      <trkpt lat="45.09073" lon="0.60813">
        <ele>123.4</ele>
        <time>2025-05-25T09:11:08Z</time>
      </trkpt>
      <trkpt lat="45.09075" lon="0.6081">
        <ele>123.4</ele>
        <time>2025-05-25T09:11:09Z</time>
      </trkpt>
      <trkpt lat="45.09077" lon="0.60808">
        <ele>123.6</ele>
        <time>2025-05-25T09:11:10Z</time>
      </trkpt>
      <trkpt lat="45.0908" lon="0.60805">
        <ele>123.6</ele>
        <time>2025-05-25T09:11:11Z</time>
      </trkpt>
      <trkpt lat="45.09083" lon="0.60803">
        <ele>123.8</ele>
        <time>2025-05-25T09:11:12Z</time>
      </trkpt>
      <trkpt lat="45.09085" lon="0.60801">
        <ele>124</ele>
        <time>2025-05-25T09:11:13Z</time>
      </trkpt>
      <trkpt lat="45.09087" lon="0.60798">
        <ele>124</ele>
        <time>2025-05-25T09:11:14Z</time>
      </trkpt>
      <trkpt lat="45.0909" lon="0.60796">
        <ele>124.2</ele>
        <time>2025-05-25T09:11:15Z</time>
      </trkpt>
      <trkpt lat="45.09092" lon="0.60794">
        <ele>124.2</ele>
        <time>2025-05-25T09:11:16Z</time>
      </trkpt>
      <trkpt lat="45.09094" lon="0.60792">
        <ele>124.4</ele>
        <time>2025-05-25T09:11:17Z</time>
      </trkpt>
      <trkpt lat="45.09097" lon="0.6079">
        <ele>124.6</ele>
        <time>2025-05-25T09:11:18Z</time>
      </trkpt>
      <trkpt lat="45.09099" lon="0.60787">
        <ele>124.6</ele>
        <time>2025-05-25T09:11:19Z</time>
      </trkpt>
      <trkpt lat="45.09102" lon="0.60784">
        <ele>124.6</ele>
        <time>2025-05-25T09:11:20Z</time>
      </trkpt>
      <trkpt lat="45.09104" lon="0.60782">
        <ele>124.6</ele>
        <time>2025-05-25T09:11:21Z</time>
      </trkpt>
      <trkpt lat="45.09107" lon="0.60779">
        <ele>124.8</ele>
        <time>2025-05-25T09:11:22Z</time>
      </trkpt>
      <trkpt lat="45.0911" lon="0.60775">
        <ele>124.8</ele>
        <time>2025-05-25T09:11:23Z</time>
      </trkpt>
      <trkpt lat="45.09112" lon="0.60772">
        <ele>125</ele>
        <time>2025-05-25T09:11:24Z</time>
      </trkpt>
      <trkpt lat="45.09115" lon="0.60769">
        <ele>125</ele>
        <time>2025-05-25T09:11:25Z</time>
      </trkpt>
      <trkpt lat="45.09118" lon="0.60766">
        <ele>125.2</ele>
        <time>2025-05-25T09:11:26Z</time>
      </trkpt>
      <trkpt lat="45.09121" lon="0.60764">
        <ele>125.2</ele>
        <time>2025-05-25T09:11:27Z</time>
      </trkpt>
      <trkpt lat="45.09124" lon="0.60761">
        <ele>125.4</ele>
        <time>2025-05-25T09:11:28Z</time>
      </trkpt>
      <trkpt lat="45.09126" lon="0.60758">
        <ele>125.4</ele>
        <time>2025-05-25T09:11:29Z</time>
      </trkpt>
      <trkpt lat="45.09129" lon="0.60755">
        <ele>125.4</ele>
        <time>2025-05-25T09:11:30Z</time>
      </trkpt>
      <trkpt lat="45.09131" lon="0.60752">
        <ele>125.6</ele>
        <time>2025-05-25T09:11:31Z</time>
      </trkpt>
      <trkpt lat="45.09134" lon="0.60749">
        <ele>125.6</ele>
        <time>2025-05-25T09:11:32Z</time>
      </trkpt>
      <trkpt lat="45.09137" lon="0.60746">
        <ele>125.8</ele>
        <time>2025-05-25T09:11:33Z</time>
      </trkpt>
      <trkpt lat="45.09139" lon="0.60743">
        <ele>125.8</ele>
        <time>2025-05-25T09:11:34Z</time>
      </trkpt>
      <trkpt lat="45.09142" lon="0.6074">
        <ele>126</ele>
        <time>2025-05-25T09:11:35Z</time>
      </trkpt>
      <trkpt lat="45.09144" lon="0.60737">
        <ele>126</ele>
        <time>2025-05-25T09:11:36Z</time>
      </trkpt>
      <trkpt lat="45.09147" lon="0.60735">
        <ele>126</ele>
        <time>2025-05-25T09:11:37Z</time>
      </trkpt>
      <trkpt lat="45.0915" lon="0.60732">
        <ele>126.2</ele>
        <time>2025-05-25T09:11:38Z</time>
      </trkpt>
      <trkpt lat="45.09153" lon="0.60729">
        <ele>126.2</ele>
        <time>2025-05-25T09:11:39Z</time>
      </trkpt>
      <trkpt lat="45.09155" lon="0.60726">
        <ele>126.4</ele>
        <time>2025-05-25T09:11:40Z</time>
      </trkpt>
      <trkpt lat="45.09158" lon="0.60723">
        <ele>126.6</ele>
        <time>2025-05-25T09:11:41Z</time>
      </trkpt>
      <trkpt lat="45.09162" lon="0.60719">
        <ele>126.8</ele>
        <time>2025-05-25T09:11:42Z</time>
      </trkpt>
      <trkpt lat="45.09164" lon="0.60716">
        <ele>126.8</ele>
        <time>2025-05-25T09:11:43Z</time>
      </trkpt>
      <trkpt lat="45.09167" lon="0.60713">
        <ele>127</ele>
        <time>2025-05-25T09:11:44Z</time>
      </trkpt>
      <trkpt lat="45.0917" lon="0.6071">
        <ele>127</ele>
        <time>2025-05-25T09:11:45Z</time>
      </trkpt>
      <trkpt lat="45.09173" lon="0.60706">
        <ele>127.2</ele>
        <time>2025-05-25T09:11:46Z</time>
      </trkpt>
      <trkpt lat="45.09175" lon="0.60703">
        <ele>127.2</ele>
        <time>2025-05-25T09:11:47Z</time>
      </trkpt>
      <trkpt lat="45.09178" lon="0.60699">
        <ele>127.4</ele>
        <time>2025-05-25T09:11:48Z</time>
      </trkpt>
      <trkpt lat="45.09181" lon="0.60696">
        <ele>127.4</ele>
        <time>2025-05-25T09:11:49Z</time>
      </trkpt>
      <trkpt lat="45.09183" lon="0.60693">
        <ele>127.6</ele>
        <time>2025-05-25T09:11:50Z</time>
      </trkpt>
      <trkpt lat="45.09186" lon="0.6069">
        <ele>127.8</ele>
        <time>2025-05-25T09:11:51Z</time>
      </trkpt>
      <trkpt lat="45.09188" lon="0.60686">
        <ele>127.8</ele>
        <time>2025-05-25T09:11:52Z</time>
      </trkpt>
      <trkpt lat="45.09191" lon="0.60683">
        <ele>128</ele>
        <time>2025-05-25T09:11:53Z</time>
      </trkpt>
      <trkpt lat="45.09194" lon="0.6068">
        <ele>128.2</ele>
        <time>2025-05-25T09:11:54Z</time>
      </trkpt>
      <trkpt lat="45.09196" lon="0.60677">
        <ele>128.2</ele>
        <time>2025-05-25T09:11:55Z</time>
      </trkpt>
      <trkpt lat="45.09199" lon="0.60673">
        <ele>128.4</ele>
        <time>2025-05-25T09:11:56Z</time>
      </trkpt>
      <trkpt lat="45.09201" lon="0.6067">
        <ele>128.4</ele>
        <time>2025-05-25T09:11:57Z</time>
      </trkpt>
      <trkpt lat="45.09203" lon="0.60667">
        <ele>128.6</ele>
        <time>2025-05-25T09:11:58Z</time>
      </trkpt>
      <trkpt lat="45.09206" lon="0.60663">
        <ele>128.8</ele>
        <time>2025-05-25T09:11:59Z</time>
      </trkpt>
      <trkpt lat="45.09208" lon="0.60661">
        <ele>129</ele>
        <time>2025-05-25T09:12:00Z</time>
      </trkpt>
      <trkpt lat="45.0921" lon="0.60657">
        <ele>129</ele>
        <time>2025-05-25T09:12:01Z</time>
      </trkpt>
      <trkpt lat="45.09212" lon="0.60654">
        <ele>129.2</ele>
        <time>2025-05-25T09:12:02Z</time>
      </trkpt>
      <trkpt lat="45.09215" lon="0.6065">
        <ele>129.4</ele>
        <time>2025-05-25T09:12:03Z</time>
      </trkpt>
      <trkpt lat="45.09217" lon="0.60647">
        <ele>129.6</ele>
        <time>2025-05-25T09:12:04Z</time>
      </trkpt>
      <trkpt lat="45.09219" lon="0.60644">
        <ele>129.6</ele>
        <time>2025-05-25T09:12:05Z</time>
      </trkpt>
      <trkpt lat="45.09222" lon="0.6064">
        <ele>129.8</ele>
        <time>2025-05-25T09:12:06Z</time>
      </trkpt>
      <trkpt lat="45.09224" lon="0.60637">
        <ele>130</ele>
        <time>2025-05-25T09:12:07Z</time>
      </trkpt>
      <trkpt lat="45.09227" lon="0.60633">
        <ele>130.2</ele>
        <time>2025-05-25T09:12:08Z</time>
      </trkpt>
      <trkpt lat="45.09229" lon="0.60629">
        <ele>130.2</ele>
        <time>2025-05-25T09:12:09Z</time>
      </trkpt>
      <trkpt lat="45.09231" lon="0.60625">
        <ele>130.4</ele>
        <time>2025-05-25T09:12:10Z</time>
      </trkpt>
      <trkpt lat="45.09234" lon="0.6062">
        <ele>130.6</ele>
        <time>2025-05-25T09:12:11Z</time>
      </trkpt>
      <trkpt lat="45.09236" lon="0.60616">
        <ele>130.6</ele>
        <time>2025-05-25T09:12:12Z</time>
      </trkpt>
      <trkpt lat="45.09238" lon="0.60612">
        <ele>130.8</ele>
        <time>2025-05-25T09:12:13Z</time>
      </trkpt>
      <trkpt lat="45.09239" lon="0.60608">
        <ele>131</ele>
        <time>2025-05-25T09:12:14Z</time>
      </trkpt>
      <trkpt lat="45.09242" lon="0.60604">
        <ele>131</ele>
        <time>2025-05-25T09:12:15Z</time>
      </trkpt>
      <trkpt lat="45.09243" lon="0.606">
        <ele>131.2</ele>
        <time>2025-05-25T09:12:16Z</time>
      </trkpt>
      <trkpt lat="45.09245" lon="0.60595">
        <ele>131.4</ele>
        <time>2025-05-25T09:12:17Z</time>
      </trkpt>
      <trkpt lat="45.09246" lon="0.6059">
        <ele>131.4</ele>
        <time>2025-05-25T09:12:18Z</time>
      </trkpt>
      <trkpt lat="45.09248" lon="0.60586">
        <ele>131.6</ele>
        <time>2025-05-25T09:12:19Z</time>
      </trkpt>
      <trkpt lat="45.09249" lon="0.60581">
        <ele>131.8</ele>
        <time>2025-05-25T09:12:20Z</time>
      </trkpt>
      <trkpt lat="45.09251" lon="0.60577">
        <ele>131.8</ele>
        <time>2025-05-25T09:12:21Z</time>
      </trkpt>
      <trkpt lat="45.09252" lon="0.60572">
        <ele>132</ele>
        <time>2025-05-25T09:12:22Z</time>
      </trkpt>
      <trkpt lat="45.09254" lon="0.60568">
        <ele>132</ele>
        <time>2025-05-25T09:12:23Z</time>
      </trkpt>
      <trkpt lat="45.09255" lon="0.60563">
        <ele>132.2</ele>
        <time>2025-05-25T09:12:24Z</time>
      </trkpt>
      <trkpt lat="45.09257" lon="0.60558">
        <ele>132.2</ele>
        <time>2025-05-25T09:12:25Z</time>
      </trkpt>
      <trkpt lat="45.09258" lon="0.60553">
        <ele>132.2</ele>
        <time>2025-05-25T09:12:26Z</time>
      </trkpt>
      <trkpt lat="45.0926" lon="0.60549">
        <ele>132.4</ele>
        <time>2025-05-25T09:12:27Z</time>
      </trkpt>
      <trkpt lat="45.09261" lon="0.60544">
        <ele>132.6</ele>
        <time>2025-05-25T09:12:28Z</time>
      </trkpt>
      <trkpt lat="45.09263" lon="0.6054">
        <ele>132.6</ele>
        <time>2025-05-25T09:12:29Z</time>
      </trkpt>
      <trkpt lat="45.09265" lon="0.60536">
        <ele>132.8</ele>
        <time>2025-05-25T09:12:30Z</time>
      </trkpt>
      <trkpt lat="45.09266" lon="0.60532">
        <ele>133</ele>
        <time>2025-05-25T09:12:31Z</time>
      </trkpt>
      <trkpt lat="45.09268" lon="0.60528">
        <ele>133</ele>
        <time>2025-05-25T09:12:32Z</time>
      </trkpt>
      <trkpt lat="45.0927" lon="0.60523">
        <ele>133.2</ele>
        <time>2025-05-25T09:12:33Z</time>
      </trkpt>
      <trkpt lat="45.09271" lon="0.60519">
        <ele>133.4</ele>
        <time>2025-05-25T09:12:34Z</time>
      </trkpt>
      <trkpt lat="45.09273" lon="0.60516">
        <ele>133.8</ele>
        <time>2025-05-25T09:12:35Z</time>
      </trkpt>
      <trkpt lat="45.09274" lon="0.60513">
        <ele>134</ele>
        <time>2025-05-25T09:12:36Z</time>
      </trkpt>
      <trkpt lat="45.09275" lon="0.60509">
        <ele>134.2</ele>
        <time>2025-05-25T09:12:37Z</time>
      </trkpt>
      <trkpt lat="45.09276" lon="0.60505">
        <ele>134.6</ele>
        <time>2025-05-25T09:12:38Z</time>
      </trkpt>
      <trkpt lat="45.09278" lon="0.60501">
        <ele>134.8</ele>
        <time>2025-05-25T09:12:39Z</time>
      </trkpt>
      <trkpt lat="45.09279" lon="0.60498">
        <ele>135</ele>
        <time>2025-05-25T09:12:40Z</time>
      </trkpt>
      <trkpt lat="45.0928" lon="0.60495">
        <ele>135.4</ele>
        <time>2025-05-25T09:12:41Z</time>
      </trkpt>
      <trkpt lat="45.09281" lon="0.60491">
        <ele>135.8</ele>
        <time>2025-05-25T09:12:42Z</time>
      </trkpt>
      <trkpt lat="45.09282" lon="0.60488">
        <ele>136</ele>
        <time>2025-05-25T09:12:43Z</time>
      </trkpt>
      <trkpt lat="45.09284" lon="0.60484">
        <ele>136.2</ele>
        <time>2025-05-25T09:12:44Z</time>
      </trkpt>
      <trkpt lat="45.09285" lon="0.6048">
        <ele>136.4</ele>
        <time>2025-05-25T09:12:45Z</time>
      </trkpt>
      <trkpt lat="45.09286" lon="0.60477">
        <ele>136.8</ele>
        <time>2025-05-25T09:12:46Z</time>
      </trkpt>
      <trkpt lat="45.09287" lon="0.60474">
        <ele>137</ele>
        <time>2025-05-25T09:12:47Z</time>
      </trkpt>
      <trkpt lat="45.09288" lon="0.60471">
        <ele>137.2</ele>
        <time>2025-05-25T09:12:48Z</time>
      </trkpt>
      <trkpt lat="45.09289" lon="0.60468">
        <ele>137.4</ele>
        <time>2025-05-25T09:12:49Z</time>
      </trkpt>
      <trkpt lat="45.09289" lon="0.60464">
        <ele>137.6</ele>
        <time>2025-05-25T09:12:50Z</time>
      </trkpt>
      <trkpt lat="45.09289" lon="0.60461">
        <ele>138</ele>
        <time>2025-05-25T09:12:51Z</time>
      </trkpt>
      <trkpt lat="45.09289" lon="0.60458">
        <ele>138.2</ele>
        <time>2025-05-25T09:12:52Z</time>
      </trkpt>
      <trkpt lat="45.09288" lon="0.60455">
        <ele>138.4</ele>
        <time>2025-05-25T09:12:53Z</time>
      </trkpt>
      <trkpt lat="45.09288" lon="0.60451">
        <ele>138.6</ele>
        <time>2025-05-25T09:12:54Z</time>
      </trkpt>
      <trkpt lat="45.09287" lon="0.60448">
        <ele>138.8</ele>
        <time>2025-05-25T09:12:55Z</time>
      </trkpt>
      <trkpt lat="45.09287" lon="0.60446">
        <ele>138.8</ele>
        <time>2025-05-25T09:12:56Z</time>
      </trkpt>
      <trkpt lat="45.09287" lon="0.60443">
        <ele>139</ele>
        <time>2025-05-25T09:12:57Z</time>
      </trkpt>
      <trkpt lat="45.09287" lon="0.6044">
        <ele>139.2</ele>
        <time>2025-05-25T09:12:58Z</time>
      </trkpt>
      <trkpt lat="45.09287" lon="0.60437">
        <ele>139.4</ele>
        <time>2025-05-25T09:12:59Z</time>
      </trkpt>
      <trkpt lat="45.09286" lon="0.60435">
        <ele>139.6</ele>
        <time>2025-05-25T09:13:00Z</time>
      </trkpt>
      <trkpt lat="45.09286" lon="0.60432">
        <ele>139.8</ele>
        <time>2025-05-25T09:13:01Z</time>
      </trkpt>
      <trkpt lat="45.09286" lon="0.6043">
        <ele>140.2</ele>
        <time>2025-05-25T09:13:02Z</time>
      </trkpt>
      <trkpt lat="45.09286" lon="0.60427">
        <ele>140.4</ele>
        <time>2025-05-25T09:13:03Z</time>
      </trkpt>
      <trkpt lat="45.09286" lon="0.60425">
        <ele>140.6</ele>
        <time>2025-05-25T09:13:04Z</time>
      </trkpt>
      <trkpt lat="45.09286" lon="0.60422">
        <ele>140.8</ele>
        <time>2025-05-25T09:13:05Z</time>
      </trkpt>
      <trkpt lat="45.09286" lon="0.60421">
        <ele>141</ele>
        <time>2025-05-25T09:13:06Z</time>
      </trkpt>
      <trkpt lat="45.09286" lon="0.60418">
        <ele>141.2</ele>
        <time>2025-05-25T09:13:07Z</time>
      </trkpt>
      <trkpt lat="45.09286" lon="0.60416">
        <ele>141.4</ele>
        <time>2025-05-25T09:13:08Z</time>
      </trkpt>
      <trkpt lat="45.09286" lon="0.60413">
        <ele>141.8</ele>
        <time>2025-05-25T09:13:09Z</time>
      </trkpt>
      <trkpt lat="45.09286" lon="0.60411">
        <ele>142</ele>
        <time>2025-05-25T09:13:10Z</time>
      </trkpt>
      <trkpt lat="45.09286" lon="0.60409">
        <ele>142.2</ele>
        <time>2025-05-25T09:13:11Z</time>
      </trkpt>
      <trkpt lat="45.09286" lon="0.60407">
        <ele>142.6</ele>
        <time>2025-05-25T09:13:12Z</time>
      </trkpt>
      <trkpt lat="45.09286" lon="0.60405">
        <ele>142.8</ele>
        <time>2025-05-25T09:13:13Z</time>
      </trkpt>
      <trkpt lat="45.09286" lon="0.60403">
        <ele>143</ele>
        <time>2025-05-25T09:13:14Z</time>
      </trkpt>
      <trkpt lat="45.09285" lon="0.60401">
        <ele>143.2</ele>
        <time>2025-05-25T09:13:15Z</time>
      </trkpt>
      <trkpt lat="45.09286" lon="0.60399">
        <ele>143.4</ele>
        <time>2025-05-25T09:13:16Z</time>
      </trkpt>
      <trkpt lat="45.09286" lon="0.60396">
        <ele>143.6</ele>
        <time>2025-05-25T09:13:17Z</time>
      </trkpt>
      <trkpt lat="45.09286" lon="0.60393">
        <ele>143.8</ele>
        <time>2025-05-25T09:13:18Z</time>
      </trkpt>
      <trkpt lat="45.09286" lon="0.60391">
        <ele>144</ele>
        <time>2025-05-25T09:13:19Z</time>
      </trkpt>
      <trkpt lat="45.09286" lon="0.60388">
        <ele>144.2</ele>
        <time>2025-05-25T09:13:20Z</time>
      </trkpt>
      <trkpt lat="45.09286" lon="0.60386">
        <ele>144.4</ele>
        <time>2025-05-25T09:13:21Z</time>
      </trkpt>
      <trkpt lat="45.09286" lon="0.60384">
        <ele>144.4</ele>
        <time>2025-05-25T09:13:22Z</time>
      </trkpt>
      <trkpt lat="45.09286" lon="0.60382">
        <ele>144.6</ele>
        <time>2025-05-25T09:13:23Z</time>
      </trkpt>
      <trkpt lat="45.09286" lon="0.6038">
        <ele>144.8</ele>
        <time>2025-05-25T09:13:24Z</time>
      </trkpt>
      <trkpt lat="45.09286" lon="0.60378">
        <ele>145</ele>
        <time>2025-05-25T09:13:25Z</time>
      </trkpt>
      <trkpt lat="45.09287" lon="0.60376">
        <ele>145.2</ele>
        <time>2025-05-25T09:13:26Z</time>
      </trkpt>
      <trkpt lat="45.09287" lon="0.60373">
        <ele>145.4</ele>
        <time>2025-05-25T09:13:27Z</time>
      </trkpt>
      <trkpt lat="45.09287" lon="0.6037">
        <ele>145.6</ele>
        <time>2025-05-25T09:13:28Z</time>
      </trkpt>
      <trkpt lat="45.09287" lon="0.60367">
        <ele>145.8</ele>
        <time>2025-05-25T09:13:29Z</time>
      </trkpt>
      <trkpt lat="45.09287" lon="0.60365">
        <ele>146</ele>
        <time>2025-05-25T09:13:30Z</time>
      </trkpt>
      <trkpt lat="45.09287" lon="0.60363">
        <ele>146.2</ele>
        <time>2025-05-25T09:13:31Z</time>
      </trkpt>
      <trkpt lat="45.09288" lon="0.60361">
        <ele>146.4</ele>
        <time>2025-05-25T09:13:32Z</time>
      </trkpt>
      <trkpt lat="45.09288" lon="0.60359">
        <ele>146.6</ele>
        <time>2025-05-25T09:13:33Z</time>
      </trkpt>
      <trkpt lat="45.09289" lon="0.60357">
        <ele>146.8</ele>
        <time>2025-05-25T09:13:34Z</time>
      </trkpt>
      <trkpt lat="45.09289" lon="0.60355">
        <ele>147</ele>
        <time>2025-05-25T09:13:35Z</time>
      </trkpt>
      <trkpt lat="45.0929" lon="0.60353">
        <ele>147.2</ele>
        <time>2025-05-25T09:13:36Z</time>
      </trkpt>
      <trkpt lat="45.09291" lon="0.60352">
        <ele>147.4</ele>
        <time>2025-05-25T09:13:37Z</time>
      </trkpt>
      <trkpt lat="45.09292" lon="0.60349">
        <ele>147.6</ele>
        <time>2025-05-25T09:13:38Z</time>
      </trkpt>
      <trkpt lat="45.09292" lon="0.60347">
        <ele>147.6</ele>
        <time>2025-05-25T09:13:39Z</time>
      </trkpt>
      <trkpt lat="45.09292" lon="0.60345">
        <ele>147.8</ele>
        <time>2025-05-25T09:13:40Z</time>
      </trkpt>
      <trkpt lat="45.09293" lon="0.60342">
        <ele>148</ele>
        <time>2025-05-25T09:13:41Z</time>
      </trkpt>
      <trkpt lat="45.09293" lon="0.60341">
        <ele>148.2</ele>
        <time>2025-05-25T09:13:42Z</time>
      </trkpt>
      <trkpt lat="45.09294" lon="0.60339">
        <ele>148.4</ele>
        <time>2025-05-25T09:13:43Z</time>
      </trkpt>
      <trkpt lat="45.09294" lon="0.60337">
        <ele>148.4</ele>
        <time>2025-05-25T09:13:44Z</time>
      </trkpt>
      <trkpt lat="45.09294" lon="0.60335">
        <ele>148.6</ele>
        <time>2025-05-25T09:13:45Z</time>
      </trkpt>
      <trkpt lat="45.09294" lon="0.60333">
        <ele>148.8</ele>
        <time>2025-05-25T09:13:46Z</time>
      </trkpt>
      <trkpt lat="45.09294" lon="0.60331">
        <ele>149</ele>
        <time>2025-05-25T09:13:47Z</time>
      </trkpt>
      <trkpt lat="45.09294" lon="0.60329">
        <ele>149.2</ele>
        <time>2025-05-25T09:13:48Z</time>
      </trkpt>
      <trkpt lat="45.09294" lon="0.60328">
        <ele>149.4</ele>
        <time>2025-05-25T09:13:49Z</time>
      </trkpt>
      <trkpt lat="45.09294" lon="0.60326">
        <ele>149.6</ele>
        <time>2025-05-25T09:13:50Z</time>
      </trkpt>
      <trkpt lat="45.09293" lon="0.60324">
        <ele>149.8</ele>
        <time>2025-05-25T09:13:51Z</time>
      </trkpt>
      <trkpt lat="45.09293" lon="0.60323">
        <ele>150</ele>
        <time>2025-05-25T09:13:52Z</time>
      </trkpt>
      <trkpt lat="45.09293" lon="0.60321">
        <ele>150.4</ele>
        <time>2025-05-25T09:13:53Z</time>
      </trkpt>
      <trkpt lat="45.09293" lon="0.60319">
        <ele>150.6</ele>
        <time>2025-05-25T09:13:54Z</time>
      </trkpt>
      <trkpt lat="45.09293" lon="0.60317">
        <ele>150.8</ele>
        <time>2025-05-25T09:13:55Z</time>
      </trkpt>
      <trkpt lat="45.09293" lon="0.60315">
        <ele>151</ele>
        <time>2025-05-25T09:13:56Z</time>
      </trkpt>
      <trkpt lat="45.09293" lon="0.60314">
        <ele>151.2</ele>
        <time>2025-05-25T09:13:57Z</time>
      </trkpt>
      <trkpt lat="45.09293" lon="0.60311">
        <ele>151.6</ele>
        <time>2025-05-25T09:13:58Z</time>
      </trkpt>
      <trkpt lat="45.09293" lon="0.60309">
        <ele>151.8</ele>
        <time>2025-05-25T09:13:59Z</time>
      </trkpt>
      <trkpt lat="45.09294" lon="0.60307">
        <ele>152</ele>
        <time>2025-05-25T09:14:00Z</time>
      </trkpt>
      <trkpt lat="45.09294" lon="0.60304">
        <ele>152.2</ele>
        <time>2025-05-25T09:14:01Z</time>
      </trkpt>
      <trkpt lat="45.09294" lon="0.60302">
        <ele>152.4</ele>
        <time>2025-05-25T09:14:02Z</time>
      </trkpt>
      <trkpt lat="45.09295" lon="0.603">
        <ele>152.6</ele>
        <time>2025-05-25T09:14:03Z</time>
      </trkpt>
      <trkpt lat="45.09295" lon="0.60297">
        <ele>152.8</ele>
        <time>2025-05-25T09:14:04Z</time>
      </trkpt>
      <trkpt lat="45.09296" lon="0.60295">
        <ele>153</ele>
        <time>2025-05-25T09:14:05Z</time>
      </trkpt>
      <trkpt lat="45.09296" lon="0.60293">
        <ele>153.2</ele>
        <time>2025-05-25T09:14:06Z</time>
      </trkpt>
      <trkpt lat="45.09297" lon="0.60291">
        <ele>153.4</ele>
        <time>2025-05-25T09:14:07Z</time>
      </trkpt>
      <trkpt lat="45.09297" lon="0.60289">
        <ele>153.6</ele>
        <time>2025-05-25T09:14:08Z</time>
      </trkpt>
      <trkpt lat="45.09296" lon="0.60287">
        <ele>153.8</ele>
        <time>2025-05-25T09:14:09Z</time>
      </trkpt>
      <trkpt lat="45.09296" lon="0.60285">
        <ele>154</ele>
        <time>2025-05-25T09:14:10Z</time>
      </trkpt>
      <trkpt lat="45.09296" lon="0.60282">
        <ele>154.2</ele>
        <time>2025-05-25T09:14:11Z</time>
      </trkpt>
      <trkpt lat="45.09296" lon="0.6028">
        <ele>154.4</ele>
        <time>2025-05-25T09:14:12Z</time>
      </trkpt>
      <trkpt lat="45.09295" lon="0.60278">
        <ele>154.6</ele>
        <time>2025-05-25T09:14:13Z</time>
      </trkpt>
      <trkpt lat="45.09295" lon="0.60276">
        <ele>155</ele>
        <time>2025-05-25T09:14:14Z</time>
      </trkpt>
      <trkpt lat="45.09294" lon="0.60274">
        <ele>155.2</ele>
        <time>2025-05-25T09:14:15Z</time>
      </trkpt>
      <trkpt lat="45.09294" lon="0.60273">
        <ele>155.4</ele>
        <time>2025-05-25T09:14:16Z</time>
      </trkpt>
      <trkpt lat="45.09294" lon="0.6027">
        <ele>155.6</ele>
        <time>2025-05-25T09:14:17Z</time>
      </trkpt>
      <trkpt lat="45.09294" lon="0.60268">
        <ele>155.8</ele>
        <time>2025-05-25T09:14:18Z</time>
      </trkpt>
      <trkpt lat="45.09294" lon="0.60265">
        <ele>156</ele>
        <time>2025-05-25T09:14:19Z</time>
      </trkpt>
      <trkpt lat="45.09294" lon="0.60263">
        <ele>156.2</ele>
        <time>2025-05-25T09:14:20Z</time>
      </trkpt>
      <trkpt lat="45.09294" lon="0.60261">
        <ele>156.4</ele>
        <time>2025-05-25T09:14:21Z</time>
      </trkpt>
      <trkpt lat="45.09295" lon="0.60258">
        <ele>156.6</ele>
        <time>2025-05-25T09:14:22Z</time>
      </trkpt>
      <trkpt lat="45.09295" lon="0.60256">
        <ele>156.6</ele>
        <time>2025-05-25T09:14:23Z</time>
      </trkpt>
      <trkpt lat="45.09295" lon="0.60254">
        <ele>156.8</ele>
        <time>2025-05-25T09:14:24Z</time>
      </trkpt>
      <trkpt lat="45.09295" lon="0.60252">
        <ele>157</ele>
        <time>2025-05-25T09:14:25Z</time>
      </trkpt>
      <trkpt lat="45.09295" lon="0.6025">
        <ele>157.2</ele>
        <time>2025-05-25T09:14:26Z</time>
      </trkpt>
      <trkpt lat="45.09295" lon="0.60247">
        <ele>157.4</ele>
        <time>2025-05-25T09:14:27Z</time>
      </trkpt>
      <trkpt lat="45.09296" lon="0.60245">
        <ele>157.6</ele>
        <time>2025-05-25T09:14:28Z</time>
      </trkpt>
      <trkpt lat="45.09296" lon="0.60242">
        <ele>157.8</ele>
        <time>2025-05-25T09:14:29Z</time>
      </trkpt>
      <trkpt lat="45.09297" lon="0.6024">
        <ele>157.8</ele>
        <time>2025-05-25T09:14:30Z</time>
      </trkpt>
      <trkpt lat="45.09298" lon="0.60237">
        <ele>158</ele>
        <time>2025-05-25T09:14:31Z</time>
      </trkpt>
      <trkpt lat="45.09298" lon="0.60234">
        <ele>158.2</ele>
        <time>2025-05-25T09:14:32Z</time>
      </trkpt>
      <trkpt lat="45.09299" lon="0.60232">
        <ele>158.2</ele>
        <time>2025-05-25T09:14:33Z</time>
      </trkpt>
      <trkpt lat="45.093" lon="0.60229">
        <ele>158.4</ele>
        <time>2025-05-25T09:14:34Z</time>
      </trkpt>
      <trkpt lat="45.09301" lon="0.60227">
        <ele>158.4</ele>
        <time>2025-05-25T09:14:35Z</time>
      </trkpt>
      <trkpt lat="45.09301" lon="0.60224">
        <ele>158.6</ele>
        <time>2025-05-25T09:14:36Z</time>
      </trkpt>
      <trkpt lat="45.09302" lon="0.60221">
        <ele>158.8</ele>
        <time>2025-05-25T09:14:37Z</time>
      </trkpt>
      <trkpt lat="45.09302" lon="0.60219">
        <ele>159</ele>
        <time>2025-05-25T09:14:38Z</time>
      </trkpt>
      <trkpt lat="45.09303" lon="0.60217">
        <ele>159.2</ele>
        <time>2025-05-25T09:14:39Z</time>
      </trkpt>
      <trkpt lat="45.09303" lon="0.60214">
        <ele>159.6</ele>
        <time>2025-05-25T09:14:40Z</time>
      </trkpt>
      <trkpt lat="45.09304" lon="0.60212">
        <ele>159.8</ele>
        <time>2025-05-25T09:14:41Z</time>
      </trkpt>
      <trkpt lat="45.09305" lon="0.6021">
        <ele>160.2</ele>
        <time>2025-05-25T09:14:42Z</time>
      </trkpt>
      <trkpt lat="45.09305" lon="0.60207">
        <ele>160.4</ele>
        <time>2025-05-25T09:14:43Z</time>
      </trkpt>
      <trkpt lat="45.09306" lon="0.60205">
        <ele>160.6</ele>
        <time>2025-05-25T09:14:44Z</time>
      </trkpt>
      <trkpt lat="45.09307" lon="0.60203">
        <ele>160.8</ele>
        <time>2025-05-25T09:14:45Z</time>
      </trkpt>
      <trkpt lat="45.09307" lon="0.602">
        <ele>161</ele>
        <time>2025-05-25T09:14:46Z</time>
      </trkpt>
      <trkpt lat="45.09308" lon="0.60197">
        <ele>161.2</ele>
        <time>2025-05-25T09:14:47Z</time>
      </trkpt>
      <trkpt lat="45.09309" lon="0.60195">
        <ele>161.6</ele>
        <time>2025-05-25T09:14:48Z</time>
      </trkpt>
      <trkpt lat="45.0931" lon="0.60192">
        <ele>161.8</ele>
        <time>2025-05-25T09:14:49Z</time>
      </trkpt>
      <trkpt lat="45.09311" lon="0.6019">
        <ele>161.8</ele>
        <time>2025-05-25T09:14:50Z</time>
      </trkpt>
      <trkpt lat="45.09312" lon="0.60187">
        <ele>162</ele>
        <time>2025-05-25T09:14:51Z</time>
      </trkpt>
      <trkpt lat="45.09313" lon="0.60184">
        <ele>162</ele>
        <time>2025-05-25T09:14:52Z</time>
      </trkpt>
      <trkpt lat="45.09314" lon="0.60181">
        <ele>162.2</ele>
        <time>2025-05-25T09:14:53Z</time>
      </trkpt>
      <trkpt lat="45.09316" lon="0.60178">
        <ele>162.2</ele>
        <time>2025-05-25T09:14:54Z</time>
      </trkpt>
      <trkpt lat="45.09317" lon="0.60175">
        <ele>162.4</ele>
        <time>2025-05-25T09:14:55Z</time>
      </trkpt>
      <trkpt lat="45.09317" lon="0.60171">
        <ele>162.4</ele>
        <time>2025-05-25T09:14:56Z</time>
      </trkpt>
      <trkpt lat="45.09318" lon="0.60168">
        <ele>162.4</ele>
        <time>2025-05-25T09:14:57Z</time>
      </trkpt>
      <trkpt lat="45.09319" lon="0.60165">
        <ele>162.4</ele>
        <time>2025-05-25T09:14:58Z</time>
      </trkpt>
      <trkpt lat="45.0932" lon="0.60162">
        <ele>162.4</ele>
        <time>2025-05-25T09:14:59Z</time>
      </trkpt>
      <trkpt lat="45.09321" lon="0.60158">
        <ele>162.6</ele>
        <time>2025-05-25T09:15:00Z</time>
      </trkpt>
      <trkpt lat="45.09321" lon="0.60154">
        <ele>162.6</ele>
        <time>2025-05-25T09:15:01Z</time>
      </trkpt>
      <trkpt lat="45.09322" lon="0.6015">
        <ele>162.6</ele>
        <time>2025-05-25T09:15:02Z</time>
      </trkpt>
      <trkpt lat="45.09323" lon="0.60147">
        <ele>162.6</ele>
        <time>2025-05-25T09:15:03Z</time>
      </trkpt>
      <trkpt lat="45.09324" lon="0.60143">
        <ele>162.6</ele>
        <time>2025-05-25T09:15:04Z</time>
      </trkpt>
      <trkpt lat="45.09325" lon="0.60139">
        <ele>162.8</ele>
        <time>2025-05-25T09:15:05Z</time>
      </trkpt>
      <trkpt lat="45.09326" lon="0.60136">
        <ele>162.8</ele>
        <time>2025-05-25T09:15:06Z</time>
      </trkpt>
      <trkpt lat="45.09327" lon="0.60132">
        <ele>163</ele>
        <time>2025-05-25T09:15:07Z</time>
      </trkpt>
      <trkpt lat="45.09328" lon="0.60129">
        <ele>163</ele>
        <time>2025-05-25T09:15:08Z</time>
      </trkpt>
      <trkpt lat="45.09329" lon="0.60125">
        <ele>163.2</ele>
        <time>2025-05-25T09:15:09Z</time>
      </trkpt>
      <trkpt lat="45.0933" lon="0.60122">
        <ele>163.4</ele>
        <time>2025-05-25T09:15:10Z</time>
      </trkpt>
      <trkpt lat="45.09331" lon="0.60118">
        <ele>163.4</ele>
        <time>2025-05-25T09:15:11Z</time>
      </trkpt>
      <trkpt lat="45.09332" lon="0.60114">
        <ele>163.6</ele>
        <time>2025-05-25T09:15:12Z</time>
      </trkpt>
      <trkpt lat="45.09333" lon="0.60111">
        <ele>163.6</ele>
        <time>2025-05-25T09:15:13Z</time>
      </trkpt>
      <trkpt lat="45.09333" lon="0.60107">
        <ele>163.8</ele>
        <time>2025-05-25T09:15:14Z</time>
      </trkpt>
      <trkpt lat="45.09334" lon="0.60103">
        <ele>163.8</ele>
        <time>2025-05-25T09:15:15Z</time>
      </trkpt>
      <trkpt lat="45.09335" lon="0.601">
        <ele>164</ele>
        <time>2025-05-25T09:15:16Z</time>
      </trkpt>
      <trkpt lat="45.09336" lon="0.60096">
        <ele>164</ele>
        <time>2025-05-25T09:15:17Z</time>
      </trkpt>
      <trkpt lat="45.09337" lon="0.60092">
        <ele>164.2</ele>
        <time>2025-05-25T09:15:18Z</time>
      </trkpt>
      <trkpt lat="45.09337" lon="0.60088">
        <ele>164.4</ele>
        <time>2025-05-25T09:15:19Z</time>
      </trkpt>
      <trkpt lat="45.09338" lon="0.60084">
        <ele>164.4</ele>
        <time>2025-05-25T09:15:20Z</time>
      </trkpt>
      <trkpt lat="45.09339" lon="0.60081">
        <ele>164.6</ele>
        <time>2025-05-25T09:15:21Z</time>
      </trkpt>
      <trkpt lat="45.0934" lon="0.60078">
        <ele>164.8</ele>
        <time>2025-05-25T09:15:22Z</time>
      </trkpt>
      <trkpt lat="45.0934" lon="0.60074">
        <ele>165</ele>
        <time>2025-05-25T09:15:23Z</time>
      </trkpt>
      <trkpt lat="45.09341" lon="0.60071">
        <ele>165.2</ele>
        <time>2025-05-25T09:15:24Z</time>
      </trkpt>
      <trkpt lat="45.09341" lon="0.60068">
        <ele>165.4</ele>
        <time>2025-05-25T09:15:25Z</time>
      </trkpt>
      <trkpt lat="45.09342" lon="0.60065">
        <ele>165.6</ele>
        <time>2025-05-25T09:15:26Z</time>
      </trkpt>
      <trkpt lat="45.09343" lon="0.60061">
        <ele>165.8</ele>
        <time>2025-05-25T09:15:27Z</time>
      </trkpt>
      <trkpt lat="45.09344" lon="0.60057">
        <ele>166</ele>
        <time>2025-05-25T09:15:28Z</time>
      </trkpt>
      <trkpt lat="45.09345" lon="0.60054">
        <ele>166.4</ele>
        <time>2025-05-25T09:15:29Z</time>
      </trkpt>
      <trkpt lat="45.09346" lon="0.60051">
        <ele>166.6</ele>
        <time>2025-05-25T09:15:30Z</time>
      </trkpt>
      <trkpt lat="45.09347" lon="0.60048">
        <ele>166.8</ele>
        <time>2025-05-25T09:15:31Z</time>
      </trkpt>
      <trkpt lat="45.09348" lon="0.60045">
        <ele>167.2</ele>
        <time>2025-05-25T09:15:32Z</time>
      </trkpt>
      <trkpt lat="45.09349" lon="0.60042">
        <ele>167.4</ele>
        <time>2025-05-25T09:15:33Z</time>
      </trkpt>
      <trkpt lat="45.0935" lon="0.6004">
        <ele>167.8</ele>
        <time>2025-05-25T09:15:34Z</time>
      </trkpt>
      <trkpt lat="45.0935" lon="0.60037">
        <ele>168</ele>
        <time>2025-05-25T09:15:35Z</time>
      </trkpt>
      <trkpt lat="45.09351" lon="0.60034">
        <ele>168.4</ele>
        <time>2025-05-25T09:15:36Z</time>
      </trkpt>
      <trkpt lat="45.09352" lon="0.60031">
        <ele>168.6</ele>
        <time>2025-05-25T09:15:37Z</time>
      </trkpt>
      <trkpt lat="45.09352" lon="0.60029">
        <ele>169</ele>
        <time>2025-05-25T09:15:38Z</time>
      </trkpt>
      <trkpt lat="45.09353" lon="0.60027">
        <ele>169.4</ele>
        <time>2025-05-25T09:15:39Z</time>
      </trkpt>
      <trkpt lat="45.09354" lon="0.60024">
        <ele>169.8</ele>
        <time>2025-05-25T09:15:40Z</time>
      </trkpt>
      <trkpt lat="45.09355" lon="0.60022">
        <ele>170</ele>
        <time>2025-05-25T09:15:41Z</time>
      </trkpt>
      <trkpt lat="45.09356" lon="0.6002">
        <ele>170.4</ele>
        <time>2025-05-25T09:15:42Z</time>
      </trkpt>
      <trkpt lat="45.09357" lon="0.60019">
        <ele>170.8</ele>
        <time>2025-05-25T09:15:43Z</time>
      </trkpt>
      <trkpt lat="45.09358" lon="0.60017">
        <ele>171.2</ele>
        <time>2025-05-25T09:15:44Z</time>
      </trkpt>
      <trkpt lat="45.09358" lon="0.60015">
        <ele>171.4</ele>
        <time>2025-05-25T09:15:45Z</time>
      </trkpt>
      <trkpt lat="45.09359" lon="0.60013">
        <ele>171.8</ele>
        <time>2025-05-25T09:15:46Z</time>
      </trkpt>
      <trkpt lat="45.09359" lon="0.60011">
        <ele>172</ele>
        <time>2025-05-25T09:15:47Z</time>
      </trkpt>
      <trkpt lat="45.0936" lon="0.60009">
        <ele>172.2</ele>
        <time>2025-05-25T09:15:48Z</time>
      </trkpt>
      <trkpt lat="45.09361" lon="0.60006">
        <ele>172.6</ele>
        <time>2025-05-25T09:15:49Z</time>
      </trkpt>
      <trkpt lat="45.09361" lon="0.60004">
        <ele>172.8</ele>
        <time>2025-05-25T09:15:50Z</time>
      </trkpt>
      <trkpt lat="45.09362" lon="0.60002">
        <ele>173</ele>
        <time>2025-05-25T09:15:51Z</time>
      </trkpt>
      <trkpt lat="45.09363" lon="0.6">
        <ele>173.2</ele>
        <time>2025-05-25T09:15:52Z</time>
      </trkpt>
      <trkpt lat="45.09363" lon="0.59998">
        <ele>173.6</ele>
        <time>2025-05-25T09:15:53Z</time>
      </trkpt>
      <trkpt lat="45.09364" lon="0.59996">
        <ele>173.8</ele>
        <time>2025-05-25T09:15:54Z</time>
      </trkpt>
      <trkpt lat="45.09364" lon="0.59994">
        <ele>174</ele>
        <time>2025-05-25T09:15:55Z</time>
      </trkpt>
      <trkpt lat="45.09365" lon="0.59992">
        <ele>174.2</ele>
        <time>2025-05-25T09:15:56Z</time>
      </trkpt>
      <trkpt lat="45.09366" lon="0.5999">
        <ele>174.6</ele>
        <time>2025-05-25T09:15:57Z</time>
      </trkpt>
      <trkpt lat="45.09366" lon="0.59987">
        <ele>174.8</ele>
        <time>2025-05-25T09:15:58Z</time>
      </trkpt>
      <trkpt lat="45.09367" lon="0.59985">
        <ele>175</ele>
        <time>2025-05-25T09:15:59Z</time>
      </trkpt>
      <trkpt lat="45.09368" lon="0.59982">
        <ele>175.2</ele>
        <time>2025-05-25T09:16:00Z</time>
      </trkpt>
      <trkpt lat="45.09369" lon="0.59979">
        <ele>175.4</ele>
        <time>2025-05-25T09:16:01Z</time>
      </trkpt>
      <trkpt lat="45.0937" lon="0.59976">
        <ele>175.4</ele>
        <time>2025-05-25T09:16:02Z</time>
      </trkpt>
      <trkpt lat="45.09372" lon="0.59974">
        <ele>175.6</ele>
        <time>2025-05-25T09:16:03Z</time>
      </trkpt>
      <trkpt lat="45.09374" lon="0.59974">
        <ele>175.6</ele>
        <time>2025-05-25T09:16:04Z</time>
      </trkpt>
      <trkpt lat="45.09377" lon="0.59975">
        <ele>175.6</ele>
        <time>2025-05-25T09:16:05Z</time>
      </trkpt>
      <trkpt lat="45.0938" lon="0.59977">
        <ele>175.6</ele>
        <time>2025-05-25T09:16:06Z</time>
      </trkpt>
      <trkpt lat="45.09384" lon="0.59979">
        <ele>175.6</ele>
        <time>2025-05-25T09:16:07Z</time>
      </trkpt>
      <trkpt lat="45.09388" lon="0.59981">
        <ele>175.4</ele>
        <time>2025-05-25T09:16:08Z</time>
      </trkpt>
      <trkpt lat="45.09391" lon="0.59984">
        <ele>175</ele>
        <time>2025-05-25T09:16:09Z</time>
      </trkpt>
      <trkpt lat="45.09395" lon="0.59987">
        <ele>174.8</ele>
        <time>2025-05-25T09:16:10Z</time>
      </trkpt>
      <trkpt lat="45.09398" lon="0.5999">
        <ele>174.4</ele>
        <time>2025-05-25T09:16:11Z</time>
      </trkpt>
      <trkpt lat="45.09402" lon="0.59993">
        <ele>174.2</ele>
        <time>2025-05-25T09:16:12Z</time>
      </trkpt>
      <trkpt lat="45.09405" lon="0.59997">
        <ele>174</ele>
        <time>2025-05-25T09:16:13Z</time>
      </trkpt>
      <trkpt lat="45.09408" lon="0.6">
        <ele>174</ele>
        <time>2025-05-25T09:16:14Z</time>
      </trkpt>
      <trkpt lat="45.09412" lon="0.60004">
        <ele>173.8</ele>
        <time>2025-05-25T09:16:15Z</time>
      </trkpt>
      <trkpt lat="45.09415" lon="0.60009">
        <ele>173.8</ele>
        <time>2025-05-25T09:16:16Z</time>
      </trkpt>
      <trkpt lat="45.09417" lon="0.60013">
        <ele>173.6</ele>
        <time>2025-05-25T09:16:17Z</time>
      </trkpt>
      <trkpt lat="45.0942" lon="0.60017">
        <ele>173.6</ele>
        <time>2025-05-25T09:16:18Z</time>
      </trkpt>
      <trkpt lat="45.09423" lon="0.6002">
        <ele>173.6</ele>
        <time>2025-05-25T09:16:19Z</time>
      </trkpt>
      <trkpt lat="45.09425" lon="0.60024">
        <ele>173.6</ele>
        <time>2025-05-25T09:16:20Z</time>
      </trkpt>
      <trkpt lat="45.09428" lon="0.60027">
        <ele>173.4</ele>
        <time>2025-05-25T09:16:21Z</time>
      </trkpt>
      <trkpt lat="45.09431" lon="0.60031">
        <ele>173.4</ele>
        <time>2025-05-25T09:16:22Z</time>
      </trkpt>
      <trkpt lat="45.09434" lon="0.60035">
        <ele>173.6</ele>
        <time>2025-05-25T09:16:23Z</time>
      </trkpt>
      <trkpt lat="45.09436" lon="0.6004">
        <ele>173.6</ele>
        <time>2025-05-25T09:16:24Z</time>
      </trkpt>
      <trkpt lat="45.09439" lon="0.60044">
        <ele>173.8</ele>
        <time>2025-05-25T09:16:25Z</time>
      </trkpt>
      <trkpt lat="45.09441" lon="0.60048">
        <ele>173.8</ele>
        <time>2025-05-25T09:16:26Z</time>
      </trkpt>
      <trkpt lat="45.09444" lon="0.60052">
        <ele>174</ele>
        <time>2025-05-25T09:16:27Z</time>
      </trkpt>
      <trkpt lat="45.09446" lon="0.60056">
        <ele>174</ele>
        <time>2025-05-25T09:16:28Z</time>
      </trkpt>
      <trkpt lat="45.09449" lon="0.6006">
        <ele>174.2</ele>
        <time>2025-05-25T09:16:29Z</time>
      </trkpt>
      <trkpt lat="45.09451" lon="0.60065">
        <ele>174.2</ele>
        <time>2025-05-25T09:16:30Z</time>
      </trkpt>
      <trkpt lat="45.09453" lon="0.60069">
        <ele>174.4</ele>
        <time>2025-05-25T09:16:31Z</time>
      </trkpt>
      <trkpt lat="45.09456" lon="0.60072">
        <ele>174.6</ele>
        <time>2025-05-25T09:16:32Z</time>
      </trkpt>
      <trkpt lat="45.09458" lon="0.60076">
        <ele>174.6</ele>
        <time>2025-05-25T09:16:33Z</time>
      </trkpt>
      <trkpt lat="45.0946" lon="0.6008">
        <ele>174.8</ele>
        <time>2025-05-25T09:16:34Z</time>
      </trkpt>
      <trkpt lat="45.09463" lon="0.60084">
        <ele>175</ele>
        <time>2025-05-25T09:16:35Z</time>
      </trkpt>
      <trkpt lat="45.09465" lon="0.60088">
        <ele>175.2</ele>
        <time>2025-05-25T09:16:36Z</time>
      </trkpt>
      <trkpt lat="45.09467" lon="0.60092">
        <ele>175.4</ele>
        <time>2025-05-25T09:16:37Z</time>
      </trkpt>
      <trkpt lat="45.0947" lon="0.60096">
        <ele>175.8</ele>
        <time>2025-05-25T09:16:38Z</time>
      </trkpt>
      <trkpt lat="45.09472" lon="0.60099">
        <ele>176</ele>
        <time>2025-05-25T09:16:39Z</time>
      </trkpt>
      <trkpt lat="45.09474" lon="0.60103">
        <ele>176.4</ele>
        <time>2025-05-25T09:16:40Z</time>
      </trkpt>
      <trkpt lat="45.09477" lon="0.60107">
        <ele>176.6</ele>
        <time>2025-05-25T09:16:41Z</time>
      </trkpt>
      <trkpt lat="45.0948" lon="0.60111">
        <ele>176.8</ele>
        <time>2025-05-25T09:16:42Z</time>
      </trkpt>
      <trkpt lat="45.09482" lon="0.60114">
        <ele>176.8</ele>
        <time>2025-05-25T09:16:43Z</time>
      </trkpt>
      <trkpt lat="45.09484" lon="0.60117">
        <ele>177</ele>
        <time>2025-05-25T09:16:44Z</time>
      </trkpt>
      <trkpt lat="45.09487" lon="0.60121">
        <ele>177.2</ele>
        <time>2025-05-25T09:16:45Z</time>
      </trkpt>
      <trkpt lat="45.09489" lon="0.60124">
        <ele>177.4</ele>
        <time>2025-05-25T09:16:46Z</time>
      </trkpt>
      <trkpt lat="45.09491" lon="0.60128">
        <ele>177.6</ele>
        <time>2025-05-25T09:16:47Z</time>
      </trkpt>
      <trkpt lat="45.09493" lon="0.60131">
        <ele>177.8</ele>
        <time>2025-05-25T09:16:48Z</time>
      </trkpt>
      <trkpt lat="45.09495" lon="0.60134">
        <ele>178</ele>
        <time>2025-05-25T09:16:49Z</time>
      </trkpt>
      <trkpt lat="45.09497" lon="0.60137">
        <ele>178.2</ele>
        <time>2025-05-25T09:16:50Z</time>
      </trkpt>
      <trkpt lat="45.09499" lon="0.6014">
        <ele>178.6</ele>
        <time>2025-05-25T09:16:51Z</time>
      </trkpt>
      <trkpt lat="45.09501" lon="0.60144">
        <ele>178.8</ele>
        <time>2025-05-25T09:16:52Z</time>
      </trkpt>
      <trkpt lat="45.09503" lon="0.60147">
        <ele>179</ele>
        <time>2025-05-25T09:16:53Z</time>
      </trkpt>
      <trkpt lat="45.09506" lon="0.6015">
        <ele>179.4</ele>
        <time>2025-05-25T09:16:54Z</time>
      </trkpt>
      <trkpt lat="45.09508" lon="0.60153">
        <ele>179.8</ele>
        <time>2025-05-25T09:16:55Z</time>
      </trkpt>
      <trkpt lat="45.0951" lon="0.60156">
        <ele>180.2</ele>
        <time>2025-05-25T09:16:56Z</time>
      </trkpt>
      <trkpt lat="45.09512" lon="0.60159">
        <ele>180.6</ele>
        <time>2025-05-25T09:16:57Z</time>
      </trkpt>
      <trkpt lat="45.09514" lon="0.60161">
        <ele>180.8</ele>
        <time>2025-05-25T09:16:58Z</time>
      </trkpt>
      <trkpt lat="45.09516" lon="0.60164">
        <ele>181.2</ele>
        <time>2025-05-25T09:16:59Z</time>
      </trkpt>
      <trkpt lat="45.09517" lon="0.60167">
        <ele>181.4</ele>
        <time>2025-05-25T09:17:00Z</time>
      </trkpt>
      <trkpt lat="45.09519" lon="0.60169">
        <ele>181.6</ele>
        <time>2025-05-25T09:17:01Z</time>
      </trkpt>
      <trkpt lat="45.09521" lon="0.60172">
        <ele>181.8</ele>
        <time>2025-05-25T09:17:02Z</time>
      </trkpt>
      <trkpt lat="45.09523" lon="0.60174">
        <ele>182</ele>
        <time>2025-05-25T09:17:03Z</time>
      </trkpt>
      <trkpt lat="45.09525" lon="0.60176">
        <ele>182.2</ele>
        <time>2025-05-25T09:17:04Z</time>
      </trkpt>
      <trkpt lat="45.09527" lon="0.60178">
        <ele>182.4</ele>
        <time>2025-05-25T09:17:05Z</time>
      </trkpt>
      <trkpt lat="45.09529" lon="0.60181">
        <ele>182.8</ele>
        <time>2025-05-25T09:17:06Z</time>
      </trkpt>
      <trkpt lat="45.09531" lon="0.60183">
        <ele>183</ele>
        <time>2025-05-25T09:17:07Z</time>
      </trkpt>
      <trkpt lat="45.09533" lon="0.60186">
        <ele>183.2</ele>
        <time>2025-05-25T09:17:08Z</time>
      </trkpt>
      <trkpt lat="45.09535" lon="0.60188">
        <ele>183.4</ele>
        <time>2025-05-25T09:17:09Z</time>
      </trkpt>
      <trkpt lat="45.09537" lon="0.60191">
        <ele>183.6</ele>
        <time>2025-05-25T09:17:10Z</time>
      </trkpt>
      <trkpt lat="45.0954" lon="0.60192">
        <ele>183.8</ele>
        <time>2025-05-25T09:17:11Z</time>
      </trkpt>
      <trkpt lat="45.09542" lon="0.60194">
        <ele>184</ele>
        <time>2025-05-25T09:17:12Z</time>
      </trkpt>
      <trkpt lat="45.09543" lon="0.60195">
        <ele>184.2</ele>
        <time>2025-05-25T09:17:13Z</time>
      </trkpt>
      <trkpt lat="45.09545" lon="0.60197">
        <ele>184.4</ele>
        <time>2025-05-25T09:17:14Z</time>
      </trkpt>
      <trkpt lat="45.09547" lon="0.602">
        <ele>184.8</ele>
        <time>2025-05-25T09:17:15Z</time>
      </trkpt>
      <trkpt lat="45.09548" lon="0.60203">
        <ele>184.8</ele>
        <time>2025-05-25T09:17:16Z</time>
      </trkpt>
      <trkpt lat="45.09549" lon="0.60206">
        <ele>185.2</ele>
        <time>2025-05-25T09:17:17Z</time>
      </trkpt>
      <trkpt lat="45.09551" lon="0.60209">
        <ele>185.4</ele>
        <time>2025-05-25T09:17:18Z</time>
      </trkpt>
      <trkpt lat="45.09552" lon="0.60211">
        <ele>185.8</ele>
        <time>2025-05-25T09:17:19Z</time>
      </trkpt>
      <trkpt lat="45.09554" lon="0.60213">
        <ele>186.2</ele>
        <time>2025-05-25T09:17:20Z</time>
      </trkpt>
      <trkpt lat="45.09555" lon="0.60215">
        <ele>186.4</ele>
        <time>2025-05-25T09:17:21Z</time>
      </trkpt>
      <trkpt lat="45.09557" lon="0.60217">
        <ele>186.6</ele>
        <time>2025-05-25T09:17:22Z</time>
      </trkpt>
      <trkpt lat="45.09558" lon="0.6022">
        <ele>187</ele>
        <time>2025-05-25T09:17:23Z</time>
      </trkpt>
      <trkpt lat="45.0956" lon="0.60222">
        <ele>187.2</ele>
        <time>2025-05-25T09:17:24Z</time>
      </trkpt>
      <trkpt lat="45.09562" lon="0.60225">
        <ele>187.6</ele>
        <time>2025-05-25T09:17:25Z</time>
      </trkpt>
      <trkpt lat="45.09563" lon="0.60229">
        <ele>187.8</ele>
        <time>2025-05-25T09:17:26Z</time>
      </trkpt>
      <trkpt lat="45.09565" lon="0.60231">
        <ele>188</ele>
        <time>2025-05-25T09:17:27Z</time>
      </trkpt>
      <trkpt lat="45.09567" lon="0.60233">
        <ele>188.2</ele>
        <time>2025-05-25T09:17:28Z</time>
      </trkpt>
      <trkpt lat="45.09569" lon="0.60235">
        <ele>188.4</ele>
        <time>2025-05-25T09:17:29Z</time>
      </trkpt>
      <trkpt lat="45.0957" lon="0.60238">
        <ele>188.8</ele>
        <time>2025-05-25T09:17:30Z</time>
      </trkpt>
      <trkpt lat="45.09571" lon="0.60241">
        <ele>189</ele>
        <time>2025-05-25T09:17:31Z</time>
      </trkpt>
      <trkpt lat="45.09572" lon="0.60244">
        <ele>189.2</ele>
        <time>2025-05-25T09:17:32Z</time>
      </trkpt>
      <trkpt lat="45.09574" lon="0.60247">
        <ele>189.4</ele>
        <time>2025-05-25T09:17:33Z</time>
      </trkpt>
      <trkpt lat="45.09575" lon="0.6025">
        <ele>189.6</ele>
        <time>2025-05-25T09:17:34Z</time>
      </trkpt>
      <trkpt lat="45.09577" lon="0.60252">
        <ele>189.8</ele>
        <time>2025-05-25T09:17:35Z</time>
      </trkpt>
      <trkpt lat="45.09578" lon="0.60255">
        <ele>190</ele>
        <time>2025-05-25T09:17:36Z</time>
      </trkpt>
      <trkpt lat="45.0958" lon="0.60257">
        <ele>190</ele>
        <time>2025-05-25T09:17:37Z</time>
      </trkpt>
      <trkpt lat="45.09581" lon="0.6026">
        <ele>190.2</ele>
        <time>2025-05-25T09:17:38Z</time>
      </trkpt>
      <trkpt lat="45.09582" lon="0.60263">
        <ele>190.4</ele>
        <time>2025-05-25T09:17:39Z</time>
      </trkpt>
      <trkpt lat="45.09583" lon="0.60266">
        <ele>190.6</ele>
        <time>2025-05-25T09:17:40Z</time>
      </trkpt>
      <trkpt lat="45.09584" lon="0.6027">
        <ele>190.6</ele>
        <time>2025-05-25T09:17:41Z</time>
      </trkpt>
      <trkpt lat="45.09585" lon="0.60273">
        <ele>190.8</ele>
        <time>2025-05-25T09:17:42Z</time>
      </trkpt>
      <trkpt lat="45.09586" lon="0.60275">
        <ele>191</ele>
        <time>2025-05-25T09:17:43Z</time>
      </trkpt>
      <trkpt lat="45.09587" lon="0.60278">
        <ele>191.2</ele>
        <time>2025-05-25T09:17:44Z</time>
      </trkpt>
      <trkpt lat="45.09588" lon="0.60281">
        <ele>191.2</ele>
        <time>2025-05-25T09:17:45Z</time>
      </trkpt>
      <trkpt lat="45.09589" lon="0.60284">
        <ele>191.4</ele>
        <time>2025-05-25T09:17:46Z</time>
      </trkpt>
      <trkpt lat="45.09591" lon="0.60287">
        <ele>191.6</ele>
        <time>2025-05-25T09:17:47Z</time>
      </trkpt>
      <trkpt lat="45.09592" lon="0.60291">
        <ele>191.6</ele>
        <time>2025-05-25T09:17:48Z</time>
      </trkpt>
      <trkpt lat="45.09592" lon="0.60295">
        <ele>191.8</ele>
        <time>2025-05-25T09:17:49Z</time>
      </trkpt>
      <trkpt lat="45.09593" lon="0.60298">
        <ele>192</ele>
        <time>2025-05-25T09:17:50Z</time>
      </trkpt>
      <trkpt lat="45.09593" lon="0.60302">
        <ele>192</ele>
        <time>2025-05-25T09:17:51Z</time>
      </trkpt>
      <trkpt lat="45.09594" lon="0.60305">
        <ele>192</ele>
        <time>2025-05-25T09:17:52Z</time>
      </trkpt>
      <trkpt lat="45.09595" lon="0.60309">
        <ele>192.2</ele>
        <time>2025-05-25T09:17:53Z</time>
      </trkpt>
      <trkpt lat="45.09596" lon="0.60312">
        <ele>192.2</ele>
        <time>2025-05-25T09:17:54Z</time>
      </trkpt>
      <trkpt lat="45.09597" lon="0.60315">
        <ele>192.4</ele>
        <time>2025-05-25T09:17:55Z</time>
      </trkpt>
      <trkpt lat="45.09597" lon="0.60319">
        <ele>192.4</ele>
        <time>2025-05-25T09:17:56Z</time>
      </trkpt>
      <trkpt lat="45.09597" lon="0.60323">
        <ele>192.6</ele>
        <time>2025-05-25T09:17:57Z</time>
      </trkpt>
      <trkpt lat="45.09598" lon="0.60326">
        <ele>192.8</ele>
        <time>2025-05-25T09:17:58Z</time>
      </trkpt>
      <trkpt lat="45.09599" lon="0.60329">
        <ele>192.8</ele>
        <time>2025-05-25T09:17:59Z</time>
      </trkpt>
      <trkpt lat="45.09601" lon="0.60332">
        <ele>193</ele>
        <time>2025-05-25T09:18:00Z</time>
      </trkpt>
      <trkpt lat="45.09602" lon="0.60335">
        <ele>193</ele>
        <time>2025-05-25T09:18:01Z</time>
      </trkpt>
      <trkpt lat="45.09604" lon="0.60338">
        <ele>193.2</ele>
        <time>2025-05-25T09:18:02Z</time>
      </trkpt>
      <trkpt lat="45.09604" lon="0.60342">
        <ele>193.4</ele>
        <time>2025-05-25T09:18:03Z</time>
      </trkpt>
      <trkpt lat="45.09606" lon="0.60345">
        <ele>193.6</ele>
        <time>2025-05-25T09:18:04Z</time>
      </trkpt>
      <trkpt lat="45.09608" lon="0.60348">
        <ele>193.8</ele>
        <time>2025-05-25T09:18:05Z</time>
      </trkpt>
      <trkpt lat="45.09609" lon="0.60351">
        <ele>193.8</ele>
        <time>2025-05-25T09:18:06Z</time>
      </trkpt>
      <trkpt lat="45.09611" lon="0.60354">
        <ele>194</ele>
        <time>2025-05-25T09:18:07Z</time>
      </trkpt>
      <trkpt lat="45.09613" lon="0.60357">
        <ele>194.2</ele>
        <time>2025-05-25T09:18:08Z</time>
      </trkpt>
      <trkpt lat="45.09615" lon="0.60359">
        <ele>194.2</ele>
        <time>2025-05-25T09:18:09Z</time>
      </trkpt>
      <trkpt lat="45.09616" lon="0.60361">
        <ele>194.4</ele>
        <time>2025-05-25T09:18:10Z</time>
      </trkpt>
      <trkpt lat="45.09619" lon="0.60362">
        <ele>194.4</ele>
        <time>2025-05-25T09:18:11Z</time>
      </trkpt>
      <trkpt lat="45.09621" lon="0.60364">
        <ele>194.6</ele>
        <time>2025-05-25T09:18:12Z</time>
      </trkpt>
      <trkpt lat="45.09623" lon="0.60368">
        <ele>194.6</ele>
        <time>2025-05-25T09:18:13Z</time>
      </trkpt>
      <trkpt lat="45.09625" lon="0.6037">
        <ele>194.8</ele>
        <time>2025-05-25T09:18:14Z</time>
      </trkpt>
      <trkpt lat="45.09627" lon="0.60374">
        <ele>194.8</ele>
        <time>2025-05-25T09:18:15Z</time>
      </trkpt>
      <trkpt lat="45.09629" lon="0.60377">
        <ele>194.8</ele>
        <time>2025-05-25T09:18:16Z</time>
      </trkpt>
      <trkpt lat="45.09632" lon="0.6038">
        <ele>194.8</ele>
        <time>2025-05-25T09:18:17Z</time>
      </trkpt>
      <trkpt lat="45.09635" lon="0.60384">
        <ele>194.8</ele>
        <time>2025-05-25T09:18:18Z</time>
      </trkpt>
      <trkpt lat="45.09638" lon="0.60387">
        <ele>194.8</ele>
        <time>2025-05-25T09:18:19Z</time>
      </trkpt>
      <trkpt lat="45.0964" lon="0.60391">
        <ele>194.8</ele>
        <time>2025-05-25T09:18:20Z</time>
      </trkpt>
      <trkpt lat="45.09642" lon="0.60395">
        <ele>194.8</ele>
        <time>2025-05-25T09:18:21Z</time>
      </trkpt>
      <trkpt lat="45.09644" lon="0.604">
        <ele>194.6</ele>
        <time>2025-05-25T09:18:22Z</time>
      </trkpt>
      <trkpt lat="45.09646" lon="0.60405">
        <ele>194.6</ele>
        <time>2025-05-25T09:18:23Z</time>
      </trkpt>
      <trkpt lat="45.09648" lon="0.6041">
        <ele>194.6</ele>
        <time>2025-05-25T09:18:24Z</time>
      </trkpt>
      <trkpt lat="45.0965" lon="0.60415">
        <ele>194.6</ele>
        <time>2025-05-25T09:18:25Z</time>
      </trkpt>
      <trkpt lat="45.09652" lon="0.60419">
        <ele>194.4</ele>
        <time>2025-05-25T09:18:26Z</time>
      </trkpt>
      <trkpt lat="45.09654" lon="0.60424">
        <ele>194.6</ele>
        <time>2025-05-25T09:18:27Z</time>
      </trkpt>
      <trkpt lat="45.09656" lon="0.60429">
        <ele>194.6</ele>
        <time>2025-05-25T09:18:28Z</time>
      </trkpt>
      <trkpt lat="45.09658" lon="0.60434">
        <ele>194.6</ele>
        <time>2025-05-25T09:18:29Z</time>
      </trkpt>
      <trkpt lat="45.09661" lon="0.6044">
        <ele>194.6</ele>
        <time>2025-05-25T09:18:30Z</time>
      </trkpt>
      <trkpt lat="45.09663" lon="0.60446">
        <ele>194.8</ele>
        <time>2025-05-25T09:18:31Z</time>
      </trkpt>
      <trkpt lat="45.09665" lon="0.60451">
        <ele>194.8</ele>
        <time>2025-05-25T09:18:32Z</time>
      </trkpt>
      <trkpt lat="45.09667" lon="0.60457">
        <ele>194.6</ele>
        <time>2025-05-25T09:18:33Z</time>
      </trkpt>
      <trkpt lat="45.0967" lon="0.60464">
        <ele>194.6</ele>
        <time>2025-05-25T09:18:34Z</time>
      </trkpt>
      <trkpt lat="45.09671" lon="0.6047">
        <ele>194.6</ele>
        <time>2025-05-25T09:18:35Z</time>
      </trkpt>
      <trkpt lat="45.09673" lon="0.60476">
        <ele>194.6</ele>
        <time>2025-05-25T09:18:36Z</time>
      </trkpt>
      <trkpt lat="45.09675" lon="0.60483">
        <ele>194.6</ele>
        <time>2025-05-25T09:18:37Z</time>
      </trkpt>
      <trkpt lat="45.09676" lon="0.60489">
        <ele>194.6</ele>
        <time>2025-05-25T09:18:38Z</time>
      </trkpt>
      <trkpt lat="45.09677" lon="0.60495">
        <ele>194.6</ele>
        <time>2025-05-25T09:18:39Z</time>
      </trkpt>
      <trkpt lat="45.09678" lon="0.60501">
        <ele>194.6</ele>
        <time>2025-05-25T09:18:40Z</time>
      </trkpt>
      <trkpt lat="45.09679" lon="0.60508">
        <ele>194.8</ele>
        <time>2025-05-25T09:18:41Z</time>
      </trkpt>
      <trkpt lat="45.0968" lon="0.60514">
        <ele>194.8</ele>
        <time>2025-05-25T09:18:42Z</time>
      </trkpt>
      <trkpt lat="45.0968" lon="0.60521">
        <ele>194.8</ele>
        <time>2025-05-25T09:18:43Z</time>
      </trkpt>
      <trkpt lat="45.0968" lon="0.60527">
        <ele>195</ele>
        <time>2025-05-25T09:18:44Z</time>
      </trkpt>
      <trkpt lat="45.09681" lon="0.60534">
        <ele>195</ele>
        <time>2025-05-25T09:18:45Z</time>
      </trkpt>
      <trkpt lat="45.09681" lon="0.60541">
        <ele>195</ele>
        <time>2025-05-25T09:18:46Z</time>
      </trkpt>
      <trkpt lat="45.09682" lon="0.60548">
        <ele>195</ele>
        <time>2025-05-25T09:18:47Z</time>
      </trkpt>
      <trkpt lat="45.09681" lon="0.60554">
        <ele>195</ele>
        <time>2025-05-25T09:18:48Z</time>
      </trkpt>
      <trkpt lat="45.09682" lon="0.6056">
        <ele>195.2</ele>
        <time>2025-05-25T09:18:49Z</time>
      </trkpt>
      <trkpt lat="45.09682" lon="0.60567">
        <ele>195.2</ele>
        <time>2025-05-25T09:18:50Z</time>
      </trkpt>
      <trkpt lat="45.09682" lon="0.60574">
        <ele>195.4</ele>
        <time>2025-05-25T09:18:51Z</time>
      </trkpt>
      <trkpt lat="45.09683" lon="0.60581">
        <ele>195.4</ele>
        <time>2025-05-25T09:18:52Z</time>
      </trkpt>
      <trkpt lat="45.09684" lon="0.60588">
        <ele>195.4</ele>
        <time>2025-05-25T09:18:53Z</time>
      </trkpt>
      <trkpt lat="45.09684" lon="0.60595">
        <ele>195.4</ele>
        <time>2025-05-25T09:18:54Z</time>
      </trkpt>
      <trkpt lat="45.09685" lon="0.60602">
        <ele>195.4</ele>
        <time>2025-05-25T09:18:55Z</time>
      </trkpt>
      <trkpt lat="45.09685" lon="0.60608">
        <ele>195.2</ele>
        <time>2025-05-25T09:18:56Z</time>
      </trkpt>
      <trkpt lat="45.09686" lon="0.60615">
        <ele>195.2</ele>
        <time>2025-05-25T09:18:57Z</time>
      </trkpt>
      <trkpt lat="45.09686" lon="0.60622">
        <ele>195.2</ele>
        <time>2025-05-25T09:18:58Z</time>
      </trkpt>
      <trkpt lat="45.09687" lon="0.60628">
        <ele>195.2</ele>
        <time>2025-05-25T09:18:59Z</time>
      </trkpt>
      <trkpt lat="45.09687" lon="0.60634">
        <ele>195.4</ele>
        <time>2025-05-25T09:19:00Z</time>
      </trkpt>
      <trkpt lat="45.09687" lon="0.6064">
        <ele>195.6</ele>
        <time>2025-05-25T09:19:01Z</time>
      </trkpt>
      <trkpt lat="45.09687" lon="0.60646">
        <ele>195.6</ele>
        <time>2025-05-25T09:19:02Z</time>
      </trkpt>
      <trkpt lat="45.09687" lon="0.60653">
        <ele>195.8</ele>
        <time>2025-05-25T09:19:03Z</time>
      </trkpt>
      <trkpt lat="45.09688" lon="0.60659">
        <ele>195.8</ele>
        <time>2025-05-25T09:19:04Z</time>
      </trkpt>
      <trkpt lat="45.09688" lon="0.60666">
        <ele>196</ele>
        <time>2025-05-25T09:19:05Z</time>
      </trkpt>
      <trkpt lat="45.09689" lon="0.60672">
        <ele>195.8</ele>
        <time>2025-05-25T09:19:06Z</time>
      </trkpt>
      <trkpt lat="45.09689" lon="0.60679">
        <ele>196</ele>
        <time>2025-05-25T09:19:07Z</time>
      </trkpt>
      <trkpt lat="45.09689" lon="0.60685">
        <ele>196</ele>
        <time>2025-05-25T09:19:08Z</time>
      </trkpt>
      <trkpt lat="45.09689" lon="0.60692">
        <ele>196.2</ele>
        <time>2025-05-25T09:19:09Z</time>
      </trkpt>
      <trkpt lat="45.09689" lon="0.60699">
        <ele>196.2</ele>
        <time>2025-05-25T09:19:10Z</time>
      </trkpt>
      <trkpt lat="45.09689" lon="0.60705">
        <ele>196.4</ele>
        <time>2025-05-25T09:19:11Z</time>
      </trkpt>
      <trkpt lat="45.0969" lon="0.60712">
        <ele>196.6</ele>
        <time>2025-05-25T09:19:12Z</time>
      </trkpt>
      <trkpt lat="45.0969" lon="0.60718">
        <ele>196.6</ele>
        <time>2025-05-25T09:19:13Z</time>
      </trkpt>
      <trkpt lat="45.0969" lon="0.60724">
        <ele>196.8</ele>
        <time>2025-05-25T09:19:14Z</time>
      </trkpt>
      <trkpt lat="45.09691" lon="0.6073">
        <ele>196.8</ele>
        <time>2025-05-25T09:19:15Z</time>
      </trkpt>
      <trkpt lat="45.09691" lon="0.60736">
        <ele>197</ele>
        <time>2025-05-25T09:19:16Z</time>
      </trkpt>
      <trkpt lat="45.09692" lon="0.60743">
        <ele>197.2</ele>
        <time>2025-05-25T09:19:17Z</time>
      </trkpt>
      <trkpt lat="45.09692" lon="0.60749">
        <ele>197.2</ele>
        <time>2025-05-25T09:19:18Z</time>
      </trkpt>
      <trkpt lat="45.09693" lon="0.60754">
        <ele>197.4</ele>
        <time>2025-05-25T09:19:19Z</time>
      </trkpt>
      <trkpt lat="45.09693" lon="0.60761">
        <ele>197.6</ele>
        <time>2025-05-25T09:19:20Z</time>
      </trkpt>
      <trkpt lat="45.09693" lon="0.60767">
        <ele>197.8</ele>
        <time>2025-05-25T09:19:21Z</time>
      </trkpt>
      <trkpt lat="45.09694" lon="0.60773">
        <ele>198</ele>
        <time>2025-05-25T09:19:22Z</time>
      </trkpt>
      <trkpt lat="45.09694" lon="0.60778">
        <ele>198.2</ele>
        <time>2025-05-25T09:19:23Z</time>
      </trkpt>
      <trkpt lat="45.09695" lon="0.60783">
        <ele>198.4</ele>
        <time>2025-05-25T09:19:24Z</time>
      </trkpt>
      <trkpt lat="45.09696" lon="0.60789">
        <ele>198.6</ele>
        <time>2025-05-25T09:19:25Z</time>
      </trkpt>
      <trkpt lat="45.09697" lon="0.60794">
        <ele>199</ele>
        <time>2025-05-25T09:19:26Z</time>
      </trkpt>
      <trkpt lat="45.09697" lon="0.608">
        <ele>199.2</ele>
        <time>2025-05-25T09:19:27Z</time>
      </trkpt>
      <trkpt lat="45.09698" lon="0.60805">
        <ele>199.4</ele>
        <time>2025-05-25T09:19:28Z</time>
      </trkpt>
      <trkpt lat="45.09698" lon="0.6081">
        <ele>199.6</ele>
        <time>2025-05-25T09:19:29Z</time>
      </trkpt>
      <trkpt lat="45.09699" lon="0.60816">
        <ele>199.6</ele>
        <time>2025-05-25T09:19:30Z</time>
      </trkpt>
      <trkpt lat="45.09699" lon="0.60821">
        <ele>199.8</ele>
        <time>2025-05-25T09:19:31Z</time>
      </trkpt>
      <trkpt lat="45.097" lon="0.60826">
        <ele>200</ele>
        <time>2025-05-25T09:19:32Z</time>
      </trkpt>
      <trkpt lat="45.09701" lon="0.60831">
        <ele>200.2</ele>
        <time>2025-05-25T09:19:33Z</time>
      </trkpt>
      <trkpt lat="45.09701" lon="0.60837">
        <ele>200.2</ele>
        <time>2025-05-25T09:19:34Z</time>
      </trkpt>
      <trkpt lat="45.09702" lon="0.60842">
        <ele>200.4</ele>
        <time>2025-05-25T09:19:35Z</time>
      </trkpt>
      <trkpt lat="45.09703" lon="0.60847">
        <ele>200.6</ele>
        <time>2025-05-25T09:19:36Z</time>
      </trkpt>
      <trkpt lat="45.09703" lon="0.60852">
        <ele>200.6</ele>
        <time>2025-05-25T09:19:37Z</time>
      </trkpt>
      <trkpt lat="45.09704" lon="0.60858">
        <ele>200.8</ele>
        <time>2025-05-25T09:19:38Z</time>
      </trkpt>
      <trkpt lat="45.09705" lon="0.60864">
        <ele>200.8</ele>
        <time>2025-05-25T09:19:39Z</time>
      </trkpt>
      <trkpt lat="45.09706" lon="0.60869">
        <ele>201</ele>
        <time>2025-05-25T09:19:40Z</time>
      </trkpt>
      <trkpt lat="45.09708" lon="0.60874">
        <ele>201</ele>
        <time>2025-05-25T09:19:41Z</time>
      </trkpt>
      <trkpt lat="45.09709" lon="0.6088">
        <ele>201.2</ele>
        <time>2025-05-25T09:19:42Z</time>
      </trkpt>
      <trkpt lat="45.0971" lon="0.60885">
        <ele>201.2</ele>
        <time>2025-05-25T09:19:43Z</time>
      </trkpt>
      <trkpt lat="45.09711" lon="0.60891">
        <ele>201.4</ele>
        <time>2025-05-25T09:19:44Z</time>
      </trkpt>
      <trkpt lat="45.09713" lon="0.60896">
        <ele>201.4</ele>
        <time>2025-05-25T09:19:45Z</time>
      </trkpt>
      <trkpt lat="45.09715" lon="0.60902">
        <ele>201.4</ele>
        <time>2025-05-25T09:19:46Z</time>
      </trkpt>
      <trkpt lat="45.09718" lon="0.60906">
        <ele>201.4</ele>
        <time>2025-05-25T09:19:47Z</time>
      </trkpt>
      <trkpt lat="45.09722" lon="0.60908">
        <ele>201.4</ele>
        <time>2025-05-25T09:19:48Z</time>
      </trkpt>
      <trkpt lat="45.09726" lon="0.60909">
        <ele>201.2</ele>
        <time>2025-05-25T09:19:49Z</time>
      </trkpt>
      <trkpt lat="45.0973" lon="0.6091">
        <ele>201.2</ele>
        <time>2025-05-25T09:19:50Z</time>
      </trkpt>
      <trkpt lat="45.09733" lon="0.6091">
        <ele>201.2</ele>
        <time>2025-05-25T09:19:51Z</time>
      </trkpt>
      <trkpt lat="45.09737" lon="0.6091">
        <ele>201.2</ele>
        <time>2025-05-25T09:19:52Z</time>
      </trkpt>
      <trkpt lat="45.0974" lon="0.60909">
        <ele>201</ele>
        <time>2025-05-25T09:19:53Z</time>
      </trkpt>
      <trkpt lat="45.09744" lon="0.60908">
        <ele>201</ele>
        <time>2025-05-25T09:19:54Z</time>
      </trkpt>
      <trkpt lat="45.09747" lon="0.60907">
        <ele>200.8</ele>
        <time>2025-05-25T09:19:55Z</time>
      </trkpt>
      <trkpt lat="45.09751" lon="0.60907">
        <ele>200.8</ele>
        <time>2025-05-25T09:19:56Z</time>
      </trkpt>
      <trkpt lat="45.09755" lon="0.60907">
        <ele>200.6</ele>
        <time>2025-05-25T09:19:57Z</time>
      </trkpt>
      <trkpt lat="45.09759" lon="0.60907">
        <ele>200.4</ele>
        <time>2025-05-25T09:19:58Z</time>
      </trkpt>
      <trkpt lat="45.09763" lon="0.60906">
        <ele>200.4</ele>
        <time>2025-05-25T09:19:59Z</time>
      </trkpt>
      <trkpt lat="45.09767" lon="0.60906">
        <ele>200.4</ele>
        <time>2025-05-25T09:20:00Z</time>
      </trkpt>
      <trkpt lat="45.09771" lon="0.60906">
        <ele>200.2</ele>
        <time>2025-05-25T09:20:01Z</time>
      </trkpt>
      <trkpt lat="45.09776" lon="0.60906">
        <ele>200</ele>
        <time>2025-05-25T09:20:02Z</time>
      </trkpt>
      <trkpt lat="45.0978" lon="0.60906">
        <ele>199.8</ele>
        <time>2025-05-25T09:20:03Z</time>
      </trkpt>
      <trkpt lat="45.09785" lon="0.60907">
        <ele>199.6</ele>
        <time>2025-05-25T09:20:04Z</time>
      </trkpt>
      <trkpt lat="45.0979" lon="0.60908">
        <ele>199.2</ele>
        <time>2025-05-25T09:20:05Z</time>
      </trkpt>
      <trkpt lat="45.09796" lon="0.60909">
        <ele>198.8</ele>
        <time>2025-05-25T09:20:06Z</time>
      </trkpt>
      <trkpt lat="45.09801" lon="0.60909">
        <ele>198.4</ele>
        <time>2025-05-25T09:20:07Z</time>
      </trkpt>
      <trkpt lat="45.09807" lon="0.6091">
        <ele>198</ele>
        <time>2025-05-25T09:20:08Z</time>
      </trkpt>
      <trkpt lat="45.09814" lon="0.60911">
        <ele>197.8</ele>
        <time>2025-05-25T09:20:09Z</time>
      </trkpt>
      <trkpt lat="45.0982" lon="0.60913">
        <ele>197.4</ele>
        <time>2025-05-25T09:20:10Z</time>
      </trkpt>
      <trkpt lat="45.09827" lon="0.60914">
        <ele>196.8</ele>
        <time>2025-05-25T09:20:11Z</time>
      </trkpt>
      <trkpt lat="45.09834" lon="0.60915">
        <ele>196.4</ele>
        <time>2025-05-25T09:20:12Z</time>
      </trkpt>
      <trkpt lat="45.09841" lon="0.60917">
        <ele>195.8</ele>
        <time>2025-05-25T09:20:13Z</time>
      </trkpt>
      <trkpt lat="45.09848" lon="0.60918">
        <ele>195.4</ele>
        <time>2025-05-25T09:20:14Z</time>
      </trkpt>
      <trkpt lat="45.09856" lon="0.60919">
        <ele>195.2</ele>
        <time>2025-05-25T09:20:15Z</time>
      </trkpt>
      <trkpt lat="45.09864" lon="0.60921">
        <ele>194.8</ele>
        <time>2025-05-25T09:20:16Z</time>
      </trkpt>
      <trkpt lat="45.09872" lon="0.60924">
        <ele>194</ele>
        <time>2025-05-25T09:20:17Z</time>
      </trkpt>
      <trkpt lat="45.09879" lon="0.60926">
        <ele>193.4</ele>
        <time>2025-05-25T09:20:18Z</time>
      </trkpt>
      <trkpt lat="45.09886" lon="0.60926">
        <ele>192.8</ele>
        <time>2025-05-25T09:20:19Z</time>
      </trkpt>
      <trkpt lat="45.09893" lon="0.60925">
        <ele>192</ele>
        <time>2025-05-25T09:20:20Z</time>
      </trkpt>
      <trkpt lat="45.09901" lon="0.60923">
        <ele>191.2</ele>
        <time>2025-05-25T09:20:21Z</time>
      </trkpt>
      <trkpt lat="45.09908" lon="0.6092">
        <ele>190.4</ele>
        <time>2025-05-25T09:20:22Z</time>
      </trkpt>
      <trkpt lat="45.09915" lon="0.60916">
        <ele>189.6</ele>
        <time>2025-05-25T09:20:23Z</time>
      </trkpt>
      <trkpt lat="45.09923" lon="0.60911">
        <ele>188.8</ele>
        <time>2025-05-25T09:20:24Z</time>
      </trkpt>
      <trkpt lat="45.09931" lon="0.60906">
        <ele>188</ele>
        <time>2025-05-25T09:20:25Z</time>
      </trkpt>
      <trkpt lat="45.09938" lon="0.60902">
        <ele>187.2</ele>
        <time>2025-05-25T09:20:26Z</time>
      </trkpt>
      <trkpt lat="45.09945" lon="0.60896">
        <ele>186.2</ele>
        <time>2025-05-25T09:20:27Z</time>
      </trkpt>
      <trkpt lat="45.0995" lon="0.6089">
        <ele>185.4</ele>
        <time>2025-05-25T09:20:28Z</time>
      </trkpt>
      <trkpt lat="45.09954" lon="0.60882">
        <ele>184.4</ele>
        <time>2025-05-25T09:20:29Z</time>
      </trkpt>
      <trkpt lat="45.09958" lon="0.60874">
        <ele>183.6</ele>
        <time>2025-05-25T09:20:30Z</time>
      </trkpt>
      <trkpt lat="45.09961" lon="0.60866">
        <ele>183</ele>
        <time>2025-05-25T09:20:31Z</time>
      </trkpt>
      <trkpt lat="45.09964" lon="0.60861">
        <ele>182.6</ele>
        <time>2025-05-25T09:20:32Z</time>
      </trkpt>
      <trkpt lat="45.09966" lon="0.60857">
        <ele>182.4</ele>
        <time>2025-05-25T09:20:33Z</time>
      </trkpt>
      <trkpt lat="45.09967" lon="0.60854">
        <ele>182.4</ele>
        <time>2025-05-25T09:20:34Z</time>
      </trkpt>
      <trkpt lat="45.09967" lon="0.6085">
        <ele>182.6</ele>
        <time>2025-05-25T09:20:35Z</time>
      </trkpt>
      <trkpt lat="45.09966" lon="0.60846">
        <ele>182.6</ele>
        <time>2025-05-25T09:20:36Z</time>
      </trkpt>
      <trkpt lat="45.09965" lon="0.60842">
        <ele>182.6</ele>
        <time>2025-05-25T09:20:37Z</time>
      </trkpt>
      <trkpt lat="45.09966" lon="0.60838">
        <ele>182.6</ele>
        <time>2025-05-25T09:20:38Z</time>
      </trkpt>
      <trkpt lat="45.09967" lon="0.60832">
        <ele>182.4</ele>
        <time>2025-05-25T09:20:39Z</time>
      </trkpt>
      <trkpt lat="45.09967" lon="0.60827">
        <ele>182.2</ele>
        <time>2025-05-25T09:20:40Z</time>
      </trkpt>
      <trkpt lat="45.09969" lon="0.60821">
        <ele>181.8</ele>
        <time>2025-05-25T09:20:41Z</time>
      </trkpt>
      <trkpt lat="45.0997" lon="0.60815">
        <ele>181.6</ele>
        <time>2025-05-25T09:20:42Z</time>
      </trkpt>
      <trkpt lat="45.09971" lon="0.60809">
        <ele>181.2</ele>
        <time>2025-05-25T09:20:43Z</time>
      </trkpt>
      <trkpt lat="45.09971" lon="0.60803">
        <ele>180.8</ele>
        <time>2025-05-25T09:20:44Z</time>
      </trkpt>
      <trkpt lat="45.09969" lon="0.60798">
        <ele>180.4</ele>
        <time>2025-05-25T09:20:45Z</time>
      </trkpt>
      <trkpt lat="45.09966" lon="0.60792">
        <ele>180.2</ele>
        <time>2025-05-25T09:20:46Z</time>
      </trkpt>
      <trkpt lat="45.09963" lon="0.60787">
        <ele>179.8</ele>
        <time>2025-05-25T09:20:47Z</time>
      </trkpt>
      <trkpt lat="45.09959" lon="0.60781">
        <ele>179.4</ele>
        <time>2025-05-25T09:20:48Z</time>
      </trkpt>
      <trkpt lat="45.09956" lon="0.60775">
        <ele>179</ele>
        <time>2025-05-25T09:20:49Z</time>
      </trkpt>
      <trkpt lat="45.09952" lon="0.6077">
        <ele>178.6</ele>
        <time>2025-05-25T09:20:50Z</time>
      </trkpt>
      <trkpt lat="45.09948" lon="0.60764">
        <ele>178.2</ele>
        <time>2025-05-25T09:20:51Z</time>
      </trkpt>
      <trkpt lat="45.09944" lon="0.60758">
        <ele>177.8</ele>
        <time>2025-05-25T09:20:52Z</time>
      </trkpt>
      <trkpt lat="45.0994" lon="0.60752">
        <ele>177.4</ele>
        <time>2025-05-25T09:20:53Z</time>
      </trkpt>
      <trkpt lat="45.09935" lon="0.60745">
        <ele>176.8</ele>
        <time>2025-05-25T09:20:54Z</time>
      </trkpt>
      <trkpt lat="45.09931" lon="0.60737">
        <ele>176</ele>
        <time>2025-05-25T09:20:55Z</time>
      </trkpt>
      <trkpt lat="45.09928" lon="0.60728">
        <ele>175.2</ele>
        <time>2025-05-25T09:20:56Z</time>
      </trkpt>
      <trkpt lat="45.09926" lon="0.60717">
        <ele>174</ele>
        <time>2025-05-25T09:20:57Z</time>
      </trkpt>
      <trkpt lat="45.09925" lon="0.60706">
        <ele>173</ele>
        <time>2025-05-25T09:20:58Z</time>
      </trkpt>
      <trkpt lat="45.09926" lon="0.60696">
        <ele>172.2</ele>
        <time>2025-05-25T09:20:59Z</time>
      </trkpt>
      <trkpt lat="45.09926" lon="0.60684">
        <ele>171.6</ele>
        <time>2025-05-25T09:21:00Z</time>
      </trkpt>
      <trkpt lat="45.09928" lon="0.60672">
        <ele>170.8</ele>
        <time>2025-05-25T09:21:01Z</time>
      </trkpt>
      <trkpt lat="45.0993" lon="0.60661">
        <ele>170.2</ele>
        <time>2025-05-25T09:21:02Z</time>
      </trkpt>
      <trkpt lat="45.09934" lon="0.6065">
        <ele>169.6</ele>
        <time>2025-05-25T09:21:03Z</time>
      </trkpt>
      <trkpt lat="45.09939" lon="0.60638">
        <ele>168.8</ele>
        <time>2025-05-25T09:21:04Z</time>
      </trkpt>
      <trkpt lat="45.09943" lon="0.60627">
        <ele>168</ele>
        <time>2025-05-25T09:21:05Z</time>
      </trkpt>
      <trkpt lat="45.09948" lon="0.60616">
        <ele>166.8</ele>
        <time>2025-05-25T09:21:06Z</time>
      </trkpt>
      <trkpt lat="45.09951" lon="0.60605">
        <ele>165.2</ele>
        <time>2025-05-25T09:21:07Z</time>
      </trkpt>
      <trkpt lat="45.09952" lon="0.60593">
        <ele>163.8</ele>
        <time>2025-05-25T09:21:08Z</time>
      </trkpt>
      <trkpt lat="45.09953" lon="0.6058">
        <ele>162.4</ele>
        <time>2025-05-25T09:21:09Z</time>
      </trkpt>
      <trkpt lat="45.09953" lon="0.60567">
        <ele>161.2</ele>
        <time>2025-05-25T09:21:10Z</time>
      </trkpt>
      <trkpt lat="45.09954" lon="0.60554">
        <ele>160.4</ele>
        <time>2025-05-25T09:21:11Z</time>
      </trkpt>
      <trkpt lat="45.09954" lon="0.6054">
        <ele>159</ele>
        <time>2025-05-25T09:21:12Z</time>
      </trkpt>
      <trkpt lat="45.09951" lon="0.60526">
        <ele>158</ele>
        <time>2025-05-25T09:21:13Z</time>
      </trkpt>
      <trkpt lat="45.09949" lon="0.60512">
        <ele>157.2</ele>
        <time>2025-05-25T09:21:14Z</time>
      </trkpt>
      <trkpt lat="45.09944" lon="0.60499">
        <ele>156</ele>
        <time>2025-05-25T09:21:15Z</time>
      </trkpt>
      <trkpt lat="45.0994" lon="0.60486">
        <ele>154.8</ele>
        <time>2025-05-25T09:21:16Z</time>
      </trkpt>
      <trkpt lat="45.09938" lon="0.60474">
        <ele>153.6</ele>
        <time>2025-05-25T09:21:17Z</time>
      </trkpt>
      <trkpt lat="45.09939" lon="0.6046">
        <ele>152.6</ele>
        <time>2025-05-25T09:21:18Z</time>
      </trkpt>
      <trkpt lat="45.09941" lon="0.60447">
        <ele>151.8</ele>
        <time>2025-05-25T09:21:19Z</time>
      </trkpt>
      <trkpt lat="45.09944" lon="0.60435">
        <ele>151.2</ele>
        <time>2025-05-25T09:21:20Z</time>
      </trkpt>
      <trkpt lat="45.09947" lon="0.60424">
        <ele>150.8</ele>
        <time>2025-05-25T09:21:21Z</time>
      </trkpt>
      <trkpt lat="45.09951" lon="0.60411">
        <ele>150.4</ele>
        <time>2025-05-25T09:21:22Z</time>
      </trkpt>
      <trkpt lat="45.09953" lon="0.60398">
        <ele>150</ele>
        <time>2025-05-25T09:21:23Z</time>
      </trkpt>
      <trkpt lat="45.09955" lon="0.60385">
        <ele>149.4</ele>
        <time>2025-05-25T09:21:24Z</time>
      </trkpt>
      <trkpt lat="45.09956" lon="0.60373">
        <ele>149</ele>
        <time>2025-05-25T09:21:25Z</time>
      </trkpt>
      <trkpt lat="45.09957" lon="0.60361">
        <ele>148.8</ele>
        <time>2025-05-25T09:21:26Z</time>
      </trkpt>
      <trkpt lat="45.09957" lon="0.60349">
        <ele>148.6</ele>
        <time>2025-05-25T09:21:27Z</time>
      </trkpt>
      <trkpt lat="45.09957" lon="0.60337">
        <ele>148.6</ele>
        <time>2025-05-25T09:21:28Z</time>
      </trkpt>
      <trkpt lat="45.09957" lon="0.60326">
        <ele>148.4</ele>
        <time>2025-05-25T09:21:29Z</time>
      </trkpt>
      <trkpt lat="45.09957" lon="0.60315">
        <ele>148.2</ele>
        <time>2025-05-25T09:21:30Z</time>
      </trkpt>
      <trkpt lat="45.09956" lon="0.60305">
        <ele>148</ele>
        <time>2025-05-25T09:21:31Z</time>
      </trkpt>
      <trkpt lat="45.09956" lon="0.60295">
        <ele>147.6</ele>
        <time>2025-05-25T09:21:32Z</time>
      </trkpt>
      <trkpt lat="45.09955" lon="0.60284">
        <ele>147.2</ele>
        <time>2025-05-25T09:21:33Z</time>
      </trkpt>
      <trkpt lat="45.09951" lon="0.60275">
        <ele>146.6</ele>
        <time>2025-05-25T09:21:34Z</time>
      </trkpt>
      <trkpt lat="45.09947" lon="0.60265">
        <ele>146.2</ele>
        <time>2025-05-25T09:21:35Z</time>
      </trkpt>
      <trkpt lat="45.09941" lon="0.60255">
        <ele>145.4</ele>
        <time>2025-05-25T09:21:36Z</time>
      </trkpt>
      <trkpt lat="45.09936" lon="0.60244">
        <ele>144.8</ele>
        <time>2025-05-25T09:21:37Z</time>
      </trkpt>
      <trkpt lat="45.0993" lon="0.60234">
        <ele>144.2</ele>
        <time>2025-05-25T09:21:38Z</time>
      </trkpt>
      <trkpt lat="45.09925" lon="0.60223">
        <ele>143.4</ele>
        <time>2025-05-25T09:21:39Z</time>
      </trkpt>
      <trkpt lat="45.09921" lon="0.60209">
        <ele>142.6</ele>
        <time>2025-05-25T09:21:40Z</time>
      </trkpt>
      <trkpt lat="45.09919" lon="0.60197">
        <ele>141.8</ele>
        <time>2025-05-25T09:21:41Z</time>
      </trkpt>
      <trkpt lat="45.09918" lon="0.60183">
        <ele>141</ele>
        <time>2025-05-25T09:21:42Z</time>
      </trkpt>
      <trkpt lat="45.09921" lon="0.6017">
        <ele>140</ele>
        <time>2025-05-25T09:21:43Z</time>
      </trkpt>
      <trkpt lat="45.09925" lon="0.60156">
        <ele>138.6</ele>
        <time>2025-05-25T09:21:44Z</time>
      </trkpt>
      <trkpt lat="45.09931" lon="0.60144">
        <ele>137.4</ele>
        <time>2025-05-25T09:21:45Z</time>
      </trkpt>
      <trkpt lat="45.09936" lon="0.6013">
        <ele>135.8</ele>
        <time>2025-05-25T09:21:46Z</time>
      </trkpt>
      <trkpt lat="45.0994" lon="0.60115">
        <ele>134.2</ele>
        <time>2025-05-25T09:21:47Z</time>
      </trkpt>
      <trkpt lat="45.09943" lon="0.60099">
        <ele>132.6</ele>
        <time>2025-05-25T09:21:48Z</time>
      </trkpt>
      <trkpt lat="45.09943" lon="0.60084">
        <ele>131.2</ele>
        <time>2025-05-25T09:21:49Z</time>
      </trkpt>
      <trkpt lat="45.09943" lon="0.60069">
        <ele>130</ele>
        <time>2025-05-25T09:21:50Z</time>
      </trkpt>
      <trkpt lat="45.09939" lon="0.60054">
        <ele>128.8</ele>
        <time>2025-05-25T09:21:51Z</time>
      </trkpt>
      <trkpt lat="45.09935" lon="0.60041">
        <ele>128</ele>
        <time>2025-05-25T09:21:52Z</time>
      </trkpt>
      <trkpt lat="45.09929" lon="0.60028">
        <ele>127.4</ele>
        <time>2025-05-25T09:21:53Z</time>
      </trkpt>
      <trkpt lat="45.09924" lon="0.60015">
        <ele>126.8</ele>
        <time>2025-05-25T09:21:54Z</time>
      </trkpt>
      <trkpt lat="45.09921" lon="0.60003">
        <ele>126.4</ele>
        <time>2025-05-25T09:21:55Z</time>
      </trkpt>
      <trkpt lat="45.0992" lon="0.59991">
        <ele>125.8</ele>
        <time>2025-05-25T09:21:56Z</time>
      </trkpt>
      <trkpt lat="45.09921" lon="0.59977">
        <ele>125.2</ele>
        <time>2025-05-25T09:21:57Z</time>
      </trkpt>
      <trkpt lat="45.09924" lon="0.59964">
        <ele>124.6</ele>
        <time>2025-05-25T09:21:58Z</time>
      </trkpt>
      <trkpt lat="45.09925" lon="0.5995">
        <ele>123.8</ele>
        <time>2025-05-25T09:21:59Z</time>
      </trkpt>
      <trkpt lat="45.09927" lon="0.59935">
        <ele>122.8</ele>
        <time>2025-05-25T09:22:00Z</time>
      </trkpt>
      <trkpt lat="45.09929" lon="0.59918">
        <ele>121.6</ele>
        <time>2025-05-25T09:22:01Z</time>
      </trkpt>
      <trkpt lat="45.09931" lon="0.59902">
        <ele>120</ele>
        <time>2025-05-25T09:22:02Z</time>
      </trkpt>
      <trkpt lat="45.09933" lon="0.59886">
        <ele>118.8</ele>
        <time>2025-05-25T09:22:03Z</time>
      </trkpt>
      <trkpt lat="45.09933" lon="0.59871">
        <ele>117.4</ele>
        <time>2025-05-25T09:22:04Z</time>
      </trkpt>
      <trkpt lat="45.09933" lon="0.59858">
        <ele>116.2</ele>
        <time>2025-05-25T09:22:05Z</time>
      </trkpt>
      <trkpt lat="45.09932" lon="0.59845">
        <ele>115</ele>
        <time>2025-05-25T09:22:06Z</time>
      </trkpt>
      <trkpt lat="45.09931" lon="0.59834">
        <ele>114</ele>
        <time>2025-05-25T09:22:07Z</time>
      </trkpt>
      <trkpt lat="45.09932" lon="0.59824">
        <ele>113.2</ele>
        <time>2025-05-25T09:22:08Z</time>
      </trkpt>
      <trkpt lat="45.09935" lon="0.59815">
        <ele>112.8</ele>
        <time>2025-05-25T09:22:09Z</time>
      </trkpt>
      <trkpt lat="45.09941" lon="0.5981">
        <ele>112.6</ele>
        <time>2025-05-25T09:22:10Z</time>
      </trkpt>
      <trkpt lat="45.09947" lon="0.59808">
        <ele>112.6</ele>
        <time>2025-05-25T09:22:11Z</time>
      </trkpt>
      <trkpt lat="45.09952" lon="0.59808">
        <ele>112.6</ele>
        <time>2025-05-25T09:22:12Z</time>
      </trkpt>
      <trkpt lat="45.09958" lon="0.59809">
        <ele>113</ele>
        <time>2025-05-25T09:22:13Z</time>
      </trkpt>
      <trkpt lat="45.09965" lon="0.59807">
        <ele>113.2</ele>
        <time>2025-05-25T09:22:14Z</time>
      </trkpt>
      <trkpt lat="45.0997" lon="0.59805">
        <ele>113.4</ele>
        <time>2025-05-25T09:22:15Z</time>
      </trkpt>
      <trkpt lat="45.09974" lon="0.59803">
        <ele>113.8</ele>
        <time>2025-05-25T09:22:16Z</time>
      </trkpt>
      <trkpt lat="45.09976" lon="0.59802">
        <ele>114.2</ele>
        <time>2025-05-25T09:22:17Z</time>
      </trkpt>
      <trkpt lat="45.09977" lon="0.59801">
        <ele>114.6</ele>
        <time>2025-05-25T09:22:18Z</time>
      </trkpt>
      <trkpt lat="45.09978" lon="0.59801">
        <ele>115.2</ele>
        <time>2025-05-25T09:22:19Z</time>
      </trkpt>
      <trkpt lat="45.0998" lon="0.59801">
        <ele>115.6</ele>
        <time>2025-05-25T09:22:20Z</time>
      </trkpt>
      <trkpt lat="45.09981" lon="0.59802">
        <ele>115.8</ele>
        <time>2025-05-25T09:22:21Z</time>
      </trkpt>
      <trkpt lat="45.09983" lon="0.59803">
        <ele>116</ele>
        <time>2025-05-25T09:22:22Z</time>
      </trkpt>
      <trkpt lat="45.09985" lon="0.59806">
        <ele>116</ele>
        <time>2025-05-25T09:22:23Z</time>
      </trkpt>
      <trkpt lat="45.09987" lon="0.5981">
        <ele>115.8</ele>
        <time>2025-05-25T09:22:24Z</time>
      </trkpt>
      <trkpt lat="45.09989" lon="0.59815">
        <ele>115.8</ele>
        <time>2025-05-25T09:22:25Z</time>
      </trkpt>
      <trkpt lat="45.09992" lon="0.5982">
        <ele>115.6</ele>
        <time>2025-05-25T09:22:26Z</time>
      </trkpt>
      <trkpt lat="45.09994" lon="0.59825">
        <ele>115.6</ele>
        <time>2025-05-25T09:22:27Z</time>
      </trkpt>
      <trkpt lat="45.09997" lon="0.59831">
        <ele>115.4</ele>
        <time>2025-05-25T09:22:28Z</time>
      </trkpt>
      <trkpt lat="45.09999" lon="0.59837">
        <ele>115.4</ele>
        <time>2025-05-25T09:22:29Z</time>
      </trkpt>
      <trkpt lat="45.10002" lon="0.59842">
        <ele>115.4</ele>
        <time>2025-05-25T09:22:30Z</time>
      </trkpt>
      <trkpt lat="45.10004" lon="0.59848">
        <ele>115.4</ele>
        <time>2025-05-25T09:22:31Z</time>
      </trkpt>
      <trkpt lat="45.10006" lon="0.59853">
        <ele>115.4</ele>
        <time>2025-05-25T09:22:32Z</time>
      </trkpt>
      <trkpt lat="45.10008" lon="0.59859">
        <ele>115.2</ele>
        <time>2025-05-25T09:22:33Z</time>
      </trkpt>
      <trkpt lat="45.10011" lon="0.59864">
        <ele>115.4</ele>
        <time>2025-05-25T09:22:34Z</time>
      </trkpt>
      <trkpt lat="45.10013" lon="0.5987">
        <ele>115.4</ele>
        <time>2025-05-25T09:22:35Z</time>
      </trkpt>
      <trkpt lat="45.10015" lon="0.59875">
        <ele>115.4</ele>
        <time>2025-05-25T09:22:36Z</time>
      </trkpt>
      <trkpt lat="45.10018" lon="0.59881">
        <ele>115.4</ele>
        <time>2025-05-25T09:22:37Z</time>
      </trkpt>
      <trkpt lat="45.1002" lon="0.59887">
        <ele>115.6</ele>
        <time>2025-05-25T09:22:38Z</time>
      </trkpt>
      <trkpt lat="45.10023" lon="0.59892">
        <ele>115.4</ele>
        <time>2025-05-25T09:22:39Z</time>
      </trkpt>
      <trkpt lat="45.10025" lon="0.59898">
        <ele>115.4</ele>
        <time>2025-05-25T09:22:40Z</time>
      </trkpt>
      <trkpt lat="45.10027" lon="0.59904">
        <ele>115.4</ele>
        <time>2025-05-25T09:22:41Z</time>
      </trkpt>
      <trkpt lat="45.1003" lon="0.5991">
        <ele>115.4</ele>
        <time>2025-05-25T09:22:42Z</time>
      </trkpt>
      <trkpt lat="45.10032" lon="0.59916">
        <ele>115.4</ele>
        <time>2025-05-25T09:22:43Z</time>
      </trkpt>
      <trkpt lat="45.10035" lon="0.59921">
        <ele>115.4</ele>
        <time>2025-05-25T09:22:44Z</time>
      </trkpt>
      <trkpt lat="45.10037" lon="0.59927">
        <ele>115.6</ele>
        <time>2025-05-25T09:22:45Z</time>
      </trkpt>
      <trkpt lat="45.10039" lon="0.59933">
        <ele>115.6</ele>
        <time>2025-05-25T09:22:46Z</time>
      </trkpt>
      <trkpt lat="45.10042" lon="0.59939">
        <ele>115.6</ele>
        <time>2025-05-25T09:22:47Z</time>
      </trkpt>
      <trkpt lat="45.10044" lon="0.59945">
        <ele>115.6</ele>
        <time>2025-05-25T09:22:48Z</time>
      </trkpt>
      <trkpt lat="45.10047" lon="0.5995">
        <ele>115.6</ele>
        <time>2025-05-25T09:22:49Z</time>
      </trkpt>
      <trkpt lat="45.10049" lon="0.59956">
        <ele>115.6</ele>
        <time>2025-05-25T09:22:50Z</time>
      </trkpt>
      <trkpt lat="45.10052" lon="0.59961">
        <ele>115.6</ele>
        <time>2025-05-25T09:22:51Z</time>
      </trkpt>
      <trkpt lat="45.10054" lon="0.59967">
        <ele>115.6</ele>
        <time>2025-05-25T09:22:52Z</time>
      </trkpt>
      <trkpt lat="45.10057" lon="0.59973">
        <ele>115.8</ele>
        <time>2025-05-25T09:22:53Z</time>
      </trkpt>
      <trkpt lat="45.10059" lon="0.59978">
        <ele>115.8</ele>
        <time>2025-05-25T09:22:54Z</time>
      </trkpt>
      <trkpt lat="45.10061" lon="0.59984">
        <ele>116</ele>
        <time>2025-05-25T09:22:55Z</time>
      </trkpt>
      <trkpt lat="45.10064" lon="0.5999">
        <ele>116</ele>
        <time>2025-05-25T09:22:56Z</time>
      </trkpt>
      <trkpt lat="45.10066" lon="0.59995">
        <ele>116.2</ele>
        <time>2025-05-25T09:22:57Z</time>
      </trkpt>
      <trkpt lat="45.10069" lon="0.60001">
        <ele>116.4</ele>
        <time>2025-05-25T09:22:58Z</time>
      </trkpt>
      <trkpt lat="45.10071" lon="0.60007">
        <ele>116.4</ele>
        <time>2025-05-25T09:22:59Z</time>
      </trkpt>
      <trkpt lat="45.10074" lon="0.60013">
        <ele>116.6</ele>
        <time>2025-05-25T09:23:00Z</time>
      </trkpt>
      <trkpt lat="45.10076" lon="0.60019">
        <ele>116.6</ele>
        <time>2025-05-25T09:23:01Z</time>
      </trkpt>
      <trkpt lat="45.10079" lon="0.60025">
        <ele>116.8</ele>
        <time>2025-05-25T09:23:02Z</time>
      </trkpt>
      <trkpt lat="45.10081" lon="0.60031">
        <ele>116.8</ele>
        <time>2025-05-25T09:23:03Z</time>
      </trkpt>
      <trkpt lat="45.10083" lon="0.60037">
        <ele>116.8</ele>
        <time>2025-05-25T09:23:04Z</time>
      </trkpt>
      <trkpt lat="45.10086" lon="0.60042">
        <ele>117</ele>
        <time>2025-05-25T09:23:05Z</time>
      </trkpt>
      <trkpt lat="45.10088" lon="0.60048">
        <ele>117</ele>
        <time>2025-05-25T09:23:06Z</time>
      </trkpt>
      <trkpt lat="45.10089" lon="0.60051">
        <ele>117</ele>
        <time>2025-05-25T09:23:07Z</time>
      </trkpt>
      <trkpt lat="45.1009" lon="0.60054">
        <ele>117.2</ele>
        <time>2025-05-25T09:23:08Z</time>
      </trkpt>
      <trkpt lat="45.10091" lon="0.60056">
        <ele>117.4</ele>
        <time>2025-05-25T09:23:09Z</time>
      </trkpt>
      <trkpt lat="45.10092" lon="0.60058">
        <ele>117.4</ele>
        <time>2025-05-25T09:23:10Z</time>
      </trkpt>
      <trkpt lat="45.10093" lon="0.60061">
        <ele>117.6</ele>
        <time>2025-05-25T09:23:11Z</time>
      </trkpt>
      <trkpt lat="45.10095" lon="0.60062">
        <ele>117.6</ele>
        <time>2025-05-25T09:23:12Z</time>
      </trkpt>
      <trkpt lat="45.10097" lon="0.60063">
        <ele>117.6</ele>
        <time>2025-05-25T09:23:13Z</time>
      </trkpt>
      <trkpt lat="45.101" lon="0.60063">
        <ele>117.6</ele>
        <time>2025-05-25T09:23:14Z</time>
      </trkpt>
      <trkpt lat="45.10103" lon="0.60064">
        <ele>117.6</ele>
        <time>2025-05-25T09:23:15Z</time>
      </trkpt>
      <trkpt lat="45.10105" lon="0.60063">
        <ele>117.6</ele>
        <time>2025-05-25T09:23:16Z</time>
      </trkpt>
      <trkpt lat="45.10106" lon="0.60061">
        <ele>117.6</ele>
        <time>2025-05-25T09:23:17Z</time>
      </trkpt>
      <trkpt lat="45.10108" lon="0.6006">
        <ele>117.6</ele>
        <time>2025-05-25T09:23:18Z</time>
      </trkpt>
      <trkpt lat="45.1011" lon="0.60058">
        <ele>117.6</ele>
        <time>2025-05-25T09:23:19Z</time>
      </trkpt>
      <trkpt lat="45.10112" lon="0.60056">
        <ele>117.8</ele>
        <time>2025-05-25T09:23:20Z</time>
      </trkpt>
      <trkpt lat="45.10113" lon="0.60056">
        <ele>118.2</ele>
        <time>2025-05-25T09:23:21Z</time>
      </trkpt>
      <trkpt lat="45.10115" lon="0.60056">
        <ele>118.4</ele>
        <time>2025-05-25T09:23:22Z</time>
      </trkpt>
      <trkpt lat="45.10116" lon="0.60057">
        <ele>118.8</ele>
        <time>2025-05-25T09:23:23Z</time>
      </trkpt>
      <trkpt lat="45.10118" lon="0.60057">
        <ele>119.2</ele>
        <time>2025-05-25T09:23:24Z</time>
      </trkpt>
      <trkpt lat="45.10119" lon="0.60059">
        <ele>119.6</ele>
        <time>2025-05-25T09:23:25Z</time>
      </trkpt>
      <trkpt lat="45.10121" lon="0.6006">
        <ele>119.8</ele>
        <time>2025-05-25T09:23:26Z</time>
      </trkpt>
      <trkpt lat="45.10123" lon="0.6006">
        <ele>120.2</ele>
        <time>2025-05-25T09:23:27Z</time>
      </trkpt>
      <trkpt lat="45.10125" lon="0.60061">
        <ele>120.4</ele>
        <time>2025-05-25T09:23:28Z</time>
      </trkpt>
      <trkpt lat="45.10126" lon="0.60061">
        <ele>120.6</ele>
        <time>2025-05-25T09:23:29Z</time>
      </trkpt>
      <trkpt lat="45.10128" lon="0.60062">
        <ele>120.8</ele>
        <time>2025-05-25T09:23:30Z</time>
      </trkpt>
      <trkpt lat="45.1013" lon="0.60064">
        <ele>121.2</ele>
        <time>2025-05-25T09:23:31Z</time>
      </trkpt>
      <trkpt lat="45.10131" lon="0.60065">
        <ele>121.4</ele>
        <time>2025-05-25T09:23:32Z</time>
      </trkpt>
      <trkpt lat="45.10133" lon="0.60067">
        <ele>121.6</ele>
        <time>2025-05-25T09:23:33Z</time>
      </trkpt>
      <trkpt lat="45.10135" lon="0.60069">
        <ele>121.8</ele>
        <time>2025-05-25T09:23:34Z</time>
      </trkpt>
      <trkpt lat="45.10136" lon="0.6007">
        <ele>122</ele>
        <time>2025-05-25T09:23:35Z</time>
      </trkpt>
      <trkpt lat="45.10138" lon="0.60071">
        <ele>122.2</ele>
        <time>2025-05-25T09:23:36Z</time>
      </trkpt>
      <trkpt lat="45.10139" lon="0.60072">
        <ele>122.4</ele>
        <time>2025-05-25T09:23:37Z</time>
      </trkpt>
      <trkpt lat="45.10141" lon="0.60074">
        <ele>122.6</ele>
        <time>2025-05-25T09:23:38Z</time>
      </trkpt>
      <trkpt lat="45.10142" lon="0.60075">
        <ele>122.8</ele>
        <time>2025-05-25T09:23:39Z</time>
      </trkpt>
      <trkpt lat="45.10144" lon="0.60077">
        <ele>123</ele>
        <time>2025-05-25T09:23:40Z</time>
      </trkpt>
      <trkpt lat="45.10146" lon="0.60079">
        <ele>123.2</ele>
        <time>2025-05-25T09:23:41Z</time>
      </trkpt>
      <trkpt lat="45.10148" lon="0.60081">
        <ele>123.2</ele>
        <time>2025-05-25T09:23:42Z</time>
      </trkpt>
      <trkpt lat="45.10149" lon="0.60082">
        <ele>123.4</ele>
        <time>2025-05-25T09:23:43Z</time>
      </trkpt>
      <trkpt lat="45.10151" lon="0.60083">
        <ele>123.6</ele>
        <time>2025-05-25T09:23:44Z</time>
      </trkpt>
      <trkpt lat="45.10153" lon="0.60084">
        <ele>123.8</ele>
        <time>2025-05-25T09:23:45Z</time>
      </trkpt>
      <trkpt lat="45.10154" lon="0.60086">
        <ele>124</ele>
        <time>2025-05-25T09:23:46Z</time>
      </trkpt>
      <trkpt lat="45.10156" lon="0.60087">
        <ele>124</ele>
        <time>2025-05-25T09:23:47Z</time>
      </trkpt>
      <trkpt lat="45.10158" lon="0.60088">
        <ele>124.2</ele>
        <time>2025-05-25T09:23:48Z</time>
      </trkpt>
      <trkpt lat="45.10159" lon="0.60089">
        <ele>124.2</ele>
        <time>2025-05-25T09:23:49Z</time>
      </trkpt>
      <trkpt lat="45.1016" lon="0.6009">
        <ele>124.4</ele>
        <time>2025-05-25T09:23:50Z</time>
      </trkpt>
      <trkpt lat="45.10162" lon="0.60091">
        <ele>124.4</ele>
        <time>2025-05-25T09:23:51Z</time>
      </trkpt>
      <trkpt lat="45.10164" lon="0.60092">
        <ele>124.6</ele>
        <time>2025-05-25T09:23:52Z</time>
      </trkpt>
      <trkpt lat="45.10166" lon="0.60093">
        <ele>124.6</ele>
        <time>2025-05-25T09:23:53Z</time>
      </trkpt>
      <trkpt lat="45.10168" lon="0.60094">
        <ele>124.8</ele>
        <time>2025-05-25T09:23:54Z</time>
      </trkpt>
      <trkpt lat="45.10169" lon="0.60095">
        <ele>125</ele>
        <time>2025-05-25T09:23:55Z</time>
      </trkpt>
      <trkpt lat="45.10171" lon="0.60096">
        <ele>125</ele>
        <time>2025-05-25T09:23:56Z</time>
      </trkpt>
      <trkpt lat="45.10172" lon="0.60097">
        <ele>125.2</ele>
        <time>2025-05-25T09:23:57Z</time>
      </trkpt>
      <trkpt lat="45.10174" lon="0.60098">
        <ele>125.2</ele>
        <time>2025-05-25T09:23:58Z</time>
      </trkpt>
      <trkpt lat="45.10176" lon="0.60099">
        <ele>125.4</ele>
        <time>2025-05-25T09:23:59Z</time>
      </trkpt>
      <trkpt lat="45.10178" lon="0.60099">
        <ele>125.6</ele>
        <time>2025-05-25T09:24:00Z</time>
      </trkpt>
      <trkpt lat="45.1018" lon="0.601">
        <ele>126</ele>
        <time>2025-05-25T09:24:01Z</time>
      </trkpt>
      <trkpt lat="45.10181" lon="0.60101">
        <ele>126.2</ele>
        <time>2025-05-25T09:24:02Z</time>
      </trkpt>
      <trkpt lat="45.10183" lon="0.60102">
        <ele>126.4</ele>
        <time>2025-05-25T09:24:03Z</time>
      </trkpt>
      <trkpt lat="45.10185" lon="0.60102">
        <ele>126.6</ele>
        <time>2025-05-25T09:24:04Z</time>
      </trkpt>
      <trkpt lat="45.10187" lon="0.60103">
        <ele>126.8</ele>
        <time>2025-05-25T09:24:05Z</time>
      </trkpt>
      <trkpt lat="45.10189" lon="0.60103">
        <ele>127</ele>
        <time>2025-05-25T09:24:06Z</time>
      </trkpt>
      <trkpt lat="45.10191" lon="0.60104">
        <ele>127.2</ele>
        <time>2025-05-25T09:24:07Z</time>
      </trkpt>
      <trkpt lat="45.10193" lon="0.60105">
        <ele>127.4</ele>
        <time>2025-05-25T09:24:08Z</time>
      </trkpt>
      <trkpt lat="45.10195" lon="0.60106">
        <ele>127.6</ele>
        <time>2025-05-25T09:24:09Z</time>
      </trkpt>
      <trkpt lat="45.10197" lon="0.60106">
        <ele>127.8</ele>
        <time>2025-05-25T09:24:10Z</time>
      </trkpt>
      <trkpt lat="45.10198" lon="0.60107">
        <ele>128</ele>
        <time>2025-05-25T09:24:11Z</time>
      </trkpt>
      <trkpt lat="45.102" lon="0.60107">
        <ele>128.4</ele>
        <time>2025-05-25T09:24:12Z</time>
      </trkpt>
      <trkpt lat="45.10202" lon="0.60108">
        <ele>128.6</ele>
        <time>2025-05-25T09:24:13Z</time>
      </trkpt>
      <trkpt lat="45.10203" lon="0.60109">
        <ele>128.8</ele>
        <time>2025-05-25T09:24:14Z</time>
      </trkpt>
      <trkpt lat="45.10205" lon="0.60109">
        <ele>129.2</ele>
        <time>2025-05-25T09:24:15Z</time>
      </trkpt>
      <trkpt lat="45.10207" lon="0.6011">
        <ele>129.4</ele>
        <time>2025-05-25T09:24:16Z</time>
      </trkpt>
      <trkpt lat="45.10209" lon="0.60111">
        <ele>129.6</ele>
        <time>2025-05-25T09:24:17Z</time>
      </trkpt>
      <trkpt lat="45.1021" lon="0.60111">
        <ele>129.8</ele>
        <time>2025-05-25T09:24:18Z</time>
      </trkpt>
      <trkpt lat="45.10211" lon="0.60112">
        <ele>130</ele>
        <time>2025-05-25T09:24:19Z</time>
      </trkpt>
      <trkpt lat="45.10213" lon="0.60115">
        <ele>130.2</ele>
        <time>2025-05-25T09:24:20Z</time>
      </trkpt>
      <trkpt lat="45.10215" lon="0.60117">
        <ele>130.2</ele>
        <time>2025-05-25T09:24:21Z</time>
      </trkpt>
      <trkpt lat="45.10216" lon="0.60118">
        <ele>130.4</ele>
        <time>2025-05-25T09:24:22Z</time>
      </trkpt>
      <trkpt lat="45.10218" lon="0.6012">
        <ele>130.4</ele>
        <time>2025-05-25T09:24:23Z</time>
      </trkpt>
      <trkpt lat="45.10219" lon="0.60122">
        <ele>130.6</ele>
        <time>2025-05-25T09:24:24Z</time>
      </trkpt>
      <trkpt lat="45.10221" lon="0.60124">
        <ele>130.6</ele>
        <time>2025-05-25T09:24:25Z</time>
      </trkpt>
      <trkpt lat="45.10222" lon="0.60125">
        <ele>130.8</ele>
        <time>2025-05-25T09:24:26Z</time>
      </trkpt>
      <trkpt lat="45.10224" lon="0.60128">
        <ele>131</ele>
        <time>2025-05-25T09:24:27Z</time>
      </trkpt>
      <trkpt lat="45.10225" lon="0.60129">
        <ele>131</ele>
        <time>2025-05-25T09:24:28Z</time>
      </trkpt>
      <trkpt lat="45.10226" lon="0.60131">
        <ele>131.2</ele>
        <time>2025-05-25T09:24:29Z</time>
      </trkpt>
      <trkpt lat="45.10227" lon="0.60133">
        <ele>131.4</ele>
        <time>2025-05-25T09:24:30Z</time>
      </trkpt>
      <trkpt lat="45.10228" lon="0.60135">
        <ele>131.6</ele>
        <time>2025-05-25T09:24:31Z</time>
      </trkpt>
      <trkpt lat="45.10229" lon="0.60137">
        <ele>131.6</ele>
        <time>2025-05-25T09:24:32Z</time>
      </trkpt>
      <trkpt lat="45.10229" lon="0.60139">
        <ele>131.8</ele>
        <time>2025-05-25T09:24:33Z</time>
      </trkpt>
      <trkpt lat="45.1023" lon="0.60142">
        <ele>132</ele>
        <time>2025-05-25T09:24:34Z</time>
      </trkpt>
      <trkpt lat="45.10231" lon="0.60144">
        <ele>132</ele>
        <time>2025-05-25T09:24:35Z</time>
      </trkpt>
      <trkpt lat="45.10232" lon="0.60147">
        <ele>132.2</ele>
        <time>2025-05-25T09:24:36Z</time>
      </trkpt>
      <trkpt lat="45.10233" lon="0.6015">
        <ele>132.2</ele>
        <time>2025-05-25T09:24:37Z</time>
      </trkpt>
      <trkpt lat="45.10234" lon="0.60152">
        <ele>132.4</ele>
        <time>2025-05-25T09:24:38Z</time>
      </trkpt>
      <trkpt lat="45.10236" lon="0.60155">
        <ele>132.8</ele>
        <time>2025-05-25T09:24:39Z</time>
      </trkpt>
      <trkpt lat="45.10236" lon="0.60157">
        <ele>133</ele>
        <time>2025-05-25T09:24:40Z</time>
      </trkpt>
      <trkpt lat="45.10238" lon="0.60159">
        <ele>133.2</ele>
        <time>2025-05-25T09:24:41Z</time>
      </trkpt>
      <trkpt lat="45.10239" lon="0.60161">
        <ele>133.4</ele>
        <time>2025-05-25T09:24:42Z</time>
      </trkpt>
      <trkpt lat="45.1024" lon="0.60162">
        <ele>133.6</ele>
        <time>2025-05-25T09:24:43Z</time>
      </trkpt>
      <trkpt lat="45.10241" lon="0.60164">
        <ele>133.8</ele>
        <time>2025-05-25T09:24:44Z</time>
      </trkpt>
      <trkpt lat="45.10243" lon="0.60165">
        <ele>134</ele>
        <time>2025-05-25T09:24:45Z</time>
      </trkpt>
      <trkpt lat="45.10243" lon="0.60166">
        <ele>134.2</ele>
        <time>2025-05-25T09:24:46Z</time>
      </trkpt>
      <trkpt lat="45.10245" lon="0.60168">
        <ele>134.4</ele>
        <time>2025-05-25T09:24:47Z</time>
      </trkpt>
      <trkpt lat="45.10246" lon="0.60168">
        <ele>134.6</ele>
        <time>2025-05-25T09:24:48Z</time>
      </trkpt>
      <trkpt lat="45.10247" lon="0.6017">
        <ele>134.8</ele>
        <time>2025-05-25T09:24:49Z</time>
      </trkpt>
      <trkpt lat="45.10248" lon="0.60171">
        <ele>135.2</ele>
        <time>2025-05-25T09:24:50Z</time>
      </trkpt>
      <trkpt lat="45.10249" lon="0.60172">
        <ele>135.4</ele>
        <time>2025-05-25T09:24:51Z</time>
      </trkpt>
      <trkpt lat="45.1025" lon="0.60172">
        <ele>135.6</ele>
        <time>2025-05-25T09:24:52Z</time>
      </trkpt>
      <trkpt lat="45.10251" lon="0.60173">
        <ele>135.8</ele>
        <time>2025-05-25T09:24:53Z</time>
      </trkpt>
      <trkpt lat="45.10252" lon="0.60175">
        <ele>136</ele>
        <time>2025-05-25T09:24:54Z</time>
      </trkpt>
      <trkpt lat="45.10253" lon="0.60176">
        <ele>136.2</ele>
        <time>2025-05-25T09:24:55Z</time>
      </trkpt>
      <trkpt lat="45.10254" lon="0.60177">
        <ele>136.4</ele>
        <time>2025-05-25T09:24:56Z</time>
      </trkpt>
      <trkpt lat="45.10256" lon="0.60178">
        <ele>136.6</ele>
        <time>2025-05-25T09:24:57Z</time>
      </trkpt>
      <trkpt lat="45.10258" lon="0.60179">
        <ele>137</ele>
        <time>2025-05-25T09:24:58Z</time>
      </trkpt>
      <trkpt lat="45.10259" lon="0.6018">
        <ele>137.2</ele>
        <time>2025-05-25T09:24:59Z</time>
      </trkpt>
      <trkpt lat="45.1026" lon="0.60181">
        <ele>137.4</ele>
        <time>2025-05-25T09:25:00Z</time>
      </trkpt>
      <trkpt lat="45.10261" lon="0.60182">
        <ele>137.6</ele>
        <time>2025-05-25T09:25:01Z</time>
      </trkpt>
      <trkpt lat="45.10262" lon="0.60183">
        <ele>137.8</ele>
        <time>2025-05-25T09:25:02Z</time>
      </trkpt>
      <trkpt lat="45.10263" lon="0.60183">
        <ele>138</ele>
        <time>2025-05-25T09:25:03Z</time>
      </trkpt>
      <trkpt lat="45.10264" lon="0.60184">
        <ele>138.2</ele>
        <time>2025-05-25T09:25:04Z</time>
      </trkpt>
      <trkpt lat="45.10265" lon="0.60185">
        <ele>138.4</ele>
        <time>2025-05-25T09:25:05Z</time>
      </trkpt>
      <trkpt lat="45.10267" lon="0.60186">
        <ele>138.8</ele>
        <time>2025-05-25T09:25:06Z</time>
      </trkpt>
      <trkpt lat="45.10268" lon="0.60187">
        <ele>139</ele>
        <time>2025-05-25T09:25:07Z</time>
      </trkpt>
      <trkpt lat="45.10269" lon="0.60188">
        <ele>139.2</ele>
        <time>2025-05-25T09:25:08Z</time>
      </trkpt>
      <trkpt lat="45.1027" lon="0.60189">
        <ele>139.4</ele>
        <time>2025-05-25T09:25:09Z</time>
      </trkpt>
      <trkpt lat="45.10272" lon="0.6019">
        <ele>139.6</ele>
        <time>2025-05-25T09:25:10Z</time>
      </trkpt>
      <trkpt lat="45.10273" lon="0.60191">
        <ele>139.8</ele>
        <time>2025-05-25T09:25:11Z</time>
      </trkpt>
      <trkpt lat="45.10274" lon="0.60192">
        <ele>140</ele>
        <time>2025-05-25T09:25:12Z</time>
      </trkpt>
      <trkpt lat="45.10276" lon="0.60194">
        <ele>140.2</ele>
        <time>2025-05-25T09:25:13Z</time>
      </trkpt>
      <trkpt lat="45.10277" lon="0.60195">
        <ele>140.4</ele>
        <time>2025-05-25T09:25:14Z</time>
      </trkpt>
      <trkpt lat="45.10278" lon="0.60196">
        <ele>140.6</ele>
        <time>2025-05-25T09:25:15Z</time>
      </trkpt>
      <trkpt lat="45.10279" lon="0.60198">
        <ele>140.8</ele>
        <time>2025-05-25T09:25:16Z</time>
      </trkpt>
      <trkpt lat="45.10281" lon="0.602">
        <ele>141</ele>
        <time>2025-05-25T09:25:17Z</time>
      </trkpt>
      <trkpt lat="45.10282" lon="0.60201">
        <ele>141.2</ele>
        <time>2025-05-25T09:25:18Z</time>
      </trkpt>
      <trkpt lat="45.10283" lon="0.60203">
        <ele>141.4</ele>
        <time>2025-05-25T09:25:19Z</time>
      </trkpt>
      <trkpt lat="45.10284" lon="0.60204">
        <ele>141.6</ele>
        <time>2025-05-25T09:25:20Z</time>
      </trkpt>
      <trkpt lat="45.10285" lon="0.60205">
        <ele>141.8</ele>
        <time>2025-05-25T09:25:21Z</time>
      </trkpt>
      <trkpt lat="45.10286" lon="0.60206">
        <ele>142</ele>
        <time>2025-05-25T09:25:22Z</time>
      </trkpt>
      <trkpt lat="45.10287" lon="0.60208">
        <ele>142.2</ele>
        <time>2025-05-25T09:25:23Z</time>
      </trkpt>
      <trkpt lat="45.10288" lon="0.60209">
        <ele>142.4</ele>
        <time>2025-05-25T09:25:24Z</time>
      </trkpt>
      <trkpt lat="45.10289" lon="0.60211">
        <ele>142.4</ele>
        <time>2025-05-25T09:25:25Z</time>
      </trkpt>
      <trkpt lat="45.1029" lon="0.60212">
        <ele>142.6</ele>
        <time>2025-05-25T09:25:26Z</time>
      </trkpt>
      <trkpt lat="45.10292" lon="0.60214">
        <ele>142.8</ele>
        <time>2025-05-25T09:25:27Z</time>
      </trkpt>
      <trkpt lat="45.10292" lon="0.60215">
        <ele>143</ele>
        <time>2025-05-25T09:25:28Z</time>
      </trkpt>
      <trkpt lat="45.10293" lon="0.60217">
        <ele>143.2</ele>
        <time>2025-05-25T09:25:29Z</time>
      </trkpt>
      <trkpt lat="45.10294" lon="0.60218">
        <ele>143.4</ele>
        <time>2025-05-25T09:25:30Z</time>
      </trkpt>
      <trkpt lat="45.10295" lon="0.6022">
        <ele>143.6</ele>
        <time>2025-05-25T09:25:31Z</time>
      </trkpt>
      <trkpt lat="45.10297" lon="0.60221">
        <ele>143.8</ele>
        <time>2025-05-25T09:25:32Z</time>
      </trkpt>
      <trkpt lat="45.10298" lon="0.60223">
        <ele>144</ele>
        <time>2025-05-25T09:25:33Z</time>
      </trkpt>
      <trkpt lat="45.103" lon="0.60224">
        <ele>144.2</ele>
        <time>2025-05-25T09:25:34Z</time>
      </trkpt>
      <trkpt lat="45.10301" lon="0.60226">
        <ele>144.4</ele>
        <time>2025-05-25T09:25:35Z</time>
      </trkpt>
      <trkpt lat="45.10302" lon="0.60226">
        <ele>144.6</ele>
        <time>2025-05-25T09:25:36Z</time>
      </trkpt>
      <trkpt lat="45.10304" lon="0.60227">
        <ele>144.6</ele>
        <time>2025-05-25T09:25:37Z</time>
      </trkpt>
      <trkpt lat="45.10305" lon="0.60228">
        <ele>144.8</ele>
        <time>2025-05-25T09:25:38Z</time>
      </trkpt>
      <trkpt lat="45.10307" lon="0.60228">
        <ele>145</ele>
        <time>2025-05-25T09:25:39Z</time>
      </trkpt>
      <trkpt lat="45.10308" lon="0.60228">
        <ele>145.2</ele>
        <time>2025-05-25T09:25:40Z</time>
      </trkpt>
      <trkpt lat="45.1031" lon="0.60229">
        <ele>145.4</ele>
        <time>2025-05-25T09:25:41Z</time>
      </trkpt>
      <trkpt lat="45.10311" lon="0.6023">
        <ele>145.6</ele>
        <time>2025-05-25T09:25:42Z</time>
      </trkpt>
      <trkpt lat="45.10313" lon="0.6023">
        <ele>145.8</ele>
        <time>2025-05-25T09:25:43Z</time>
      </trkpt>
      <trkpt lat="45.10315" lon="0.60232">
        <ele>145.8</ele>
        <time>2025-05-25T09:25:44Z</time>
      </trkpt>
      <trkpt lat="45.10317" lon="0.60233">
        <ele>146</ele>
        <time>2025-05-25T09:25:45Z</time>
      </trkpt>
      <trkpt lat="45.10318" lon="0.60234">
        <ele>146.2</ele>
        <time>2025-05-25T09:25:46Z</time>
      </trkpt>
      <trkpt lat="45.10321" lon="0.60235">
        <ele>146.4</ele>
        <time>2025-05-25T09:25:47Z</time>
      </trkpt>
      <trkpt lat="45.10323" lon="0.60236">
        <ele>146.4</ele>
        <time>2025-05-25T09:25:48Z</time>
      </trkpt>
      <trkpt lat="45.10325" lon="0.60237">
        <ele>146.6</ele>
        <time>2025-05-25T09:25:49Z</time>
      </trkpt>
      <trkpt lat="45.10327" lon="0.60239">
        <ele>146.6</ele>
        <time>2025-05-25T09:25:50Z</time>
      </trkpt>
      <trkpt lat="45.1033" lon="0.6024">
        <ele>146.6</ele>
        <time>2025-05-25T09:25:51Z</time>
      </trkpt>
      <trkpt lat="45.10332" lon="0.60241">
        <ele>146.6</ele>
        <time>2025-05-25T09:25:52Z</time>
      </trkpt>
      <trkpt lat="45.10335" lon="0.60242">
        <ele>146.6</ele>
        <time>2025-05-25T09:25:53Z</time>
      </trkpt>
      <trkpt lat="45.10337" lon="0.60243">
        <ele>146.6</ele>
        <time>2025-05-25T09:25:54Z</time>
      </trkpt>
      <trkpt lat="45.10339" lon="0.60244">
        <ele>146.8</ele>
        <time>2025-05-25T09:25:55Z</time>
      </trkpt>
      <trkpt lat="45.10342" lon="0.60246">
        <ele>146.8</ele>
        <time>2025-05-25T09:25:56Z</time>
      </trkpt>
      <trkpt lat="45.10344" lon="0.60247">
        <ele>147</ele>
        <time>2025-05-25T09:25:57Z</time>
      </trkpt>
      <trkpt lat="45.10345" lon="0.60249">
        <ele>147</ele>
        <time>2025-05-25T09:25:58Z</time>
      </trkpt>
      <trkpt lat="45.10348" lon="0.60252">
        <ele>147.2</ele>
        <time>2025-05-25T09:25:59Z</time>
      </trkpt>
      <trkpt lat="45.1035" lon="0.60253">
        <ele>147.4</ele>
        <time>2025-05-25T09:26:00Z</time>
      </trkpt>
      <trkpt lat="45.10352" lon="0.60255">
        <ele>147.4</ele>
        <time>2025-05-25T09:26:01Z</time>
      </trkpt>
      <trkpt lat="45.10354" lon="0.60257">
        <ele>147.6</ele>
        <time>2025-05-25T09:26:02Z</time>
      </trkpt>
      <trkpt lat="45.10355" lon="0.60259">
        <ele>147.8</ele>
        <time>2025-05-25T09:26:03Z</time>
      </trkpt>
      <trkpt lat="45.10357" lon="0.60261">
        <ele>148</ele>
        <time>2025-05-25T09:26:04Z</time>
      </trkpt>
      <trkpt lat="45.10359" lon="0.60263">
        <ele>148.2</ele>
        <time>2025-05-25T09:26:05Z</time>
      </trkpt>
      <trkpt lat="45.10361" lon="0.60265">
        <ele>148.4</ele>
        <time>2025-05-25T09:26:06Z</time>
      </trkpt>
      <trkpt lat="45.10362" lon="0.60266">
        <ele>148.8</ele>
        <time>2025-05-25T09:26:07Z</time>
      </trkpt>
      <trkpt lat="45.10363" lon="0.60268">
        <ele>149</ele>
        <time>2025-05-25T09:26:08Z</time>
      </trkpt>
      <trkpt lat="45.10365" lon="0.60269">
        <ele>149.2</ele>
        <time>2025-05-25T09:26:09Z</time>
      </trkpt>
      <trkpt lat="45.10367" lon="0.6027">
        <ele>149.6</ele>
        <time>2025-05-25T09:26:10Z</time>
      </trkpt>
      <trkpt lat="45.10368" lon="0.60271">
        <ele>149.8</ele>
        <time>2025-05-25T09:26:11Z</time>
      </trkpt>
      <trkpt lat="45.10369" lon="0.60271">
        <ele>150</ele>
        <time>2025-05-25T09:26:12Z</time>
      </trkpt>
      <trkpt lat="45.10371" lon="0.60272">
        <ele>150.2</ele>
        <time>2025-05-25T09:26:13Z</time>
      </trkpt>
      <trkpt lat="45.10372" lon="0.60273">
        <ele>150.4</ele>
        <time>2025-05-25T09:26:14Z</time>
      </trkpt>
      <trkpt lat="45.10374" lon="0.60274">
        <ele>150.6</ele>
        <time>2025-05-25T09:26:15Z</time>
      </trkpt>
      <trkpt lat="45.10375" lon="0.60275">
        <ele>150.8</ele>
        <time>2025-05-25T09:26:16Z</time>
      </trkpt>
      <trkpt lat="45.10376" lon="0.60276">
        <ele>151</ele>
        <time>2025-05-25T09:26:17Z</time>
      </trkpt>
      <trkpt lat="45.10377" lon="0.60276">
        <ele>151.2</ele>
        <time>2025-05-25T09:26:18Z</time>
      </trkpt>
      <trkpt lat="45.10379" lon="0.60277">
        <ele>151.6</ele>
        <time>2025-05-25T09:26:19Z</time>
      </trkpt>
      <trkpt lat="45.10381" lon="0.60278">
        <ele>151.8</ele>
        <time>2025-05-25T09:26:20Z</time>
      </trkpt>
      <trkpt lat="45.10382" lon="0.60279">
        <ele>151.8</ele>
        <time>2025-05-25T09:26:21Z</time>
      </trkpt>
      <trkpt lat="45.10384" lon="0.60281">
        <ele>152</ele>
        <time>2025-05-25T09:26:22Z</time>
      </trkpt>
      <trkpt lat="45.10385" lon="0.60281">
        <ele>152.2</ele>
        <time>2025-05-25T09:26:23Z</time>
      </trkpt>
      <trkpt lat="45.10386" lon="0.60282">
        <ele>152.4</ele>
        <time>2025-05-25T09:26:24Z</time>
      </trkpt>
      <trkpt lat="45.10387" lon="0.60281">
        <ele>152.6</ele>
        <time>2025-05-25T09:26:25Z</time>
      </trkpt>
      <trkpt lat="45.10389" lon="0.60281">
        <ele>152.8</ele>
        <time>2025-05-25T09:26:26Z</time>
      </trkpt>
      <trkpt lat="45.1039" lon="0.60282">
        <ele>153</ele>
        <time>2025-05-25T09:26:27Z</time>
      </trkpt>
      <trkpt lat="45.10391" lon="0.60282">
        <ele>153.4</ele>
        <time>2025-05-25T09:26:28Z</time>
      </trkpt>
      <trkpt lat="45.10393" lon="0.60282">
        <ele>153.6</ele>
        <time>2025-05-25T09:26:29Z</time>
      </trkpt>
      <trkpt lat="45.10394" lon="0.60282">
        <ele>154</ele>
        <time>2025-05-25T09:26:30Z</time>
      </trkpt>
      <trkpt lat="45.10395" lon="0.60281">
        <ele>154.2</ele>
        <time>2025-05-25T09:26:31Z</time>
      </trkpt>
      <trkpt lat="45.10396" lon="0.6028">
        <ele>154.6</ele>
        <time>2025-05-25T09:26:32Z</time>
      </trkpt>
      <trkpt lat="45.10396" lon="0.6028">
        <ele>154.8</ele>
        <time>2025-05-25T09:26:33Z</time>
      </trkpt>
      <trkpt lat="45.10397" lon="0.60279">
        <ele>155.2</ele>
        <time>2025-05-25T09:26:34Z</time>
      </trkpt>
      <trkpt lat="45.10398" lon="0.60277">
        <ele>155.4</ele>
        <time>2025-05-25T09:26:35Z</time>
      </trkpt>
      <trkpt lat="45.10399" lon="0.60276">
        <ele>155.6</ele>
        <time>2025-05-25T09:26:36Z</time>
      </trkpt>
      <trkpt lat="45.10399" lon="0.60275">
        <ele>155.8</ele>
        <time>2025-05-25T09:26:37Z</time>
      </trkpt>
      <trkpt lat="45.104" lon="0.60273">
        <ele>156.2</ele>
        <time>2025-05-25T09:26:38Z</time>
      </trkpt>
      <trkpt lat="45.104" lon="0.60272">
        <ele>156.4</ele>
        <time>2025-05-25T09:26:39Z</time>
      </trkpt>
      <trkpt lat="45.10401" lon="0.6027">
        <ele>156.6</ele>
        <time>2025-05-25T09:26:40Z</time>
      </trkpt>
      <trkpt lat="45.10402" lon="0.60269">
        <ele>156.8</ele>
        <time>2025-05-25T09:26:41Z</time>
      </trkpt>
      <trkpt lat="45.10402" lon="0.60267">
        <ele>157</ele>
        <time>2025-05-25T09:26:42Z</time>
      </trkpt>
      <trkpt lat="45.10403" lon="0.60266">
        <ele>157.4</ele>
        <time>2025-05-25T09:26:43Z</time>
      </trkpt>
      <trkpt lat="45.10403" lon="0.60264">
        <ele>157.6</ele>
        <time>2025-05-25T09:26:44Z</time>
      </trkpt>
      <trkpt lat="45.10404" lon="0.60262">
        <ele>157.8</ele>
        <time>2025-05-25T09:26:45Z</time>
      </trkpt>
      <trkpt lat="45.10405" lon="0.60261">
        <ele>158.2</ele>
        <time>2025-05-25T09:26:46Z</time>
      </trkpt>
      <trkpt lat="45.10406" lon="0.60259">
        <ele>158.4</ele>
        <time>2025-05-25T09:26:47Z</time>
      </trkpt>
      <trkpt lat="45.10407" lon="0.60258">
        <ele>158.6</ele>
        <time>2025-05-25T09:26:48Z</time>
      </trkpt>
      <trkpt lat="45.10407" lon="0.60257">
        <ele>159</ele>
        <time>2025-05-25T09:26:49Z</time>
      </trkpt>
      <trkpt lat="45.10408" lon="0.60255">
        <ele>159.2</ele>
        <time>2025-05-25T09:26:50Z</time>
      </trkpt>
      <trkpt lat="45.10409" lon="0.60254">
        <ele>159.4</ele>
        <time>2025-05-25T09:26:51Z</time>
      </trkpt>
      <trkpt lat="45.1041" lon="0.60253">
        <ele>159.8</ele>
        <time>2025-05-25T09:26:52Z</time>
      </trkpt>
      <trkpt lat="45.1041" lon="0.60251">
        <ele>160</ele>
        <time>2025-05-25T09:26:53Z</time>
      </trkpt>
      <trkpt lat="45.10411" lon="0.6025">
        <ele>160.2</ele>
        <time>2025-05-25T09:26:54Z</time>
      </trkpt>
      <trkpt lat="45.10412" lon="0.60249">
        <ele>160.4</ele>
        <time>2025-05-25T09:26:55Z</time>
      </trkpt>
      <trkpt lat="45.10413" lon="0.60248">
        <ele>160.6</ele>
        <time>2025-05-25T09:26:56Z</time>
      </trkpt>
      <trkpt lat="45.10413" lon="0.60247">
        <ele>160.8</ele>
        <time>2025-05-25T09:26:57Z</time>
      </trkpt>
      <trkpt lat="45.10414" lon="0.60245">
        <ele>161</ele>
        <time>2025-05-25T09:26:58Z</time>
      </trkpt>
      <trkpt lat="45.10414" lon="0.60244">
        <ele>161.4</ele>
        <time>2025-05-25T09:26:59Z</time>
      </trkpt>
      <trkpt lat="45.10415" lon="0.60243">
        <ele>161.6</ele>
        <time>2025-05-25T09:27:00Z</time>
      </trkpt>
      <trkpt lat="45.10415" lon="0.60241">
        <ele>161.8</ele>
        <time>2025-05-25T09:27:01Z</time>
      </trkpt>
      <trkpt lat="45.10416" lon="0.6024">
        <ele>162</ele>
        <time>2025-05-25T09:27:02Z</time>
      </trkpt>
      <trkpt lat="45.10417" lon="0.60239">
        <ele>162.2</ele>
        <time>2025-05-25T09:27:03Z</time>
      </trkpt>
      <trkpt lat="45.10418" lon="0.60238">
        <ele>162.4</ele>
        <time>2025-05-25T09:27:04Z</time>
      </trkpt>
      <trkpt lat="45.10419" lon="0.60237">
        <ele>162.4</ele>
        <time>2025-05-25T09:27:05Z</time>
      </trkpt>
      <trkpt lat="45.1042" lon="0.60235">
        <ele>162.6</ele>
        <time>2025-05-25T09:27:06Z</time>
      </trkpt>
      <trkpt lat="45.10421" lon="0.60233">
        <ele>162.8</ele>
        <time>2025-05-25T09:27:07Z</time>
      </trkpt>
      <trkpt lat="45.10422" lon="0.60231">
        <ele>163</ele>
        <time>2025-05-25T09:27:08Z</time>
      </trkpt>
      <trkpt lat="45.10423" lon="0.6023">
        <ele>163.2</ele>
        <time>2025-05-25T09:27:09Z</time>
      </trkpt>
      <trkpt lat="45.10424" lon="0.60228">
        <ele>163.4</ele>
        <time>2025-05-25T09:27:10Z</time>
      </trkpt>
      <trkpt lat="45.10424" lon="0.60226">
        <ele>163.6</ele>
        <time>2025-05-25T09:27:11Z</time>
      </trkpt>
      <trkpt lat="45.10425" lon="0.60223">
        <ele>163.6</ele>
        <time>2025-05-25T09:27:12Z</time>
      </trkpt>
      <trkpt lat="45.10426" lon="0.60221">
        <ele>163.8</ele>
        <time>2025-05-25T09:27:13Z</time>
      </trkpt>
      <trkpt lat="45.10426" lon="0.60219">
        <ele>164</ele>
        <time>2025-05-25T09:27:14Z</time>
      </trkpt>
      <trkpt lat="45.10426" lon="0.60218">
        <ele>164.2</ele>
        <time>2025-05-25T09:27:15Z</time>
      </trkpt>
      <trkpt lat="45.10427" lon="0.60216">
        <ele>164.4</ele>
        <time>2025-05-25T09:27:16Z</time>
      </trkpt>
      <trkpt lat="45.10427" lon="0.60214">
        <ele>164.6</ele>
        <time>2025-05-25T09:27:17Z</time>
      </trkpt>
      <trkpt lat="45.10428" lon="0.60213">
        <ele>164.6</ele>
        <time>2025-05-25T09:27:18Z</time>
      </trkpt>
      <trkpt lat="45.10428" lon="0.60211">
        <ele>165</ele>
        <time>2025-05-25T09:27:19Z</time>
      </trkpt>
      <trkpt lat="45.10429" lon="0.60209">
        <ele>165</ele>
        <time>2025-05-25T09:27:20Z</time>
      </trkpt>
      <trkpt lat="45.10429" lon="0.60207">
        <ele>165.2</ele>
        <time>2025-05-25T09:27:21Z</time>
      </trkpt>
      <trkpt lat="45.1043" lon="0.60205">
        <ele>165.4</ele>
        <time>2025-05-25T09:27:22Z</time>
      </trkpt>
      <trkpt lat="45.10431" lon="0.60203">
        <ele>165.6</ele>
        <time>2025-05-25T09:27:23Z</time>
      </trkpt>
      <trkpt lat="45.10431" lon="0.60201">
        <ele>165.6</ele>
        <time>2025-05-25T09:27:24Z</time>
      </trkpt>
      <trkpt lat="45.10432" lon="0.60199">
        <ele>165.8</ele>
        <time>2025-05-25T09:27:25Z</time>
      </trkpt>
      <trkpt lat="45.10432" lon="0.60197">
        <ele>166</ele>
        <time>2025-05-25T09:27:26Z</time>
      </trkpt>
      <trkpt lat="45.10432" lon="0.60195">
        <ele>166.2</ele>
        <time>2025-05-25T09:27:27Z</time>
      </trkpt>
      <trkpt lat="45.10433" lon="0.60193">
        <ele>166.4</ele>
        <time>2025-05-25T09:27:28Z</time>
      </trkpt>
      <trkpt lat="45.10434" lon="0.60191">
        <ele>166.6</ele>
        <time>2025-05-25T09:27:29Z</time>
      </trkpt>
      <trkpt lat="45.10434" lon="0.60189">
        <ele>166.6</ele>
        <time>2025-05-25T09:27:30Z</time>
      </trkpt>
      <trkpt lat="45.10435" lon="0.60186">
        <ele>166.8</ele>
        <time>2025-05-25T09:27:31Z</time>
      </trkpt>
      <trkpt lat="45.10436" lon="0.60184">
        <ele>166.8</ele>
        <time>2025-05-25T09:27:32Z</time>
      </trkpt>
      <trkpt lat="45.10437" lon="0.60183">
        <ele>167</ele>
        <time>2025-05-25T09:27:33Z</time>
      </trkpt>
      <trkpt lat="45.10438" lon="0.6018">
        <ele>167</ele>
        <time>2025-05-25T09:27:34Z</time>
      </trkpt>
      <trkpt lat="45.1044" lon="0.60178">
        <ele>167.2</ele>
        <time>2025-05-25T09:27:35Z</time>
      </trkpt>
      <trkpt lat="45.10441" lon="0.60176">
        <ele>167.2</ele>
        <time>2025-05-25T09:27:36Z</time>
      </trkpt>
      <trkpt lat="45.10442" lon="0.60174">
        <ele>167.4</ele>
        <time>2025-05-25T09:27:37Z</time>
      </trkpt>
      <trkpt lat="45.10444" lon="0.60172">
        <ele>167.4</ele>
        <time>2025-05-25T09:27:38Z</time>
      </trkpt>
      <trkpt lat="45.10445" lon="0.60171">
        <ele>167.6</ele>
        <time>2025-05-25T09:27:39Z</time>
      </trkpt>
      <trkpt lat="45.10446" lon="0.60169">
        <ele>167.8</ele>
        <time>2025-05-25T09:27:40Z</time>
      </trkpt>
      <trkpt lat="45.10448" lon="0.60169">
        <ele>167.8</ele>
        <time>2025-05-25T09:27:41Z</time>
      </trkpt>
      <trkpt lat="45.1045" lon="0.60167">
        <ele>167.8</ele>
        <time>2025-05-25T09:27:42Z</time>
      </trkpt>
      <trkpt lat="45.10452" lon="0.60166">
        <ele>168</ele>
        <time>2025-05-25T09:27:43Z</time>
      </trkpt>
      <trkpt lat="45.10454" lon="0.60164">
        <ele>167.8</ele>
        <time>2025-05-25T09:27:44Z</time>
      </trkpt>
      <trkpt lat="45.10455" lon="0.60162">
        <ele>167.8</ele>
        <time>2025-05-25T09:27:45Z</time>
      </trkpt>
      <trkpt lat="45.10456" lon="0.60161">
        <ele>167.8</ele>
        <time>2025-05-25T09:27:46Z</time>
      </trkpt>
      <trkpt lat="45.10457" lon="0.6016">
        <ele>167.6</ele>
        <time>2025-05-25T09:27:47Z</time>
      </trkpt>
      <trkpt lat="45.10458" lon="0.60157">
        <ele>167.4</ele>
        <time>2025-05-25T09:27:48Z</time>
      </trkpt>
      <trkpt lat="45.10459" lon="0.60155">
        <ele>167.4</ele>
        <time>2025-05-25T09:27:49Z</time>
      </trkpt>
      <trkpt lat="45.1046" lon="0.60154">
        <ele>167.2</ele>
        <time>2025-05-25T09:27:50Z</time>
      </trkpt>
      <trkpt lat="45.10461" lon="0.60151">
        <ele>167.2</ele>
        <time>2025-05-25T09:27:51Z</time>
      </trkpt>
      <trkpt lat="45.10462" lon="0.60149">
        <ele>167.2</ele>
        <time>2025-05-25T09:27:52Z</time>
      </trkpt>
      <trkpt lat="45.10463" lon="0.60148">
        <ele>167.4</ele>
        <time>2025-05-25T09:27:53Z</time>
      </trkpt>
      <trkpt lat="45.10464" lon="0.60147">
        <ele>167.4</ele>
        <time>2025-05-25T09:27:54Z</time>
      </trkpt>
      <trkpt lat="45.10465" lon="0.60148">
        <ele>167.6</ele>
        <time>2025-05-25T09:27:55Z</time>
      </trkpt>
      <trkpt lat="45.10466" lon="0.60148">
        <ele>167.8</ele>
        <time>2025-05-25T09:27:56Z</time>
      </trkpt>
      <trkpt lat="45.10467" lon="0.60147">
        <ele>168</ele>
        <time>2025-05-25T09:27:57Z</time>
      </trkpt>
      <trkpt lat="45.10468" lon="0.60147">
        <ele>168.2</ele>
        <time>2025-05-25T09:27:58Z</time>
      </trkpt>
      <trkpt lat="45.1047" lon="0.60146">
        <ele>168.2</ele>
        <time>2025-05-25T09:27:59Z</time>
      </trkpt>
      <trkpt lat="45.10472" lon="0.60144">
        <ele>168</ele>
        <time>2025-05-25T09:28:00Z</time>
      </trkpt>
      <trkpt lat="45.10473" lon="0.60143">
        <ele>168</ele>
        <time>2025-05-25T09:28:01Z</time>
      </trkpt>
      <trkpt lat="45.10474" lon="0.60141">
        <ele>168</ele>
        <time>2025-05-25T09:28:02Z</time>
      </trkpt>
      <trkpt lat="45.10474" lon="0.60138">
        <ele>168</ele>
        <time>2025-05-25T09:28:03Z</time>
      </trkpt>
      <trkpt lat="45.10473" lon="0.60137">
        <ele>168</ele>
        <time>2025-05-25T09:28:04Z</time>
      </trkpt>
      <trkpt lat="45.10471" lon="0.60138">
        <ele>168</ele>
        <time>2025-05-25T09:28:05Z</time>
      </trkpt>
      <trkpt lat="45.10471" lon="0.6014">
        <ele>168</ele>
        <time>2025-05-25T09:28:06Z</time>
      </trkpt>
      <trkpt lat="45.1047" lon="0.60143">
        <ele>168</ele>
        <time>2025-05-25T09:28:07Z</time>
      </trkpt>
      <trkpt lat="45.10468" lon="0.60145">
        <ele>168</ele>
        <time>2025-05-25T09:28:08Z</time>
      </trkpt>
      <trkpt lat="45.10466" lon="0.60145">
        <ele>168</ele>
        <time>2025-05-25T09:28:09Z</time>
      </trkpt>
      <trkpt lat="45.10465" lon="0.60144">
        <ele>168</ele>
        <time>2025-05-25T09:28:10Z</time>
      </trkpt>
      <trkpt lat="45.10465" lon="0.60142">
        <ele>168</ele>
        <time>2025-05-25T09:28:11Z</time>
      </trkpt>
      <trkpt lat="45.10465" lon="0.6014">
        <ele>168.2</ele>
        <time>2025-05-25T09:28:12Z</time>
      </trkpt>
      <trkpt lat="45.10466" lon="0.60138">
        <ele>168.4</ele>
        <time>2025-05-25T09:28:13Z</time>
      </trkpt>
      <trkpt lat="45.10466" lon="0.60137">
        <ele>168.6</ele>
        <time>2025-05-25T09:28:14Z</time>
      </trkpt>
      <trkpt lat="45.10467" lon="0.60134">
        <ele>168.8</ele>
        <time>2025-05-25T09:28:15Z</time>
      </trkpt>
      <trkpt lat="45.10468" lon="0.60132">
        <ele>169</ele>
        <time>2025-05-25T09:28:16Z</time>
      </trkpt>
      <trkpt lat="45.10468" lon="0.6013">
        <ele>169.2</ele>
        <time>2025-05-25T09:28:17Z</time>
      </trkpt>
      <trkpt lat="45.10469" lon="0.60128">
        <ele>169.2</ele>
        <time>2025-05-25T09:28:18Z</time>
      </trkpt>
      <trkpt lat="45.1047" lon="0.60126">
        <ele>169.4</ele>
        <time>2025-05-25T09:28:19Z</time>
      </trkpt>
      <trkpt lat="45.10471" lon="0.60123">
        <ele>169.6</ele>
        <time>2025-05-25T09:28:20Z</time>
      </trkpt>
      <trkpt lat="45.10472" lon="0.6012">
        <ele>169.6</ele>
        <time>2025-05-25T09:28:21Z</time>
      </trkpt>
      <trkpt lat="45.10474" lon="0.60117">
        <ele>169.6</ele>
        <time>2025-05-25T09:28:22Z</time>
      </trkpt>
      <trkpt lat="45.10474" lon="0.60114">
        <ele>169.6</ele>
        <time>2025-05-25T09:28:23Z</time>
      </trkpt>
      <trkpt lat="45.10475" lon="0.60111">
        <ele>169.6</ele>
        <time>2025-05-25T09:28:24Z</time>
      </trkpt>
      <trkpt lat="45.10477" lon="0.60108">
        <ele>169.8</ele>
        <time>2025-05-25T09:28:25Z</time>
      </trkpt>
      <trkpt lat="45.10478" lon="0.60105">
        <ele>169.8</ele>
        <time>2025-05-25T09:28:26Z</time>
      </trkpt>
      <trkpt lat="45.10479" lon="0.60102">
        <ele>169.8</ele>
        <time>2025-05-25T09:28:27Z</time>
      </trkpt>
      <trkpt lat="45.1048" lon="0.60098">
        <ele>170</ele>
        <time>2025-05-25T09:28:28Z</time>
      </trkpt>
      <trkpt lat="45.1048" lon="0.60095">
        <ele>170</ele>
        <time>2025-05-25T09:28:29Z</time>
      </trkpt>
      <trkpt lat="45.10481" lon="0.60092">
        <ele>170</ele>
        <time>2025-05-25T09:28:30Z</time>
      </trkpt>
      <trkpt lat="45.10482" lon="0.60088">
        <ele>170</ele>
        <time>2025-05-25T09:28:31Z</time>
      </trkpt>
      <trkpt lat="45.10483" lon="0.60086">
        <ele>170.2</ele>
        <time>2025-05-25T09:28:32Z</time>
      </trkpt>
      <trkpt lat="45.10484" lon="0.60083">
        <ele>170.2</ele>
        <time>2025-05-25T09:28:33Z</time>
      </trkpt>
      <trkpt lat="45.10486" lon="0.60081">
        <ele>170.2</ele>
        <time>2025-05-25T09:28:34Z</time>
      </trkpt>
      <trkpt lat="45.10489" lon="0.60078">
        <ele>170.2</ele>
        <time>2025-05-25T09:28:35Z</time>
      </trkpt>
      <trkpt lat="45.10491" lon="0.60075">
        <ele>170.2</ele>
        <time>2025-05-25T09:28:36Z</time>
      </trkpt>
      <trkpt lat="45.10494" lon="0.60072">
        <ele>169.8</ele>
        <time>2025-05-25T09:28:37Z</time>
      </trkpt>
      <trkpt lat="45.10497" lon="0.60068">
        <ele>169.4</ele>
        <time>2025-05-25T09:28:38Z</time>
      </trkpt>
      <trkpt lat="45.105" lon="0.60065">
        <ele>169</ele>
        <time>2025-05-25T09:28:39Z</time>
      </trkpt>
      <trkpt lat="45.10503" lon="0.60063">
        <ele>168.8</ele>
        <time>2025-05-25T09:28:40Z</time>
      </trkpt>
      <trkpt lat="45.10507" lon="0.60059">
        <ele>168.6</ele>
        <time>2025-05-25T09:28:41Z</time>
      </trkpt>
      <trkpt lat="45.1051" lon="0.60054">
        <ele>168.4</ele>
        <time>2025-05-25T09:28:42Z</time>
      </trkpt>
      <trkpt lat="45.10513" lon="0.6005">
        <ele>168.2</ele>
        <time>2025-05-25T09:28:43Z</time>
      </trkpt>
      <trkpt lat="45.10516" lon="0.60046">
        <ele>168</ele>
        <time>2025-05-25T09:28:44Z</time>
      </trkpt>
      <trkpt lat="45.1052" lon="0.60042">
        <ele>167.8</ele>
        <time>2025-05-25T09:28:45Z</time>
      </trkpt>
      <trkpt lat="45.10525" lon="0.60037">
        <ele>167.4</ele>
        <time>2025-05-25T09:28:46Z</time>
      </trkpt>
      <trkpt lat="45.1053" lon="0.60032">
        <ele>167</ele>
        <time>2025-05-25T09:28:47Z</time>
      </trkpt>
      <trkpt lat="45.10535" lon="0.60026">
        <ele>166.6</ele>
        <time>2025-05-25T09:28:48Z</time>
      </trkpt>
      <trkpt lat="45.10539" lon="0.60019">
        <ele>166</ele>
        <time>2025-05-25T09:28:49Z</time>
      </trkpt>
      <trkpt lat="45.10543" lon="0.60012">
        <ele>165.2</ele>
        <time>2025-05-25T09:28:50Z</time>
      </trkpt>
      <trkpt lat="45.10547" lon="0.60004">
        <ele>164.6</ele>
        <time>2025-05-25T09:28:51Z</time>
      </trkpt>
      <trkpt lat="45.10552" lon="0.59996">
        <ele>163.8</ele>
        <time>2025-05-25T09:28:52Z</time>
      </trkpt>
      <trkpt lat="45.10558" lon="0.59988">
        <ele>163</ele>
        <time>2025-05-25T09:28:53Z</time>
      </trkpt>
      <trkpt lat="45.10563" lon="0.5998">
        <ele>162.2</ele>
        <time>2025-05-25T09:28:54Z</time>
      </trkpt>
      <trkpt lat="45.10568" lon="0.59973">
        <ele>161.2</ele>
        <time>2025-05-25T09:28:55Z</time>
      </trkpt>
      <trkpt lat="45.10574" lon="0.59966">
        <ele>160.4</ele>
        <time>2025-05-25T09:28:56Z</time>
      </trkpt>
      <trkpt lat="45.10579" lon="0.59959">
        <ele>160.4</ele>
        <time>2025-05-25T09:28:57Z</time>
      </trkpt>
      <trkpt lat="45.10585" lon="0.59952">
        <ele>160.2</ele>
        <time>2025-05-25T09:28:58Z</time>
      </trkpt>
      <trkpt lat="45.10591" lon="0.59946">
        <ele>159.8</ele>
        <time>2025-05-25T09:28:59Z</time>
      </trkpt>
      <trkpt lat="45.10596" lon="0.5994">
        <ele>159.4</ele>
        <time>2025-05-25T09:29:00Z</time>
      </trkpt>
      <trkpt lat="45.106" lon="0.59933">
        <ele>159</ele>
        <time>2025-05-25T09:29:01Z</time>
      </trkpt>
      <trkpt lat="45.10605" lon="0.59923">
        <ele>158.2</ele>
        <time>2025-05-25T09:29:02Z</time>
      </trkpt>
      <trkpt lat="45.10609" lon="0.59913">
        <ele>157.4</ele>
        <time>2025-05-25T09:29:03Z</time>
      </trkpt>
      <trkpt lat="45.10614" lon="0.59903">
        <ele>156.6</ele>
        <time>2025-05-25T09:29:04Z</time>
      </trkpt>
      <trkpt lat="45.10618" lon="0.59892">
        <ele>155.4</ele>
        <time>2025-05-25T09:29:05Z</time>
      </trkpt>
      <trkpt lat="45.10622" lon="0.59882">
        <ele>154.6</ele>
        <time>2025-05-25T09:29:06Z</time>
      </trkpt>
      <trkpt lat="45.10625" lon="0.59875">
        <ele>154</ele>
        <time>2025-05-25T09:29:07Z</time>
      </trkpt>
      <trkpt lat="45.10627" lon="0.59873">
        <ele>154</ele>
        <time>2025-05-25T09:29:08Z</time>
      </trkpt>
      <trkpt lat="45.10628" lon="0.59873">
        <ele>154.2</ele>
        <time>2025-05-25T09:29:09Z</time>
      </trkpt>
      <trkpt lat="45.10629" lon="0.59874">
        <ele>154.6</ele>
        <time>2025-05-25T09:29:10Z</time>
      </trkpt>
      <trkpt lat="45.1063" lon="0.59877">
        <ele>155</ele>
        <time>2025-05-25T09:29:11Z</time>
      </trkpt>
      <trkpt lat="45.1063" lon="0.59883">
        <ele>155</ele>
        <time>2025-05-25T09:29:12Z</time>
      </trkpt>
      <trkpt lat="45.1063" lon="0.5989">
        <ele>154.8</ele>
        <time>2025-05-25T09:29:13Z</time>
      </trkpt>
      <trkpt lat="45.1063" lon="0.59898">
        <ele>154.4</ele>
        <time>2025-05-25T09:29:14Z</time>
      </trkpt>
      <trkpt lat="45.10631" lon="0.59905">
        <ele>153.8</ele>
        <time>2025-05-25T09:29:15Z</time>
      </trkpt>
      <trkpt lat="45.10631" lon="0.59913">
        <ele>153.2</ele>
        <time>2025-05-25T09:29:16Z</time>
      </trkpt>
      <trkpt lat="45.10632" lon="0.5992">
        <ele>152.8</ele>
        <time>2025-05-25T09:29:17Z</time>
      </trkpt>
      <trkpt lat="45.10633" lon="0.59928">
        <ele>152.6</ele>
        <time>2025-05-25T09:29:18Z</time>
      </trkpt>
      <trkpt lat="45.10634" lon="0.59937">
        <ele>152.2</ele>
        <time>2025-05-25T09:29:19Z</time>
      </trkpt>
      <trkpt lat="45.10635" lon="0.59946">
        <ele>152</ele>
        <time>2025-05-25T09:29:20Z</time>
      </trkpt>
      <trkpt lat="45.10635" lon="0.59956">
        <ele>151.2</ele>
        <time>2025-05-25T09:29:21Z</time>
      </trkpt>
      <trkpt lat="45.10634" lon="0.59967">
        <ele>150.8</ele>
        <time>2025-05-25T09:29:22Z</time>
      </trkpt>
      <trkpt lat="45.10634" lon="0.59978">
        <ele>150.2</ele>
        <time>2025-05-25T09:29:23Z</time>
      </trkpt>
      <trkpt lat="45.10635" lon="0.59989">
        <ele>149.6</ele>
        <time>2025-05-25T09:29:24Z</time>
      </trkpt>
      <trkpt lat="45.10635" lon="0.60001">
        <ele>149</ele>
        <time>2025-05-25T09:29:25Z</time>
      </trkpt>
      <trkpt lat="45.10636" lon="0.60013">
        <ele>148.6</ele>
        <time>2025-05-25T09:29:26Z</time>
      </trkpt>
      <trkpt lat="45.10636" lon="0.60025">
        <ele>148</ele>
        <time>2025-05-25T09:29:27Z</time>
      </trkpt>
      <trkpt lat="45.10636" lon="0.60036">
        <ele>147.4</ele>
        <time>2025-05-25T09:29:28Z</time>
      </trkpt>
      <trkpt lat="45.10636" lon="0.60048">
        <ele>147</ele>
        <time>2025-05-25T09:29:29Z</time>
      </trkpt>
      <trkpt lat="45.10637" lon="0.60061">
        <ele>146.4</ele>
        <time>2025-05-25T09:29:30Z</time>
      </trkpt>
      <trkpt lat="45.10638" lon="0.60073">
        <ele>146</ele>
        <time>2025-05-25T09:29:31Z</time>
      </trkpt>
      <trkpt lat="45.10641" lon="0.60084">
        <ele>145.2</ele>
        <time>2025-05-25T09:29:32Z</time>
      </trkpt>
      <trkpt lat="45.10643" lon="0.60096">
        <ele>144.6</ele>
        <time>2025-05-25T09:29:33Z</time>
      </trkpt>
      <trkpt lat="45.10645" lon="0.6011">
        <ele>143.8</ele>
        <time>2025-05-25T09:29:34Z</time>
      </trkpt>
      <trkpt lat="45.10646" lon="0.60123">
        <ele>143.2</ele>
        <time>2025-05-25T09:29:35Z</time>
      </trkpt>
      <trkpt lat="45.10647" lon="0.60137">
        <ele>142.6</ele>
        <time>2025-05-25T09:29:36Z</time>
      </trkpt>
      <trkpt lat="45.10647" lon="0.60151">
        <ele>142</ele>
        <time>2025-05-25T09:29:37Z</time>
      </trkpt>
      <trkpt lat="45.10647" lon="0.60164">
        <ele>141.4</ele>
        <time>2025-05-25T09:29:38Z</time>
      </trkpt>
      <trkpt lat="45.10647" lon="0.60177">
        <ele>141</ele>
        <time>2025-05-25T09:29:39Z</time>
      </trkpt>
      <trkpt lat="45.10646" lon="0.60191">
        <ele>140.6</ele>
        <time>2025-05-25T09:29:40Z</time>
      </trkpt>
      <trkpt lat="45.10645" lon="0.60204">
        <ele>140.4</ele>
        <time>2025-05-25T09:29:41Z</time>
      </trkpt>
      <trkpt lat="45.10645" lon="0.60217">
        <ele>139.8</ele>
        <time>2025-05-25T09:29:42Z</time>
      </trkpt>
      <trkpt lat="45.10647" lon="0.6023">
        <ele>139.2</ele>
        <time>2025-05-25T09:29:43Z</time>
      </trkpt>
      <trkpt lat="45.10649" lon="0.60244">
        <ele>138.4</ele>
        <time>2025-05-25T09:29:44Z</time>
      </trkpt>
      <trkpt lat="45.10652" lon="0.60258">
        <ele>137.6</ele>
        <time>2025-05-25T09:29:45Z</time>
      </trkpt>
      <trkpt lat="45.10654" lon="0.60272">
        <ele>136.6</ele>
        <time>2025-05-25T09:29:46Z</time>
      </trkpt>
      <trkpt lat="45.10657" lon="0.60284">
        <ele>135.8</ele>
        <time>2025-05-25T09:29:47Z</time>
      </trkpt>
      <trkpt lat="45.10659" lon="0.60294">
        <ele>135.2</ele>
        <time>2025-05-25T09:29:48Z</time>
      </trkpt>
      <trkpt lat="45.10659" lon="0.60303">
        <ele>135</ele>
        <time>2025-05-25T09:29:49Z</time>
      </trkpt>
      <trkpt lat="45.10658" lon="0.60311">
        <ele>135</ele>
        <time>2025-05-25T09:29:50Z</time>
      </trkpt>
      <trkpt lat="45.10654" lon="0.60319">
        <ele>135.2</ele>
        <time>2025-05-25T09:29:51Z</time>
      </trkpt>
      <trkpt lat="45.10649" lon="0.60325">
        <ele>135.2</ele>
        <time>2025-05-25T09:29:52Z</time>
      </trkpt>
      <trkpt lat="45.10644" lon="0.60332">
        <ele>135</ele>
        <time>2025-05-25T09:29:53Z</time>
      </trkpt>
      <trkpt lat="45.10639" lon="0.60337">
        <ele>134.6</ele>
        <time>2025-05-25T09:29:54Z</time>
      </trkpt>
      <trkpt lat="45.10634" lon="0.60343">
        <ele>134.2</ele>
        <time>2025-05-25T09:29:55Z</time>
      </trkpt>
      <trkpt lat="45.10628" lon="0.60349">
        <ele>134</ele>
        <time>2025-05-25T09:29:56Z</time>
      </trkpt>
      <trkpt lat="45.10622" lon="0.60352">
        <ele>133.8</ele>
        <time>2025-05-25T09:29:57Z</time>
      </trkpt>
      <trkpt lat="45.10616" lon="0.60356">
        <ele>133.6</ele>
        <time>2025-05-25T09:29:58Z</time>
      </trkpt>
      <trkpt lat="45.1061" lon="0.60361">
        <ele>133.4</ele>
        <time>2025-05-25T09:29:59Z</time>
      </trkpt>
      <trkpt lat="45.10604" lon="0.60365">
        <ele>133</ele>
        <time>2025-05-25T09:30:00Z</time>
      </trkpt>
      <trkpt lat="45.10598" lon="0.60369">
        <ele>132.6</ele>
        <time>2025-05-25T09:30:01Z</time>
      </trkpt>
      <trkpt lat="45.10592" lon="0.60374">
        <ele>132.2</ele>
        <time>2025-05-25T09:30:02Z</time>
      </trkpt>
      <trkpt lat="45.10585" lon="0.60378">
        <ele>132</ele>
        <time>2025-05-25T09:30:03Z</time>
      </trkpt>
      <trkpt lat="45.10578" lon="0.60382">
        <ele>131.6</ele>
        <time>2025-05-25T09:30:04Z</time>
      </trkpt>
      <trkpt lat="45.10571" lon="0.60386">
        <ele>131.2</ele>
        <time>2025-05-25T09:30:05Z</time>
      </trkpt>
      <trkpt lat="45.10564" lon="0.6039">
        <ele>130.8</ele>
        <time>2025-05-25T09:30:06Z</time>
      </trkpt>
      <trkpt lat="45.10557" lon="0.60394">
        <ele>130.6</ele>
        <time>2025-05-25T09:30:07Z</time>
      </trkpt>
      <trkpt lat="45.1055" lon="0.60398">
        <ele>130.4</ele>
        <time>2025-05-25T09:30:08Z</time>
      </trkpt>
      <trkpt lat="45.10542" lon="0.60401">
        <ele>130</ele>
        <time>2025-05-25T09:30:09Z</time>
      </trkpt>
      <trkpt lat="45.10535" lon="0.60406">
        <ele>129.8</ele>
        <time>2025-05-25T09:30:10Z</time>
      </trkpt>
      <trkpt lat="45.10527" lon="0.60412">
        <ele>129.2</ele>
        <time>2025-05-25T09:30:11Z</time>
      </trkpt>
      <trkpt lat="45.10521" lon="0.6042">
        <ele>128.8</ele>
        <time>2025-05-25T09:30:12Z</time>
      </trkpt>
      <trkpt lat="45.10516" lon="0.60429">
        <ele>128.4</ele>
        <time>2025-05-25T09:30:13Z</time>
      </trkpt>
      <trkpt lat="45.1051" lon="0.60439">
        <ele>128</ele>
        <time>2025-05-25T09:30:14Z</time>
      </trkpt>
      <trkpt lat="45.10502" lon="0.60446">
        <ele>127.6</ele>
        <time>2025-05-25T09:30:15Z</time>
      </trkpt>
      <trkpt lat="45.10495" lon="0.60452">
        <ele>127</ele>
        <time>2025-05-25T09:30:16Z</time>
      </trkpt>
      <trkpt lat="45.10487" lon="0.60456">
        <ele>126.8</ele>
        <time>2025-05-25T09:30:17Z</time>
      </trkpt>
      <trkpt lat="45.10479" lon="0.60461">
        <ele>126.4</ele>
        <time>2025-05-25T09:30:18Z</time>
      </trkpt>
      <trkpt lat="45.10471" lon="0.60466">
        <ele>126</ele>
        <time>2025-05-25T09:30:19Z</time>
      </trkpt>
      <trkpt lat="45.10463" lon="0.60471">
        <ele>125.8</ele>
        <time>2025-05-25T09:30:20Z</time>
      </trkpt>
      <trkpt lat="45.10456" lon="0.60477">
        <ele>125.4</ele>
        <time>2025-05-25T09:30:21Z</time>
      </trkpt>
      <trkpt lat="45.10448" lon="0.60482">
        <ele>125</ele>
        <time>2025-05-25T09:30:22Z</time>
      </trkpt>
      <trkpt lat="45.10441" lon="0.60489">
        <ele>124.8</ele>
        <time>2025-05-25T09:30:23Z</time>
      </trkpt>
      <trkpt lat="45.10434" lon="0.60495">
        <ele>124.6</ele>
        <time>2025-05-25T09:30:24Z</time>
      </trkpt>
      <trkpt lat="45.10428" lon="0.60501">
        <ele>124.2</ele>
        <time>2025-05-25T09:30:25Z</time>
      </trkpt>
      <trkpt lat="45.10422" lon="0.60507">
        <ele>124</ele>
        <time>2025-05-25T09:30:26Z</time>
      </trkpt>
      <trkpt lat="45.10417" lon="0.60511">
        <ele>123.8</ele>
        <time>2025-05-25T09:30:27Z</time>
      </trkpt>
      <trkpt lat="45.10413" lon="0.60515">
        <ele>124</ele>
        <time>2025-05-25T09:30:28Z</time>
      </trkpt>
      <trkpt lat="45.10408" lon="0.60518">
        <ele>124.2</ele>
        <time>2025-05-25T09:30:29Z</time>
      </trkpt>
      <trkpt lat="45.10404" lon="0.60519">
        <ele>124.6</ele>
        <time>2025-05-25T09:30:30Z</time>
      </trkpt>
      <trkpt lat="45.10399" lon="0.60519">
        <ele>124.8</ele>
        <time>2025-05-25T09:30:31Z</time>
      </trkpt>
      <trkpt lat="45.10394" lon="0.6052">
        <ele>125</ele>
        <time>2025-05-25T09:30:32Z</time>
      </trkpt>
      <trkpt lat="45.10389" lon="0.60522">
        <ele>125.2</ele>
        <time>2025-05-25T09:30:33Z</time>
      </trkpt>
      <trkpt lat="45.10383" lon="0.60524">
        <ele>125</ele>
        <time>2025-05-25T09:30:34Z</time>
      </trkpt>
      <trkpt lat="45.10377" lon="0.60527">
        <ele>124.6</ele>
        <time>2025-05-25T09:30:35Z</time>
      </trkpt>
      <trkpt lat="45.10371" lon="0.6053">
        <ele>124.4</ele>
        <time>2025-05-25T09:30:36Z</time>
      </trkpt>
      <trkpt lat="45.10365" lon="0.60533">
        <ele>124.2</ele>
        <time>2025-05-25T09:30:37Z</time>
      </trkpt>
      <trkpt lat="45.10359" lon="0.60538">
        <ele>123.8</ele>
        <time>2025-05-25T09:30:38Z</time>
      </trkpt>
      <trkpt lat="45.10355" lon="0.60544">
        <ele>123.2</ele>
        <time>2025-05-25T09:30:39Z</time>
      </trkpt>
      <trkpt lat="45.10349" lon="0.6055">
        <ele>122.8</ele>
        <time>2025-05-25T09:30:40Z</time>
      </trkpt>
      <trkpt lat="45.10344" lon="0.60556">
        <ele>122.4</ele>
        <time>2025-05-25T09:30:41Z</time>
      </trkpt>
      <trkpt lat="45.10339" lon="0.60562">
        <ele>122.2</ele>
        <time>2025-05-25T09:30:42Z</time>
      </trkpt>
      <trkpt lat="45.10334" lon="0.60568">
        <ele>122.2</ele>
        <time>2025-05-25T09:30:43Z</time>
      </trkpt>
      <trkpt lat="45.10331" lon="0.60575">
        <ele>122</ele>
        <time>2025-05-25T09:30:44Z</time>
      </trkpt>
      <trkpt lat="45.10329" lon="0.60583">
        <ele>121.8</ele>
        <time>2025-05-25T09:30:45Z</time>
      </trkpt>
      <trkpt lat="45.10327" lon="0.60592">
        <ele>121.8</ele>
        <time>2025-05-25T09:30:46Z</time>
      </trkpt>
      <trkpt lat="45.10325" lon="0.60601">
        <ele>121.8</ele>
        <time>2025-05-25T09:30:47Z</time>
      </trkpt>
      <trkpt lat="45.10323" lon="0.6061">
        <ele>121.8</ele>
        <time>2025-05-25T09:30:48Z</time>
      </trkpt>
      <trkpt lat="45.10322" lon="0.60619">
        <ele>121.6</ele>
        <time>2025-05-25T09:30:49Z</time>
      </trkpt>
      <trkpt lat="45.10321" lon="0.60627">
        <ele>121.6</ele>
        <time>2025-05-25T09:30:50Z</time>
      </trkpt>
      <trkpt lat="45.10321" lon="0.60636">
        <ele>121.6</ele>
        <time>2025-05-25T09:30:51Z</time>
      </trkpt>
      <trkpt lat="45.10322" lon="0.60644">
        <ele>121.8</ele>
        <time>2025-05-25T09:30:52Z</time>
      </trkpt>
      <trkpt lat="45.10326" lon="0.6065">
        <ele>122</ele>
        <time>2025-05-25T09:30:53Z</time>
      </trkpt>
      <trkpt lat="45.1033" lon="0.60655">
        <ele>122.2</ele>
        <time>2025-05-25T09:30:54Z</time>
      </trkpt>
      <trkpt lat="45.10335" lon="0.60661">
        <ele>122.4</ele>
        <time>2025-05-25T09:30:55Z</time>
      </trkpt>
      <trkpt lat="45.10339" lon="0.60666">
        <ele>122.6</ele>
        <time>2025-05-25T09:30:56Z</time>
      </trkpt>
      <trkpt lat="45.10344" lon="0.60669">
        <ele>122.8</ele>
        <time>2025-05-25T09:30:57Z</time>
      </trkpt>
      <trkpt lat="45.10348" lon="0.60673">
        <ele>122.8</ele>
        <time>2025-05-25T09:30:58Z</time>
      </trkpt>
      <trkpt lat="45.10352" lon="0.60678">
        <ele>123</ele>
        <time>2025-05-25T09:30:59Z</time>
      </trkpt>
      <trkpt lat="45.10356" lon="0.60682">
        <ele>123.2</ele>
        <time>2025-05-25T09:31:00Z</time>
      </trkpt>
      <trkpt lat="45.10359" lon="0.60687">
        <ele>123.4</ele>
        <time>2025-05-25T09:31:01Z</time>
      </trkpt>
      <trkpt lat="45.10362" lon="0.60692">
        <ele>123.8</ele>
        <time>2025-05-25T09:31:02Z</time>
      </trkpt>
      <trkpt lat="45.10364" lon="0.60697">
        <ele>124</ele>
        <time>2025-05-25T09:31:03Z</time>
      </trkpt>
      <trkpt lat="45.10364" lon="0.60702">
        <ele>124.2</ele>
        <time>2025-05-25T09:31:04Z</time>
      </trkpt>
      <trkpt lat="45.10363" lon="0.60707">
        <ele>124.6</ele>
        <time>2025-05-25T09:31:05Z</time>
      </trkpt>
      <trkpt lat="45.10362" lon="0.60711">
        <ele>124.8</ele>
        <time>2025-05-25T09:31:06Z</time>
      </trkpt>
      <trkpt lat="45.1036" lon="0.60715">
        <ele>125</ele>
        <time>2025-05-25T09:31:07Z</time>
      </trkpt>
      <trkpt lat="45.10359" lon="0.60719">
        <ele>125.2</ele>
        <time>2025-05-25T09:31:08Z</time>
      </trkpt>
      <trkpt lat="45.10358" lon="0.60723">
        <ele>125.4</ele>
        <time>2025-05-25T09:31:09Z</time>
      </trkpt>
      <trkpt lat="45.10356" lon="0.60726">
        <ele>125.6</ele>
        <time>2025-05-25T09:31:10Z</time>
      </trkpt>
      <trkpt lat="45.10355" lon="0.60729">
        <ele>126</ele>
        <time>2025-05-25T09:31:11Z</time>
      </trkpt>
      <trkpt lat="45.10353" lon="0.60733">
        <ele>126.2</ele>
        <time>2025-05-25T09:31:12Z</time>
      </trkpt>
      <trkpt lat="45.10352" lon="0.60736">
        <ele>126.4</ele>
        <time>2025-05-25T09:31:13Z</time>
      </trkpt>
      <trkpt lat="45.10351" lon="0.6074">
        <ele>126.6</ele>
        <time>2025-05-25T09:31:14Z</time>
      </trkpt>
      <trkpt lat="45.1035" lon="0.60743">
        <ele>126.8</ele>
        <time>2025-05-25T09:31:15Z</time>
      </trkpt>
      <trkpt lat="45.10349" lon="0.60747">
        <ele>126.8</ele>
        <time>2025-05-25T09:31:16Z</time>
      </trkpt>
      <trkpt lat="45.10348" lon="0.6075">
        <ele>127</ele>
        <time>2025-05-25T09:31:17Z</time>
      </trkpt>
      <trkpt lat="45.10347" lon="0.60753">
        <ele>127.2</ele>
        <time>2025-05-25T09:31:18Z</time>
      </trkpt>
      <trkpt lat="45.10346" lon="0.60757">
        <ele>127.4</ele>
        <time>2025-05-25T09:31:19Z</time>
      </trkpt>
      <trkpt lat="45.10345" lon="0.6076">
        <ele>127.6</ele>
        <time>2025-05-25T09:31:20Z</time>
      </trkpt>
      <trkpt lat="45.10343" lon="0.60763">
        <ele>127.8</ele>
        <time>2025-05-25T09:31:21Z</time>
      </trkpt>
      <trkpt lat="45.10342" lon="0.60766">
        <ele>128</ele>
        <time>2025-05-25T09:31:22Z</time>
      </trkpt>
      <trkpt lat="45.10342" lon="0.60769">
        <ele>128.2</ele>
        <time>2025-05-25T09:31:23Z</time>
      </trkpt>
      <trkpt lat="45.1034" lon="0.60772">
        <ele>128.4</ele>
        <time>2025-05-25T09:31:24Z</time>
      </trkpt>
      <trkpt lat="45.10339" lon="0.60775">
        <ele>128.6</ele>
        <time>2025-05-25T09:31:25Z</time>
      </trkpt>
      <trkpt lat="45.10338" lon="0.60777">
        <ele>128.8</ele>
        <time>2025-05-25T09:31:26Z</time>
      </trkpt>
      <trkpt lat="45.10336" lon="0.6078">
        <ele>129</ele>
        <time>2025-05-25T09:31:27Z</time>
      </trkpt>
      <trkpt lat="45.10335" lon="0.60782">
        <ele>129.2</ele>
        <time>2025-05-25T09:31:28Z</time>
      </trkpt>
      <trkpt lat="45.10334" lon="0.60785">
        <ele>129.4</ele>
        <time>2025-05-25T09:31:29Z</time>
      </trkpt>
      <trkpt lat="45.10333" lon="0.60787">
        <ele>129.4</ele>
        <time>2025-05-25T09:31:30Z</time>
      </trkpt>
      <trkpt lat="45.10331" lon="0.6079">
        <ele>129.6</ele>
        <time>2025-05-25T09:31:31Z</time>
      </trkpt>
      <trkpt lat="45.1033" lon="0.60792">
        <ele>129.8</ele>
        <time>2025-05-25T09:31:32Z</time>
      </trkpt>
      <trkpt lat="45.10329" lon="0.60793">
        <ele>129.8</ele>
        <time>2025-05-25T09:31:33Z</time>
      </trkpt>
      <trkpt lat="45.10327" lon="0.60795">
        <ele>130</ele>
        <time>2025-05-25T09:31:34Z</time>
      </trkpt>
      <trkpt lat="45.10326" lon="0.60796">
        <ele>130</ele>
        <time>2025-05-25T09:31:35Z</time>
      </trkpt>
      <trkpt lat="45.10325" lon="0.60798">
        <ele>130.2</ele>
        <time>2025-05-25T09:31:36Z</time>
      </trkpt>
      <trkpt lat="45.10323" lon="0.608">
        <ele>130.2</ele>
        <time>2025-05-25T09:31:37Z</time>
      </trkpt>
      <trkpt lat="45.10322" lon="0.60801">
        <ele>130.4</ele>
        <time>2025-05-25T09:31:38Z</time>
      </trkpt>
      <trkpt lat="45.1032" lon="0.60802">
        <ele>130.4</ele>
        <time>2025-05-25T09:31:39Z</time>
      </trkpt>
      <trkpt lat="45.10319" lon="0.60804">
        <ele>130.6</ele>
        <time>2025-05-25T09:31:40Z</time>
      </trkpt>
      <trkpt lat="45.10317" lon="0.60805">
        <ele>130.6</ele>
        <time>2025-05-25T09:31:41Z</time>
      </trkpt>
      <trkpt lat="45.10316" lon="0.60807">
        <ele>130.8</ele>
        <time>2025-05-25T09:31:42Z</time>
      </trkpt>
      <trkpt lat="45.10314" lon="0.60809">
        <ele>131</ele>
        <time>2025-05-25T09:31:43Z</time>
      </trkpt>
      <trkpt lat="45.10312" lon="0.60811">
        <ele>131.2</ele>
        <time>2025-05-25T09:31:44Z</time>
      </trkpt>
      <trkpt lat="45.1031" lon="0.60812">
        <ele>131.4</ele>
        <time>2025-05-25T09:31:45Z</time>
      </trkpt>
      <trkpt lat="45.10309" lon="0.60813">
        <ele>131.6</ele>
        <time>2025-05-25T09:31:46Z</time>
      </trkpt>
      <trkpt lat="45.10307" lon="0.60814">
        <ele>131.8</ele>
        <time>2025-05-25T09:31:47Z</time>
      </trkpt>
      <trkpt lat="45.10306" lon="0.60816">
        <ele>132</ele>
        <time>2025-05-25T09:31:48Z</time>
      </trkpt>
      <trkpt lat="45.10304" lon="0.60817">
        <ele>132</ele>
        <time>2025-05-25T09:31:49Z</time>
      </trkpt>
      <trkpt lat="45.10302" lon="0.60819">
        <ele>132.2</ele>
        <time>2025-05-25T09:31:50Z</time>
      </trkpt>
      <trkpt lat="45.10301" lon="0.6082">
        <ele>132.4</ele>
        <time>2025-05-25T09:31:51Z</time>
      </trkpt>
      <trkpt lat="45.10299" lon="0.60821">
        <ele>132.6</ele>
        <time>2025-05-25T09:31:52Z</time>
      </trkpt>
      <trkpt lat="45.10297" lon="0.60823">
        <ele>132.6</ele>
        <time>2025-05-25T09:31:53Z</time>
      </trkpt>
      <trkpt lat="45.10295" lon="0.60824">
        <ele>132.8</ele>
        <time>2025-05-25T09:31:54Z</time>
      </trkpt>
      <trkpt lat="45.10294" lon="0.60826">
        <ele>133</ele>
        <time>2025-05-25T09:31:55Z</time>
      </trkpt>
      <trkpt lat="45.10292" lon="0.60827">
        <ele>133</ele>
        <time>2025-05-25T09:31:56Z</time>
      </trkpt>
      <trkpt lat="45.1029" lon="0.60828">
        <ele>133.2</ele>
        <time>2025-05-25T09:31:57Z</time>
      </trkpt>
      <trkpt lat="45.10288" lon="0.6083">
        <ele>133.4</ele>
        <time>2025-05-25T09:31:58Z</time>
      </trkpt>
      <trkpt lat="45.10287" lon="0.60831">
        <ele>133.4</ele>
        <time>2025-05-25T09:31:59Z</time>
      </trkpt>
      <trkpt lat="45.10285" lon="0.60833">
        <ele>133.6</ele>
        <time>2025-05-25T09:32:00Z</time>
      </trkpt>
      <trkpt lat="45.10283" lon="0.60834">
        <ele>133.6</ele>
        <time>2025-05-25T09:32:01Z</time>
      </trkpt>
      <trkpt lat="45.10281" lon="0.60835">
        <ele>133.8</ele>
        <time>2025-05-25T09:32:02Z</time>
      </trkpt>
      <trkpt lat="45.10279" lon="0.60837">
        <ele>133.8</ele>
        <time>2025-05-25T09:32:03Z</time>
      </trkpt>
      <trkpt lat="45.10278" lon="0.60838">
        <ele>134</ele>
        <time>2025-05-25T09:32:04Z</time>
      </trkpt>
      <trkpt lat="45.10276" lon="0.6084">
        <ele>134.2</ele>
        <time>2025-05-25T09:32:05Z</time>
      </trkpt>
      <trkpt lat="45.10274" lon="0.60841">
        <ele>134.2</ele>
        <time>2025-05-25T09:32:06Z</time>
      </trkpt>
      <trkpt lat="45.10273" lon="0.60843">
        <ele>134.4</ele>
        <time>2025-05-25T09:32:07Z</time>
      </trkpt>
      <trkpt lat="45.10271" lon="0.60844">
        <ele>134.6</ele>
        <time>2025-05-25T09:32:08Z</time>
      </trkpt>
      <trkpt lat="45.10269" lon="0.60845">
        <ele>134.6</ele>
        <time>2025-05-25T09:32:09Z</time>
      </trkpt>
      <trkpt lat="45.10268" lon="0.60847">
        <ele>134.8</ele>
        <time>2025-05-25T09:32:10Z</time>
      </trkpt>
      <trkpt lat="45.10266" lon="0.60848">
        <ele>134.8</ele>
        <time>2025-05-25T09:32:11Z</time>
      </trkpt>
      <trkpt lat="45.10264" lon="0.6085">
        <ele>135</ele>
        <time>2025-05-25T09:32:12Z</time>
      </trkpt>
      <trkpt lat="45.10262" lon="0.60851">
        <ele>135.2</ele>
        <time>2025-05-25T09:32:13Z</time>
      </trkpt>
      <trkpt lat="45.10261" lon="0.60853">
        <ele>135.4</ele>
        <time>2025-05-25T09:32:14Z</time>
      </trkpt>
      <trkpt lat="45.10259" lon="0.60854">
        <ele>135.4</ele>
        <time>2025-05-25T09:32:15Z</time>
      </trkpt>
      <trkpt lat="45.10257" lon="0.60855">
        <ele>135.6</ele>
        <time>2025-05-25T09:32:16Z</time>
      </trkpt>
      <trkpt lat="45.10255" lon="0.60857">
        <ele>135.6</ele>
        <time>2025-05-25T09:32:17Z</time>
      </trkpt>
      <trkpt lat="45.10253" lon="0.60859">
        <ele>135.8</ele>
        <time>2025-05-25T09:32:18Z</time>
      </trkpt>
      <trkpt lat="45.10252" lon="0.6086">
        <ele>135.8</ele>
        <time>2025-05-25T09:32:19Z</time>
      </trkpt>
      <trkpt lat="45.1025" lon="0.60862">
        <ele>136</ele>
        <time>2025-05-25T09:32:20Z</time>
      </trkpt>
      <trkpt lat="45.10248" lon="0.60863">
        <ele>136</ele>
        <time>2025-05-25T09:32:21Z</time>
      </trkpt>
      <trkpt lat="45.10246" lon="0.60864">
        <ele>136.2</ele>
        <time>2025-05-25T09:32:22Z</time>
      </trkpt>
      <trkpt lat="45.10244" lon="0.60866">
        <ele>136.4</ele>
        <time>2025-05-25T09:32:23Z</time>
      </trkpt>
      <trkpt lat="45.10242" lon="0.60868">
        <ele>136.4</ele>
        <time>2025-05-25T09:32:24Z</time>
      </trkpt>
      <trkpt lat="45.1024" lon="0.6087">
        <ele>136.6</ele>
        <time>2025-05-25T09:32:25Z</time>
      </trkpt>
      <trkpt lat="45.10239" lon="0.60871">
        <ele>136.6</ele>
        <time>2025-05-25T09:32:26Z</time>
      </trkpt>
      <trkpt lat="45.10237" lon="0.60873">
        <ele>136.8</ele>
        <time>2025-05-25T09:32:27Z</time>
      </trkpt>
      <trkpt lat="45.10235" lon="0.60874">
        <ele>136.8</ele>
        <time>2025-05-25T09:32:28Z</time>
      </trkpt>
      <trkpt lat="45.10233" lon="0.60876">
        <ele>137</ele>
        <time>2025-05-25T09:32:29Z</time>
      </trkpt>
      <trkpt lat="45.10231" lon="0.60877">
        <ele>137</ele>
        <time>2025-05-25T09:32:30Z</time>
      </trkpt>
      <trkpt lat="45.1023" lon="0.60879">
        <ele>137.2</ele>
        <time>2025-05-25T09:32:31Z</time>
      </trkpt>
      <trkpt lat="45.10228" lon="0.60881">
        <ele>137.2</ele>
        <time>2025-05-25T09:32:32Z</time>
      </trkpt>
      <trkpt lat="45.10226" lon="0.60882">
        <ele>137.4</ele>
        <time>2025-05-25T09:32:33Z</time>
      </trkpt>
      <trkpt lat="45.10224" lon="0.60884">
        <ele>137.4</ele>
        <time>2025-05-25T09:32:34Z</time>
      </trkpt>
      <trkpt lat="45.10221" lon="0.60885">
        <ele>137.4</ele>
        <time>2025-05-25T09:32:35Z</time>
      </trkpt>
      <trkpt lat="45.10219" lon="0.60886">
        <ele>137.6</ele>
        <time>2025-05-25T09:32:36Z</time>
      </trkpt>
      <trkpt lat="45.10217" lon="0.60888">
        <ele>137.6</ele>
        <time>2025-05-25T09:32:37Z</time>
      </trkpt>
      <trkpt lat="45.10215" lon="0.60889">
        <ele>137.6</ele>
        <time>2025-05-25T09:32:38Z</time>
      </trkpt>
      <trkpt lat="45.10213" lon="0.60891">
        <ele>137.8</ele>
        <time>2025-05-25T09:32:39Z</time>
      </trkpt>
      <trkpt lat="45.10211" lon="0.60893">
        <ele>137.8</ele>
        <time>2025-05-25T09:32:40Z</time>
      </trkpt>
      <trkpt lat="45.10209" lon="0.60895">
        <ele>138</ele>
        <time>2025-05-25T09:32:41Z</time>
      </trkpt>
      <trkpt lat="45.10207" lon="0.60897">
        <ele>138.2</ele>
        <time>2025-05-25T09:32:42Z</time>
      </trkpt>
      <trkpt lat="45.10205" lon="0.60898">
        <ele>138.2</ele>
        <time>2025-05-25T09:32:43Z</time>
      </trkpt>
      <trkpt lat="45.10203" lon="0.609">
        <ele>138.4</ele>
        <time>2025-05-25T09:32:44Z</time>
      </trkpt>
      <trkpt lat="45.10201" lon="0.60902">
        <ele>138.6</ele>
        <time>2025-05-25T09:32:45Z</time>
      </trkpt>
      <trkpt lat="45.10199" lon="0.60903">
        <ele>138.6</ele>
        <time>2025-05-25T09:32:46Z</time>
      </trkpt>
      <trkpt lat="45.10196" lon="0.60904">
        <ele>138.8</ele>
        <time>2025-05-25T09:32:47Z</time>
      </trkpt>
      <trkpt lat="45.10194" lon="0.60906">
        <ele>139</ele>
        <time>2025-05-25T09:32:48Z</time>
      </trkpt>
      <trkpt lat="45.10192" lon="0.60907">
        <ele>139</ele>
        <time>2025-05-25T09:32:49Z</time>
      </trkpt>
      <trkpt lat="45.1019" lon="0.60909">
        <ele>139.2</ele>
        <time>2025-05-25T09:32:50Z</time>
      </trkpt>
      <trkpt lat="45.10188" lon="0.60911">
        <ele>139.2</ele>
        <time>2025-05-25T09:32:51Z</time>
      </trkpt>
      <trkpt lat="45.10186" lon="0.60912">
        <ele>139.4</ele>
        <time>2025-05-25T09:32:52Z</time>
      </trkpt>
      <trkpt lat="45.10184" lon="0.60914">
        <ele>139.6</ele>
        <time>2025-05-25T09:32:53Z</time>
      </trkpt>
      <trkpt lat="45.10182" lon="0.60916">
        <ele>139.6</ele>
        <time>2025-05-25T09:32:54Z</time>
      </trkpt>
      <trkpt lat="45.1018" lon="0.60917">
        <ele>139.8</ele>
        <time>2025-05-25T09:32:55Z</time>
      </trkpt>
      <trkpt lat="45.10178" lon="0.60919">
        <ele>139.8</ele>
        <time>2025-05-25T09:32:56Z</time>
      </trkpt>
      <trkpt lat="45.10176" lon="0.60921">
        <ele>140</ele>
        <time>2025-05-25T09:32:57Z</time>
      </trkpt>
      <trkpt lat="45.10174" lon="0.60923">
        <ele>140</ele>
        <time>2025-05-25T09:32:58Z</time>
      </trkpt>
      <trkpt lat="45.10172" lon="0.60925">
        <ele>140.2</ele>
        <time>2025-05-25T09:32:59Z</time>
      </trkpt>
      <trkpt lat="45.1017" lon="0.60927">
        <ele>140.2</ele>
        <time>2025-05-25T09:33:00Z</time>
      </trkpt>
      <trkpt lat="45.10168" lon="0.60928">
        <ele>140.2</ele>
        <time>2025-05-25T09:33:01Z</time>
      </trkpt>
      <trkpt lat="45.10166" lon="0.6093">
        <ele>140.4</ele>
        <time>2025-05-25T09:33:02Z</time>
      </trkpt>
      <trkpt lat="45.10163" lon="0.60932">
        <ele>140.4</ele>
        <time>2025-05-25T09:33:03Z</time>
      </trkpt>
      <trkpt lat="45.10161" lon="0.60933">
        <ele>140.6</ele>
        <time>2025-05-25T09:33:04Z</time>
      </trkpt>
      <trkpt lat="45.10159" lon="0.60934">
        <ele>140.6</ele>
        <time>2025-05-25T09:33:05Z</time>
      </trkpt>
      <trkpt lat="45.10157" lon="0.60936">
        <ele>140.6</ele>
        <time>2025-05-25T09:33:06Z</time>
      </trkpt>
      <trkpt lat="45.10155" lon="0.60938">
        <ele>140.8</ele>
        <time>2025-05-25T09:33:07Z</time>
      </trkpt>
      <trkpt lat="45.10153" lon="0.6094">
        <ele>140.8</ele>
        <time>2025-05-25T09:33:08Z</time>
      </trkpt>
      <trkpt lat="45.10151" lon="0.60941">
        <ele>140.8</ele>
        <time>2025-05-25T09:33:09Z</time>
      </trkpt>
      <trkpt lat="45.10149" lon="0.60944">
        <ele>141</ele>
        <time>2025-05-25T09:33:10Z</time>
      </trkpt>
      <trkpt lat="45.10148" lon="0.60946">
        <ele>141</ele>
        <time>2025-05-25T09:33:11Z</time>
      </trkpt>
      <trkpt lat="45.10146" lon="0.60948">
        <ele>141</ele>
        <time>2025-05-25T09:33:12Z</time>
      </trkpt>
      <trkpt lat="45.10144" lon="0.6095">
        <ele>141.2</ele>
        <time>2025-05-25T09:33:13Z</time>
      </trkpt>
      <trkpt lat="45.10142" lon="0.60952">
        <ele>141.4</ele>
        <time>2025-05-25T09:33:14Z</time>
      </trkpt>
      <trkpt lat="45.1014" lon="0.60954">
        <ele>141.4</ele>
        <time>2025-05-25T09:33:15Z</time>
      </trkpt>
      <trkpt lat="45.10138" lon="0.60955">
        <ele>141.6</ele>
        <time>2025-05-25T09:33:16Z</time>
      </trkpt>
      <trkpt lat="45.10136" lon="0.60957">
        <ele>141.6</ele>
        <time>2025-05-25T09:33:17Z</time>
      </trkpt>
      <trkpt lat="45.10134" lon="0.6096">
        <ele>141.8</ele>
        <time>2025-05-25T09:33:18Z</time>
      </trkpt>
      <trkpt lat="45.10132" lon="0.60962">
        <ele>141.8</ele>
        <time>2025-05-25T09:33:19Z</time>
      </trkpt>
      <trkpt lat="45.1013" lon="0.60964">
        <ele>142</ele>
        <time>2025-05-25T09:33:20Z</time>
      </trkpt>
      <trkpt lat="45.10128" lon="0.60967">
        <ele>142</ele>
        <time>2025-05-25T09:33:21Z</time>
      </trkpt>
      <trkpt lat="45.10126" lon="0.60969">
        <ele>142.2</ele>
        <time>2025-05-25T09:33:22Z</time>
      </trkpt>
      <trkpt lat="45.10124" lon="0.60971">
        <ele>142.2</ele>
        <time>2025-05-25T09:33:23Z</time>
      </trkpt>
      <trkpt lat="45.10122" lon="0.60973">
        <ele>142.2</ele>
        <time>2025-05-25T09:33:24Z</time>
      </trkpt>
      <trkpt lat="45.10119" lon="0.60976">
        <ele>142.4</ele>
        <time>2025-05-25T09:33:25Z</time>
      </trkpt>
      <trkpt lat="45.10116" lon="0.60978">
        <ele>142.6</ele>
        <time>2025-05-25T09:33:26Z</time>
      </trkpt>
      <trkpt lat="45.10114" lon="0.60981">
        <ele>142.8</ele>
        <time>2025-05-25T09:33:27Z</time>
      </trkpt>
      <trkpt lat="45.10111" lon="0.60983">
        <ele>143</ele>
        <time>2025-05-25T09:33:28Z</time>
      </trkpt>
      <trkpt lat="45.10109" lon="0.60984">
        <ele>143.2</ele>
        <time>2025-05-25T09:33:29Z</time>
      </trkpt>
      <trkpt lat="45.10106" lon="0.60986">
        <ele>143.4</ele>
        <time>2025-05-25T09:33:30Z</time>
      </trkpt>
      <trkpt lat="45.10104" lon="0.60989">
        <ele>143.4</ele>
        <time>2025-05-25T09:33:31Z</time>
      </trkpt>
      <trkpt lat="45.10102" lon="0.60991">
        <ele>143.6</ele>
        <time>2025-05-25T09:33:32Z</time>
      </trkpt>
      <trkpt lat="45.101" lon="0.60993">
        <ele>143.8</ele>
        <time>2025-05-25T09:33:33Z</time>
      </trkpt>
      <trkpt lat="45.10098" lon="0.60995">
        <ele>144</ele>
        <time>2025-05-25T09:33:34Z</time>
      </trkpt>
      <trkpt lat="45.10096" lon="0.60997">
        <ele>144.2</ele>
        <time>2025-05-25T09:33:35Z</time>
      </trkpt>
      <trkpt lat="45.10094" lon="0.60999">
        <ele>144.4</ele>
        <time>2025-05-25T09:33:36Z</time>
      </trkpt>
      <trkpt lat="45.10092" lon="0.61002">
        <ele>144.6</ele>
        <time>2025-05-25T09:33:37Z</time>
      </trkpt>
      <trkpt lat="45.1009" lon="0.61004">
        <ele>144.8</ele>
        <time>2025-05-25T09:33:38Z</time>
      </trkpt>
      <trkpt lat="45.10089" lon="0.61006">
        <ele>145</ele>
        <time>2025-05-25T09:33:39Z</time>
      </trkpt>
      <trkpt lat="45.10087" lon="0.61008">
        <ele>145</ele>
        <time>2025-05-25T09:33:40Z</time>
      </trkpt>
      <trkpt lat="45.10085" lon="0.6101">
        <ele>145.2</ele>
        <time>2025-05-25T09:33:41Z</time>
      </trkpt>
      <trkpt lat="45.10083" lon="0.61013">
        <ele>145.2</ele>
        <time>2025-05-25T09:33:42Z</time>
      </trkpt>
      <trkpt lat="45.10081" lon="0.61015">
        <ele>145.6</ele>
        <time>2025-05-25T09:33:43Z</time>
      </trkpt>
      <trkpt lat="45.10079" lon="0.61018">
        <ele>145.6</ele>
        <time>2025-05-25T09:33:44Z</time>
      </trkpt>
      <trkpt lat="45.10077" lon="0.6102">
        <ele>145.8</ele>
        <time>2025-05-25T09:33:45Z</time>
      </trkpt>
      <trkpt lat="45.10076" lon="0.61022">
        <ele>145.8</ele>
        <time>2025-05-25T09:33:46Z</time>
      </trkpt>
      <trkpt lat="45.10075" lon="0.61023">
        <ele>146</ele>
        <time>2025-05-25T09:33:47Z</time>
      </trkpt>
      <trkpt lat="45.10073" lon="0.61026">
        <ele>146</ele>
        <time>2025-05-25T09:33:48Z</time>
      </trkpt>
      <trkpt lat="45.10071" lon="0.61028">
        <ele>146.2</ele>
        <time>2025-05-25T09:33:49Z</time>
      </trkpt>
      <trkpt lat="45.10069" lon="0.61031">
        <ele>146.4</ele>
        <time>2025-05-25T09:33:50Z</time>
      </trkpt>
      <trkpt lat="45.10067" lon="0.61033">
        <ele>146.4</ele>
        <time>2025-05-25T09:33:51Z</time>
      </trkpt>
      <trkpt lat="45.10066" lon="0.61036">
        <ele>146.6</ele>
        <time>2025-05-25T09:33:52Z</time>
      </trkpt>
      <trkpt lat="45.10065" lon="0.61038">
        <ele>146.6</ele>
        <time>2025-05-25T09:33:53Z</time>
      </trkpt>
      <trkpt lat="45.10063" lon="0.6104">
        <ele>146.8</ele>
        <time>2025-05-25T09:33:54Z</time>
      </trkpt>
      <trkpt lat="45.10062" lon="0.61042">
        <ele>147</ele>
        <time>2025-05-25T09:33:55Z</time>
      </trkpt>
      <trkpt lat="45.10061" lon="0.61045">
        <ele>147.2</ele>
        <time>2025-05-25T09:33:56Z</time>
      </trkpt>
      <trkpt lat="45.10059" lon="0.61047">
        <ele>147.4</ele>
        <time>2025-05-25T09:33:57Z</time>
      </trkpt>
      <trkpt lat="45.10058" lon="0.61048">
        <ele>147.6</ele>
        <time>2025-05-25T09:33:58Z</time>
      </trkpt>
      <trkpt lat="45.10056" lon="0.61051">
        <ele>147.6</ele>
        <time>2025-05-25T09:33:59Z</time>
      </trkpt>
      <trkpt lat="45.10055" lon="0.61053">
        <ele>148</ele>
        <time>2025-05-25T09:34:00Z</time>
      </trkpt>
      <trkpt lat="45.10053" lon="0.61055">
        <ele>148</ele>
        <time>2025-05-25T09:34:01Z</time>
      </trkpt>
      <trkpt lat="45.10052" lon="0.61056">
        <ele>148.2</ele>
        <time>2025-05-25T09:34:02Z</time>
      </trkpt>
      <trkpt lat="45.1005" lon="0.61059">
        <ele>148.4</ele>
        <time>2025-05-25T09:34:03Z</time>
      </trkpt>
      <trkpt lat="45.10049" lon="0.61061">
        <ele>148.6</ele>
        <time>2025-05-25T09:34:04Z</time>
      </trkpt>
      <trkpt lat="45.10047" lon="0.61063">
        <ele>148.8</ele>
        <time>2025-05-25T09:34:05Z</time>
      </trkpt>
      <trkpt lat="45.10045" lon="0.61065">
        <ele>149</ele>
        <time>2025-05-25T09:34:06Z</time>
      </trkpt>
      <trkpt lat="45.10044" lon="0.61068">
        <ele>149.2</ele>
        <time>2025-05-25T09:34:07Z</time>
      </trkpt>
      <trkpt lat="45.10042" lon="0.61071">
        <ele>149.4</ele>
        <time>2025-05-25T09:34:08Z</time>
      </trkpt>
      <trkpt lat="45.10041" lon="0.61072">
        <ele>149.6</ele>
        <time>2025-05-25T09:34:09Z</time>
      </trkpt>
      <trkpt lat="45.1004" lon="0.61074">
        <ele>149.8</ele>
        <time>2025-05-25T09:34:10Z</time>
      </trkpt>
      <trkpt lat="45.10039" lon="0.61076">
        <ele>150</ele>
        <time>2025-05-25T09:34:11Z</time>
      </trkpt>
      <trkpt lat="45.10038" lon="0.61078">
        <ele>150</ele>
        <time>2025-05-25T09:34:12Z</time>
      </trkpt>
      <trkpt lat="45.10037" lon="0.6108">
        <ele>150.2</ele>
        <time>2025-05-25T09:34:13Z</time>
      </trkpt>
      <trkpt lat="45.10036" lon="0.61083">
        <ele>150.4</ele>
        <time>2025-05-25T09:34:14Z</time>
      </trkpt>
      <trkpt lat="45.10034" lon="0.61085">
        <ele>150.6</ele>
        <time>2025-05-25T09:34:15Z</time>
      </trkpt>
      <trkpt lat="45.10033" lon="0.61086">
        <ele>150.8</ele>
        <time>2025-05-25T09:34:16Z</time>
      </trkpt>
      <trkpt lat="45.10032" lon="0.61087">
        <ele>151</ele>
        <time>2025-05-25T09:34:17Z</time>
      </trkpt>
      <trkpt lat="45.10031" lon="0.61089">
        <ele>151</ele>
        <time>2025-05-25T09:34:18Z</time>
      </trkpt>
      <trkpt lat="45.1003" lon="0.61092">
        <ele>151.2</ele>
        <time>2025-05-25T09:34:19Z</time>
      </trkpt>
      <trkpt lat="45.10028" lon="0.61094">
        <ele>151.2</ele>
        <time>2025-05-25T09:34:20Z</time>
      </trkpt>
      <trkpt lat="45.10027" lon="0.61096">
        <ele>151.4</ele>
        <time>2025-05-25T09:34:21Z</time>
      </trkpt>
      <trkpt lat="45.10026" lon="0.61097">
        <ele>151.6</ele>
        <time>2025-05-25T09:34:22Z</time>
      </trkpt>
      <trkpt lat="45.10025" lon="0.61099">
        <ele>151.6</ele>
        <time>2025-05-25T09:34:23Z</time>
      </trkpt>
      <trkpt lat="45.10024" lon="0.61101">
        <ele>151.8</ele>
        <time>2025-05-25T09:34:24Z</time>
      </trkpt>
      <trkpt lat="45.10023" lon="0.61103">
        <ele>152</ele>
        <time>2025-05-25T09:34:25Z</time>
      </trkpt>
      <trkpt lat="45.10022" lon="0.61105">
        <ele>152.2</ele>
        <time>2025-05-25T09:34:26Z</time>
      </trkpt>
      <trkpt lat="45.10021" lon="0.61106">
        <ele>152.4</ele>
        <time>2025-05-25T09:34:27Z</time>
      </trkpt>
      <trkpt lat="45.10019" lon="0.61108">
        <ele>152.6</ele>
        <time>2025-05-25T09:34:28Z</time>
      </trkpt>
      <trkpt lat="45.10018" lon="0.6111">
        <ele>152.8</ele>
        <time>2025-05-25T09:34:29Z</time>
      </trkpt>
      <trkpt lat="45.10017" lon="0.61112">
        <ele>152.8</ele>
        <time>2025-05-25T09:34:30Z</time>
      </trkpt>
      <trkpt lat="45.10015" lon="0.61114">
        <ele>153</ele>
        <time>2025-05-25T09:34:31Z</time>
      </trkpt>
      <trkpt lat="45.10014" lon="0.61116">
        <ele>153</ele>
        <time>2025-05-25T09:34:32Z</time>
      </trkpt>
      <trkpt lat="45.10013" lon="0.61117">
        <ele>153.2</ele>
        <time>2025-05-25T09:34:33Z</time>
      </trkpt>
      <trkpt lat="45.10012" lon="0.61118">
        <ele>153.4</ele>
        <time>2025-05-25T09:34:34Z</time>
      </trkpt>
      <trkpt lat="45.10011" lon="0.61119">
        <ele>153.4</ele>
        <time>2025-05-25T09:34:35Z</time>
      </trkpt>
      <trkpt lat="45.1001" lon="0.6112">
        <ele>153.6</ele>
        <time>2025-05-25T09:34:36Z</time>
      </trkpt>
      <trkpt lat="45.10009" lon="0.61122">
        <ele>153.6</ele>
        <time>2025-05-25T09:34:37Z</time>
      </trkpt>
      <trkpt lat="45.10007" lon="0.61123">
        <ele>153.8</ele>
        <time>2025-05-25T09:34:38Z</time>
      </trkpt>
      <trkpt lat="45.10006" lon="0.61124">
        <ele>153.8</ele>
        <time>2025-05-25T09:34:39Z</time>
      </trkpt>
      <trkpt lat="45.10005" lon="0.61126">
        <ele>154</ele>
        <time>2025-05-25T09:34:40Z</time>
      </trkpt>
      <trkpt lat="45.10003" lon="0.61127">
        <ele>154.2</ele>
        <time>2025-05-25T09:34:41Z</time>
      </trkpt>
      <trkpt lat="45.10002" lon="0.61128">
        <ele>154.2</ele>
        <time>2025-05-25T09:34:42Z</time>
      </trkpt>
      <trkpt lat="45.10001" lon="0.61129">
        <ele>154.4</ele>
        <time>2025-05-25T09:34:43Z</time>
      </trkpt>
      <trkpt lat="45.1" lon="0.6113">
        <ele>154.8</ele>
        <time>2025-05-25T09:34:44Z</time>
      </trkpt>
      <trkpt lat="45.09998" lon="0.61131">
        <ele>155</ele>
        <time>2025-05-25T09:34:45Z</time>
      </trkpt>
      <trkpt lat="45.09997" lon="0.61132">
        <ele>155</ele>
        <time>2025-05-25T09:34:46Z</time>
      </trkpt>
      <trkpt lat="45.09996" lon="0.61133">
        <ele>155.2</ele>
        <time>2025-05-25T09:34:47Z</time>
      </trkpt>
      <trkpt lat="45.09994" lon="0.61134">
        <ele>155.4</ele>
        <time>2025-05-25T09:34:48Z</time>
      </trkpt>
      <trkpt lat="45.09993" lon="0.61135">
        <ele>155.6</ele>
        <time>2025-05-25T09:34:49Z</time>
      </trkpt>
      <trkpt lat="45.09991" lon="0.61136">
        <ele>155.8</ele>
        <time>2025-05-25T09:34:50Z</time>
      </trkpt>
      <trkpt lat="45.0999" lon="0.61137">
        <ele>155.8</ele>
        <time>2025-05-25T09:34:51Z</time>
      </trkpt>
      <trkpt lat="45.09988" lon="0.61138">
        <ele>156</ele>
        <time>2025-05-25T09:34:52Z</time>
      </trkpt>
      <trkpt lat="45.09987" lon="0.61139">
        <ele>156</ele>
        <time>2025-05-25T09:34:53Z</time>
      </trkpt>
      <trkpt lat="45.09986" lon="0.6114">
        <ele>156.2</ele>
        <time>2025-05-25T09:34:54Z</time>
      </trkpt>
      <trkpt lat="45.09984" lon="0.61141">
        <ele>156.4</ele>
        <time>2025-05-25T09:34:55Z</time>
      </trkpt>
      <trkpt lat="45.09983" lon="0.61143">
        <ele>156.6</ele>
        <time>2025-05-25T09:34:56Z</time>
      </trkpt>
      <trkpt lat="45.09982" lon="0.61144">
        <ele>156.8</ele>
        <time>2025-05-25T09:34:57Z</time>
      </trkpt>
      <trkpt lat="45.0998" lon="0.61145">
        <ele>157</ele>
        <time>2025-05-25T09:34:58Z</time>
      </trkpt>
      <trkpt lat="45.09978" lon="0.61146">
        <ele>157</ele>
        <time>2025-05-25T09:34:59Z</time>
      </trkpt>
      <trkpt lat="45.09977" lon="0.61147">
        <ele>157.2</ele>
        <time>2025-05-25T09:35:00Z</time>
      </trkpt>
      <trkpt lat="45.09975" lon="0.61148">
        <ele>157.4</ele>
        <time>2025-05-25T09:35:01Z</time>
      </trkpt>
      <trkpt lat="45.09973" lon="0.6115">
        <ele>157.6</ele>
        <time>2025-05-25T09:35:02Z</time>
      </trkpt>
      <trkpt lat="45.09972" lon="0.61151">
        <ele>157.6</ele>
        <time>2025-05-25T09:35:03Z</time>
      </trkpt>
      <trkpt lat="45.0997" lon="0.61153">
        <ele>157.8</ele>
        <time>2025-05-25T09:35:04Z</time>
      </trkpt>
      <trkpt lat="45.09969" lon="0.61154">
        <ele>158</ele>
        <time>2025-05-25T09:35:05Z</time>
      </trkpt>
      <trkpt lat="45.09968" lon="0.61155">
        <ele>158</ele>
        <time>2025-05-25T09:35:06Z</time>
      </trkpt>
      <trkpt lat="45.09966" lon="0.61156">
        <ele>158.2</ele>
        <time>2025-05-25T09:35:07Z</time>
      </trkpt>
      <trkpt lat="45.09965" lon="0.61156">
        <ele>158.4</ele>
        <time>2025-05-25T09:35:08Z</time>
      </trkpt>
      <trkpt lat="45.09963" lon="0.61158">
        <ele>158.4</ele>
        <time>2025-05-25T09:35:09Z</time>
      </trkpt>
      <trkpt lat="45.09962" lon="0.6116">
        <ele>158.6</ele>
        <time>2025-05-25T09:35:10Z</time>
      </trkpt>
      <trkpt lat="45.09961" lon="0.61161">
        <ele>158.8</ele>
        <time>2025-05-25T09:35:11Z</time>
      </trkpt>
      <trkpt lat="45.0996" lon="0.61162">
        <ele>159</ele>
        <time>2025-05-25T09:35:12Z</time>
      </trkpt>
      <trkpt lat="45.09959" lon="0.61163">
        <ele>159.2</ele>
        <time>2025-05-25T09:35:13Z</time>
      </trkpt>
      <trkpt lat="45.09958" lon="0.61164">
        <ele>159.4</ele>
        <time>2025-05-25T09:35:14Z</time>
      </trkpt>
      <trkpt lat="45.09957" lon="0.61166">
        <ele>159.6</ele>
        <time>2025-05-25T09:35:15Z</time>
      </trkpt>
      <trkpt lat="45.09956" lon="0.61167">
        <ele>159.8</ele>
        <time>2025-05-25T09:35:16Z</time>
      </trkpt>
      <trkpt lat="45.09955" lon="0.61169">
        <ele>159.8</ele>
        <time>2025-05-25T09:35:17Z</time>
      </trkpt>
      <trkpt lat="45.09954" lon="0.6117">
        <ele>160.2</ele>
        <time>2025-05-25T09:35:18Z</time>
      </trkpt>
      <trkpt lat="45.09953" lon="0.61171">
        <ele>160.2</ele>
        <time>2025-05-25T09:35:19Z</time>
      </trkpt>
      <trkpt lat="45.09951" lon="0.61172">
        <ele>160.4</ele>
        <time>2025-05-25T09:35:20Z</time>
      </trkpt>
      <trkpt lat="45.0995" lon="0.61174">
        <ele>160.6</ele>
        <time>2025-05-25T09:35:21Z</time>
      </trkpt>
      <trkpt lat="45.09948" lon="0.61175">
        <ele>160.8</ele>
        <time>2025-05-25T09:35:22Z</time>
      </trkpt>
      <trkpt lat="45.09948" lon="0.61176">
        <ele>160.8</ele>
        <time>2025-05-25T09:35:23Z</time>
      </trkpt>
      <trkpt lat="45.09947" lon="0.61178">
        <ele>161.2</ele>
        <time>2025-05-25T09:35:24Z</time>
      </trkpt>
      <trkpt lat="45.09946" lon="0.61179">
        <ele>161.2</ele>
        <time>2025-05-25T09:35:25Z</time>
      </trkpt>
      <trkpt lat="45.09945" lon="0.61181">
        <ele>161.4</ele>
        <time>2025-05-25T09:35:26Z</time>
      </trkpt>
      <trkpt lat="45.09944" lon="0.61182">
        <ele>161.6</ele>
        <time>2025-05-25T09:35:27Z</time>
      </trkpt>
      <trkpt lat="45.09943" lon="0.61185">
        <ele>161.8</ele>
        <time>2025-05-25T09:35:28Z</time>
      </trkpt>
      <trkpt lat="45.09942" lon="0.61187">
        <ele>161.8</ele>
        <time>2025-05-25T09:35:29Z</time>
      </trkpt>
      <trkpt lat="45.09942" lon="0.61188">
        <ele>162</ele>
        <time>2025-05-25T09:35:30Z</time>
      </trkpt>
      <trkpt lat="45.09941" lon="0.61189">
        <ele>162.2</ele>
        <time>2025-05-25T09:35:31Z</time>
      </trkpt>
      <trkpt lat="45.0994" lon="0.61191">
        <ele>162.4</ele>
        <time>2025-05-25T09:35:32Z</time>
      </trkpt>
      <trkpt lat="45.09939" lon="0.61192">
        <ele>162.4</ele>
        <time>2025-05-25T09:35:33Z</time>
      </trkpt>
      <trkpt lat="45.09938" lon="0.61194">
        <ele>162.6</ele>
        <time>2025-05-25T09:35:34Z</time>
      </trkpt>
      <trkpt lat="45.09937" lon="0.61195">
        <ele>162.6</ele>
        <time>2025-05-25T09:35:35Z</time>
      </trkpt>
      <trkpt lat="45.09936" lon="0.61197">
        <ele>162.8</ele>
        <time>2025-05-25T09:35:36Z</time>
      </trkpt>
      <trkpt lat="45.09934" lon="0.61199">
        <ele>162.8</ele>
        <time>2025-05-25T09:35:37Z</time>
      </trkpt>
      <trkpt lat="45.09933" lon="0.61201">
        <ele>162.8</ele>
        <time>2025-05-25T09:35:38Z</time>
      </trkpt>
      <trkpt lat="45.09932" lon="0.61203">
        <ele>163</ele>
        <time>2025-05-25T09:35:39Z</time>
      </trkpt>
      <trkpt lat="45.09931" lon="0.61204">
        <ele>163.2</ele>
        <time>2025-05-25T09:35:40Z</time>
      </trkpt>
      <trkpt lat="45.0993" lon="0.61206">
        <ele>163.2</ele>
        <time>2025-05-25T09:35:41Z</time>
      </trkpt>
      <trkpt lat="45.09929" lon="0.61207">
        <ele>163.4</ele>
        <time>2025-05-25T09:35:42Z</time>
      </trkpt>
      <trkpt lat="45.09928" lon="0.61209">
        <ele>163.6</ele>
        <time>2025-05-25T09:35:43Z</time>
      </trkpt>
      <trkpt lat="45.09927" lon="0.6121">
        <ele>163.8</ele>
        <time>2025-05-25T09:35:44Z</time>
      </trkpt>
      <trkpt lat="45.09927" lon="0.61212">
        <ele>163.8</ele>
        <time>2025-05-25T09:35:45Z</time>
      </trkpt>
      <trkpt lat="45.09926" lon="0.61213">
        <ele>164</ele>
        <time>2025-05-25T09:35:46Z</time>
      </trkpt>
      <trkpt lat="45.09925" lon="0.61215">
        <ele>164.2</ele>
        <time>2025-05-25T09:35:47Z</time>
      </trkpt>
      <trkpt lat="45.09925" lon="0.61217">
        <ele>164.4</ele>
        <time>2025-05-25T09:35:48Z</time>
      </trkpt>
      <trkpt lat="45.09924" lon="0.61219">
        <ele>164.6</ele>
        <time>2025-05-25T09:35:49Z</time>
      </trkpt>
      <trkpt lat="45.09923" lon="0.61221">
        <ele>164.8</ele>
        <time>2025-05-25T09:35:50Z</time>
      </trkpt>
      <trkpt lat="45.09923" lon="0.61223">
        <ele>164.8</ele>
        <time>2025-05-25T09:35:51Z</time>
      </trkpt>
      <trkpt lat="45.09922" lon="0.61225">
        <ele>165</ele>
        <time>2025-05-25T09:35:52Z</time>
      </trkpt>
      <trkpt lat="45.09921" lon="0.61226">
        <ele>165.2</ele>
        <time>2025-05-25T09:35:53Z</time>
      </trkpt>
      <trkpt lat="45.09921" lon="0.61228">
        <ele>165.2</ele>
        <time>2025-05-25T09:35:54Z</time>
      </trkpt>
      <trkpt lat="45.0992" lon="0.6123">
        <ele>165.4</ele>
        <time>2025-05-25T09:35:55Z</time>
      </trkpt>
      <trkpt lat="45.0992" lon="0.61232">
        <ele>165.4</ele>
        <time>2025-05-25T09:35:56Z</time>
      </trkpt>
      <trkpt lat="45.09919" lon="0.61234">
        <ele>165.6</ele>
        <time>2025-05-25T09:35:57Z</time>
      </trkpt>
      <trkpt lat="45.09918" lon="0.61236">
        <ele>165.8</ele>
        <time>2025-05-25T09:35:58Z</time>
      </trkpt>
      <trkpt lat="45.09917" lon="0.61238">
        <ele>165.8</ele>
        <time>2025-05-25T09:35:59Z</time>
      </trkpt>
      <trkpt lat="45.09916" lon="0.6124">
        <ele>166</ele>
        <time>2025-05-25T09:36:00Z</time>
      </trkpt>
      <trkpt lat="45.09915" lon="0.61241">
        <ele>166</ele>
        <time>2025-05-25T09:36:01Z</time>
      </trkpt>
      <trkpt lat="45.09914" lon="0.61242">
        <ele>166.2</ele>
        <time>2025-05-25T09:36:02Z</time>
      </trkpt>
      <trkpt lat="45.09913" lon="0.61244">
        <ele>166.2</ele>
        <time>2025-05-25T09:36:03Z</time>
      </trkpt>
      <trkpt lat="45.09912" lon="0.61246">
        <ele>166.4</ele>
        <time>2025-05-25T09:36:04Z</time>
      </trkpt>
      <trkpt lat="45.09912" lon="0.61247">
        <ele>166.4</ele>
        <time>2025-05-25T09:36:05Z</time>
      </trkpt>
      <trkpt lat="45.0991" lon="0.61248">
        <ele>166.4</ele>
        <time>2025-05-25T09:36:06Z</time>
      </trkpt>
      <trkpt lat="45.09909" lon="0.6125">
        <ele>166.4</ele>
        <time>2025-05-25T09:36:07Z</time>
      </trkpt>
      <trkpt lat="45.09908" lon="0.61252">
        <ele>166.6</ele>
        <time>2025-05-25T09:36:08Z</time>
      </trkpt>
      <trkpt lat="45.09907" lon="0.61253">
        <ele>166.6</ele>
        <time>2025-05-25T09:36:09Z</time>
      </trkpt>
      <trkpt lat="45.09906" lon="0.61255">
        <ele>166.8</ele>
        <time>2025-05-25T09:36:10Z</time>
      </trkpt>
      <trkpt lat="45.09905" lon="0.61256">
        <ele>166.8</ele>
        <time>2025-05-25T09:36:11Z</time>
      </trkpt>
      <trkpt lat="45.09904" lon="0.61258">
        <ele>167</ele>
        <time>2025-05-25T09:36:12Z</time>
      </trkpt>
      <trkpt lat="45.09902" lon="0.61259">
        <ele>167.2</ele>
        <time>2025-05-25T09:36:13Z</time>
      </trkpt>
      <trkpt lat="45.09901" lon="0.6126">
        <ele>167.4</ele>
        <time>2025-05-25T09:36:14Z</time>
      </trkpt>
      <trkpt lat="45.099" lon="0.61262">
        <ele>167.4</ele>
        <time>2025-05-25T09:36:15Z</time>
      </trkpt>
      <trkpt lat="45.09898" lon="0.61263">
        <ele>167.6</ele>
        <time>2025-05-25T09:36:16Z</time>
      </trkpt>
      <trkpt lat="45.09897" lon="0.61265">
        <ele>167.6</ele>
        <time>2025-05-25T09:36:17Z</time>
      </trkpt>
      <trkpt lat="45.09896" lon="0.61266">
        <ele>167.8</ele>
        <time>2025-05-25T09:36:18Z</time>
      </trkpt>
      <trkpt lat="45.09895" lon="0.61268">
        <ele>167.8</ele>
        <time>2025-05-25T09:36:19Z</time>
      </trkpt>
      <trkpt lat="45.09894" lon="0.61269">
        <ele>168</ele>
        <time>2025-05-25T09:36:20Z</time>
      </trkpt>
      <trkpt lat="45.09893" lon="0.6127">
        <ele>168</ele>
        <time>2025-05-25T09:36:21Z</time>
      </trkpt>
      <trkpt lat="45.09892" lon="0.61272">
        <ele>168.2</ele>
        <time>2025-05-25T09:36:22Z</time>
      </trkpt>
      <trkpt lat="45.09891" lon="0.61273">
        <ele>168.2</ele>
        <time>2025-05-25T09:36:23Z</time>
      </trkpt>
      <trkpt lat="45.0989" lon="0.61274">
        <ele>168.4</ele>
        <time>2025-05-25T09:36:24Z</time>
      </trkpt>
      <trkpt lat="45.09889" lon="0.61275">
        <ele>168.4</ele>
        <time>2025-05-25T09:36:25Z</time>
      </trkpt>
      <trkpt lat="45.09888" lon="0.61276">
        <ele>168.6</ele>
        <time>2025-05-25T09:36:26Z</time>
      </trkpt>
      <trkpt lat="45.09886" lon="0.61277">
        <ele>168.8</ele>
        <time>2025-05-25T09:36:27Z</time>
      </trkpt>
      <trkpt lat="45.09885" lon="0.61279">
        <ele>169</ele>
        <time>2025-05-25T09:36:28Z</time>
      </trkpt>
      <trkpt lat="45.09884" lon="0.6128">
        <ele>169</ele>
        <time>2025-05-25T09:36:29Z</time>
      </trkpt>
      <trkpt lat="45.09884" lon="0.61281">
        <ele>169.2</ele>
        <time>2025-05-25T09:36:30Z</time>
      </trkpt>
      <trkpt lat="45.09882" lon="0.61283">
        <ele>169.4</ele>
        <time>2025-05-25T09:36:31Z</time>
      </trkpt>
      <trkpt lat="45.09881" lon="0.61285">
        <ele>169.6</ele>
        <time>2025-05-25T09:36:32Z</time>
      </trkpt>
      <trkpt lat="45.0988" lon="0.61287">
        <ele>169.6</ele>
        <time>2025-05-25T09:36:33Z</time>
      </trkpt>
      <trkpt lat="45.09879" lon="0.61288">
        <ele>169.8</ele>
        <time>2025-05-25T09:36:34Z</time>
      </trkpt>
      <trkpt lat="45.09878" lon="0.6129">
        <ele>170</ele>
        <time>2025-05-25T09:36:35Z</time>
      </trkpt>
      <trkpt lat="45.09877" lon="0.61291">
        <ele>170</ele>
        <time>2025-05-25T09:36:36Z</time>
      </trkpt>
      <trkpt lat="45.09876" lon="0.61293">
        <ele>170.2</ele>
        <time>2025-05-25T09:36:37Z</time>
      </trkpt>
      <trkpt lat="45.09875" lon="0.61294">
        <ele>170.4</ele>
        <time>2025-05-25T09:36:38Z</time>
      </trkpt>
      <trkpt lat="45.09874" lon="0.61295">
        <ele>170.6</ele>
        <time>2025-05-25T09:36:39Z</time>
      </trkpt>
      <trkpt lat="45.09873" lon="0.61297">
        <ele>170.8</ele>
        <time>2025-05-25T09:36:40Z</time>
      </trkpt>
      <trkpt lat="45.09872" lon="0.61299">
        <ele>171</ele>
        <time>2025-05-25T09:36:41Z</time>
      </trkpt>
      <trkpt lat="45.09871" lon="0.613">
        <ele>171.2</ele>
        <time>2025-05-25T09:36:42Z</time>
      </trkpt>
      <trkpt lat="45.0987" lon="0.61301">
        <ele>171.4</ele>
        <time>2025-05-25T09:36:43Z</time>
      </trkpt>
      <trkpt lat="45.09869" lon="0.61303">
        <ele>171.6</ele>
        <time>2025-05-25T09:36:44Z</time>
      </trkpt>
      <trkpt lat="45.09868" lon="0.61304">
        <ele>171.8</ele>
        <time>2025-05-25T09:36:45Z</time>
      </trkpt>
      <trkpt lat="45.09867" lon="0.61305">
        <ele>171.8</ele>
        <time>2025-05-25T09:36:46Z</time>
      </trkpt>
      <trkpt lat="45.09866" lon="0.61307">
        <ele>172</ele>
        <time>2025-05-25T09:36:47Z</time>
      </trkpt>
      <trkpt lat="45.09865" lon="0.61309">
        <ele>172.2</ele>
        <time>2025-05-25T09:36:48Z</time>
      </trkpt>
      <trkpt lat="45.09865" lon="0.61311">
        <ele>172.2</ele>
        <time>2025-05-25T09:36:49Z</time>
      </trkpt>
      <trkpt lat="45.09864" lon="0.61312">
        <ele>172.4</ele>
        <time>2025-05-25T09:36:50Z</time>
      </trkpt>
      <trkpt lat="45.09863" lon="0.61314">
        <ele>172.6</ele>
        <time>2025-05-25T09:36:51Z</time>
      </trkpt>
      <trkpt lat="45.09862" lon="0.61315">
        <ele>172.6</ele>
        <time>2025-05-25T09:36:52Z</time>
      </trkpt>
      <trkpt lat="45.09861" lon="0.61316">
        <ele>172.8</ele>
        <time>2025-05-25T09:36:53Z</time>
      </trkpt>
      <trkpt lat="45.0986" lon="0.61318">
        <ele>172.8</ele>
        <time>2025-05-25T09:36:54Z</time>
      </trkpt>
      <trkpt lat="45.09859" lon="0.6132">
        <ele>173</ele>
        <time>2025-05-25T09:36:55Z</time>
      </trkpt>
      <trkpt lat="45.09858" lon="0.61321">
        <ele>173</ele>
        <time>2025-05-25T09:36:56Z</time>
      </trkpt>
      <trkpt lat="45.09857" lon="0.61322">
        <ele>173.2</ele>
        <time>2025-05-25T09:36:57Z</time>
      </trkpt>
      <trkpt lat="45.09855" lon="0.61324">
        <ele>173.2</ele>
        <time>2025-05-25T09:36:58Z</time>
      </trkpt>
      <trkpt lat="45.09854" lon="0.61325">
        <ele>173.4</ele>
        <time>2025-05-25T09:36:59Z</time>
      </trkpt>
      <trkpt lat="45.09853" lon="0.61327">
        <ele>173.6</ele>
        <time>2025-05-25T09:37:00Z</time>
      </trkpt>
      <trkpt lat="45.09852" lon="0.61328">
        <ele>173.8</ele>
        <time>2025-05-25T09:37:01Z</time>
      </trkpt>
      <trkpt lat="45.09851" lon="0.6133">
        <ele>174</ele>
        <time>2025-05-25T09:37:02Z</time>
      </trkpt>
      <trkpt lat="45.0985" lon="0.61331">
        <ele>174</ele>
        <time>2025-05-25T09:37:03Z</time>
      </trkpt>
      <trkpt lat="45.09849" lon="0.61333">
        <ele>174.2</ele>
        <time>2025-05-25T09:37:04Z</time>
      </trkpt>
      <trkpt lat="45.09848" lon="0.61334">
        <ele>174.4</ele>
        <time>2025-05-25T09:37:05Z</time>
      </trkpt>
      <trkpt lat="45.09847" lon="0.61336">
        <ele>174.6</ele>
        <time>2025-05-25T09:37:06Z</time>
      </trkpt>
      <trkpt lat="45.09846" lon="0.61337">
        <ele>174.8</ele>
        <time>2025-05-25T09:37:07Z</time>
      </trkpt>
      <trkpt lat="45.09846" lon="0.61339">
        <ele>175</ele>
        <time>2025-05-25T09:37:08Z</time>
      </trkpt>
      <trkpt lat="45.09845" lon="0.6134">
        <ele>175.4</ele>
        <time>2025-05-25T09:37:09Z</time>
      </trkpt>
      <trkpt lat="45.09845" lon="0.61342">
        <ele>175.6</ele>
        <time>2025-05-25T09:37:10Z</time>
      </trkpt>
      <trkpt lat="45.09844" lon="0.61344">
        <ele>175.8</ele>
        <time>2025-05-25T09:37:11Z</time>
      </trkpt>
      <trkpt lat="45.09844" lon="0.61345">
        <ele>176</ele>
        <time>2025-05-25T09:37:12Z</time>
      </trkpt>
      <trkpt lat="45.09842" lon="0.61347">
        <ele>176.2</ele>
        <time>2025-05-25T09:37:13Z</time>
      </trkpt>
      <trkpt lat="45.09841" lon="0.61349">
        <ele>176.4</ele>
        <time>2025-05-25T09:37:14Z</time>
      </trkpt>
      <trkpt lat="45.09839" lon="0.6135">
        <ele>176.6</ele>
        <time>2025-05-25T09:37:15Z</time>
      </trkpt>
      <trkpt lat="45.09838" lon="0.6135">
        <ele>176.8</ele>
        <time>2025-05-25T09:37:16Z</time>
      </trkpt>
      <trkpt lat="45.09837" lon="0.61351">
        <ele>177</ele>
        <time>2025-05-25T09:37:17Z</time>
      </trkpt>
      <trkpt lat="45.09836" lon="0.61352">
        <ele>177.2</ele>
        <time>2025-05-25T09:37:18Z</time>
      </trkpt>
      <trkpt lat="45.09835" lon="0.61352">
        <ele>177.4</ele>
        <time>2025-05-25T09:37:19Z</time>
      </trkpt>
      <trkpt lat="45.09833" lon="0.61354">
        <ele>177.6</ele>
        <time>2025-05-25T09:37:20Z</time>
      </trkpt>
      <trkpt lat="45.09833" lon="0.61355">
        <ele>177.8</ele>
        <time>2025-05-25T09:37:21Z</time>
      </trkpt>
      <trkpt lat="45.09831" lon="0.61356">
        <ele>178</ele>
        <time>2025-05-25T09:37:22Z</time>
      </trkpt>
      <trkpt lat="45.0983" lon="0.61358">
        <ele>178</ele>
        <time>2025-05-25T09:37:23Z</time>
      </trkpt>
      <trkpt lat="45.09829" lon="0.6136">
        <ele>178.2</ele>
        <time>2025-05-25T09:37:24Z</time>
      </trkpt>
      <trkpt lat="45.09828" lon="0.61361">
        <ele>178.4</ele>
        <time>2025-05-25T09:37:25Z</time>
      </trkpt>
      <trkpt lat="45.09828" lon="0.61363">
        <ele>178.4</ele>
        <time>2025-05-25T09:37:26Z</time>
      </trkpt>
      <trkpt lat="45.09826" lon="0.61364">
        <ele>178.8</ele>
        <time>2025-05-25T09:37:27Z</time>
      </trkpt>
      <trkpt lat="45.09825" lon="0.61366">
        <ele>179</ele>
        <time>2025-05-25T09:37:28Z</time>
      </trkpt>
      <trkpt lat="45.09825" lon="0.61368">
        <ele>179.2</ele>
        <time>2025-05-25T09:37:29Z</time>
      </trkpt>
      <trkpt lat="45.09824" lon="0.6137">
        <ele>179.2</ele>
        <time>2025-05-25T09:37:30Z</time>
      </trkpt>
      <trkpt lat="45.09823" lon="0.61372">
        <ele>179.4</ele>
        <time>2025-05-25T09:37:31Z</time>
      </trkpt>
      <trkpt lat="45.09822" lon="0.61374">
        <ele>179.6</ele>
        <time>2025-05-25T09:37:32Z</time>
      </trkpt>
      <trkpt lat="45.09822" lon="0.61375">
        <ele>180</ele>
        <time>2025-05-25T09:37:33Z</time>
      </trkpt>
      <trkpt lat="45.09821" lon="0.61378">
        <ele>180.2</ele>
        <time>2025-05-25T09:37:34Z</time>
      </trkpt>
      <trkpt lat="45.0982" lon="0.6138">
        <ele>180.4</ele>
        <time>2025-05-25T09:37:35Z</time>
      </trkpt>
      <trkpt lat="45.0982" lon="0.61382">
        <ele>180.6</ele>
        <time>2025-05-25T09:37:36Z</time>
      </trkpt>
      <trkpt lat="45.0982" lon="0.61384">
        <ele>180.8</ele>
        <time>2025-05-25T09:37:37Z</time>
      </trkpt>
      <trkpt lat="45.09819" lon="0.61385">
        <ele>181</ele>
        <time>2025-05-25T09:37:38Z</time>
      </trkpt>
      <trkpt lat="45.09819" lon="0.61388">
        <ele>181.2</ele>
        <time>2025-05-25T09:37:39Z</time>
      </trkpt>
      <trkpt lat="45.09818" lon="0.6139">
        <ele>181.4</ele>
        <time>2025-05-25T09:37:40Z</time>
      </trkpt>
      <trkpt lat="45.09818" lon="0.61392">
        <ele>181.6</ele>
        <time>2025-05-25T09:37:41Z</time>
      </trkpt>
      <trkpt lat="45.09817" lon="0.61394">
        <ele>181.8</ele>
        <time>2025-05-25T09:37:42Z</time>
      </trkpt>
      <trkpt lat="45.09816" lon="0.61396">
        <ele>182</ele>
        <time>2025-05-25T09:37:43Z</time>
      </trkpt>
      <trkpt lat="45.09816" lon="0.61398">
        <ele>182.2</ele>
        <time>2025-05-25T09:37:44Z</time>
      </trkpt>
      <trkpt lat="45.09815" lon="0.614">
        <ele>182.4</ele>
        <time>2025-05-25T09:37:45Z</time>
      </trkpt>
      <trkpt lat="45.09814" lon="0.61401">
        <ele>182.6</ele>
        <time>2025-05-25T09:37:46Z</time>
      </trkpt>
      <trkpt lat="45.09814" lon="0.61403">
        <ele>182.8</ele>
        <time>2025-05-25T09:37:47Z</time>
      </trkpt>
      <trkpt lat="45.09814" lon="0.61406">
        <ele>183</ele>
        <time>2025-05-25T09:37:48Z</time>
      </trkpt>
      <trkpt lat="45.09813" lon="0.61408">
        <ele>183.2</ele>
        <time>2025-05-25T09:37:49Z</time>
      </trkpt>
      <trkpt lat="45.09812" lon="0.61409">
        <ele>183.6</ele>
        <time>2025-05-25T09:37:50Z</time>
      </trkpt>
      <trkpt lat="45.09811" lon="0.6141">
        <ele>183.8</ele>
        <time>2025-05-25T09:37:51Z</time>
      </trkpt>
      <trkpt lat="45.09811" lon="0.61412">
        <ele>184</ele>
        <time>2025-05-25T09:37:52Z</time>
      </trkpt>
      <trkpt lat="45.0981" lon="0.61413">
        <ele>184.2</ele>
        <time>2025-05-25T09:37:53Z</time>
      </trkpt>
      <trkpt lat="45.09809" lon="0.61415">
        <ele>184.4</ele>
        <time>2025-05-25T09:37:54Z</time>
      </trkpt>
      <trkpt lat="45.09808" lon="0.61416">
        <ele>184.8</ele>
        <time>2025-05-25T09:37:55Z</time>
      </trkpt>
      <trkpt lat="45.09807" lon="0.61418">
        <ele>185</ele>
        <time>2025-05-25T09:37:56Z</time>
      </trkpt>
      <trkpt lat="45.09806" lon="0.61419">
        <ele>185.2</ele>
        <time>2025-05-25T09:37:57Z</time>
      </trkpt>
      <trkpt lat="45.09804" lon="0.61421">
        <ele>185.4</ele>
        <time>2025-05-25T09:37:58Z</time>
      </trkpt>
      <trkpt lat="45.09803" lon="0.61421">
        <ele>185.6</ele>
        <time>2025-05-25T09:37:59Z</time>
      </trkpt>
      <trkpt lat="45.09801" lon="0.61422">
        <ele>185.8</ele>
        <time>2025-05-25T09:38:00Z</time>
      </trkpt>
      <trkpt lat="45.09799" lon="0.61422">
        <ele>186</ele>
        <time>2025-05-25T09:38:01Z</time>
      </trkpt>
      <trkpt lat="45.09798" lon="0.61421">
        <ele>186.2</ele>
        <time>2025-05-25T09:38:02Z</time>
      </trkpt>
      <trkpt lat="45.09797" lon="0.61421">
        <ele>186.2</ele>
        <time>2025-05-25T09:38:03Z</time>
      </trkpt>
      <trkpt lat="45.09795" lon="0.6142">
        <ele>186.4</ele>
        <time>2025-05-25T09:38:04Z</time>
      </trkpt>
      <trkpt lat="45.09794" lon="0.61421">
        <ele>186.4</ele>
        <time>2025-05-25T09:38:05Z</time>
      </trkpt>
      <trkpt lat="45.09792" lon="0.61421">
        <ele>186.6</ele>
        <time>2025-05-25T09:38:06Z</time>
      </trkpt>
      <trkpt lat="45.09791" lon="0.6142">
        <ele>186.6</ele>
        <time>2025-05-25T09:38:07Z</time>
      </trkpt>
      <trkpt lat="45.0979" lon="0.61421">
        <ele>186.8</ele>
        <time>2025-05-25T09:38:08Z</time>
      </trkpt>
      <trkpt lat="45.09788" lon="0.61421">
        <ele>186.8</ele>
        <time>2025-05-25T09:38:09Z</time>
      </trkpt>
      <trkpt lat="45.09787" lon="0.61421">
        <ele>187</ele>
        <time>2025-05-25T09:38:10Z</time>
      </trkpt>
      <trkpt lat="45.09785" lon="0.61421">
        <ele>187.2</ele>
        <time>2025-05-25T09:38:11Z</time>
      </trkpt>
      <trkpt lat="45.09784" lon="0.61421">
        <ele>187.4</ele>
        <time>2025-05-25T09:38:12Z</time>
      </trkpt>
      <trkpt lat="45.09783" lon="0.61421">
        <ele>187.6</ele>
        <time>2025-05-25T09:38:13Z</time>
      </trkpt>
      <trkpt lat="45.09781" lon="0.61421">
        <ele>187.8</ele>
        <time>2025-05-25T09:38:14Z</time>
      </trkpt>
      <trkpt lat="45.0978" lon="0.6142">
        <ele>188.2</ele>
        <time>2025-05-25T09:38:15Z</time>
      </trkpt>
      <trkpt lat="45.09779" lon="0.6142">
        <ele>188.4</ele>
        <time>2025-05-25T09:38:16Z</time>
      </trkpt>
      <trkpt lat="45.09777" lon="0.6142">
        <ele>188.6</ele>
        <time>2025-05-25T09:38:17Z</time>
      </trkpt>
      <trkpt lat="45.09776" lon="0.61421">
        <ele>188.8</ele>
        <time>2025-05-25T09:38:18Z</time>
      </trkpt>
      <trkpt lat="45.09775" lon="0.61422">
        <ele>189</ele>
        <time>2025-05-25T09:38:19Z</time>
      </trkpt>
      <trkpt lat="45.09773" lon="0.61422">
        <ele>189.2</ele>
        <time>2025-05-25T09:38:20Z</time>
      </trkpt>
      <trkpt lat="45.09771" lon="0.61423">
        <ele>189.4</ele>
        <time>2025-05-25T09:38:21Z</time>
      </trkpt>
      <trkpt lat="45.0977" lon="0.61423">
        <ele>189.6</ele>
        <time>2025-05-25T09:38:22Z</time>
      </trkpt>
      <trkpt lat="45.09768" lon="0.61424">
        <ele>190</ele>
        <time>2025-05-25T09:38:23Z</time>
      </trkpt>
      <trkpt lat="45.09767" lon="0.61424">
        <ele>190.2</ele>
        <time>2025-05-25T09:38:24Z</time>
      </trkpt>
      <trkpt lat="45.09766" lon="0.61425">
        <ele>190.4</ele>
        <time>2025-05-25T09:38:25Z</time>
      </trkpt>
      <trkpt lat="45.09765" lon="0.61425">
        <ele>190.6</ele>
        <time>2025-05-25T09:38:26Z</time>
      </trkpt>
      <trkpt lat="45.09764" lon="0.61424">
        <ele>190.8</ele>
        <time>2025-05-25T09:38:27Z</time>
      </trkpt>
      <trkpt lat="45.09762" lon="0.61425">
        <ele>191</ele>
        <time>2025-05-25T09:38:28Z</time>
      </trkpt>
      <trkpt lat="45.09762" lon="0.61425">
        <ele>191.2</ele>
        <time>2025-05-25T09:38:29Z</time>
      </trkpt>
      <trkpt lat="45.09761" lon="0.61426">
        <ele>191.2</ele>
        <time>2025-05-25T09:38:30Z</time>
      </trkpt>
      <trkpt lat="45.0976" lon="0.61427">
        <ele>191.4</ele>
        <time>2025-05-25T09:38:31Z</time>
      </trkpt>
      <trkpt lat="45.09759" lon="0.61428">
        <ele>191.4</ele>
        <time>2025-05-25T09:38:32Z</time>
      </trkpt>
      <trkpt lat="45.09758" lon="0.6143">
        <ele>191.6</ele>
        <time>2025-05-25T09:38:33Z</time>
      </trkpt>
      <trkpt lat="45.09757" lon="0.61432">
        <ele>191.6</ele>
        <time>2025-05-25T09:38:34Z</time>
      </trkpt>
      <trkpt lat="45.09757" lon="0.61434">
        <ele>191.8</ele>
        <time>2025-05-25T09:38:35Z</time>
      </trkpt>
      <trkpt lat="45.09756" lon="0.61436">
        <ele>192</ele>
        <time>2025-05-25T09:38:36Z</time>
      </trkpt>
      <trkpt lat="45.09755" lon="0.61438">
        <ele>192</ele>
        <time>2025-05-25T09:38:37Z</time>
      </trkpt>
      <trkpt lat="45.09755" lon="0.6144">
        <ele>192.2</ele>
        <time>2025-05-25T09:38:38Z</time>
      </trkpt>
      <trkpt lat="45.09755" lon="0.61443">
        <ele>192.2</ele>
        <time>2025-05-25T09:38:39Z</time>
      </trkpt>
      <trkpt lat="45.09754" lon="0.61445">
        <ele>192.4</ele>
        <time>2025-05-25T09:38:40Z</time>
      </trkpt>
      <trkpt lat="45.09753" lon="0.61446">
        <ele>192.6</ele>
        <time>2025-05-25T09:38:41Z</time>
      </trkpt>
      <trkpt lat="45.09752" lon="0.61449">
        <ele>192.6</ele>
        <time>2025-05-25T09:38:42Z</time>
      </trkpt>
      <trkpt lat="45.09751" lon="0.61451">
        <ele>192.8</ele>
        <time>2025-05-25T09:38:43Z</time>
      </trkpt>
      <trkpt lat="45.0975" lon="0.61453">
        <ele>193</ele>
        <time>2025-05-25T09:38:44Z</time>
      </trkpt>
      <trkpt lat="45.09751" lon="0.61455">
        <ele>193</ele>
        <time>2025-05-25T09:38:45Z</time>
      </trkpt>
      <trkpt lat="45.09751" lon="0.61458">
        <ele>193.2</ele>
        <time>2025-05-25T09:38:46Z</time>
      </trkpt>
      <trkpt lat="45.09752" lon="0.61461">
        <ele>193.2</ele>
        <time>2025-05-25T09:38:47Z</time>
      </trkpt>
      <trkpt lat="45.09752" lon="0.61465">
        <ele>193.2</ele>
        <time>2025-05-25T09:38:48Z</time>
      </trkpt>
      <trkpt lat="45.09753" lon="0.61469">
        <ele>193.2</ele>
        <time>2025-05-25T09:38:49Z</time>
      </trkpt>
      <trkpt lat="45.09753" lon="0.61472">
        <ele>193.2</ele>
        <time>2025-05-25T09:38:50Z</time>
      </trkpt>
      <trkpt lat="45.09753" lon="0.61476">
        <ele>193.2</ele>
        <time>2025-05-25T09:38:51Z</time>
      </trkpt>
      <trkpt lat="45.09754" lon="0.61479">
        <ele>193.2</ele>
        <time>2025-05-25T09:38:52Z</time>
      </trkpt>
      <trkpt lat="45.09755" lon="0.61483">
        <ele>193.2</ele>
        <time>2025-05-25T09:38:53Z</time>
      </trkpt>
      <trkpt lat="45.09755" lon="0.61487">
        <ele>193.2</ele>
        <time>2025-05-25T09:38:54Z</time>
      </trkpt>
      <trkpt lat="45.09755" lon="0.61491">
        <ele>193.4</ele>
        <time>2025-05-25T09:38:55Z</time>
      </trkpt>
      <trkpt lat="45.09756" lon="0.61495">
        <ele>193.4</ele>
        <time>2025-05-25T09:38:56Z</time>
      </trkpt>
      <trkpt lat="45.09757" lon="0.61498">
        <ele>193.4</ele>
        <time>2025-05-25T09:38:57Z</time>
      </trkpt>
      <trkpt lat="45.09757" lon="0.61502">
        <ele>193.4</ele>
        <time>2025-05-25T09:38:58Z</time>
      </trkpt>
      <trkpt lat="45.09758" lon="0.61506">
        <ele>193.4</ele>
        <time>2025-05-25T09:38:59Z</time>
      </trkpt>
      <trkpt lat="45.09759" lon="0.6151">
        <ele>193.4</ele>
        <time>2025-05-25T09:39:00Z</time>
      </trkpt>
      <trkpt lat="45.0976" lon="0.61514">
        <ele>193.6</ele>
        <time>2025-05-25T09:39:01Z</time>
      </trkpt>
      <trkpt lat="45.09761" lon="0.61517">
        <ele>193.6</ele>
        <time>2025-05-25T09:39:02Z</time>
      </trkpt>
      <trkpt lat="45.09762" lon="0.61522">
        <ele>193.6</ele>
        <time>2025-05-25T09:39:03Z</time>
      </trkpt>
      <trkpt lat="45.09763" lon="0.61526">
        <ele>193.6</ele>
        <time>2025-05-25T09:39:04Z</time>
      </trkpt>
      <trkpt lat="45.09763" lon="0.6153">
        <ele>193.6</ele>
        <time>2025-05-25T09:39:05Z</time>
      </trkpt>
      <trkpt lat="45.09764" lon="0.61533">
        <ele>193.6</ele>
        <time>2025-05-25T09:39:06Z</time>
      </trkpt>
      <trkpt lat="45.09765" lon="0.61537">
        <ele>193.8</ele>
        <time>2025-05-25T09:39:07Z</time>
      </trkpt>
      <trkpt lat="45.09765" lon="0.61541">
        <ele>193.8</ele>
        <time>2025-05-25T09:39:08Z</time>
      </trkpt>
      <trkpt lat="45.09766" lon="0.61545">
        <ele>194</ele>
        <time>2025-05-25T09:39:09Z</time>
      </trkpt>
      <trkpt lat="45.09766" lon="0.61549">
        <ele>194</ele>
        <time>2025-05-25T09:39:10Z</time>
      </trkpt>
      <trkpt lat="45.09767" lon="0.61553">
        <ele>194.2</ele>
        <time>2025-05-25T09:39:11Z</time>
      </trkpt>
      <trkpt lat="45.09768" lon="0.61558">
        <ele>194.2</ele>
        <time>2025-05-25T09:39:12Z</time>
      </trkpt>
      <trkpt lat="45.09768" lon="0.61562">
        <ele>194.4</ele>
        <time>2025-05-25T09:39:13Z</time>
      </trkpt>
      <trkpt lat="45.09769" lon="0.61567">
        <ele>194.4</ele>
        <time>2025-05-25T09:39:14Z</time>
      </trkpt>
      <trkpt lat="45.0977" lon="0.61571">
        <ele>194.6</ele>
        <time>2025-05-25T09:39:15Z</time>
      </trkpt>
      <trkpt lat="45.0977" lon="0.61576">
        <ele>194.6</ele>
        <time>2025-05-25T09:39:16Z</time>
      </trkpt>
      <trkpt lat="45.0977" lon="0.61581">
        <ele>194.8</ele>
        <time>2025-05-25T09:39:17Z</time>
      </trkpt>
      <trkpt lat="45.09771" lon="0.61586">
        <ele>194.8</ele>
        <time>2025-05-25T09:39:18Z</time>
      </trkpt>
      <trkpt lat="45.09772" lon="0.61591">
        <ele>194.8</ele>
        <time>2025-05-25T09:39:19Z</time>
      </trkpt>
      <trkpt lat="45.09773" lon="0.61595">
        <ele>195</ele>
        <time>2025-05-25T09:39:20Z</time>
      </trkpt>
      <trkpt lat="45.09774" lon="0.61599">
        <ele>195</ele>
        <time>2025-05-25T09:39:21Z</time>
      </trkpt>
      <trkpt lat="45.09775" lon="0.61604">
        <ele>195.2</ele>
        <time>2025-05-25T09:39:22Z</time>
      </trkpt>
      <trkpt lat="45.09777" lon="0.61608">
        <ele>195.2</ele>
        <time>2025-05-25T09:39:23Z</time>
      </trkpt>
      <trkpt lat="45.09778" lon="0.61613">
        <ele>195.2</ele>
        <time>2025-05-25T09:39:24Z</time>
      </trkpt>
      <trkpt lat="45.0978" lon="0.61618">
        <ele>195.2</ele>
        <time>2025-05-25T09:39:25Z</time>
      </trkpt>
      <trkpt lat="45.09782" lon="0.61621">
        <ele>195.2</ele>
        <time>2025-05-25T09:39:26Z</time>
      </trkpt>
      <trkpt lat="45.09784" lon="0.61625">
        <ele>195.4</ele>
        <time>2025-05-25T09:39:27Z</time>
      </trkpt>
      <trkpt lat="45.09787" lon="0.61629">
        <ele>195.2</ele>
        <time>2025-05-25T09:39:28Z</time>
      </trkpt>
      <trkpt lat="45.09789" lon="0.61634">
        <ele>195.2</ele>
        <time>2025-05-25T09:39:29Z</time>
      </trkpt>
      <trkpt lat="45.09791" lon="0.61638">
        <ele>195.2</ele>
        <time>2025-05-25T09:39:30Z</time>
      </trkpt>
      <trkpt lat="45.09793" lon="0.61643">
        <ele>195.2</ele>
        <time>2025-05-25T09:39:31Z</time>
      </trkpt>
      <trkpt lat="45.09795" lon="0.61647">
        <ele>195</ele>
        <time>2025-05-25T09:39:32Z</time>
      </trkpt>
      <trkpt lat="45.09798" lon="0.61652">
        <ele>195</ele>
        <time>2025-05-25T09:39:33Z</time>
      </trkpt>
      <trkpt lat="45.098" lon="0.61656">
        <ele>195</ele>
        <time>2025-05-25T09:39:34Z</time>
      </trkpt>
      <trkpt lat="45.09803" lon="0.6166">
        <ele>195</ele>
        <time>2025-05-25T09:39:35Z</time>
      </trkpt>
      <trkpt lat="45.09805" lon="0.61665">
        <ele>195</ele>
        <time>2025-05-25T09:39:36Z</time>
      </trkpt>
      <trkpt lat="45.09808" lon="0.6167">
        <ele>194.8</ele>
        <time>2025-05-25T09:39:37Z</time>
      </trkpt>
      <trkpt lat="45.09812" lon="0.61676">
        <ele>194.6</ele>
        <time>2025-05-25T09:39:38Z</time>
      </trkpt>
      <trkpt lat="45.09816" lon="0.61682">
        <ele>194.4</ele>
        <time>2025-05-25T09:39:39Z</time>
      </trkpt>
      <trkpt lat="45.09819" lon="0.61687">
        <ele>194.2</ele>
        <time>2025-05-25T09:39:40Z</time>
      </trkpt>
      <trkpt lat="45.09823" lon="0.61693">
        <ele>193.8</ele>
        <time>2025-05-25T09:39:41Z</time>
      </trkpt>
      <trkpt lat="45.09827" lon="0.61699">
        <ele>193.4</ele>
        <time>2025-05-25T09:39:42Z</time>
      </trkpt>
      <trkpt lat="45.09832" lon="0.61704">
        <ele>193</ele>
        <time>2025-05-25T09:39:43Z</time>
      </trkpt>
      <trkpt lat="45.09836" lon="0.6171">
        <ele>192.8</ele>
        <time>2025-05-25T09:39:44Z</time>
      </trkpt>
      <trkpt lat="45.0984" lon="0.61716">
        <ele>192.4</ele>
        <time>2025-05-25T09:39:45Z</time>
      </trkpt>
      <trkpt lat="45.09844" lon="0.61723">
        <ele>192.2</ele>
        <time>2025-05-25T09:39:46Z</time>
      </trkpt>
      <trkpt lat="45.09848" lon="0.61729">
        <ele>192</ele>
        <time>2025-05-25T09:39:47Z</time>
      </trkpt>
      <trkpt lat="45.09851" lon="0.61736">
        <ele>191.8</ele>
        <time>2025-05-25T09:39:48Z</time>
      </trkpt>
      <trkpt lat="45.09855" lon="0.61742">
        <ele>191.8</ele>
        <time>2025-05-25T09:39:49Z</time>
      </trkpt>
      <trkpt lat="45.09858" lon="0.61748">
        <ele>191.6</ele>
        <time>2025-05-25T09:39:50Z</time>
      </trkpt>
      <trkpt lat="45.09862" lon="0.61754">
        <ele>191.6</ele>
        <time>2025-05-25T09:39:51Z</time>
      </trkpt>
      <trkpt lat="45.09866" lon="0.61759">
        <ele>191.6</ele>
        <time>2025-05-25T09:39:52Z</time>
      </trkpt>
      <trkpt lat="45.09869" lon="0.61765">
        <ele>191.6</ele>
        <time>2025-05-25T09:39:53Z</time>
      </trkpt>
      <trkpt lat="45.09873" lon="0.61771">
        <ele>191.4</ele>
        <time>2025-05-25T09:39:54Z</time>
      </trkpt>
      <trkpt lat="45.09877" lon="0.61778">
        <ele>191.4</ele>
        <time>2025-05-25T09:39:55Z</time>
      </trkpt>
      <trkpt lat="45.0988" lon="0.61784">
        <ele>191.4</ele>
        <time>2025-05-25T09:39:56Z</time>
      </trkpt>
      <trkpt lat="45.09884" lon="0.6179">
        <ele>191.4</ele>
        <time>2025-05-25T09:39:57Z</time>
      </trkpt>
      <trkpt lat="45.09887" lon="0.61795">
        <ele>191.4</ele>
        <time>2025-05-25T09:39:58Z</time>
      </trkpt>
      <trkpt lat="45.0989" lon="0.618">
        <ele>191.4</ele>
        <time>2025-05-25T09:39:59Z</time>
      </trkpt>
      <trkpt lat="45.09893" lon="0.61805">
        <ele>191.6</ele>
        <time>2025-05-25T09:40:00Z</time>
      </trkpt>
      <trkpt lat="45.09895" lon="0.61809">
        <ele>191.6</ele>
        <time>2025-05-25T09:40:01Z</time>
      </trkpt>
      <trkpt lat="45.09897" lon="0.61813">
        <ele>191.8</ele>
        <time>2025-05-25T09:40:02Z</time>
      </trkpt>
      <trkpt lat="45.09899" lon="0.61817">
        <ele>192</ele>
        <time>2025-05-25T09:40:03Z</time>
      </trkpt>
      <trkpt lat="45.09901" lon="0.61821">
        <ele>192</ele>
        <time>2025-05-25T09:40:04Z</time>
      </trkpt>
      <trkpt lat="45.09903" lon="0.61826">
        <ele>192</ele>
        <time>2025-05-25T09:40:05Z</time>
      </trkpt>
      <trkpt lat="45.09906" lon="0.6183">
        <ele>192.2</ele>
        <time>2025-05-25T09:40:06Z</time>
      </trkpt>
      <trkpt lat="45.09908" lon="0.61835">
        <ele>192.2</ele>
        <time>2025-05-25T09:40:07Z</time>
      </trkpt>
      <trkpt lat="45.09911" lon="0.61839">
        <ele>192.2</ele>
        <time>2025-05-25T09:40:08Z</time>
      </trkpt>
      <trkpt lat="45.09914" lon="0.61844">
        <ele>192</ele>
        <time>2025-05-25T09:40:09Z</time>
      </trkpt>
      <trkpt lat="45.09917" lon="0.61848">
        <ele>192.2</ele>
        <time>2025-05-25T09:40:10Z</time>
      </trkpt>
      <trkpt lat="45.0992" lon="0.61852">
        <ele>192.2</ele>
        <time>2025-05-25T09:40:11Z</time>
      </trkpt>
      <trkpt lat="45.09922" lon="0.61857">
        <ele>192.2</ele>
        <time>2025-05-25T09:40:12Z</time>
      </trkpt>
      <trkpt lat="45.09924" lon="0.61861">
        <ele>192.2</ele>
        <time>2025-05-25T09:40:13Z</time>
      </trkpt>
      <trkpt lat="45.09926" lon="0.61864">
        <ele>192.4</ele>
        <time>2025-05-25T09:40:14Z</time>
      </trkpt>
      <trkpt lat="45.09928" lon="0.61868">
        <ele>192.4</ele>
        <time>2025-05-25T09:40:15Z</time>
      </trkpt>
      <trkpt lat="45.0993" lon="0.61871">
        <ele>192.8</ele>
        <time>2025-05-25T09:40:16Z</time>
      </trkpt>
      <trkpt lat="45.09933" lon="0.61875">
        <ele>192.8</ele>
        <time>2025-05-25T09:40:17Z</time>
      </trkpt>
      <trkpt lat="45.09935" lon="0.61878">
        <ele>193</ele>
        <time>2025-05-25T09:40:18Z</time>
      </trkpt>
      <trkpt lat="45.09937" lon="0.61881">
        <ele>193.2</ele>
        <time>2025-05-25T09:40:19Z</time>
      </trkpt>
      <trkpt lat="45.09939" lon="0.61885">
        <ele>193.4</ele>
        <time>2025-05-25T09:40:20Z</time>
      </trkpt>
      <trkpt lat="45.09942" lon="0.61889">
        <ele>193.4</ele>
        <time>2025-05-25T09:40:21Z</time>
      </trkpt>
      <trkpt lat="45.09945" lon="0.61894">
        <ele>193.4</ele>
        <time>2025-05-25T09:40:22Z</time>
      </trkpt>
      <trkpt lat="45.09948" lon="0.61899">
        <ele>193.6</ele>
        <time>2025-05-25T09:40:23Z</time>
      </trkpt>
      <trkpt lat="45.0995" lon="0.61903">
        <ele>193.6</ele>
        <time>2025-05-25T09:40:24Z</time>
      </trkpt>
      <trkpt lat="45.09953" lon="0.61908">
        <ele>193.6</ele>
        <time>2025-05-25T09:40:25Z</time>
      </trkpt>
      <trkpt lat="45.09956" lon="0.61913">
        <ele>193.4</ele>
        <time>2025-05-25T09:40:26Z</time>
      </trkpt>
      <trkpt lat="45.09959" lon="0.61917">
        <ele>193.4</ele>
        <time>2025-05-25T09:40:27Z</time>
      </trkpt>
      <trkpt lat="45.09962" lon="0.61922">
        <ele>193.2</ele>
        <time>2025-05-25T09:40:28Z</time>
      </trkpt>
      <trkpt lat="45.09965" lon="0.61926">
        <ele>193.2</ele>
        <time>2025-05-25T09:40:29Z</time>
      </trkpt>
      <trkpt lat="45.09968" lon="0.61931">
        <ele>193.2</ele>
        <time>2025-05-25T09:40:30Z</time>
      </trkpt>
      <trkpt lat="45.09971" lon="0.61935">
        <ele>193.2</ele>
        <time>2025-05-25T09:40:31Z</time>
      </trkpt>
      <trkpt lat="45.09974" lon="0.61939">
        <ele>193.4</ele>
        <time>2025-05-25T09:40:32Z</time>
      </trkpt>
      <trkpt lat="45.09976" lon="0.61944">
        <ele>193.4</ele>
        <time>2025-05-25T09:40:33Z</time>
      </trkpt>
      <trkpt lat="45.09978" lon="0.61949">
        <ele>193.6</ele>
        <time>2025-05-25T09:40:34Z</time>
      </trkpt>
      <trkpt lat="45.0998" lon="0.61955">
        <ele>193.8</ele>
        <time>2025-05-25T09:40:35Z</time>
      </trkpt>
      <trkpt lat="45.09982" lon="0.6196">
        <ele>193.8</ele>
        <time>2025-05-25T09:40:36Z</time>
      </trkpt>
      <trkpt lat="45.09984" lon="0.61965">
        <ele>194</ele>
        <time>2025-05-25T09:40:37Z</time>
      </trkpt>
      <trkpt lat="45.09985" lon="0.61971">
        <ele>194.4</ele>
        <time>2025-05-25T09:40:38Z</time>
      </trkpt>
      <trkpt lat="45.09985" lon="0.61977">
        <ele>194.6</ele>
        <time>2025-05-25T09:40:39Z</time>
      </trkpt>
      <trkpt lat="45.09987" lon="0.61983">
        <ele>194.8</ele>
        <time>2025-05-25T09:40:40Z</time>
      </trkpt>
      <trkpt lat="45.09988" lon="0.61989">
        <ele>195</ele>
        <time>2025-05-25T09:40:41Z</time>
      </trkpt>
      <trkpt lat="45.0999" lon="0.61995">
        <ele>195.2</ele>
        <time>2025-05-25T09:40:42Z</time>
      </trkpt>
      <trkpt lat="45.09991" lon="0.62002">
        <ele>195.2</ele>
        <time>2025-05-25T09:40:43Z</time>
      </trkpt>
      <trkpt lat="45.09993" lon="0.62008">
        <ele>195.2</ele>
        <time>2025-05-25T09:40:44Z</time>
      </trkpt>
      <trkpt lat="45.09994" lon="0.62016">
        <ele>195</ele>
        <time>2025-05-25T09:40:45Z</time>
      </trkpt>
      <trkpt lat="45.09995" lon="0.62023">
        <ele>194.8</ele>
        <time>2025-05-25T09:40:46Z</time>
      </trkpt>
      <trkpt lat="45.09997" lon="0.62031">
        <ele>194.6</ele>
        <time>2025-05-25T09:40:47Z</time>
      </trkpt>
      <trkpt lat="45.09999" lon="0.62038">
        <ele>194.4</ele>
        <time>2025-05-25T09:40:48Z</time>
      </trkpt>
      <trkpt lat="45.10001" lon="0.62046">
        <ele>194.2</ele>
        <time>2025-05-25T09:40:49Z</time>
      </trkpt>
      <trkpt lat="45.10005" lon="0.62053">
        <ele>193.8</ele>
        <time>2025-05-25T09:40:50Z</time>
      </trkpt>
      <trkpt lat="45.10009" lon="0.62061">
        <ele>193.4</ele>
        <time>2025-05-25T09:40:51Z</time>
      </trkpt>
      <trkpt lat="45.10012" lon="0.62069">
        <ele>193</ele>
        <time>2025-05-25T09:40:52Z</time>
      </trkpt>
      <trkpt lat="45.10015" lon="0.62077">
        <ele>192.6</ele>
        <time>2025-05-25T09:40:53Z</time>
      </trkpt>
      <trkpt lat="45.10019" lon="0.62085">
        <ele>192.4</ele>
        <time>2025-05-25T09:40:54Z</time>
      </trkpt>
      <trkpt lat="45.10022" lon="0.62093">
        <ele>192</ele>
        <time>2025-05-25T09:40:55Z</time>
      </trkpt>
      <trkpt lat="45.10026" lon="0.62101">
        <ele>192</ele>
        <time>2025-05-25T09:40:56Z</time>
      </trkpt>
      <trkpt lat="45.10029" lon="0.62109">
        <ele>191.6</ele>
        <time>2025-05-25T09:40:57Z</time>
      </trkpt>
      <trkpt lat="45.10034" lon="0.62115">
        <ele>191.4</ele>
        <time>2025-05-25T09:40:58Z</time>
      </trkpt>
      <trkpt lat="45.10038" lon="0.62119">
        <ele>191.4</ele>
        <time>2025-05-25T09:40:59Z</time>
      </trkpt>
      <trkpt lat="45.10043" lon="0.62123">
        <ele>191.4</ele>
        <time>2025-05-25T09:41:00Z</time>
      </trkpt>
      <trkpt lat="45.10049" lon="0.62126">
        <ele>191.4</ele>
        <time>2025-05-25T09:41:01Z</time>
      </trkpt>
      <trkpt lat="45.10055" lon="0.62129">
        <ele>191.6</ele>
        <time>2025-05-25T09:41:02Z</time>
      </trkpt>
      <trkpt lat="45.1006" lon="0.62134">
        <ele>192</ele>
        <time>2025-05-25T09:41:03Z</time>
      </trkpt>
      <trkpt lat="45.10066" lon="0.62137">
        <ele>192.2</ele>
        <time>2025-05-25T09:41:04Z</time>
      </trkpt>
      <trkpt lat="45.10072" lon="0.62141">
        <ele>192.4</ele>
        <time>2025-05-25T09:41:05Z</time>
      </trkpt>
      <trkpt lat="45.10077" lon="0.62145">
        <ele>192.8</ele>
        <time>2025-05-25T09:41:06Z</time>
      </trkpt>
      <trkpt lat="45.10083" lon="0.62148">
        <ele>193.2</ele>
        <time>2025-05-25T09:41:07Z</time>
      </trkpt>
      <trkpt lat="45.10088" lon="0.62152">
        <ele>193.4</ele>
        <time>2025-05-25T09:41:08Z</time>
      </trkpt>
      <trkpt lat="45.10093" lon="0.62155">
        <ele>193.8</ele>
        <time>2025-05-25T09:41:09Z</time>
      </trkpt>
      <trkpt lat="45.10098" lon="0.62159">
        <ele>194.2</ele>
        <time>2025-05-25T09:41:10Z</time>
      </trkpt>
      <trkpt lat="45.10103" lon="0.62163">
        <ele>194.4</ele>
        <time>2025-05-25T09:41:11Z</time>
      </trkpt>
      <trkpt lat="45.10107" lon="0.62167">
        <ele>194.8</ele>
        <time>2025-05-25T09:41:12Z</time>
      </trkpt>
      <trkpt lat="45.10112" lon="0.6217">
        <ele>195</ele>
        <time>2025-05-25T09:41:13Z</time>
      </trkpt>
      <trkpt lat="45.10116" lon="0.62174">
        <ele>195.2</ele>
        <time>2025-05-25T09:41:14Z</time>
      </trkpt>
      <trkpt lat="45.1012" lon="0.62177">
        <ele>195.4</ele>
        <time>2025-05-25T09:41:15Z</time>
      </trkpt>
      <trkpt lat="45.10125" lon="0.6218">
        <ele>195.6</ele>
        <time>2025-05-25T09:41:16Z</time>
      </trkpt>
      <trkpt lat="45.10129" lon="0.62182">
        <ele>195.8</ele>
        <time>2025-05-25T09:41:17Z</time>
      </trkpt>
      <trkpt lat="45.10133" lon="0.62185">
        <ele>196</ele>
        <time>2025-05-25T09:41:18Z</time>
      </trkpt>
      <trkpt lat="45.10137" lon="0.62189">
        <ele>196.2</ele>
        <time>2025-05-25T09:41:19Z</time>
      </trkpt>
      <trkpt lat="45.10141" lon="0.62191">
        <ele>196.2</ele>
        <time>2025-05-25T09:41:20Z</time>
      </trkpt>
      <trkpt lat="45.10144" lon="0.62194">
        <ele>196.4</ele>
        <time>2025-05-25T09:41:21Z</time>
      </trkpt>
      <trkpt lat="45.10148" lon="0.62197">
        <ele>196.6</ele>
        <time>2025-05-25T09:41:22Z</time>
      </trkpt>
      <trkpt lat="45.10152" lon="0.622">
        <ele>196.6</ele>
        <time>2025-05-25T09:41:23Z</time>
      </trkpt>
      <trkpt lat="45.10156" lon="0.62202">
        <ele>196.8</ele>
        <time>2025-05-25T09:41:24Z</time>
      </trkpt>
      <trkpt lat="45.10159" lon="0.62205">
        <ele>197</ele>
        <time>2025-05-25T09:41:25Z</time>
      </trkpt>
      <trkpt lat="45.10163" lon="0.62208">
        <ele>197</ele>
        <time>2025-05-25T09:41:26Z</time>
      </trkpt>
      <trkpt lat="45.10166" lon="0.6221">
        <ele>197.2</ele>
        <time>2025-05-25T09:41:27Z</time>
      </trkpt>
      <trkpt lat="45.1017" lon="0.62213">
        <ele>197.4</ele>
        <time>2025-05-25T09:41:28Z</time>
      </trkpt>
      <trkpt lat="45.10174" lon="0.62215">
        <ele>197.8</ele>
        <time>2025-05-25T09:41:29Z</time>
      </trkpt>
      <trkpt lat="45.10177" lon="0.62218">
        <ele>198</ele>
        <time>2025-05-25T09:41:30Z</time>
      </trkpt>
      <trkpt lat="45.10181" lon="0.62221">
        <ele>198.2</ele>
        <time>2025-05-25T09:41:31Z</time>
      </trkpt>
      <trkpt lat="45.10185" lon="0.62223">
        <ele>198.6</ele>
        <time>2025-05-25T09:41:32Z</time>
      </trkpt>
      <trkpt lat="45.10188" lon="0.62226">
        <ele>198.8</ele>
        <time>2025-05-25T09:41:33Z</time>
      </trkpt>
      <trkpt lat="45.10191" lon="0.62229">
        <ele>199</ele>
        <time>2025-05-25T09:41:34Z</time>
      </trkpt>
      <trkpt lat="45.10195" lon="0.62231">
        <ele>199.2</ele>
        <time>2025-05-25T09:41:35Z</time>
      </trkpt>
      <trkpt lat="45.10198" lon="0.62234">
        <ele>199.4</ele>
        <time>2025-05-25T09:41:36Z</time>
      </trkpt>
      <trkpt lat="45.10202" lon="0.62236">
        <ele>199.6</ele>
        <time>2025-05-25T09:41:37Z</time>
      </trkpt>
      <trkpt lat="45.10206" lon="0.62239">
        <ele>199.8</ele>
        <time>2025-05-25T09:41:38Z</time>
      </trkpt>
      <trkpt lat="45.10209" lon="0.62241">
        <ele>200</ele>
        <time>2025-05-25T09:41:39Z</time>
      </trkpt>
      <trkpt lat="45.10213" lon="0.62244">
        <ele>200.4</ele>
        <time>2025-05-25T09:41:40Z</time>
      </trkpt>
      <trkpt lat="45.10217" lon="0.62247">
        <ele>200.6</ele>
        <time>2025-05-25T09:41:41Z</time>
      </trkpt>
      <trkpt lat="45.10221" lon="0.62249">
        <ele>200.8</ele>
        <time>2025-05-25T09:41:42Z</time>
      </trkpt>
      <trkpt lat="45.10224" lon="0.62252">
        <ele>201</ele>
        <time>2025-05-25T09:41:43Z</time>
      </trkpt>
      <trkpt lat="45.10228" lon="0.62255">
        <ele>201.2</ele>
        <time>2025-05-25T09:41:44Z</time>
      </trkpt>
      <trkpt lat="45.10232" lon="0.62257">
        <ele>201.4</ele>
        <time>2025-05-25T09:41:45Z</time>
      </trkpt>
      <trkpt lat="45.10235" lon="0.62259">
        <ele>201.6</ele>
        <time>2025-05-25T09:41:46Z</time>
      </trkpt>
      <trkpt lat="45.10239" lon="0.62262">
        <ele>201.6</ele>
        <time>2025-05-25T09:41:47Z</time>
      </trkpt>
      <trkpt lat="45.10242" lon="0.62265">
        <ele>201.8</ele>
        <time>2025-05-25T09:41:48Z</time>
      </trkpt>
      <trkpt lat="45.10246" lon="0.62267">
        <ele>202</ele>
        <time>2025-05-25T09:41:49Z</time>
      </trkpt>
      <trkpt lat="45.1025" lon="0.62269">
        <ele>202.2</ele>
        <time>2025-05-25T09:41:50Z</time>
      </trkpt>
      <trkpt lat="45.10254" lon="0.62272">
        <ele>202.4</ele>
        <time>2025-05-25T09:41:51Z</time>
      </trkpt>
      <trkpt lat="45.10258" lon="0.62275">
        <ele>202.6</ele>
        <time>2025-05-25T09:41:52Z</time>
      </trkpt>
      <trkpt lat="45.10261" lon="0.62278">
        <ele>202.6</ele>
        <time>2025-05-25T09:41:53Z</time>
      </trkpt>
      <trkpt lat="45.10264" lon="0.6228">
        <ele>202.8</ele>
        <time>2025-05-25T09:41:54Z</time>
      </trkpt>
      <trkpt lat="45.10268" lon="0.62281">
        <ele>202.8</ele>
        <time>2025-05-25T09:41:55Z</time>
      </trkpt>
      <trkpt lat="45.10272" lon="0.62278">
        <ele>202.8</ele>
        <time>2025-05-25T09:41:56Z</time>
      </trkpt>
      <trkpt lat="45.10273" lon="0.62275">
        <ele>202.8</ele>
        <time>2025-05-25T09:41:57Z</time>
      </trkpt>
      <trkpt lat="45.10273" lon="0.62271">
        <ele>202.8</ele>
        <time>2025-05-25T09:41:58Z</time>
      </trkpt>
      <trkpt lat="45.10273" lon="0.62267">
        <ele>202.8</ele>
        <time>2025-05-25T09:41:59Z</time>
      </trkpt>
      <trkpt lat="45.10272" lon="0.62263">
        <ele>203</ele>
        <time>2025-05-25T09:42:00Z</time>
      </trkpt>
      <trkpt lat="45.10272" lon="0.62259">
        <ele>203</ele>
        <time>2025-05-25T09:42:01Z</time>
      </trkpt>
      <trkpt lat="45.10272" lon="0.62254">
        <ele>203.2</ele>
        <time>2025-05-25T09:42:02Z</time>
      </trkpt>
      <trkpt lat="45.10271" lon="0.6225">
        <ele>203.2</ele>
        <time>2025-05-25T09:42:03Z</time>
      </trkpt>
      <trkpt lat="45.10271" lon="0.62245">
        <ele>203.2</ele>
        <time>2025-05-25T09:42:04Z</time>
      </trkpt>
      <trkpt lat="45.10271" lon="0.6224">
        <ele>203.2</ele>
        <time>2025-05-25T09:42:05Z</time>
      </trkpt>
      <trkpt lat="45.10272" lon="0.62235">
        <ele>203.2</ele>
        <time>2025-05-25T09:42:06Z</time>
      </trkpt>
      <trkpt lat="45.10272" lon="0.6223">
        <ele>203.2</ele>
        <time>2025-05-25T09:42:07Z</time>
      </trkpt>
      <trkpt lat="45.10272" lon="0.62225">
        <ele>203</ele>
        <time>2025-05-25T09:42:08Z</time>
      </trkpt>
      <trkpt lat="45.10272" lon="0.62218">
        <ele>203</ele>
        <time>2025-05-25T09:42:09Z</time>
      </trkpt>
      <trkpt lat="45.10272" lon="0.62213">
        <ele>202.8</ele>
        <time>2025-05-25T09:42:10Z</time>
      </trkpt>
      <trkpt lat="45.10274" lon="0.62207">
        <ele>202.6</ele>
        <time>2025-05-25T09:42:11Z</time>
      </trkpt>
      <trkpt lat="45.10276" lon="0.62201">
        <ele>202.4</ele>
        <time>2025-05-25T09:42:12Z</time>
      </trkpt>
      <trkpt lat="45.10277" lon="0.62195">
        <ele>202.2</ele>
        <time>2025-05-25T09:42:13Z</time>
      </trkpt>
      <trkpt lat="45.1028" lon="0.62188">
        <ele>202.2</ele>
        <time>2025-05-25T09:42:14Z</time>
      </trkpt>
      <trkpt lat="45.10282" lon="0.62182">
        <ele>202</ele>
        <time>2025-05-25T09:42:15Z</time>
      </trkpt>
      <trkpt lat="45.10285" lon="0.62176">
        <ele>202</ele>
        <time>2025-05-25T09:42:16Z</time>
      </trkpt>
      <trkpt lat="45.10287" lon="0.6217">
        <ele>201.8</ele>
        <time>2025-05-25T09:42:17Z</time>
      </trkpt>
      <trkpt lat="45.1029" lon="0.62165">
        <ele>201.6</ele>
        <time>2025-05-25T09:42:18Z</time>
      </trkpt>
      <trkpt lat="45.10294" lon="0.62159">
        <ele>201.4</ele>
        <time>2025-05-25T09:42:19Z</time>
      </trkpt>
      <trkpt lat="45.10298" lon="0.62154">
        <ele>201.4</ele>
        <time>2025-05-25T09:42:20Z</time>
      </trkpt>
      <trkpt lat="45.10302" lon="0.62149">
        <ele>201.4</ele>
        <time>2025-05-25T09:42:21Z</time>
      </trkpt>
      <trkpt lat="45.10306" lon="0.62145">
        <ele>201.2</ele>
        <time>2025-05-25T09:42:22Z</time>
      </trkpt>
      <trkpt lat="45.10311" lon="0.6214">
        <ele>201.2</ele>
        <time>2025-05-25T09:42:23Z</time>
      </trkpt>
      <trkpt lat="45.10314" lon="0.62136">
        <ele>201.4</ele>
        <time>2025-05-25T09:42:24Z</time>
      </trkpt>
      <trkpt lat="45.10314" lon="0.62136">
        <ele>201.4</ele>
        <time>2025-05-25T09:42:25Z</time>
      </trkpt>
      <trkpt lat="45.10314" lon="0.62135">
        <ele>201.6</ele>
        <time>2025-05-25T09:42:26Z</time>
      </trkpt>
      <trkpt lat="45.10314" lon="0.6214">
        <ele>202.2</ele>
        <time>2025-05-25T09:42:33Z</time>
      </trkpt>
      <trkpt lat="45.10315" lon="0.62142">
        <ele>202.2</ele>
        <time>2025-05-25T09:42:34Z</time>
      </trkpt>
      <trkpt lat="45.10316" lon="0.62144">
        <ele>202.4</ele>
        <time>2025-05-25T09:42:35Z</time>
      </trkpt>
      <trkpt lat="45.10317" lon="0.62145">
        <ele>202.4</ele>
        <time>2025-05-25T09:42:36Z</time>
      </trkpt>
      <trkpt lat="45.10318" lon="0.62146">
        <ele>202.6</ele>
        <time>2025-05-25T09:42:37Z</time>
      </trkpt>
      <trkpt lat="45.10319" lon="0.62148">
        <ele>202.8</ele>
        <time>2025-05-25T09:42:38Z</time>
      </trkpt>
      <trkpt lat="45.10321" lon="0.62149">
        <ele>202.8</ele>
        <time>2025-05-25T09:42:39Z</time>
      </trkpt>
      <trkpt lat="45.10322" lon="0.62151">
        <ele>203</ele>
        <time>2025-05-25T09:42:40Z</time>
      </trkpt>
      <trkpt lat="45.10324" lon="0.62153">
        <ele>203.2</ele>
        <time>2025-05-25T09:42:41Z</time>
      </trkpt>
      <trkpt lat="45.10326" lon="0.62154">
        <ele>203.4</ele>
        <time>2025-05-25T09:42:42Z</time>
      </trkpt>
      <trkpt lat="45.10327" lon="0.62156">
        <ele>203.6</ele>
        <time>2025-05-25T09:42:43Z</time>
      </trkpt>
      <trkpt lat="45.10329" lon="0.62158">
        <ele>203.6</ele>
        <time>2025-05-25T09:42:44Z</time>
      </trkpt>
      <trkpt lat="45.10331" lon="0.62159">
        <ele>203.8</ele>
        <time>2025-05-25T09:42:45Z</time>
      </trkpt>
      <trkpt lat="45.10332" lon="0.6216">
        <ele>203.8</ele>
        <time>2025-05-25T09:42:46Z</time>
      </trkpt>
      <trkpt lat="45.10334" lon="0.62161">
        <ele>204</ele>
        <time>2025-05-25T09:42:47Z</time>
      </trkpt>
      <trkpt lat="45.10337" lon="0.62163">
        <ele>204</ele>
        <time>2025-05-25T09:42:48Z</time>
      </trkpt>
      <trkpt lat="45.10339" lon="0.62165">
        <ele>204.2</ele>
        <time>2025-05-25T09:42:49Z</time>
      </trkpt>
      <trkpt lat="45.10341" lon="0.62166">
        <ele>204.2</ele>
        <time>2025-05-25T09:42:50Z</time>
      </trkpt>
      <trkpt lat="45.10343" lon="0.62167">
        <ele>204.4</ele>
        <time>2025-05-25T09:42:51Z</time>
      </trkpt>
      <trkpt lat="45.10345" lon="0.62169">
        <ele>204.4</ele>
        <time>2025-05-25T09:42:52Z</time>
      </trkpt>
      <trkpt lat="45.10347" lon="0.62171">
        <ele>204.6</ele>
        <time>2025-05-25T09:42:53Z</time>
      </trkpt>
      <trkpt lat="45.1035" lon="0.62172">
        <ele>204.6</ele>
        <time>2025-05-25T09:42:54Z</time>
      </trkpt>
      <trkpt lat="45.10352" lon="0.62173">
        <ele>204.8</ele>
        <time>2025-05-25T09:42:55Z</time>
      </trkpt>
      <trkpt lat="45.10354" lon="0.62175">
        <ele>205</ele>
        <time>2025-05-25T09:42:56Z</time>
      </trkpt>
      <trkpt lat="45.10357" lon="0.62177">
        <ele>205</ele>
        <time>2025-05-25T09:42:57Z</time>
      </trkpt>
      <trkpt lat="45.10359" lon="0.62178">
        <ele>205.2</ele>
        <time>2025-05-25T09:42:58Z</time>
      </trkpt>
      <trkpt lat="45.10361" lon="0.6218">
        <ele>205.4</ele>
        <time>2025-05-25T09:42:59Z</time>
      </trkpt>
      <trkpt lat="45.10363" lon="0.62182">
        <ele>205.6</ele>
        <time>2025-05-25T09:43:00Z</time>
      </trkpt>
      <trkpt lat="45.10366" lon="0.62184">
        <ele>205.8</ele>
        <time>2025-05-25T09:43:01Z</time>
      </trkpt>
      <trkpt lat="45.10369" lon="0.62185">
        <ele>206</ele>
        <time>2025-05-25T09:43:02Z</time>
      </trkpt>
      <trkpt lat="45.10371" lon="0.62186">
        <ele>206</ele>
        <time>2025-05-25T09:43:03Z</time>
      </trkpt>
      <trkpt lat="45.10374" lon="0.62188">
        <ele>206.2</ele>
        <time>2025-05-25T09:43:04Z</time>
      </trkpt>
      <trkpt lat="45.10377" lon="0.6219">
        <ele>206.2</ele>
        <time>2025-05-25T09:43:05Z</time>
      </trkpt>
      <trkpt lat="45.1038" lon="0.62191">
        <ele>206.2</ele>
        <time>2025-05-25T09:43:06Z</time>
      </trkpt>
      <trkpt lat="45.10383" lon="0.62191">
        <ele>206.4</ele>
        <time>2025-05-25T09:43:07Z</time>
      </trkpt>
      <trkpt lat="45.10385" lon="0.62192">
        <ele>206.4</ele>
        <time>2025-05-25T09:43:08Z</time>
      </trkpt>
      <trkpt lat="45.10387" lon="0.62194">
        <ele>206.6</ele>
        <time>2025-05-25T09:43:09Z</time>
      </trkpt>
      <trkpt lat="45.10389" lon="0.62194">
        <ele>206.6</ele>
        <time>2025-05-25T09:43:10Z</time>
      </trkpt>
      <trkpt lat="45.10392" lon="0.62195">
        <ele>206.8</ele>
        <time>2025-05-25T09:43:11Z</time>
      </trkpt>
      <trkpt lat="45.10394" lon="0.62196">
        <ele>206.8</ele>
        <time>2025-05-25T09:43:12Z</time>
      </trkpt>
      <trkpt lat="45.10396" lon="0.62197">
        <ele>207</ele>
        <time>2025-05-25T09:43:13Z</time>
      </trkpt>
      <trkpt lat="45.10399" lon="0.62198">
        <ele>207</ele>
        <time>2025-05-25T09:43:14Z</time>
      </trkpt>
      <trkpt lat="45.10402" lon="0.62199">
        <ele>207</ele>
        <time>2025-05-25T09:43:15Z</time>
      </trkpt>
      <trkpt lat="45.10404" lon="0.622">
        <ele>207</ele>
        <time>2025-05-25T09:43:16Z</time>
      </trkpt>
      <trkpt lat="45.10407" lon="0.62201">
        <ele>207</ele>
        <time>2025-05-25T09:43:17Z</time>
      </trkpt>
      <trkpt lat="45.10409" lon="0.62202">
        <ele>207.2</ele>
        <time>2025-05-25T09:43:18Z</time>
      </trkpt>
      <trkpt lat="45.10412" lon="0.62203">
        <ele>207.2</ele>
        <time>2025-05-25T09:43:19Z</time>
      </trkpt>
      <trkpt lat="45.10415" lon="0.62205">
        <ele>207.2</ele>
        <time>2025-05-25T09:43:20Z</time>
      </trkpt>
      <trkpt lat="45.10417" lon="0.62206">
        <ele>207.4</ele>
        <time>2025-05-25T09:43:21Z</time>
      </trkpt>
      <trkpt lat="45.1042" lon="0.62208">
        <ele>207.6</ele>
        <time>2025-05-25T09:43:22Z</time>
      </trkpt>
      <trkpt lat="45.10423" lon="0.62209">
        <ele>207.8</ele>
        <time>2025-05-25T09:43:23Z</time>
      </trkpt>
      <trkpt lat="45.10425" lon="0.62211">
        <ele>208</ele>
        <time>2025-05-25T09:43:24Z</time>
      </trkpt>
      <trkpt lat="45.10427" lon="0.62213">
        <ele>208.2</ele>
        <time>2025-05-25T09:43:25Z</time>
      </trkpt>
      <trkpt lat="45.1043" lon="0.62215">
        <ele>208.2</ele>
        <time>2025-05-25T09:43:26Z</time>
      </trkpt>
      <trkpt lat="45.10432" lon="0.62216">
        <ele>208.4</ele>
        <time>2025-05-25T09:43:27Z</time>
      </trkpt>
      <trkpt lat="45.10434" lon="0.62217">
        <ele>208.4</ele>
        <time>2025-05-25T09:43:28Z</time>
      </trkpt>
      <trkpt lat="45.10436" lon="0.62218">
        <ele>208.4</ele>
        <time>2025-05-25T09:43:29Z</time>
      </trkpt>
      <trkpt lat="45.10437" lon="0.62219">
        <ele>208.6</ele>
        <time>2025-05-25T09:43:30Z</time>
      </trkpt>
      <trkpt lat="45.10439" lon="0.62221">
        <ele>208.6</ele>
        <time>2025-05-25T09:43:31Z</time>
      </trkpt>
      <trkpt lat="45.10441" lon="0.62222">
        <ele>208.6</ele>
        <time>2025-05-25T09:43:32Z</time>
      </trkpt>
      <trkpt lat="45.10444" lon="0.62223">
        <ele>208.8</ele>
        <time>2025-05-25T09:43:33Z</time>
      </trkpt>
      <trkpt lat="45.10446" lon="0.62224">
        <ele>208.8</ele>
        <time>2025-05-25T09:43:34Z</time>
      </trkpt>
      <trkpt lat="45.10449" lon="0.62226">
        <ele>208.8</ele>
        <time>2025-05-25T09:43:35Z</time>
      </trkpt>
      <trkpt lat="45.10451" lon="0.62228">
        <ele>208.8</ele>
        <time>2025-05-25T09:43:36Z</time>
      </trkpt>
      <trkpt lat="45.10453" lon="0.6223">
        <ele>209</ele>
        <time>2025-05-25T09:43:37Z</time>
      </trkpt>
      <trkpt lat="45.10456" lon="0.62232">
        <ele>209</ele>
        <time>2025-05-25T09:43:38Z</time>
      </trkpt>
      <trkpt lat="45.10458" lon="0.62233">
        <ele>209</ele>
        <time>2025-05-25T09:43:39Z</time>
      </trkpt>
      <trkpt lat="45.1046" lon="0.62234">
        <ele>209.2</ele>
        <time>2025-05-25T09:43:40Z</time>
      </trkpt>
      <trkpt lat="45.10462" lon="0.62236">
        <ele>209.2</ele>
        <time>2025-05-25T09:43:41Z</time>
      </trkpt>
      <trkpt lat="45.10464" lon="0.62237">
        <ele>209.4</ele>
        <time>2025-05-25T09:43:42Z</time>
      </trkpt>
      <trkpt lat="45.10467" lon="0.62238">
        <ele>209.4</ele>
        <time>2025-05-25T09:43:43Z</time>
      </trkpt>
      <trkpt lat="45.10469" lon="0.62239">
        <ele>209.4</ele>
        <time>2025-05-25T09:43:44Z</time>
      </trkpt>
      <trkpt lat="45.10472" lon="0.62241">
        <ele>209.4</ele>
        <time>2025-05-25T09:43:45Z</time>
      </trkpt>
      <trkpt lat="45.10474" lon="0.62243">
        <ele>209.6</ele>
        <time>2025-05-25T09:43:46Z</time>
      </trkpt>
      <trkpt lat="45.10477" lon="0.62245">
        <ele>209.6</ele>
        <time>2025-05-25T09:43:47Z</time>
      </trkpt>
      <trkpt lat="45.10481" lon="0.62246">
        <ele>209.6</ele>
        <time>2025-05-25T09:43:48Z</time>
      </trkpt>
      <trkpt lat="45.10483" lon="0.62248">
        <ele>209.6</ele>
        <time>2025-05-25T09:43:49Z</time>
      </trkpt>
      <trkpt lat="45.10484" lon="0.62249">
        <ele>209.6</ele>
        <time>2025-05-25T09:43:50Z</time>
      </trkpt>
      <trkpt lat="45.10486" lon="0.62251">
        <ele>209.8</ele>
        <time>2025-05-25T09:43:51Z</time>
      </trkpt>
      <trkpt lat="45.10488" lon="0.62252">
        <ele>209.8</ele>
        <time>2025-05-25T09:43:52Z</time>
      </trkpt>
      <trkpt lat="45.10491" lon="0.62254">
        <ele>209.8</ele>
        <time>2025-05-25T09:43:53Z</time>
      </trkpt>
      <trkpt lat="45.10494" lon="0.62256">
        <ele>210</ele>
        <time>2025-05-25T09:43:54Z</time>
      </trkpt>
      <trkpt lat="45.10496" lon="0.62258">
        <ele>210</ele>
        <time>2025-05-25T09:43:55Z</time>
      </trkpt>
      <trkpt lat="45.10499" lon="0.6226">
        <ele>210</ele>
        <time>2025-05-25T09:43:56Z</time>
      </trkpt>
      <trkpt lat="45.10502" lon="0.62262">
        <ele>210</ele>
        <time>2025-05-25T09:43:57Z</time>
      </trkpt>
      <trkpt lat="45.10505" lon="0.62264">
        <ele>210</ele>
        <time>2025-05-25T09:43:58Z</time>
      </trkpt>
      <trkpt lat="45.10508" lon="0.62266">
        <ele>209.8</ele>
        <time>2025-05-25T09:43:59Z</time>
      </trkpt>
      <trkpt lat="45.1051" lon="0.62268">
        <ele>209.8</ele>
        <time>2025-05-25T09:44:00Z</time>
      </trkpt>
      <trkpt lat="45.10513" lon="0.6227">
        <ele>209.8</ele>
        <time>2025-05-25T09:44:01Z</time>
      </trkpt>
      <trkpt lat="45.10516" lon="0.62273">
        <ele>209.8</ele>
        <time>2025-05-25T09:44:02Z</time>
      </trkpt>
      <trkpt lat="45.10519" lon="0.62276">
        <ele>209.8</ele>
        <time>2025-05-25T09:44:03Z</time>
      </trkpt>
      <trkpt lat="45.10522" lon="0.62278">
        <ele>209.8</ele>
        <time>2025-05-25T09:44:04Z</time>
      </trkpt>
      <trkpt lat="45.10524" lon="0.62281">
        <ele>210</ele>
        <time>2025-05-25T09:44:05Z</time>
      </trkpt>
      <trkpt lat="45.10527" lon="0.62284">
        <ele>210</ele>
        <time>2025-05-25T09:44:06Z</time>
      </trkpt>
      <trkpt lat="45.10529" lon="0.62287">
        <ele>209.8</ele>
        <time>2025-05-25T09:44:07Z</time>
      </trkpt>
      <trkpt lat="45.10531" lon="0.62289">
        <ele>209.8</ele>
        <time>2025-05-25T09:44:08Z</time>
      </trkpt>
      <trkpt lat="45.10532" lon="0.6229">
        <ele>210</ele>
        <time>2025-05-25T09:44:09Z</time>
      </trkpt>
      <trkpt lat="45.10533" lon="0.6229">
        <ele>210</ele>
        <time>2025-05-25T09:44:10Z</time>
      </trkpt>
      <trkpt lat="45.10534" lon="0.62291">
        <ele>210</ele>
        <time>2025-05-25T09:44:11Z</time>
      </trkpt>
      <trkpt lat="45.10535" lon="0.62292">
        <ele>210.2</ele>
        <time>2025-05-25T09:44:12Z</time>
      </trkpt>
      <trkpt lat="45.10536" lon="0.62294">
        <ele>210.2</ele>
        <time>2025-05-25T09:44:13Z</time>
      </trkpt>
      <trkpt lat="45.10538" lon="0.62296">
        <ele>210.2</ele>
        <time>2025-05-25T09:44:14Z</time>
      </trkpt>
      <trkpt lat="45.1054" lon="0.623">
        <ele>209.8</ele>
        <time>2025-05-25T09:44:15Z</time>
      </trkpt>
      <trkpt lat="45.10543" lon="0.62303">
        <ele>209.6</ele>
        <time>2025-05-25T09:44:16Z</time>
      </trkpt>
      <trkpt lat="45.10546" lon="0.62308">
        <ele>209.2</ele>
        <time>2025-05-25T09:44:17Z</time>
      </trkpt>
      <trkpt lat="45.10549" lon="0.62312">
        <ele>208.8</ele>
        <time>2025-05-25T09:44:18Z</time>
      </trkpt>
      <trkpt lat="45.10553" lon="0.62317">
        <ele>208.6</ele>
        <time>2025-05-25T09:44:19Z</time>
      </trkpt>
      <trkpt lat="45.10556" lon="0.62322">
        <ele>208.2</ele>
        <time>2025-05-25T09:44:20Z</time>
      </trkpt>
      <trkpt lat="45.10559" lon="0.62327">
        <ele>207.8</ele>
        <time>2025-05-25T09:44:21Z</time>
      </trkpt>
      <trkpt lat="45.10563" lon="0.62332">
        <ele>207.8</ele>
        <time>2025-05-25T09:44:22Z</time>
      </trkpt>
      <trkpt lat="45.10566" lon="0.62337">
        <ele>207.4</ele>
        <time>2025-05-25T09:44:23Z</time>
      </trkpt>
      <trkpt lat="45.1057" lon="0.62342">
        <ele>207</ele>
        <time>2025-05-25T09:44:24Z</time>
      </trkpt>
      <trkpt lat="45.10573" lon="0.62346">
        <ele>206.8</ele>
        <time>2025-05-25T09:44:25Z</time>
      </trkpt>
      <trkpt lat="45.10575" lon="0.62351">
        <ele>206.6</ele>
        <time>2025-05-25T09:44:26Z</time>
      </trkpt>
      <trkpt lat="45.10579" lon="0.62355">
        <ele>206.6</ele>
        <time>2025-05-25T09:44:27Z</time>
      </trkpt>
      <trkpt lat="45.10582" lon="0.62359">
        <ele>206.4</ele>
        <time>2025-05-25T09:44:28Z</time>
      </trkpt>
      <trkpt lat="45.10586" lon="0.62363">
        <ele>206.4</ele>
        <time>2025-05-25T09:44:29Z</time>
      </trkpt>
      <trkpt lat="45.10589" lon="0.62368">
        <ele>206.4</ele>
        <time>2025-05-25T09:44:30Z</time>
      </trkpt>
      <trkpt lat="45.10593" lon="0.62371">
        <ele>206.2</ele>
        <time>2025-05-25T09:44:31Z</time>
      </trkpt>
      <trkpt lat="45.10596" lon="0.62375">
        <ele>206.2</ele>
        <time>2025-05-25T09:44:32Z</time>
      </trkpt>
      <trkpt lat="45.106" lon="0.62379">
        <ele>206</ele>
        <time>2025-05-25T09:44:33Z</time>
      </trkpt>
      <trkpt lat="45.10603" lon="0.62383">
        <ele>206</ele>
        <time>2025-05-25T09:44:34Z</time>
      </trkpt>
      <trkpt lat="45.10606" lon="0.62386">
        <ele>205.8</ele>
        <time>2025-05-25T09:44:35Z</time>
      </trkpt>
      <trkpt lat="45.10609" lon="0.6239">
        <ele>205.6</ele>
        <time>2025-05-25T09:44:36Z</time>
      </trkpt>
      <trkpt lat="45.10612" lon="0.62394">
        <ele>205.6</ele>
        <time>2025-05-25T09:44:37Z</time>
      </trkpt>
      <trkpt lat="45.10616" lon="0.62397">
        <ele>205.4</ele>
        <time>2025-05-25T09:44:38Z</time>
      </trkpt>
      <trkpt lat="45.1062" lon="0.62401">
        <ele>205.2</ele>
        <time>2025-05-25T09:44:39Z</time>
      </trkpt>
      <trkpt lat="45.10624" lon="0.62405">
        <ele>205</ele>
        <time>2025-05-25T09:44:40Z</time>
      </trkpt>
      <trkpt lat="45.10628" lon="0.62409">
        <ele>204.8</ele>
        <time>2025-05-25T09:44:41Z</time>
      </trkpt>
      <trkpt lat="45.10633" lon="0.62413">
        <ele>204.6</ele>
        <time>2025-05-25T09:44:42Z</time>
      </trkpt>
      <trkpt lat="45.10637" lon="0.62416">
        <ele>204.4</ele>
        <time>2025-05-25T09:44:43Z</time>
      </trkpt>
      <trkpt lat="45.10642" lon="0.6242">
        <ele>204.2</ele>
        <time>2025-05-25T09:44:44Z</time>
      </trkpt>
      <trkpt lat="45.10645" lon="0.62425">
        <ele>204.2</ele>
        <time>2025-05-25T09:44:45Z</time>
      </trkpt>
      <trkpt lat="45.10648" lon="0.6243">
        <ele>204</ele>
        <time>2025-05-25T09:44:46Z</time>
      </trkpt>
      <trkpt lat="45.10652" lon="0.62436">
        <ele>204</ele>
        <time>2025-05-25T09:44:47Z</time>
      </trkpt>
      <trkpt lat="45.10655" lon="0.6244">
        <ele>204</ele>
        <time>2025-05-25T09:44:48Z</time>
      </trkpt>
      <trkpt lat="45.10658" lon="0.62445">
        <ele>204</ele>
        <time>2025-05-25T09:44:49Z</time>
      </trkpt>
      <trkpt lat="45.1066" lon="0.6245">
        <ele>204</ele>
        <time>2025-05-25T09:44:50Z</time>
      </trkpt>
      <trkpt lat="45.10664" lon="0.62454">
        <ele>204</ele>
        <time>2025-05-25T09:44:51Z</time>
      </trkpt>
      <trkpt lat="45.10667" lon="0.62459">
        <ele>204</ele>
        <time>2025-05-25T09:44:52Z</time>
      </trkpt>
      <trkpt lat="45.1067" lon="0.62465">
        <ele>204</ele>
        <time>2025-05-25T09:44:53Z</time>
      </trkpt>
      <trkpt lat="45.10673" lon="0.62471">
        <ele>203.6</ele>
        <time>2025-05-25T09:44:54Z</time>
      </trkpt>
      <trkpt lat="45.10676" lon="0.62477">
        <ele>203.4</ele>
        <time>2025-05-25T09:44:55Z</time>
      </trkpt>
      <trkpt lat="45.1068" lon="0.62483">
        <ele>203.2</ele>
        <time>2025-05-25T09:44:56Z</time>
      </trkpt>
      <trkpt lat="45.10683" lon="0.62489">
        <ele>203</ele>
        <time>2025-05-25T09:44:57Z</time>
      </trkpt>
      <trkpt lat="45.10686" lon="0.62495">
        <ele>202.8</ele>
        <time>2025-05-25T09:44:58Z</time>
      </trkpt>
      <trkpt lat="45.1069" lon="0.62501">
        <ele>202.6</ele>
        <time>2025-05-25T09:44:59Z</time>
      </trkpt>
      <trkpt lat="45.10693" lon="0.62507">
        <ele>202.6</ele>
        <time>2025-05-25T09:45:00Z</time>
      </trkpt>
      <trkpt lat="45.10697" lon="0.62512">
        <ele>202.6</ele>
        <time>2025-05-25T09:45:01Z</time>
      </trkpt>
      <trkpt lat="45.10701" lon="0.62518">
        <ele>202.6</ele>
        <time>2025-05-25T09:45:02Z</time>
      </trkpt>
      <trkpt lat="45.10705" lon="0.62524">
        <ele>202.6</ele>
        <time>2025-05-25T09:45:03Z</time>
      </trkpt>
      <trkpt lat="45.10709" lon="0.62529">
        <ele>202.6</ele>
        <time>2025-05-25T09:45:04Z</time>
      </trkpt>
      <trkpt lat="45.10714" lon="0.62535">
        <ele>202.6</ele>
        <time>2025-05-25T09:45:05Z</time>
      </trkpt>
      <trkpt lat="45.10719" lon="0.6254">
        <ele>202.8</ele>
        <time>2025-05-25T09:45:06Z</time>
      </trkpt>
      <trkpt lat="45.10723" lon="0.62545">
        <ele>202.8</ele>
        <time>2025-05-25T09:45:07Z</time>
      </trkpt>
      <trkpt lat="45.10727" lon="0.62551">
        <ele>202.8</ele>
        <time>2025-05-25T09:45:08Z</time>
      </trkpt>
      <trkpt lat="45.10732" lon="0.62556">
        <ele>202.8</ele>
        <time>2025-05-25T09:45:09Z</time>
      </trkpt>
      <trkpt lat="45.10736" lon="0.62562">
        <ele>203</ele>
        <time>2025-05-25T09:45:10Z</time>
      </trkpt>
      <trkpt lat="45.10739" lon="0.62568">
        <ele>203.2</ele>
        <time>2025-05-25T09:45:11Z</time>
      </trkpt>
      <trkpt lat="45.10739" lon="0.62575">
        <ele>203.2</ele>
        <time>2025-05-25T09:45:12Z</time>
      </trkpt>
      <trkpt lat="45.10736" lon="0.62579">
        <ele>203.6</ele>
        <time>2025-05-25T09:45:13Z</time>
      </trkpt>
      <trkpt lat="45.10734" lon="0.62582">
        <ele>203.6</ele>
        <time>2025-05-25T09:45:14Z</time>
      </trkpt>
      <trkpt lat="45.1073" lon="0.62584">
        <ele>203.8</ele>
        <time>2025-05-25T09:45:15Z</time>
      </trkpt>
      <trkpt lat="45.10726" lon="0.62588">
        <ele>204</ele>
        <time>2025-05-25T09:45:16Z</time>
      </trkpt>
      <trkpt lat="45.10721" lon="0.62591">
        <ele>204</ele>
        <time>2025-05-25T09:45:17Z</time>
      </trkpt>
      <trkpt lat="45.10717" lon="0.62594">
        <ele>204.2</ele>
        <time>2025-05-25T09:45:18Z</time>
      </trkpt>
      <trkpt lat="45.10714" lon="0.62599">
        <ele>204.2</ele>
        <time>2025-05-25T09:45:19Z</time>
      </trkpt>
      <trkpt lat="45.10711" lon="0.62605">
        <ele>204.4</ele>
        <time>2025-05-25T09:45:20Z</time>
      </trkpt>
      <trkpt lat="45.1071" lon="0.62612">
        <ele>204.4</ele>
        <time>2025-05-25T09:45:21Z</time>
      </trkpt>
      <trkpt lat="45.10709" lon="0.62619">
        <ele>204.6</ele>
        <time>2025-05-25T09:45:22Z</time>
      </trkpt>
      <trkpt lat="45.1071" lon="0.62627">
        <ele>204.6</ele>
        <time>2025-05-25T09:45:23Z</time>
      </trkpt>
      <trkpt lat="45.10712" lon="0.62633">
        <ele>204.8</ele>
        <time>2025-05-25T09:45:24Z</time>
      </trkpt>
      <trkpt lat="45.10715" lon="0.62638">
        <ele>204.8</ele>
        <time>2025-05-25T09:45:25Z</time>
      </trkpt>
      <trkpt lat="45.10718" lon="0.62644">
        <ele>204.8</ele>
        <time>2025-05-25T09:45:26Z</time>
      </trkpt>
      <trkpt lat="45.10722" lon="0.62649">
        <ele>204.8</ele>
        <time>2025-05-25T09:45:27Z</time>
      </trkpt>
      <trkpt lat="45.10725" lon="0.62654">
        <ele>204.8</ele>
        <time>2025-05-25T09:45:28Z</time>
      </trkpt>
      <trkpt lat="45.10729" lon="0.62659">
        <ele>205</ele>
        <time>2025-05-25T09:45:29Z</time>
      </trkpt>
      <trkpt lat="45.10732" lon="0.62663">
        <ele>205</ele>
        <time>2025-05-25T09:45:30Z</time>
      </trkpt>
      <trkpt lat="45.10736" lon="0.62669">
        <ele>205.2</ele>
        <time>2025-05-25T09:45:31Z</time>
      </trkpt>
      <trkpt lat="45.10739" lon="0.62675">
        <ele>205.4</ele>
        <time>2025-05-25T09:45:32Z</time>
      </trkpt>
      <trkpt lat="45.10742" lon="0.6268">
        <ele>205.4</ele>
        <time>2025-05-25T09:45:33Z</time>
      </trkpt>
      <trkpt lat="45.10745" lon="0.62686">
        <ele>205.4</ele>
        <time>2025-05-25T09:45:34Z</time>
      </trkpt>
      <trkpt lat="45.10748" lon="0.62692">
        <ele>205.4</ele>
        <time>2025-05-25T09:45:35Z</time>
      </trkpt>
      <trkpt lat="45.10752" lon="0.62697">
        <ele>205.4</ele>
        <time>2025-05-25T09:45:36Z</time>
      </trkpt>
      <trkpt lat="45.10756" lon="0.62702">
        <ele>205.6</ele>
        <time>2025-05-25T09:45:37Z</time>
      </trkpt>
      <trkpt lat="45.10761" lon="0.62706">
        <ele>205.6</ele>
        <time>2025-05-25T09:45:38Z</time>
      </trkpt>
      <trkpt lat="45.10766" lon="0.6271">
        <ele>205.8</ele>
        <time>2025-05-25T09:45:39Z</time>
      </trkpt>
      <trkpt lat="45.1077" lon="0.62713">
        <ele>205.8</ele>
        <time>2025-05-25T09:45:40Z</time>
      </trkpt>
      <trkpt lat="45.10774" lon="0.62716">
        <ele>206</ele>
        <time>2025-05-25T09:45:41Z</time>
      </trkpt>
      <trkpt lat="45.10778" lon="0.62718">
        <ele>206</ele>
        <time>2025-05-25T09:45:42Z</time>
      </trkpt>
      <trkpt lat="45.10783" lon="0.62722">
        <ele>206</ele>
        <time>2025-05-25T09:45:43Z</time>
      </trkpt>
      <trkpt lat="45.10787" lon="0.62725">
        <ele>206</ele>
        <time>2025-05-25T09:45:44Z</time>
      </trkpt>
      <trkpt lat="45.10791" lon="0.62729">
        <ele>206.2</ele>
        <time>2025-05-25T09:45:45Z</time>
      </trkpt>
      <trkpt lat="45.10795" lon="0.62733">
        <ele>206.6</ele>
        <time>2025-05-25T09:45:46Z</time>
      </trkpt>
      <trkpt lat="45.10798" lon="0.62738">
        <ele>206.6</ele>
        <time>2025-05-25T09:45:47Z</time>
      </trkpt>
      <trkpt lat="45.10802" lon="0.62743">
        <ele>206.8</ele>
        <time>2025-05-25T09:45:48Z</time>
      </trkpt>
      <trkpt lat="45.10806" lon="0.62748">
        <ele>207</ele>
        <time>2025-05-25T09:45:49Z</time>
      </trkpt>
      <trkpt lat="45.10809" lon="0.62754">
        <ele>207</ele>
        <time>2025-05-25T09:45:50Z</time>
      </trkpt>
      <trkpt lat="45.10811" lon="0.62761">
        <ele>207</ele>
        <time>2025-05-25T09:45:51Z</time>
      </trkpt>
      <trkpt lat="45.10815" lon="0.62766">
        <ele>207</ele>
        <time>2025-05-25T09:45:52Z</time>
      </trkpt>
      <trkpt lat="45.10819" lon="0.62772">
        <ele>207</ele>
        <time>2025-05-25T09:45:53Z</time>
      </trkpt>
      <trkpt lat="45.10823" lon="0.62777">
        <ele>207</ele>
        <time>2025-05-25T09:45:54Z</time>
      </trkpt>
      <trkpt lat="45.10828" lon="0.62782">
        <ele>206.8</ele>
        <time>2025-05-25T09:45:55Z</time>
      </trkpt>
      <trkpt lat="45.10832" lon="0.62788">
        <ele>206.6</ele>
        <time>2025-05-25T09:45:56Z</time>
      </trkpt>
      <trkpt lat="45.10837" lon="0.62794">
        <ele>206.4</ele>
        <time>2025-05-25T09:45:57Z</time>
      </trkpt>
      <trkpt lat="45.10841" lon="0.62801">
        <ele>206.2</ele>
        <time>2025-05-25T09:45:58Z</time>
      </trkpt>
      <trkpt lat="45.10845" lon="0.62807">
        <ele>206</ele>
        <time>2025-05-25T09:45:59Z</time>
      </trkpt>
      <trkpt lat="45.10849" lon="0.62814">
        <ele>205.8</ele>
        <time>2025-05-25T09:46:00Z</time>
      </trkpt>
      <trkpt lat="45.10853" lon="0.6282">
        <ele>205.8</ele>
        <time>2025-05-25T09:46:01Z</time>
      </trkpt>
      <trkpt lat="45.10857" lon="0.62827">
        <ele>205.6</ele>
        <time>2025-05-25T09:46:02Z</time>
      </trkpt>
      <trkpt lat="45.10859" lon="0.62834">
        <ele>205.2</ele>
        <time>2025-05-25T09:46:03Z</time>
      </trkpt>
      <trkpt lat="45.10861" lon="0.62841">
        <ele>205</ele>
        <time>2025-05-25T09:46:04Z</time>
      </trkpt>
      <trkpt lat="45.10861" lon="0.62848">
        <ele>205</ele>
        <time>2025-05-25T09:46:05Z</time>
      </trkpt>
      <trkpt lat="45.10862" lon="0.62855">
        <ele>205</ele>
        <time>2025-05-25T09:46:06Z</time>
      </trkpt>
      <trkpt lat="45.10862" lon="0.62862">
        <ele>205</ele>
        <time>2025-05-25T09:46:07Z</time>
      </trkpt>
      <trkpt lat="45.10863" lon="0.6287">
        <ele>205</ele>
        <time>2025-05-25T09:46:08Z</time>
      </trkpt>
      <trkpt lat="45.10864" lon="0.62877">
        <ele>204.8</ele>
        <time>2025-05-25T09:46:09Z</time>
      </trkpt>
      <trkpt lat="45.10864" lon="0.62885">
        <ele>204.8</ele>
        <time>2025-05-25T09:46:10Z</time>
      </trkpt>
      <trkpt lat="45.10865" lon="0.62893">
        <ele>204.6</ele>
        <time>2025-05-25T09:46:11Z</time>
      </trkpt>
      <trkpt lat="45.10864" lon="0.62901">
        <ele>204.6</ele>
        <time>2025-05-25T09:46:12Z</time>
      </trkpt>
      <trkpt lat="45.10862" lon="0.62909">
        <ele>204.4</ele>
        <time>2025-05-25T09:46:13Z</time>
      </trkpt>
      <trkpt lat="45.10858" lon="0.62915">
        <ele>204</ele>
        <time>2025-05-25T09:46:14Z</time>
      </trkpt>
      <trkpt lat="45.10856" lon="0.6292">
        <ele>203.8</ele>
        <time>2025-05-25T09:46:15Z</time>
      </trkpt>
      <trkpt lat="45.10854" lon="0.62925">
        <ele>203.4</ele>
        <time>2025-05-25T09:46:16Z</time>
      </trkpt>
      <trkpt lat="45.10854" lon="0.6293">
        <ele>203</ele>
        <time>2025-05-25T09:46:17Z</time>
      </trkpt>
      <trkpt lat="45.10856" lon="0.62933">
        <ele>202.8</ele>
        <time>2025-05-25T09:46:18Z</time>
      </trkpt>
      <trkpt lat="45.10858" lon="0.62937">
        <ele>202.6</ele>
        <time>2025-05-25T09:46:19Z</time>
      </trkpt>
      <trkpt lat="45.10861" lon="0.62941">
        <ele>202.6</ele>
        <time>2025-05-25T09:46:20Z</time>
      </trkpt>
      <trkpt lat="45.10865" lon="0.62945">
        <ele>202.6</ele>
        <time>2025-05-25T09:46:21Z</time>
      </trkpt>
      <trkpt lat="45.10869" lon="0.62948">
        <ele>202.6</ele>
        <time>2025-05-25T09:46:22Z</time>
      </trkpt>
      <trkpt lat="45.10873" lon="0.62952">
        <ele>202.4</ele>
        <time>2025-05-25T09:46:23Z</time>
      </trkpt>
      <trkpt lat="45.10878" lon="0.62956">
        <ele>202.4</ele>
        <time>2025-05-25T09:46:24Z</time>
      </trkpt>
      <trkpt lat="45.10882" lon="0.62959">
        <ele>202.6</ele>
        <time>2025-05-25T09:46:25Z</time>
      </trkpt>
      <trkpt lat="45.10886" lon="0.62962">
        <ele>202.6</ele>
        <time>2025-05-25T09:46:26Z</time>
      </trkpt>
      <trkpt lat="45.1089" lon="0.62966">
        <ele>202.6</ele>
        <time>2025-05-25T09:46:27Z</time>
      </trkpt>
      <trkpt lat="45.10894" lon="0.62971">
        <ele>202.6</ele>
        <time>2025-05-25T09:46:28Z</time>
      </trkpt>
      <trkpt lat="45.10899" lon="0.62975">
        <ele>202.6</ele>
        <time>2025-05-25T09:46:29Z</time>
      </trkpt>
      <trkpt lat="45.10903" lon="0.62978">
        <ele>202.6</ele>
        <time>2025-05-25T09:46:30Z</time>
      </trkpt>
      <trkpt lat="45.10908" lon="0.62981">
        <ele>202.4</ele>
        <time>2025-05-25T09:46:31Z</time>
      </trkpt>
      <trkpt lat="45.10914" lon="0.62984">
        <ele>202</ele>
        <time>2025-05-25T09:46:32Z</time>
      </trkpt>
      <trkpt lat="45.10919" lon="0.62988">
        <ele>201.8</ele>
        <time>2025-05-25T09:46:33Z</time>
      </trkpt>
      <trkpt lat="45.10925" lon="0.62991">
        <ele>201.6</ele>
        <time>2025-05-25T09:46:34Z</time>
      </trkpt>
      <trkpt lat="45.10931" lon="0.62995">
        <ele>201.2</ele>
        <time>2025-05-25T09:46:35Z</time>
      </trkpt>
      <trkpt lat="45.10937" lon="0.62998">
        <ele>201</ele>
        <time>2025-05-25T09:46:36Z</time>
      </trkpt>
      <trkpt lat="45.10943" lon="0.63002">
        <ele>200.6</ele>
        <time>2025-05-25T09:46:37Z</time>
      </trkpt>
      <trkpt lat="45.10949" lon="0.63006">
        <ele>200.2</ele>
        <time>2025-05-25T09:46:38Z</time>
      </trkpt>
      <trkpt lat="45.10955" lon="0.6301">
        <ele>199.8</ele>
        <time>2025-05-25T09:46:39Z</time>
      </trkpt>
      <trkpt lat="45.10962" lon="0.63014">
        <ele>199.6</ele>
        <time>2025-05-25T09:46:40Z</time>
      </trkpt>
      <trkpt lat="45.10967" lon="0.6302">
        <ele>199.4</ele>
        <time>2025-05-25T09:46:41Z</time>
      </trkpt>
      <trkpt lat="45.10972" lon="0.63026">
        <ele>199</ele>
        <time>2025-05-25T09:46:42Z</time>
      </trkpt>
      <trkpt lat="45.10977" lon="0.63033">
        <ele>198.8</ele>
        <time>2025-05-25T09:46:43Z</time>
      </trkpt>
      <trkpt lat="45.10982" lon="0.6304">
        <ele>198.6</ele>
        <time>2025-05-25T09:46:44Z</time>
      </trkpt>
      <trkpt lat="45.10987" lon="0.63047">
        <ele>198.6</ele>
        <time>2025-05-25T09:46:45Z</time>
      </trkpt>
      <trkpt lat="45.10991" lon="0.63054">
        <ele>198.6</ele>
        <time>2025-05-25T09:46:46Z</time>
      </trkpt>
      <trkpt lat="45.10996" lon="0.63061">
        <ele>198.6</ele>
        <time>2025-05-25T09:46:47Z</time>
      </trkpt>
      <trkpt lat="45.11" lon="0.63067">
        <ele>198.6</ele>
        <time>2025-05-25T09:46:48Z</time>
      </trkpt>
      <trkpt lat="45.11004" lon="0.63074">
        <ele>198.8</ele>
        <time>2025-05-25T09:46:49Z</time>
      </trkpt>
      <trkpt lat="45.11008" lon="0.63081">
        <ele>198.8</ele>
        <time>2025-05-25T09:46:50Z</time>
      </trkpt>
      <trkpt lat="45.11012" lon="0.63088">
        <ele>199</ele>
        <time>2025-05-25T09:46:51Z</time>
      </trkpt>
      <trkpt lat="45.11016" lon="0.63094">
        <ele>199</ele>
        <time>2025-05-25T09:46:52Z</time>
      </trkpt>
      <trkpt lat="45.1102" lon="0.63101">
        <ele>199.2</ele>
        <time>2025-05-25T09:46:53Z</time>
      </trkpt>
      <trkpt lat="45.11024" lon="0.63108">
        <ele>199.2</ele>
        <time>2025-05-25T09:46:54Z</time>
      </trkpt>
      <trkpt lat="45.11028" lon="0.63114">
        <ele>199.4</ele>
        <time>2025-05-25T09:46:55Z</time>
      </trkpt>
      <trkpt lat="45.11032" lon="0.63121">
        <ele>199.4</ele>
        <time>2025-05-25T09:46:56Z</time>
      </trkpt>
      <trkpt lat="45.11036" lon="0.63127">
        <ele>199.4</ele>
        <time>2025-05-25T09:46:57Z</time>
      </trkpt>
      <trkpt lat="45.1104" lon="0.63133">
        <ele>199.4</ele>
        <time>2025-05-25T09:46:58Z</time>
      </trkpt>
      <trkpt lat="45.11043" lon="0.63139">
        <ele>199.6</ele>
        <time>2025-05-25T09:46:59Z</time>
      </trkpt>
      <trkpt lat="45.11047" lon="0.63146">
        <ele>199.8</ele>
        <time>2025-05-25T09:47:00Z</time>
      </trkpt>
      <trkpt lat="45.1105" lon="0.63152">
        <ele>199.8</ele>
        <time>2025-05-25T09:47:01Z</time>
      </trkpt>
      <trkpt lat="45.11054" lon="0.63157">
        <ele>200</ele>
        <time>2025-05-25T09:47:02Z</time>
      </trkpt>
      <trkpt lat="45.11057" lon="0.63163">
        <ele>200.2</ele>
        <time>2025-05-25T09:47:03Z</time>
      </trkpt>
      <trkpt lat="45.11061" lon="0.63168">
        <ele>200.6</ele>
        <time>2025-05-25T09:47:04Z</time>
      </trkpt>
      <trkpt lat="45.11064" lon="0.63173">
        <ele>200.8</ele>
        <time>2025-05-25T09:47:05Z</time>
      </trkpt>
      <trkpt lat="45.11067" lon="0.63178">
        <ele>201.2</ele>
        <time>2025-05-25T09:47:06Z</time>
      </trkpt>
      <trkpt lat="45.1107" lon="0.63183">
        <ele>201.6</ele>
        <time>2025-05-25T09:47:07Z</time>
      </trkpt>
      <trkpt lat="45.11073" lon="0.63187">
        <ele>202</ele>
        <time>2025-05-25T09:47:08Z</time>
      </trkpt>
      <trkpt lat="45.11076" lon="0.63192">
        <ele>202.4</ele>
        <time>2025-05-25T09:47:09Z</time>
      </trkpt>
      <trkpt lat="45.11079" lon="0.63197">
        <ele>202.8</ele>
        <time>2025-05-25T09:47:10Z</time>
      </trkpt>
      <trkpt lat="45.11082" lon="0.63201">
        <ele>203.2</ele>
        <time>2025-05-25T09:47:11Z</time>
      </trkpt>
      <trkpt lat="45.11084" lon="0.63205">
        <ele>203.6</ele>
        <time>2025-05-25T09:47:12Z</time>
      </trkpt>
      <trkpt lat="45.11087" lon="0.63209">
        <ele>203.8</ele>
        <time>2025-05-25T09:47:13Z</time>
      </trkpt>
      <trkpt lat="45.1109" lon="0.63214">
        <ele>204</ele>
        <time>2025-05-25T09:47:14Z</time>
      </trkpt>
      <trkpt lat="45.11093" lon="0.63218">
        <ele>204.4</ele>
        <time>2025-05-25T09:47:15Z</time>
      </trkpt>
      <trkpt lat="45.11095" lon="0.63222">
        <ele>204.8</ele>
        <time>2025-05-25T09:47:16Z</time>
      </trkpt>
      <trkpt lat="45.11098" lon="0.63226">
        <ele>205</ele>
        <time>2025-05-25T09:47:17Z</time>
      </trkpt>
      <trkpt lat="45.11101" lon="0.6323">
        <ele>205.4</ele>
        <time>2025-05-25T09:47:18Z</time>
      </trkpt>
      <trkpt lat="45.11104" lon="0.63234">
        <ele>205.6</ele>
        <time>2025-05-25T09:47:19Z</time>
      </trkpt>
      <trkpt lat="45.11106" lon="0.63239">
        <ele>205.8</ele>
        <time>2025-05-25T09:47:20Z</time>
      </trkpt>
      <trkpt lat="45.11109" lon="0.63243">
        <ele>206</ele>
        <time>2025-05-25T09:47:21Z</time>
      </trkpt>
      <trkpt lat="45.11112" lon="0.63248">
        <ele>206.4</ele>
        <time>2025-05-25T09:47:22Z</time>
      </trkpt>
      <trkpt lat="45.11114" lon="0.63252">
        <ele>206.6</ele>
        <time>2025-05-25T09:47:23Z</time>
      </trkpt>
      <trkpt lat="45.11117" lon="0.63257">
        <ele>206.8</ele>
        <time>2025-05-25T09:47:24Z</time>
      </trkpt>
      <trkpt lat="45.11119" lon="0.63261">
        <ele>207.2</ele>
        <time>2025-05-25T09:47:25Z</time>
      </trkpt>
      <trkpt lat="45.11122" lon="0.63266">
        <ele>207.4</ele>
        <time>2025-05-25T09:47:26Z</time>
      </trkpt>
      <trkpt lat="45.11124" lon="0.6327">
        <ele>207.6</ele>
        <time>2025-05-25T09:47:27Z</time>
      </trkpt>
      <trkpt lat="45.11126" lon="0.63275">
        <ele>207.8</ele>
        <time>2025-05-25T09:47:28Z</time>
      </trkpt>
      <trkpt lat="45.11129" lon="0.6328">
        <ele>208</ele>
        <time>2025-05-25T09:47:29Z</time>
      </trkpt>
      <trkpt lat="45.11131" lon="0.63284">
        <ele>208.2</ele>
        <time>2025-05-25T09:47:30Z</time>
      </trkpt>
      <trkpt lat="45.11133" lon="0.63289">
        <ele>208.6</ele>
        <time>2025-05-25T09:47:31Z</time>
      </trkpt>
      <trkpt lat="45.11135" lon="0.63294">
        <ele>208.8</ele>
        <time>2025-05-25T09:47:32Z</time>
      </trkpt>
      <trkpt lat="45.11137" lon="0.63299">
        <ele>209</ele>
        <time>2025-05-25T09:47:33Z</time>
      </trkpt>
      <trkpt lat="45.11138" lon="0.63305">
        <ele>209.2</ele>
        <time>2025-05-25T09:47:34Z</time>
      </trkpt>
      <trkpt lat="45.1114" lon="0.6331">
        <ele>209.2</ele>
        <time>2025-05-25T09:47:35Z</time>
      </trkpt>
      <trkpt lat="45.11141" lon="0.63315">
        <ele>209.4</ele>
        <time>2025-05-25T09:47:36Z</time>
      </trkpt>
      <trkpt lat="45.11142" lon="0.63321">
        <ele>209.4</ele>
        <time>2025-05-25T09:47:37Z</time>
      </trkpt>
      <trkpt lat="45.11143" lon="0.63326">
        <ele>209.6</ele>
        <time>2025-05-25T09:47:38Z</time>
      </trkpt>
      <trkpt lat="45.11143" lon="0.63332">
        <ele>209.6</ele>
        <time>2025-05-25T09:47:39Z</time>
      </trkpt>
      <trkpt lat="45.11144" lon="0.63338">
        <ele>209.6</ele>
        <time>2025-05-25T09:47:40Z</time>
      </trkpt>
      <trkpt lat="45.11145" lon="0.63343">
        <ele>209.8</ele>
        <time>2025-05-25T09:47:41Z</time>
      </trkpt>
      <trkpt lat="45.11145" lon="0.63349">
        <ele>209.8</ele>
        <time>2025-05-25T09:47:42Z</time>
      </trkpt>
      <trkpt lat="45.11145" lon="0.63354">
        <ele>209.8</ele>
        <time>2025-05-25T09:47:43Z</time>
      </trkpt>
      <trkpt lat="45.11145" lon="0.6336">
        <ele>209.8</ele>
        <time>2025-05-25T09:47:44Z</time>
      </trkpt>
      <trkpt lat="45.11145" lon="0.63366">
        <ele>209.8</ele>
        <time>2025-05-25T09:47:45Z</time>
      </trkpt>
      <trkpt lat="45.11146" lon="0.63372">
        <ele>209.8</ele>
        <time>2025-05-25T09:47:46Z</time>
      </trkpt>
      <trkpt lat="45.11146" lon="0.63379">
        <ele>209.8</ele>
        <time>2025-05-25T09:47:47Z</time>
      </trkpt>
      <trkpt lat="45.11146" lon="0.63385">
        <ele>209.6</ele>
        <time>2025-05-25T09:47:48Z</time>
      </trkpt>
      <trkpt lat="45.11146" lon="0.63391">
        <ele>209.6</ele>
        <time>2025-05-25T09:47:49Z</time>
      </trkpt>
      <trkpt lat="45.11145" lon="0.63397">
        <ele>209.6</ele>
        <time>2025-05-25T09:47:50Z</time>
      </trkpt>
      <trkpt lat="45.11145" lon="0.63403">
        <ele>209.4</ele>
        <time>2025-05-25T09:47:51Z</time>
      </trkpt>
      <trkpt lat="45.11146" lon="0.63409">
        <ele>209.4</ele>
        <time>2025-05-25T09:47:52Z</time>
      </trkpt>
      <trkpt lat="45.11146" lon="0.63416">
        <ele>209.4</ele>
        <time>2025-05-25T09:47:53Z</time>
      </trkpt>
      <trkpt lat="45.11149" lon="0.63421">
        <ele>209.4</ele>
        <time>2025-05-25T09:47:54Z</time>
      </trkpt>
      <trkpt lat="45.11152" lon="0.63425">
        <ele>209.4</ele>
        <time>2025-05-25T09:47:55Z</time>
      </trkpt>
      <trkpt lat="45.11155" lon="0.6343">
        <ele>209.4</ele>
        <time>2025-05-25T09:47:56Z</time>
      </trkpt>
      <trkpt lat="45.11159" lon="0.63436">
        <ele>209.2</ele>
        <time>2025-05-25T09:47:57Z</time>
      </trkpt>
      <trkpt lat="45.11164" lon="0.63441">
        <ele>208.8</ele>
        <time>2025-05-25T09:47:58Z</time>
      </trkpt>
      <trkpt lat="45.11169" lon="0.63446">
        <ele>208.4</ele>
        <time>2025-05-25T09:47:59Z</time>
      </trkpt>
      <trkpt lat="45.11175" lon="0.63451">
        <ele>207.4</ele>
        <time>2025-05-25T09:48:00Z</time>
      </trkpt>
      <trkpt lat="45.11182" lon="0.63457">
        <ele>206.4</ele>
        <time>2025-05-25T09:48:01Z</time>
      </trkpt>
      <trkpt lat="45.11188" lon="0.63463">
        <ele>205.4</ele>
        <time>2025-05-25T09:48:02Z</time>
      </trkpt>
      <trkpt lat="45.11195" lon="0.6347">
        <ele>204.6</ele>
        <time>2025-05-25T09:48:03Z</time>
      </trkpt>
      <trkpt lat="45.11201" lon="0.63477">
        <ele>204</ele>
        <time>2025-05-25T09:48:04Z</time>
      </trkpt>
      <trkpt lat="45.11207" lon="0.63484">
        <ele>203.4</ele>
        <time>2025-05-25T09:48:05Z</time>
      </trkpt>
      <trkpt lat="45.11214" lon="0.63492">
        <ele>202.8</ele>
        <time>2025-05-25T09:48:06Z</time>
      </trkpt>
      <trkpt lat="45.11221" lon="0.63498">
        <ele>202.2</ele>
        <time>2025-05-25T09:48:07Z</time>
      </trkpt>
      <trkpt lat="45.11229" lon="0.63503">
        <ele>201.6</ele>
        <time>2025-05-25T09:48:08Z</time>
      </trkpt>
      <trkpt lat="45.11236" lon="0.63508">
        <ele>201.4</ele>
        <time>2025-05-25T09:48:09Z</time>
      </trkpt>
      <trkpt lat="45.11243" lon="0.63514">
        <ele>200.8</ele>
        <time>2025-05-25T09:48:10Z</time>
      </trkpt>
      <trkpt lat="45.1125" lon="0.6352">
        <ele>200.4</ele>
        <time>2025-05-25T09:48:11Z</time>
      </trkpt>
      <trkpt lat="45.11256" lon="0.63526">
        <ele>200</ele>
        <time>2025-05-25T09:48:12Z</time>
      </trkpt>
      <trkpt lat="45.11262" lon="0.63531">
        <ele>200</ele>
        <time>2025-05-25T09:48:13Z</time>
      </trkpt>
      <trkpt lat="45.11267" lon="0.63536">
        <ele>200</ele>
        <time>2025-05-25T09:48:14Z</time>
      </trkpt>
      <trkpt lat="45.11272" lon="0.6354">
        <ele>200.2</ele>
        <time>2025-05-25T09:48:15Z</time>
      </trkpt>
      <trkpt lat="45.11277" lon="0.63545">
        <ele>200.4</ele>
        <time>2025-05-25T09:48:16Z</time>
      </trkpt>
      <trkpt lat="45.11282" lon="0.63549">
        <ele>200.8</ele>
        <time>2025-05-25T09:48:17Z</time>
      </trkpt>
      <trkpt lat="45.11287" lon="0.63553">
        <ele>201.6</ele>
        <time>2025-05-25T09:48:18Z</time>
      </trkpt>
      <trkpt lat="45.11292" lon="0.63555">
        <ele>202</ele>
        <time>2025-05-25T09:48:19Z</time>
      </trkpt>
      <trkpt lat="45.11296" lon="0.6356">
        <ele>202.2</ele>
        <time>2025-05-25T09:48:20Z</time>
      </trkpt>
      <trkpt lat="45.113" lon="0.63563">
        <ele>202.6</ele>
        <time>2025-05-25T09:48:21Z</time>
      </trkpt>
      <trkpt lat="45.11304" lon="0.63568">
        <ele>203</ele>
        <time>2025-05-25T09:48:22Z</time>
      </trkpt>
      <trkpt lat="45.11307" lon="0.63572">
        <ele>203.2</ele>
        <time>2025-05-25T09:48:23Z</time>
      </trkpt>
      <trkpt lat="45.11311" lon="0.63576">
        <ele>203.4</ele>
        <time>2025-05-25T09:48:24Z</time>
      </trkpt>
      <trkpt lat="45.11315" lon="0.63581">
        <ele>203.6</ele>
        <time>2025-05-25T09:48:25Z</time>
      </trkpt>
      <trkpt lat="45.11319" lon="0.63586">
        <ele>203.8</ele>
        <time>2025-05-25T09:48:26Z</time>
      </trkpt>
      <trkpt lat="45.11323" lon="0.6359">
        <ele>204</ele>
        <time>2025-05-25T09:48:27Z</time>
      </trkpt>
      <trkpt lat="45.11327" lon="0.63594">
        <ele>204</ele>
        <time>2025-05-25T09:48:28Z</time>
      </trkpt>
      <trkpt lat="45.11332" lon="0.63598">
        <ele>204</ele>
        <time>2025-05-25T09:48:29Z</time>
      </trkpt>
      <trkpt lat="45.11336" lon="0.63602">
        <ele>204.2</ele>
        <time>2025-05-25T09:48:30Z</time>
      </trkpt>
      <trkpt lat="45.1134" lon="0.63606">
        <ele>204.2</ele>
        <time>2025-05-25T09:48:31Z</time>
      </trkpt>
      <trkpt lat="45.11345" lon="0.6361">
        <ele>204.2</ele>
        <time>2025-05-25T09:48:32Z</time>
      </trkpt>
      <trkpt lat="45.1135" lon="0.63614">
        <ele>204.4</ele>
        <time>2025-05-25T09:48:33Z</time>
      </trkpt>
      <trkpt lat="45.11355" lon="0.63618">
        <ele>204.4</ele>
        <time>2025-05-25T09:48:34Z</time>
      </trkpt>
      <trkpt lat="45.11359" lon="0.63623">
        <ele>204.6</ele>
        <time>2025-05-25T09:48:35Z</time>
      </trkpt>
      <trkpt lat="45.11364" lon="0.63627">
        <ele>204.8</ele>
        <time>2025-05-25T09:48:36Z</time>
      </trkpt>
      <trkpt lat="45.11369" lon="0.63627">
        <ele>205</ele>
        <time>2025-05-25T09:48:37Z</time>
      </trkpt>
      <trkpt lat="45.11374" lon="0.63626">
        <ele>205</ele>
        <time>2025-05-25T09:48:38Z</time>
      </trkpt>
      <trkpt lat="45.11379" lon="0.63624">
        <ele>204.8</ele>
        <time>2025-05-25T09:48:39Z</time>
      </trkpt>
      <trkpt lat="45.11383" lon="0.63621">
        <ele>204.6</ele>
        <time>2025-05-25T09:48:40Z</time>
      </trkpt>
      <trkpt lat="45.11388" lon="0.63619">
        <ele>204.4</ele>
        <time>2025-05-25T09:48:41Z</time>
      </trkpt>
      <trkpt lat="45.11393" lon="0.63616">
        <ele>204.2</ele>
        <time>2025-05-25T09:48:42Z</time>
      </trkpt>
      <trkpt lat="45.11398" lon="0.63613">
        <ele>204</ele>
        <time>2025-05-25T09:48:43Z</time>
      </trkpt>
      <trkpt lat="45.11402" lon="0.6361">
        <ele>203.8</ele>
        <time>2025-05-25T09:48:44Z</time>
      </trkpt>
      <trkpt lat="45.11407" lon="0.63607">
        <ele>203.6</ele>
        <time>2025-05-25T09:48:45Z</time>
      </trkpt>
      <trkpt lat="45.11412" lon="0.63604">
        <ele>203.6</ele>
        <time>2025-05-25T09:48:46Z</time>
      </trkpt>
      <trkpt lat="45.11415" lon="0.63601">
        <ele>203.8</ele>
        <time>2025-05-25T09:48:47Z</time>
      </trkpt>
      <trkpt lat="45.11419" lon="0.63598">
        <ele>204</ele>
        <time>2025-05-25T09:48:48Z</time>
      </trkpt>
      <trkpt lat="45.11422" lon="0.63595">
        <ele>204.4</ele>
        <time>2025-05-25T09:48:49Z</time>
      </trkpt>
      <trkpt lat="45.11424" lon="0.63594">
        <ele>204.8</ele>
        <time>2025-05-25T09:48:50Z</time>
      </trkpt>
      <trkpt lat="45.11426" lon="0.63592">
        <ele>205.2</ele>
        <time>2025-05-25T09:48:51Z</time>
      </trkpt>
      <trkpt lat="45.11429" lon="0.6359">
        <ele>205.8</ele>
        <time>2025-05-25T09:48:52Z</time>
      </trkpt>
      <trkpt lat="45.11432" lon="0.63588">
        <ele>206</ele>
        <time>2025-05-25T09:48:53Z</time>
      </trkpt>
      <trkpt lat="45.11436" lon="0.63585">
        <ele>206.2</ele>
        <time>2025-05-25T09:48:54Z</time>
      </trkpt>
      <trkpt lat="45.1144" lon="0.63581">
        <ele>206.2</ele>
        <time>2025-05-25T09:48:55Z</time>
      </trkpt>
      <trkpt lat="45.11443" lon="0.63578">
        <ele>206.2</ele>
        <time>2025-05-25T09:48:56Z</time>
      </trkpt>
      <trkpt lat="45.11446" lon="0.63575">
        <ele>206</ele>
        <time>2025-05-25T09:48:57Z</time>
      </trkpt>
      <trkpt lat="45.1145" lon="0.63572">
        <ele>206</ele>
        <time>2025-05-25T09:48:58Z</time>
      </trkpt>
      <trkpt lat="45.11453" lon="0.63569">
        <ele>206</ele>
        <time>2025-05-25T09:48:59Z</time>
      </trkpt>
      <trkpt lat="45.11457" lon="0.63566">
        <ele>206</ele>
        <time>2025-05-25T09:49:00Z</time>
      </trkpt>
      <trkpt lat="45.1146" lon="0.63562">
        <ele>206</ele>
        <time>2025-05-25T09:49:01Z</time>
      </trkpt>
      <trkpt lat="45.11464" lon="0.63559">
        <ele>206</ele>
        <time>2025-05-25T09:49:02Z</time>
      </trkpt>
      <trkpt lat="45.11467" lon="0.63555">
        <ele>206.2</ele>
        <time>2025-05-25T09:49:03Z</time>
      </trkpt>
      <trkpt lat="45.11471" lon="0.63552">
        <ele>206.4</ele>
        <time>2025-05-25T09:49:04Z</time>
      </trkpt>
      <trkpt lat="45.11474" lon="0.63549">
        <ele>206.4</ele>
        <time>2025-05-25T09:49:05Z</time>
      </trkpt>
      <trkpt lat="45.11477" lon="0.63546">
        <ele>206.4</ele>
        <time>2025-05-25T09:49:06Z</time>
      </trkpt>
      <trkpt lat="45.1148" lon="0.63542">
        <ele>206.6</ele>
        <time>2025-05-25T09:49:07Z</time>
      </trkpt>
      <trkpt lat="45.11483" lon="0.63539">
        <ele>206.8</ele>
        <time>2025-05-25T09:49:08Z</time>
      </trkpt>
      <trkpt lat="45.11487" lon="0.63535">
        <ele>206.8</ele>
        <time>2025-05-25T09:49:09Z</time>
      </trkpt>
      <trkpt lat="45.1149" lon="0.63532">
        <ele>207</ele>
        <time>2025-05-25T09:49:10Z</time>
      </trkpt>
      <trkpt lat="45.11494" lon="0.63528">
        <ele>207.2</ele>
        <time>2025-05-25T09:49:11Z</time>
      </trkpt>
      <trkpt lat="45.11498" lon="0.63525">
        <ele>207.4</ele>
        <time>2025-05-25T09:49:12Z</time>
      </trkpt>
      <trkpt lat="45.11501" lon="0.63522">
        <ele>207.8</ele>
        <time>2025-05-25T09:49:13Z</time>
      </trkpt>
      <trkpt lat="45.11504" lon="0.63519">
        <ele>208</ele>
        <time>2025-05-25T09:49:14Z</time>
      </trkpt>
      <trkpt lat="45.11508" lon="0.63516">
        <ele>208.4</ele>
        <time>2025-05-25T09:49:15Z</time>
      </trkpt>
      <trkpt lat="45.11511" lon="0.63513">
        <ele>208.6</ele>
        <time>2025-05-25T09:49:16Z</time>
      </trkpt>
      <trkpt lat="45.11515" lon="0.6351">
        <ele>209</ele>
        <time>2025-05-25T09:49:17Z</time>
      </trkpt>
      <trkpt lat="45.11518" lon="0.63507">
        <ele>209.2</ele>
        <time>2025-05-25T09:49:18Z</time>
      </trkpt>
      <trkpt lat="45.11522" lon="0.63504">
        <ele>209.4</ele>
        <time>2025-05-25T09:49:19Z</time>
      </trkpt>
      <trkpt lat="45.11526" lon="0.63502">
        <ele>209.6</ele>
        <time>2025-05-25T09:49:20Z</time>
      </trkpt>
      <trkpt lat="45.11529" lon="0.63499">
        <ele>209.8</ele>
        <time>2025-05-25T09:49:21Z</time>
      </trkpt>
      <trkpt lat="45.11533" lon="0.63497">
        <ele>210</ele>
        <time>2025-05-25T09:49:22Z</time>
      </trkpt>
      <trkpt lat="45.11537" lon="0.63496">
        <ele>210.2</ele>
        <time>2025-05-25T09:49:23Z</time>
      </trkpt>
      <trkpt lat="45.11541" lon="0.63495">
        <ele>210.4</ele>
        <time>2025-05-25T09:49:24Z</time>
      </trkpt>
      <trkpt lat="45.11544" lon="0.63493">
        <ele>210.8</ele>
        <time>2025-05-25T09:49:25Z</time>
      </trkpt>
      <trkpt lat="45.11547" lon="0.63492">
        <ele>211</ele>
        <time>2025-05-25T09:49:26Z</time>
      </trkpt>
      <trkpt lat="45.11551" lon="0.63491">
        <ele>211.2</ele>
        <time>2025-05-25T09:49:27Z</time>
      </trkpt>
      <trkpt lat="45.11554" lon="0.6349">
        <ele>211.4</ele>
        <time>2025-05-25T09:49:28Z</time>
      </trkpt>
      <trkpt lat="45.11557" lon="0.63489">
        <ele>211.4</ele>
        <time>2025-05-25T09:49:29Z</time>
      </trkpt>
      <trkpt lat="45.1156" lon="0.63488">
        <ele>211.6</ele>
        <time>2025-05-25T09:49:30Z</time>
      </trkpt>
      <trkpt lat="45.11563" lon="0.63487">
        <ele>211.8</ele>
        <time>2025-05-25T09:49:31Z</time>
      </trkpt>
      <trkpt lat="45.11565" lon="0.63486">
        <ele>212</ele>
        <time>2025-05-25T09:49:32Z</time>
      </trkpt>
      <trkpt lat="45.11568" lon="0.63485">
        <ele>212.2</ele>
        <time>2025-05-25T09:49:33Z</time>
      </trkpt>
      <trkpt lat="45.1157" lon="0.63484">
        <ele>212.4</ele>
        <time>2025-05-25T09:49:34Z</time>
      </trkpt>
      <trkpt lat="45.11572" lon="0.63484">
        <ele>212.6</ele>
        <time>2025-05-25T09:49:35Z</time>
      </trkpt>
      <trkpt lat="45.11574" lon="0.63482">
        <ele>212.8</ele>
        <time>2025-05-25T09:49:36Z</time>
      </trkpt>
      <trkpt lat="45.11577" lon="0.63481">
        <ele>213</ele>
        <time>2025-05-25T09:49:37Z</time>
      </trkpt>
      <trkpt lat="45.11579" lon="0.6348">
        <ele>213.2</ele>
        <time>2025-05-25T09:49:38Z</time>
      </trkpt>
      <trkpt lat="45.11582" lon="0.63479">
        <ele>213.2</ele>
        <time>2025-05-25T09:49:39Z</time>
      </trkpt>
      <trkpt lat="45.11584" lon="0.63477">
        <ele>213.4</ele>
        <time>2025-05-25T09:49:40Z</time>
      </trkpt>
      <trkpt lat="45.11587" lon="0.63476">
        <ele>213.4</ele>
        <time>2025-05-25T09:49:41Z</time>
      </trkpt>
      <trkpt lat="45.1159" lon="0.63475">
        <ele>213.6</ele>
        <time>2025-05-25T09:49:42Z</time>
      </trkpt>
      <trkpt lat="45.11593" lon="0.63474">
        <ele>213.8</ele>
        <time>2025-05-25T09:49:43Z</time>
      </trkpt>
      <trkpt lat="45.11597" lon="0.63473">
        <ele>213.8</ele>
        <time>2025-05-25T09:49:44Z</time>
      </trkpt>
      <trkpt lat="45.116" lon="0.63472">
        <ele>214</ele>
        <time>2025-05-25T09:49:45Z</time>
      </trkpt>
      <trkpt lat="45.11604" lon="0.63471">
        <ele>214.2</ele>
        <time>2025-05-25T09:49:46Z</time>
      </trkpt>
      <trkpt lat="45.11606" lon="0.6347">
        <ele>214.6</ele>
        <time>2025-05-25T09:49:47Z</time>
      </trkpt>
      <trkpt lat="45.11609" lon="0.63468">
        <ele>214.8</ele>
        <time>2025-05-25T09:49:48Z</time>
      </trkpt>
      <trkpt lat="45.11612" lon="0.63467">
        <ele>215</ele>
        <time>2025-05-25T09:49:49Z</time>
      </trkpt>
      <trkpt lat="45.11615" lon="0.63466">
        <ele>215.2</ele>
        <time>2025-05-25T09:49:50Z</time>
      </trkpt>
      <trkpt lat="45.11618" lon="0.63466">
        <ele>215.4</ele>
        <time>2025-05-25T09:49:51Z</time>
      </trkpt>
      <trkpt lat="45.11622" lon="0.63465">
        <ele>215.6</ele>
        <time>2025-05-25T09:49:52Z</time>
      </trkpt>
      <trkpt lat="45.11625" lon="0.63463">
        <ele>216</ele>
        <time>2025-05-25T09:49:53Z</time>
      </trkpt>
      <trkpt lat="45.11628" lon="0.63461">
        <ele>216</ele>
        <time>2025-05-25T09:49:54Z</time>
      </trkpt>
      <trkpt lat="45.11631" lon="0.6346">
        <ele>216.2</ele>
        <time>2025-05-25T09:49:55Z</time>
      </trkpt>
      <trkpt lat="45.11635" lon="0.63458">
        <ele>216.4</ele>
        <time>2025-05-25T09:49:56Z</time>
      </trkpt>
      <trkpt lat="45.11638" lon="0.63457">
        <ele>216.6</ele>
        <time>2025-05-25T09:49:57Z</time>
      </trkpt>
      <trkpt lat="45.11642" lon="0.63455">
        <ele>216.8</ele>
        <time>2025-05-25T09:49:58Z</time>
      </trkpt>
      <trkpt lat="45.11645" lon="0.63455">
        <ele>217</ele>
        <time>2025-05-25T09:49:59Z</time>
      </trkpt>
      <trkpt lat="45.11648" lon="0.63452">
        <ele>217.2</ele>
        <time>2025-05-25T09:50:00Z</time>
      </trkpt>
      <trkpt lat="45.11652" lon="0.63451">
        <ele>217.2</ele>
        <time>2025-05-25T09:50:01Z</time>
      </trkpt>
      <trkpt lat="45.11656" lon="0.63449">
        <ele>217.4</ele>
        <time>2025-05-25T09:50:02Z</time>
      </trkpt>
      <trkpt lat="45.11659" lon="0.63448">
        <ele>217.4</ele>
        <time>2025-05-25T09:50:03Z</time>
      </trkpt>
      <trkpt lat="45.11663" lon="0.63446">
        <ele>217.6</ele>
        <time>2025-05-25T09:50:04Z</time>
      </trkpt>
      <trkpt lat="45.11667" lon="0.63445">
        <ele>217.8</ele>
        <time>2025-05-25T09:50:05Z</time>
      </trkpt>
      <trkpt lat="45.1167" lon="0.63443">
        <ele>217.8</ele>
        <time>2025-05-25T09:50:06Z</time>
      </trkpt>
      <trkpt lat="45.11674" lon="0.63442">
        <ele>217.8</ele>
        <time>2025-05-25T09:50:07Z</time>
      </trkpt>
      <trkpt lat="45.11678" lon="0.63441">
        <ele>218</ele>
        <time>2025-05-25T09:50:08Z</time>
      </trkpt>
      <trkpt lat="45.11682" lon="0.63441">
        <ele>218</ele>
        <time>2025-05-25T09:50:09Z</time>
      </trkpt>
      <trkpt lat="45.11685" lon="0.63442">
        <ele>218.2</ele>
        <time>2025-05-25T09:50:10Z</time>
      </trkpt>
      <trkpt lat="45.11688" lon="0.63443">
        <ele>218.2</ele>
        <time>2025-05-25T09:50:11Z</time>
      </trkpt>
      <trkpt lat="45.1169" lon="0.63445">
        <ele>218.4</ele>
        <time>2025-05-25T09:50:12Z</time>
      </trkpt>
      <trkpt lat="45.11693" lon="0.63448">
        <ele>218.6</ele>
        <time>2025-05-25T09:50:13Z</time>
      </trkpt>
      <trkpt lat="45.11694" lon="0.63452">
        <ele>218.6</ele>
        <time>2025-05-25T09:50:14Z</time>
      </trkpt>
      <trkpt lat="45.11696" lon="0.63457">
        <ele>218.6</ele>
        <time>2025-05-25T09:50:15Z</time>
      </trkpt>
      <trkpt lat="45.11698" lon="0.63461">
        <ele>218.8</ele>
        <time>2025-05-25T09:50:16Z</time>
      </trkpt>
      <trkpt lat="45.117" lon="0.63467">
        <ele>218.8</ele>
        <time>2025-05-25T09:50:17Z</time>
      </trkpt>
      <trkpt lat="45.11702" lon="0.63472">
        <ele>218.6</ele>
        <time>2025-05-25T09:50:18Z</time>
      </trkpt>
      <trkpt lat="45.11705" lon="0.63478">
        <ele>218.6</ele>
        <time>2025-05-25T09:50:19Z</time>
      </trkpt>
      <trkpt lat="45.11706" lon="0.63484">
        <ele>218.6</ele>
        <time>2025-05-25T09:50:20Z</time>
      </trkpt>
      <trkpt lat="45.11708" lon="0.6349">
        <ele>218.6</ele>
        <time>2025-05-25T09:50:21Z</time>
      </trkpt>
      <trkpt lat="45.11709" lon="0.63497">
        <ele>218.6</ele>
        <time>2025-05-25T09:50:22Z</time>
      </trkpt>
      <trkpt lat="45.1171" lon="0.63504">
        <ele>218.4</ele>
        <time>2025-05-25T09:50:23Z</time>
      </trkpt>
      <trkpt lat="45.1171" lon="0.63512">
        <ele>218.2</ele>
        <time>2025-05-25T09:50:24Z</time>
      </trkpt>
      <trkpt lat="45.11711" lon="0.63519">
        <ele>218</ele>
        <time>2025-05-25T09:50:25Z</time>
      </trkpt>
      <trkpt lat="45.11712" lon="0.63526">
        <ele>217.8</ele>
        <time>2025-05-25T09:50:26Z</time>
      </trkpt>
      <trkpt lat="45.11713" lon="0.63533">
        <ele>217.6</ele>
        <time>2025-05-25T09:50:27Z</time>
      </trkpt>
      <trkpt lat="45.11716" lon="0.63541">
        <ele>217.6</ele>
        <time>2025-05-25T09:50:28Z</time>
      </trkpt>
      <trkpt lat="45.11719" lon="0.63548">
        <ele>217.4</ele>
        <time>2025-05-25T09:50:29Z</time>
      </trkpt>
      <trkpt lat="45.11721" lon="0.63555">
        <ele>217.4</ele>
        <time>2025-05-25T09:50:30Z</time>
      </trkpt>
      <trkpt lat="45.11722" lon="0.63562">
        <ele>217.2</ele>
        <time>2025-05-25T09:50:31Z</time>
      </trkpt>
      <trkpt lat="45.11723" lon="0.6357">
        <ele>217.2</ele>
        <time>2025-05-25T09:50:32Z</time>
      </trkpt>
      <trkpt lat="45.11723" lon="0.63577">
        <ele>217.2</ele>
        <time>2025-05-25T09:50:33Z</time>
      </trkpt>
      <trkpt lat="45.11724" lon="0.63584">
        <ele>217.2</ele>
        <time>2025-05-25T09:50:34Z</time>
      </trkpt>
      <trkpt lat="45.11726" lon="0.63592">
        <ele>217.2</ele>
        <time>2025-05-25T09:50:35Z</time>
      </trkpt>
      <trkpt lat="45.11729" lon="0.636">
        <ele>217</ele>
        <time>2025-05-25T09:50:36Z</time>
      </trkpt>
      <trkpt lat="45.1173" lon="0.63609">
        <ele>216.8</ele>
        <time>2025-05-25T09:50:37Z</time>
      </trkpt>
      <trkpt lat="45.1173" lon="0.63618">
        <ele>216.2</ele>
        <time>2025-05-25T09:50:38Z</time>
      </trkpt>
      <trkpt lat="45.11728" lon="0.63627">
        <ele>215.8</ele>
        <time>2025-05-25T09:50:39Z</time>
      </trkpt>
      <trkpt lat="45.11728" lon="0.63636">
        <ele>215.2</ele>
        <time>2025-05-25T09:50:40Z</time>
      </trkpt>
      <trkpt lat="45.11728" lon="0.63647">
        <ele>214.8</ele>
        <time>2025-05-25T09:50:41Z</time>
      </trkpt>
      <trkpt lat="45.11728" lon="0.63657">
        <ele>214.8</ele>
        <time>2025-05-25T09:50:42Z</time>
      </trkpt>
      <trkpt lat="45.11726" lon="0.63666">
        <ele>214.6</ele>
        <time>2025-05-25T09:50:43Z</time>
      </trkpt>
      <trkpt lat="45.11725" lon="0.63673">
        <ele>214.8</ele>
        <time>2025-05-25T09:50:44Z</time>
      </trkpt>
      <trkpt lat="45.11724" lon="0.63679">
        <ele>215</ele>
        <time>2025-05-25T09:50:45Z</time>
      </trkpt>
      <trkpt lat="45.11724" lon="0.63685">
        <ele>215.2</ele>
        <time>2025-05-25T09:50:46Z</time>
      </trkpt>
      <trkpt lat="45.11725" lon="0.63691">
        <ele>215.4</ele>
        <time>2025-05-25T09:50:47Z</time>
      </trkpt>
      <trkpt lat="45.11725" lon="0.63697">
        <ele>215.6</ele>
        <time>2025-05-25T09:50:48Z</time>
      </trkpt>
      <trkpt lat="45.11726" lon="0.63703">
        <ele>216</ele>
        <time>2025-05-25T09:50:49Z</time>
      </trkpt>
      <trkpt lat="45.11725" lon="0.6371">
        <ele>216.2</ele>
        <time>2025-05-25T09:50:50Z</time>
      </trkpt>
      <trkpt lat="45.11723" lon="0.63716">
        <ele>216.4</ele>
        <time>2025-05-25T09:50:51Z</time>
      </trkpt>
      <trkpt lat="45.11721" lon="0.63724">
        <ele>216.6</ele>
        <time>2025-05-25T09:50:52Z</time>
      </trkpt>
      <trkpt lat="45.1172" lon="0.63731">
        <ele>216.6</ele>
        <time>2025-05-25T09:50:53Z</time>
      </trkpt>
      <trkpt lat="45.11718" lon="0.63739">
        <ele>216.8</ele>
        <time>2025-05-25T09:50:54Z</time>
      </trkpt>
      <trkpt lat="45.11717" lon="0.63747">
        <ele>217</ele>
        <time>2025-05-25T09:50:55Z</time>
      </trkpt>
      <trkpt lat="45.11715" lon="0.63756">
        <ele>217</ele>
        <time>2025-05-25T09:50:56Z</time>
      </trkpt>
      <trkpt lat="45.11713" lon="0.63764">
        <ele>217</ele>
        <time>2025-05-25T09:50:57Z</time>
      </trkpt>
      <trkpt lat="45.11712" lon="0.63773">
        <ele>217</ele>
        <time>2025-05-25T09:50:58Z</time>
      </trkpt>
      <trkpt lat="45.1171" lon="0.63781">
        <ele>217</ele>
        <time>2025-05-25T09:50:59Z</time>
      </trkpt>
      <trkpt lat="45.11708" lon="0.6379">
        <ele>216.8</ele>
        <time>2025-05-25T09:51:00Z</time>
      </trkpt>
      <trkpt lat="45.11706" lon="0.63798">
        <ele>216.6</ele>
        <time>2025-05-25T09:51:01Z</time>
      </trkpt>
      <trkpt lat="45.11705" lon="0.63805">
        <ele>216.6</ele>
        <time>2025-05-25T09:51:02Z</time>
      </trkpt>
      <trkpt lat="45.11704" lon="0.6381">
        <ele>216.6</ele>
        <time>2025-05-25T09:51:03Z</time>
      </trkpt>
      <trkpt lat="45.11704" lon="0.63814">
        <ele>216.8</ele>
        <time>2025-05-25T09:51:04Z</time>
      </trkpt>
      <trkpt lat="45.11705" lon="0.63818">
        <ele>217</ele>
        <time>2025-05-25T09:51:05Z</time>
      </trkpt>
      <trkpt lat="45.11707" lon="0.63821">
        <ele>217.2</ele>
        <time>2025-05-25T09:51:06Z</time>
      </trkpt>
      <trkpt lat="45.1171" lon="0.63823">
        <ele>217.6</ele>
        <time>2025-05-25T09:51:07Z</time>
      </trkpt>
      <trkpt lat="45.11714" lon="0.63825">
        <ele>217.8</ele>
        <time>2025-05-25T09:51:08Z</time>
      </trkpt>
      <trkpt lat="45.11717" lon="0.63828">
        <ele>218</ele>
        <time>2025-05-25T09:51:09Z</time>
      </trkpt>
      <trkpt lat="45.11722" lon="0.6383">
        <ele>218</ele>
        <time>2025-05-25T09:51:10Z</time>
      </trkpt>
      <trkpt lat="45.11727" lon="0.63832">
        <ele>218.2</ele>
        <time>2025-05-25T09:51:11Z</time>
      </trkpt>
      <trkpt lat="45.11731" lon="0.63835">
        <ele>218.2</ele>
        <time>2025-05-25T09:51:12Z</time>
      </trkpt>
      <trkpt lat="45.11735" lon="0.63837">
        <ele>218.4</ele>
        <time>2025-05-25T09:51:13Z</time>
      </trkpt>
      <trkpt lat="45.11739" lon="0.63839">
        <ele>218.4</ele>
        <time>2025-05-25T09:51:14Z</time>
      </trkpt>
      <trkpt lat="45.11744" lon="0.63841">
        <ele>218.4</ele>
        <time>2025-05-25T09:51:15Z</time>
      </trkpt>
      <trkpt lat="45.11748" lon="0.63844">
        <ele>218.6</ele>
        <time>2025-05-25T09:51:16Z</time>
      </trkpt>
      <trkpt lat="45.11752" lon="0.63845">
        <ele>218.6</ele>
        <time>2025-05-25T09:51:17Z</time>
      </trkpt>
      <trkpt lat="45.11756" lon="0.63847">
        <ele>218.8</ele>
        <time>2025-05-25T09:51:18Z</time>
      </trkpt>
      <trkpt lat="45.1176" lon="0.63849">
        <ele>218.8</ele>
        <time>2025-05-25T09:51:19Z</time>
      </trkpt>
      <trkpt lat="45.11762" lon="0.63851">
        <ele>219</ele>
        <time>2025-05-25T09:51:20Z</time>
      </trkpt>
      <trkpt lat="45.11763" lon="0.63854">
        <ele>219.4</ele>
        <time>2025-05-25T09:51:21Z</time>
      </trkpt>
      <trkpt lat="45.11762" lon="0.63855">
        <ele>219.8</ele>
        <time>2025-05-25T09:51:22Z</time>
      </trkpt>
      <trkpt lat="45.11761" lon="0.63855">
        <ele>220</ele>
        <time>2025-05-25T09:51:23Z</time>
      </trkpt>
      <trkpt lat="45.11758" lon="0.63856">
        <ele>220.2</ele>
        <time>2025-05-25T09:51:24Z</time>
      </trkpt>
      <trkpt lat="45.11756" lon="0.63857">
        <ele>220.4</ele>
        <time>2025-05-25T09:51:25Z</time>
      </trkpt>
      <trkpt lat="45.11753" lon="0.6386">
        <ele>220.4</ele>
        <time>2025-05-25T09:51:26Z</time>
      </trkpt>
      <trkpt lat="45.11749" lon="0.63863">
        <ele>220.4</ele>
        <time>2025-05-25T09:51:27Z</time>
      </trkpt>
      <trkpt lat="45.11745" lon="0.63866">
        <ele>220.4</ele>
        <time>2025-05-25T09:51:28Z</time>
      </trkpt>
      <trkpt lat="45.11741" lon="0.6387">
        <ele>220.2</ele>
        <time>2025-05-25T09:51:29Z</time>
      </trkpt>
      <trkpt lat="45.11736" lon="0.63875">
        <ele>220</ele>
        <time>2025-05-25T09:51:30Z</time>
      </trkpt>
      <trkpt lat="45.11731" lon="0.6388">
        <ele>219.8</ele>
        <time>2025-05-25T09:51:31Z</time>
      </trkpt>
      <trkpt lat="45.11726" lon="0.63885">
        <ele>219.4</ele>
        <time>2025-05-25T09:51:32Z</time>
      </trkpt>
      <trkpt lat="45.11722" lon="0.63891">
        <ele>219</ele>
        <time>2025-05-25T09:51:33Z</time>
      </trkpt>
      <trkpt lat="45.11718" lon="0.63897">
        <ele>218.8</ele>
        <time>2025-05-25T09:51:34Z</time>
      </trkpt>
      <trkpt lat="45.11714" lon="0.63904">
        <ele>218.6</ele>
        <time>2025-05-25T09:51:35Z</time>
      </trkpt>
      <trkpt lat="45.1171" lon="0.6391">
        <ele>218.4</ele>
        <time>2025-05-25T09:51:36Z</time>
      </trkpt>
      <trkpt lat="45.11706" lon="0.63917">
        <ele>218.4</ele>
        <time>2025-05-25T09:51:37Z</time>
      </trkpt>
      <trkpt lat="45.11702" lon="0.63924">
        <ele>218.2</ele>
        <time>2025-05-25T09:51:38Z</time>
      </trkpt>
      <trkpt lat="45.11699" lon="0.63929">
        <ele>218</ele>
        <time>2025-05-25T09:51:39Z</time>
      </trkpt>
      <trkpt lat="45.11697" lon="0.63932">
        <ele>218</ele>
        <time>2025-05-25T09:51:40Z</time>
      </trkpt>
      <trkpt lat="45.11695" lon="0.63934">
        <ele>218.2</ele>
        <time>2025-05-25T09:51:41Z</time>
      </trkpt>
      <trkpt lat="45.11694" lon="0.63935">
        <ele>218.4</ele>
        <time>2025-05-25T09:51:42Z</time>
      </trkpt>
      <trkpt lat="45.11694" lon="0.63938">
        <ele>218.6</ele>
        <time>2025-05-25T09:51:43Z</time>
      </trkpt>
      <trkpt lat="45.11695" lon="0.63941">
        <ele>218.8</ele>
        <time>2025-05-25T09:51:44Z</time>
      </trkpt>
      <trkpt lat="45.11697" lon="0.63945">
        <ele>219</ele>
        <time>2025-05-25T09:51:45Z</time>
      </trkpt>
      <trkpt lat="45.11699" lon="0.63949">
        <ele>219</ele>
        <time>2025-05-25T09:51:46Z</time>
      </trkpt>
      <trkpt lat="45.11702" lon="0.63954">
        <ele>218.8</ele>
        <time>2025-05-25T09:51:47Z</time>
      </trkpt>
      <trkpt lat="45.11704" lon="0.63961">
        <ele>218.6</ele>
        <time>2025-05-25T09:51:48Z</time>
      </trkpt>
      <trkpt lat="45.11706" lon="0.63969">
        <ele>218.4</ele>
        <time>2025-05-25T09:51:49Z</time>
      </trkpt>
      <trkpt lat="45.11708" lon="0.63977">
        <ele>218</ele>
        <time>2025-05-25T09:51:50Z</time>
      </trkpt>
      <trkpt lat="45.11708" lon="0.63986">
        <ele>217.6</ele>
        <time>2025-05-25T09:51:51Z</time>
      </trkpt>
      <trkpt lat="45.11708" lon="0.63995">
        <ele>217.2</ele>
        <time>2025-05-25T09:51:52Z</time>
      </trkpt>
      <trkpt lat="45.11708" lon="0.64004">
        <ele>216.6</ele>
        <time>2025-05-25T09:51:53Z</time>
      </trkpt>
      <trkpt lat="45.11708" lon="0.64015">
        <ele>216.2</ele>
        <time>2025-05-25T09:51:54Z</time>
      </trkpt>
      <trkpt lat="45.11709" lon="0.64025">
        <ele>215.8</ele>
        <time>2025-05-25T09:51:55Z</time>
      </trkpt>
      <trkpt lat="45.11709" lon="0.64034">
        <ele>215.6</ele>
        <time>2025-05-25T09:51:56Z</time>
      </trkpt>
      <trkpt lat="45.11711" lon="0.64041">
        <ele>215.4</ele>
        <time>2025-05-25T09:51:57Z</time>
      </trkpt>
      <trkpt lat="45.11712" lon="0.64048">
        <ele>215.2</ele>
        <time>2025-05-25T09:51:58Z</time>
      </trkpt>
      <trkpt lat="45.11712" lon="0.64056">
        <ele>215.2</ele>
        <time>2025-05-25T09:51:59Z</time>
      </trkpt>
      <trkpt lat="45.11712" lon="0.64065">
        <ele>215.2</ele>
        <time>2025-05-25T09:52:00Z</time>
      </trkpt>
      <trkpt lat="45.11712" lon="0.64074">
        <ele>215.4</ele>
        <time>2025-05-25T09:52:01Z</time>
      </trkpt>
      <trkpt lat="45.11712" lon="0.64083">
        <ele>215.4</ele>
        <time>2025-05-25T09:52:02Z</time>
      </trkpt>
      <trkpt lat="45.11712" lon="0.64091">
        <ele>215.2</ele>
        <time>2025-05-25T09:52:03Z</time>
      </trkpt>
      <trkpt lat="45.11712" lon="0.641">
        <ele>215.2</ele>
        <time>2025-05-25T09:52:04Z</time>
      </trkpt>
      <trkpt lat="45.11712" lon="0.64107">
        <ele>215</ele>
        <time>2025-05-25T09:52:05Z</time>
      </trkpt>
      <trkpt lat="45.11712" lon="0.64115">
        <ele>215</ele>
        <time>2025-05-25T09:52:06Z</time>
      </trkpt>
      <trkpt lat="45.11712" lon="0.64123">
        <ele>214.8</ele>
        <time>2025-05-25T09:52:07Z</time>
      </trkpt>
      <trkpt lat="45.11711" lon="0.64131">
        <ele>214.6</ele>
        <time>2025-05-25T09:52:08Z</time>
      </trkpt>
      <trkpt lat="45.11709" lon="0.64139">
        <ele>214.6</ele>
        <time>2025-05-25T09:52:09Z</time>
      </trkpt>
      <trkpt lat="45.11707" lon="0.64147">
        <ele>214.6</ele>
        <time>2025-05-25T09:52:10Z</time>
      </trkpt>
      <trkpt lat="45.11705" lon="0.64155">
        <ele>214.6</ele>
        <time>2025-05-25T09:52:11Z</time>
      </trkpt>
      <trkpt lat="45.11704" lon="0.64163">
        <ele>214.8</ele>
        <time>2025-05-25T09:52:12Z</time>
      </trkpt>
      <trkpt lat="45.11702" lon="0.64171">
        <ele>214.8</ele>
        <time>2025-05-25T09:52:13Z</time>
      </trkpt>
      <trkpt lat="45.11701" lon="0.6418">
        <ele>214.8</ele>
        <time>2025-05-25T09:52:14Z</time>
      </trkpt>
      <trkpt lat="45.11699" lon="0.64188">
        <ele>214.8</ele>
        <time>2025-05-25T09:52:15Z</time>
      </trkpt>
      <trkpt lat="45.11697" lon="0.64196">
        <ele>214.8</ele>
        <time>2025-05-25T09:52:16Z</time>
      </trkpt>
      <trkpt lat="45.11696" lon="0.64204">
        <ele>214.8</ele>
        <time>2025-05-25T09:52:17Z</time>
      </trkpt>
      <trkpt lat="45.11694" lon="0.64213">
        <ele>214.8</ele>
        <time>2025-05-25T09:52:18Z</time>
      </trkpt>
      <trkpt lat="45.11694" lon="0.64222">
        <ele>214.8</ele>
        <time>2025-05-25T09:52:19Z</time>
      </trkpt>
      <trkpt lat="45.11694" lon="0.64231">
        <ele>214.8</ele>
        <time>2025-05-25T09:52:20Z</time>
      </trkpt>
      <trkpt lat="45.11695" lon="0.64241">
        <ele>214.6</ele>
        <time>2025-05-25T09:52:21Z</time>
      </trkpt>
      <trkpt lat="45.11697" lon="0.64249">
        <ele>214.6</ele>
        <time>2025-05-25T09:52:22Z</time>
      </trkpt>
      <trkpt lat="45.11699" lon="0.64258">
        <ele>214.4</ele>
        <time>2025-05-25T09:52:23Z</time>
      </trkpt>
      <trkpt lat="45.11701" lon="0.64265">
        <ele>214.4</ele>
        <time>2025-05-25T09:52:24Z</time>
      </trkpt>
      <trkpt lat="45.11704" lon="0.64273">
        <ele>214.4</ele>
        <time>2025-05-25T09:52:25Z</time>
      </trkpt>
      <trkpt lat="45.11707" lon="0.6428">
        <ele>214.6</ele>
        <time>2025-05-25T09:52:26Z</time>
      </trkpt>
      <trkpt lat="45.11711" lon="0.64288">
        <ele>214.6</ele>
        <time>2025-05-25T09:52:27Z</time>
      </trkpt>
      <trkpt lat="45.11714" lon="0.64295">
        <ele>214.6</ele>
        <time>2025-05-25T09:52:28Z</time>
      </trkpt>
      <trkpt lat="45.11718" lon="0.64302">
        <ele>214.6</ele>
        <time>2025-05-25T09:52:29Z</time>
      </trkpt>
      <trkpt lat="45.11722" lon="0.64309">
        <ele>214.6</ele>
        <time>2025-05-25T09:52:30Z</time>
      </trkpt>
      <trkpt lat="45.11725" lon="0.64316">
        <ele>214.4</ele>
        <time>2025-05-25T09:52:31Z</time>
      </trkpt>
      <trkpt lat="45.11729" lon="0.64324">
        <ele>214.4</ele>
        <time>2025-05-25T09:52:32Z</time>
      </trkpt>
      <trkpt lat="45.11733" lon="0.64332">
        <ele>214.4</ele>
        <time>2025-05-25T09:52:33Z</time>
      </trkpt>
      <trkpt lat="45.11737" lon="0.64339">
        <ele>214.4</ele>
        <time>2025-05-25T09:52:34Z</time>
      </trkpt>
      <trkpt lat="45.11741" lon="0.64346">
        <ele>214.4</ele>
        <time>2025-05-25T09:52:35Z</time>
      </trkpt>
      <trkpt lat="45.11744" lon="0.64353">
        <ele>214.6</ele>
        <time>2025-05-25T09:52:36Z</time>
      </trkpt>
      <trkpt lat="45.11747" lon="0.6436">
        <ele>214.6</ele>
        <time>2025-05-25T09:52:37Z</time>
      </trkpt>
      <trkpt lat="45.11751" lon="0.64368">
        <ele>214.6</ele>
        <time>2025-05-25T09:52:38Z</time>
      </trkpt>
      <trkpt lat="45.11754" lon="0.64377">
        <ele>214.8</ele>
        <time>2025-05-25T09:52:39Z</time>
      </trkpt>
      <trkpt lat="45.11757" lon="0.64384">
        <ele>214.8</ele>
        <time>2025-05-25T09:52:40Z</time>
      </trkpt>
      <trkpt lat="45.11759" lon="0.64388">
        <ele>215</ele>
        <time>2025-05-25T09:52:41Z</time>
      </trkpt>
      <trkpt lat="45.11761" lon="0.64391">
        <ele>215.2</ele>
        <time>2025-05-25T09:52:42Z</time>
      </trkpt>
      <trkpt lat="45.11762" lon="0.64392">
        <ele>215.4</ele>
        <time>2025-05-25T09:52:43Z</time>
      </trkpt>
      <trkpt lat="45.11764" lon="0.64394">
        <ele>215.4</ele>
        <time>2025-05-25T09:52:44Z</time>
      </trkpt>
      <trkpt lat="45.11766" lon="0.64397">
        <ele>215.6</ele>
        <time>2025-05-25T09:52:45Z</time>
      </trkpt>
      <trkpt lat="45.11769" lon="0.64401">
        <ele>215.4</ele>
        <time>2025-05-25T09:52:46Z</time>
      </trkpt>
      <trkpt lat="45.11773" lon="0.64405">
        <ele>215.2</ele>
        <time>2025-05-25T09:52:47Z</time>
      </trkpt>
      <trkpt lat="45.11777" lon="0.64409">
        <ele>215.2</ele>
        <time>2025-05-25T09:52:48Z</time>
      </trkpt>
      <trkpt lat="45.11782" lon="0.64414">
        <ele>215</ele>
        <time>2025-05-25T09:52:49Z</time>
      </trkpt>
      <trkpt lat="45.11787" lon="0.64418">
        <ele>214.8</ele>
        <time>2025-05-25T09:52:50Z</time>
      </trkpt>
      <trkpt lat="45.11792" lon="0.64422">
        <ele>214.4</ele>
        <time>2025-05-25T09:52:51Z</time>
      </trkpt>
      <trkpt lat="45.11798" lon="0.64424">
        <ele>214</ele>
        <time>2025-05-25T09:52:52Z</time>
      </trkpt>
      <trkpt lat="45.11803" lon="0.64427">
        <ele>213.8</ele>
        <time>2025-05-25T09:52:53Z</time>
      </trkpt>
      <trkpt lat="45.11809" lon="0.6443">
        <ele>213.4</ele>
        <time>2025-05-25T09:52:54Z</time>
      </trkpt>
      <trkpt lat="45.11814" lon="0.64434">
        <ele>213.2</ele>
        <time>2025-05-25T09:52:55Z</time>
      </trkpt>
      <trkpt lat="45.11821" lon="0.64439">
        <ele>213.2</ele>
        <time>2025-05-25T09:52:56Z</time>
      </trkpt>
      <trkpt lat="45.11828" lon="0.64443">
        <ele>213</ele>
        <time>2025-05-25T09:52:57Z</time>
      </trkpt>
      <trkpt lat="45.11835" lon="0.64446">
        <ele>213</ele>
        <time>2025-05-25T09:52:58Z</time>
      </trkpt>
      <trkpt lat="45.11842" lon="0.6445">
        <ele>212.8</ele>
        <time>2025-05-25T09:52:59Z</time>
      </trkpt>
      <trkpt lat="45.11849" lon="0.64454">
        <ele>212.6</ele>
        <time>2025-05-25T09:53:00Z</time>
      </trkpt>
      <trkpt lat="45.11855" lon="0.64457">
        <ele>212.4</ele>
        <time>2025-05-25T09:53:01Z</time>
      </trkpt>
      <trkpt lat="45.11862" lon="0.6446">
        <ele>212.4</ele>
        <time>2025-05-25T09:53:02Z</time>
      </trkpt>
      <trkpt lat="45.11869" lon="0.64463">
        <ele>212.4</ele>
        <time>2025-05-25T09:53:03Z</time>
      </trkpt>
      <trkpt lat="45.11876" lon="0.64466">
        <ele>212.4</ele>
        <time>2025-05-25T09:53:04Z</time>
      </trkpt>
      <trkpt lat="45.11882" lon="0.64469">
        <ele>212.8</ele>
        <time>2025-05-25T09:53:05Z</time>
      </trkpt>
      <trkpt lat="45.11889" lon="0.64471">
        <ele>212.8</ele>
        <time>2025-05-25T09:53:06Z</time>
      </trkpt>
      <trkpt lat="45.11896" lon="0.64475">
        <ele>213</ele>
        <time>2025-05-25T09:53:07Z</time>
      </trkpt>
      <trkpt lat="45.11903" lon="0.64478">
        <ele>213.2</ele>
        <time>2025-05-25T09:53:08Z</time>
      </trkpt>
      <trkpt lat="45.11909" lon="0.64481">
        <ele>213</ele>
        <time>2025-05-25T09:53:09Z</time>
      </trkpt>
      <trkpt lat="45.11916" lon="0.64485">
        <ele>213</ele>
        <time>2025-05-25T09:53:10Z</time>
      </trkpt>
      <trkpt lat="45.11924" lon="0.64489">
        <ele>212.6</ele>
        <time>2025-05-25T09:53:11Z</time>
      </trkpt>
      <trkpt lat="45.11931" lon="0.64493">
        <ele>212.2</ele>
        <time>2025-05-25T09:53:12Z</time>
      </trkpt>
      <trkpt lat="45.11939" lon="0.64496">
        <ele>211.8</ele>
        <time>2025-05-25T09:53:13Z</time>
      </trkpt>
      <trkpt lat="45.11949" lon="0.64497">
        <ele>210.4</ele>
        <time>2025-05-25T09:53:14Z</time>
      </trkpt>
      <trkpt lat="45.11958" lon="0.64495">
        <ele>209</ele>
        <time>2025-05-25T09:53:15Z</time>
      </trkpt>
      <trkpt lat="45.11966" lon="0.64491">
        <ele>208</ele>
        <time>2025-05-25T09:53:16Z</time>
      </trkpt>
      <trkpt lat="45.11974" lon="0.64489">
        <ele>207.6</ele>
        <time>2025-05-25T09:53:17Z</time>
      </trkpt>
      <trkpt lat="45.11983" lon="0.64488">
        <ele>207</ele>
        <time>2025-05-25T09:53:18Z</time>
      </trkpt>
      <trkpt lat="45.11992" lon="0.64488">
        <ele>206.2</ele>
        <time>2025-05-25T09:53:19Z</time>
      </trkpt>
      <trkpt lat="45.12002" lon="0.64489">
        <ele>205.8</ele>
        <time>2025-05-25T09:53:20Z</time>
      </trkpt>
      <trkpt lat="45.1201" lon="0.6449">
        <ele>205</ele>
        <time>2025-05-25T09:53:21Z</time>
      </trkpt>
      <trkpt lat="45.12019" lon="0.64491">
        <ele>204.6</ele>
        <time>2025-05-25T09:53:22Z</time>
      </trkpt>
      <trkpt lat="45.12026" lon="0.64492">
        <ele>204.4</ele>
        <time>2025-05-25T09:53:23Z</time>
      </trkpt>
      <trkpt lat="45.12032" lon="0.64493">
        <ele>204.2</ele>
        <time>2025-05-25T09:53:24Z</time>
      </trkpt>
      <trkpt lat="45.12037" lon="0.64494">
        <ele>204.2</ele>
        <time>2025-05-25T09:53:25Z</time>
      </trkpt>
      <trkpt lat="45.12042" lon="0.64492">
        <ele>204.4</ele>
        <time>2025-05-25T09:53:26Z</time>
      </trkpt>
      <trkpt lat="45.12045" lon="0.64489">
        <ele>204.4</ele>
        <time>2025-05-25T09:53:27Z</time>
      </trkpt>
      <trkpt lat="45.12049" lon="0.64485">
        <ele>204.4</ele>
        <time>2025-05-25T09:53:28Z</time>
      </trkpt>
      <trkpt lat="45.12053" lon="0.64481">
        <ele>204.2</ele>
        <time>2025-05-25T09:53:29Z</time>
      </trkpt>
      <trkpt lat="45.12058" lon="0.64477">
        <ele>204.2</ele>
        <time>2025-05-25T09:53:30Z</time>
      </trkpt>
      <trkpt lat="45.12062" lon="0.64473">
        <ele>204.4</ele>
        <time>2025-05-25T09:53:31Z</time>
      </trkpt>
      <trkpt lat="45.12067" lon="0.6447">
        <ele>204.6</ele>
        <time>2025-05-25T09:53:32Z</time>
      </trkpt>
      <trkpt lat="45.12071" lon="0.64468">
        <ele>204.8</ele>
        <time>2025-05-25T09:53:33Z</time>
      </trkpt>
      <trkpt lat="45.12076" lon="0.64465">
        <ele>205</ele>
        <time>2025-05-25T09:53:34Z</time>
      </trkpt>
      <trkpt lat="45.12081" lon="0.64463">
        <ele>205.2</ele>
        <time>2025-05-25T09:53:35Z</time>
      </trkpt>
      <trkpt lat="45.12087" lon="0.6446">
        <ele>205.6</ele>
        <time>2025-05-25T09:53:36Z</time>
      </trkpt>
      <trkpt lat="45.12092" lon="0.64457">
        <ele>205.8</ele>
        <time>2025-05-25T09:53:37Z</time>
      </trkpt>
      <trkpt lat="45.12098" lon="0.64454">
        <ele>205.8</ele>
        <time>2025-05-25T09:53:38Z</time>
      </trkpt>
      <trkpt lat="45.12103" lon="0.64451">
        <ele>205.8</ele>
        <time>2025-05-25T09:53:39Z</time>
      </trkpt>
      <trkpt lat="45.12109" lon="0.64449">
        <ele>205.8</ele>
        <time>2025-05-25T09:53:40Z</time>
      </trkpt>
      <trkpt lat="45.12115" lon="0.64446">
        <ele>206</ele>
        <time>2025-05-25T09:53:41Z</time>
      </trkpt>
      <trkpt lat="45.1212" lon="0.64444">
        <ele>206.2</ele>
        <time>2025-05-25T09:53:42Z</time>
      </trkpt>
      <trkpt lat="45.12126" lon="0.64442">
        <ele>206.2</ele>
        <time>2025-05-25T09:53:43Z</time>
      </trkpt>
      <trkpt lat="45.12132" lon="0.6444">
        <ele>206.6</ele>
        <time>2025-05-25T09:53:44Z</time>
      </trkpt>
      <trkpt lat="45.12138" lon="0.64438">
        <ele>206.8</ele>
        <time>2025-05-25T09:53:45Z</time>
      </trkpt>
      <trkpt lat="45.12143" lon="0.64436">
        <ele>207</ele>
        <time>2025-05-25T09:53:46Z</time>
      </trkpt>
      <trkpt lat="45.12147" lon="0.64433">
        <ele>207.4</ele>
        <time>2025-05-25T09:53:47Z</time>
      </trkpt>
      <trkpt lat="45.1215" lon="0.64429">
        <ele>207.8</ele>
        <time>2025-05-25T09:53:48Z</time>
      </trkpt>
      <trkpt lat="45.12152" lon="0.64426">
        <ele>208.2</ele>
        <time>2025-05-25T09:53:49Z</time>
      </trkpt>
      <trkpt lat="45.12154" lon="0.64422">
        <ele>208.6</ele>
        <time>2025-05-25T09:53:50Z</time>
      </trkpt>
      <trkpt lat="45.12155" lon="0.64417">
        <ele>209</ele>
        <time>2025-05-25T09:53:51Z</time>
      </trkpt>
      <trkpt lat="45.12156" lon="0.64411">
        <ele>209.2</ele>
        <time>2025-05-25T09:53:52Z</time>
      </trkpt>
      <trkpt lat="45.12156" lon="0.64406">
        <ele>209.2</ele>
        <time>2025-05-25T09:53:53Z</time>
      </trkpt>
      <trkpt lat="45.12157" lon="0.64401">
        <ele>209.4</ele>
        <time>2025-05-25T09:53:54Z</time>
      </trkpt>
      <trkpt lat="45.12156" lon="0.64396">
        <ele>209.4</ele>
        <time>2025-05-25T09:53:55Z</time>
      </trkpt>
      <trkpt lat="45.12155" lon="0.64392">
        <ele>209.4</ele>
        <time>2025-05-25T09:53:56Z</time>
      </trkpt>
      <trkpt lat="45.12153" lon="0.64387">
        <ele>209.4</ele>
        <time>2025-05-25T09:53:57Z</time>
      </trkpt>
      <trkpt lat="45.12151" lon="0.64381">
        <ele>209.6</ele>
        <time>2025-05-25T09:53:58Z</time>
      </trkpt>
      <trkpt lat="45.12149" lon="0.64376">
        <ele>209.4</ele>
        <time>2025-05-25T09:53:59Z</time>
      </trkpt>
      <trkpt lat="45.12148" lon="0.6437">
        <ele>209.4</ele>
        <time>2025-05-25T09:54:00Z</time>
      </trkpt>
      <trkpt lat="45.12147" lon="0.64365">
        <ele>209.4</ele>
        <time>2025-05-25T09:54:01Z</time>
      </trkpt>
      <trkpt lat="45.12146" lon="0.64359">
        <ele>209.4</ele>
        <time>2025-05-25T09:54:02Z</time>
      </trkpt>
      <trkpt lat="45.12145" lon="0.64352">
        <ele>209.4</ele>
        <time>2025-05-25T09:54:03Z</time>
      </trkpt>
      <trkpt lat="45.12144" lon="0.64346">
        <ele>209.6</ele>
        <time>2025-05-25T09:54:04Z</time>
      </trkpt>
      <trkpt lat="45.12144" lon="0.64338">
        <ele>209.6</ele>
        <time>2025-05-25T09:54:05Z</time>
      </trkpt>
      <trkpt lat="45.12144" lon="0.64331">
        <ele>209.6</ele>
        <time>2025-05-25T09:54:06Z</time>
      </trkpt>
      <trkpt lat="45.12144" lon="0.64323">
        <ele>209.6</ele>
        <time>2025-05-25T09:54:07Z</time>
      </trkpt>
      <trkpt lat="45.12144" lon="0.64316">
        <ele>209.4</ele>
        <time>2025-05-25T09:54:08Z</time>
      </trkpt>
      <trkpt lat="45.12144" lon="0.64308">
        <ele>209.2</ele>
        <time>2025-05-25T09:54:09Z</time>
      </trkpt>
      <trkpt lat="45.12144" lon="0.643">
        <ele>209.2</ele>
        <time>2025-05-25T09:54:10Z</time>
      </trkpt>
      <trkpt lat="45.12144" lon="0.64292">
        <ele>209</ele>
        <time>2025-05-25T09:54:11Z</time>
      </trkpt>
      <trkpt lat="45.12144" lon="0.64284">
        <ele>209.2</ele>
        <time>2025-05-25T09:54:12Z</time>
      </trkpt>
      <trkpt lat="45.12144" lon="0.64277">
        <ele>209.2</ele>
        <time>2025-05-25T09:54:13Z</time>
      </trkpt>
      <trkpt lat="45.12144" lon="0.64269">
        <ele>209.2</ele>
        <time>2025-05-25T09:54:14Z</time>
      </trkpt>
      <trkpt lat="45.12145" lon="0.64261">
        <ele>209.2</ele>
        <time>2025-05-25T09:54:15Z</time>
      </trkpt>
      <trkpt lat="45.12145" lon="0.64253">
        <ele>209.2</ele>
        <time>2025-05-25T09:54:16Z</time>
      </trkpt>
      <trkpt lat="45.12145" lon="0.64244">
        <ele>209.2</ele>
        <time>2025-05-25T09:54:17Z</time>
      </trkpt>
      <trkpt lat="45.12146" lon="0.64236">
        <ele>209.2</ele>
        <time>2025-05-25T09:54:18Z</time>
      </trkpt>
      <trkpt lat="45.12146" lon="0.64228">
        <ele>209.2</ele>
        <time>2025-05-25T09:54:19Z</time>
      </trkpt>
      <trkpt lat="45.12147" lon="0.6422">
        <ele>209.4</ele>
        <time>2025-05-25T09:54:20Z</time>
      </trkpt>
      <trkpt lat="45.12149" lon="0.64212">
        <ele>209.6</ele>
        <time>2025-05-25T09:54:21Z</time>
      </trkpt>
      <trkpt lat="45.12151" lon="0.64204">
        <ele>209.6</ele>
        <time>2025-05-25T09:54:22Z</time>
      </trkpt>
      <trkpt lat="45.12152" lon="0.64197">
        <ele>209.4</ele>
        <time>2025-05-25T09:54:23Z</time>
      </trkpt>
      <trkpt lat="45.12154" lon="0.64189">
        <ele>209.4</ele>
        <time>2025-05-25T09:54:24Z</time>
      </trkpt>
      <trkpt lat="45.12156" lon="0.64181">
        <ele>209.4</ele>
        <time>2025-05-25T09:54:25Z</time>
      </trkpt>
      <trkpt lat="45.12158" lon="0.64172">
        <ele>209.4</ele>
        <time>2025-05-25T09:54:26Z</time>
      </trkpt>
      <trkpt lat="45.12161" lon="0.64164">
        <ele>209.6</ele>
        <time>2025-05-25T09:54:27Z</time>
      </trkpt>
      <trkpt lat="45.12164" lon="0.64156">
        <ele>209.6</ele>
        <time>2025-05-25T09:54:28Z</time>
      </trkpt>
      <trkpt lat="45.12167" lon="0.64148">
        <ele>209.8</ele>
        <time>2025-05-25T09:54:29Z</time>
      </trkpt>
      <trkpt lat="45.1217" lon="0.6414">
        <ele>210</ele>
        <time>2025-05-25T09:54:30Z</time>
      </trkpt>
      <trkpt lat="45.12174" lon="0.64133">
        <ele>210.4</ele>
        <time>2025-05-25T09:54:31Z</time>
      </trkpt>
      <trkpt lat="45.12177" lon="0.64126">
        <ele>210.6</ele>
        <time>2025-05-25T09:54:32Z</time>
      </trkpt>
      <trkpt lat="45.12181" lon="0.64119">
        <ele>210.8</ele>
        <time>2025-05-25T09:54:33Z</time>
      </trkpt>
      <trkpt lat="45.12184" lon="0.64113">
        <ele>210.8</ele>
        <time>2025-05-25T09:54:34Z</time>
      </trkpt>
      <trkpt lat="45.12187" lon="0.64107">
        <ele>211</ele>
        <time>2025-05-25T09:54:35Z</time>
      </trkpt>
      <trkpt lat="45.1219" lon="0.64102">
        <ele>211</ele>
        <time>2025-05-25T09:54:36Z</time>
      </trkpt>
      <trkpt lat="45.12194" lon="0.64097">
        <ele>210.8</ele>
        <time>2025-05-25T09:54:37Z</time>
      </trkpt>
      <trkpt lat="45.12198" lon="0.64091">
        <ele>210.4</ele>
        <time>2025-05-25T09:54:38Z</time>
      </trkpt>
      <trkpt lat="45.12203" lon="0.64086">
        <ele>210.2</ele>
        <time>2025-05-25T09:54:39Z</time>
      </trkpt>
      <trkpt lat="45.12207" lon="0.64081">
        <ele>209.8</ele>
        <time>2025-05-25T09:54:40Z</time>
      </trkpt>
      <trkpt lat="45.12213" lon="0.64075">
        <ele>209.6</ele>
        <time>2025-05-25T09:54:41Z</time>
      </trkpt>
      <trkpt lat="45.12218" lon="0.6407">
        <ele>209.4</ele>
        <time>2025-05-25T09:54:42Z</time>
      </trkpt>
      <trkpt lat="45.12224" lon="0.64065">
        <ele>209.2</ele>
        <time>2025-05-25T09:54:43Z</time>
      </trkpt>
      <trkpt lat="45.1223" lon="0.6406">
        <ele>209</ele>
        <time>2025-05-25T09:54:44Z</time>
      </trkpt>
      <trkpt lat="45.12235" lon="0.64055">
        <ele>209</ele>
        <time>2025-05-25T09:54:45Z</time>
      </trkpt>
      <trkpt lat="45.12241" lon="0.64051">
        <ele>208.8</ele>
        <time>2025-05-25T09:54:46Z</time>
      </trkpt>
      <trkpt lat="45.12247" lon="0.64047">
        <ele>208.8</ele>
        <time>2025-05-25T09:54:47Z</time>
      </trkpt>
      <trkpt lat="45.12253" lon="0.64044">
        <ele>208.6</ele>
        <time>2025-05-25T09:54:48Z</time>
      </trkpt>
      <trkpt lat="45.1226" lon="0.6404">
        <ele>208.4</ele>
        <time>2025-05-25T09:54:49Z</time>
      </trkpt>
      <trkpt lat="45.12267" lon="0.64036">
        <ele>208.4</ele>
        <time>2025-05-25T09:54:50Z</time>
      </trkpt>
      <trkpt lat="45.12274" lon="0.64033">
        <ele>208.2</ele>
        <time>2025-05-25T09:54:51Z</time>
      </trkpt>
      <trkpt lat="45.12281" lon="0.6403">
        <ele>207.8</ele>
        <time>2025-05-25T09:54:52Z</time>
      </trkpt>
      <trkpt lat="45.12289" lon="0.64027">
        <ele>207.4</ele>
        <time>2025-05-25T09:54:53Z</time>
      </trkpt>
      <trkpt lat="45.12297" lon="0.64025">
        <ele>206.8</ele>
        <time>2025-05-25T09:54:54Z</time>
      </trkpt>
      <trkpt lat="45.12305" lon="0.64023">
        <ele>206.2</ele>
        <time>2025-05-25T09:54:55Z</time>
      </trkpt>
      <trkpt lat="45.12313" lon="0.64022">
        <ele>205.6</ele>
        <time>2025-05-25T09:54:56Z</time>
      </trkpt>
      <trkpt lat="45.12322" lon="0.64021">
        <ele>204.8</ele>
        <time>2025-05-25T09:54:57Z</time>
      </trkpt>
      <trkpt lat="45.12331" lon="0.64021">
        <ele>204.2</ele>
        <time>2025-05-25T09:54:58Z</time>
      </trkpt>
      <trkpt lat="45.12339" lon="0.64021">
        <ele>203.4</ele>
        <time>2025-05-25T09:54:59Z</time>
      </trkpt>
      <trkpt lat="45.12348" lon="0.64023">
        <ele>202.8</ele>
        <time>2025-05-25T09:55:00Z</time>
      </trkpt>
      <trkpt lat="45.12356" lon="0.64026">
        <ele>202</ele>
        <time>2025-05-25T09:55:01Z</time>
      </trkpt>
      <trkpt lat="45.12365" lon="0.6403">
        <ele>201.2</ele>
        <time>2025-05-25T09:55:02Z</time>
      </trkpt>
      <trkpt lat="45.12374" lon="0.64034">
        <ele>200.4</ele>
        <time>2025-05-25T09:55:03Z</time>
      </trkpt>
      <trkpt lat="45.12383" lon="0.64039">
        <ele>199.8</ele>
        <time>2025-05-25T09:55:04Z</time>
      </trkpt>
      <trkpt lat="45.12392" lon="0.64044">
        <ele>199.2</ele>
        <time>2025-05-25T09:55:05Z</time>
      </trkpt>
      <trkpt lat="45.12401" lon="0.64049">
        <ele>198.8</ele>
        <time>2025-05-25T09:55:06Z</time>
      </trkpt>
      <trkpt lat="45.12409" lon="0.64053">
        <ele>198.4</ele>
        <time>2025-05-25T09:55:07Z</time>
      </trkpt>
      <trkpt lat="45.12418" lon="0.64056">
        <ele>198</ele>
        <time>2025-05-25T09:55:08Z</time>
      </trkpt>
      <trkpt lat="45.12426" lon="0.64059">
        <ele>197.6</ele>
        <time>2025-05-25T09:55:09Z</time>
      </trkpt>
      <trkpt lat="45.12434" lon="0.64061">
        <ele>197.2</ele>
        <time>2025-05-25T09:55:10Z</time>
      </trkpt>
      <trkpt lat="45.12442" lon="0.64063">
        <ele>196.8</ele>
        <time>2025-05-25T09:55:11Z</time>
      </trkpt>
      <trkpt lat="45.12451" lon="0.64064">
        <ele>196.6</ele>
        <time>2025-05-25T09:55:12Z</time>
      </trkpt>
      <trkpt lat="45.1246" lon="0.64064">
        <ele>196.4</ele>
        <time>2025-05-25T09:55:13Z</time>
      </trkpt>
      <trkpt lat="45.12468" lon="0.64066">
        <ele>196</ele>
        <time>2025-05-25T09:55:14Z</time>
      </trkpt>
      <trkpt lat="45.12478" lon="0.64067">
        <ele>195.8</ele>
        <time>2025-05-25T09:55:15Z</time>
      </trkpt>
      <trkpt lat="45.12487" lon="0.6407">
        <ele>195.6</ele>
        <time>2025-05-25T09:55:16Z</time>
      </trkpt>
      <trkpt lat="45.12496" lon="0.64073">
        <ele>195.2</ele>
        <time>2025-05-25T09:55:17Z</time>
      </trkpt>
      <trkpt lat="45.12503" lon="0.64076">
        <ele>194.8</ele>
        <time>2025-05-25T09:55:18Z</time>
      </trkpt>
      <trkpt lat="45.1251" lon="0.64079">
        <ele>194.6</ele>
        <time>2025-05-25T09:55:19Z</time>
      </trkpt>
      <trkpt lat="45.12516" lon="0.64083">
        <ele>194.2</ele>
        <time>2025-05-25T09:55:20Z</time>
      </trkpt>
      <trkpt lat="45.12523" lon="0.64083">
        <ele>193.8</ele>
        <time>2025-05-25T09:55:21Z</time>
      </trkpt>
      <trkpt lat="45.12528" lon="0.6408">
        <ele>193.2</ele>
        <time>2025-05-25T09:55:22Z</time>
      </trkpt>
      <trkpt lat="45.12531" lon="0.64074">
        <ele>192.8</ele>
        <time>2025-05-25T09:55:23Z</time>
      </trkpt>
      <trkpt lat="45.12533" lon="0.64069">
        <ele>192.4</ele>
        <time>2025-05-25T09:55:24Z</time>
      </trkpt>
      <trkpt lat="45.12536" lon="0.64064">
        <ele>192.4</ele>
        <time>2025-05-25T09:55:25Z</time>
      </trkpt>
      <trkpt lat="45.12537" lon="0.6406">
        <ele>192.6</ele>
        <time>2025-05-25T09:55:26Z</time>
      </trkpt>
      <trkpt lat="45.12538" lon="0.64055">
        <ele>193</ele>
        <time>2025-05-25T09:55:27Z</time>
      </trkpt>
      <trkpt lat="45.12539" lon="0.64051">
        <ele>193.4</ele>
        <time>2025-05-25T09:55:28Z</time>
      </trkpt>
      <trkpt lat="45.12539" lon="0.64048">
        <ele>193.8</ele>
        <time>2025-05-25T09:55:29Z</time>
      </trkpt>
      <trkpt lat="45.12539" lon="0.64044">
        <ele>194.2</ele>
        <time>2025-05-25T09:55:30Z</time>
      </trkpt>
      <trkpt lat="45.1254" lon="0.64039">
        <ele>194.6</ele>
        <time>2025-05-25T09:55:31Z</time>
      </trkpt>
      <trkpt lat="45.1254" lon="0.64035">
        <ele>194.8</ele>
        <time>2025-05-25T09:55:32Z</time>
      </trkpt>
      <trkpt lat="45.12541" lon="0.64029">
        <ele>195</ele>
        <time>2025-05-25T09:55:33Z</time>
      </trkpt>
      <trkpt lat="45.12542" lon="0.64023">
        <ele>195.2</ele>
        <time>2025-05-25T09:55:34Z</time>
      </trkpt>
      <trkpt lat="45.12542" lon="0.64017">
        <ele>195.4</ele>
        <time>2025-05-25T09:55:35Z</time>
      </trkpt>
      <trkpt lat="45.12543" lon="0.6401">
        <ele>195.4</ele>
        <time>2025-05-25T09:55:36Z</time>
      </trkpt>
      <trkpt lat="45.12543" lon="0.64002">
        <ele>195.4</ele>
        <time>2025-05-25T09:55:37Z</time>
      </trkpt>
      <trkpt lat="45.12543" lon="0.63994">
        <ele>195.2</ele>
        <time>2025-05-25T09:55:38Z</time>
      </trkpt>
      <trkpt lat="45.12544" lon="0.63986">
        <ele>195.2</ele>
        <time>2025-05-25T09:55:39Z</time>
      </trkpt>
      <trkpt lat="45.12545" lon="0.63977">
        <ele>195</ele>
        <time>2025-05-25T09:55:40Z</time>
      </trkpt>
      <trkpt lat="45.12545" lon="0.63967">
        <ele>194.6</ele>
        <time>2025-05-25T09:55:41Z</time>
      </trkpt>
      <trkpt lat="45.12545" lon="0.63959">
        <ele>194.4</ele>
        <time>2025-05-25T09:55:42Z</time>
      </trkpt>
      <trkpt lat="45.12544" lon="0.63951">
        <ele>194.2</ele>
        <time>2025-05-25T09:55:43Z</time>
      </trkpt>
      <trkpt lat="45.12544" lon="0.63944">
        <ele>194</ele>
        <time>2025-05-25T09:55:44Z</time>
      </trkpt>
      <trkpt lat="45.12544" lon="0.63936">
        <ele>193.8</ele>
        <time>2025-05-25T09:55:45Z</time>
      </trkpt>
      <trkpt lat="45.12544" lon="0.63929">
        <ele>193.6</ele>
        <time>2025-05-25T09:55:46Z</time>
      </trkpt>
      <trkpt lat="45.12545" lon="0.63922">
        <ele>193.6</ele>
        <time>2025-05-25T09:55:47Z</time>
      </trkpt>
      <trkpt lat="45.12546" lon="0.63916">
        <ele>193.8</ele>
        <time>2025-05-25T09:55:48Z</time>
      </trkpt>
      <trkpt lat="45.12548" lon="0.63909">
        <ele>194</ele>
        <time>2025-05-25T09:55:49Z</time>
      </trkpt>
      <trkpt lat="45.1255" lon="0.63902">
        <ele>194.4</ele>
        <time>2025-05-25T09:55:50Z</time>
      </trkpt>
      <trkpt lat="45.12552" lon="0.63895">
        <ele>194.6</ele>
        <time>2025-05-25T09:55:51Z</time>
      </trkpt>
      <trkpt lat="45.12554" lon="0.63888">
        <ele>194.8</ele>
        <time>2025-05-25T09:55:52Z</time>
      </trkpt>
      <trkpt lat="45.12556" lon="0.6388">
        <ele>195</ele>
        <time>2025-05-25T09:55:53Z</time>
      </trkpt>
      <trkpt lat="45.12558" lon="0.63873">
        <ele>195.2</ele>
        <time>2025-05-25T09:55:54Z</time>
      </trkpt>
      <trkpt lat="45.1256" lon="0.63865">
        <ele>195.2</ele>
        <time>2025-05-25T09:55:55Z</time>
      </trkpt>
      <trkpt lat="45.12562" lon="0.63859">
        <ele>195.4</ele>
        <time>2025-05-25T09:55:56Z</time>
      </trkpt>
      <trkpt lat="45.12565" lon="0.63852">
        <ele>195.4</ele>
        <time>2025-05-25T09:55:57Z</time>
      </trkpt>
      <trkpt lat="45.12568" lon="0.63847">
        <ele>195.6</ele>
        <time>2025-05-25T09:55:58Z</time>
      </trkpt>
      <trkpt lat="45.1257" lon="0.63842">
        <ele>195.6</ele>
        <time>2025-05-25T09:55:59Z</time>
      </trkpt>
      <trkpt lat="45.12573" lon="0.63838">
        <ele>195.8</ele>
        <time>2025-05-25T09:56:00Z</time>
      </trkpt>
      <trkpt lat="45.12575" lon="0.63834">
        <ele>196.2</ele>
        <time>2025-05-25T09:56:01Z</time>
      </trkpt>
      <trkpt lat="45.12578" lon="0.63831">
        <ele>196.4</ele>
        <time>2025-05-25T09:56:02Z</time>
      </trkpt>
      <trkpt lat="45.12581" lon="0.63827">
        <ele>196.6</ele>
        <time>2025-05-25T09:56:03Z</time>
      </trkpt>
      <trkpt lat="45.12584" lon="0.63823">
        <ele>196.8</ele>
        <time>2025-05-25T09:56:04Z</time>
      </trkpt>
      <trkpt lat="45.12588" lon="0.63819">
        <ele>197</ele>
        <time>2025-05-25T09:56:05Z</time>
      </trkpt>
      <trkpt lat="45.12592" lon="0.63815">
        <ele>197</ele>
        <time>2025-05-25T09:56:06Z</time>
      </trkpt>
      <trkpt lat="45.12595" lon="0.63811">
        <ele>197</ele>
        <time>2025-05-25T09:56:07Z</time>
      </trkpt>
      <trkpt lat="45.12598" lon="0.63805">
        <ele>197.2</ele>
        <time>2025-05-25T09:56:08Z</time>
      </trkpt>
      <trkpt lat="45.12602" lon="0.63799">
        <ele>197</ele>
        <time>2025-05-25T09:56:09Z</time>
      </trkpt>
      <trkpt lat="45.12606" lon="0.63794">
        <ele>197</ele>
        <time>2025-05-25T09:56:10Z</time>
      </trkpt>
      <trkpt lat="45.1261" lon="0.63788">
        <ele>197</ele>
        <time>2025-05-25T09:56:11Z</time>
      </trkpt>
      <trkpt lat="45.12614" lon="0.63782">
        <ele>197</ele>
        <time>2025-05-25T09:56:12Z</time>
      </trkpt>
      <trkpt lat="45.12618" lon="0.63777">
        <ele>197</ele>
        <time>2025-05-25T09:56:13Z</time>
      </trkpt>
      <trkpt lat="45.12622" lon="0.63772">
        <ele>197</ele>
        <time>2025-05-25T09:56:14Z</time>
      </trkpt>
      <trkpt lat="45.12625" lon="0.63766">
        <ele>197</ele>
        <time>2025-05-25T09:56:15Z</time>
      </trkpt>
      <trkpt lat="45.12625" lon="0.63761">
        <ele>197</ele>
        <time>2025-05-25T09:56:16Z</time>
      </trkpt>
      <trkpt lat="45.12624" lon="0.63756">
        <ele>197</ele>
        <time>2025-05-25T09:56:17Z</time>
      </trkpt>
      <trkpt lat="45.12622" lon="0.63753">
        <ele>197.2</ele>
        <time>2025-05-25T09:56:18Z</time>
      </trkpt>
      <trkpt lat="45.12621" lon="0.63749">
        <ele>197.4</ele>
        <time>2025-05-25T09:56:19Z</time>
      </trkpt>
      <trkpt lat="45.12619" lon="0.63744">
        <ele>197.6</ele>
        <time>2025-05-25T09:56:20Z</time>
      </trkpt>
      <trkpt lat="45.12618" lon="0.6374">
        <ele>197.8</ele>
        <time>2025-05-25T09:56:21Z</time>
      </trkpt>
      <trkpt lat="45.12616" lon="0.63735">
        <ele>198.2</ele>
        <time>2025-05-25T09:56:22Z</time>
      </trkpt>
      <trkpt lat="45.12614" lon="0.6373">
        <ele>198.4</ele>
        <time>2025-05-25T09:56:23Z</time>
      </trkpt>
      <trkpt lat="45.12612" lon="0.63725">
        <ele>198.8</ele>
        <time>2025-05-25T09:56:24Z</time>
      </trkpt>
      <trkpt lat="45.12609" lon="0.63721">
        <ele>199</ele>
        <time>2025-05-25T09:56:25Z</time>
      </trkpt>
      <trkpt lat="45.12607" lon="0.63717">
        <ele>199.4</ele>
        <time>2025-05-25T09:56:26Z</time>
      </trkpt>
      <trkpt lat="45.12605" lon="0.63713">
        <ele>199.6</ele>
        <time>2025-05-25T09:56:27Z</time>
      </trkpt>
      <trkpt lat="45.12606" lon="0.63709">
        <ele>200</ele>
        <time>2025-05-25T09:56:28Z</time>
      </trkpt>
      <trkpt lat="45.12607" lon="0.63705">
        <ele>200.2</ele>
        <time>2025-05-25T09:56:29Z</time>
      </trkpt>
      <trkpt lat="45.12609" lon="0.637">
        <ele>200.2</ele>
        <time>2025-05-25T09:56:30Z</time>
      </trkpt>
      <trkpt lat="45.12611" lon="0.63695">
        <ele>200.2</ele>
        <time>2025-05-25T09:56:31Z</time>
      </trkpt>
      <trkpt lat="45.12614" lon="0.63689">
        <ele>200.2</ele>
        <time>2025-05-25T09:56:32Z</time>
      </trkpt>
      <trkpt lat="45.12617" lon="0.63684">
        <ele>200</ele>
        <time>2025-05-25T09:56:33Z</time>
      </trkpt>
      <trkpt lat="45.12621" lon="0.63678">
        <ele>199.6</ele>
        <time>2025-05-25T09:56:34Z</time>
      </trkpt>
      <trkpt lat="45.12625" lon="0.63672">
        <ele>199.2</ele>
        <time>2025-05-25T09:56:35Z</time>
      </trkpt>
      <trkpt lat="45.12629" lon="0.63666">
        <ele>198.8</ele>
        <time>2025-05-25T09:56:36Z</time>
      </trkpt>
      <trkpt lat="45.12633" lon="0.63659">
        <ele>198.2</ele>
        <time>2025-05-25T09:56:37Z</time>
      </trkpt>
      <trkpt lat="45.12637" lon="0.63652">
        <ele>197.6</ele>
        <time>2025-05-25T09:56:38Z</time>
      </trkpt>
      <trkpt lat="45.12642" lon="0.63644">
        <ele>197</ele>
        <time>2025-05-25T09:56:39Z</time>
      </trkpt>
      <trkpt lat="45.12647" lon="0.63637">
        <ele>196.2</ele>
        <time>2025-05-25T09:56:40Z</time>
      </trkpt>
      <trkpt lat="45.12652" lon="0.63629">
        <ele>195.4</ele>
        <time>2025-05-25T09:56:41Z</time>
      </trkpt>
      <trkpt lat="45.12657" lon="0.63622">
        <ele>194.8</ele>
        <time>2025-05-25T09:56:42Z</time>
      </trkpt>
      <trkpt lat="45.1266" lon="0.63612">
        <ele>194.4</ele>
        <time>2025-05-25T09:56:43Z</time>
      </trkpt>
      <trkpt lat="45.12662" lon="0.63602">
        <ele>194</ele>
        <time>2025-05-25T09:56:44Z</time>
      </trkpt>
      <trkpt lat="45.12662" lon="0.63591">
        <ele>193.6</ele>
        <time>2025-05-25T09:56:45Z</time>
      </trkpt>
      <trkpt lat="45.12663" lon="0.63581">
        <ele>192.8</ele>
        <time>2025-05-25T09:56:46Z</time>
      </trkpt>
      <trkpt lat="45.12663" lon="0.6357">
        <ele>192</ele>
        <time>2025-05-25T09:56:47Z</time>
      </trkpt>
      <trkpt lat="45.12663" lon="0.6356">
        <ele>191.4</ele>
        <time>2025-05-25T09:56:48Z</time>
      </trkpt>
      <trkpt lat="45.12663" lon="0.63549">
        <ele>190.8</ele>
        <time>2025-05-25T09:56:49Z</time>
      </trkpt>
      <trkpt lat="45.12664" lon="0.63539">
        <ele>190.2</ele>
        <time>2025-05-25T09:56:50Z</time>
      </trkpt>
      <trkpt lat="45.12664" lon="0.63528">
        <ele>189.6</ele>
        <time>2025-05-25T09:56:51Z</time>
      </trkpt>
      <trkpt lat="45.12665" lon="0.63519">
        <ele>189</ele>
        <time>2025-05-25T09:56:52Z</time>
      </trkpt>
      <trkpt lat="45.12665" lon="0.63512">
        <ele>188.6</ele>
        <time>2025-05-25T09:56:53Z</time>
      </trkpt>
      <trkpt lat="45.12666" lon="0.63506">
        <ele>188.4</ele>
        <time>2025-05-25T09:56:54Z</time>
      </trkpt>
      <trkpt lat="45.12666" lon="0.635">
        <ele>188.4</ele>
        <time>2025-05-25T09:56:55Z</time>
      </trkpt>
      <trkpt lat="45.12668" lon="0.63494">
        <ele>188.6</ele>
        <time>2025-05-25T09:56:56Z</time>
      </trkpt>
      <trkpt lat="45.12671" lon="0.63492">
        <ele>189</ele>
        <time>2025-05-25T09:56:57Z</time>
      </trkpt>
      <trkpt lat="45.12674" lon="0.63493">
        <ele>189</ele>
        <time>2025-05-25T09:56:58Z</time>
      </trkpt>
      <trkpt lat="45.12676" lon="0.63497">
        <ele>189.2</ele>
        <time>2025-05-25T09:56:59Z</time>
      </trkpt>
      <trkpt lat="45.12678" lon="0.63502">
        <ele>189.2</ele>
        <time>2025-05-25T09:57:00Z</time>
      </trkpt>
      <trkpt lat="45.1268" lon="0.63507">
        <ele>189.2</ele>
        <time>2025-05-25T09:57:01Z</time>
      </trkpt>
      <trkpt lat="45.12683" lon="0.63513">
        <ele>189</ele>
        <time>2025-05-25T09:57:02Z</time>
      </trkpt>
      <trkpt lat="45.12686" lon="0.63521">
        <ele>188.8</ele>
        <time>2025-05-25T09:57:03Z</time>
      </trkpt>
      <trkpt lat="45.12689" lon="0.63529">
        <ele>188.2</ele>
        <time>2025-05-25T09:57:04Z</time>
      </trkpt>
      <trkpt lat="45.12691" lon="0.63539">
        <ele>187.4</ele>
        <time>2025-05-25T09:57:05Z</time>
      </trkpt>
      <trkpt lat="45.12694" lon="0.6355">
        <ele>186.2</ele>
        <time>2025-05-25T09:57:06Z</time>
      </trkpt>
      <trkpt lat="45.12698" lon="0.6356">
        <ele>185</ele>
        <time>2025-05-25T09:57:07Z</time>
      </trkpt>
      <trkpt lat="45.12702" lon="0.63571">
        <ele>183.6</ele>
        <time>2025-05-25T09:57:08Z</time>
      </trkpt>
      <trkpt lat="45.12708" lon="0.63582">
        <ele>181.8</ele>
        <time>2025-05-25T09:57:09Z</time>
      </trkpt>
      <trkpt lat="45.12714" lon="0.63593">
        <ele>180.2</ele>
        <time>2025-05-25T09:57:10Z</time>
      </trkpt>
      <trkpt lat="45.12721" lon="0.63605">
        <ele>179</ele>
        <time>2025-05-25T09:57:11Z</time>
      </trkpt>
      <trkpt lat="45.12729" lon="0.63618">
        <ele>177.2</ele>
        <time>2025-05-25T09:57:12Z</time>
      </trkpt>
      <trkpt lat="45.12737" lon="0.6363">
        <ele>175.2</ele>
        <time>2025-05-25T09:57:13Z</time>
      </trkpt>
      <trkpt lat="45.12744" lon="0.63644">
        <ele>172.8</ele>
        <time>2025-05-25T09:57:14Z</time>
      </trkpt>
      <trkpt lat="45.12752" lon="0.63658">
        <ele>171</ele>
        <time>2025-05-25T09:57:15Z</time>
      </trkpt>
      <trkpt lat="45.12758" lon="0.63671">
        <ele>169.8</ele>
        <time>2025-05-25T09:57:16Z</time>
      </trkpt>
      <trkpt lat="45.12765" lon="0.63684">
        <ele>168.4</ele>
        <time>2025-05-25T09:57:17Z</time>
      </trkpt>
      <trkpt lat="45.12772" lon="0.63697">
        <ele>167.4</ele>
        <time>2025-05-25T09:57:18Z</time>
      </trkpt>
      <trkpt lat="45.12779" lon="0.63711">
        <ele>166.4</ele>
        <time>2025-05-25T09:57:19Z</time>
      </trkpt>
      <trkpt lat="45.12785" lon="0.63724">
        <ele>165.8</ele>
        <time>2025-05-25T09:57:20Z</time>
      </trkpt>
      <trkpt lat="45.12792" lon="0.63737">
        <ele>165.2</ele>
        <time>2025-05-25T09:57:21Z</time>
      </trkpt>
      <trkpt lat="45.12797" lon="0.63751">
        <ele>164.2</ele>
        <time>2025-05-25T09:57:22Z</time>
      </trkpt>
      <trkpt lat="45.12801" lon="0.63766">
        <ele>163.2</ele>
        <time>2025-05-25T09:57:23Z</time>
      </trkpt>
      <trkpt lat="45.12803" lon="0.63783">
        <ele>161.6</ele>
        <time>2025-05-25T09:57:24Z</time>
      </trkpt>
      <trkpt lat="45.12803" lon="0.63802">
        <ele>159.2</ele>
        <time>2025-05-25T09:57:25Z</time>
      </trkpt>
      <trkpt lat="45.12805" lon="0.6382">
        <ele>156.2</ele>
        <time>2025-05-25T09:57:26Z</time>
      </trkpt>
      <trkpt lat="45.12808" lon="0.63838">
        <ele>154.6</ele>
        <time>2025-05-25T09:57:27Z</time>
      </trkpt>
      <trkpt lat="45.12812" lon="0.63854">
        <ele>153</ele>
        <time>2025-05-25T09:57:28Z</time>
      </trkpt>
      <trkpt lat="45.12816" lon="0.63869">
        <ele>151.8</ele>
        <time>2025-05-25T09:57:29Z</time>
      </trkpt>
      <trkpt lat="45.1282" lon="0.63883">
        <ele>151.6</ele>
        <time>2025-05-25T09:57:30Z</time>
      </trkpt>
      <trkpt lat="45.12824" lon="0.63895">
        <ele>152</ele>
        <time>2025-05-25T09:57:31Z</time>
      </trkpt>
      <trkpt lat="45.12827" lon="0.63901">
        <ele>153</ele>
        <time>2025-05-25T09:57:32Z</time>
      </trkpt>
      <trkpt lat="45.12831" lon="0.63904">
        <ele>154.4</ele>
        <time>2025-05-25T09:57:33Z</time>
      </trkpt>
      <trkpt lat="45.12834" lon="0.63903">
        <ele>155.6</ele>
        <time>2025-05-25T09:57:34Z</time>
      </trkpt>
      <trkpt lat="45.12836" lon="0.63902">
        <ele>156.8</ele>
        <time>2025-05-25T09:57:35Z</time>
      </trkpt>
      <trkpt lat="45.12838" lon="0.639">
        <ele>157.8</ele>
        <time>2025-05-25T09:57:36Z</time>
      </trkpt>
      <trkpt lat="45.1284" lon="0.63899">
        <ele>158.4</ele>
        <time>2025-05-25T09:57:37Z</time>
      </trkpt>
      <trkpt lat="45.12842" lon="0.639">
        <ele>158.6</ele>
        <time>2025-05-25T09:57:38Z</time>
      </trkpt>
      <trkpt lat="45.12844" lon="0.639">
        <ele>158.6</ele>
        <time>2025-05-25T09:57:39Z</time>
      </trkpt>
      <trkpt lat="45.12844" lon="0.639">
        <ele>158.6</ele>
        <time>2025-05-25T09:57:40Z</time>
      </trkpt>
      <trkpt lat="45.12844" lon="0.639">
        <ele>158.6</ele>
        <time>2025-05-25T09:57:41Z</time>
      </trkpt>
    </trkseg>
  </trk>
</gpx>